<?xml version='1.0' encoding='UTF-8'?><gpx version="1.1" creator="JPX - https://github.com/jenetics/jpx" xmlns="http://www.topografix.com/GPX/1/1"><trk><trkseg><trkpt lat="42.46579252118538" lon="14.186317238740848"><ele>29.0</ele><time>2026-04-19T06:15:52Z</time></trkpt><trkpt lat="42.46585659126121" lon="14.186283868671039"><ele>29.0</ele><time>2026-04-19T06:15:53Z</time></trkpt><trkpt lat="42.46597773817623" lon="14.186227150898228"><ele>29.0</ele><time>2026-04-19T06:15:55Z</time></trkpt><trkpt lat="42.466085796711454" lon="14.186184538934016"><ele>29.0</ele><time>2026-04-19T06:15:57Z</time></trkpt><trkpt lat="42.46616604084036" lon="14.186149869725037"><ele>29.0</ele><time>2026-04-19T06:15:59Z</time></trkpt><trkpt lat="42.466228511857665" lon="14.186103758041025"><ele>28.999999999999996</ele><time>2026-04-19T06:16:02Z</time></trkpt><trkpt lat="42.46627926688789" lon="14.186046377975767"><ele>29.0</ele><time>2026-04-19T06:16:05Z</time></trkpt><trkpt lat="42.46637145065023" lon="14.185989841470159"><ele>29.0</ele><time>2026-04-19T06:16:07Z</time></trkpt><trkpt lat="42.4664148987361" lon="14.185908515206199"><ele>29.0</ele><time>2026-04-19T06:16:09Z</time></trkpt><trkpt lat="42.46631086977904" lon="14.18578853811991"><ele>28.999999999999996</ele><time>2026-04-19T06:16:11Z</time></trkpt><trkpt lat="42.46625126972719" lon="14.185737121469076"><ele>29.0</ele><time>2026-04-19T06:16:12Z</time></trkpt><trkpt lat="42.4661908879048" lon="14.185674233062313"><ele>29.499999999999996</ele><time>2026-04-19T06:16:13Z</time></trkpt><trkpt lat="42.4661555545638" lon="14.185602828953323"><ele>30.0</ele><time>2026-04-19T06:16:14Z</time></trkpt><trkpt lat="42.466137537027755" lon="14.1855146298122"><ele>30.5</ele><time>2026-04-19T06:16:15Z</time></trkpt><trkpt lat="42.466120629979464" lon="14.18540081802698"><ele>31.0</ele><time>2026-04-19T06:16:16Z</time></trkpt><trkpt lat="42.46609910244017" lon="14.185289575948085"><ele>31.499999999999996</ele><time>2026-04-19T06:16:17Z</time></trkpt><trkpt lat="42.46607624969374" lon="14.185171485933472"><ele>32.0</ele><time>2026-04-19T06:16:18Z</time></trkpt><trkpt lat="42.466035156447596" lon="14.18505409655386"><ele>32.0</ele><time>2026-04-19T06:16:19Z</time></trkpt><trkpt lat="42.4660068081555" lon="14.184931227367109"><ele>32.0</ele><time>2026-04-19T06:16:20Z</time></trkpt><trkpt lat="42.46598194896386" lon="14.184804521129713"><ele>32.0</ele><time>2026-04-19T06:16:21Z</time></trkpt><trkpt lat="42.46595137812461" lon="14.184677632357387"><ele>32.0</ele><time>2026-04-19T06:16:22Z</time></trkpt><trkpt lat="42.46591520088364" lon="14.184556974913404"><ele>32.0</ele><time>2026-04-19T06:16:23Z</time></trkpt><trkpt lat="42.465871683592475" lon="14.184437187547564"><ele>33.4</ele><time>2026-04-19T06:16:24Z</time></trkpt><trkpt lat="42.46582253401684" lon="14.184321411337319"><ele>34.800000000000004</ele><time>2026-04-19T06:16:25Z</time></trkpt><trkpt lat="42.46576751319214" lon="14.184210449131486"><ele>36.2</ele><time>2026-04-19T06:16:26Z</time></trkpt><trkpt lat="42.465710190911615" lon="14.184103558256908"><ele>37.6</ele><time>2026-04-19T06:16:27Z</time></trkpt><trkpt lat="42.46565207494752" lon="14.183993158262822"><ele>39.0</ele><time>2026-04-19T06:16:28Z</time></trkpt><trkpt lat="42.4655997587019" lon="14.183891883944758"><ele>39.166666666666664</ele><time>2026-04-19T06:16:29Z</time></trkpt><trkpt lat="42.46555408314681" lon="14.183795424674537"><ele>39.333333333333336</ele><time>2026-04-19T06:16:30Z</time></trkpt><trkpt lat="42.465512258737796" lon="14.183707315751994"><ele>39.5</ele><time>2026-04-19T06:16:31Z</time></trkpt><trkpt lat="42.46547107064222" lon="14.183624539569632"><ele>39.66666666666667</ele><time>2026-04-19T06:16:32Z</time></trkpt><trkpt lat="42.46543368170525" lon="14.183546207993958"><ele>39.833333333333336</ele><time>2026-04-19T06:16:33Z</time></trkpt><trkpt lat="42.46539280726675" lon="14.183463774762153"><ele>40.0</ele><time>2026-04-19T06:16:34Z</time></trkpt><trkpt lat="42.465359306547704" lon="14.183368100394594"><ele>40.0</ele><time>2026-04-19T06:16:35Z</time></trkpt><trkpt lat="42.4653350244567" lon="14.183274705624243"><ele>40.0</ele><time>2026-04-19T06:16:36Z</time></trkpt><trkpt lat="42.46531729492413" lon="14.18318676207954"><ele>40.0</ele><time>2026-04-19T06:16:37Z</time></trkpt><trkpt lat="42.46530581130999" lon="14.183073284006221"><ele>40.0</ele><time>2026-04-19T06:16:39Z</time></trkpt><trkpt lat="42.465313350331385" lon="14.182977799027345"><ele>40.0</ele><time>2026-04-19T06:16:41Z</time></trkpt><trkpt lat="42.465308944728704" lon="14.18285502881773"><ele>40.0</ele><time>2026-04-19T06:16:43Z</time></trkpt><trkpt lat="42.46522812321776" lon="14.182685864664851"><ele>40.25</ele><time>2026-04-19T06:16:45Z</time></trkpt><trkpt lat="42.465169055943186" lon="14.182567656945231"><ele>40.5</ele><time>2026-04-19T06:16:46Z</time></trkpt><trkpt lat="42.46509029438957" lon="14.18239166040293"><ele>40.75</ele><time>2026-04-19T06:16:47Z</time></trkpt><trkpt lat="42.46499659712523" lon="14.182166613188583"><ele>41.0</ele><time>2026-04-19T06:16:48Z</time></trkpt><trkpt lat="42.4649103809004" lon="14.181964217064726"><ele>41.0</ele><time>2026-04-19T06:16:49Z</time></trkpt><trkpt lat="42.464832167656915" lon="14.181789537577814"><ele>41.0</ele><time>2026-04-19T06:16:50Z</time></trkpt><trkpt lat="42.46477125082629" lon="14.18164378930993"><ele>41.0</ele><time>2026-04-19T06:16:51Z</time></trkpt><trkpt lat="42.46471265224226" lon="14.181499802850643"><ele>41.0</ele><time>2026-04-19T06:16:52Z</time></trkpt><trkpt lat="42.46465899488565" lon="14.181363546499254"><ele>38.8</ele><time>2026-04-19T06:16:53Z</time></trkpt><trkpt lat="42.464603902726886" lon="14.181228797929988"><ele>36.599999999999994</ele><time>2026-04-19T06:16:54Z</time></trkpt><trkpt lat="42.46454805421875" lon="14.181095292072031"><ele>34.4</ele><time>2026-04-19T06:16:55Z</time></trkpt><trkpt lat="42.46449179867244" lon="14.180967237207167"><ele>32.2</ele><time>2026-04-19T06:16:56Z</time></trkpt><trkpt lat="42.464440795770365" lon="14.180842459674565"><ele>30.0</ele><time>2026-04-19T06:16:57Z</time></trkpt><trkpt lat="42.46439339705554" lon="14.18071168489498"><ele>30.2</ele><time>2026-04-19T06:16:58Z</time></trkpt><trkpt lat="42.46435616764277" lon="14.18057829669191"><ele>30.4</ele><time>2026-04-19T06:16:59Z</time></trkpt><trkpt lat="42.46432812396745" lon="14.180447581339035"><ele>30.6</ele><time>2026-04-19T06:17:00Z</time></trkpt><trkpt lat="42.464307621874084" lon="14.180315807639902"><ele>30.8</ele><time>2026-04-19T06:17:01Z</time></trkpt><trkpt lat="42.464287269785316" lon="14.180182218954918"><ele>31.0</ele><time>2026-04-19T06:17:02Z</time></trkpt><trkpt lat="42.464267295614654" lon="14.180059860124361"><ele>31.000000000000004</ele><time>2026-04-19T06:17:03Z</time></trkpt><trkpt lat="42.464244500367286" lon="14.1799365087189"><ele>31.0</ele><time>2026-04-19T06:17:04Z</time></trkpt><trkpt lat="42.46422885619143" lon="14.17981678575138"><ele>31.0</ele><time>2026-04-19T06:17:05Z</time></trkpt><trkpt lat="42.464212986245144" lon="14.17970843311094"><ele>31.0</ele><time>2026-04-19T06:17:06Z</time></trkpt><trkpt lat="42.46420054824189" lon="14.179607152911979"><ele>31.000000000000004</ele><time>2026-04-19T06:17:07Z</time></trkpt><trkpt lat="42.46417941284877" lon="14.179505520376386"><ele>31.0</ele><time>2026-04-19T06:17:08Z</time></trkpt><trkpt lat="42.464148205309726" lon="14.179400580995225"><ele>30.5</ele><time>2026-04-19T06:17:09Z</time></trkpt><trkpt lat="42.46411101444779" lon="14.17927887282658"><ele>30.0</ele><time>2026-04-19T06:17:10Z</time></trkpt><trkpt lat="42.464072294347375" lon="14.179162624685612"><ele>29.5</ele><time>2026-04-19T06:17:11Z</time></trkpt><trkpt lat="42.46411844295888" lon="14.178978945446035"><ele>29.0</ele><time>2026-04-19T06:17:12Z</time></trkpt><trkpt lat="42.46410678291437" lon="14.178790476499254"><ele>28.833333333333332</ele><time>2026-04-19T06:17:12.999Z</time></trkpt><trkpt lat="42.46411446579884" lon="14.178630599502975"><ele>28.666666666666664</ele><time>2026-04-19T06:17:13.999Z</time></trkpt><trkpt lat="42.46411443599975" lon="14.178491618411414"><ele>28.5</ele><time>2026-04-19T06:17:14.999Z</time></trkpt><trkpt lat="42.46411665677463" lon="14.178382762475612"><ele>28.333333333333336</ele><time>2026-04-19T06:17:15.999Z</time></trkpt><trkpt lat="42.46413861281575" lon="14.178290516785687"><ele>28.166666666666668</ele><time>2026-04-19T06:17:16.999Z</time></trkpt><trkpt lat="42.46418649930088" lon="14.178226523922358"><ele>28.0</ele><time>2026-04-19T06:17:17.999Z</time></trkpt><trkpt lat="42.464281850466385" lon="14.178139855052407"><ele>28.0</ele><time>2026-04-19T06:17:19.999Z</time></trkpt><trkpt lat="42.46432324496606" lon="14.178233732679548"><ele>27.999999999999996</ele><time>2026-04-19T06:17:20.999Z</time></trkpt><trkpt lat="42.46425387102973" lon="14.178046116669758"><ele>27.999999999999996</ele><time>2026-04-19T06:17:21.999Z</time></trkpt><trkpt lat="42.464305047310866" lon="14.177936884636084"><ele>28.0</ele><time>2026-04-19T06:21:15Z</time></trkpt><trkpt lat="42.46426530479753" lon="14.177809113878359"><ele>28.0</ele><time>2026-04-19T06:21:41.999Z</time></trkpt><trkpt lat="42.464160353003166" lon="14.17774287246991"><ele>28.0</ele><time>2026-04-19T06:21:43.999Z</time></trkpt><trkpt lat="42.464094755865744" lon="14.17759243694929"><ele>27.999999999999996</ele><time>2026-04-19T06:21:45.999Z</time></trkpt><trkpt lat="42.46407646926616" lon="14.177483901096922"><ele>27.999999999999996</ele><time>2026-04-19T06:21:46.999Z</time></trkpt><trkpt lat="42.46406262939546" lon="14.177354364724804"><ele>28.0</ele><time>2026-04-19T06:21:47.999Z</time></trkpt><trkpt lat="42.46406506991386" lon="14.177222026063998"><ele>28.0</ele><time>2026-04-19T06:21:48.999Z</time></trkpt><trkpt lat="42.464048418505016" lon="14.177084890315877"><ele>28.5</ele><time>2026-04-19T06:21:49.999Z</time></trkpt><trkpt lat="42.46403067898161" lon="14.176945401032436"><ele>29.0</ele><time>2026-04-19T06:21:50.999Z</time></trkpt><trkpt lat="42.464000399389604" lon="14.176801141946056"><ele>29.5</ele><time>2026-04-19T06:21:51.999Z</time></trkpt><trkpt lat="42.46398427346113" lon="14.176621988531727"><ele>30.0</ele><time>2026-04-19T06:21:52.999Z</time></trkpt><trkpt lat="42.463966301449716" lon="14.17641360184139"><ele>31.0</ele><time>2026-04-19T06:21:53.999Z</time></trkpt><trkpt lat="42.46395006302734" lon="14.1761959797852"><ele>32.0</ele><time>2026-04-19T06:21:54.999Z</time></trkpt><trkpt lat="42.46394167189607" lon="14.17598193901503"><ele>33.0</ele><time>2026-04-19T06:21:55.999Z</time></trkpt><trkpt lat="42.46396505717928" lon="14.17576704280335"><ele>32.666666666666664</ele><time>2026-04-19T06:21:57.001Z</time></trkpt><trkpt lat="42.463979886127255" lon="14.175540268750272"><ele>32.33333333333333</ele><time>2026-04-19T06:21:58.001Z</time></trkpt><trkpt lat="42.46399103399467" lon="14.175300106607876"><ele>32.0</ele><time>2026-04-19T06:21:59.001Z</time></trkpt><trkpt lat="42.4640409378716" lon="14.175076747398823"><ele>31.666666666666664</ele><time>2026-04-19T06:22:00.001Z</time></trkpt><trkpt lat="42.46408150323985" lon="14.174839163737952"><ele>31.333333333333336</ele><time>2026-04-19T06:22:01.001Z</time></trkpt><trkpt lat="42.46411559562446" lon="14.174602035054523"><ele>31.0</ele><time>2026-04-19T06:22:02.001Z</time></trkpt><trkpt lat="42.46415166791093" lon="14.174363259791633"><ele>31.0</ele><time>2026-04-19T06:22:03.001Z</time></trkpt><trkpt lat="42.46418586650499" lon="14.174128859647952"><ele>31.0</ele><time>2026-04-19T06:22:04.001Z</time></trkpt><trkpt lat="42.46420849922823" lon="14.173896436701696"><ele>31.0</ele><time>2026-04-19T06:22:05.001Z</time></trkpt><trkpt lat="42.46424288249314" lon="14.173686784253542"><ele>31.333333333333336</ele><time>2026-04-19T06:22:06.001Z</time></trkpt><trkpt lat="42.464293223758986" lon="14.173471697092594"><ele>31.666666666666664</ele><time>2026-04-19T06:22:07.001Z</time></trkpt><trkpt lat="42.46435559113691" lon="14.173279462588274"><ele>32.0</ele><time>2026-04-19T06:22:08.001Z</time></trkpt><trkpt lat="42.46443670021483" lon="14.173092473597766"><ele>32.0</ele><time>2026-04-19T06:22:09.001Z</time></trkpt><trkpt lat="42.46453764423009" lon="14.172925238419488"><ele>32.0</ele><time>2026-04-19T06:22:10.001Z</time></trkpt><trkpt lat="42.46464835797909" lon="14.172779232025473"><ele>32.0</ele><time>2026-04-19T06:22:11.001Z</time></trkpt><trkpt lat="42.46476767671346" lon="14.172640093252603"><ele>32.5</ele><time>2026-04-19T06:22:12.001Z</time></trkpt><trkpt lat="42.46488546411576" lon="14.17251864176802"><ele>33.0</ele><time>2026-04-19T06:22:13Z</time></trkpt><trkpt lat="42.46499260726194" lon="14.172408548119998"><ele>33.5</ele><time>2026-04-19T06:22:14Z</time></trkpt><trkpt lat="42.465084262027084" lon="14.172309284182148"><ele>34.0</ele><time>2026-04-19T06:22:15Z</time></trkpt><trkpt lat="42.46516008289929" lon="14.172211011416188"><ele>34.0</ele><time>2026-04-19T06:22:16Z</time></trkpt><trkpt lat="42.4652464128213" lon="14.172105809177886"><ele>34.0</ele><time>2026-04-19T06:22:17Z</time></trkpt><trkpt lat="42.4653208910783" lon="14.17199298222708"><ele>34.0</ele><time>2026-04-19T06:22:18Z</time></trkpt><trkpt lat="42.46537963647624" lon="14.171873943688801"><ele>34.0</ele><time>2026-04-19T06:22:19Z</time></trkpt><trkpt lat="42.46542861772369" lon="14.171741200239545"><ele>34.0</ele><time>2026-04-19T06:22:20Z</time></trkpt><trkpt lat="42.46544842262701" lon="14.171595916174175"><ele>33.75</ele><time>2026-04-19T06:22:21Z</time></trkpt><trkpt lat="42.465447973463725" lon="14.17143676341873"><ele>33.5</ele><time>2026-04-19T06:22:22Z</time></trkpt><trkpt lat="42.46542018146279" lon="14.17125537184711"><ele>33.25</ele><time>2026-04-19T06:22:23Z</time></trkpt><trkpt lat="42.46537079258426" lon="14.171066855138678"><ele>33.0</ele><time>2026-04-19T06:22:24Z</time></trkpt><trkpt lat="42.465293394799914" lon="14.170891876206406"><ele>32.75</ele><time>2026-04-19T06:22:25Z</time></trkpt><trkpt lat="42.46520027618351" lon="14.170723837018999"><ele>32.5</ele><time>2026-04-19T06:22:26Z</time></trkpt><trkpt lat="42.46510028098761" lon="14.170558733733294"><ele>32.25</ele><time>2026-04-19T06:22:27Z</time></trkpt><trkpt lat="42.46501575117579" lon="14.170417022252431"><ele>32.0</ele><time>2026-04-19T06:22:28Z</time></trkpt><trkpt lat="42.46494324638267" lon="14.170286705667872"><ele>32.4</ele><time>2026-04-19T06:22:29Z</time></trkpt><trkpt lat="42.46489314844321" lon="14.170190673533483"><ele>32.800000000000004</ele><time>2026-04-19T06:22:30Z</time></trkpt><trkpt lat="42.46485198048615" lon="14.170121354870153"><ele>33.2</ele><time>2026-04-19T06:22:31Z</time></trkpt><trkpt lat="42.46482250449431" lon="14.17003102315451"><ele>33.6</ele><time>2026-04-19T06:22:33Z</time></trkpt><trkpt lat="42.46466276319358" lon="14.170049886297969"><ele>34.0</ele><time>2026-04-19T06:22:36Z</time></trkpt><trkpt lat="42.46459685414683" lon="14.170110740876376"><ele>33.0</ele><time>2026-04-19T06:22:37Z</time></trkpt><trkpt lat="42.46454586129936" lon="14.170219992254244"><ele>32.0</ele><time>2026-04-19T06:22:38Z</time></trkpt><trkpt lat="42.46451027350432" lon="14.170361543300583"><ele>31.0</ele><time>2026-04-19T06:22:39Z</time></trkpt><trkpt lat="42.46447941046574" lon="14.170540418779066"><ele>30.0</ele><time>2026-04-19T06:22:40Z</time></trkpt><trkpt lat="42.464438463538976" lon="14.170752441504558"><ele>30.0</ele><time>2026-04-19T06:22:41Z</time></trkpt><trkpt lat="42.464384316760615" lon="14.170987318858838"><ele>30.0</ele><time>2026-04-19T06:22:42Z</time></trkpt><trkpt lat="42.46430513818145" lon="14.17123110353343"><ele>30.0</ele><time>2026-04-19T06:22:43Z</time></trkpt><trkpt lat="42.46419099405529" lon="14.171472688080867"><ele>29.666666666666664</ele><time>2026-04-19T06:22:44Z</time></trkpt><trkpt lat="42.46404772908335" lon="14.171693004180417"><ele>29.333333333333332</ele><time>2026-04-19T06:22:45Z</time></trkpt><trkpt lat="42.46389617868584" lon="14.171908388351094"><ele>29.0</ele><time>2026-04-19T06:22:46Z</time></trkpt><trkpt lat="42.463738432355996" lon="14.172112819120624"><ele>29.0</ele><time>2026-04-19T06:22:47Z</time></trkpt><trkpt lat="42.46356629453104" lon="14.172320434935349"><ele>29.0</ele><time>2026-04-19T06:22:48Z</time></trkpt><trkpt lat="42.46338793547668" lon="14.172507561294209"><ele>29.0</ele><time>2026-04-19T06:22:49Z</time></trkpt><trkpt lat="42.46319211069947" lon="14.172692920538738"><ele>29.0</ele><time>2026-04-19T06:22:50Z</time></trkpt><trkpt lat="42.46297964865918" lon="14.17287511024686"><ele>29.0</ele><time>2026-04-19T06:22:51Z</time></trkpt><trkpt lat="42.46273654407796" lon="14.17306023221083"><ele>29.0</ele><time>2026-04-19T06:22:52Z</time></trkpt><trkpt lat="42.462481607909204" lon="14.173226103492809"><ele>28.5</ele><time>2026-04-19T06:22:53Z</time></trkpt><trkpt lat="42.46221592801896" lon="14.173378709190581"><ele>28.0</ele><time>2026-04-19T06:22:54Z</time></trkpt><trkpt lat="42.46193296836302" lon="14.17352577763739"><ele>30.5</ele><time>2026-04-19T06:22:55Z</time></trkpt><trkpt lat="42.4616289459477" lon="14.173660536384666"><ele>33.0</ele><time>2026-04-19T06:22:56Z</time></trkpt><trkpt lat="42.46132850545632" lon="14.17376561338861"><ele>39.5</ele><time>2026-04-19T06:22:57Z</time></trkpt><trkpt lat="42.46104203638623" lon="14.173830145421208"><ele>46.0</ele><time>2026-04-19T06:22:58Z</time></trkpt><trkpt lat="42.460761930732296" lon="14.173871002272096"><ele>46.0</ele><time>2026-04-19T06:22:59Z</time></trkpt><trkpt lat="42.4604897948883" lon="14.173893808984197"><ele>46.0</ele><time>2026-04-19T06:23:00Z</time></trkpt><trkpt lat="42.46023089937043" lon="14.173891930156076"><ele>51.5</ele><time>2026-04-19T06:23:01Z</time></trkpt><trkpt lat="42.45997824213501" lon="14.173880450998768"><ele>57.0</ele><time>2026-04-19T06:23:02Z</time></trkpt><trkpt lat="42.459732087468346" lon="14.173861428500413"><ele>58.5</ele><time>2026-04-19T06:23:03Z</time></trkpt><trkpt lat="42.45947679476708" lon="14.173836773943036"><ele>60.0</ele><time>2026-04-19T06:23:04Z</time></trkpt><trkpt lat="42.45922456993985" lon="14.17380371710636"><ele>60.0</ele><time>2026-04-19T06:23:05Z</time></trkpt><trkpt lat="42.458978208670786" lon="14.173774967707718"><ele>60.0</ele><time>2026-04-19T06:23:06Z</time></trkpt><trkpt lat="42.45873086338201" lon="14.173744021583543"><ele>59.0</ele><time>2026-04-19T06:23:07Z</time></trkpt><trkpt lat="42.45847746226548" lon="14.17371553985883"><ele>58.0</ele><time>2026-04-19T06:23:08Z</time></trkpt><trkpt lat="42.458225051622236" lon="14.17369294554803"><ele>58.0</ele><time>2026-04-19T06:23:09Z</time></trkpt><trkpt lat="42.457965581496005" lon="14.1736835241748"><ele>58.0</ele><time>2026-04-19T06:23:10Z</time></trkpt><trkpt lat="42.45770124643895" lon="14.173689015821058"><ele>56.5</ele><time>2026-04-19T06:23:11Z</time></trkpt><trkpt lat="42.457421328300825" lon="14.1737164246858"><ele>55.0</ele><time>2026-04-19T06:23:12Z</time></trkpt><trkpt lat="42.457140251912065" lon="14.173764500819502"><ele>54.5</ele><time>2026-04-19T06:23:13Z</time></trkpt><trkpt lat="42.45685648237447" lon="14.17383373424268"><ele>54.0</ele><time>2026-04-19T06:23:14Z</time></trkpt><trkpt lat="42.45656135924987" lon="14.173933794109317"><ele>51.0</ele><time>2026-04-19T06:23:15Z</time></trkpt><trkpt lat="42.4562591726184" lon="14.17406735061144"><ele>48.0</ele><time>2026-04-19T06:23:16Z</time></trkpt><trkpt lat="42.455942354662156" lon="14.174229799968458"><ele>48.0</ele><time>2026-04-19T06:23:17Z</time></trkpt><trkpt lat="42.45563050972874" lon="14.174416114758316"><ele>48.0</ele><time>2026-04-19T06:23:18Z</time></trkpt><trkpt lat="42.45532864489476" lon="14.174642688051922"><ele>46.0</ele><time>2026-04-19T06:23:19Z</time></trkpt><trkpt lat="42.455033895149704" lon="14.17488713488209"><ele>44.0</ele><time>2026-04-19T06:23:20Z</time></trkpt><trkpt lat="42.45476866419505" lon="14.175149223151134"><ele>41.5</ele><time>2026-04-19T06:23:21Z</time></trkpt><trkpt lat="42.45452574271559" lon="14.175420983746253"><ele>39.0</ele><time>2026-04-19T06:23:22Z</time></trkpt><trkpt lat="42.45429809845669" lon="14.17570101952303"><ele>39.0</ele><time>2026-04-19T06:23:23Z</time></trkpt><trkpt lat="42.45408908201701" lon="14.176004856996263"><ele>39.0</ele><time>2026-04-19T06:23:24Z</time></trkpt><trkpt lat="42.45389006466143" lon="14.176307967207247"><ele>36.0</ele><time>2026-04-19T06:23:25Z</time></trkpt><trkpt lat="42.45370660087292" lon="14.176633531847978"><ele>33.0</ele><time>2026-04-19T06:23:26Z</time></trkpt><trkpt lat="42.45353546371196" lon="14.176974406357077"><ele>33.0</ele><time>2026-04-19T06:23:27Z</time></trkpt><trkpt lat="42.45337312810661" lon="14.177332155246201"><ele>33.0</ele><time>2026-04-19T06:23:28Z</time></trkpt><trkpt lat="42.4532156308508" lon="14.177702265003191"><ele>34.0</ele><time>2026-04-19T06:23:29Z</time></trkpt><trkpt lat="42.453059906597474" lon="14.17806950788302"><ele>35.0</ele><time>2026-04-19T06:23:30Z</time></trkpt><trkpt lat="42.45290305135455" lon="14.17843461047359"><ele>31.0</ele><time>2026-04-19T06:23:31Z</time></trkpt><trkpt lat="42.45274474290051" lon="14.178778768263887"><ele>27.0</ele><time>2026-04-19T06:23:32Z</time></trkpt><trkpt lat="42.45256825861098" lon="14.179117922042847"><ele>26.5</ele><time>2026-04-19T06:23:33Z</time></trkpt><trkpt lat="42.45237019164061" lon="14.179425161019019"><ele>26.0</ele><time>2026-04-19T06:23:34Z</time></trkpt><trkpt lat="42.4521654063931" lon="14.179718649864368"><ele>24.0</ele><time>2026-04-19T06:23:35Z</time></trkpt><trkpt lat="42.451951031322174" lon="14.179994199505813"><ele>22.0</ele><time>2026-04-19T06:23:36Z</time></trkpt><trkpt lat="42.451718575306735" lon="14.180258358799483"><ele>22.0</ele><time>2026-04-19T06:23:37Z</time></trkpt><trkpt lat="42.45147129386008" lon="14.180509921240189"><ele>22.0</ele><time>2026-04-19T06:23:38Z</time></trkpt><trkpt lat="42.45121070263669" lon="14.18073795051965"><ele>20.5</ele><time>2026-04-19T06:23:39Z</time></trkpt><trkpt lat="42.45094987933476" lon="14.180948448417771"><ele>19.0</ele><time>2026-04-19T06:23:40Z</time></trkpt><trkpt lat="42.45069172916797" lon="14.181150765358588"><ele>18.5</ele><time>2026-04-19T06:23:41Z</time></trkpt><trkpt lat="42.45044149119397" lon="14.181359307295565"><ele>18.0</ele><time>2026-04-19T06:23:42Z</time></trkpt><trkpt lat="42.450202710139585" lon="14.181577778325371"><ele>18.0</ele><time>2026-04-19T06:23:42.999Z</time></trkpt><trkpt lat="42.4499741578357" lon="14.181807861472803"><ele>18.0</ele><time>2026-04-19T06:23:43.999Z</time></trkpt><trkpt lat="42.4497520688448" lon="14.182056664069814"><ele>17.0</ele><time>2026-04-19T06:23:44.999Z</time></trkpt><trkpt lat="42.449537291073796" lon="14.182312654191017"><ele>16.0</ele><time>2026-04-19T06:23:45.999Z</time></trkpt><trkpt lat="42.44932158393061" lon="14.182588236098008"><ele>16.0</ele><time>2026-04-19T06:23:46.999Z</time></trkpt><trkpt lat="42.44911188029761" lon="14.182871825758973"><ele>16.0</ele><time>2026-04-19T06:23:47.999Z</time></trkpt><trkpt lat="42.44890431496985" lon="14.183176294998736"><ele>13.5</ele><time>2026-04-19T06:23:48.999Z</time></trkpt><trkpt lat="42.448699837569045" lon="14.183496530533315"><ele>11.0</ele><time>2026-04-19T06:23:49.999Z</time></trkpt><trkpt lat="42.44850176204595" lon="14.183821541474511"><ele>12.0</ele><time>2026-04-19T06:23:50.999Z</time></trkpt><trkpt lat="42.44831041101621" lon="14.184137354710343"><ele>13.0</ele><time>2026-04-19T06:23:51.999Z</time></trkpt><trkpt lat="42.448127452755216" lon="14.184437369908697"><ele>13.5</ele><time>2026-04-19T06:23:52.999Z</time></trkpt><trkpt lat="42.44794719020187" lon="14.18473581222666"><ele>14.0</ele><time>2026-04-19T06:23:53.999Z</time></trkpt><trkpt lat="42.447771120159125" lon="14.18502617037451"><ele>14.0</ele><time>2026-04-19T06:23:54.999Z</time></trkpt><trkpt lat="42.44759866867804" lon="14.185312252335457"><ele>14.0</ele><time>2026-04-19T06:23:55.999Z</time></trkpt><trkpt lat="42.44743204081444" lon="14.185583351249813"><ele>13.5</ele><time>2026-04-19T06:23:56.999Z</time></trkpt><trkpt lat="42.447273697464574" lon="14.185836071930442"><ele>13.0</ele><time>2026-04-19T06:23:57.999Z</time></trkpt><trkpt lat="42.44712492230683" lon="14.186071327951822"><ele>12.0</ele><time>2026-04-19T06:23:58.999Z</time></trkpt><trkpt lat="42.44697860026237" lon="14.186288916841518"><ele>11.0</ele><time>2026-04-19T06:23:59.999Z</time></trkpt><trkpt lat="42.446816520197" lon="14.18649933268046"><ele>10.0</ele><time>2026-04-19T06:24:00.999Z</time></trkpt><trkpt lat="42.44663042178031" lon="14.186694729630995"><ele>10.0</ele><time>2026-04-19T06:24:01.999Z</time></trkpt><trkpt lat="42.446424241081" lon="14.186867449521852"><ele>10.0</ele><time>2026-04-19T06:24:03Z</time></trkpt><trkpt lat="42.44622524516962" lon="14.18701760733948"><ele>9.666666666666668</ele><time>2026-04-19T06:24:04Z</time></trkpt><trkpt lat="42.44604348001088" lon="14.187168550084387"><ele>9.333333333333334</ele><time>2026-04-19T06:24:05Z</time></trkpt><trkpt lat="42.44586955081649" lon="14.18731810373435"><ele>9.0</ele><time>2026-04-19T06:24:06Z</time></trkpt><trkpt lat="42.4457009490768" lon="14.187462600431479"><ele>9.0</ele><time>2026-04-19T06:24:07Z</time></trkpt><trkpt lat="42.44553566816026" lon="14.187602284253522"><ele>9.0</ele><time>2026-04-19T06:24:08Z</time></trkpt><trkpt lat="42.44537960753415" lon="14.187735609256526"><ele>9.0</ele><time>2026-04-19T06:24:09Z</time></trkpt><trkpt lat="42.44521759535581" lon="14.187872600416899"><ele>9.0</ele><time>2026-04-19T06:24:10Z</time></trkpt><trkpt lat="42.445048091703775" lon="14.188005792533845"><ele>9.0</ele><time>2026-04-19T06:24:11Z</time></trkpt><trkpt lat="42.44487173735104" lon="14.188098960907114"><ele>9.0</ele><time>2026-04-19T06:24:12Z</time></trkpt><trkpt lat="42.444689538761146" lon="14.188156434459831"><ele>9.333333333333334</ele><time>2026-04-19T06:24:13Z</time></trkpt><trkpt lat="42.444509629465976" lon="14.188176431457379"><ele>9.666666666666668</ele><time>2026-04-19T06:24:14Z</time></trkpt><trkpt lat="42.4443409870284" lon="14.18815112957816"><ele>10.0</ele><time>2026-04-19T06:24:15Z</time></trkpt><trkpt lat="42.44417902783092" lon="14.188094615760193"><ele>10.0</ele><time>2026-04-19T06:24:16Z</time></trkpt><trkpt lat="42.444034468518886" lon="14.187992652310642"><ele>10.0</ele><time>2026-04-19T06:24:17Z</time></trkpt><trkpt lat="42.44386638044049" lon="14.187866308672259"><ele>10.0</ele><time>2026-04-19T06:24:18Z</time></trkpt><trkpt lat="42.443678248027254" lon="14.18772354313078"><ele>10.5</ele><time>2026-04-19T06:24:19Z</time></trkpt><trkpt lat="42.44348079383352" lon="14.187582887327808"><ele>11.0</ele><time>2026-04-19T06:24:20Z</time></trkpt><trkpt lat="42.443277097505835" lon="14.187434480887443"><ele>11.0</ele><time>2026-04-19T06:24:21Z</time></trkpt><trkpt lat="42.443077882660525" lon="14.187285581309409"><ele>11.0</ele><time>2026-04-19T06:24:22Z</time></trkpt><trkpt lat="42.44288318562633" lon="14.187139470426287"><ele>11.0</ele><time>2026-04-19T06:24:23Z</time></trkpt><trkpt lat="42.44268741220164" lon="14.18699360323111"><ele>11.0</ele><time>2026-04-19T06:24:24Z</time></trkpt><trkpt lat="42.44249586526344" lon="14.186847560758101"><ele>11.0</ele><time>2026-04-19T06:24:25Z</time></trkpt><trkpt lat="42.442302241271335" lon="14.186699622677652"><ele>11.333333333333332</ele><time>2026-04-19T06:24:26Z</time></trkpt><trkpt lat="42.442110568176844" lon="14.186553967729127"><ele>11.666666666666666</ele><time>2026-04-19T06:24:27Z</time></trkpt><trkpt lat="42.441918248433026" lon="14.186410262069352"><ele>12.0</ele><time>2026-04-19T06:24:28Z</time></trkpt><trkpt lat="42.44172513201592" lon="14.186265809053056"><ele>12.0</ele><time>2026-04-19T06:24:29Z</time></trkpt><trkpt lat="42.44153248697463" lon="14.18612127295757"><ele>12.0</ele><time>2026-04-19T06:24:30Z</time></trkpt><trkpt lat="42.44133899748722" lon="14.185974717320923"><ele>12.0</ele><time>2026-04-19T06:24:31Z</time></trkpt><trkpt lat="42.44114649213914" lon="14.18582978492557"><ele>11.666666666666666</ele><time>2026-04-19T06:24:32Z</time></trkpt><trkpt lat="42.44095244046171" lon="14.185685303508304"><ele>11.333333333333332</ele><time>2026-04-19T06:24:33Z</time></trkpt><trkpt lat="42.440761651607716" lon="14.185544417443099"><ele>11.0</ele><time>2026-04-19T06:24:34Z</time></trkpt><trkpt lat="42.440569109502924" lon="14.185399060178824"><ele>11.0</ele><time>2026-04-19T06:24:35Z</time></trkpt><trkpt lat="42.44037886093281" lon="14.185252107101226"><ele>11.0</ele><time>2026-04-19T06:24:36Z</time></trkpt><trkpt lat="42.44018555294856" lon="14.185102192218412"><ele>11.0</ele><time>2026-04-19T06:24:37Z</time></trkpt><trkpt lat="42.4399953446702" lon="14.184957507785754"><ele>11.0</ele><time>2026-04-19T06:24:38Z</time></trkpt><trkpt lat="42.4398035741622" lon="14.184810374707116"><ele>11.0</ele><time>2026-04-19T06:24:39Z</time></trkpt><trkpt lat="42.43961032692928" lon="14.184665129913116"><ele>11.0</ele><time>2026-04-19T06:24:40Z</time></trkpt><trkpt lat="42.43941596233042" lon="14.184517495778032"><ele>11.333333333333332</ele><time>2026-04-19T06:24:41Z</time></trkpt><trkpt lat="42.439226609096096" lon="14.184371620026035"><ele>11.666666666666666</ele><time>2026-04-19T06:24:42Z</time></trkpt><trkpt lat="42.43903631419673" lon="14.184223615824301"><ele>12.0</ele><time>2026-04-19T06:24:43Z</time></trkpt><trkpt lat="42.43884420394415" lon="14.184074673430748"><ele>12.0</ele><time>2026-04-19T06:24:44Z</time></trkpt><trkpt lat="42.438653775892796" lon="14.183926883424043"><ele>12.0</ele><time>2026-04-19T06:24:45Z</time></trkpt><trkpt lat="42.43846644700891" lon="14.183777979908026"><ele>12.0</ele><time>2026-04-19T06:24:46Z</time></trkpt><trkpt lat="42.438274728768704" lon="14.183623173114087"><ele>12.0</ele><time>2026-04-19T06:24:47Z</time></trkpt><trkpt lat="42.438084739351446" lon="14.183473306625856"><ele>12.0</ele><time>2026-04-19T06:24:48Z</time></trkpt><trkpt lat="42.43789529128621" lon="14.183321401135048"><ele>12.0</ele><time>2026-04-19T06:24:49Z</time></trkpt><trkpt lat="42.43770391240988" lon="14.183168525745502"><ele>12.333333333333332</ele><time>2026-04-19T06:24:50Z</time></trkpt><trkpt lat="42.43751297811416" lon="14.183020476482321"><ele>12.666666666666666</ele><time>2026-04-19T06:24:51Z</time></trkpt><trkpt lat="42.43732140521442" lon="14.182874882423445"><ele>13.0</ele><time>2026-04-19T06:24:52Z</time></trkpt><trkpt lat="42.43713148707043" lon="14.18272996779808"><ele>13.0</ele><time>2026-04-19T06:24:53Z</time></trkpt><trkpt lat="42.43694071202182" lon="14.182581166243637"><ele>13.0</ele><time>2026-04-19T06:24:54Z</time></trkpt><trkpt lat="42.436751785952495" lon="14.182429421764317"><ele>13.0</ele><time>2026-04-19T06:24:55Z</time></trkpt><trkpt lat="42.43656268099945" lon="14.182276634014348"><ele>13.0</ele><time>2026-04-19T06:24:56Z</time></trkpt><trkpt lat="42.43637227109434" lon="14.182124302459581"><ele>13.0</ele><time>2026-04-19T06:24:57Z</time></trkpt><trkpt lat="42.43618397409857" lon="14.181977404761344"><ele>13.0</ele><time>2026-04-19T06:24:58Z</time></trkpt><trkpt lat="42.4359917632047" lon="14.18182682957545"><ele>12.333333333333332</ele><time>2026-04-19T06:24:59Z</time></trkpt><trkpt lat="42.43580090376613" lon="14.181679358525002"><ele>11.666666666666666</ele><time>2026-04-19T06:25:00Z</time></trkpt><trkpt lat="42.43560908369449" lon="14.181529575976578"><ele>11.0</ele><time>2026-04-19T06:25:01Z</time></trkpt><trkpt lat="42.43541877596042" lon="14.18138169291721"><ele>11.0</ele><time>2026-04-19T06:25:02Z</time></trkpt><trkpt lat="42.43522794453299" lon="14.181234812547327"><ele>11.0</ele><time>2026-04-19T06:25:03Z</time></trkpt><trkpt lat="42.43503629370848" lon="14.181087311353672"><ele>11.0</ele><time>2026-04-19T06:25:04Z</time></trkpt><trkpt lat="42.43484268308646" lon="14.180939356429262"><ele>11.0</ele><time>2026-04-19T06:25:05Z</time></trkpt><trkpt lat="42.43465101723972" lon="14.180792066599679"><ele>11.0</ele><time>2026-04-19T06:25:06Z</time></trkpt><trkpt lat="42.434459023147234" lon="14.180642893761927"><ele>11.0</ele><time>2026-04-19T06:25:07Z</time></trkpt><trkpt lat="42.43426912153305" lon="14.18049565018055"><ele>10.666666666666666</ele><time>2026-04-19T06:25:08Z</time></trkpt><trkpt lat="42.434077111193545" lon="14.180346184035571"><ele>10.333333333333334</ele><time>2026-04-19T06:25:09Z</time></trkpt><trkpt lat="42.43388639019182" lon="14.180199690938458"><ele>10.0</ele><time>2026-04-19T06:25:10Z</time></trkpt><trkpt lat="42.43369263957527" lon="14.180053793992329"><ele>10.0</ele><time>2026-04-19T06:25:11Z</time></trkpt><trkpt lat="42.43349895907547" lon="14.179914537480895"><ele>10.0</ele><time>2026-04-19T06:25:12Z</time></trkpt><trkpt lat="42.43330127937502" lon="14.179778809792639"><ele>10.0</ele><time>2026-04-19T06:25:13Z</time></trkpt><trkpt lat="42.43310326008273" lon="14.179649282594246"><ele>10.333333333333334</ele><time>2026-04-19T06:25:14Z</time></trkpt><trkpt lat="42.432903979321566" lon="14.179521289970817"><ele>10.666666666666666</ele><time>2026-04-19T06:25:15Z</time></trkpt><trkpt lat="42.43270427058107" lon="14.179399756910069"><ele>11.0</ele><time>2026-04-19T06:25:16Z</time></trkpt><trkpt lat="42.432502665511834" lon="14.1792782295793"><ele>11.0</ele><time>2026-04-19T06:25:17Z</time></trkpt><trkpt lat="42.43230097817666" lon="14.179161495004207"><ele>11.0</ele><time>2026-04-19T06:25:18Z</time></trkpt><trkpt lat="42.43209735676298" lon="14.179047814704694"><ele>11.0</ele><time>2026-04-19T06:25:19Z</time></trkpt><trkpt lat="42.43189351479706" lon="14.178940631134374"><ele>10.666666666666666</ele><time>2026-04-19T06:25:20Z</time></trkpt><trkpt lat="42.4316875024595" lon="14.178831993250418"><ele>10.333333333333334</ele><time>2026-04-19T06:25:21Z</time></trkpt><trkpt lat="42.43148128886561" lon="14.178726903701117"><ele>10.0</ele><time>2026-04-19T06:25:22Z</time></trkpt><trkpt lat="42.43127411843553" lon="14.178622569898204"><ele>10.0</ele><time>2026-04-19T06:25:23Z</time></trkpt><trkpt lat="42.431067774589046" lon="14.178518629711538"><ele>10.0</ele><time>2026-04-19T06:25:24Z</time></trkpt><trkpt lat="42.43086101850803" lon="14.178413035527388"><ele>10.0</ele><time>2026-04-19T06:25:25Z</time></trkpt><trkpt lat="42.43065446870015" lon="14.1783071799456"><ele>10.0</ele><time>2026-04-19T06:25:26Z</time></trkpt><trkpt lat="42.430447781303" lon="14.178202395325284"><ele>10.0</ele><time>2026-04-19T06:25:27Z</time></trkpt><trkpt lat="42.430241667426735" lon="14.178096582972877"><ele>10.0</ele><time>2026-04-19T06:25:28Z</time></trkpt><trkpt lat="42.43003542645633" lon="14.177991504693184"><ele>9.333333333333334</ele><time>2026-04-19T06:25:29Z</time></trkpt><trkpt lat="42.429831345469985" lon="14.177885413287123"><ele>8.666666666666666</ele><time>2026-04-19T06:25:30Z</time></trkpt><trkpt lat="42.42962707444029" lon="14.17777088958602"><ele>8.0</ele><time>2026-04-19T06:25:31Z</time></trkpt><trkpt lat="42.42942444144847" lon="14.177652062814632"><ele>9.333333333333332</ele><time>2026-04-19T06:25:32Z</time></trkpt><trkpt lat="42.429225027662696" lon="14.177520643175937"><ele>10.666666666666666</ele><time>2026-04-19T06:25:32.999Z</time></trkpt><trkpt lat="42.42902887235193" lon="14.17738158420907"><ele>12.0</ele><time>2026-04-19T06:25:33.999Z</time></trkpt><trkpt lat="42.42883665953727" lon="14.177241771038215"><ele>12.333333333333332</ele><time>2026-04-19T06:25:34.999Z</time></trkpt><trkpt lat="42.42864522298035" lon="14.17709104507592"><ele>12.666666666666666</ele><time>2026-04-19T06:25:35.999Z</time></trkpt><trkpt lat="42.42845702148765" lon="14.176937185057954"><ele>13.0</ele><time>2026-04-19T06:25:36.999Z</time></trkpt><trkpt lat="42.428272046215284" lon="14.176778626461582"><ele>13.0</ele><time>2026-04-19T06:25:37.999Z</time></trkpt><trkpt lat="42.42808979616736" lon="14.176612754332298"><ele>13.0</ele><time>2026-04-19T06:25:38.999Z</time></trkpt><trkpt lat="42.427908392242486" lon="14.176440940292522"><ele>13.0</ele><time>2026-04-19T06:25:39.999Z</time></trkpt><trkpt lat="42.42773045202426" lon="14.176263977400609"><ele>13.666666666666666</ele><time>2026-04-19T06:25:40.999Z</time></trkpt><trkpt lat="42.427554545762675" lon="14.176085567138227"><ele>14.333333333333332</ele><time>2026-04-19T06:25:41.999Z</time></trkpt><trkpt lat="42.42737790420403" lon="14.175905140372754"><ele>15.0</ele><time>2026-04-19T06:25:42.999Z</time></trkpt><trkpt lat="42.427199460613586" lon="14.175733826282825"><ele>14.333333333333332</ele><time>2026-04-19T06:25:43.999Z</time></trkpt><trkpt lat="42.42702024249926" lon="14.175564836152693"><ele>13.666666666666666</ele><time>2026-04-19T06:25:44.999Z</time></trkpt><trkpt lat="42.426841717483406" lon="14.175387733608448"><ele>13.0</ele><time>2026-04-19T06:25:45.999Z</time></trkpt><trkpt lat="42.42666566974103" lon="14.175207346952682"><ele>13.0</ele><time>2026-04-19T06:25:46.999Z</time></trkpt><trkpt lat="42.426493532787674" lon="14.175025167565284"><ele>13.0</ele><time>2026-04-19T06:25:47.999Z</time></trkpt><trkpt lat="42.4263193495727" lon="14.174836083664061"><ele>13.0</ele><time>2026-04-19T06:25:48.999Z</time></trkpt><trkpt lat="42.42614740462133" lon="14.174651871391628"><ele>13.666666666666666</ele><time>2026-04-19T06:25:49.999Z</time></trkpt><trkpt lat="42.425971869122456" lon="14.174473994372951"><ele>14.333333333333332</ele><time>2026-04-19T06:25:50.999Z</time></trkpt><trkpt lat="42.42579553707797" lon="14.17429965669271"><ele>15.0</ele><time>2026-04-19T06:25:51.999Z</time></trkpt><trkpt lat="42.42561513338924" lon="14.17412392588381"><ele>15.0</ele><time>2026-04-19T06:25:52.999Z</time></trkpt><trkpt lat="42.425438111447654" lon="14.17394696610428"><ele>15.0</ele><time>2026-04-19T06:25:53.999Z</time></trkpt><trkpt lat="42.425262409236836" lon="14.173766503788945"><ele>15.0</ele><time>2026-04-19T06:25:54.999Z</time></trkpt><trkpt lat="42.4250880723141" lon="14.173583715758083"><ele>15.0</ele><time>2026-04-19T06:25:55.999Z</time></trkpt><trkpt lat="42.4249171191885" lon="14.173401932379626"><ele>15.0</ele><time>2026-04-19T06:25:56.999Z</time></trkpt><trkpt lat="42.42474274001155" lon="14.173212056477418"><ele>15.0</ele><time>2026-04-19T06:25:57.999Z</time></trkpt><trkpt lat="42.42457189827424" lon="14.173028066183253"><ele>14.5</ele><time>2026-04-19T06:25:58.999Z</time></trkpt><trkpt lat="42.42438614648025" lon="14.172829580351548"><ele>14.0</ele><time>2026-04-19T06:25:59.999Z</time></trkpt><trkpt lat="42.42418182735173" lon="14.172614378449824"><ele>14.0</ele><time>2026-04-19T06:26:00.999Z</time></trkpt><trkpt lat="42.42396271949655" lon="14.172385203199076"><ele>14.0</ele><time>2026-04-19T06:26:01.999Z</time></trkpt><trkpt lat="42.423719063881656" lon="14.17214456209753"><ele>14.5</ele><time>2026-04-19T06:26:02.999Z</time></trkpt><trkpt lat="42.42345364010433" lon="14.171917633009903"><ele>15.0</ele><time>2026-04-19T06:26:03.999Z</time></trkpt><trkpt lat="42.42316813349533" lon="14.171690764468424"><ele>17.5</ele><time>2026-04-19T06:26:04.999Z</time></trkpt><trkpt lat="42.42287507800571" lon="14.171444927923956"><ele>20.0</ele><time>2026-04-19T06:26:05.999Z</time></trkpt><trkpt lat="42.42256519169673" lon="14.171195096954484"><ele>20.0</ele><time>2026-04-19T06:26:06.999Z</time></trkpt><trkpt lat="42.42224072719203" lon="14.17095369390542"><ele>20.0</ele><time>2026-04-19T06:26:07.999Z</time></trkpt><trkpt lat="42.421904449980794" lon="14.170716356470104"><ele>18.5</ele><time>2026-04-19T06:26:09Z</time></trkpt><trkpt lat="42.421576132513195" lon="14.170489258315602"><ele>17.0</ele><time>2026-04-19T06:26:10Z</time></trkpt><trkpt lat="42.42126354838809" lon="14.170276510185024"><ele>17.0</ele><time>2026-04-19T06:26:11Z</time></trkpt><trkpt lat="42.4209529808665" lon="14.170064010134146"><ele>17.0</ele><time>2026-04-19T06:26:12Z</time></trkpt><trkpt lat="42.42064629898199" lon="14.169854156481051"><ele>15.5</ele><time>2026-04-19T06:26:13Z</time></trkpt><trkpt lat="42.42033698212293" lon="14.169637817807809"><ele>14.0</ele><time>2026-04-19T06:26:14Z</time></trkpt><trkpt lat="42.420028607777304" lon="14.16942228389102"><ele>14.0</ele><time>2026-04-19T06:26:15Z</time></trkpt><trkpt lat="42.41972501962539" lon="14.169211160554063"><ele>14.0</ele><time>2026-04-19T06:26:16Z</time></trkpt><trkpt lat="42.41941540132965" lon="14.168998322442484"><ele>15.5</ele><time>2026-04-19T06:26:17Z</time></trkpt><trkpt lat="42.41911026783366" lon="14.168791230446745"><ele>17.0</ele><time>2026-04-19T06:26:18Z</time></trkpt><trkpt lat="42.41880412629916" lon="14.16858470569042"><ele>17.0</ele><time>2026-04-19T06:26:19Z</time></trkpt><trkpt lat="42.418496381319855" lon="14.16837663375834"><ele>17.0</ele><time>2026-04-19T06:26:20Z</time></trkpt><trkpt lat="42.418190985870346" lon="14.168165504765966"><ele>17.5</ele><time>2026-04-19T06:26:21Z</time></trkpt><trkpt lat="42.41788336416071" lon="14.167955731551032"><ele>18.0</ele><time>2026-04-19T06:26:22Z</time></trkpt><trkpt lat="42.41757562525332" lon="14.167743525612217"><ele>18.0</ele><time>2026-04-19T06:26:23Z</time></trkpt><trkpt lat="42.41726973763341" lon="14.167531799286975"><ele>18.0</ele><time>2026-04-19T06:26:24Z</time></trkpt><trkpt lat="42.416964587873004" lon="14.167315565019212"><ele>17.0</ele><time>2026-04-19T06:26:25Z</time></trkpt><trkpt lat="42.41666074210816" lon="14.167101987816732"><ele>16.0</ele><time>2026-04-19T06:26:26Z</time></trkpt><trkpt lat="42.416353579178924" lon="14.166890035211225"><ele>15.5</ele><time>2026-04-19T06:26:27Z</time></trkpt><trkpt lat="42.41604598278277" lon="14.166675095666557"><ele>15.0</ele><time>2026-04-19T06:26:28Z</time></trkpt><trkpt lat="42.41574211192336" lon="14.16646387617085"><ele>16.5</ele><time>2026-04-19T06:26:29Z</time></trkpt><trkpt lat="42.415433059444034" lon="14.166250119403221"><ele>18.0</ele><time>2026-04-19T06:26:30Z</time></trkpt><trkpt lat="42.41514115760499" lon="14.16605124717624"><ele>18.0</ele><time>2026-04-19T06:26:31Z</time></trkpt><trkpt lat="42.41485280355909" lon="14.165856744074757"><ele>18.0</ele><time>2026-04-19T06:26:32Z</time></trkpt><trkpt lat="42.41456322266063" lon="14.16565875114947"><ele>19.0</ele><time>2026-04-19T06:26:33Z</time></trkpt><trkpt lat="42.41427473475075" lon="14.165461118085219"><ele>20.0</ele><time>2026-04-19T06:26:34Z</time></trkpt><trkpt lat="42.41398265824216" lon="14.16526390176324"><ele>18.5</ele><time>2026-04-19T06:26:35Z</time></trkpt><trkpt lat="42.41368793744683" lon="14.16506161037677"><ele>17.0</ele><time>2026-04-19T06:26:36Z</time></trkpt><trkpt lat="42.4133957162569" lon="14.16485755150726"><ele>17.0</ele><time>2026-04-19T06:26:37Z</time></trkpt><trkpt lat="42.413105577057436" lon="14.16465445400732"><ele>17.0</ele><time>2026-04-19T06:26:38Z</time></trkpt><trkpt lat="42.41281413638313" lon="14.164454052196279"><ele>17.0</ele><time>2026-04-19T06:26:39Z</time></trkpt><trkpt lat="42.41250933129958" lon="14.164252951998396"><ele>17.0</ele><time>2026-04-19T06:26:40Z</time></trkpt><trkpt lat="42.412197944743724" lon="14.16405051018016"><ele>17.5</ele><time>2026-04-19T06:26:41Z</time></trkpt><trkpt lat="42.41187611154134" lon="14.163845133786134"><ele>18.0</ele><time>2026-04-19T06:26:42Z</time></trkpt><trkpt lat="42.411542968713526" lon="14.163638161961417"><ele>18.0</ele><time>2026-04-19T06:26:43Z</time></trkpt><trkpt lat="42.411223648769486" lon="14.16344724740156"><ele>18.0</ele><time>2026-04-19T06:26:44Z</time></trkpt><trkpt lat="42.41091612248958" lon="14.163261643695288"><ele>19.0</ele><time>2026-04-19T06:26:45Z</time></trkpt><trkpt lat="42.410619835215826" lon="14.163077786577068"><ele>20.0</ele><time>2026-04-19T06:26:46Z</time></trkpt><trkpt lat="42.41032346584713" lon="14.162893015016914"><ele>20.5</ele><time>2026-04-19T06:26:47Z</time></trkpt><trkpt lat="42.41002729368673" lon="14.162706592717774"><ele>21.0</ele><time>2026-04-19T06:26:48Z</time></trkpt><trkpt lat="42.40973194732734" lon="14.16252406240384"><ele>21.0</ele><time>2026-04-19T06:26:49Z</time></trkpt><trkpt lat="42.40943538430108" lon="14.162352116098473"><ele>21.0</ele><time>2026-04-19T06:26:50Z</time></trkpt><trkpt lat="42.40913403919325" lon="14.162207837104395"><ele>22.0</ele><time>2026-04-19T06:26:51Z</time></trkpt><trkpt lat="42.40882285937337" lon="14.162086695162632"><ele>23.0</ele><time>2026-04-19T06:26:52Z</time></trkpt><trkpt lat="42.408515031184756" lon="14.161988818886005"><ele>23.0</ele><time>2026-04-19T06:26:53Z</time></trkpt><trkpt lat="42.40819686728374" lon="14.16192169106246"><ele>23.0</ele><time>2026-04-19T06:26:54Z</time></trkpt><trkpt lat="42.407872019017965" lon="14.161874724729172"><ele>22.5</ele><time>2026-04-19T06:26:55Z</time></trkpt><trkpt lat="42.40755332997384" lon="14.161849267244634"><ele>22.0</ele><time>2026-04-19T06:26:56Z</time></trkpt><trkpt lat="42.40723644467197" lon="14.161852044250839"><ele>22.0</ele><time>2026-04-19T06:26:57Z</time></trkpt><trkpt lat="42.40691169128935" lon="14.161877593185055"><ele>22.0</ele><time>2026-04-19T06:26:58Z</time></trkpt><trkpt lat="42.40658176746437" lon="14.161938918638178"><ele>22.0</ele><time>2026-04-19T06:26:59Z</time></trkpt><trkpt lat="42.4062628770794" lon="14.16203460839576"><ele>22.0</ele><time>2026-04-19T06:27:00Z</time></trkpt><trkpt lat="42.4059547988741" lon="14.162136756620798"><ele>22.0</ele><time>2026-04-19T06:27:01Z</time></trkpt><trkpt lat="42.40564687521154" lon="14.162266102067889"><ele>22.0</ele><time>2026-04-19T06:27:02Z</time></trkpt><trkpt lat="42.40534504215494" lon="14.162421113235405"><ele>21.5</ele><time>2026-04-19T06:27:03Z</time></trkpt><trkpt lat="42.40505552166824" lon="14.162603693074708"><ele>21.0</ele><time>2026-04-19T06:27:04Z</time></trkpt><trkpt lat="42.40476968055265" lon="14.162793412280557"><ele>21.5</ele><time>2026-04-19T06:27:05Z</time></trkpt><trkpt lat="42.40448628758164" lon="14.16298255355692"><ele>22.0</ele><time>2026-04-19T06:27:06Z</time></trkpt><trkpt lat="42.404199526326224" lon="14.163160367209985"><ele>22.5</ele><time>2026-04-19T06:27:07Z</time></trkpt><trkpt lat="42.40392072424887" lon="14.163325382030061"><ele>23.0</ele><time>2026-04-19T06:27:08Z</time></trkpt><trkpt lat="42.40364909748289" lon="14.163487813355117"><ele>23.0</ele><time>2026-04-19T06:27:09Z</time></trkpt><trkpt lat="42.4033798288542" lon="14.16364900009424"><ele>23.0</ele><time>2026-04-19T06:27:10Z</time></trkpt><trkpt lat="42.40311852586373" lon="14.163806103307792"><ele>22.5</ele><time>2026-04-19T06:27:11Z</time></trkpt><trkpt lat="42.40284896565105" lon="14.163950688331367"><ele>22.0</ele><time>2026-04-19T06:27:12Z</time></trkpt><trkpt lat="42.40255197882292" lon="14.1640811901892"><ele>22.0</ele><time>2026-04-19T06:27:13Z</time></trkpt><trkpt lat="42.402230579956075" lon="14.164177094788705"><ele>22.0</ele><time>2026-04-19T06:27:14Z</time></trkpt><trkpt lat="42.401887224931045" lon="14.164224675551818"><ele>23.0</ele><time>2026-04-19T06:27:15Z</time></trkpt><trkpt lat="42.401530637931806" lon="14.16422738030974"><ele>24.0</ele><time>2026-04-19T06:27:16Z</time></trkpt><trkpt lat="42.40116669852993" lon="14.164177718642371"><ele>24.0</ele><time>2026-04-19T06:27:17Z</time></trkpt><trkpt lat="42.40080010135376" lon="14.164085205280223"><ele>24.0</ele><time>2026-04-19T06:27:18Z</time></trkpt><trkpt lat="42.400439285069936" lon="14.16393439892863"><ele>23.5</ele><time>2026-04-19T06:27:19Z</time></trkpt><trkpt lat="42.40007933731087" lon="14.163727747418987"><ele>23.0</ele><time>2026-04-19T06:27:20Z</time></trkpt><trkpt lat="42.399722396681675" lon="14.16350261752407"><ele>23.5</ele><time>2026-04-19T06:27:21Z</time></trkpt><trkpt lat="42.399378705748695" lon="14.163280411959226"><ele>24.0</ele><time>2026-04-19T06:27:22Z</time></trkpt><trkpt lat="42.399034373697816" lon="14.163061737081268"><ele>22.5</ele><time>2026-04-19T06:27:23Z</time></trkpt><trkpt lat="42.39868983993964" lon="14.162841481478956"><ele>21.0</ele><time>2026-04-19T06:27:24Z</time></trkpt><trkpt lat="42.398343643476984" lon="14.162617627987244"><ele>21.5</ele><time>2026-04-19T06:27:25Z</time></trkpt><trkpt lat="42.39799933507683" lon="14.16240435061524"><ele>22.0</ele><time>2026-04-19T06:27:26Z</time></trkpt><trkpt lat="42.39765595272558" lon="14.16219160708357"><ele>21.0</ele><time>2026-04-19T06:27:27Z</time></trkpt><trkpt lat="42.39730667904284" lon="14.161969530090975"><ele>20.0</ele><time>2026-04-19T06:27:28Z</time></trkpt><trkpt lat="42.39695776040292" lon="14.161747207458815"><ele>21.0</ele><time>2026-04-19T06:27:29Z</time></trkpt><trkpt lat="42.396619157630695" lon="14.161518231415032"><ele>22.0</ele><time>2026-04-19T06:27:30Z</time></trkpt><trkpt lat="42.39628680089322" lon="14.161262365977965"><ele>22.0</ele><time>2026-04-19T06:27:31Z</time></trkpt><trkpt lat="42.3959687524541" lon="14.160975425442299"><ele>22.0</ele><time>2026-04-19T06:27:32Z</time></trkpt><trkpt lat="42.39566480448337" lon="14.160679903934799"><ele>23.5</ele><time>2026-04-19T06:27:33Z</time></trkpt><trkpt lat="42.39536849823716" lon="14.160380364452394"><ele>25.0</ele><time>2026-04-19T06:27:34Z</time></trkpt><trkpt lat="42.395077092880506" lon="14.160078815501194"><ele>25.0</ele><time>2026-04-19T06:27:35Z</time></trkpt><trkpt lat="42.39479777004917" lon="14.159773764388454"><ele>25.0</ele><time>2026-04-19T06:27:36Z</time></trkpt><trkpt lat="42.39451852737961" lon="14.159467968467942"><ele>25.5</ele><time>2026-04-19T06:27:37Z</time></trkpt><trkpt lat="42.39425041140936" lon="14.159175045322169"><ele>26.0</ele><time>2026-04-19T06:27:38Z</time></trkpt><trkpt lat="42.39398593454084" lon="14.15888552572475"><ele>23.5</ele><time>2026-04-19T06:27:39Z</time></trkpt><trkpt lat="42.39372820808152" lon="14.15860143678694"><ele>21.0</ele><time>2026-04-19T06:27:40Z</time></trkpt><trkpt lat="42.39346664560144" lon="14.158320428049807"><ele>20.0</ele><time>2026-04-19T06:27:41Z</time></trkpt><trkpt lat="42.39320791186602" lon="14.158040363299163"><ele>19.0</ele><time>2026-04-19T06:27:42Z</time></trkpt><trkpt lat="42.39295178635418" lon="14.157761325495036"><ele>19.0</ele><time>2026-04-19T06:27:43Z</time></trkpt><trkpt lat="42.39269886628924" lon="14.157480939836706"><ele>19.0</ele><time>2026-04-19T06:27:44Z</time></trkpt><trkpt lat="42.392447869429404" lon="14.15720822774818"><ele>19.0</ele><time>2026-04-19T06:27:45Z</time></trkpt><trkpt lat="42.39220596198886" lon="14.15694065693333"><ele>19.0</ele><time>2026-04-19T06:27:46Z</time></trkpt><trkpt lat="42.39195628284617" lon="14.156673086511706"><ele>19.0</ele><time>2026-04-19T06:27:47Z</time></trkpt><trkpt lat="42.39171605489522" lon="14.156411168887002"><ele>19.0</ele><time>2026-04-19T06:27:47.999Z</time></trkpt><trkpt lat="42.39147083813278" lon="14.156145942745361"><ele>19.5</ele><time>2026-04-19T06:27:48.999Z</time></trkpt><trkpt lat="42.39122458195549" lon="14.155879966577182"><ele>20.0</ele><time>2026-04-19T06:27:49.999Z</time></trkpt><trkpt lat="42.39098342443888" lon="14.155616806208316"><ele>20.0</ele><time>2026-04-19T06:27:50.999Z</time></trkpt><trkpt lat="42.39074034659616" lon="14.155355710501107"><ele>20.0</ele><time>2026-04-19T06:27:51.999Z</time></trkpt><trkpt lat="42.39048798538518" lon="14.155088876659912"><ele>20.5</ele><time>2026-04-19T06:27:52.999Z</time></trkpt><trkpt lat="42.390231934104264" lon="14.154838201043257"><ele>21.0</ele><time>2026-04-19T06:27:53.999Z</time></trkpt><trkpt lat="42.38996276158808" lon="14.154597634554461"><ele>25.0</ele><time>2026-04-19T06:27:54.999Z</time></trkpt><trkpt lat="42.3896734796709" lon="14.15437915088742"><ele>29.0</ele><time>2026-04-19T06:27:55.999Z</time></trkpt><trkpt lat="42.3893683346293" lon="14.154177827092614"><ele>28.0</ele><time>2026-04-19T06:27:56.999Z</time></trkpt><trkpt lat="42.38906118775189" lon="14.154008693452802"><ele>27.0</ele><time>2026-04-19T06:27:57.999Z</time></trkpt><trkpt lat="42.388748637062356" lon="14.1538677289832"><ele>27.0</ele><time>2026-04-19T06:27:58.999Z</time></trkpt><trkpt lat="42.38842978542182" lon="14.153742652671735"><ele>27.0</ele><time>2026-04-19T06:27:59.999Z</time></trkpt><trkpt lat="42.3881117521187" lon="14.153637205823367"><ele>28.0</ele><time>2026-04-19T06:28:00.999Z</time></trkpt><trkpt lat="42.387787117815215" lon="14.15353211913914"><ele>29.0</ele><time>2026-04-19T06:28:01.999Z</time></trkpt><trkpt lat="42.387459194108004" lon="14.153428756444391"><ele>30.5</ele><time>2026-04-19T06:28:02.999Z</time></trkpt><trkpt lat="42.387135661478126" lon="14.153323225398697"><ele>32.0</ele><time>2026-04-19T06:28:03.999Z</time></trkpt><trkpt lat="42.38681001251364" lon="14.153214500277787"><ele>30.0</ele><time>2026-04-19T06:28:04.999Z</time></trkpt><trkpt lat="42.386483011606224" lon="14.153099394241679"><ele>28.0</ele><time>2026-04-19T06:28:05.999Z</time></trkpt><trkpt lat="42.38615683921749" lon="14.152983199070981"><ele>28.0</ele><time>2026-04-19T06:28:06.999Z</time></trkpt><trkpt lat="42.38583103780855" lon="14.152860599629022"><ele>28.0</ele><time>2026-04-19T06:28:07.999Z</time></trkpt><trkpt lat="42.38550266432374" lon="14.152725293859925"><ele>31.0</ele><time>2026-04-19T06:28:08.999Z</time></trkpt><trkpt lat="42.38518123381436" lon="14.152567479230044"><ele>34.0</ele><time>2026-04-19T06:28:09.999Z</time></trkpt><trkpt lat="42.38485906850388" lon="14.152389521968287"><ele>32.0</ele><time>2026-04-19T06:28:10.999Z</time></trkpt><trkpt lat="42.384546446911955" lon="14.152186121489446"><ele>30.0</ele><time>2026-04-19T06:28:11.999Z</time></trkpt><trkpt lat="42.38424411749482" lon="14.151963637497968"><ele>30.0</ele><time>2026-04-19T06:28:12.999Z</time></trkpt><trkpt lat="42.38394475368816" lon="14.151721723018502"><ele>30.0</ele><time>2026-04-19T06:28:13.999Z</time></trkpt><trkpt lat="42.383656099593445" lon="14.151468084580468"><ele>29.5</ele><time>2026-04-19T06:28:15.001Z</time></trkpt><trkpt lat="42.38337210066021" lon="14.151206424974525"><ele>29.0</ele><time>2026-04-19T06:28:16.001Z</time></trkpt><trkpt lat="42.383094787572674" lon="14.150943539717199"><ele>28.5</ele><time>2026-04-19T06:28:17.001Z</time></trkpt><trkpt lat="42.3828223876174" lon="14.150681675164767"><ele>28.0</ele><time>2026-04-19T06:28:18.001Z</time></trkpt><trkpt lat="42.382562946420265" lon="14.15041351284097"><ele>28.0</ele><time>2026-04-19T06:28:19.001Z</time></trkpt><trkpt lat="42.38231624122503" lon="14.15010209643969"><ele>28.0</ele><time>2026-04-19T06:28:20.001Z</time></trkpt><trkpt lat="42.38208653297937" lon="14.149761040641945"><ele>29.0</ele><time>2026-04-19T06:28:21.001Z</time></trkpt><trkpt lat="42.38188062026185" lon="14.149386891429916"><ele>30.0</ele><time>2026-04-19T06:28:22.001Z</time></trkpt><trkpt lat="42.38169662177966" lon="14.14898768741095"><ele>30.0</ele><time>2026-04-19T06:28:23.001Z</time></trkpt><trkpt lat="42.38154648323354" lon="14.14856759354875"><ele>30.0</ele><time>2026-04-19T06:28:24.001Z</time></trkpt><trkpt lat="42.38141985959885" lon="14.14812077342074"><ele>30.5</ele><time>2026-04-19T06:28:25.001Z</time></trkpt><trkpt lat="42.38132954993632" lon="14.147642368838579"><ele>31.0</ele><time>2026-04-19T06:28:26.001Z</time></trkpt><trkpt lat="42.381268509195294" lon="14.147128429179931"><ele>31.0</ele><time>2026-04-19T06:28:27.001Z</time></trkpt><trkpt lat="42.381222177941" lon="14.14660610185874"><ele>31.0</ele><time>2026-04-19T06:28:28.001Z</time></trkpt><trkpt lat="42.381191247441606" lon="14.14608201608994"><ele>30.5</ele><time>2026-04-19T06:28:29Z</time></trkpt><trkpt lat="42.38117284955689" lon="14.145545508590791"><ele>30.0</ele><time>2026-04-19T06:28:30Z</time></trkpt><trkpt lat="42.38116042187439" lon="14.1449995916744"><ele>30.0</ele><time>2026-04-19T06:28:31Z</time></trkpt><trkpt lat="42.381147109838714" lon="14.144436978191433"><ele>30.0</ele><time>2026-04-19T06:28:32Z</time></trkpt><trkpt lat="42.38113596442213" lon="14.14386507553965"><ele>30.0</ele><time>2026-04-19T06:28:33Z</time></trkpt><trkpt lat="42.38112513793582" lon="14.143288904197883"><ele>30.0</ele><time>2026-04-19T06:28:34Z</time></trkpt><trkpt lat="42.38110744513514" lon="14.142717199374077"><ele>30.5</ele><time>2026-04-19T06:28:35Z</time></trkpt><trkpt lat="42.38108109544684" lon="14.142157367078282"><ele>31.0</ele><time>2026-04-19T06:28:36Z</time></trkpt><trkpt lat="42.381034081385465" lon="14.141613759231447"><ele>31.0</ele><time>2026-04-19T06:28:37Z</time></trkpt><trkpt lat="42.380959561444904" lon="14.141083915859532"><ele>31.0</ele><time>2026-04-19T06:28:38Z</time></trkpt><trkpt lat="42.38084523442575" lon="14.140588349308686"><ele>31.0</ele><time>2026-04-19T06:28:39Z</time></trkpt><trkpt lat="42.38069622095845" lon="14.14010255870559"><ele>31.0</ele><time>2026-04-19T06:28:40Z</time></trkpt><trkpt lat="42.38050225125994" lon="14.13962489897401"><ele>31.0</ele><time>2026-04-19T06:28:41Z</time></trkpt><trkpt lat="42.38027659580978" lon="14.139175558835188"><ele>31.0</ele><time>2026-04-19T06:28:42Z</time></trkpt><trkpt lat="42.38001393275083" lon="14.13874711075486"><ele>31.5</ele><time>2026-04-19T06:28:43Z</time></trkpt><trkpt lat="42.37972115733162" lon="14.138354048871765"><ele>32.0</ele><time>2026-04-19T06:28:44Z</time></trkpt><trkpt lat="42.37941097112194" lon="14.138012904015467"><ele>32.0</ele><time>2026-04-19T06:28:45Z</time></trkpt><trkpt lat="42.37908411482887" lon="14.137729554198593"><ele>32.0</ele><time>2026-04-19T06:28:46Z</time></trkpt><trkpt lat="42.37873194215621" lon="14.137491529204999"><ele>32.0</ele><time>2026-04-19T06:28:47Z</time></trkpt><trkpt lat="42.37835697487817" lon="14.137297654088512"><ele>32.0</ele><time>2026-04-19T06:28:48Z</time></trkpt><trkpt lat="42.377962031779816" lon="14.13713833923406"><ele>31.5</ele><time>2026-04-19T06:28:49Z</time></trkpt><trkpt lat="42.377546426934806" lon="14.13702092997113"><ele>31.0</ele><time>2026-04-19T06:28:50Z</time></trkpt><trkpt lat="42.37713269274777" lon="14.136909838046444"><ele>31.0</ele><time>2026-04-19T06:28:51Z</time></trkpt><trkpt lat="42.37672162616524" lon="14.136792938720472"><ele>31.0</ele><time>2026-04-19T06:28:52Z</time></trkpt><trkpt lat="42.37630559271362" lon="14.136661685515374"><ele>31.5</ele><time>2026-04-19T06:28:53Z</time></trkpt><trkpt lat="42.37587895450817" lon="14.136530986818814"><ele>32.0</ele><time>2026-04-19T06:28:54Z</time></trkpt><trkpt lat="42.37545600028326" lon="14.136403606928894"><ele>32.0</ele><time>2026-04-19T06:28:55Z</time></trkpt><trkpt lat="42.37502888324951" lon="14.1362733987051"><ele>32.0</ele><time>2026-04-19T06:28:56Z</time></trkpt><trkpt lat="42.374601033134255" lon="14.136146291051944"><ele>32.0</ele><time>2026-04-19T06:28:57Z</time></trkpt><trkpt lat="42.37417309982633" lon="14.136016881194275"><ele>32.0</ele><time>2026-04-19T06:28:58Z</time></trkpt><trkpt lat="42.373744849177555" lon="14.135886213413663"><ele>31.5</ele><time>2026-04-19T06:28:59Z</time></trkpt><trkpt lat="42.37331500895641" lon="14.135752339842893"><ele>31.0</ele><time>2026-04-19T06:29:00Z</time></trkpt><trkpt lat="42.37288498251095" lon="14.13561796280191"><ele>31.0</ele><time>2026-04-19T06:29:01Z</time></trkpt><trkpt lat="42.37245445410659" lon="14.135488263331139"><ele>31.0</ele><time>2026-04-19T06:29:02Z</time></trkpt><trkpt lat="42.372019060902986" lon="14.135352440019771"><ele>31.0</ele><time>2026-04-19T06:29:03Z</time></trkpt><trkpt lat="42.37158901294843" lon="14.135218331816974"><ele>31.0</ele><time>2026-04-19T06:29:04Z</time></trkpt><trkpt lat="42.371157110487225" lon="14.135083920603325"><ele>30.5</ele><time>2026-04-19T06:29:05Z</time></trkpt><trkpt lat="42.370720493673836" lon="14.134948416335984"><ele>30.0</ele><time>2026-04-19T06:29:06Z</time></trkpt><trkpt lat="42.370285245856955" lon="14.13481950318778"><ele>30.0</ele><time>2026-04-19T06:29:07Z</time></trkpt><trkpt lat="42.36984953485967" lon="14.134681352641588"><ele>30.0</ele><time>2026-04-19T06:29:08Z</time></trkpt><trkpt lat="42.36941460260194" lon="14.134540848439547"><ele>30.0</ele><time>2026-04-19T06:29:09Z</time></trkpt><trkpt lat="42.368981658653915" lon="14.134400988095788"><ele>30.0</ele><time>2026-04-19T06:29:10Z</time></trkpt><trkpt lat="42.368546351487225" lon="14.134262459033778"><ele>32.0</ele><time>2026-04-19T06:29:11Z</time></trkpt><trkpt lat="42.368110398663944" lon="14.134123394680097"><ele>34.0</ele><time>2026-04-19T06:29:12Z</time></trkpt><trkpt lat="42.36766871539071" lon="14.133988261601704"><ele>34.0</ele><time>2026-04-19T06:29:13Z</time></trkpt><trkpt lat="42.36723336711314" lon="14.133854463835789"><ele>34.0</ele><time>2026-04-19T06:29:14Z</time></trkpt><trkpt lat="42.36679782994609" lon="14.13372368138788"><ele>36.0</ele><time>2026-04-19T06:29:15Z</time></trkpt><trkpt lat="42.36635854120517" lon="14.133591082167372"><ele>36.0</ele><time>2026-04-19T06:29:16Z</time></trkpt><trkpt lat="42.365921905396846" lon="14.13346174052341"><ele>36.0</ele><time>2026-04-19T06:29:17Z</time></trkpt><trkpt lat="42.36548949362677" lon="14.133327342542835"><ele>36.0</ele><time>2026-04-19T06:29:18Z</time></trkpt><trkpt lat="42.36505492315694" lon="14.133192518113542"><ele>36.0</ele><time>2026-04-19T06:29:19Z</time></trkpt><trkpt lat="42.3646236270718" lon="14.133063217210596"><ele>37.5</ele><time>2026-04-19T06:29:20Z</time></trkpt><trkpt lat="42.36419180557303" lon="14.132927494918372"><ele>39.0</ele><time>2026-04-19T06:29:21Z</time></trkpt><trkpt lat="42.36376312973959" lon="14.132789825571788"><ele>39.5</ele><time>2026-04-19T06:29:22Z</time></trkpt><trkpt lat="42.36333386508361" lon="14.132652499513032"><ele>40.0</ele><time>2026-04-19T06:29:23Z</time></trkpt><trkpt lat="42.362903476476504" lon="14.132518193909766"><ele>39.5</ele><time>2026-04-19T06:29:24Z</time></trkpt><trkpt lat="42.36247191315735" lon="14.132380765991172"><ele>39.0</ele><time>2026-04-19T06:29:25Z</time></trkpt><trkpt lat="42.36204524819972" lon="14.132251933342754"><ele>38.5</ele><time>2026-04-19T06:29:26Z</time></trkpt><trkpt lat="42.36162239338589" lon="14.132122086717244"><ele>38.0</ele><time>2026-04-19T06:29:27Z</time></trkpt><trkpt lat="42.361196999238274" lon="14.131995194395952"><ele>39.0</ele><time>2026-04-19T06:29:28Z</time></trkpt><trkpt lat="42.36077456197903" lon="14.131880173342157"><ele>40.0</ele><time>2026-04-19T06:29:29Z</time></trkpt><trkpt lat="42.360352990571656" lon="14.131786059805737"><ele>40.5</ele><time>2026-04-19T06:29:30Z</time></trkpt><trkpt lat="42.35992700720972" lon="14.131712154101152"><ele>41.0</ele><time>2026-04-19T06:29:31Z</time></trkpt><trkpt lat="42.35950496220155" lon="14.131662548714974"><ele>41.0</ele><time>2026-04-19T06:29:32Z</time></trkpt><trkpt lat="42.359082892104965" lon="14.131643983559284"><ele>41.0</ele><time>2026-04-19T06:29:33Z</time></trkpt><trkpt lat="42.35865881175384" lon="14.13164161342442"><ele>41.0</ele><time>2026-04-19T06:29:34Z</time></trkpt><trkpt lat="42.35823244460923" lon="14.13166130974495"><ele>41.0</ele><time>2026-04-19T06:29:35Z</time></trkpt><trkpt lat="42.35780574130468" lon="14.131704723073087"><ele>41.0</ele><time>2026-04-19T06:29:36Z</time></trkpt><trkpt lat="42.35738645467671" lon="14.131770660654688"><ele>41.0</ele><time>2026-04-19T06:29:37Z</time></trkpt><trkpt lat="42.35697267479984" lon="14.131839500976644"><ele>41.0</ele><time>2026-04-19T06:29:38Z</time></trkpt><trkpt lat="42.35655880437749" lon="14.131909494123756"><ele>41.0</ele><time>2026-04-19T06:29:39Z</time></trkpt><trkpt lat="42.35614725722168" lon="14.131970790941947"><ele>42.0</ele><time>2026-04-19T06:29:40Z</time></trkpt><trkpt lat="42.35573861649131" lon="14.132026362953008"><ele>43.0</ele><time>2026-04-19T06:29:41Z</time></trkpt><trkpt lat="42.35533627452728" lon="14.132080242324287"><ele>43.0</ele><time>2026-04-19T06:29:42Z</time></trkpt><trkpt lat="42.35494630093353" lon="14.132143625039925"><ele>43.0</ele><time>2026-04-19T06:29:43Z</time></trkpt><trkpt lat="42.35455720678318" lon="14.132209737046026"><ele>40.5</ele><time>2026-04-19T06:29:44Z</time></trkpt><trkpt lat="42.35417356184576" lon="14.132272095642948"><ele>38.0</ele><time>2026-04-19T06:29:45Z</time></trkpt><trkpt lat="42.35379004952572" lon="14.132333652803267"><ele>40.5</ele><time>2026-04-19T06:29:46Z</time></trkpt><trkpt lat="42.35342164139611" lon="14.132398436209709"><ele>43.0</ele><time>2026-04-19T06:29:47Z</time></trkpt><trkpt lat="42.353046909141405" lon="14.132457063305855"><ele>42.5</ele><time>2026-04-19T06:29:48Z</time></trkpt><trkpt lat="42.35269277427919" lon="14.132511279263381"><ele>42.0</ele><time>2026-04-19T06:29:49Z</time></trkpt><trkpt lat="42.352360261220745" lon="14.132560858543378"><ele>40.5</ele><time>2026-04-19T06:29:50Z</time></trkpt><trkpt lat="42.352034142714906" lon="14.132612703443378"><ele>39.0</ele><time>2026-04-19T06:29:51Z</time></trkpt><trkpt lat="42.35172018677005" lon="14.132666183457594"><ele>39.0</ele><time>2026-04-19T06:29:52Z</time></trkpt><trkpt lat="42.35141023491426" lon="14.132717713091763"><ele>39.0</ele><time>2026-04-19T06:29:52.999Z</time></trkpt><trkpt lat="42.35110404457309" lon="14.132767195234567"><ele>38.0</ele><time>2026-04-19T06:29:53.999Z</time></trkpt><trkpt lat="42.350801327435526" lon="14.132811438848274"><ele>37.0</ele><time>2026-04-19T06:29:54.999Z</time></trkpt><trkpt lat="42.35050910534942" lon="14.132859454639718"><ele>37.0</ele><time>2026-04-19T06:29:55.999Z</time></trkpt><trkpt lat="42.35021945868513" lon="14.132907037581692"><ele>37.0</ele><time>2026-04-19T06:29:56.999Z</time></trkpt><trkpt lat="42.34993656919745" lon="14.132955161910019"><ele>39.0</ele><time>2026-04-19T06:29:57.999Z</time></trkpt><trkpt lat="42.34965616269513" lon="14.133007555935231"><ele>41.0</ele><time>2026-04-19T06:29:58.999Z</time></trkpt><trkpt lat="42.34938221497552" lon="14.133065178012748"><ele>41.0</ele><time>2026-04-19T06:29:59.999Z</time></trkpt><trkpt lat="42.34911393887225" lon="14.133137114452323"><ele>41.0</ele><time>2026-04-19T06:30:00.999Z</time></trkpt><trkpt lat="42.3488488050771" lon="14.133220448562668"><ele>43.0</ele><time>2026-04-19T06:30:01.999Z</time></trkpt><trkpt lat="42.3485833290399" lon="14.133310498130351"><ele>45.0</ele><time>2026-04-19T06:30:02.999Z</time></trkpt><trkpt lat="42.348316900203756" lon="14.133402597887464"><ele>45.0</ele><time>2026-04-19T06:30:03.999Z</time></trkpt><trkpt lat="42.3480515403417" lon="14.133493471487165"><ele>45.0</ele><time>2026-04-19T06:30:04.999Z</time></trkpt><trkpt lat="42.34778472062609" lon="14.133581888850719"><ele>45.0</ele><time>2026-04-19T06:30:05.999Z</time></trkpt><trkpt lat="42.347516892717856" lon="14.133673773660792"><ele>45.0</ele><time>2026-04-19T06:30:06.999Z</time></trkpt><trkpt lat="42.34725493334859" lon="14.133758416037002"><ele>45.0</ele><time>2026-04-19T06:30:07.999Z</time></trkpt><trkpt lat="42.34698950607158" lon="14.133839819992788"><ele>45.0</ele><time>2026-04-19T06:30:08.999Z</time></trkpt><trkpt lat="42.346715997323436" lon="14.133921920569469"><ele>45.0</ele><time>2026-04-19T06:30:09.999Z</time></trkpt><trkpt lat="42.346438267591274" lon="14.134000339422446"><ele>45.0</ele><time>2026-04-19T06:30:10.999Z</time></trkpt><trkpt lat="42.346158650662716" lon="14.134054476166494"><ele>46.5</ele><time>2026-04-19T06:30:11.999Z</time></trkpt><trkpt lat="42.34586204908743" lon="14.134073367931405"><ele>48.0</ele><time>2026-04-19T06:30:12.999Z</time></trkpt><trkpt lat="42.3455568073103" lon="14.13406975107396"><ele>47.5</ele><time>2026-04-19T06:30:13.999Z</time></trkpt><trkpt lat="42.34524214018404" lon="14.134028081663763"><ele>47.0</ele><time>2026-04-19T06:30:14.999Z</time></trkpt><trkpt lat="42.344934681723394" lon="14.133963550252423"><ele>48.0</ele><time>2026-04-19T06:30:15.999Z</time></trkpt><trkpt lat="42.34463797009588" lon="14.133876056121359"><ele>49.0</ele><time>2026-04-19T06:30:16.999Z</time></trkpt><trkpt lat="42.34434816430635" lon="14.133768684349125"><ele>49.0</ele><time>2026-04-19T06:30:17.999Z</time></trkpt><trkpt lat="42.344066313047506" lon="14.133623053182726"><ele>49.0</ele><time>2026-04-19T06:30:18.999Z</time></trkpt><trkpt lat="42.34379736800918" lon="14.13345861455831"><ele>49.0</ele><time>2026-04-19T06:30:19.999Z</time></trkpt><trkpt lat="42.34353609406736" lon="14.13327739508224"><ele>49.0</ele><time>2026-04-19T06:30:21.001Z</time></trkpt><trkpt lat="42.343285657484074" lon="14.133080882622181"><ele>48.5</ele><time>2026-04-19T06:30:22.001Z</time></trkpt><trkpt lat="42.343035179989606" lon="14.132874785450737"><ele>48.0</ele><time>2026-04-19T06:30:23.001Z</time></trkpt><trkpt lat="42.34279749228617" lon="14.132662427450857"><ele>48.0</ele><time>2026-04-19T06:30:24.001Z</time></trkpt><trkpt lat="42.34255678695371" lon="14.132454113259593"><ele>48.0</ele><time>2026-04-19T06:30:25.001Z</time></trkpt><trkpt lat="42.342312403806986" lon="14.132253415293972"><ele>48.0</ele><time>2026-04-19T06:30:26.001Z</time></trkpt><trkpt lat="42.3420631603311" lon="14.132057471750075"><ele>48.0</ele><time>2026-04-19T06:30:27.001Z</time></trkpt><trkpt lat="42.34181346884008" lon="14.131857166615873"><ele>48.0</ele><time>2026-04-19T06:30:28.001Z</time></trkpt><trkpt lat="42.341564480622466" lon="14.131649224888642"><ele>48.0</ele><time>2026-04-19T06:30:29.001Z</time></trkpt><trkpt lat="42.341317234001174" lon="14.131442836615664"><ele>48.5</ele><time>2026-04-19T06:30:30.001Z</time></trkpt><trkpt lat="42.341067146521034" lon="14.131241989406167"><ele>49.0</ele><time>2026-04-19T06:30:31.001Z</time></trkpt><trkpt lat="42.34081388673464" lon="14.131037463449655"><ele>49.0</ele><time>2026-04-19T06:30:32.001Z</time></trkpt><trkpt lat="42.3405663706425" lon="14.130833696476877"><ele>49.0</ele><time>2026-04-19T06:30:33.001Z</time></trkpt><trkpt lat="42.3403246508528" lon="14.13063450720408"><ele>49.0</ele><time>2026-04-19T06:30:34.001Z</time></trkpt><trkpt lat="42.34007988556995" lon="14.13043451384576"><ele>49.0</ele><time>2026-04-19T06:30:35.001Z</time></trkpt><trkpt lat="42.33983983398034" lon="14.130239430469953"><ele>49.0</ele><time>2026-04-19T06:30:36Z</time></trkpt><trkpt lat="42.33959967580392" lon="14.130044813758282"><ele>49.0</ele><time>2026-04-19T06:30:37Z</time></trkpt><trkpt lat="42.339362204105875" lon="14.129852701804674"><ele>49.5</ele><time>2026-04-19T06:30:38Z</time></trkpt><trkpt lat="42.339119631468336" lon="14.12965867018265"><ele>50.0</ele><time>2026-04-19T06:30:39Z</time></trkpt><trkpt lat="42.33888027170705" lon="14.129470394881423"><ele>50.0</ele><time>2026-04-19T06:30:40Z</time></trkpt><trkpt lat="42.33863682450803" lon="14.129281315358565"><ele>50.0</ele><time>2026-04-19T06:30:41Z</time></trkpt><trkpt lat="42.3383976522608" lon="14.129093914697167"><ele>49.5</ele><time>2026-04-19T06:30:42Z</time></trkpt><trkpt lat="42.338157496887405" lon="14.128901435654303"><ele>49.0</ele><time>2026-04-19T06:30:43Z</time></trkpt><trkpt lat="42.33792307259003" lon="14.12870812577517"><ele>49.0</ele><time>2026-04-19T06:30:44Z</time></trkpt><trkpt lat="42.33769018483555" lon="14.12850887816254"><ele>49.0</ele><time>2026-04-19T06:30:45Z</time></trkpt><trkpt lat="42.33746414982549" lon="14.12829394133245"><ele>47.5</ele><time>2026-04-19T06:30:46Z</time></trkpt><trkpt lat="42.33724342114168" lon="14.12805908626083"><ele>46.0</ele><time>2026-04-19T06:30:47Z</time></trkpt><trkpt lat="42.33703227615832" lon="14.127813717600432"><ele>46.0</ele><time>2026-04-19T06:30:48Z</time></trkpt><trkpt lat="42.33683409531462" lon="14.127571634874375"><ele>46.0</ele><time>2026-04-19T06:30:49Z</time></trkpt><trkpt lat="42.336630645342055" lon="14.127328135412"><ele>46.0</ele><time>2026-04-19T06:30:50Z</time></trkpt><trkpt lat="42.336431092598005" lon="14.12709199365396"><ele>46.0</ele><time>2026-04-19T06:30:51Z</time></trkpt><trkpt lat="42.336231770609" lon="14.126848992397022"><ele>46.0</ele><time>2026-04-19T06:30:52Z</time></trkpt><trkpt lat="42.33603435429489" lon="14.12660985960504"><ele>46.0</ele><time>2026-04-19T06:30:53Z</time></trkpt><trkpt lat="42.3358373084073" lon="14.126372158374101"><ele>45.5</ele><time>2026-04-19T06:30:54Z</time></trkpt><trkpt lat="42.33564287189443" lon="14.12613596573927"><ele>45.0</ele><time>2026-04-19T06:30:55Z</time></trkpt><trkpt lat="42.33544732769789" lon="14.125894190712387"><ele>43.5</ele><time>2026-04-19T06:30:56Z</time></trkpt><trkpt lat="42.33526091427415" lon="14.125665930784976"><ele>42.0</ele><time>2026-04-19T06:30:57Z</time></trkpt><trkpt lat="42.33506989653104" lon="14.125430526808772"><ele>42.0</ele><time>2026-04-19T06:30:58Z</time></trkpt><trkpt lat="42.3348794954129" lon="14.12520068429852"><ele>42.0</ele><time>2026-04-19T06:30:59Z</time></trkpt><trkpt lat="42.334690026030174" lon="14.124973311400504"><ele>41.5</ele><time>2026-04-19T06:31:00Z</time></trkpt><trkpt lat="42.33450145195337" lon="14.124743242727687"><ele>41.0</ele><time>2026-04-19T06:31:01Z</time></trkpt><trkpt lat="42.334315601267356" lon="14.124509574914374"><ele>41.0</ele><time>2026-04-19T06:31:02Z</time></trkpt><trkpt lat="42.33414650635405" lon="14.124267428808444"><ele>41.0</ele><time>2026-04-19T06:31:03Z</time></trkpt><trkpt lat="42.33399810658271" lon="14.12401312111041"><ele>42.0</ele><time>2026-04-19T06:31:04Z</time></trkpt><trkpt lat="42.333882857699116" lon="14.123742926402322"><ele>43.0</ele><time>2026-04-19T06:31:05Z</time></trkpt><trkpt lat="42.333791676208214" lon="14.123472612206635"><ele>43.333333333333336</ele><time>2026-04-19T06:31:06Z</time></trkpt><trkpt lat="42.33372203968342" lon="14.12322075364777"><ele>43.666666666666664</ele><time>2026-04-19T06:31:07Z</time></trkpt><trkpt lat="42.33365423617865" lon="14.122982773779162"><ele>44.0</ele><time>2026-04-19T06:31:08Z</time></trkpt><trkpt lat="42.33358621897078" lon="14.122761439980225"><ele>44.0</ele><time>2026-04-19T06:31:09Z</time></trkpt><trkpt lat="42.33351389490211" lon="14.122541014425043"><ele>44.0</ele><time>2026-04-19T06:31:10Z</time></trkpt><trkpt lat="42.333445340380464" lon="14.122318375643978"><ele>44.0</ele><time>2026-04-19T06:31:11Z</time></trkpt><trkpt lat="42.33338010586402" lon="14.122107175658135"><ele>43.33333333333333</ele><time>2026-04-19T06:31:12Z</time></trkpt><trkpt lat="42.33331473768269" lon="14.121901377265518"><ele>42.666666666666664</ele><time>2026-04-19T06:31:13Z</time></trkpt><trkpt lat="42.33324899972199" lon="14.121693891997204"><ele>42.0</ele><time>2026-04-19T06:31:14Z</time></trkpt><trkpt lat="42.33318048018327" lon="14.121485483298466"><ele>42.0</ele><time>2026-04-19T06:31:15Z</time></trkpt><trkpt lat="42.33311990125988" lon="14.12129679592365"><ele>42.0</ele><time>2026-04-19T06:31:16Z</time></trkpt><trkpt lat="42.333054739503254" lon="14.121118626199593"><ele>42.0</ele><time>2026-04-19T06:31:17Z</time></trkpt><trkpt lat="42.33299629880134" lon="14.120940409249336"><ele>42.0</ele><time>2026-04-19T06:31:18Z</time></trkpt><trkpt lat="42.332936362988335" lon="14.120746469139634"><ele>41.5</ele><time>2026-04-19T06:31:19Z</time></trkpt><trkpt lat="42.33287870309871" lon="14.120558550679625"><ele>41.0</ele><time>2026-04-19T06:31:20Z</time></trkpt><trkpt lat="42.33282527445963" lon="14.120377169870789"><ele>40.5</ele><time>2026-04-19T06:31:21Z</time></trkpt><trkpt lat="42.33277451783464" lon="14.12020315533102"><ele>40.0</ele><time>2026-04-19T06:31:22Z</time></trkpt><trkpt lat="42.332723837726" lon="14.12004577548771"><ele>39.25</ele><time>2026-04-19T06:31:23Z</time></trkpt><trkpt lat="42.332674092637276" lon="14.11988870345396"><ele>38.5</ele><time>2026-04-19T06:31:24Z</time></trkpt><trkpt lat="42.33262598929307" lon="14.119732068098726"><ele>37.75</ele><time>2026-04-19T06:31:25Z</time></trkpt><trkpt lat="42.33257822471132" lon="14.119582868568239"><ele>37.0</ele><time>2026-04-19T06:31:26Z</time></trkpt><trkpt lat="42.33252802990743" lon="14.119424580735142"><ele>37.0</ele><time>2026-04-19T06:31:27Z</time></trkpt><trkpt lat="42.33247438273588" lon="14.11926570805439"><ele>37.0</ele><time>2026-04-19T06:31:28Z</time></trkpt><trkpt lat="42.3324286948608" lon="14.119123549954518"><ele>37.0</ele><time>2026-04-19T06:31:29Z</time></trkpt><trkpt lat="42.33239230765892" lon="14.118988886252644"><ele>37.0</ele><time>2026-04-19T06:31:30Z</time></trkpt><trkpt lat="42.33235559792682" lon="14.118864302004965"><ele>37.0</ele><time>2026-04-19T06:31:31Z</time></trkpt><trkpt lat="42.33231430656795" lon="14.118733910926627"><ele>37.2</ele><time>2026-04-19T06:31:32Z</time></trkpt><trkpt lat="42.33227061267968" lon="14.118591932337905"><ele>37.400000000000006</ele><time>2026-04-19T06:31:33Z</time></trkpt><trkpt lat="42.33222448547758" lon="14.118451540962953"><ele>37.599999999999994</ele><time>2026-04-19T06:31:34Z</time></trkpt><trkpt lat="42.332182477273875" lon="14.11832027127353"><ele>37.8</ele><time>2026-04-19T06:31:35Z</time></trkpt><trkpt lat="42.332140525191846" lon="14.11818731560326"><ele>38.0</ele><time>2026-04-19T06:31:36Z</time></trkpt><trkpt lat="42.33209595472017" lon="14.118046025059511"><ele>38.5</ele><time>2026-04-19T06:31:37Z</time></trkpt><trkpt lat="42.33204975769638" lon="14.117900558138711"><ele>39.0</ele><time>2026-04-19T06:31:38Z</time></trkpt><trkpt lat="42.332002911332474" lon="14.117755774828593"><ele>39.5</ele><time>2026-04-19T06:31:39Z</time></trkpt><trkpt lat="42.33195858194327" lon="14.117608621295684"><ele>40.0</ele><time>2026-04-19T06:31:40Z</time></trkpt><trkpt lat="42.331913639629995" lon="14.117463274678455"><ele>39.5</ele><time>2026-04-19T06:31:41Z</time></trkpt><trkpt lat="42.33186776553336" lon="14.117317175281407"><ele>39.0</ele><time>2026-04-19T06:31:42Z</time></trkpt><trkpt lat="42.331823574137296" lon="14.117169557752893"><ele>38.5</ele><time>2026-04-19T06:31:43Z</time></trkpt><trkpt lat="42.331791882207234" lon="14.117026507614733"><ele>38.0</ele><time>2026-04-19T06:31:44Z</time></trkpt><trkpt lat="42.331742536826866" lon="14.116873553759499"><ele>38.0</ele><time>2026-04-19T06:31:45Z</time></trkpt><trkpt lat="42.33168451211658" lon="14.116733417442855"><ele>38.0</ele><time>2026-04-19T06:31:46Z</time></trkpt><trkpt lat="42.33164151581173" lon="14.116585690086543"><ele>38.0</ele><time>2026-04-19T06:31:47Z</time></trkpt><trkpt lat="42.33159160983254" lon="14.116443373481065"><ele>38.0</ele><time>2026-04-19T06:31:48Z</time></trkpt><trkpt lat="42.331545538647546" lon="14.116299385896452"><ele>38.0</ele><time>2026-04-19T06:31:49Z</time></trkpt><trkpt lat="42.33150015177138" lon="14.116152207540809"><ele>38.0</ele><time>2026-04-19T06:31:50Z</time></trkpt><trkpt lat="42.33145547685027" lon="14.116005815086135"><ele>38.0</ele><time>2026-04-19T06:31:50.999Z</time></trkpt><trkpt lat="42.33141248416746" lon="14.115862708745116"><ele>38.0</ele><time>2026-04-19T06:31:51.999Z</time></trkpt><trkpt lat="42.33136148857573" lon="14.115713602025513"><ele>38.0</ele><time>2026-04-19T06:31:52.999Z</time></trkpt><trkpt lat="42.33131566014466" lon="14.115564914528461"><ele>38.0</ele><time>2026-04-19T06:31:53.999Z</time></trkpt><trkpt lat="42.33126782518818" lon="14.115416971376908"><ele>38.0</ele><time>2026-04-19T06:31:54.999Z</time></trkpt><trkpt lat="42.3312187402285" lon="14.115266571048805"><ele>38.0</ele><time>2026-04-19T06:31:55.999Z</time></trkpt><trkpt lat="42.331174799211894" lon="14.115116588382332"><ele>38.0</ele><time>2026-04-19T06:31:56.999Z</time></trkpt><trkpt lat="42.331130563045804" lon="14.11496582144813"><ele>38.0</ele><time>2026-04-19T06:31:57.999Z</time></trkpt><trkpt lat="42.3310854894207" lon="14.11481815020319"><ele>38.0</ele><time>2026-04-19T06:31:58.999Z</time></trkpt><trkpt lat="42.33103906272612" lon="14.11467277857639"><ele>38.0</ele><time>2026-04-19T06:31:59.999Z</time></trkpt><trkpt lat="42.330989778484756" lon="14.11452448350565"><ele>38.0</ele><time>2026-04-19T06:32:00.999Z</time></trkpt><trkpt lat="42.33094515058201" lon="14.114375740213466"><ele>38.0</ele><time>2026-04-19T06:32:01.999Z</time></trkpt><trkpt lat="42.33090456978662" lon="14.114236992758062"><ele>38.0</ele><time>2026-04-19T06:32:02.999Z</time></trkpt><trkpt lat="42.33086263672036" lon="14.114102968284008"><ele>38.0</ele><time>2026-04-19T06:32:03.999Z</time></trkpt><trkpt lat="42.33081821657724" lon="14.113959582339392"><ele>38.0</ele><time>2026-04-19T06:32:04.999Z</time></trkpt><trkpt lat="42.33077090624033" lon="14.113825886605152"><ele>38.0</ele><time>2026-04-19T06:32:05.999Z</time></trkpt><trkpt lat="42.33073295143052" lon="14.113697201623436"><ele>38.0</ele><time>2026-04-19T06:32:06.999Z</time></trkpt><trkpt lat="42.33069482303201" lon="14.113581465704245"><ele>38.0</ele><time>2026-04-19T06:32:07.999Z</time></trkpt><trkpt lat="42.330663718871556" lon="14.113473320644221"><ele>38.0</ele><time>2026-04-19T06:32:08.999Z</time></trkpt><trkpt lat="42.330641599604014" lon="14.113366846443434"><ele>38.0</ele><time>2026-04-19T06:32:09.999Z</time></trkpt><trkpt lat="42.3306398798693" lon="14.113260816316387"><ele>38.0</ele><time>2026-04-19T06:32:10.999Z</time></trkpt><trkpt lat="42.330638338354085" lon="14.113139432329596"><ele>38.0</ele><time>2026-04-19T06:32:11.999Z</time></trkpt><trkpt lat="42.330606046196" lon="14.11302875783913"><ele>38.0</ele><time>2026-04-19T06:32:12.999Z</time></trkpt><trkpt lat="42.33053874058758" lon="14.112919489874702"><ele>38.0</ele><time>2026-04-19T06:32:13.999Z</time></trkpt><trkpt lat="42.33046271450717" lon="14.112804611937689"><ele>39.0</ele><time>2026-04-19T06:32:14.999Z</time></trkpt><trkpt lat="42.33040464179849" lon="14.112672820952321"><ele>40.0</ele><time>2026-04-19T06:32:15.999Z</time></trkpt><trkpt lat="42.33036201545869" lon="14.112532631880704"><ele>41.0</ele><time>2026-04-19T06:32:16.999Z</time></trkpt><trkpt lat="42.330324470489906" lon="14.112390834639552"><ele>42.0</ele><time>2026-04-19T06:32:17.999Z</time></trkpt><trkpt lat="42.33028507986085" lon="14.11225417906155"><ele>43.0</ele><time>2026-04-19T06:32:18.999Z</time></trkpt><trkpt lat="42.3302465070907" lon="14.112128183040438"><ele>43.0</ele><time>2026-04-19T06:32:19.999Z</time></trkpt><trkpt lat="42.33020675258526" lon="14.112001308369951"><ele>43.0</ele><time>2026-04-19T06:32:20.999Z</time></trkpt><trkpt lat="42.33016578505529" lon="14.111875873519232"><ele>43.0</ele><time>2026-04-19T06:32:21.999Z</time></trkpt><trkpt lat="42.33012688269337" lon="14.111745067552926"><ele>43.0</ele><time>2026-04-19T06:32:22.999Z</time></trkpt><trkpt lat="42.3300877176351" lon="14.11160716793477"><ele>43.0</ele><time>2026-04-19T06:32:23.999Z</time></trkpt><trkpt lat="42.33004625516021" lon="14.1114666669716"><ele>42.75</ele><time>2026-04-19T06:32:24.999Z</time></trkpt><trkpt lat="42.33000227635387" lon="14.111327426437574"><ele>42.5</ele><time>2026-04-19T06:32:25.999Z</time></trkpt><trkpt lat="42.32995807812043" lon="14.111188533285063"><ele>42.25</ele><time>2026-04-19T06:32:27Z</time></trkpt><trkpt lat="42.32991033788122" lon="14.111050435117447"><ele>42.0</ele><time>2026-04-19T06:32:28Z</time></trkpt><trkpt lat="42.32986649680385" lon="14.110906602931898"><ele>42.0</ele><time>2026-04-19T06:32:29Z</time></trkpt><trkpt lat="42.32981939573337" lon="14.110757605565123"><ele>42.0</ele><time>2026-04-19T06:32:30Z</time></trkpt><trkpt lat="42.32977317790534" lon="14.11061057592604"><ele>42.0</ele><time>2026-04-19T06:32:31Z</time></trkpt><trkpt lat="42.32972319760816" lon="14.110458708632304"><ele>42.0</ele><time>2026-04-19T06:32:32Z</time></trkpt><trkpt lat="42.329669388254835" lon="14.110300655324778"><ele>42.25</ele><time>2026-04-19T06:32:33Z</time></trkpt><trkpt lat="42.32961777615634" lon="14.110136953308555"><ele>42.5</ele><time>2026-04-19T06:32:34Z</time></trkpt><trkpt lat="42.329567476131494" lon="14.109965008289464"><ele>42.75</ele><time>2026-04-19T06:32:35Z</time></trkpt><trkpt lat="42.329515428993325" lon="14.109796857270663"><ele>43.0</ele><time>2026-04-19T06:32:36Z</time></trkpt><trkpt lat="42.32946625467418" lon="14.109623195145181"><ele>43.0</ele><time>2026-04-19T06:32:37Z</time></trkpt><trkpt lat="42.32941616740443" lon="14.109447733859364"><ele>43.0</ele><time>2026-04-19T06:32:38Z</time></trkpt><trkpt lat="42.329358413177175" lon="14.1092626679938"><ele>43.0</ele><time>2026-04-19T06:32:39Z</time></trkpt><trkpt lat="42.32929812422904" lon="14.109082659791127"><ele>43.0</ele><time>2026-04-19T06:32:40Z</time></trkpt><trkpt lat="42.32923630345905" lon="14.108892471907978"><ele>42.333333333333336</ele><time>2026-04-19T06:32:41Z</time></trkpt><trkpt lat="42.32917630693878" lon="14.108695613332333"><ele>41.666666666666664</ele><time>2026-04-19T06:32:42Z</time></trkpt><trkpt lat="42.32910898455357" lon="14.108494333073237"><ele>41.0</ele><time>2026-04-19T06:32:43Z</time></trkpt><trkpt lat="42.32903768163935" lon="14.108287291577637"><ele>40.666666666666664</ele><time>2026-04-19T06:32:44Z</time></trkpt><trkpt lat="42.3289733899529" lon="14.108075534717859"><ele>40.333333333333336</ele><time>2026-04-19T06:32:45Z</time></trkpt><trkpt lat="42.32890706866636" lon="14.107852885583439"><ele>40.0</ele><time>2026-04-19T06:32:46Z</time></trkpt><trkpt lat="42.328834580117636" lon="14.10762993876699"><ele>42.0</ele><time>2026-04-19T06:32:47Z</time></trkpt><trkpt lat="42.32876321743725" lon="14.107393728073028"><ele>44.0</ele><time>2026-04-19T06:32:48Z</time></trkpt><trkpt lat="42.328680615364235" lon="14.107143788715058"><ele>46.0</ele><time>2026-04-19T06:32:49Z</time></trkpt><trkpt lat="42.328595819844686" lon="14.106889376553712"><ele>46.0</ele><time>2026-04-19T06:32:50Z</time></trkpt><trkpt lat="42.32851149885389" lon="14.106618460278945"><ele>46.0</ele><time>2026-04-19T06:32:51Z</time></trkpt><trkpt lat="42.32841533875003" lon="14.106321941564225"><ele>46.0</ele><time>2026-04-19T06:32:52Z</time></trkpt><trkpt lat="42.328311151280836" lon="14.105988421908686"><ele>46.0</ele><time>2026-04-19T06:32:53Z</time></trkpt><trkpt lat="42.328215841881565" lon="14.105683129106778"><ele>46.0</ele><time>2026-04-19T06:32:54Z</time></trkpt><trkpt lat="42.328138603284856" lon="14.10543681848426"><ele>46.0</ele><time>2026-04-19T06:32:55Z</time></trkpt><trkpt lat="42.32807658887241" lon="14.105223459391135"><ele>46.0</ele><time>2026-04-19T06:32:56Z</time></trkpt><trkpt lat="42.32801622599417" lon="14.105015970261114"><ele>46.25</ele><time>2026-04-19T06:32:57Z</time></trkpt><trkpt lat="42.327952591245634" lon="14.104822726442105"><ele>46.5</ele><time>2026-04-19T06:32:58Z</time></trkpt><trkpt lat="42.32789827094846" lon="14.104644553273346"><ele>46.75</ele><time>2026-04-19T06:32:59Z</time></trkpt><trkpt lat="42.32784344760855" lon="14.104471945372868"><ele>47.0</ele><time>2026-04-19T06:33:00Z</time></trkpt><trkpt lat="42.32778559636648" lon="14.104299081137627"><ele>47.0</ele><time>2026-04-19T06:33:01Z</time></trkpt><trkpt lat="42.327727015959574" lon="14.104116473089718"><ele>47.0</ele><time>2026-04-19T06:33:02Z</time></trkpt><trkpt lat="42.327666586473825" lon="14.103936360538851"><ele>47.0</ele><time>2026-04-19T06:33:03Z</time></trkpt><trkpt lat="42.327608741979745" lon="14.103757359732656"><ele>47.0</ele><time>2026-04-19T06:33:04Z</time></trkpt><trkpt lat="42.32754891309406" lon="14.103576730522073"><ele>47.25</ele><time>2026-04-19T06:33:05Z</time></trkpt><trkpt lat="42.32749466114638" lon="14.103405346045836"><ele>47.5</ele><time>2026-04-19T06:33:06Z</time></trkpt><trkpt lat="42.32743783506658" lon="14.103227272385416"><ele>47.75</ele><time>2026-04-19T06:33:07Z</time></trkpt><trkpt lat="42.3273845308113" lon="14.103068340237094"><ele>48.0</ele><time>2026-04-19T06:33:08Z</time></trkpt><trkpt lat="42.32734023132072" lon="14.102905933865378"><ele>48.0</ele><time>2026-04-19T06:33:09Z</time></trkpt><trkpt lat="42.32728041638939" lon="14.102738713361083"><ele>48.0</ele><time>2026-04-19T06:33:10Z</time></trkpt><trkpt lat="42.327224744717356" lon="14.10257000605593"><ele>48.0</ele><time>2026-04-19T06:33:11Z</time></trkpt><trkpt lat="42.32715591046549" lon="14.10239599835414"><ele>48.0</ele><time>2026-04-19T06:33:12Z</time></trkpt><trkpt lat="42.32706852887247" lon="14.102217043359675"><ele>49.75</ele><time>2026-04-19T06:33:13Z</time></trkpt><trkpt lat="42.32696951942694" lon="14.102045404943988"><ele>51.5</ele><time>2026-04-19T06:33:14Z</time></trkpt><trkpt lat="42.32687637799112" lon="14.101882970188704"><ele>53.25</ele><time>2026-04-19T06:33:15Z</time></trkpt><trkpt lat="42.32678738139235" lon="14.101749919392974"><ele>55.0</ele><time>2026-04-19T06:33:16Z</time></trkpt><trkpt lat="42.326699989656476" lon="14.101613389572"><ele>55.0</ele><time>2026-04-19T06:33:17Z</time></trkpt><trkpt lat="42.32662658986209" lon="14.101459278375135"><ele>55.0</ele><time>2026-04-19T06:33:18Z</time></trkpt><trkpt lat="42.32652810165413" lon="14.101344372098236"><ele>55.0</ele><time>2026-04-19T06:33:19Z</time></trkpt><trkpt lat="42.326448725903475" lon="14.10122369917056"><ele>55.0</ele><time>2026-04-19T06:33:20Z</time></trkpt><trkpt lat="42.326363961428115" lon="14.101083489740036"><ele>55.0</ele><time>2026-04-19T06:33:21Z</time></trkpt><trkpt lat="42.32626581054015" lon="14.100924656672746"><ele>55.0</ele><time>2026-04-19T06:33:22Z</time></trkpt><trkpt lat="42.32614027513186" lon="14.100737872760492"><ele>55.0</ele><time>2026-04-19T06:33:23Z</time></trkpt><trkpt lat="42.32600941236215" lon="14.100526847472295"><ele>54.0</ele><time>2026-04-19T06:33:24Z</time></trkpt><trkpt lat="42.32587317001126" lon="14.10028962188714"><ele>53.0</ele><time>2026-04-19T06:33:25Z</time></trkpt><trkpt lat="42.325729450670174" lon="14.100049360148844"><ele>52.0</ele><time>2026-04-19T06:33:26Z</time></trkpt><trkpt lat="42.325577839788906" lon="14.09981452934886"><ele>51.0</ele><time>2026-04-19T06:33:27Z</time></trkpt><trkpt lat="42.32542437037603" lon="14.09957993239497"><ele>53.5</ele><time>2026-04-19T06:33:28Z</time></trkpt><trkpt lat="42.32527411513104" lon="14.099345102756233"><ele>56.0</ele><time>2026-04-19T06:33:29Z</time></trkpt><trkpt lat="42.32512528425945" lon="14.099114758395828"><ele>55.0</ele><time>2026-04-19T06:33:30Z</time></trkpt><trkpt lat="42.32499423710005" lon="14.098897327268885"><ele>54.0</ele><time>2026-04-19T06:33:31Z</time></trkpt><trkpt lat="42.3248665638717" lon="14.098693158138106"><ele>53.0</ele><time>2026-04-19T06:33:32Z</time></trkpt><trkpt lat="42.32473911775469" lon="14.098489173641566"><ele>54.333333333333336</ele><time>2026-04-19T06:33:33Z</time></trkpt><trkpt lat="42.32461481832906" lon="14.098289411729343"><ele>55.66666666666667</ele><time>2026-04-19T06:33:34Z</time></trkpt><trkpt lat="42.324506205115654" lon="14.098090907348233"><ele>57.0</ele><time>2026-04-19T06:33:35Z</time></trkpt><trkpt lat="42.324411041651636" lon="14.097871758683082"><ele>57.0</ele><time>2026-04-19T06:33:36Z</time></trkpt><trkpt lat="42.32432983724786" lon="14.097636104633244"><ele>57.0</ele><time>2026-04-19T06:33:37Z</time></trkpt><trkpt lat="42.324269015156226" lon="14.097399318684927"><ele>57.0</ele><time>2026-04-19T06:33:38Z</time></trkpt><trkpt lat="42.32422076692771" lon="14.09717524799888"><ele>57.25</ele><time>2026-04-19T06:33:39Z</time></trkpt><trkpt lat="42.3241796439591" lon="14.096969210227499"><ele>57.5</ele><time>2026-04-19T06:33:40Z</time></trkpt><trkpt lat="42.32414047832755" lon="14.096783141130798"><ele>57.75</ele><time>2026-04-19T06:33:41Z</time></trkpt><trkpt lat="42.324119698028284" lon="14.096603487881257"><ele>58.0</ele><time>2026-04-19T06:33:42Z</time></trkpt><trkpt lat="42.324083181910765" lon="14.096422548954157"><ele>58.0</ele><time>2026-04-19T06:33:43Z</time></trkpt><trkpt lat="42.324044373751136" lon="14.096230970803788"><ele>58.0</ele><time>2026-04-19T06:33:44Z</time></trkpt><trkpt lat="42.32400006390461" lon="14.096012349398416"><ele>58.0</ele><time>2026-04-19T06:33:45Z</time></trkpt><trkpt lat="42.32393804175321" lon="14.095779549429144"><ele>58.33333333333333</ele><time>2026-04-19T06:33:46Z</time></trkpt><trkpt lat="42.323892905685234" lon="14.095519499213017"><ele>58.66666666666667</ele><time>2026-04-19T06:33:47Z</time></trkpt><trkpt lat="42.32384279716191" lon="14.095260374309238"><ele>59.0</ele><time>2026-04-19T06:33:48Z</time></trkpt><trkpt lat="42.323793123632775" lon="14.095007976411377"><ele>58.66666666666667</ele><time>2026-04-19T06:33:49Z</time></trkpt><trkpt lat="42.32374226405034" lon="14.094753784085766"><ele>58.33333333333333</ele><time>2026-04-19T06:33:49.999Z</time></trkpt><trkpt lat="42.323685925637676" lon="14.094501958826042"><ele>58.0</ele><time>2026-04-19T06:33:50.999Z</time></trkpt><trkpt lat="42.32362613714454" lon="14.09424358823544"><ele>58.0</ele><time>2026-04-19T06:33:51.999Z</time></trkpt><trkpt lat="42.32355140546513" lon="14.093988560180192"><ele>58.0</ele><time>2026-04-19T06:33:52.999Z</time></trkpt><trkpt lat="42.32345564652998" lon="14.09374091375977"><ele>58.0</ele><time>2026-04-19T06:33:53.999Z</time></trkpt><trkpt lat="42.323345655108625" lon="14.093504108309105"><ele>58.0</ele><time>2026-04-19T06:33:54.999Z</time></trkpt><trkpt lat="42.32322771726294" lon="14.093267406827561"><ele>58.0</ele><time>2026-04-19T06:33:55.999Z</time></trkpt><trkpt lat="42.32310846295439" lon="14.09302455746688"><ele>58.0</ele><time>2026-04-19T06:33:56.999Z</time></trkpt><trkpt lat="42.322990848280654" lon="14.09278124150396"><ele>58.0</ele><time>2026-04-19T06:33:57.999Z</time></trkpt><trkpt lat="42.322875050575746" lon="14.092538340100221"><ele>58.0</ele><time>2026-04-19T06:33:58.999Z</time></trkpt><trkpt lat="42.3227656981525" lon="14.092310439310157"><ele>58.0</ele><time>2026-04-19T06:33:59.999Z</time></trkpt><trkpt lat="42.32265738955207" lon="14.092086284832584"><ele>58.33333333333333</ele><time>2026-04-19T06:34:00.999Z</time></trkpt><trkpt lat="42.32255179716342" lon="14.091867658949507"><ele>58.66666666666667</ele><time>2026-04-19T06:34:01.999Z</time></trkpt><trkpt lat="42.322446155060476" lon="14.091648294974915"><ele>59.0</ele><time>2026-04-19T06:34:02.999Z</time></trkpt><trkpt lat="42.32233917907807" lon="14.09142566801982"><ele>58.66666666666667</ele><time>2026-04-19T06:34:03.999Z</time></trkpt><trkpt lat="42.32223421279645" lon="14.09120182797842"><ele>58.33333333333333</ele><time>2026-04-19T06:34:04.999Z</time></trkpt><trkpt lat="42.322126403245015" lon="14.09097900600162"><ele>58.0</ele><time>2026-04-19T06:34:05.999Z</time></trkpt><trkpt lat="42.32202397850359" lon="14.09076953583412"><ele>58.0</ele><time>2026-04-19T06:34:06.999Z</time></trkpt><trkpt lat="42.32192413648116" lon="14.090569389345232"><ele>58.0</ele><time>2026-04-19T06:34:07.999Z</time></trkpt><trkpt lat="42.32184149997992" lon="14.090357855819786"><ele>58.0</ele><time>2026-04-19T06:34:08.999Z</time></trkpt><trkpt lat="42.3217415826721" lon="14.090149632004906"><ele>58.0</ele><time>2026-04-19T06:34:09.999Z</time></trkpt><trkpt lat="42.32164208135392" lon="14.089941572483946"><ele>58.0</ele><time>2026-04-19T06:34:10.999Z</time></trkpt><trkpt lat="42.32154217512868" lon="14.089732222700988"><ele>58.0</ele><time>2026-04-19T06:34:11.999Z</time></trkpt><trkpt lat="42.321438656546135" lon="14.089519270456714"><ele>58.33333333333333</ele><time>2026-04-19T06:34:12.999Z</time></trkpt><trkpt lat="42.32133099163599" lon="14.089295254212255"><ele>58.66666666666667</ele><time>2026-04-19T06:34:13.999Z</time></trkpt><trkpt lat="42.32120719988753" lon="14.089076531968194"><ele>59.0</ele><time>2026-04-19T06:34:14.999Z</time></trkpt><trkpt lat="42.32110062260257" lon="14.088843582686442"><ele>59.333333333333336</ele><time>2026-04-19T06:34:15.999Z</time></trkpt><trkpt lat="42.32098950105708" lon="14.088603690206108"><ele>59.66666666666667</ele><time>2026-04-19T06:34:16.999Z</time></trkpt><trkpt lat="42.32087839729274" lon="14.088367010526483"><ele>60.0</ele><time>2026-04-19T06:34:17.999Z</time></trkpt><trkpt lat="42.320765203979676" lon="14.088127401476443"><ele>60.0</ele><time>2026-04-19T06:34:18.999Z</time></trkpt><trkpt lat="42.320653043372495" lon="14.087891691270462"><ele>60.0</ele><time>2026-04-19T06:34:19.999Z</time></trkpt><trkpt lat="42.32054161154258" lon="14.087661132004353"><ele>60.0</ele><time>2026-04-19T06:34:20.999Z</time></trkpt><trkpt lat="42.32043227182902" lon="14.08743172431167"><ele>60.33333333333333</ele><time>2026-04-19T06:34:21.999Z</time></trkpt><trkpt lat="42.32031678364526" lon="14.08719885281773"><ele>60.666666666666664</ele><time>2026-04-19T06:34:22.999Z</time></trkpt><trkpt lat="42.32020752867166" lon="14.086971073975125"><ele>61.0</ele><time>2026-04-19T06:34:23.999Z</time></trkpt><trkpt lat="42.320097407596705" lon="14.086738555392659"><ele>60.33333333333333</ele><time>2026-04-19T06:34:24.999Z</time></trkpt><trkpt lat="42.319990603457086" lon="14.086511447828107"><ele>59.66666666666667</ele><time>2026-04-19T06:34:25.999Z</time></trkpt><trkpt lat="42.31988378345422" lon="14.08628358032856"><ele>59.0</ele><time>2026-04-19T06:34:26.999Z</time></trkpt><trkpt lat="42.319774344652814" lon="14.086053706858916"><ele>59.66666666666667</ele><time>2026-04-19T06:34:27.999Z</time></trkpt><trkpt lat="42.31965991844461" lon="14.085819463844393"><ele>60.33333333333333</ele><time>2026-04-19T06:34:28.999Z</time></trkpt><trkpt lat="42.319542999352535" lon="14.085579691313177"><ele>61.0</ele><time>2026-04-19T06:34:29.999Z</time></trkpt><trkpt lat="42.31942982932199" lon="14.08534652491269"><ele>61.33333333333333</ele><time>2026-04-19T06:34:30.999Z</time></trkpt><trkpt lat="42.31931654945789" lon="14.085108711545201"><ele>61.66666666666667</ele><time>2026-04-19T06:34:32Z</time></trkpt><trkpt lat="42.319202862934894" lon="14.08487186459415"><ele>62.0</ele><time>2026-04-19T06:34:33Z</time></trkpt><trkpt lat="42.3190908859407" lon="14.084640412279159"><ele>62.333333333333336</ele><time>2026-04-19T06:34:34Z</time></trkpt><trkpt lat="42.31897742859631" lon="14.084403742556733"><ele>62.66666666666667</ele><time>2026-04-19T06:34:35Z</time></trkpt><trkpt lat="42.31886398439389" lon="14.084166647692227"><ele>63.0</ele><time>2026-04-19T06:34:36Z</time></trkpt><trkpt lat="42.31875032848746" lon="14.083925803798136"><ele>63.0</ele><time>2026-04-19T06:34:37Z</time></trkpt><trkpt lat="42.31863689606095" lon="14.083692074126922"><ele>63.0</ele><time>2026-04-19T06:34:38Z</time></trkpt><trkpt lat="42.31852219230679" lon="14.083462104457642"><ele>63.0</ele><time>2026-04-19T06:34:39Z</time></trkpt><trkpt lat="42.31842453252364" lon="14.083221096556475"><ele>63.33333333333333</ele><time>2026-04-19T06:34:40Z</time></trkpt><trkpt lat="42.31829963575715" lon="14.083002291605105"><ele>63.666666666666664</ele><time>2026-04-19T06:34:41Z</time></trkpt><trkpt lat="42.31820168799383" lon="14.082760740309215"><ele>64.0</ele><time>2026-04-19T06:34:42Z</time></trkpt><trkpt lat="42.31807654604591" lon="14.082535767138076"><ele>64.0</ele><time>2026-04-19T06:34:43Z</time></trkpt><trkpt lat="42.31796342753646" lon="14.082292422054792"><ele>64.0</ele><time>2026-04-19T06:34:44Z</time></trkpt><trkpt lat="42.317842308122295" lon="14.08204098763521"><ele>64.0</ele><time>2026-04-19T06:34:45Z</time></trkpt><trkpt lat="42.31772079569902" lon="14.081785981644074"><ele>64.33333333333333</ele><time>2026-04-19T06:34:46Z</time></trkpt><trkpt lat="42.31760235592024" lon="14.081537449681546"><ele>64.66666666666667</ele><time>2026-04-19T06:34:47Z</time></trkpt><trkpt lat="42.31748524201247" lon="14.081294492127759"><ele>65.0</ele><time>2026-04-19T06:34:48Z</time></trkpt><trkpt lat="42.3173729390659" lon="14.08106146695739"><ele>65.0</ele><time>2026-04-19T06:34:49Z</time></trkpt><trkpt lat="42.317272058328065" lon="14.080850819330582"><ele>65.0</ele><time>2026-04-19T06:34:50Z</time></trkpt><trkpt lat="42.31717883551978" lon="14.08065704566719"><ele>65.0</ele><time>2026-04-19T06:34:51Z</time></trkpt><trkpt lat="42.31707953845326" lon="14.080455504722064"><ele>65.66666666666667</ele><time>2026-04-19T06:34:52Z</time></trkpt><trkpt lat="42.31698223100594" lon="14.080255059376434"><ele>66.33333333333333</ele><time>2026-04-19T06:34:53Z</time></trkpt><trkpt lat="42.31688952375884" lon="14.080056111940118"><ele>67.0</ele><time>2026-04-19T06:34:54Z</time></trkpt><trkpt lat="42.316794563103855" lon="14.079854662318645"><ele>67.0</ele><time>2026-04-19T06:34:55Z</time></trkpt><trkpt lat="42.31669748256195" lon="14.079648164458916"><ele>67.0</ele><time>2026-04-19T06:34:56Z</time></trkpt><trkpt lat="42.316599781854066" lon="14.079437880904806"><ele>67.0</ele><time>2026-04-19T06:34:57Z</time></trkpt><trkpt lat="42.31649903448948" lon="14.079227161777832"><ele>67.33333333333333</ele><time>2026-04-19T06:34:58Z</time></trkpt><trkpt lat="42.31639195462063" lon="14.079013533009368"><ele>67.66666666666667</ele><time>2026-04-19T06:34:59Z</time></trkpt><trkpt lat="42.31628534480429" lon="14.078793643925152"><ele>68.0</ele><time>2026-04-19T06:35:00Z</time></trkpt><trkpt lat="42.31618003717169" lon="14.078571592043865"><ele>68.0</ele><time>2026-04-19T06:35:01Z</time></trkpt><trkpt lat="42.316072005622175" lon="14.07834820078091"><ele>68.0</ele><time>2026-04-19T06:35:02Z</time></trkpt><trkpt lat="42.31596741169181" lon="14.07812686077711"><ele>68.0</ele><time>2026-04-19T06:35:03Z</time></trkpt><trkpt lat="42.31586435677461" lon="14.077903527447127"><ele>68.0</ele><time>2026-04-19T06:35:04Z</time></trkpt><trkpt lat="42.315759596097685" lon="14.077684866907314"><ele>68.0</ele><time>2026-04-19T06:35:05Z</time></trkpt><trkpt lat="42.31565556928552" lon="14.077479535477229"><ele>68.0</ele><time>2026-04-19T06:35:06Z</time></trkpt><trkpt lat="42.31555717341069" lon="14.07727568193765"><ele>68.33333333333334</ele><time>2026-04-19T06:35:07Z</time></trkpt><trkpt lat="42.31546179147225" lon="14.077068725141073"><ele>68.66666666666667</ele><time>2026-04-19T06:35:08Z</time></trkpt><trkpt lat="42.31536575061625" lon="14.076863254127602"><ele>69.0</ele><time>2026-04-19T06:35:09Z</time></trkpt><trkpt lat="42.3152693623801" lon="14.076658868102662"><ele>69.0</ele><time>2026-04-19T06:35:10Z</time></trkpt><trkpt lat="42.315172709759445" lon="14.076462845481219"><ele>69.0</ele><time>2026-04-19T06:35:11Z</time></trkpt><trkpt lat="42.315086022062935" lon="14.076282668404387"><ele>69.0</ele><time>2026-04-19T06:35:12Z</time></trkpt><trkpt lat="42.31500863677923" lon="14.07612341058286"><ele>69.0</ele><time>2026-04-19T06:35:13Z</time></trkpt><trkpt lat="42.31492636837182" lon="14.075960186617138"><ele>69.0</ele><time>2026-04-19T06:35:14Z</time></trkpt><trkpt lat="42.31484589745378" lon="14.075799530378662"><ele>69.0</ele><time>2026-04-19T06:35:15Z</time></trkpt><trkpt lat="42.314781308526975" lon="14.075657149134877"><ele>69.0</ele><time>2026-04-19T06:35:16Z</time></trkpt><trkpt lat="42.314748489278394" lon="14.075521608538192"><ele>68.8</ele><time>2026-04-19T06:35:17Z</time></trkpt><trkpt lat="42.31474181300717" lon="14.075389617134157"><ele>68.60000000000001</ele><time>2026-04-19T06:35:18Z</time></trkpt><trkpt lat="42.314759972526105" lon="14.075264798281147"><ele>68.4</ele><time>2026-04-19T06:35:19Z</time></trkpt><trkpt lat="42.31476855092628" lon="14.075155621167745"><ele>68.2</ele><time>2026-04-19T06:35:20Z</time></trkpt><trkpt lat="42.31474217864044" lon="14.07504082319548"><ele>68.0</ele><time>2026-04-19T06:35:21Z</time></trkpt><trkpt lat="42.314678498339326" lon="14.074908013934408"><ele>68.0</ele><time>2026-04-19T06:35:22Z</time></trkpt><trkpt lat="42.31458868507749" lon="14.074776817180853"><ele>68.0</ele><time>2026-04-19T06:35:23Z</time></trkpt><trkpt lat="42.31448133201991" lon="14.074616059470332"><ele>68.0</ele><time>2026-04-19T06:35:24Z</time></trkpt><trkpt lat="42.31440532867062" lon="14.074432928602803"><ele>68.0</ele><time>2026-04-19T06:35:25Z</time></trkpt><trkpt lat="42.31435684029118" lon="14.074209609945793"><ele>67.66666666666667</ele><time>2026-04-19T06:35:26Z</time></trkpt><trkpt lat="42.31433768418907" lon="14.07393392978896"><ele>67.33333333333333</ele><time>2026-04-19T06:35:27Z</time></trkpt><trkpt lat="42.314292637935885" lon="14.073635739660153"><ele>67.0</ele><time>2026-04-19T06:35:28Z</time></trkpt><trkpt lat="42.31426879079135" lon="14.073333284668731"><ele>67.5</ele><time>2026-04-19T06:35:29Z</time></trkpt><trkpt lat="42.31424053010223" lon="14.073003040669724"><ele>68.0</ele><time>2026-04-19T06:35:30Z</time></trkpt><trkpt lat="42.314208112873956" lon="14.072646146601171"><ele>68.5</ele><time>2026-04-19T06:35:31Z</time></trkpt><trkpt lat="42.3141724128719" lon="14.072269298314295"><ele>69.0</ele><time>2026-04-19T06:35:32Z</time></trkpt><trkpt lat="42.31413719866691" lon="14.071899666401835"><ele>68.0</ele><time>2026-04-19T06:35:33Z</time></trkpt><trkpt lat="42.31410503246292" lon="14.071537075133476"><ele>67.0</ele><time>2026-04-19T06:35:34Z</time></trkpt><trkpt lat="42.3140726400231" lon="14.07117443941234"><ele>67.0</ele><time>2026-04-19T06:35:35Z</time></trkpt><trkpt lat="42.314039427629744" lon="14.070810394227735"><ele>67.0</ele><time>2026-04-19T06:35:36Z</time></trkpt><trkpt lat="42.31400403454294" lon="14.070449957906868"><ele>66.5</ele><time>2026-04-19T06:35:37Z</time></trkpt><trkpt lat="42.31396829491026" lon="14.070095872179914"><ele>66.0</ele><time>2026-04-19T06:35:38Z</time></trkpt><trkpt lat="42.31393747947768" lon="14.069765153587975"><ele>66.0</ele><time>2026-04-19T06:35:39Z</time></trkpt><trkpt lat="42.313910730934445" lon="14.069461148824102"><ele>66.0</ele><time>2026-04-19T06:35:40Z</time></trkpt><trkpt lat="42.31388317134313" lon="14.06917920589763"><ele>66.0</ele><time>2026-04-19T06:35:41Z</time></trkpt><trkpt lat="42.31385459030527" lon="14.068890810571165"><ele>66.0</ele><time>2026-04-19T06:35:42Z</time></trkpt><trkpt lat="42.313842739064306" lon="14.068598797472315"><ele>66.0</ele><time>2026-04-19T06:35:43Z</time></trkpt><trkpt lat="42.31381459479774" lon="14.068292228014286"><ele>66.0</ele><time>2026-04-19T06:35:44Z</time></trkpt><trkpt lat="42.313785910683016" lon="14.067979778253953"><ele>66.5</ele><time>2026-04-19T06:35:44.999Z</time></trkpt><trkpt lat="42.31375626890135" lon="14.067663995435908"><ele>67.0</ele><time>2026-04-19T06:35:45.999Z</time></trkpt><trkpt lat="42.31371545746865" lon="14.067344926262535"><ele>67.0</ele><time>2026-04-19T06:35:46.999Z</time></trkpt><trkpt lat="42.31368832045241" lon="14.067016744456035"><ele>67.0</ele><time>2026-04-19T06:35:47.999Z</time></trkpt><trkpt lat="42.3136588584466" lon="14.066693485773216"><ele>67.0</ele><time>2026-04-19T06:35:48.999Z</time></trkpt><trkpt lat="42.31362834084733" lon="14.066368774601951"><ele>67.0</ele><time>2026-04-19T06:35:49.999Z</time></trkpt><trkpt lat="42.31360180396152" lon="14.066050280685342"><ele>67.66666666666666</ele><time>2026-04-19T06:35:50.999Z</time></trkpt><trkpt lat="42.31357814996737" lon="14.065754692229557"><ele>68.33333333333333</ele><time>2026-04-19T06:35:51.999Z</time></trkpt><trkpt lat="42.31354877836198" lon="14.06547881944085"><ele>69.0</ele><time>2026-04-19T06:35:52.999Z</time></trkpt><trkpt lat="42.31351115162492" lon="14.065207605288691"><ele>69.0</ele><time>2026-04-19T06:35:53.999Z</time></trkpt><trkpt lat="42.313460934299336" lon="14.064947139096722"><ele>69.0</ele><time>2026-04-19T06:35:54.999Z</time></trkpt><trkpt lat="42.313397780424324" lon="14.064695666149284"><ele>69.0</ele><time>2026-04-19T06:35:55.999Z</time></trkpt><trkpt lat="42.31333059189582" lon="14.064449181743703"><ele>68.66666666666667</ele><time>2026-04-19T06:35:56.999Z</time></trkpt><trkpt lat="42.313257005651515" lon="14.064217871443418"><ele>68.33333333333334</ele><time>2026-04-19T06:35:57.999Z</time></trkpt><trkpt lat="42.31317988057923" lon="14.064016294553447"><ele>68.0</ele><time>2026-04-19T06:35:58.999Z</time></trkpt><trkpt lat="42.3131024523865" lon="14.063828819172945"><ele>67.66666666666667</ele><time>2026-04-19T06:35:59.999Z</time></trkpt><trkpt lat="42.31301485578503" lon="14.063641823836951"><ele>67.33333333333333</ele><time>2026-04-19T06:36:00.999Z</time></trkpt><trkpt lat="42.312927039788065" lon="14.063467047288167"><ele>67.0</ele><time>2026-04-19T06:36:01.999Z</time></trkpt><trkpt lat="42.312836903754615" lon="14.063295335208393"><ele>66.5</ele><time>2026-04-19T06:36:02.999Z</time></trkpt><trkpt lat="42.31274836719297" lon="14.063134296447812"><ele>66.0</ele><time>2026-04-19T06:36:03.999Z</time></trkpt><trkpt lat="42.31265956738724" lon="14.06297405142649"><ele>65.5</ele><time>2026-04-19T06:36:04.999Z</time></trkpt><trkpt lat="42.31256770639422" lon="14.062809873831421"><ele>65.0</ele><time>2026-04-19T06:36:05.999Z</time></trkpt><trkpt lat="42.31248082902664" lon="14.062654543361296"><ele>65.0</ele><time>2026-04-19T06:36:06.999Z</time></trkpt><trkpt lat="42.3123934811964" lon="14.062494603951315"><ele>65.0</ele><time>2026-04-19T06:36:07.999Z</time></trkpt><trkpt lat="42.312303566756086" lon="14.062327116623639"><ele>65.0</ele><time>2026-04-19T06:36:08.999Z</time></trkpt><trkpt lat="42.312212076217804" lon="14.062159635435512"><ele>64.66666666666667</ele><time>2026-04-19T06:36:09.999Z</time></trkpt><trkpt lat="42.31211758279486" lon="14.061988911977764"><ele>64.33333333333333</ele><time>2026-04-19T06:36:10.999Z</time></trkpt><trkpt lat="42.312021365352635" lon="14.061816030951878"><ele>64.0</ele><time>2026-04-19T06:36:11.999Z</time></trkpt><trkpt lat="42.311924802963496" lon="14.061643684473783"><ele>64.66666666666666</ele><time>2026-04-19T06:36:12.999Z</time></trkpt><trkpt lat="42.31182841174801" lon="14.061470270002143"><ele>65.33333333333333</ele><time>2026-04-19T06:36:13.999Z</time></trkpt><trkpt lat="42.311726313742426" lon="14.061285705136273"><ele>66.0</ele><time>2026-04-19T06:36:14.999Z</time></trkpt><trkpt lat="42.31162625545851" lon="14.061103121961297"><ele>66.0</ele><time>2026-04-19T06:36:15.999Z</time></trkpt><trkpt lat="42.31151783451781" lon="14.060909960880954"><ele>66.0</ele><time>2026-04-19T06:36:16.999Z</time></trkpt><trkpt lat="42.31140428957965" lon="14.060713092338283"><ele>66.0</ele><time>2026-04-19T06:36:17.999Z</time></trkpt><trkpt lat="42.311286590227155" lon="14.060504626728054"><ele>66.33333333333333</ele><time>2026-04-19T06:36:18.999Z</time></trkpt><trkpt lat="42.31115752065627" lon="14.060270275646856"><ele>66.66666666666666</ele><time>2026-04-19T06:36:19.999Z</time></trkpt><trkpt lat="42.311024455157195" lon="14.060025199751127"><ele>67.0</ele><time>2026-04-19T06:36:20.999Z</time></trkpt><trkpt lat="42.31088344934242" lon="14.059747851999521"><ele>67.0</ele><time>2026-04-19T06:36:21.999Z</time></trkpt><trkpt lat="42.310736865123616" lon="14.05946382434588"><ele>67.0</ele><time>2026-04-19T06:36:22.999Z</time></trkpt><trkpt lat="42.310583312125395" lon="14.059190232121901"><ele>67.0</ele><time>2026-04-19T06:36:23.999Z</time></trkpt><trkpt lat="42.310430244326795" lon="14.058921201670987"><ele>67.0</ele><time>2026-04-19T06:36:24.999Z</time></trkpt><trkpt lat="42.31028513361348" lon="14.058656438364196"><ele>67.0</ele><time>2026-04-19T06:36:25.999Z</time></trkpt><trkpt lat="42.31014118425241" lon="14.058389982348316"><ele>67.0</ele><time>2026-04-19T06:36:26.999Z</time></trkpt><trkpt lat="42.30999880091071" lon="14.058124319611274"><ele>65.5</ele><time>2026-04-19T06:36:27.999Z</time></trkpt><trkpt lat="42.309850902302564" lon="14.057854363020326"><ele>64.0</ele><time>2026-04-19T06:36:28.999Z</time></trkpt><trkpt lat="42.30970034871155" lon="14.057585026292298"><ele>64.0</ele><time>2026-04-19T06:36:29.999Z</time></trkpt><trkpt lat="42.30954761035674" lon="14.057315396529232"><ele>64.0</ele><time>2026-04-19T06:36:30.999Z</time></trkpt><trkpt lat="42.30939943548205" lon="14.057054872053781"><ele>64.0</ele><time>2026-04-19T06:36:31.999Z</time></trkpt><trkpt lat="42.309244448848794" lon="14.056808147134666"><ele>64.0</ele><time>2026-04-19T06:36:32.999Z</time></trkpt><trkpt lat="42.30907186100351" lon="14.056589866284686"><ele>63.5</ele><time>2026-04-19T06:36:33.999Z</time></trkpt><trkpt lat="42.30887998451988" lon="14.056400696356663"><ele>63.0</ele><time>2026-04-19T06:36:34.999Z</time></trkpt><trkpt lat="42.30867186854582" lon="14.056243495720045"><ele>63.0</ele><time>2026-04-19T06:36:35.999Z</time></trkpt><trkpt lat="42.308447554586316" lon="14.056106845403958"><ele>63.0</ele><time>2026-04-19T06:36:36.999Z</time></trkpt><trkpt lat="42.30820406006748" lon="14.055975882645154"><ele>62.5</ele><time>2026-04-19T06:36:38Z</time></trkpt><trkpt lat="42.30795583426417" lon="14.055843733299524"><ele>62.0</ele><time>2026-04-19T06:36:39Z</time></trkpt><trkpt lat="42.30769353201977" lon="14.055692748228894"><ele>62.0</ele><time>2026-04-19T06:36:40Z</time></trkpt><trkpt lat="42.30744031133528" lon="14.055539434841076"><ele>62.0</ele><time>2026-04-19T06:36:41Z</time></trkpt><trkpt lat="42.30719705290728" lon="14.05539363983955"><ele>61.5</ele><time>2026-04-19T06:36:42Z</time></trkpt><trkpt lat="42.306953722893255" lon="14.055249805040654"><ele>61.0</ele><time>2026-04-19T06:36:43Z</time></trkpt><trkpt lat="42.30671607377772" lon="14.055109245139443"><ele>61.0</ele><time>2026-04-19T06:36:44Z</time></trkpt><trkpt lat="42.306479923190594" lon="14.054971092091122"><ele>61.0</ele><time>2026-04-19T06:36:45Z</time></trkpt><trkpt lat="42.30624724093296" lon="14.054837761921368"><ele>62.0</ele><time>2026-04-19T06:36:46Z</time></trkpt><trkpt lat="42.3060215002943" lon="14.054710186791267"><ele>63.0</ele><time>2026-04-19T06:36:47Z</time></trkpt><trkpt lat="42.30580874233257" lon="14.054587536383018"><ele>63.0</ele><time>2026-04-19T06:36:48Z</time></trkpt><trkpt lat="42.30561444376944" lon="14.054471665333805"><ele>63.0</ele><time>2026-04-19T06:36:49Z</time></trkpt><trkpt lat="42.30542977251036" lon="14.054360366697226"><ele>63.0</ele><time>2026-04-19T06:36:50Z</time></trkpt><trkpt lat="42.30525599154871" lon="14.05425720104553"><ele>62.33333333333333</ele><time>2026-04-19T06:36:51Z</time></trkpt><trkpt lat="42.305095972729056" lon="14.054158652773665"><ele>61.666666666666664</ele><time>2026-04-19T06:36:52Z</time></trkpt><trkpt lat="42.30493932873414" lon="14.054055523030042"><ele>61.0</ele><time>2026-04-19T06:36:53Z</time></trkpt><trkpt lat="42.30480182066212" lon="14.053955742406984"><ele>61.0</ele><time>2026-04-19T06:36:54Z</time></trkpt><trkpt lat="42.30468653323369" lon="14.053857652871944"><ele>60.99999999999999</ele><time>2026-04-19T06:36:55Z</time></trkpt><trkpt lat="42.3045923097684" lon="14.05376591248517"><ele>60.99999999999999</ele><time>2026-04-19T06:36:56Z</time></trkpt><trkpt lat="42.30451968218584" lon="14.053689706562723"><ele>61.0</ele><time>2026-04-19T06:36:57Z</time></trkpt><trkpt lat="42.30446718384986" lon="14.05363369824451"><ele>61.0</ele><time>2026-04-19T06:36:58Z</time></trkpt><trkpt lat="42.304387985750274" lon="14.053559469809375"><ele>60.99999999999999</ele><time>2026-04-19T06:37:00Z</time></trkpt><trkpt lat="42.304294719136884" lon="14.053482428703692"><ele>61.0</ele><time>2026-04-19T06:37:06Z</time></trkpt><trkpt lat="42.30424251208756" lon="14.053430754753904"><ele>61.0</ele><time>2026-04-19T06:37:07Z</time></trkpt><trkpt lat="42.3041931101639" lon="14.053373707496391"><ele>61.0</ele><time>2026-04-19T06:37:08Z</time></trkpt><trkpt lat="42.30413854573932" lon="14.053313724574435"><ele>60.99999999999999</ele><time>2026-04-19T06:37:09Z</time></trkpt><trkpt lat="42.304080426244404" lon="14.053247670120403"><ele>61.0</ele><time>2026-04-19T06:37:10Z</time></trkpt><trkpt lat="42.3040171502067" lon="14.05317131432331"><ele>61.25</ele><time>2026-04-19T06:37:11Z</time></trkpt><trkpt lat="42.3039437597176" lon="14.053078776314878"><ele>61.5</ele><time>2026-04-19T06:37:12Z</time></trkpt><trkpt lat="42.30387014910791" lon="14.052953487681203"><ele>61.75</ele><time>2026-04-19T06:37:13Z</time></trkpt><trkpt lat="42.30380833477888" lon="14.052804907725328"><ele>62.0</ele><time>2026-04-19T06:37:14Z</time></trkpt><trkpt lat="42.30373855750743" lon="14.052650774480052"><ele>62.0</ele><time>2026-04-19T06:37:15Z</time></trkpt><trkpt lat="42.30366310991416" lon="14.052491669534714"><ele>62.0</ele><time>2026-04-19T06:37:16Z</time></trkpt><trkpt lat="42.30358286062627" lon="14.05233109167001"><ele>62.0</ele><time>2026-04-19T06:37:17Z</time></trkpt><trkpt lat="42.30349893516712" lon="14.052146085193082"><ele>62.0</ele><time>2026-04-19T06:37:18Z</time></trkpt><trkpt lat="42.303421433512945" lon="14.05195531216467"><ele>62.0</ele><time>2026-04-19T06:37:19Z</time></trkpt><trkpt lat="42.30330162288051" lon="14.051738804978116"><ele>62.0</ele><time>2026-04-19T06:37:20Z</time></trkpt><trkpt lat="42.30318088726994" lon="14.051478245433458"><ele>62.0</ele><time>2026-04-19T06:37:21Z</time></trkpt><trkpt lat="42.30306086006704" lon="14.05122084988676"><ele>62.0</ele><time>2026-04-19T06:37:22Z</time></trkpt><trkpt lat="42.302944716056935" lon="14.050998312945593"><ele>62.0</ele><time>2026-04-19T06:37:23Z</time></trkpt><trkpt lat="42.302837629801324" lon="14.05077249972811"><ele>62.0</ele><time>2026-04-19T06:37:24Z</time></trkpt><trkpt lat="42.30272538641387" lon="14.050548165280508"><ele>62.0</ele><time>2026-04-19T06:37:25Z</time></trkpt><trkpt lat="42.302615741129216" lon="14.050307495705797"><ele>62.0</ele><time>2026-04-19T06:37:26Z</time></trkpt><trkpt lat="42.30249255964646" lon="14.050060795757132"><ele>62.0</ele><time>2026-04-19T06:37:27Z</time></trkpt><trkpt lat="42.30237037278595" lon="14.049812063920866"><ele>62.0</ele><time>2026-04-19T06:37:28Z</time></trkpt><trkpt lat="42.30225527159205" lon="14.0495682675328"><ele>62.0</ele><time>2026-04-19T06:37:29Z</time></trkpt><trkpt lat="42.30213780522848" lon="14.049325632337684"><ele>62.0</ele><time>2026-04-19T06:37:30Z</time></trkpt><trkpt lat="42.30203070992841" lon="14.049102887654836"><ele>62.0</ele><time>2026-04-19T06:37:31Z</time></trkpt><trkpt lat="42.301929717935" lon="14.048899410641692"><ele>62.0</ele><time>2026-04-19T06:37:32Z</time></trkpt><trkpt lat="42.30183164508673" lon="14.048700908544777"><ele>62.0</ele><time>2026-04-19T06:37:33Z</time></trkpt><trkpt lat="42.30173543585516" lon="14.048496210257632"><ele>62.0</ele><time>2026-04-19T06:37:34Z</time></trkpt><trkpt lat="42.30163920560113" lon="14.048294809843112"><ele>62.0</ele><time>2026-04-19T06:37:35Z</time></trkpt><trkpt lat="42.30153801489022" lon="14.048091960785031"><ele>62.0</ele><time>2026-04-19T06:37:36Z</time></trkpt><trkpt lat="42.30145758235355" lon="14.047883926112315"><ele>62.0</ele><time>2026-04-19T06:37:37Z</time></trkpt><trkpt lat="42.30137313623385" lon="14.047709812063053"><ele>62.0</ele><time>2026-04-19T06:37:38Z</time></trkpt><trkpt lat="42.301290884811216" lon="14.047542523278523"><ele>62.0</ele><time>2026-04-19T06:37:39Z</time></trkpt><trkpt lat="42.30121603255954" lon="14.047397343668125"><ele>62.0</ele><time>2026-04-19T06:37:40Z</time></trkpt><trkpt lat="42.30114144550862" lon="14.04727120681461"><ele>61.75</ele><time>2026-04-19T06:37:41Z</time></trkpt><trkpt lat="42.30108010729115" lon="14.047125221082197"><ele>61.5</ele><time>2026-04-19T06:37:42Z</time></trkpt><trkpt lat="42.30111166924893" lon="14.046945188690925"><ele>61.25</ele><time>2026-04-19T06:37:43Z</time></trkpt><trkpt lat="42.301144932991946" lon="14.046782064915996"><ele>61.0</ele><time>2026-04-19T06:37:44Z</time></trkpt><trkpt lat="42.301087489801915" lon="14.046612848950591"><ele>61.0</ele><time>2026-04-19T06:37:45Z</time></trkpt><trkpt lat="42.30112035839591" lon="14.046376848684066"><ele>61.0</ele><time>2026-04-19T06:37:46Z</time></trkpt><trkpt lat="42.301185694532315" lon="14.046096280945962"><ele>61.0</ele><time>2026-04-19T06:37:47Z</time></trkpt><trkpt lat="42.301244672136534" lon="14.045785659158902"><ele>61.5</ele><time>2026-04-19T06:37:48Z</time></trkpt><trkpt lat="42.30130932952706" lon="14.045438295317851"><ele>62.0</ele><time>2026-04-19T06:37:49Z</time></trkpt><trkpt lat="42.301387344204926" lon="14.045096023464875"><ele>62.5</ele><time>2026-04-19T06:37:50Z</time></trkpt><trkpt lat="42.30145550275364" lon="14.044722978215425"><ele>63.0</ele><time>2026-04-19T06:37:51Z</time></trkpt><trkpt lat="42.30153077454114" lon="14.044343941466467"><ele>64.0</ele><time>2026-04-19T06:37:52Z</time></trkpt><trkpt lat="42.3016077599581" lon="14.043968231201193"><ele>65.0</ele><time>2026-04-19T06:37:53Z</time></trkpt><trkpt lat="42.30168006498164" lon="14.043607578128434"><ele>66.0</ele><time>2026-04-19T06:37:54Z</time></trkpt><trkpt lat="42.301745906360416" lon="14.043267881733076"><ele>67.0</ele><time>2026-04-19T06:37:54.999Z</time></trkpt><trkpt lat="42.30181722125856" lon="14.042935133438688"><ele>67.0</ele><time>2026-04-19T06:37:55.999Z</time></trkpt><trkpt lat="42.301886698081084" lon="14.042590904187586"><ele>67.0</ele><time>2026-04-19T06:37:56.999Z</time></trkpt><trkpt lat="42.30195155313515" lon="14.04223821626077"><ele>67.5</ele><time>2026-04-19T06:37:57.999Z</time></trkpt><trkpt lat="42.3020409448471" lon="14.041885811802741"><ele>68.0</ele><time>2026-04-19T06:37:58.999Z</time></trkpt><trkpt lat="42.3021176805846" lon="14.041506044511973"><ele>67.0</ele><time>2026-04-19T06:37:59.999Z</time></trkpt><trkpt lat="42.302193633592694" lon="14.041121551854484"><ele>66.0</ele><time>2026-04-19T06:38:00.999Z</time></trkpt><trkpt lat="42.30226429441486" lon="14.04077280177532"><ele>66.0</ele><time>2026-04-19T06:38:01.999Z</time></trkpt><trkpt lat="42.30232829301053" lon="14.040459188394284"><ele>66.0</ele><time>2026-04-19T06:38:02.999Z</time></trkpt><trkpt lat="42.30237309005172" lon="14.040163091402313"><ele>65.66666666666667</ele><time>2026-04-19T06:38:03.999Z</time></trkpt><trkpt lat="42.30243502999295" lon="14.039886614003525"><ele>65.33333333333334</ele><time>2026-04-19T06:38:04.999Z</time></trkpt><trkpt lat="42.30248417115108" lon="14.039631887566703"><ele>65.0</ele><time>2026-04-19T06:38:05.999Z</time></trkpt><trkpt lat="42.30252993298646" lon="14.03938980198992"><ele>65.0</ele><time>2026-04-19T06:38:06.999Z</time></trkpt><trkpt lat="42.30257876137049" lon="14.039158496275016"><ele>65.0</ele><time>2026-04-19T06:38:07.999Z</time></trkpt><trkpt lat="42.302638794744986" lon="14.03891804109665"><ele>65.0</ele><time>2026-04-19T06:38:08.999Z</time></trkpt><trkpt lat="42.30268892393251" lon="14.038663977261342"><ele>65.0</ele><time>2026-04-19T06:38:09.999Z</time></trkpt><trkpt lat="42.302741866551756" lon="14.03839844115155"><ele>65.0</ele><time>2026-04-19T06:38:10.999Z</time></trkpt><trkpt lat="42.30280577631829" lon="14.038088881795474"><ele>65.0</ele><time>2026-04-19T06:38:11.999Z</time></trkpt><trkpt lat="42.30287260709226" lon="14.037767281201129"><ele>65.0</ele><time>2026-04-19T06:38:12.999Z</time></trkpt><trkpt lat="42.30294345466561" lon="14.037408981984173"><ele>65.0</ele><time>2026-04-19T06:38:13.999Z</time></trkpt><trkpt lat="42.303014297978386" lon="14.037046101320515"><ele>66.5</ele><time>2026-04-19T06:38:14.999Z</time></trkpt><trkpt lat="42.303087842671346" lon="14.036680614825807"><ele>68.0</ele><time>2026-04-19T06:38:15.999Z</time></trkpt><trkpt lat="42.30315650140317" lon="14.036353860831744"><ele>69.5</ele><time>2026-04-19T06:38:16.999Z</time></trkpt><trkpt lat="42.30321801163731" lon="14.036049416138207"><ele>71.0</ele><time>2026-04-19T06:38:17.999Z</time></trkpt><trkpt lat="42.303274706077964" lon="14.035765029514955"><ele>72.66666666666667</ele><time>2026-04-19T06:38:18.999Z</time></trkpt><trkpt lat="42.30333149520594" lon="14.035504133942176"><ele>74.33333333333333</ele><time>2026-04-19T06:38:19.999Z</time></trkpt><trkpt lat="42.30338680246894" lon="14.03524158079228"><ele>76.0</ele><time>2026-04-19T06:38:20.999Z</time></trkpt><trkpt lat="42.30343227466439" lon="14.035000990804955"><ele>76.33333333333333</ele><time>2026-04-19T06:38:21.999Z</time></trkpt><trkpt lat="42.303466368520624" lon="14.034776386918685"><ele>76.66666666666667</ele><time>2026-04-19T06:38:22.999Z</time></trkpt><trkpt lat="42.30345944055475" lon="14.034578106160561"><ele>77.0</ele><time>2026-04-19T06:38:23.999Z</time></trkpt><trkpt lat="42.30345119014719" lon="14.034382364963632"><ele>77.0</ele><time>2026-04-19T06:38:24.999Z</time></trkpt><trkpt lat="42.30338198187464" lon="14.034176223955962"><ele>77.0</ele><time>2026-04-19T06:38:25.999Z</time></trkpt><trkpt lat="42.30328527620758" lon="14.033968115933368"><ele>77.0</ele><time>2026-04-19T06:38:26.999Z</time></trkpt><trkpt lat="42.30315767958894" lon="14.033803644597212"><ele>75.66666666666667</ele><time>2026-04-19T06:38:27.999Z</time></trkpt><trkpt lat="42.30302529287714" lon="14.033678293699957"><ele>74.33333333333333</ele><time>2026-04-19T06:38:28.999Z</time></trkpt><trkpt lat="42.30291788854457" lon="14.03351992414281"><ele>73.0</ele><time>2026-04-19T06:38:29.999Z</time></trkpt><trkpt lat="42.30282886035393" lon="14.033348315782336"><ele>74.33333333333333</ele><time>2026-04-19T06:38:30.999Z</time></trkpt><trkpt lat="42.30276631030161" lon="14.033134887892171"><ele>75.66666666666667</ele><time>2026-04-19T06:38:31.999Z</time></trkpt><trkpt lat="42.30273516194675" lon="14.032924216279353"><ele>77.0</ele><time>2026-04-19T06:38:32.999Z</time></trkpt><trkpt lat="42.302737914082776" lon="14.032696802010092"><ele>78.66666666666667</ele><time>2026-04-19T06:38:33.999Z</time></trkpt><trkpt lat="42.3027591060124" lon="14.032465284391025"><ele>80.33333333333333</ele><time>2026-04-19T06:38:34.999Z</time></trkpt><trkpt lat="42.302844302015465" lon="14.032288058740027"><ele>82.0</ele><time>2026-04-19T06:38:35.999Z</time></trkpt><trkpt lat="42.302927165418765" lon="14.032137308875864"><ele>82.0</ele><time>2026-04-19T06:38:36.999Z</time></trkpt><trkpt lat="42.30299872947381" lon="14.031990567805313"><ele>82.0</ele><time>2026-04-19T06:38:37.999Z</time></trkpt><trkpt lat="42.30308503782829" lon="14.031893976354072"><ele>82.0</ele><time>2026-04-19T06:38:38.999Z</time></trkpt><trkpt lat="42.30316010023838" lon="14.031822661114857"><ele>82.0</ele><time>2026-04-19T06:38:39.999Z</time></trkpt><trkpt lat="42.30321792931615" lon="14.031764241407732"><ele>82.0</ele><time>2026-04-19T06:38:40.999Z</time></trkpt><trkpt lat="42.30322268575798" lon="14.031676257349586"><ele>81.5</ele><time>2026-04-19T06:38:44Z</time></trkpt><trkpt lat="42.30314887612045" lon="14.031542993047243"><ele>81.0</ele><time>2026-04-19T06:38:46Z</time></trkpt><trkpt lat="42.30307367491597" lon="14.031467854453897"><ele>80.5</ele><time>2026-04-19T06:38:47Z</time></trkpt><trkpt lat="42.30296410836485" lon="14.031373407841064"><ele>80.0</ele><time>2026-04-19T06:38:48Z</time></trkpt><trkpt lat="42.302835455555545" lon="14.031258738512808"><ele>80.0</ele><time>2026-04-19T06:38:49Z</time></trkpt><trkpt lat="42.30268678988591" lon="14.03111803602757"><ele>80.0</ele><time>2026-04-19T06:38:50Z</time></trkpt><trkpt lat="42.302540415518244" lon="14.030966271057583"><ele>80.0</ele><time>2026-04-19T06:38:51Z</time></trkpt><trkpt lat="42.302410256343016" lon="14.030820725875673"><ele>79.66666666666667</ele><time>2026-04-19T06:38:52Z</time></trkpt><trkpt lat="42.30229888532566" lon="14.030674914767113"><ele>79.33333333333333</ele><time>2026-04-19T06:38:53Z</time></trkpt><trkpt lat="42.3021825621004" lon="14.030490022322159"><ele>79.0</ele><time>2026-04-19T06:38:54Z</time></trkpt><trkpt lat="42.302073117080695" lon="14.030256727849215"><ele>78.66666666666666</ele><time>2026-04-19T06:38:55Z</time></trkpt><trkpt lat="42.30198454492224" lon="14.029997429155989"><ele>78.33333333333333</ele><time>2026-04-19T06:38:56Z</time></trkpt><trkpt lat="42.30190657445163" lon="14.029730318027807"><ele>78.0</ele><time>2026-04-19T06:38:57Z</time></trkpt><trkpt lat="42.30182125681464" lon="14.029472270504185"><ele>78.0</ele><time>2026-04-19T06:38:58Z</time></trkpt><trkpt lat="42.30173715932398" lon="14.029228077084626"><ele>78.0</ele><time>2026-04-19T06:38:59Z</time></trkpt><trkpt lat="42.301663352355256" lon="14.029018736096555"><ele>78.0</ele><time>2026-04-19T06:39:00Z</time></trkpt><trkpt lat="42.301597538109064" lon="14.028805615305789"><ele>78.0</ele><time>2026-04-19T06:39:01Z</time></trkpt><trkpt lat="42.30151902245069" lon="14.028623292798478"><ele>78.0</ele><time>2026-04-19T06:39:02Z</time></trkpt><trkpt lat="42.30140754051297" lon="14.028462580579246"><ele>78.0</ele><time>2026-04-19T06:39:03Z</time></trkpt><trkpt lat="42.301267392639446" lon="14.028305235945172"><ele>80.33333333333333</ele><time>2026-04-19T06:39:04Z</time></trkpt><trkpt lat="42.30109655044813" lon="14.028167485647996"><ele>82.66666666666666</ele><time>2026-04-19T06:39:05Z</time></trkpt><trkpt lat="42.300916552177775" lon="14.028066058920222"><ele>85.0</ele><time>2026-04-19T06:39:06Z</time></trkpt><trkpt lat="42.30072815833166" lon="14.027982415703281"><ele>82.66666666666666</ele><time>2026-04-19T06:39:07Z</time></trkpt><trkpt lat="42.30055184642033" lon="14.027888408067502"><ele>80.33333333333333</ele><time>2026-04-19T06:39:08Z</time></trkpt><trkpt lat="42.30040746467365" lon="14.027793012442723"><ele>78.0</ele><time>2026-04-19T06:39:09Z</time></trkpt><trkpt lat="42.30029157851638" lon="14.027692765426195"><ele>78.0</ele><time>2026-04-19T06:39:10Z</time></trkpt><trkpt lat="42.30022057181595" lon="14.027577844236548"><ele>78.0</ele><time>2026-04-19T06:39:11Z</time></trkpt><trkpt lat="42.300184519946356" lon="14.027435186407013"><ele>78.0</ele><time>2026-04-19T06:39:12Z</time></trkpt><trkpt lat="42.30017574432667" lon="14.027264788524384"><ele>78.0</ele><time>2026-04-19T06:39:13Z</time></trkpt><trkpt lat="42.300194914573005" lon="14.027056731897867"><ele>77.66666666666667</ele><time>2026-04-19T06:39:14Z</time></trkpt><trkpt lat="42.30022181618768" lon="14.026813123721118"><ele>77.33333333333334</ele><time>2026-04-19T06:39:15Z</time></trkpt><trkpt lat="42.300240155710725" lon="14.026565404927576"><ele>77.0</ele><time>2026-04-19T06:39:16Z</time></trkpt><trkpt lat="42.30023571048137" lon="14.026330992139535"><ele>79.0</ele><time>2026-04-19T06:39:17Z</time></trkpt><trkpt lat="42.30020606860491" lon="14.02614382614398"><ele>81.0</ele><time>2026-04-19T06:39:18Z</time></trkpt><trkpt lat="42.30013174129228" lon="14.025936546716398"><ele>83.0</ele><time>2026-04-19T06:39:19Z</time></trkpt><trkpt lat="42.30002713211744" lon="14.025694794071919"><ele>84.66666666666667</ele><time>2026-04-19T06:39:20Z</time></trkpt><trkpt lat="42.29993786093715" lon="14.02543114990011"><ele>86.33333333333333</ele><time>2026-04-19T06:39:21Z</time></trkpt><trkpt lat="42.29987749938502" lon="14.025178332810087"><ele>88.0</ele><time>2026-04-19T06:39:22Z</time></trkpt><trkpt lat="42.29981644640927" lon="14.02494900696137"><ele>87.33333333333333</ele><time>2026-04-19T06:39:23Z</time></trkpt><trkpt lat="42.299726874719646" lon="14.024720140561147"><ele>86.66666666666667</ele><time>2026-04-19T06:39:24Z</time></trkpt><trkpt lat="42.29960707327921" lon="14.024491469868654"><ele>86.0</ele><time>2026-04-19T06:39:25Z</time></trkpt><trkpt lat="42.29947359170529" lon="14.02431343632419"><ele>86.0</ele><time>2026-04-19T06:39:26Z</time></trkpt><trkpt lat="42.29935321335079" lon="14.02419667998889"><ele>86.0</ele><time>2026-04-19T06:39:27Z</time></trkpt><trkpt lat="42.299229945331525" lon="14.024104468923296"><ele>86.0</ele><time>2026-04-19T06:39:28Z</time></trkpt><trkpt lat="42.29909541336888" lon="14.024079352361202"><ele>86.0</ele><time>2026-04-19T06:39:29Z</time></trkpt><trkpt lat="42.298934077481896" lon="14.024065745550843"><ele>87.33333333333334</ele><time>2026-04-19T06:39:30Z</time></trkpt><trkpt lat="42.29876331164733" lon="14.024079906148783"><ele>88.66666666666667</ele><time>2026-04-19T06:39:31Z</time></trkpt><trkpt lat="42.29860419302468" lon="14.024092221439247"><ele>90.0</ele><time>2026-04-19T06:39:32Z</time></trkpt><trkpt lat="42.29845886998761" lon="14.024093783230244"><ele>90.0</ele><time>2026-04-19T06:39:33Z</time></trkpt><trkpt lat="42.29831284139679" lon="14.024070359477719"><ele>90.0</ele><time>2026-04-19T06:39:34Z</time></trkpt><trkpt lat="42.298172372352404" lon="14.024015853951049"><ele>90.0</ele><time>2026-04-19T06:39:35Z</time></trkpt><trkpt lat="42.29806231838306" lon="14.023927609946888"><ele>90.0</ele><time>2026-04-19T06:39:36Z</time></trkpt><trkpt lat="42.297979159353474" lon="14.023763108256864"><ele>88.66666666666667</ele><time>2026-04-19T06:39:37Z</time></trkpt><trkpt lat="42.29787018084074" lon="14.023589015669408"><ele>87.33333333333334</ele><time>2026-04-19T06:39:38Z</time></trkpt><trkpt lat="42.29775572223599" lon="14.023409968088828"><ele>86.0</ele><time>2026-04-19T06:39:39Z</time></trkpt><trkpt lat="42.297621442584195" lon="14.023267789247772"><ele>89.33333333333334</ele><time>2026-04-19T06:39:40Z</time></trkpt><trkpt lat="42.29749753416574" lon="14.023123608438933"><ele>92.66666666666667</ele><time>2026-04-19T06:39:41Z</time></trkpt><trkpt lat="42.29736550931422" lon="14.022991588904782"><ele>96.0</ele><time>2026-04-19T06:39:42Z</time></trkpt><trkpt lat="42.29720539759744" lon="14.022935300419029"><ele>96.0</ele><time>2026-04-19T06:39:43Z</time></trkpt><trkpt lat="42.29704586093724" lon="14.022882771263603"><ele>96.0</ele><time>2026-04-19T06:39:44Z</time></trkpt><trkpt lat="42.296913393341185" lon="14.022802528563053"><ele>96.0</ele><time>2026-04-19T06:39:45Z</time></trkpt><trkpt lat="42.296794527090334" lon="14.02270899132941"><ele>96.0</ele><time>2026-04-19T06:39:46Z</time></trkpt><trkpt lat="42.29666400337174" lon="14.022582441032519"><ele>96.33333333333334</ele><time>2026-04-19T06:39:47Z</time></trkpt><trkpt lat="42.29653326948939" lon="14.022437903730022"><ele>96.66666666666667</ele><time>2026-04-19T06:39:48Z</time></trkpt><trkpt lat="42.29640193337846" lon="14.022294055140714"><ele>97.0</ele><time>2026-04-19T06:39:49Z</time></trkpt><trkpt lat="42.29627626917416" lon="14.02215950394581"><ele>97.0</ele><time>2026-04-19T06:39:50Z</time></trkpt><trkpt lat="42.29615230119543" lon="14.022026768923016"><ele>97.0</ele><time>2026-04-19T06:39:51Z</time></trkpt><trkpt lat="42.29602929181364" lon="14.021895060296059"><ele>97.0</ele><time>2026-04-19T06:39:52Z</time></trkpt><trkpt lat="42.29590594551327" lon="14.021762990924216"><ele>97.66666666666667</ele><time>2026-04-19T06:39:53Z</time></trkpt><trkpt lat="42.29578082283809" lon="14.021625976199433"><ele>98.33333333333334</ele><time>2026-04-19T06:39:54Z</time></trkpt><trkpt lat="42.29565098075948" lon="14.02147976720181"><ele>99.0</ele><time>2026-04-19T06:39:55Z</time></trkpt><trkpt lat="42.29552598044211" lon="14.021339010285047"><ele>99.0</ele><time>2026-04-19T06:39:56Z</time></trkpt><trkpt lat="42.2953956463502" lon="14.021189828080264"><ele>99.0</ele><time>2026-04-19T06:39:57Z</time></trkpt><trkpt lat="42.29526232385655" lon="14.021052097439652"><ele>99.0</ele><time>2026-04-19T06:39:58Z</time></trkpt><trkpt lat="42.29513625646279" lon="14.020897256910398"><ele>103.0</ele><time>2026-04-19T06:39:59Z</time></trkpt><trkpt lat="42.29503170261812" lon="14.020709231404624"><ele>107.0</ele><time>2026-04-19T06:40:00Z</time></trkpt><trkpt lat="42.29493067595309" lon="14.020523490843638"><ele>111.0</ele><time>2026-04-19T06:40:01Z</time></trkpt><trkpt lat="42.294832079003015" lon="14.020342051997892"><ele>111.33333333333334</ele><time>2026-04-19T06:40:01.999Z</time></trkpt><trkpt lat="42.294716730978735" lon="14.02017471153779"><ele>111.66666666666667</ele><time>2026-04-19T06:40:02.999Z</time></trkpt><trkpt lat="42.29458844945206" lon="14.020024973184967"><ele>112.0</ele><time>2026-04-19T06:40:03.999Z</time></trkpt><trkpt lat="42.294456101544746" lon="14.019889127380047"><ele>112.0</ele><time>2026-04-19T06:40:04.999Z</time></trkpt><trkpt lat="42.294298981415345" lon="14.019785954613221"><ele>112.0</ele><time>2026-04-19T06:40:05.999Z</time></trkpt><trkpt lat="42.29412629433465" lon="14.01968431725452"><ele>112.0</ele><time>2026-04-19T06:40:06.999Z</time></trkpt><trkpt lat="42.29396577354806" lon="14.019603054303479"><ele>111.66666666666667</ele><time>2026-04-19T06:40:07.999Z</time></trkpt><trkpt lat="42.29380122090217" lon="14.019568113993559"><ele>111.33333333333334</ele><time>2026-04-19T06:40:08.999Z</time></trkpt><trkpt lat="42.29363427747267" lon="14.019536611801014"><ele>111.0</ele><time>2026-04-19T06:40:09.999Z</time></trkpt><trkpt lat="42.293473633831596" lon="14.019535415971522"><ele>111.0</ele><time>2026-04-19T06:40:10.999Z</time></trkpt><trkpt lat="42.29333002518395" lon="14.01953195426047"><ele>111.0</ele><time>2026-04-19T06:40:11.999Z</time></trkpt><trkpt lat="42.29320050291111" lon="14.019512780273846"><ele>111.0</ele><time>2026-04-19T06:40:12.999Z</time></trkpt><trkpt lat="42.29307809045371" lon="14.019429592019831"><ele>111.0</ele><time>2026-04-19T06:40:13.999Z</time></trkpt><trkpt lat="42.29294800757286" lon="14.019343627758712"><ele>110.75</ele><time>2026-04-19T06:40:14.999Z</time></trkpt><trkpt lat="42.292823098256356" lon="14.01924528784907"><ele>110.5</ele><time>2026-04-19T06:40:15.999Z</time></trkpt><trkpt lat="42.29272307510174" lon="14.019153046843739"><ele>110.25</ele><time>2026-04-19T06:40:16.999Z</time></trkpt><trkpt lat="42.29265108440716" lon="14.019055390941807"><ele>110.0</ele><time>2026-04-19T06:40:17.999Z</time></trkpt><trkpt lat="42.29259656820105" lon="14.018967615396805"><ele>111.6</ele><time>2026-04-19T06:40:18.999Z</time></trkpt><trkpt lat="42.292591998761544" lon="14.018860521002578"><ele>113.2</ele><time>2026-04-19T06:40:19.999Z</time></trkpt><trkpt lat="42.29262912303641" lon="14.018777135929017"><ele>114.80000000000001</ele><time>2026-04-19T06:40:20.999Z</time></trkpt><trkpt lat="42.29268853622903" lon="14.018704977171076"><ele>116.4</ele><time>2026-04-19T06:40:21.999Z</time></trkpt><trkpt lat="42.292781718094204" lon="14.018662514036503"><ele>118.0</ele><time>2026-04-19T06:40:22.999Z</time></trkpt><trkpt lat="42.2929161847874" lon="14.018657569250715"><ele>118.0</ele><time>2026-04-19T06:40:23.999Z</time></trkpt><trkpt lat="42.29307983984985" lon="14.018676560103826"><ele>118.0</ele><time>2026-04-19T06:40:24.999Z</time></trkpt><trkpt lat="42.293250807075616" lon="14.01868039532466"><ele>118.0</ele><time>2026-04-19T06:40:25.999Z</time></trkpt><trkpt lat="42.29341798463955" lon="14.0186853904127"><ele>118.5</ele><time>2026-04-19T06:40:26.999Z</time></trkpt><trkpt lat="42.2935718926431" lon="14.018666633202432"><ele>119.0</ele><time>2026-04-19T06:40:27.999Z</time></trkpt><trkpt lat="42.29370936698342" lon="14.018646699565522"><ele>119.5</ele><time>2026-04-19T06:40:28.999Z</time></trkpt><trkpt lat="42.29383723139168" lon="14.018587615129242"><ele>120.0</ele><time>2026-04-19T06:40:29.999Z</time></trkpt><trkpt lat="42.29395469305669" lon="14.01848732521476"><ele>120.0</ele><time>2026-04-19T06:40:30.999Z</time></trkpt><trkpt lat="42.294061277983054" lon="14.018352169094682"><ele>120.0</ele><time>2026-04-19T06:40:31.999Z</time></trkpt><trkpt lat="42.2941541786572" lon="14.018191161809687"><ele>120.0</ele><time>2026-04-19T06:40:32.999Z</time></trkpt><trkpt lat="42.29422070820841" lon="14.018018304503343"><ele>120.0</ele><time>2026-04-19T06:40:33.999Z</time></trkpt><trkpt lat="42.29425567554435" lon="14.017816056185557"><ele>120.0</ele><time>2026-04-19T06:40:34.999Z</time></trkpt><trkpt lat="42.29426712093069" lon="14.01758777902366"><ele>120.0</ele><time>2026-04-19T06:40:35.999Z</time></trkpt><trkpt lat="42.29427443692771" lon="14.017350584489327"><ele>120.0</ele><time>2026-04-19T06:40:36.999Z</time></trkpt><trkpt lat="42.29427546211567" lon="14.017104924364792"><ele>120.0</ele><time>2026-04-19T06:40:37.999Z</time></trkpt><trkpt lat="42.294271344482866" lon="14.016870534008094"><ele>120.0</ele><time>2026-04-19T06:40:38.999Z</time></trkpt><trkpt lat="42.29425785327845" lon="14.01664931904171"><ele>120.0</ele><time>2026-04-19T06:40:39.999Z</time></trkpt><trkpt lat="42.294229717417544" lon="14.016434223632977"><ele>119.5</ele><time>2026-04-19T06:40:40.999Z</time></trkpt><trkpt lat="42.294190137859545" lon="14.016226869540217"><ele>119.0</ele><time>2026-04-19T06:40:41.999Z</time></trkpt><trkpt lat="42.294136266044816" lon="14.016033871406608"><ele>118.5</ele><time>2026-04-19T06:40:42.999Z</time></trkpt><trkpt lat="42.29407739573581" lon="14.015874929729577"><ele>118.0</ele><time>2026-04-19T06:40:43.999Z</time></trkpt><trkpt lat="42.29400456050295" lon="14.015700820979662"><ele>117.33333333333334</ele><time>2026-04-19T06:40:44.999Z</time></trkpt><trkpt lat="42.29391517080683" lon="14.0155097122875"><ele>116.66666666666666</ele><time>2026-04-19T06:40:45.999Z</time></trkpt><trkpt lat="42.29381535335589" lon="14.015300620036497"><ele>116.0</ele><time>2026-04-19T06:40:46.999Z</time></trkpt><trkpt lat="42.29371803429125" lon="14.015088105060004"><ele>115.33333333333333</ele><time>2026-04-19T06:40:47.999Z</time></trkpt><trkpt lat="42.29362379669107" lon="14.014878859918262"><ele>114.66666666666666</ele><time>2026-04-19T06:40:49Z</time></trkpt><trkpt lat="42.2935331181523" lon="14.014684057023233"><ele>114.0</ele><time>2026-04-19T06:40:50Z</time></trkpt><trkpt lat="42.29344236890656" lon="14.014491446034103"><ele>114.0</ele><time>2026-04-19T06:40:51Z</time></trkpt><trkpt lat="42.29334878483444" lon="14.014297220578756"><ele>114.0</ele><time>2026-04-19T06:40:52Z</time></trkpt><trkpt lat="42.293253504538846" lon="14.014101417158328"><ele>114.0</ele><time>2026-04-19T06:40:53Z</time></trkpt><trkpt lat="42.29315815014515" lon="14.013909113870998"><ele>113.0</ele><time>2026-04-19T06:40:54Z</time></trkpt><trkpt lat="42.29306762581826" lon="14.013719647170616"><ele>112.0</ele><time>2026-04-19T06:40:55Z</time></trkpt><trkpt lat="42.292981553567536" lon="14.013521969551517"><ele>111.0</ele><time>2026-04-19T06:40:56Z</time></trkpt><trkpt lat="42.292884337032966" lon="14.01332533891873"><ele>110.66666666666666</ele><time>2026-04-19T06:40:57Z</time></trkpt><trkpt lat="42.29279112330742" lon="14.013122740956502"><ele>110.33333333333333</ele><time>2026-04-19T06:40:58Z</time></trkpt><trkpt lat="42.29269402582093" lon="14.012921736099335"><ele>110.0</ele><time>2026-04-19T06:40:59Z</time></trkpt><trkpt lat="42.292597741491214" lon="14.012726102244663"><ele>110.0</ele><time>2026-04-19T06:41:00Z</time></trkpt><trkpt lat="42.29250274332408" lon="14.012522969206058"><ele>110.0</ele><time>2026-04-19T06:41:01Z</time></trkpt><trkpt lat="42.29240940622194" lon="14.012329659611416"><ele>110.0</ele><time>2026-04-19T06:41:02Z</time></trkpt><trkpt lat="42.29232583290775" lon="14.01215225799913"><ele>109.75</ele><time>2026-04-19T06:41:03Z</time></trkpt><trkpt lat="42.29224720236755" lon="14.011987799677659"><ele>109.5</ele><time>2026-04-19T06:41:04Z</time></trkpt><trkpt lat="42.292174377347735" lon="14.011839100781135"><ele>109.25</ele><time>2026-04-19T06:41:05Z</time></trkpt><trkpt lat="42.29209863764551" lon="14.011686681817737"><ele>109.0</ele><time>2026-04-19T06:41:06Z</time></trkpt><trkpt lat="42.29201832059085" lon="14.011522518007558"><ele>108.66666666666667</ele><time>2026-04-19T06:41:07Z</time></trkpt><trkpt lat="42.291949598224235" lon="14.01134028902084"><ele>108.33333333333334</ele><time>2026-04-19T06:41:08Z</time></trkpt><trkpt lat="42.29186632867795" lon="14.01116422870404"><ele>108.0</ele><time>2026-04-19T06:41:09Z</time></trkpt><trkpt lat="42.2917751921582" lon="14.011010730823905"><ele>108.0</ele><time>2026-04-19T06:41:10Z</time></trkpt><trkpt lat="42.29170357318378" lon="14.010849206865283"><ele>108.0</ele><time>2026-04-19T06:41:11Z</time></trkpt><trkpt lat="42.29162299727171" lon="14.010683421479309"><ele>108.0</ele><time>2026-04-19T06:41:12Z</time></trkpt><trkpt lat="42.29154272911912" lon="14.010516094075363"><ele>108.0</ele><time>2026-04-19T06:41:13Z</time></trkpt><trkpt lat="42.29146449386504" lon="14.010355260234688"><ele>107.75</ele><time>2026-04-19T06:41:14Z</time></trkpt><trkpt lat="42.2913938912398" lon="14.010207116152714"><ele>107.5</ele><time>2026-04-19T06:41:15Z</time></trkpt><trkpt lat="42.291323142463916" lon="14.010058476670801"><ele>107.25</ele><time>2026-04-19T06:41:16Z</time></trkpt><trkpt lat="42.29124700927126" lon="14.009898285219156"><ele>107.0</ele><time>2026-04-19T06:41:17Z</time></trkpt><trkpt lat="42.29117078275482" lon="14.009737431678753"><ele>106.5</ele><time>2026-04-19T06:41:18Z</time></trkpt><trkpt lat="42.29109062044896" lon="14.009575182331083"><ele>106.0</ele><time>2026-04-19T06:41:19Z</time></trkpt><trkpt lat="42.29102503550503" lon="14.009398652668656"><ele>105.5</ele><time>2026-04-19T06:41:20Z</time></trkpt><trkpt lat="42.29094380321676" lon="14.009228317100883"><ele>105.0</ele><time>2026-04-19T06:41:21Z</time></trkpt><trkpt lat="42.290862054241444" lon="14.009057326261404"><ele>105.0</ele><time>2026-04-19T06:41:22Z</time></trkpt><trkpt lat="42.29077130763007" lon="14.008903450490447"><ele>105.0</ele><time>2026-04-19T06:41:23Z</time></trkpt><trkpt lat="42.2906963328578" lon="14.008737613734677"><ele>105.0</ele><time>2026-04-19T06:41:24Z</time></trkpt><trkpt lat="42.290617545446395" lon="14.008583077874894"><ele>105.0</ele><time>2026-04-19T06:41:25Z</time></trkpt><trkpt lat="42.29054295176963" lon="14.0084286140485"><ele>104.5</ele><time>2026-04-19T06:41:26Z</time></trkpt><trkpt lat="42.290472495222666" lon="14.008278091065103"><ele>104.0</ele><time>2026-04-19T06:41:27Z</time></trkpt><trkpt lat="42.290399392235415" lon="14.008124376748821"><ele>103.5</ele><time>2026-04-19T06:41:28Z</time></trkpt><trkpt lat="42.29033539903968" lon="14.007956905666283"><ele>103.0</ele><time>2026-04-19T06:41:29Z</time></trkpt><trkpt lat="42.29026501950854" lon="14.007810116969656"><ele>103.0</ele><time>2026-04-19T06:41:30Z</time></trkpt><trkpt lat="42.29019259889112" lon="14.007659071229869"><ele>103.0</ele><time>2026-04-19T06:41:31Z</time></trkpt><trkpt lat="42.29011728671354" lon="14.007501925223192"><ele>103.0</ele><time>2026-04-19T06:41:32Z</time></trkpt><trkpt lat="42.29004506954917" lon="14.007351111094332"><ele>103.0</ele><time>2026-04-19T06:41:33Z</time></trkpt><trkpt lat="42.289971143972274" lon="14.00719672921488"><ele>102.75</ele><time>2026-04-19T06:41:34Z</time></trkpt><trkpt lat="42.28989147357745" lon="14.007030350177663"><ele>102.5</ele><time>2026-04-19T06:41:35Z</time></trkpt><trkpt lat="42.28981173144436" lon="14.006863821333951"><ele>102.25</ele><time>2026-04-19T06:41:36Z</time></trkpt><trkpt lat="42.28972778395506" lon="14.006725270766163"><ele>102.0</ele><time>2026-04-19T06:41:37Z</time></trkpt><trkpt lat="42.289668687452874" lon="14.006585734715683"><ele>101.8</ele><time>2026-04-19T06:41:38Z</time></trkpt><trkpt lat="42.28960757226225" lon="14.006465249991892"><ele>101.6</ele><time>2026-04-19T06:41:39Z</time></trkpt><trkpt lat="42.289552773356576" lon="14.006347901043274"><ele>101.39999999999999</ele><time>2026-04-19T06:41:40Z</time></trkpt><trkpt lat="42.2895012904226" lon="14.006239861033636"><ele>101.19999999999999</ele><time>2026-04-19T06:41:41Z</time></trkpt><trkpt lat="42.28946222352869" lon="14.006164445304345"><ele>101.0</ele><time>2026-04-19T06:41:42Z</time></trkpt><trkpt lat="42.289429419151766" lon="14.006066929974008"><ele>101.0</ele><time>2026-04-19T06:41:44Z</time></trkpt><trkpt lat="42.289507947659345" lon="14.005913513653065"><ele>101.0</ele><time>2026-04-19T06:41:47Z</time></trkpt><trkpt lat="42.289568016416105" lon="14.005835459558465"><ele>101.0</ele><time>2026-04-19T06:41:48Z</time></trkpt><trkpt lat="42.289642310886116" lon="14.00573357263344"><ele>101.0</ele><time>2026-04-19T06:41:49Z</time></trkpt><trkpt lat="42.2897110261952" lon="14.005613517704074"><ele>101.0</ele><time>2026-04-19T06:41:50Z</time></trkpt><trkpt lat="42.2897975016203" lon="14.005491223511134"><ele>101.66666666666666</ele><time>2026-04-19T06:41:51Z</time></trkpt><trkpt lat="42.28990037626385" lon="14.005349963466475"><ele>102.33333333333334</ele><time>2026-04-19T06:41:52Z</time></trkpt><trkpt lat="42.29001207012383" lon="14.005196292176063"><ele>103.0</ele><time>2026-04-19T06:41:53Z</time></trkpt><trkpt lat="42.290128819683595" lon="14.005038605040076"><ele>102.66666666666667</ele><time>2026-04-19T06:41:54Z</time></trkpt><trkpt lat="42.29025335472973" lon="14.004868322736394"><ele>102.33333333333334</ele><time>2026-04-19T06:41:55Z</time></trkpt><trkpt lat="42.29037897039732" lon="14.004695823117581"><ele>102.0</ele><time>2026-04-19T06:41:56Z</time></trkpt><trkpt lat="42.29049993513737" lon="14.004516949371903"><ele>102.0</ele><time>2026-04-19T06:41:57Z</time></trkpt><trkpt lat="42.290615597014416" lon="14.004354784511253"><ele>102.0</ele><time>2026-04-19T06:41:58Z</time></trkpt><trkpt lat="42.29072428789176" lon="14.00420416100747"><ele>102.0</ele><time>2026-04-19T06:41:59Z</time></trkpt><trkpt lat="42.2908238131281" lon="14.004068790514669"><ele>102.0</ele><time>2026-04-19T06:42:00Z</time></trkpt><trkpt lat="42.290914588512365" lon="14.003946655771387"><ele>102.0</ele><time>2026-04-19T06:42:01Z</time></trkpt><trkpt lat="42.290997482452426" lon="14.003831018523192"><ele>102.0</ele><time>2026-04-19T06:42:02Z</time></trkpt><trkpt lat="42.29108043261623" lon="14.003718716828125"><ele>102.0</ele><time>2026-04-19T06:42:03Z</time></trkpt><trkpt lat="42.291137965810975" lon="14.003558141339992"><ele>102.0</ele><time>2026-04-19T06:42:03.999Z</time></trkpt><trkpt lat="42.291144733839054" lon="14.00333720280447"><ele>102.0</ele><time>2026-04-19T06:42:04.999Z</time></trkpt><trkpt lat="42.291144521209866" lon="14.003104223402758"><ele>102.0</ele><time>2026-04-19T06:42:05.999Z</time></trkpt><trkpt lat="42.29113129078932" lon="14.00286510764005"><ele>103.66666666666666</ele><time>2026-04-19T06:42:06.999Z</time></trkpt><trkpt lat="42.29113824707253" lon="14.002621432360144"><ele>105.33333333333333</ele><time>2026-04-19T06:42:07.999Z</time></trkpt><trkpt lat="42.29112007706941" lon="14.002383726598488"><ele>107.0</ele><time>2026-04-19T06:42:08.999Z</time></trkpt><trkpt lat="42.291125656542455" lon="14.002175858894809"><ele>108.5</ele><time>2026-04-19T06:42:09.999Z</time></trkpt><trkpt lat="42.291130342708904" lon="14.001991729533012"><ele>110.0</ele><time>2026-04-19T06:42:10.999Z</time></trkpt><trkpt lat="42.29115971605156" lon="14.001817701139766"><ele>111.5</ele><time>2026-04-19T06:42:11.999Z</time></trkpt><trkpt lat="42.29119920658387" lon="14.001651740304581"><ele>113.0</ele><time>2026-04-19T06:42:12.999Z</time></trkpt><trkpt lat="42.291250680096184" lon="14.001481667617524"><ele>114.66666666666666</ele><time>2026-04-19T06:42:13.999Z</time></trkpt><trkpt lat="42.29136143429099" lon="14.00133369861476"><ele>116.33333333333334</ele><time>2026-04-19T06:42:14.999Z</time></trkpt><trkpt lat="42.29144427272002" lon="14.00115309455252"><ele>118.0</ele><time>2026-04-19T06:42:15.999Z</time></trkpt><trkpt lat="42.29153766340242" lon="14.00099126832546"><ele>120.0</ele><time>2026-04-19T06:42:16.999Z</time></trkpt><trkpt lat="42.29163399361577" lon="14.00082692046852"><ele>122.0</ele><time>2026-04-19T06:42:17.999Z</time></trkpt><trkpt lat="42.29172777966957" lon="14.00064973910834"><ele>124.0</ele><time>2026-04-19T06:42:18.999Z</time></trkpt><trkpt lat="42.2918208809699" lon="14.000448542631386"><ele>124.0</ele><time>2026-04-19T06:42:19.999Z</time></trkpt><trkpt lat="42.291900759141186" lon="14.000233686498087"><ele>124.0</ele><time>2026-04-19T06:42:20.999Z</time></trkpt><trkpt lat="42.29196921637413" lon="14.000017783164925"><ele>124.0</ele><time>2026-04-19T06:42:21.999Z</time></trkpt><trkpt lat="42.29202147466982" lon="13.999798579766221"><ele>124.0</ele><time>2026-04-19T06:42:22.999Z</time></trkpt><trkpt lat="42.29205575849836" lon="13.99957173583985"><ele>124.0</ele><time>2026-04-19T06:42:23.999Z</time></trkpt><trkpt lat="42.292079871707784" lon="13.99931288965524"><ele>124.0</ele><time>2026-04-19T06:42:24.999Z</time></trkpt><trkpt lat="42.29209719508058" lon="13.99902943377379"><ele>126.5</ele><time>2026-04-19T06:42:25.999Z</time></trkpt><trkpt lat="42.292109192683775" lon="13.998714492867585"><ele>129.0</ele><time>2026-04-19T06:42:26.999Z</time></trkpt><trkpt lat="42.29212169724727" lon="13.998395118491015"><ele>131.0</ele><time>2026-04-19T06:42:27.999Z</time></trkpt><trkpt lat="42.29213577369736" lon="13.998041264684941"><ele>133.0</ele><time>2026-04-19T06:42:28.999Z</time></trkpt><trkpt lat="42.2921470559892" lon="13.997691954360237"><ele>134.5</ele><time>2026-04-19T06:42:29.999Z</time></trkpt><trkpt lat="42.29216208498528" lon="13.997358654692029"><ele>136.0</ele><time>2026-04-19T06:42:30.999Z</time></trkpt><trkpt lat="42.292173007569204" lon="13.997040968681032"><ele>136.0</ele><time>2026-04-19T06:42:31.999Z</time></trkpt><trkpt lat="42.29218403799527" lon="13.996721930055159"><ele>136.0</ele><time>2026-04-19T06:42:32.999Z</time></trkpt><trkpt lat="42.29219620598201" lon="13.99641351684789"><ele>136.0</ele><time>2026-04-19T06:42:33.999Z</time></trkpt><trkpt lat="42.29220198799715" lon="13.996111182559922"><ele>136.0</ele><time>2026-04-19T06:42:34.999Z</time></trkpt><trkpt lat="42.2922279206261" lon="13.99582698711368"><ele>136.0</ele><time>2026-04-19T06:42:35.999Z</time></trkpt><trkpt lat="42.29223993680126" lon="13.995560825061432"><ele>137.0</ele><time>2026-04-19T06:42:36.999Z</time></trkpt><trkpt lat="42.2922491508531" lon="13.995320168602527"><ele>138.0</ele><time>2026-04-19T06:42:37.999Z</time></trkpt><trkpt lat="42.29224688511111" lon="13.995074897404622"><ele>139.0</ele><time>2026-04-19T06:42:38.999Z</time></trkpt><trkpt lat="42.29225996573198" lon="13.99484402023527"><ele>136.66666666666669</ele><time>2026-04-19T06:42:39.999Z</time></trkpt><trkpt lat="42.29229808228768" lon="13.994625564626912"><ele>134.33333333333334</ele><time>2026-04-19T06:42:40.999Z</time></trkpt><trkpt lat="42.29233338506005" lon="13.99439871554239"><ele>132.0</ele><time>2026-04-19T06:42:41.999Z</time></trkpt><trkpt lat="42.292378946225035" lon="13.994161913237276"><ele>132.0</ele><time>2026-04-19T06:42:42.999Z</time></trkpt><trkpt lat="42.292471903796496" lon="13.993929804521041"><ele>132.0</ele><time>2026-04-19T06:42:43.999Z</time></trkpt><trkpt lat="42.29259649550981" lon="13.993735897381448"><ele>132.0</ele><time>2026-04-19T06:42:44.999Z</time></trkpt><trkpt lat="42.29270514888708" lon="13.993523822234566"><ele>132.66666666666666</ele><time>2026-04-19T06:42:45.999Z</time></trkpt><trkpt lat="42.29283286795078" lon="13.993329649098104"><ele>133.33333333333331</ele><time>2026-04-19T06:42:46.999Z</time></trkpt><trkpt lat="42.292964465492034" lon="13.993119000508452"><ele>134.0</ele><time>2026-04-19T06:42:47.999Z</time></trkpt><trkpt lat="42.29309369652727" lon="13.99290618557229"><ele>132.66666666666666</ele><time>2026-04-19T06:42:48.999Z</time></trkpt><trkpt lat="42.29322614400934" lon="13.992683481397247"><ele>131.33333333333334</ele><time>2026-04-19T06:42:49.999Z</time></trkpt><trkpt lat="42.29335904921176" lon="13.992456666184784"><ele>130.0</ele><time>2026-04-19T06:42:50.999Z</time></trkpt><trkpt lat="42.293495792538934" lon="13.992223967172373"><ele>130.0</ele><time>2026-04-19T06:42:51.999Z</time></trkpt><trkpt lat="42.29363530409273" lon="13.991994870950558"><ele>130.0</ele><time>2026-04-19T06:42:52.999Z</time></trkpt><trkpt lat="42.29377170586971" lon="13.991770096105176"><ele>130.0</ele><time>2026-04-19T06:42:53.999Z</time></trkpt><trkpt lat="42.29390570720767" lon="13.99155350733085"><ele>128.66666666666669</ele><time>2026-04-19T06:42:55Z</time></trkpt><trkpt lat="42.29403573607292" lon="13.991330582928656"><ele>127.33333333333334</ele><time>2026-04-19T06:42:56Z</time></trkpt><trkpt lat="42.29416953301033" lon="13.991104792835682"><ele>126.0</ele><time>2026-04-19T06:42:57Z</time></trkpt><trkpt lat="42.294300911518" lon="13.990882897539663"><ele>126.33333333333334</ele><time>2026-04-19T06:42:58Z</time></trkpt><trkpt lat="42.29443959515985" lon="13.990658094445157"><ele>126.66666666666667</ele><time>2026-04-19T06:42:59Z</time></trkpt><trkpt lat="42.294576080928415" lon="13.990430167949544"><ele>127.0</ele><time>2026-04-19T06:43:00Z</time></trkpt><trkpt lat="42.29470899117329" lon="13.990198883689247"><ele>126.66666666666667</ele><time>2026-04-19T06:43:01Z</time></trkpt><trkpt lat="42.2948400850783" lon="13.989959907782552"><ele>126.33333333333334</ele><time>2026-04-19T06:43:02Z</time></trkpt><trkpt lat="42.294965494591054" lon="13.989705650066213"><ele>126.0</ele><time>2026-04-19T06:43:03Z</time></trkpt><trkpt lat="42.295098938370565" lon="13.989430134995674"><ele>128.0</ele><time>2026-04-19T06:43:04Z</time></trkpt><trkpt lat="42.29524278860963" lon="13.989122783226593"><ele>130.0</ele><time>2026-04-19T06:43:05Z</time></trkpt><trkpt lat="42.29538379798766" lon="13.988802345422174"><ele>130.0</ele><time>2026-04-19T06:43:06Z</time></trkpt><trkpt lat="42.295528359471824" lon="13.988474020344189"><ele>130.0</ele><time>2026-04-19T06:43:07Z</time></trkpt><trkpt lat="42.29567877372847" lon="13.9881523168773"><ele>131.5</ele><time>2026-04-19T06:43:08Z</time></trkpt><trkpt lat="42.295852231937715" lon="13.987810247226111"><ele>133.0</ele><time>2026-04-19T06:43:09Z</time></trkpt><trkpt lat="42.29604764147348" lon="13.987496576692307"><ele>135.0</ele><time>2026-04-19T06:43:10Z</time></trkpt><trkpt lat="42.29623139610833" lon="13.987160980423495"><ele>137.0</ele><time>2026-04-19T06:43:11Z</time></trkpt><trkpt lat="42.29643032334708" lon="13.986856291195812"><ele>142.5</ele><time>2026-04-19T06:43:12Z</time></trkpt><trkpt lat="42.296618770422306" lon="13.986559154128045"><ele>148.0</ele><time>2026-04-19T06:43:13Z</time></trkpt><trkpt lat="42.29681042177862" lon="13.986252190732293"><ele>148.0</ele><time>2026-04-19T06:43:14Z</time></trkpt><trkpt lat="42.29699936069987" lon="13.985921706260955"><ele>148.0</ele><time>2026-04-19T06:43:15Z</time></trkpt><trkpt lat="42.29718603043244" lon="13.985571491065386"><ele>149.0</ele><time>2026-04-19T06:43:16Z</time></trkpt><trkpt lat="42.29736414445881" lon="13.985201062172944"><ele>150.0</ele><time>2026-04-19T06:43:17Z</time></trkpt><trkpt lat="42.29753731696054" lon="13.98484265298639"><ele>154.5</ele><time>2026-04-19T06:43:18Z</time></trkpt><trkpt lat="42.29770568285811" lon="13.98452420101944"><ele>159.0</ele><time>2026-04-19T06:43:19Z</time></trkpt><trkpt lat="42.297861936082164" lon="13.984222894290877"><ele>158.5</ele><time>2026-04-19T06:43:20Z</time></trkpt><trkpt lat="42.2980148321318" lon="13.983900129270106"><ele>158.0</ele><time>2026-04-19T06:43:21Z</time></trkpt><trkpt lat="42.29814600276085" lon="13.98360379590066"><ele>164.5</ele><time>2026-04-19T06:43:22Z</time></trkpt><trkpt lat="42.29828022632978" lon="13.983318330038362"><ele>171.0</ele><time>2026-04-19T06:43:23Z</time></trkpt><trkpt lat="42.29840141180341" lon="13.983027476285999"><ele>171.0</ele><time>2026-04-19T06:43:24Z</time></trkpt><trkpt lat="42.29850436334349" lon="13.982720703921556"><ele>171.0</ele><time>2026-04-19T06:43:25Z</time></trkpt><trkpt lat="42.29857269485816" lon="13.982411481665629"><ele>177.5</ele><time>2026-04-19T06:43:26Z</time></trkpt><trkpt lat="42.29859849335266" lon="13.982077983155575"><ele>184.0</ele><time>2026-04-19T06:43:27Z</time></trkpt><trkpt lat="42.29861555536085" lon="13.98172655161402"><ele>187.5</ele><time>2026-04-19T06:43:28Z</time></trkpt><trkpt lat="42.298649019332466" lon="13.981357072388551"><ele>191.0</ele><time>2026-04-19T06:43:29Z</time></trkpt><trkpt lat="42.29868860294786" lon="13.980978337266862"><ele>195.5</ele><time>2026-04-19T06:43:30Z</time></trkpt><trkpt lat="42.298730677484215" lon="13.980587760985832"><ele>200.0</ele><time>2026-04-19T06:43:31Z</time></trkpt><trkpt lat="42.29877033988681" lon="13.9801836805333"><ele>203.0</ele><time>2026-04-19T06:43:32Z</time></trkpt><trkpt lat="42.298808305415896" lon="13.979773140971666"><ele>206.0</ele><time>2026-04-19T06:43:33Z</time></trkpt><trkpt lat="42.29884648319159" lon="13.97936014569932"><ele>210.0</ele><time>2026-04-19T06:43:34Z</time></trkpt><trkpt lat="42.298878390946165" lon="13.97895295481887"><ele>214.0</ele><time>2026-04-19T06:43:35Z</time></trkpt><trkpt lat="42.29891328075618" lon="13.978560206501067"><ele>211.5</ele><time>2026-04-19T06:43:36Z</time></trkpt><trkpt lat="42.29894659488541" lon="13.978199707269638"><ele>209.0</ele><time>2026-04-19T06:43:37Z</time></trkpt><trkpt lat="42.29897859360584" lon="13.97784954485121"><ele>209.0</ele><time>2026-04-19T06:43:38Z</time></trkpt><trkpt lat="42.29900961200456" lon="13.977531327511647"><ele>209.0</ele><time>2026-04-19T06:43:39Z</time></trkpt><trkpt lat="42.29903533165009" lon="13.97726489219252"><ele>209.0</ele><time>2026-04-19T06:43:40Z</time></trkpt><trkpt lat="42.29904094264498" lon="13.977032061054102"><ele>209.66666666666669</ele><time>2026-04-19T06:43:41Z</time></trkpt><trkpt lat="42.29901943614656" lon="13.976811028287036"><ele>210.33333333333331</ele><time>2026-04-19T06:43:42Z</time></trkpt><trkpt lat="42.298956258131206" lon="13.976592412944841"><ele>211.0</ele><time>2026-04-19T06:43:43Z</time></trkpt><trkpt lat="42.29885845790852" lon="13.976397192829378"><ele>216.33333333333331</ele><time>2026-04-19T06:43:44Z</time></trkpt><trkpt lat="42.29873003200431" lon="13.976231781073071"><ele>221.66666666666669</ele><time>2026-04-19T06:43:45Z</time></trkpt><trkpt lat="42.29859549512485" lon="13.976129141232784"><ele>227.0</ele><time>2026-04-19T06:43:46Z</time></trkpt><trkpt lat="42.298471583755514" lon="13.976068817598122"><ele>227.0</ele><time>2026-04-19T06:43:47Z</time></trkpt><trkpt lat="42.298360915739416" lon="13.976012223869542"><ele>227.0</ele><time>2026-04-19T06:43:48Z</time></trkpt><trkpt lat="42.29828125904058" lon="13.975944581667195"><ele>227.0</ele><time>2026-04-19T06:43:49Z</time></trkpt><trkpt lat="42.29820367253963" lon="13.975846896832307"><ele>227.0</ele><time>2026-04-19T06:43:50Z</time></trkpt><trkpt lat="42.298161275510516" lon="13.975708718968933"><ele>227.0</ele><time>2026-04-19T06:43:51Z</time></trkpt><trkpt lat="42.29812580518428" lon="13.975535428531343"><ele>228.25</ele><time>2026-04-19T06:43:52Z</time></trkpt><trkpt lat="42.298085932553796" lon="13.975348197606902"><ele>229.5</ele><time>2026-04-19T06:43:53Z</time></trkpt><trkpt lat="42.29801395598073" lon="13.975208075102337"><ele>230.75</ele><time>2026-04-19T06:43:54Z</time></trkpt><trkpt lat="42.29792370399244" lon="13.975107933278315"><ele>232.0</ele><time>2026-04-19T06:43:55Z</time></trkpt><trkpt lat="42.29782019769926" lon="13.975052616065208"><ele>233.49999999999997</ele><time>2026-04-19T06:43:56Z</time></trkpt><trkpt lat="42.29773044319939" lon="13.97503881236643"><ele>235.0</ele><time>2026-04-19T06:43:57Z</time></trkpt><trkpt lat="42.297655297622136" lon="13.97503453291343"><ele>236.5</ele><time>2026-04-19T06:43:58Z</time></trkpt><trkpt lat="42.29757165883427" lon="13.974972988059744"><ele>238.0</ele><time>2026-04-19T06:44:00Z</time></trkpt><trkpt lat="42.2975499260259" lon="13.974886480478846"><ele>239.49999999999997</ele><time>2026-04-19T06:44:01Z</time></trkpt><trkpt lat="42.29755697780098" lon="13.97478312348749"><ele>241.0</ele><time>2026-04-19T06:44:02Z</time></trkpt><trkpt lat="42.29757079257739" lon="13.974639111243814"><ele>241.0</ele><time>2026-04-19T06:44:03Z</time></trkpt><trkpt lat="42.29757806169769" lon="13.974468230322413"><ele>241.00000000000003</ele><time>2026-04-19T06:44:04Z</time></trkpt><trkpt lat="42.29758316126914" lon="13.974312724630472"><ele>241.00000000000003</ele><time>2026-04-19T06:44:05Z</time></trkpt><trkpt lat="42.29757474113529" lon="13.974196473199031"><ele>241.0</ele><time>2026-04-19T06:44:06Z</time></trkpt><trkpt lat="42.29755643086622" lon="13.974092237940445"><ele>241.0</ele><time>2026-04-19T06:44:07Z</time></trkpt><trkpt lat="42.29754058185307" lon="13.973957383953426"><ele>243.33333333333331</ele><time>2026-04-19T06:44:08Z</time></trkpt><trkpt lat="42.29753063959605" lon="13.973752845486597"><ele>245.66666666666669</ele><time>2026-04-19T06:44:09Z</time></trkpt><trkpt lat="42.297530699834894" lon="13.973498395744762"><ele>248.0</ele><time>2026-04-19T06:44:09.999Z</time></trkpt><trkpt lat="42.29753453369662" lon="13.973222251645721"><ele>249.33333333333334</ele><time>2026-04-19T06:44:10.999Z</time></trkpt><trkpt lat="42.29753176618816" lon="13.972921521070226"><ele>250.66666666666669</ele><time>2026-04-19T06:44:11.999Z</time></trkpt><trkpt lat="42.29752571502529" lon="13.972628440622561"><ele>252.0</ele><time>2026-04-19T06:44:12.999Z</time></trkpt><trkpt lat="42.29752980510031" lon="13.972340870534625"><ele>253.66666666666669</ele><time>2026-04-19T06:44:13.999Z</time></trkpt><trkpt lat="42.297527353247276" lon="13.97207088060119"><ele>255.33333333333334</ele><time>2026-04-19T06:44:14.999Z</time></trkpt><trkpt lat="42.29752241082574" lon="13.97179192052328"><ele>257.0</ele><time>2026-04-19T06:44:15.999Z</time></trkpt><trkpt lat="42.29749795987057" lon="13.971473767194645"><ele>257.6666666666667</ele><time>2026-04-19T06:44:16.999Z</time></trkpt><trkpt lat="42.297480284530444" lon="13.971187211395605"><ele>258.3333333333333</ele><time>2026-04-19T06:44:17.999Z</time></trkpt><trkpt lat="42.297468254921576" lon="13.970935049113823"><ele>259.0</ele><time>2026-04-19T06:44:18.999Z</time></trkpt><trkpt lat="42.297469545621674" lon="13.970702194303662"><ele>259.66666666666663</ele><time>2026-04-19T06:44:19.999Z</time></trkpt><trkpt lat="42.29746373829816" lon="13.970497368464141"><ele>260.3333333333333</ele><time>2026-04-19T06:44:20.999Z</time></trkpt><trkpt lat="42.29745176169978" lon="13.970290485499897"><ele>261.0</ele><time>2026-04-19T06:44:21.999Z</time></trkpt><trkpt lat="42.297388252725966" lon="13.970112295509164"><ele>259.75</ele><time>2026-04-19T06:44:22.999Z</time></trkpt><trkpt lat="42.29731031701845" lon="13.969971763903896"><ele>258.5</ele><time>2026-04-19T06:44:23.999Z</time></trkpt><trkpt lat="42.29721199562444" lon="13.969855372287054"><ele>257.25</ele><time>2026-04-19T06:44:24.999Z</time></trkpt><trkpt lat="42.29711924413229" lon="13.969717794567583"><ele>256.0</ele><time>2026-04-19T06:44:25.999Z</time></trkpt><trkpt lat="42.2970436378579" lon="13.969578008404078"><ele>257.5</ele><time>2026-04-19T06:44:26.999Z</time></trkpt><trkpt lat="42.29701453538863" lon="13.969403117486477"><ele>259.0</ele><time>2026-04-19T06:44:27.999Z</time></trkpt><trkpt lat="42.296998073468664" lon="13.96921464535043"><ele>260.5</ele><time>2026-04-19T06:44:28.999Z</time></trkpt><trkpt lat="42.29698744842453" lon="13.969004412609221"><ele>262.0</ele><time>2026-04-19T06:44:29.999Z</time></trkpt><trkpt lat="42.296968320377715" lon="13.968764053992382"><ele>262.0</ele><time>2026-04-19T06:44:30.999Z</time></trkpt><trkpt lat="42.29696974382191" lon="13.968539431868242"><ele>262.0</ele><time>2026-04-19T06:44:31.999Z</time></trkpt><trkpt lat="42.29697109931666" lon="13.968317470205935"><ele>262.0</ele><time>2026-04-19T06:44:32.999Z</time></trkpt><trkpt lat="42.296969200035896" lon="13.968121364094937"><ele>263.75</ele><time>2026-04-19T06:44:33.999Z</time></trkpt><trkpt lat="42.29696704401107" lon="13.967943120223"><ele>265.5</ele><time>2026-04-19T06:44:34.999Z</time></trkpt><trkpt lat="42.29692958688016" lon="13.967787717791948"><ele>267.25</ele><time>2026-04-19T06:44:35.999Z</time></trkpt><trkpt lat="42.29685732983275" lon="13.967657449219697"><ele>269.0</ele><time>2026-04-19T06:44:36.999Z</time></trkpt><trkpt lat="42.29676971952916" lon="13.967551436437548"><ele>269.59999999999997</ele><time>2026-04-19T06:44:37.999Z</time></trkpt><trkpt lat="42.29666581078459" lon="13.967494352573699"><ele>270.2</ele><time>2026-04-19T06:44:38.999Z</time></trkpt><trkpt lat="42.296554587369855" lon="13.967481592933286"><ele>270.79999999999995</ele><time>2026-04-19T06:44:39.999Z</time></trkpt><trkpt lat="42.29645350486596" lon="13.9674833363772"><ele>271.4</ele><time>2026-04-19T06:44:40.999Z</time></trkpt><trkpt lat="42.29637866175663" lon="13.96747249831508"><ele>272.0</ele><time>2026-04-19T06:44:41.999Z</time></trkpt><trkpt lat="42.29631942907276" lon="13.967402752619433"><ele>274.5</ele><time>2026-04-19T06:44:43.999Z</time></trkpt><trkpt lat="42.29632497095811" lon="13.96723356223078"><ele>277.0</ele><time>2026-04-19T06:44:45.999Z</time></trkpt><trkpt lat="42.2963218981031" lon="13.967089660252473"><ele>279.5</ele><time>2026-04-19T06:44:46.999Z</time></trkpt><trkpt lat="42.296287017081845" lon="13.966902501085398"><ele>282.0</ele><time>2026-04-19T06:44:47.999Z</time></trkpt><trkpt lat="42.296202888873395" lon="13.966725456885984"><ele>279.3333333333333</ele><time>2026-04-19T06:44:48.999Z</time></trkpt><trkpt lat="42.296082906623354" lon="13.966554036131408"><ele>276.66666666666663</ele><time>2026-04-19T06:44:49.999Z</time></trkpt><trkpt lat="42.29595947988728" lon="13.966388032787382"><ele>274.0</ele><time>2026-04-19T06:44:50.999Z</time></trkpt><trkpt lat="42.29586751733666" lon="13.966208550105877"><ele>274.0</ele><time>2026-04-19T06:44:51.999Z</time></trkpt><trkpt lat="42.29577800274402" lon="13.966035980146216"><ele>274.0</ele><time>2026-04-19T06:44:52.999Z</time></trkpt><trkpt lat="42.29569326025372" lon="13.965848858418974"><ele>274.0</ele><time>2026-04-19T06:44:53.999Z</time></trkpt><trkpt lat="42.29561509243839" lon="13.965674594437218"><ele>269.25</ele><time>2026-04-19T06:44:54.999Z</time></trkpt><trkpt lat="42.29554284883083" lon="13.965504296967362"><ele>264.5</ele><time>2026-04-19T06:44:55.999Z</time></trkpt><trkpt lat="42.29548010849784" lon="13.965334965055199"><ele>259.75</ele><time>2026-04-19T06:44:56.999Z</time></trkpt><trkpt lat="42.29541675310018" lon="13.9651671980206"><ele>255.0</ele><time>2026-04-19T06:44:57.999Z</time></trkpt><trkpt lat="42.295313918229844" lon="13.965005218103517"><ele>254.5</ele><time>2026-04-19T06:44:58.999Z</time></trkpt><trkpt lat="42.29523382351015" lon="13.964836734467315"><ele>254.0</ele><time>2026-04-19T06:44:59.999Z</time></trkpt><trkpt lat="42.2951576142798" lon="13.964676333893726"><ele>253.5</ele><time>2026-04-19T06:45:01Z</time></trkpt><trkpt lat="42.29508497088002" lon="13.964521010379574"><ele>253.0</ele><time>2026-04-19T06:45:02Z</time></trkpt><trkpt lat="42.295037143608255" lon="13.96435045879837"><ele>253.0</ele><time>2026-04-19T06:45:03Z</time></trkpt><trkpt lat="42.29497915936911" lon="13.96420359843636"><ele>253.0</ele><time>2026-04-19T06:45:04Z</time></trkpt><trkpt lat="42.2949242813958" lon="13.964055264905321"><ele>253.0</ele><time>2026-04-19T06:45:05Z</time></trkpt><trkpt lat="42.29487211580807" lon="13.963914262857072"><ele>253.0</ele><time>2026-04-19T06:45:06Z</time></trkpt><trkpt lat="42.29482412082257" lon="13.963784534232364"><ele>250.4</ele><time>2026-04-19T06:45:07Z</time></trkpt><trkpt lat="42.29475212866453" lon="13.963671853361989"><ele>247.8</ele><time>2026-04-19T06:45:08Z</time></trkpt><trkpt lat="42.29471134957795" lon="13.963551533166466"><ele>245.2</ele><time>2026-04-19T06:45:09Z</time></trkpt><trkpt lat="42.29467490276595" lon="13.963442956115804"><ele>242.6</ele><time>2026-04-19T06:45:10Z</time></trkpt><trkpt lat="42.29464199266072" lon="13.9633307871597"><ele>240.0</ele><time>2026-04-19T06:45:11Z</time></trkpt><trkpt lat="42.294622883985674" lon="13.963222029544168"><ele>240.0</ele><time>2026-04-19T06:45:12Z</time></trkpt><trkpt lat="42.29461758404317" lon="13.963096276812907"><ele>240.0</ele><time>2026-04-19T06:45:13Z</time></trkpt><trkpt lat="42.29463531732459" lon="13.96296018743277"><ele>240.0</ele><time>2026-04-19T06:45:14Z</time></trkpt><trkpt lat="42.29469117855757" lon="13.962825338364706"><ele>240.0</ele><time>2026-04-19T06:45:15Z</time></trkpt><trkpt lat="42.294778365733464" lon="13.962677558492825"><ele>242.25</ele><time>2026-04-19T06:45:16Z</time></trkpt><trkpt lat="42.294909885256374" lon="13.962552456904502"><ele>244.5</ele><time>2026-04-19T06:45:17Z</time></trkpt><trkpt lat="42.2950033045736" lon="13.962400658286041"><ele>246.75</ele><time>2026-04-19T06:45:17.999Z</time></trkpt><trkpt lat="42.295100524481704" lon="13.962286506310734"><ele>249.0</ele><time>2026-04-19T06:45:18.999Z</time></trkpt><trkpt lat="42.29518029194008" lon="13.962197142201267"><ele>249.0</ele><time>2026-04-19T06:45:19.999Z</time></trkpt><trkpt lat="42.295262669253994" lon="13.962159914860992"><ele>249.0</ele><time>2026-04-19T06:45:20.999Z</time></trkpt><trkpt lat="42.29531720897706" lon="13.962117237115432"><ele>249.0</ele><time>2026-04-19T06:45:21.999Z</time></trkpt><trkpt lat="42.295266275700634" lon="13.961850142654681"><ele>249.0</ele><time>2026-04-19T06:45:24.998Z</time></trkpt><trkpt lat="42.29518414693167" lon="13.96176694814603"><ele>250.0</ele><time>2026-04-19T06:45:25.998Z</time></trkpt><trkpt lat="42.295072484101595" lon="13.961672303164216"><ele>251.0</ele><time>2026-04-19T06:45:26.998Z</time></trkpt><trkpt lat="42.29492995343735" lon="13.961560567355813"><ele>252.0</ele><time>2026-04-19T06:45:27.998Z</time></trkpt><trkpt lat="42.29477529676469" lon="13.961432006837574"><ele>249.25</ele><time>2026-04-19T06:45:28.998Z</time></trkpt><trkpt lat="42.29463912314448" lon="13.961314195365944"><ele>246.5</ele><time>2026-04-19T06:45:29.998Z</time></trkpt><trkpt lat="42.294566381084465" lon="13.961232740694628"><ele>243.75</ele><time>2026-04-19T06:45:30.997Z</time></trkpt><trkpt lat="42.2945102652306" lon="13.961114316655785"><ele>241.0</ele><time>2026-04-19T06:45:31.997Z</time></trkpt><trkpt lat="42.2944577579159" lon="13.960940284023495"><ele>244.33333333333331</ele><time>2026-04-19T06:45:32.997Z</time></trkpt><trkpt lat="42.29440092773609" lon="13.960727669629582"><ele>247.66666666666669</ele><time>2026-04-19T06:45:33.997Z</time></trkpt><trkpt lat="42.294334350876554" lon="13.9604938123014"><ele>251.0</ele><time>2026-04-19T06:45:34.997Z</time></trkpt><trkpt lat="42.29431370431777" lon="13.960256394559504"><ele>251.0</ele><time>2026-04-19T06:45:35.997Z</time></trkpt><trkpt lat="42.29428823250793" lon="13.960077823000363"><ele>251.0</ele><time>2026-04-19T06:45:36.997Z</time></trkpt><trkpt lat="42.29427044497612" lon="13.959896079342597"><ele>251.0</ele><time>2026-04-19T06:45:37.997Z</time></trkpt><trkpt lat="42.29425751620246" lon="13.959736532841154"><ele>251.0</ele><time>2026-04-19T06:45:38.997Z</time></trkpt><trkpt lat="42.29423943375697" lon="13.959569362555223"><ele>254.0</ele><time>2026-04-19T06:45:39.997Z</time></trkpt><trkpt lat="42.2942078526057" lon="13.959384152552452"><ele>257.0</ele><time>2026-04-19T06:45:40.997Z</time></trkpt><trkpt lat="42.2941574330413" lon="13.959185148254846"><ele>260.0</ele><time>2026-04-19T06:45:41.997Z</time></trkpt><trkpt lat="42.29409950833957" lon="13.95898198611577"><ele>261.33333333333337</ele><time>2026-04-19T06:45:42.997Z</time></trkpt><trkpt lat="42.294034572090055" lon="13.95877681253492"><ele>262.6666666666667</ele><time>2026-04-19T06:45:43.996Z</time></trkpt><trkpt lat="42.29396324972748" lon="13.958576489677704"><ele>264.0</ele><time>2026-04-19T06:45:44.996Z</time></trkpt><trkpt lat="42.29388837286238" lon="13.958369773101257"><ele>263.0</ele><time>2026-04-19T06:45:45.996Z</time></trkpt><trkpt lat="42.29381841148477" lon="13.95816720744374"><ele>262.0</ele><time>2026-04-19T06:45:46.996Z</time></trkpt><trkpt lat="42.293741431961394" lon="13.95796680731448"><ele>261.0</ele><time>2026-04-19T06:45:47.996Z</time></trkpt><trkpt lat="42.29366179370851" lon="13.957770805416368"><ele>261.0</ele><time>2026-04-19T06:45:48.996Z</time></trkpt><trkpt lat="42.293574970812074" lon="13.957586015494515"><ele>261.0</ele><time>2026-04-19T06:45:49.996Z</time></trkpt><trkpt lat="42.29347847004816" lon="13.957407623732767"><ele>261.0</ele><time>2026-04-19T06:45:50.996Z</time></trkpt><trkpt lat="42.29338259144126" lon="13.957227785208529"><ele>264.6666666666667</ele><time>2026-04-19T06:45:51.996Z</time></trkpt><trkpt lat="42.29328627314043" lon="13.957046090059027"><ele>268.33333333333337</ele><time>2026-04-19T06:45:52.996Z</time></trkpt><trkpt lat="42.29319270538263" lon="13.956866535580602"><ele>272.0</ele><time>2026-04-19T06:45:53.996Z</time></trkpt><trkpt lat="42.29310814523579" lon="13.956701291474976"><ele>270.75</ele><time>2026-04-19T06:45:54.996Z</time></trkpt><trkpt lat="42.29303831555455" lon="13.956556093498822"><ele>269.5</ele><time>2026-04-19T06:45:55.996Z</time></trkpt><trkpt lat="42.29298024356033" lon="13.956402128248419"><ele>268.25</ele><time>2026-04-19T06:45:56.996Z</time></trkpt><trkpt lat="42.29293388711035" lon="13.956194594903055"><ele>267.0</ele><time>2026-04-19T06:45:57.996Z</time></trkpt><trkpt lat="42.292903286438914" lon="13.95595463127471"><ele>270.0</ele><time>2026-04-19T06:45:58.996Z</time></trkpt><trkpt lat="42.29285705868525" lon="13.955693912155454"><ele>273.0</ele><time>2026-04-19T06:45:59.996Z</time></trkpt><trkpt lat="42.29278870548879" lon="13.955463835823636"><ele>276.0</ele><time>2026-04-19T06:46:00.996Z</time></trkpt><trkpt lat="42.292753962487296" lon="13.95522877626755"><ele>278.0</ele><time>2026-04-19T06:46:01.996Z</time></trkpt><trkpt lat="42.29273216960925" lon="13.955016268004922"><ele>280.0</ele><time>2026-04-19T06:46:02.996Z</time></trkpt><trkpt lat="42.29271624778558" lon="13.95479679013771"><ele>282.0</ele><time>2026-04-19T06:46:03.996Z</time></trkpt><trkpt lat="42.29270401309756" lon="13.95460639811757"><ele>282.0</ele><time>2026-04-19T06:46:04.996Z</time></trkpt><trkpt lat="42.29269626271609" lon="13.954453843896676"><ele>282.0</ele><time>2026-04-19T06:46:05.996Z</time></trkpt><trkpt lat="42.29268791686452" lon="13.954340522528613"><ele>282.0</ele><time>2026-04-19T06:46:06.996Z</time></trkpt><trkpt lat="42.29267354120197" lon="13.954228259008312"><ele>282.0</ele><time>2026-04-19T06:46:07.996Z</time></trkpt><trkpt lat="42.29266371887088" lon="13.954107143601867"><ele>282.0</ele><time>2026-04-19T06:46:08.996Z</time></trkpt><trkpt lat="42.292646000376315" lon="13.953965759233679"><ele>282.0</ele><time>2026-04-19T06:46:09.996Z</time></trkpt><trkpt lat="42.2926696166072" lon="13.953804022178682"><ele>282.0</ele><time>2026-04-19T06:46:10.996Z</time></trkpt><trkpt lat="42.292679588316325" lon="13.953700048612644"><ele>282.0</ele><time>2026-04-19T06:46:11.996Z</time></trkpt><trkpt lat="42.292676942487724" lon="13.9536109356727"><ele>282.0</ele><time>2026-04-19T06:46:12.996Z</time></trkpt><trkpt lat="42.29271552405703" lon="13.95349073172425"><ele>282.0</ele><time>2026-04-19T06:46:13.996Z</time></trkpt><trkpt lat="42.29274108071658" lon="13.953383191486864"><ele>282.0</ele><time>2026-04-19T06:46:14.996Z</time></trkpt><trkpt lat="42.29274439515552" lon="13.95327962849127"><ele>282.0</ele><time>2026-04-19T06:46:15.996Z</time></trkpt><trkpt lat="42.292703296361076" lon="13.95315419095035"><ele>282.0</ele><time>2026-04-19T06:46:17.996Z</time></trkpt><trkpt lat="42.292640342631096" lon="13.95309093336841"><ele>282.0</ele><time>2026-04-19T06:46:18.996Z</time></trkpt><trkpt lat="42.29259564712413" lon="13.95300412982212"><ele>282.0</ele><time>2026-04-19T06:46:19.996Z</time></trkpt><trkpt lat="42.29255481937908" lon="13.952893919640081"><ele>282.0</ele><time>2026-04-19T06:46:20.996Z</time></trkpt><trkpt lat="42.292516722482404" lon="13.952743778536636"><ele>282.0</ele><time>2026-04-19T06:46:21.996Z</time></trkpt><trkpt lat="42.292502270432905" lon="13.95259161582278"><ele>282.0</ele><time>2026-04-19T06:46:22.996Z</time></trkpt><trkpt lat="42.29250429517498" lon="13.952442041361959"><ele>282.0</ele><time>2026-04-19T06:46:23.995Z</time></trkpt><trkpt lat="42.29250751010037" lon="13.952269649029772"><ele>282.0</ele><time>2026-04-19T06:46:24.995Z</time></trkpt><trkpt lat="42.29251448111809" lon="13.952082628610126"><ele>281.0</ele><time>2026-04-19T06:46:25.995Z</time></trkpt><trkpt lat="42.292525199667395" lon="13.951884856537525"><ele>280.0</ele><time>2026-04-19T06:46:26.995Z</time></trkpt><trkpt lat="42.29253466206089" lon="13.951688758414113"><ele>279.0</ele><time>2026-04-19T06:46:27.995Z</time></trkpt><trkpt lat="42.292538296881865" lon="13.951524443194266"><ele>278.0</ele><time>2026-04-19T06:46:28.995Z</time></trkpt><trkpt lat="42.29254137567847" lon="13.951360096890784"><ele>277.5</ele><time>2026-04-19T06:46:29.995Z</time></trkpt><trkpt lat="42.29254694337731" lon="13.951198218345601"><ele>277.0</ele><time>2026-04-19T06:46:30.995Z</time></trkpt><trkpt lat="42.29255491489612" lon="13.951024965909573"><ele>276.5</ele><time>2026-04-19T06:46:31.995Z</time></trkpt><trkpt lat="42.292555982790766" lon="13.950849954960892"><ele>276.0</ele><time>2026-04-19T06:46:32.995Z</time></trkpt><trkpt lat="42.29258142493797" lon="13.950662350918282"><ele>276.0</ele><time>2026-04-19T06:46:33.995Z</time></trkpt><trkpt lat="42.29259839171165" lon="13.950516861723138"><ele>276.0</ele><time>2026-04-19T06:46:34.995Z</time></trkpt><trkpt lat="42.29261377427092" lon="13.950403949483672"><ele>276.0</ele><time>2026-04-19T06:46:35.995Z</time></trkpt><trkpt lat="42.29261802912896" lon="13.95029785752399"><ele>276.0</ele><time>2026-04-19T06:46:36.995Z</time></trkpt><trkpt lat="42.29263475521671" lon="13.950190375494696"><ele>276.0</ele><time>2026-04-19T06:46:37.995Z</time></trkpt><trkpt lat="42.2926586312352" lon="13.950063930031986"><ele>276.0</ele><time>2026-04-19T06:46:39.995Z</time></trkpt><trkpt lat="42.29266058189276" lon="13.949962158292928"><ele>276.0</ele><time>2026-04-19T06:46:41.995Z</time></trkpt><trkpt lat="42.29267680722944" lon="13.949834215626183"><ele>276.0</ele><time>2026-04-19T06:46:42.995Z</time></trkpt><trkpt lat="42.292635550665054" lon="13.949697261230533"><ele>276.0</ele><time>2026-04-19T06:46:43.995Z</time></trkpt><trkpt lat="42.29260817868153" lon="13.94952776746001"><ele>276.0</ele><time>2026-04-19T06:46:44.995Z</time></trkpt><trkpt lat="42.29259194388175" lon="13.949315226408572"><ele>275.25</ele><time>2026-04-19T06:46:45.995Z</time></trkpt><trkpt lat="42.2925637654426" lon="13.94913029298541"><ele>274.5</ele><time>2026-04-19T06:46:46.995Z</time></trkpt><trkpt lat="42.29252852037086" lon="13.948968420455529"><ele>273.75</ele><time>2026-04-19T06:46:47.995Z</time></trkpt><trkpt lat="42.29249361264145" lon="13.948822062425279"><ele>273.0</ele><time>2026-04-19T06:46:48.995Z</time></trkpt><trkpt lat="42.29246834606383" lon="13.948687450928762"><ele>273.0</ele><time>2026-04-19T06:46:49.995Z</time></trkpt><trkpt lat="42.2924533798994" lon="13.948543569735985"><ele>273.0</ele><time>2026-04-19T06:46:50.995Z</time></trkpt><trkpt lat="42.292439856635085" lon="13.948371551201497"><ele>273.0</ele><time>2026-04-19T06:46:51.995Z</time></trkpt><trkpt lat="42.29242881423482" lon="13.94817133963031"><ele>273.0</ele><time>2026-04-19T06:46:52.995Z</time></trkpt><trkpt lat="42.2924238944814" lon="13.94794262183711"><ele>273.0</ele><time>2026-04-19T06:46:53.995Z</time></trkpt><trkpt lat="42.29241306407376" lon="13.947637692077496"><ele>273.0</ele><time>2026-04-19T06:46:54.995Z</time></trkpt><trkpt lat="42.29239763993376" lon="13.947337239948846"><ele>273.0</ele><time>2026-04-19T06:46:55.995Z</time></trkpt><trkpt lat="42.29236417386149" lon="13.947025697439665"><ele>273.0</ele><time>2026-04-19T06:46:56.995Z</time></trkpt><trkpt lat="42.29234868027899" lon="13.946735624001606"><ele>273.0</ele><time>2026-04-19T06:46:57.995Z</time></trkpt><trkpt lat="42.29233389348731" lon="13.946478200684695"><ele>273.0</ele><time>2026-04-19T06:46:58.995Z</time></trkpt><trkpt lat="42.29233396539947" lon="13.946218522897553"><ele>272.6666666666667</ele><time>2026-04-19T06:46:59.995Z</time></trkpt><trkpt lat="42.29231943149022" lon="13.945961573391282"><ele>272.33333333333337</ele><time>2026-04-19T06:47:00.995Z</time></trkpt><trkpt lat="42.292303451625564" lon="13.945679060326194"><ele>272.0</ele><time>2026-04-19T06:47:01.995Z</time></trkpt><trkpt lat="42.29228955777311" lon="13.945417754524836"><ele>273.6666666666667</ele><time>2026-04-19T06:47:02.995Z</time></trkpt><trkpt lat="42.2922777337012" lon="13.945188899088787"><ele>275.3333333333333</ele><time>2026-04-19T06:47:03.995Z</time></trkpt><trkpt lat="42.292251238547145" lon="13.944973980450799"><ele>277.0</ele><time>2026-04-19T06:47:04.995Z</time></trkpt><trkpt lat="42.292244464336086" lon="13.944743392048302"><ele>278.25</ele><time>2026-04-19T06:47:05.996Z</time></trkpt><trkpt lat="42.29223219003466" lon="13.944529679490513"><ele>279.5</ele><time>2026-04-19T06:47:06.996Z</time></trkpt><trkpt lat="42.29222514189651" lon="13.9443254371826"><ele>280.75</ele><time>2026-04-19T06:47:07.996Z</time></trkpt><trkpt lat="42.29221754630932" lon="13.944206348307514"><ele>282.0</ele><time>2026-04-19T06:47:08.996Z</time></trkpt><trkpt lat="42.292205615703175" lon="13.944015236297588"><ele>282.42857142857144</ele><time>2026-04-19T06:47:10.997Z</time></trkpt><trkpt lat="42.292194318604125" lon="13.943907860597562"><ele>282.85714285714283</ele><time>2026-04-19T06:47:11.997Z</time></trkpt><trkpt lat="42.292208138131684" lon="13.943798547361864"><ele>283.2857142857143</ele><time>2026-04-19T06:47:12.997Z</time></trkpt><trkpt lat="42.292207458237236" lon="13.943705392112054"><ele>283.7142857142857</ele><time>2026-04-19T06:47:13.997Z</time></trkpt><trkpt lat="42.29224735901664" lon="13.94362903255352"><ele>284.14285714285717</ele><time>2026-04-19T06:47:14.998Z</time></trkpt><trkpt lat="42.29230819527783" lon="13.943577805635266"><ele>284.57142857142856</ele><time>2026-04-19T06:47:15.998Z</time></trkpt><trkpt lat="42.292358719441275" lon="13.943514830935335"><ele>285.0</ele><time>2026-04-19T06:47:16.998Z</time></trkpt><trkpt lat="42.292426905299834" lon="13.943472673069065"><ele>285.0</ele><time>2026-04-19T06:47:17.998Z</time></trkpt><trkpt lat="42.29249814530266" lon="13.943436288276725"><ele>285.0</ele><time>2026-04-19T06:47:18.998Z</time></trkpt><trkpt lat="42.29257201029244" lon="13.943412483672208"><ele>285.0</ele><time>2026-04-19T06:47:19.998Z</time></trkpt><trkpt lat="42.29265111687669" lon="13.943390987733883"><ele>285.0</ele><time>2026-04-19T06:47:20.999Z</time></trkpt><trkpt lat="42.29273904418085" lon="13.943368196498314"><ele>285.0</ele><time>2026-04-19T06:47:21.999Z</time></trkpt><trkpt lat="42.29283519847849" lon="13.94336369008278"><ele>285.0</ele><time>2026-04-19T06:47:22.999Z</time></trkpt><trkpt lat="42.292933071022134" lon="13.94336284818557"><ele>285.2</ele><time>2026-04-19T06:47:23.999Z</time></trkpt><trkpt lat="42.29302409732684" lon="13.94335246524048"><ele>285.4</ele><time>2026-04-19T06:47:24.999Z</time></trkpt><trkpt lat="42.29311265648572" lon="13.943341170609626"><ele>285.6</ele><time>2026-04-19T06:47:25.999Z</time></trkpt><trkpt lat="42.29320778376294" lon="13.94332784250941"><ele>285.8</ele><time>2026-04-19T06:47:26.999Z</time></trkpt><trkpt lat="42.293314120810265" lon="13.943299134592053"><ele>286.0</ele><time>2026-04-19T06:47:27.999Z</time></trkpt><trkpt lat="42.29341416057307" lon="13.94323690634532"><ele>284.6</ele><time>2026-04-19T06:47:28.999Z</time></trkpt><trkpt lat="42.2935022676643" lon="13.943151374720674"><ele>283.20000000000005</ele><time>2026-04-19T06:47:29.999Z</time></trkpt><trkpt lat="42.29358157171024" lon="13.943046659744867"><ele>281.79999999999995</ele><time>2026-04-19T06:47:30.999Z</time></trkpt><trkpt lat="42.29365072650691" lon="13.942926965878732"><ele>280.4</ele><time>2026-04-19T06:47:31.999Z</time></trkpt><trkpt lat="42.29371791079041" lon="13.942801185073955"><ele>279.0</ele><time>2026-04-19T06:47:32.999Z</time></trkpt><trkpt lat="42.29379842698358" lon="13.942661736183513"><ele>279.5</ele><time>2026-04-19T06:47:33.999Z</time></trkpt><trkpt lat="42.29388039844536" lon="13.942538990520436"><ele>280.0</ele><time>2026-04-19T06:47:34.999Z</time></trkpt><trkpt lat="42.29395467958802" lon="13.94241644139391"><ele>280.5</ele><time>2026-04-19T06:47:35.999Z</time></trkpt><trkpt lat="42.29404146950298" lon="13.942267530234927"><ele>281.0</ele><time>2026-04-19T06:47:36.999Z</time></trkpt><trkpt lat="42.294146981039106" lon="13.942110474130311"><ele>281.0</ele><time>2026-04-19T06:47:37.999Z</time></trkpt><trkpt lat="42.29424307030111" lon="13.941930530271152"><ele>281.0</ele><time>2026-04-19T06:47:38.999Z</time></trkpt><trkpt lat="42.294321504525264" lon="13.941735443067062"><ele>281.0</ele><time>2026-04-19T06:47:40Z</time></trkpt><trkpt lat="42.29438654805501" lon="13.941496380292854"><ele>282.6666666666667</ele><time>2026-04-19T06:47:41Z</time></trkpt><trkpt lat="42.294440074473655" lon="13.941230301391759"><ele>284.3333333333333</ele><time>2026-04-19T06:47:42Z</time></trkpt><trkpt lat="42.294492266271924" lon="13.940978502170346"><ele>286.0</ele><time>2026-04-19T06:47:43Z</time></trkpt><trkpt lat="42.29454250096721" lon="13.940754106251118"><ele>288.0</ele><time>2026-04-19T06:47:44Z</time></trkpt><trkpt lat="42.2945964419593" lon="13.940538651861987"><ele>290.0</ele><time>2026-04-19T06:47:45Z</time></trkpt><trkpt lat="42.294654519609786" lon="13.940336378248753"><ele>292.0</ele><time>2026-04-19T06:47:46Z</time></trkpt><trkpt lat="42.2947176264961" lon="13.940175960985037"><ele>296.25</ele><time>2026-04-19T06:47:47Z</time></trkpt><trkpt lat="42.29477909144496" lon="13.940040897865094"><ele>300.5</ele><time>2026-04-19T06:47:48Z</time></trkpt><trkpt lat="42.294822096402974" lon="13.939876320758259"><ele>304.75</ele><time>2026-04-19T06:47:49Z</time></trkpt><trkpt lat="42.29484041645352" lon="13.939685645961593"><ele>309.0</ele><time>2026-04-19T06:47:50Z</time></trkpt><trkpt lat="42.294827178308644" lon="13.939475762416768"><ele>309.0</ele><time>2026-04-19T06:47:51Z</time></trkpt><trkpt lat="42.29479255423469" lon="13.939253931793623"><ele>309.0</ele><time>2026-04-19T06:47:52Z</time></trkpt><trkpt lat="42.29474152789523" lon="13.939022073429499"><ele>309.0</ele><time>2026-04-19T06:47:53Z</time></trkpt><trkpt lat="42.29469379408216" lon="13.938794055894475"><ele>307.3333333333333</ele><time>2026-04-19T06:47:54Z</time></trkpt><trkpt lat="42.29466610150786" lon="13.938568101740616"><ele>305.66666666666663</ele><time>2026-04-19T06:47:55Z</time></trkpt><trkpt lat="42.29462450197479" lon="13.938353735222453"><ele>304.0</ele><time>2026-04-19T06:47:56Z</time></trkpt><trkpt lat="42.29459254884572" lon="13.938144382005794"><ele>308.3333333333333</ele><time>2026-04-19T06:47:57Z</time></trkpt><trkpt lat="42.29456758223243" lon="13.937942986994203"><ele>312.6666666666667</ele><time>2026-04-19T06:47:58Z</time></trkpt><trkpt lat="42.29455792546188" lon="13.93772810514071"><ele>317.0</ele><time>2026-04-19T06:47:59Z</time></trkpt><trkpt lat="42.29455378935904" lon="13.937502131165381"><ele>319.5</ele><time>2026-04-19T06:48:00Z</time></trkpt><trkpt lat="42.294570272803426" lon="13.937281736449439"><ele>322.0</ele><time>2026-04-19T06:48:01Z</time></trkpt><trkpt lat="42.29458296073529" lon="13.937088152146561"><ele>324.5</ele><time>2026-04-19T06:48:02Z</time></trkpt><trkpt lat="42.294619978482345" lon="13.936937824269718"><ele>327.0</ele><time>2026-04-19T06:48:03Z</time></trkpt><trkpt lat="42.294650961862224" lon="13.936787599721317"><ele>328.75</ele><time>2026-04-19T06:48:04Z</time></trkpt><trkpt lat="42.29470205286254" lon="13.9366270171163"><ele>330.5</ele><time>2026-04-19T06:48:05Z</time></trkpt><trkpt lat="42.29476777257215" lon="13.93645211847889"><ele>332.25</ele><time>2026-04-19T06:48:06Z</time></trkpt><trkpt lat="42.29485484058337" lon="13.936309482200857"><ele>334.0</ele><time>2026-04-19T06:48:07Z</time></trkpt><trkpt lat="42.29496844765259" lon="13.93622078266527"><ele>337.66666666666663</ele><time>2026-04-19T06:48:08Z</time></trkpt><trkpt lat="42.2950999283294" lon="13.936130220098066"><ele>341.3333333333333</ele><time>2026-04-19T06:48:09Z</time></trkpt><trkpt lat="42.29525206618413" lon="13.936021468718696"><ele>345.0</ele><time>2026-04-19T06:48:10Z</time></trkpt><trkpt lat="42.29542122732126" lon="13.935928732902857"><ele>344.3333333333333</ele><time>2026-04-19T06:48:11Z</time></trkpt><trkpt lat="42.295586242849595" lon="13.93583989510342"><ele>343.66666666666663</ele><time>2026-04-19T06:48:12Z</time></trkpt><trkpt lat="42.29574325647131" lon="13.935755593529358"><ele>343.0</ele><time>2026-04-19T06:48:13Z</time></trkpt><trkpt lat="42.29587628453499" lon="13.93567500412217"><ele>345.5</ele><time>2026-04-19T06:48:14Z</time></trkpt><trkpt lat="42.295990358410755" lon="13.935597222582748"><ele>348.0</ele><time>2026-04-19T06:48:15Z</time></trkpt><trkpt lat="42.296086142344706" lon="13.93551037196566"><ele>350.5</ele><time>2026-04-19T06:48:16Z</time></trkpt><trkpt lat="42.29615976661065" lon="13.935403844921497"><ele>353.0</ele><time>2026-04-19T06:48:17Z</time></trkpt><trkpt lat="42.296208288418356" lon="13.935262516435289"><ele>353.0</ele><time>2026-04-19T06:48:18Z</time></trkpt><trkpt lat="42.29623456610227" lon="13.935103829071462"><ele>353.0</ele><time>2026-04-19T06:48:19Z</time></trkpt><trkpt lat="42.296225393223345" lon="13.934926468387857"><ele>353.0</ele><time>2026-04-19T06:48:20Z</time></trkpt><trkpt lat="42.2961853953027" lon="13.934721090178813"><ele>353.0</ele><time>2026-04-19T06:48:21Z</time></trkpt><trkpt lat="42.296130934014" lon="13.934489272462642"><ele>352.6666666666667</ele><time>2026-04-19T06:48:22Z</time></trkpt><trkpt lat="42.29607791729675" lon="13.934252036677782"><ele>352.3333333333333</ele><time>2026-04-19T06:48:23Z</time></trkpt><trkpt lat="42.2960297974897" lon="13.934017416628246"><ele>352.0</ele><time>2026-04-19T06:48:24Z</time></trkpt><trkpt lat="42.2959809246468" lon="13.93379796359631"><ele>354.3333333333333</ele><time>2026-04-19T06:48:25Z</time></trkpt><trkpt lat="42.29596596071194" lon="13.93359063624134"><ele>356.6666666666667</ele><time>2026-04-19T06:48:26Z</time></trkpt><trkpt lat="42.29596495383601" lon="13.933394475114035"><ele>359.0</ele><time>2026-04-19T06:48:26.999Z</time></trkpt><trkpt lat="42.295962263652385" lon="13.933150734306738"><ele>363.0</ele><time>2026-04-19T06:48:27.999Z</time></trkpt><trkpt lat="42.29598085135381" lon="13.932922684787458"><ele>367.0</ele><time>2026-04-19T06:48:28.999Z</time></trkpt><trkpt lat="42.295985848338006" lon="13.932708912595265"><ele>371.0</ele><time>2026-04-19T06:48:29.999Z</time></trkpt><trkpt lat="42.29597349940758" lon="13.93250742886873"><ele>374.0</ele><time>2026-04-19T06:48:30.999Z</time></trkpt><trkpt lat="42.29594483363459" lon="13.932286951882807"><ele>377.0</ele><time>2026-04-19T06:48:31.999Z</time></trkpt><trkpt lat="42.29593637809412" lon="13.932062499512593"><ele>380.0</ele><time>2026-04-19T06:48:32.999Z</time></trkpt><trkpt lat="42.295910865371525" lon="13.931845439722261"><ele>381.33333333333337</ele><time>2026-04-19T06:48:33.999Z</time></trkpt><trkpt lat="42.29588332333134" lon="13.9316111146378"><ele>382.6666666666667</ele><time>2026-04-19T06:48:34.999Z</time></trkpt><trkpt lat="42.29585817079083" lon="13.93136379743818"><ele>384.0</ele><time>2026-04-19T06:48:35.999Z</time></trkpt><trkpt lat="42.29583127216902" lon="13.931108306384528"><ele>384.33333333333337</ele><time>2026-04-19T06:48:36.999Z</time></trkpt><trkpt lat="42.29580537690596" lon="13.930862266121375"><ele>384.6666666666667</ele><time>2026-04-19T06:48:37.999Z</time></trkpt><trkpt lat="42.29578201183707" lon="13.930637392769574"><ele>385.0</ele><time>2026-04-19T06:48:38.999Z</time></trkpt><trkpt lat="42.295761709579196" lon="13.930417938508596"><ele>385.0</ele><time>2026-04-19T06:48:39.999Z</time></trkpt><trkpt lat="42.29574114769279" lon="13.930212334557698"><ele>385.0</ele><time>2026-04-19T06:48:40.999Z</time></trkpt><trkpt lat="42.295714528895196" lon="13.930012262873822"><ele>385.0</ele><time>2026-04-19T06:48:41.999Z</time></trkpt><trkpt lat="42.295654463425706" lon="13.929802127856448"><ele>384.0</ele><time>2026-04-19T06:48:42.999Z</time></trkpt><trkpt lat="42.29560191928414" lon="13.929564588150356"><ele>383.0</ele><time>2026-04-19T06:48:43.999Z</time></trkpt><trkpt lat="42.29557816803155" lon="13.929305215785106"><ele>382.0</ele><time>2026-04-19T06:48:44.999Z</time></trkpt><trkpt lat="42.295543616657724" lon="13.929043173525237"><ele>383.66666666666663</ele><time>2026-04-19T06:48:45.999Z</time></trkpt><trkpt lat="42.29550112308052" lon="13.928808669081572"><ele>385.3333333333333</ele><time>2026-04-19T06:48:46.999Z</time></trkpt><trkpt lat="42.29547920400748" lon="13.928577618203473"><ele>387.0</ele><time>2026-04-19T06:48:47.999Z</time></trkpt><trkpt lat="42.29547077865549" lon="13.92835324906222"><ele>387.0</ele><time>2026-04-19T06:48:48.999Z</time></trkpt><trkpt lat="42.295454648803556" lon="13.928142400525566"><ele>387.0</ele><time>2026-04-19T06:48:49.999Z</time></trkpt><trkpt lat="42.295440293320546" lon="13.927931147262118"><ele>387.0</ele><time>2026-04-19T06:48:50.999Z</time></trkpt><trkpt lat="42.29542317134439" lon="13.927713548110889"><ele>386.33333333333337</ele><time>2026-04-19T06:48:51.999Z</time></trkpt><trkpt lat="42.295469882543664" lon="13.92749031402772"><ele>385.6666666666667</ele><time>2026-04-19T06:48:52.999Z</time></trkpt><trkpt lat="42.29550296169845" lon="13.927277724350628"><ele>385.0</ele><time>2026-04-19T06:48:53.999Z</time></trkpt><trkpt lat="42.29553606199677" lon="13.927086166657185"><ele>385.0</ele><time>2026-04-19T06:48:54.999Z</time></trkpt><trkpt lat="42.29555409206682" lon="13.926911494434336"><ele>385.0</ele><time>2026-04-19T06:48:55.999Z</time></trkpt><trkpt lat="42.29561027985592" lon="13.92674023603422"><ele>385.0</ele><time>2026-04-19T06:48:56.999Z</time></trkpt><trkpt lat="42.29569304138018" lon="13.926557422384517"><ele>385.0</ele><time>2026-04-19T06:48:57.999Z</time></trkpt><trkpt lat="42.29581743587039" lon="13.926385247482717"><ele>382.6666666666667</ele><time>2026-04-19T06:48:58.999Z</time></trkpt><trkpt lat="42.2959542132229" lon="13.926186751595429"><ele>380.33333333333337</ele><time>2026-04-19T06:48:59.999Z</time></trkpt><trkpt lat="42.296096234524164" lon="13.92597483119517"><ele>378.0</ele><time>2026-04-19T06:49:00.999Z</time></trkpt><trkpt lat="42.29624194486904" lon="13.925727026700995"><ele>378.3333333333333</ele><time>2026-04-19T06:49:01.999Z</time></trkpt><trkpt lat="42.29637946337077" lon="13.9255242118249"><ele>378.66666666666663</ele><time>2026-04-19T06:49:02.999Z</time></trkpt><trkpt lat="42.29650653064742" lon="13.925329568272046"><ele>379.0</ele><time>2026-04-19T06:49:03.999Z</time></trkpt><trkpt lat="42.29662596208558" lon="13.925141894484543"><ele>380.3333333333333</ele><time>2026-04-19T06:49:04.999Z</time></trkpt><trkpt lat="42.29673109513765" lon="13.924965629582799"><ele>381.6666666666667</ele><time>2026-04-19T06:49:05.999Z</time></trkpt><trkpt lat="42.296844232521984" lon="13.924763993127286"><ele>383.0</ele><time>2026-04-19T06:49:06.999Z</time></trkpt><trkpt lat="42.296952868061396" lon="13.924558140309427"><ele>383.0</ele><time>2026-04-19T06:49:07.999Z</time></trkpt><trkpt lat="42.29706333877196" lon="13.924347438247624"><ele>383.0</ele><time>2026-04-19T06:49:08.999Z</time></trkpt><trkpt lat="42.29717507013701" lon="13.924149762496471"><ele>383.0</ele><time>2026-04-19T06:49:09.999Z</time></trkpt><trkpt lat="42.29727100710723" lon="13.92398858876405"><ele>384.0</ele><time>2026-04-19T06:49:10.999Z</time></trkpt><trkpt lat="42.29734582424758" lon="13.923846130017882"><ele>385.0</ele><time>2026-04-19T06:49:12Z</time></trkpt><trkpt lat="42.29739971867619" lon="13.923685870372866"><ele>386.0</ele><time>2026-04-19T06:49:13Z</time></trkpt><trkpt lat="42.29742970143999" lon="13.923490823747176"><ele>387.0</ele><time>2026-04-19T06:49:14Z</time></trkpt><trkpt lat="42.29742377232038" lon="13.923279083784582"><ele>388.33333333333337</ele><time>2026-04-19T06:49:15Z</time></trkpt><trkpt lat="42.29739053140808" lon="13.92306823470399"><ele>389.6666666666667</ele><time>2026-04-19T06:49:16Z</time></trkpt><trkpt lat="42.297334850488994" lon="13.922849564240034"><ele>391.0</ele><time>2026-04-19T06:49:17Z</time></trkpt><trkpt lat="42.2973083893975" lon="13.922630175763612"><ele>392.75</ele><time>2026-04-19T06:49:18Z</time></trkpt><trkpt lat="42.297283747982235" lon="13.922439980491527"><ele>394.5</ele><time>2026-04-19T06:49:19Z</time></trkpt><trkpt lat="42.29726807883662" lon="13.922283310493262"><ele>396.25</ele><time>2026-04-19T06:49:20Z</time></trkpt><trkpt lat="42.297281202597155" lon="13.922126712280356"><ele>398.0</ele><time>2026-04-19T06:49:21Z</time></trkpt><trkpt lat="42.297329282501686" lon="13.921968643619055"><ele>398.0</ele><time>2026-04-19T06:49:22Z</time></trkpt><trkpt lat="42.29736537368679" lon="13.92179917026428"><ele>398.0</ele><time>2026-04-19T06:49:23Z</time></trkpt><trkpt lat="42.297377750015116" lon="13.921643403906911"><ele>398.0</ele><time>2026-04-19T06:49:24Z</time></trkpt><trkpt lat="42.297400458781105" lon="13.921531274555527"><ele>398.0</ele><time>2026-04-19T06:49:25Z</time></trkpt><trkpt lat="42.29742378191978" lon="13.921381273840506"><ele>398.0</ele><time>2026-04-19T06:49:27Z</time></trkpt><trkpt lat="42.29742767392682" lon="13.921277337097084"><ele>398.2</ele><time>2026-04-19T06:49:30Z</time></trkpt><trkpt lat="42.29745484684086" lon="13.921148802251397"><ele>398.4</ele><time>2026-04-19T06:49:33Z</time></trkpt><trkpt lat="42.29738586484592" lon="13.921040356006912"><ele>398.59999999999997</ele><time>2026-04-19T06:49:34Z</time></trkpt><trkpt lat="42.29732018033229" lon="13.920969080030984"><ele>398.79999999999995</ele><time>2026-04-19T06:49:35Z</time></trkpt><trkpt lat="42.29726102704089" lon="13.92084243603636"><ele>399.0</ele><time>2026-04-19T06:49:36Z</time></trkpt><trkpt lat="42.29716501686048" lon="13.920706885157294"><ele>400.5</ele><time>2026-04-19T06:49:37Z</time></trkpt><trkpt lat="42.29710103459343" lon="13.920549649405265"><ele>402.0</ele><time>2026-04-19T06:49:38Z</time></trkpt><trkpt lat="42.297010022815584" lon="13.920407074678817"><ele>403.5</ele><time>2026-04-19T06:49:39Z</time></trkpt><trkpt lat="42.29692536822326" lon="13.920236996058325"><ele>405.0</ele><time>2026-04-19T06:49:40Z</time></trkpt><trkpt lat="42.29683940286217" lon="13.920058344671927"><ele>405.0</ele><time>2026-04-19T06:49:41Z</time></trkpt><trkpt lat="42.29674127139744" lon="13.919854620949632"><ele>405.0</ele><time>2026-04-19T06:49:42Z</time></trkpt><trkpt lat="42.2966240089283" lon="13.91963055958544"><ele>405.0</ele><time>2026-04-19T06:49:43Z</time></trkpt><trkpt lat="42.29650478848081" lon="13.919418840495386"><ele>409.66666666666663</ele><time>2026-04-19T06:49:44Z</time></trkpt><trkpt lat="42.296404198560104" lon="13.91921886686708"><ele>414.3333333333333</ele><time>2026-04-19T06:49:45Z</time></trkpt><trkpt lat="42.29631923480866" lon="13.919025035449582"><ele>419.0</ele><time>2026-04-19T06:49:46Z</time></trkpt><trkpt lat="42.296283566441936" lon="13.91881671287649"><ele>419.0</ele><time>2026-04-19T06:49:47Z</time></trkpt><trkpt lat="42.296257944349726" lon="13.91858602042601"><ele>419.0</ele><time>2026-04-19T06:49:48Z</time></trkpt><trkpt lat="42.29624943320463" lon="13.918325240165094"><ele>419.0</ele><time>2026-04-19T06:49:49Z</time></trkpt><trkpt lat="42.29624370809075" lon="13.918079407233195"><ele>419.3333333333333</ele><time>2026-04-19T06:49:50Z</time></trkpt><trkpt lat="42.29623782502691" lon="13.917868840917174"><ele>419.66666666666663</ele><time>2026-04-19T06:49:51Z</time></trkpt><trkpt lat="42.29622467008596" lon="13.917664277790983"><ele>420.0</ele><time>2026-04-19T06:49:52Z</time></trkpt><trkpt lat="42.29621380731433" lon="13.917468984774066"><ele>420.25</ele><time>2026-04-19T06:49:53Z</time></trkpt><trkpt lat="42.29620277465152" lon="13.917265953060827"><ele>420.5</ele><time>2026-04-19T06:49:54Z</time></trkpt><trkpt lat="42.29617890706229" lon="13.917066187738119"><ele>420.75</ele><time>2026-04-19T06:49:55Z</time></trkpt><trkpt lat="42.29614226359563" lon="13.916873561436837"><ele>421.0</ele><time>2026-04-19T06:49:56Z</time></trkpt><trkpt lat="42.296080672934686" lon="13.916689336032547"><ele>421.0</ele><time>2026-04-19T06:49:57Z</time></trkpt><trkpt lat="42.29599891468837" lon="13.916519326783051"><ele>421.0</ele><time>2026-04-19T06:49:58Z</time></trkpt><trkpt lat="42.29589681202338" lon="13.916366962863927"><ele>421.0</ele><time>2026-04-19T06:49:59Z</time></trkpt><trkpt lat="42.2957918385896" lon="13.91621750493659"><ele>421.0</ele><time>2026-04-19T06:50:00Z</time></trkpt><trkpt lat="42.29570493752881" lon="13.91605019755678"><ele>421.0</ele><time>2026-04-19T06:50:01Z</time></trkpt><trkpt lat="42.29560865816477" lon="13.91588930045208"><ele>421.0</ele><time>2026-04-19T06:50:02Z</time></trkpt><trkpt lat="42.295505044989376" lon="13.915714642596445"><ele>419.33333333333337</ele><time>2026-04-19T06:50:03Z</time></trkpt><trkpt lat="42.29539510097165" lon="13.915528489476834"><ele>417.66666666666663</ele><time>2026-04-19T06:50:04Z</time></trkpt><trkpt lat="42.29527596663972" lon="13.915326775674353"><ele>416.0</ele><time>2026-04-19T06:50:05Z</time></trkpt><trkpt lat="42.29515486423835" lon="13.915124532292772"><ele>417.0</ele><time>2026-04-19T06:50:06Z</time></trkpt><trkpt lat="42.29502931095309" lon="13.914917539012826"><ele>418.0</ele><time>2026-04-19T06:50:07Z</time></trkpt><trkpt lat="42.29491210795472" lon="13.914722761908932"><ele>419.0</ele><time>2026-04-19T06:50:08Z</time></trkpt><trkpt lat="42.29481425141639" lon="13.914544577900635"><ele>417.66666666666663</ele><time>2026-04-19T06:50:09Z</time></trkpt><trkpt lat="42.29473792074057" lon="13.914373317894924"><ele>416.33333333333337</ele><time>2026-04-19T06:50:10Z</time></trkpt><trkpt lat="42.29468582395821" lon="13.91417912316877"><ele>415.0</ele><time>2026-04-19T06:50:11Z</time></trkpt><trkpt lat="42.29465977195075" lon="13.913943926919465"><ele>415.0</ele><time>2026-04-19T06:50:12Z</time></trkpt><trkpt lat="42.29464580799515" lon="13.913688867404446"><ele>415.0</ele><time>2026-04-19T06:50:13Z</time></trkpt><trkpt lat="42.29461777496469" lon="13.91345313835961"><ele>415.0</ele><time>2026-04-19T06:50:13.999Z</time></trkpt><trkpt lat="42.294605248427544" lon="13.913247547782113"><ele>415.0</ele><time>2026-04-19T06:50:14.999Z</time></trkpt><trkpt lat="42.29459476813946" lon="13.913043109177785"><ele>415.0</ele><time>2026-04-19T06:50:15.999Z</time></trkpt><trkpt lat="42.29458217297459" lon="13.912853962636312"><ele>415.0</ele><time>2026-04-19T06:50:16.999Z</time></trkpt><trkpt lat="42.29456057498152" lon="13.91266052234726"><ele>415.0</ele><time>2026-04-19T06:50:17.999Z</time></trkpt><trkpt lat="42.29453733955143" lon="13.9124546676575"><ele>415.0</ele><time>2026-04-19T06:50:18.999Z</time></trkpt><trkpt lat="42.29448454716724" lon="13.912251363434562"><ele>415.0</ele><time>2026-04-19T06:50:19.999Z</time></trkpt><trkpt lat="42.29441497447334" lon="13.912048626551021"><ele>415.0</ele><time>2026-04-19T06:50:20.999Z</time></trkpt><trkpt lat="42.294337971615235" lon="13.911857734135918"><ele>416.33333333333337</ele><time>2026-04-19T06:50:21.999Z</time></trkpt><trkpt lat="42.29425793617438" lon="13.911674841779199"><ele>417.66666666666663</ele><time>2026-04-19T06:50:22.999Z</time></trkpt><trkpt lat="42.29419494615314" lon="13.911474093904205"><ele>419.0</ele><time>2026-04-19T06:50:23.999Z</time></trkpt><trkpt lat="42.2940992088364" lon="13.91128015237391"><ele>419.0</ele><time>2026-04-19T06:50:24.999Z</time></trkpt><trkpt lat="42.294028665760194" lon="13.911058158850926"><ele>419.0</ele><time>2026-04-19T06:50:25.999Z</time></trkpt><trkpt lat="42.29394272708628" lon="13.910843238337904"><ele>419.0</ele><time>2026-04-19T06:50:26.999Z</time></trkpt><trkpt lat="42.29384505651044" lon="13.910644295295954"><ele>416.3333333333333</ele><time>2026-04-19T06:50:27.999Z</time></trkpt><trkpt lat="42.2937801932041" lon="13.910426106223106"><ele>413.66666666666663</ele><time>2026-04-19T06:50:28.999Z</time></trkpt><trkpt lat="42.293697608405765" lon="13.910187752574846"><ele>411.0</ele><time>2026-04-19T06:50:29.999Z</time></trkpt><trkpt lat="42.29362399531003" lon="13.909924071044697"><ele>411.0</ele><time>2026-04-19T06:50:30.999Z</time></trkpt><trkpt lat="42.29356549698755" lon="13.909678560408201"><ele>411.0</ele><time>2026-04-19T06:50:31.999Z</time></trkpt><trkpt lat="42.29351136489686" lon="13.90945480545259"><ele>411.0</ele><time>2026-04-19T06:50:32.999Z</time></trkpt><trkpt lat="42.293455486332086" lon="13.909238387026651"><ele>413.33333333333337</ele><time>2026-04-19T06:50:33.999Z</time></trkpt><trkpt lat="42.293375319194354" lon="13.909045383696409"><ele>415.6666666666667</ele><time>2026-04-19T06:50:34.999Z</time></trkpt><trkpt lat="42.293286392785184" lon="13.908855895658272"><ele>418.0</ele><time>2026-04-19T06:50:35.999Z</time></trkpt><trkpt lat="42.293158241623985" lon="13.90867251266693"><ele>418.6666666666667</ele><time>2026-04-19T06:50:36.999Z</time></trkpt><trkpt lat="42.29301983825962" lon="13.908506260332166"><ele>419.33333333333337</ele><time>2026-04-19T06:50:37.999Z</time></trkpt><trkpt lat="42.292885701310794" lon="13.908354832866653"><ele>420.0</ele><time>2026-04-19T06:50:38.999Z</time></trkpt><trkpt lat="42.292770227140494" lon="13.908222309294663"><ele>420.0</ele><time>2026-04-19T06:50:39.999Z</time></trkpt><trkpt lat="42.29266461744712" lon="13.908094011785993"><ele>420.0</ele><time>2026-04-19T06:50:40.999Z</time></trkpt><trkpt lat="42.292555281808916" lon="13.907956161598385"><ele>420.0</ele><time>2026-04-19T06:50:41.999Z</time></trkpt><trkpt lat="42.29244120105552" lon="13.907827943801315"><ele>420.0</ele><time>2026-04-19T06:50:42.999Z</time></trkpt><trkpt lat="42.292319821936104" lon="13.90772608929016"><ele>420.5</ele><time>2026-04-19T06:50:43.999Z</time></trkpt><trkpt lat="42.292190078377146" lon="13.907663380486685"><ele>421.0</ele><time>2026-04-19T06:50:44.999Z</time></trkpt><trkpt lat="42.29205272652326" lon="13.907662656133192"><ele>421.5</ele><time>2026-04-19T06:50:45.999Z</time></trkpt><trkpt lat="42.291915805800095" lon="13.90768804504632"><ele>422.0</ele><time>2026-04-19T06:50:46.999Z</time></trkpt><trkpt lat="42.2917889164266" lon="13.907726479336745"><ele>422.0</ele><time>2026-04-19T06:50:47.999Z</time></trkpt><trkpt lat="42.29166991745891" lon="13.907759030782803"><ele>422.0</ele><time>2026-04-19T06:50:48.999Z</time></trkpt><trkpt lat="42.29154994323257" lon="13.907757198473012"><ele>422.0</ele><time>2026-04-19T06:50:49.999Z</time></trkpt><trkpt lat="42.29143774494323" lon="13.907714872580497"><ele>422.0</ele><time>2026-04-19T06:50:50.999Z</time></trkpt><trkpt lat="42.29133826817351" lon="13.907647494030417"><ele>424.0</ele><time>2026-04-19T06:50:51.999Z</time></trkpt><trkpt lat="42.29125800297165" lon="13.907534902617488"><ele>426.0</ele><time>2026-04-19T06:50:52.999Z</time></trkpt><trkpt lat="42.29118304003621" lon="13.907421578529306"><ele>428.0</ele><time>2026-04-19T06:50:53.999Z</time></trkpt><trkpt lat="42.29109369196936" lon="13.907315705466567"><ele>430.0</ele><time>2026-04-19T06:50:54.999Z</time></trkpt><trkpt lat="42.29103086665892" lon="13.907177563981215"><ele>430.0</ele><time>2026-04-19T06:50:55.999Z</time></trkpt><trkpt lat="42.290956227091236" lon="13.907052214405779"><ele>430.0</ele><time>2026-04-19T06:50:56.999Z</time></trkpt><trkpt lat="42.29088173794371" lon="13.906929117568621"><ele>430.0</ele><time>2026-04-19T06:50:57.999Z</time></trkpt><trkpt lat="42.290797799498286" lon="13.90681662422626"><ele>430.0</ele><time>2026-04-19T06:50:58.999Z</time></trkpt><trkpt lat="42.29072268074453" lon="13.906693437712546"><ele>431.0</ele><time>2026-04-19T06:50:59.999Z</time></trkpt><trkpt lat="42.29064486165848" lon="13.906568654693954"><ele>432.0</ele><time>2026-04-19T06:51:00.999Z</time></trkpt><trkpt lat="42.2905682368789" lon="13.906445276804945"><ele>433.0</ele><time>2026-04-19T06:51:01.999Z</time></trkpt><trkpt lat="42.29048557372081" lon="13.906331479955995"><ele>434.0</ele><time>2026-04-19T06:51:02.999Z</time></trkpt><trkpt lat="42.29038999617795" lon="13.90623419126498"><ele>434.0</ele><time>2026-04-19T06:51:03.999Z</time></trkpt><trkpt lat="42.29028081259526" lon="13.90616811902287"><ele>434.0</ele><time>2026-04-19T06:51:04.999Z</time></trkpt><trkpt lat="42.29016303955211" lon="13.90612883352528"><ele>434.0</ele><time>2026-04-19T06:51:05.999Z</time></trkpt><trkpt lat="42.29003588459767" lon="13.906111625741316"><ele>434.0</ele><time>2026-04-19T06:51:06.999Z</time></trkpt><trkpt lat="42.28990839390498" lon="13.906119372563207"><ele>434.0</ele><time>2026-04-19T06:51:07.999Z</time></trkpt><trkpt lat="42.28977661901422" lon="13.906135909712638"><ele>434.0</ele><time>2026-04-19T06:51:08.999Z</time></trkpt><trkpt lat="42.289643445748446" lon="13.9061519609418"><ele>434.0</ele><time>2026-04-19T06:51:09.999Z</time></trkpt><trkpt lat="42.28951858852899" lon="13.906150820538068"><ele>434.0</ele><time>2026-04-19T06:51:10.999Z</time></trkpt><trkpt lat="42.289390593864574" lon="13.906144621503946"><ele>433.75</ele><time>2026-04-19T06:51:11.999Z</time></trkpt><trkpt lat="42.28927039262347" lon="13.906134049331897"><ele>433.5</ele><time>2026-04-19T06:51:12.999Z</time></trkpt><trkpt lat="42.28916800832828" lon="13.906083357024945"><ele>433.25</ele><time>2026-04-19T06:51:13.999Z</time></trkpt><trkpt lat="42.28905049377443" lon="13.90603248778902"><ele>433.0</ele><time>2026-04-19T06:51:14.999Z</time></trkpt><trkpt lat="42.28893834470661" lon="13.905970615731512"><ele>433.5</ele><time>2026-04-19T06:51:15.999Z</time></trkpt><trkpt lat="42.28882203219357" lon="13.905910029495123"><ele>434.0</ele><time>2026-04-19T06:51:16.999Z</time></trkpt><trkpt lat="42.288698861719865" lon="13.905887293558731"><ele>434.5</ele><time>2026-04-19T06:51:18Z</time></trkpt><trkpt lat="42.288576332897925" lon="13.905881699629257"><ele>435.0</ele><time>2026-04-19T06:51:19Z</time></trkpt><trkpt lat="42.28845367568254" lon="13.905919676404368"><ele>435.0</ele><time>2026-04-19T06:51:20Z</time></trkpt><trkpt lat="42.288334806027876" lon="13.90596309027893"><ele>435.0</ele><time>2026-04-19T06:51:21Z</time></trkpt><trkpt lat="42.28821424441536" lon="13.90597244158806"><ele>435.0</ele><time>2026-04-19T06:51:22Z</time></trkpt><trkpt lat="42.28809426591247" lon="13.905988821805575"><ele>435.0</ele><time>2026-04-19T06:51:23Z</time></trkpt><trkpt lat="42.28796395774749" lon="13.905992187912755"><ele>436.75</ele><time>2026-04-19T06:51:24Z</time></trkpt><trkpt lat="42.28783395632803" lon="13.905979469571266"><ele>438.5</ele><time>2026-04-19T06:51:25Z</time></trkpt><trkpt lat="42.287702361635255" lon="13.90596334054284"><ele>440.25</ele><time>2026-04-19T06:51:26Z</time></trkpt><trkpt lat="42.28759015276215" lon="13.905919490142766"><ele>442.0</ele><time>2026-04-19T06:51:27Z</time></trkpt><trkpt lat="42.2874867229274" lon="13.905862673452807"><ele>442.6</ele><time>2026-04-19T06:51:28Z</time></trkpt><trkpt lat="42.28739551560591" lon="13.90579458742741"><ele>443.20000000000005</ele><time>2026-04-19T06:51:29Z</time></trkpt><trkpt lat="42.2873081742944" lon="13.905705309717684"><ele>443.8</ele><time>2026-04-19T06:51:30Z</time></trkpt><trkpt lat="42.28721899136245" lon="13.90560438955728"><ele>444.4</ele><time>2026-04-19T06:51:31Z</time></trkpt><trkpt lat="42.287120577949956" lon="13.905517803022732"><ele>445.0</ele><time>2026-04-19T06:51:32Z</time></trkpt><trkpt lat="42.2870349262781" lon="13.905406467507861"><ele>445.00000000000006</ele><time>2026-04-19T06:51:33Z</time></trkpt><trkpt lat="42.28695573231761" lon="13.905304592866006"><ele>445.0</ele><time>2026-04-19T06:51:34Z</time></trkpt><trkpt lat="42.28688322833657" lon="13.905217052131889"><ele>445.0</ele><time>2026-04-19T06:51:35Z</time></trkpt><trkpt lat="42.2868236525617" lon="13.90514085237071"><ele>445.0</ele><time>2026-04-19T06:51:36Z</time></trkpt><trkpt lat="42.286788669419984" lon="13.905054661329892"><ele>445.00000000000006</ele><time>2026-04-19T06:51:37Z</time></trkpt><trkpt lat="42.286772808416096" lon="13.904968814067393"><ele>445.0</ele><time>2026-04-19T06:51:38Z</time></trkpt><trkpt lat="42.286726531439626" lon="13.904889575219006"><ele>445.0</ele><time>2026-04-19T06:51:40Z</time></trkpt><trkpt lat="42.28692389801179" lon="13.904735729198146"><ele>445.0</ele><time>2026-04-19T06:51:41Z</time></trkpt><trkpt lat="42.28703327571849" lon="13.904643895558298"><ele>445.0</ele><time>2026-04-19T06:51:42Z</time></trkpt><trkpt lat="42.287159158652514" lon="13.904523411646458"><ele>446.0</ele><time>2026-04-19T06:51:43Z</time></trkpt><trkpt lat="42.28727897670867" lon="13.904405995465313"><ele>447.0</ele><time>2026-04-19T06:51:44Z</time></trkpt><trkpt lat="42.28737451251864" lon="13.904265958274435"><ele>448.0</ele><time>2026-04-19T06:51:45Z</time></trkpt><trkpt lat="42.287454336192994" lon="13.904087438470029"><ele>449.0</ele><time>2026-04-19T06:51:46Z</time></trkpt><trkpt lat="42.28751472123106" lon="13.903851413504919"><ele>449.3333333333333</ele><time>2026-04-19T06:51:47Z</time></trkpt><trkpt lat="42.28754890347812" lon="13.903583989993672"><ele>449.66666666666663</ele><time>2026-04-19T06:51:48Z</time></trkpt><trkpt lat="42.28757551373877" lon="13.903277242025224"><ele>450.0</ele><time>2026-04-19T06:51:49Z</time></trkpt><trkpt lat="42.287605023227144" lon="13.902984969790605"><ele>450.66666666666663</ele><time>2026-04-19T06:51:50Z</time></trkpt><trkpt lat="42.2876416772904" lon="13.902690843379633"><ele>451.3333333333333</ele><time>2026-04-19T06:51:51Z</time></trkpt><trkpt lat="42.28767676156983" lon="13.902420439929164"><ele>452.0</ele><time>2026-04-19T06:51:52Z</time></trkpt><trkpt lat="42.28770549248804" lon="13.902157408339361"><ele>452.66666666666663</ele><time>2026-04-19T06:51:53Z</time></trkpt><trkpt lat="42.287712039027674" lon="13.901895971896822"><ele>453.33333333333337</ele><time>2026-04-19T06:51:54Z</time></trkpt><trkpt lat="42.287693453903785" lon="13.901613898155329"><ele>454.0</ele><time>2026-04-19T06:51:55Z</time></trkpt><trkpt lat="42.287635754319965" lon="13.901311215282293"><ele>455.33333333333337</ele><time>2026-04-19T06:51:56Z</time></trkpt><trkpt lat="42.28757081277747" lon="13.901013646972052"><ele>456.66666666666663</ele><time>2026-04-19T06:51:57Z</time></trkpt><trkpt lat="42.28752016303678" lon="13.900744912375385"><ele>458.0</ele><time>2026-04-19T06:51:58Z</time></trkpt><trkpt lat="42.28747659798233" lon="13.90050095350732"><ele>459.25</ele><time>2026-04-19T06:51:59Z</time></trkpt><trkpt lat="42.28744956560675" lon="13.900280937733557"><ele>460.5</ele><time>2026-04-19T06:51:59.999Z</time></trkpt><trkpt lat="42.287413880816665" lon="13.900084350517634"><ele>461.75</ele><time>2026-04-19T06:52:00.999Z</time></trkpt><trkpt lat="42.28738435809572" lon="13.899917310997658"><ele>463.0</ele><time>2026-04-19T06:52:01.999Z</time></trkpt><trkpt lat="42.28737559044316" lon="13.899786897076014"><ele>463.83333333333337</ele><time>2026-04-19T06:52:02.999Z</time></trkpt><trkpt lat="42.287394381130454" lon="13.899697722692391"><ele>464.6666666666667</ele><time>2026-04-19T06:52:03.999Z</time></trkpt><trkpt lat="42.287435732828456" lon="13.89960354701769"><ele>465.5</ele><time>2026-04-19T06:52:04.999Z</time></trkpt><trkpt lat="42.28751131621532" lon="13.89956201961869"><ele>466.33333333333337</ele><time>2026-04-19T06:52:05.999Z</time></trkpt><trkpt lat="42.287603085581374" lon="13.899584577841015"><ele>467.1666666666667</ele><time>2026-04-19T06:52:06.999Z</time></trkpt><trkpt lat="42.28770494845807" lon="13.899679731883019"><ele>468.0</ele><time>2026-04-19T06:52:07.999Z</time></trkpt><trkpt lat="42.28775981088167" lon="13.899854018831498"><ele>468.0</ele><time>2026-04-19T06:52:08.999Z</time></trkpt><trkpt lat="42.28785644899909" lon="13.900061733294967"><ele>468.0</ele><time>2026-04-19T06:52:09.999Z</time></trkpt><trkpt lat="42.28796946443752" lon="13.900273014671091"><ele>468.0</ele><time>2026-04-19T06:52:10.999Z</time></trkpt><trkpt lat="42.28807188048951" lon="13.900490163300551"><ele>470.66666666666663</ele><time>2026-04-19T06:52:11.999Z</time></trkpt><trkpt lat="42.288167622425235" lon="13.900679676264076"><ele>473.3333333333333</ele><time>2026-04-19T06:52:12.999Z</time></trkpt><trkpt lat="42.288250763674164" lon="13.90085117245222"><ele>476.0</ele><time>2026-04-19T06:52:13.999Z</time></trkpt><trkpt lat="42.28832226109285" lon="13.901001244364641"><ele>476.0</ele><time>2026-04-19T06:52:14.999Z</time></trkpt><trkpt lat="42.2883984229388" lon="13.90112306439714"><ele>476.0</ele><time>2026-04-19T06:52:15.999Z</time></trkpt><trkpt lat="42.28848018524934" lon="13.90117427893519"><ele>476.0</ele><time>2026-04-19T06:52:16.999Z</time></trkpt><trkpt lat="42.288567791272754" lon="13.901184055367203"><ele>476.0</ele><time>2026-04-19T06:52:17.999Z</time></trkpt><trkpt lat="42.288641517122926" lon="13.90115502909124"><ele>476.0</ele><time>2026-04-19T06:52:18.999Z</time></trkpt><trkpt lat="42.28869233498447" lon="13.901020780893907"><ele>476.5</ele><time>2026-04-19T06:52:19.999Z</time></trkpt><trkpt lat="42.288716408773666" lon="13.900879434027686"><ele>477.0</ele><time>2026-04-19T06:52:20.999Z</time></trkpt><trkpt lat="42.28870536107933" lon="13.900683609326197"><ele>477.5</ele><time>2026-04-19T06:52:21.999Z</time></trkpt><trkpt lat="42.288660142691285" lon="13.900445537572717"><ele>478.0</ele><time>2026-04-19T06:52:22.999Z</time></trkpt><trkpt lat="42.28864404711701" lon="13.900173637291116"><ele>480.0</ele><time>2026-04-19T06:52:23.999Z</time></trkpt><trkpt lat="42.28862501658637" lon="13.89989219472254"><ele>482.0</ele><time>2026-04-19T06:52:24.999Z</time></trkpt><trkpt lat="42.28858989708195" lon="13.89956768220438"><ele>485.5</ele><time>2026-04-19T06:52:25.999Z</time></trkpt><trkpt lat="42.288568630253145" lon="13.899237551573995"><ele>489.0</ele><time>2026-04-19T06:52:26.999Z</time></trkpt><trkpt lat="42.28853472351061" lon="13.898913241834698"><ele>489.0</ele><time>2026-04-19T06:52:27.999Z</time></trkpt><trkpt lat="42.2885079110606" lon="13.898591531617495"><ele>489.0</ele><time>2026-04-19T06:52:28.999Z</time></trkpt><trkpt lat="42.28848281035974" lon="13.898299185864666"><ele>490.0</ele><time>2026-04-19T06:52:29.999Z</time></trkpt><trkpt lat="42.28845889331004" lon="13.898034561460804"><ele>491.0</ele><time>2026-04-19T06:52:30.999Z</time></trkpt><trkpt lat="42.28843965222616" lon="13.8977886401456"><ele>492.0</ele><time>2026-04-19T06:52:31.999Z</time></trkpt><trkpt lat="42.28842111543082" lon="13.897549421350996"><ele>492.5</ele><time>2026-04-19T06:52:32.999Z</time></trkpt><trkpt lat="42.28842198707387" lon="13.897333555837454"><ele>493.0</ele><time>2026-04-19T06:52:33.999Z</time></trkpt><trkpt lat="42.28841468176537" lon="13.897143178538917"><ele>493.5</ele><time>2026-04-19T06:52:34.999Z</time></trkpt><trkpt lat="42.28841308026537" lon="13.896969801978974"><ele>494.0</ele><time>2026-04-19T06:52:35.999Z</time></trkpt><trkpt lat="42.288489977023175" lon="13.896811654344631"><ele>494.3333333333333</ele><time>2026-04-19T06:52:36.999Z</time></trkpt><trkpt lat="42.288550385315034" lon="13.89662651848147"><ele>494.66666666666663</ele><time>2026-04-19T06:52:37.999Z</time></trkpt><trkpt lat="42.288668565336444" lon="13.896446675440544"><ele>495.0</ele><time>2026-04-19T06:52:38.999Z</time></trkpt><trkpt lat="42.2887899374184" lon="13.896257113125378"><ele>495.0</ele><time>2026-04-19T06:52:39.999Z</time></trkpt><trkpt lat="42.28890618728362" lon="13.896062627233512"><ele>495.0</ele><time>2026-04-19T06:52:40.999Z</time></trkpt><trkpt lat="42.28902194893317" lon="13.895859742263644"><ele>495.0</ele><time>2026-04-19T06:52:41.999Z</time></trkpt><trkpt lat="42.28913977527712" lon="13.895651106845122"><ele>496.0</ele><time>2026-04-19T06:52:42.999Z</time></trkpt><trkpt lat="42.28924822574378" lon="13.895461987873126"><ele>497.0</ele><time>2026-04-19T06:52:43.999Z</time></trkpt><trkpt lat="42.28934015179874" lon="13.895291853342952"><ele>498.0</ele><time>2026-04-19T06:52:44.999Z</time></trkpt><trkpt lat="42.28941310750443" lon="13.895120067748472"><ele>498.66666666666663</ele><time>2026-04-19T06:52:45.999Z</time></trkpt><trkpt lat="42.28947081067959" lon="13.894924643521849"><ele>499.3333333333333</ele><time>2026-04-19T06:52:46.999Z</time></trkpt><trkpt lat="42.289492925499424" lon="13.89470550013873"><ele>500.0</ele><time>2026-04-19T06:52:47.999Z</time></trkpt><trkpt lat="42.28950264217219" lon="13.894441227478389"><ele>501.3333333333333</ele><time>2026-04-19T06:52:48.999Z</time></trkpt><trkpt lat="42.28949369380001" lon="13.894169743203369"><ele>502.66666666666663</ele><time>2026-04-19T06:52:49.999Z</time></trkpt><trkpt lat="42.28947788780343" lon="13.893875689453429"><ele>504.0</ele><time>2026-04-19T06:52:50.999Z</time></trkpt><trkpt lat="42.28946183601116" lon="13.893570391486989"><ele>505.66666666666663</ele><time>2026-04-19T06:52:51.999Z</time></trkpt><trkpt lat="42.28945056887196" lon="13.8932682200095"><ele>507.3333333333333</ele><time>2026-04-19T06:52:52.999Z</time></trkpt><trkpt lat="42.28944082761368" lon="13.892964231851561"><ele>509.0</ele><time>2026-04-19T06:52:53.999Z</time></trkpt><trkpt lat="42.28942894692755" lon="13.892649303574077"><ele>509.0</ele><time>2026-04-19T06:52:54.999Z</time></trkpt><trkpt lat="42.28941708431583" lon="13.89232604041126"><ele>509.0</ele><time>2026-04-19T06:52:55.999Z</time></trkpt><trkpt lat="42.28940578706482" lon="13.892007556574066"><ele>512.0</ele><time>2026-04-19T06:52:56.999Z</time></trkpt><trkpt lat="42.28938132105102" lon="13.891681565873466"><ele>515.0</ele><time>2026-04-19T06:52:57.999Z</time></trkpt><trkpt lat="42.28934566092279" lon="13.891358418637665"><ele>515.0</ele><time>2026-04-19T06:52:58.999Z</time></trkpt><trkpt lat="42.289319505989795" lon="13.89103675287311"><ele>515.0</ele><time>2026-04-19T06:52:59.999Z</time></trkpt><trkpt lat="42.28928344903484" lon="13.890742942025447"><ele>516.3333333333333</ele><time>2026-04-19T06:53:00.999Z</time></trkpt><trkpt lat="42.28925003570967" lon="13.890470672842596"><ele>517.6666666666666</ele><time>2026-04-19T06:53:01.999Z</time></trkpt><trkpt lat="42.2892197216455" lon="13.890212300479735"><ele>519.0</ele><time>2026-04-19T06:53:02.999Z</time></trkpt><trkpt lat="42.2891902909156" lon="13.889945155186046"><ele>521.0</ele><time>2026-04-19T06:53:03.999Z</time></trkpt><trkpt lat="42.28916794912914" lon="13.889686079276862"><ele>523.0</ele><time>2026-04-19T06:53:04.999Z</time></trkpt><trkpt lat="42.28917819351651" lon="13.889421453571503"><ele>525.0</ele><time>2026-04-19T06:53:05.999Z</time></trkpt><trkpt lat="42.289194127333126" lon="13.889149084854447"><ele>525.0</ele><time>2026-04-19T06:53:06.999Z</time></trkpt><trkpt lat="42.28921171505392" lon="13.888882297883994"><ele>525.0</ele><time>2026-04-19T06:53:07.999Z</time></trkpt><trkpt lat="42.28923882703421" lon="13.888638114524554"><ele>525.0</ele><time>2026-04-19T06:53:08.999Z</time></trkpt><trkpt lat="42.28928580759434" lon="13.888411028875325"><ele>525.0</ele><time>2026-04-19T06:53:09.999Z</time></trkpt><trkpt lat="42.28936460006853" lon="13.888207743577205"><ele>525.0</ele><time>2026-04-19T06:53:10.999Z</time></trkpt><trkpt lat="42.28946976723829" lon="13.888015465095002"><ele>525.0</ele><time>2026-04-19T06:53:11.999Z</time></trkpt><trkpt lat="42.28959873410719" lon="13.887830017680082"><ele>525.0</ele><time>2026-04-19T06:53:12.999Z</time></trkpt><trkpt lat="42.28970287985393" lon="13.887663170006501"><ele>525.0</ele><time>2026-04-19T06:53:13.999Z</time></trkpt><trkpt lat="42.289798161668294" lon="13.88752007036407"><ele>525.0</ele><time>2026-04-19T06:53:14.999Z</time></trkpt><trkpt lat="42.28984315937564" lon="13.887357865487415"><ele>525.0</ele><time>2026-04-19T06:53:15.999Z</time></trkpt><trkpt lat="42.28985244354496" lon="13.887190632270746"><ele>523.6666666666666</ele><time>2026-04-19T06:53:16.999Z</time></trkpt><trkpt lat="42.28981162169101" lon="13.887021026455924"><ele>522.3333333333333</ele><time>2026-04-19T06:53:17.999Z</time></trkpt><trkpt lat="42.28972556982746" lon="13.886849464004037"><ele>521.0</ele><time>2026-04-19T06:53:18.999Z</time></trkpt><trkpt lat="42.28964313941894" lon="13.886656161013844"><ele>524.3333333333333</ele><time>2026-04-19T06:53:19.999Z</time></trkpt><trkpt lat="42.289557368946944" lon="13.886451043181363"><ele>527.6666666666666</ele><time>2026-04-19T06:53:20.999Z</time></trkpt><trkpt lat="42.289380367040906" lon="13.886353537179104"><ele>531.0</ele><time>2026-04-19T06:53:21.999Z</time></trkpt><trkpt lat="42.2893159987559" lon="13.886209318740613"><ele>531.0</ele><time>2026-04-19T06:53:22.999Z</time></trkpt><trkpt lat="42.28930565496677" lon="13.886075844889659"><ele>531.0</ele><time>2026-04-19T06:53:23.999Z</time></trkpt><trkpt lat="42.2893350771651" lon="13.88594007584171"><ele>531.0</ele><time>2026-04-19T06:53:24.999Z</time></trkpt><trkpt lat="42.289396304293795" lon="13.885789310558284"><ele>531.0</ele><time>2026-04-19T06:53:25.999Z</time></trkpt><trkpt lat="42.2894918655172" lon="13.885647339617329"><ele>532.0</ele><time>2026-04-19T06:53:26.999Z</time></trkpt><trkpt lat="42.28959644287281" lon="13.88553083404268"><ele>533.0</ele><time>2026-04-19T06:53:27.999Z</time></trkpt><trkpt lat="42.289662273286034" lon="13.885407738112113"><ele>534.0</ele><time>2026-04-19T06:53:28.999Z</time></trkpt><trkpt lat="42.28966920474197" lon="13.885266145526211"><ele>535.0</ele><time>2026-04-19T06:53:29.999Z</time></trkpt><trkpt lat="42.2896185127566" lon="13.885130770761318"><ele>537.0</ele><time>2026-04-19T06:53:30.999Z</time></trkpt><trkpt lat="42.2895173411715" lon="13.88501076593818"><ele>539.0</ele><time>2026-04-19T06:53:31.999Z</time></trkpt><trkpt lat="42.28939016344183" lon="13.884889642141456"><ele>541.0</ele><time>2026-04-19T06:53:32.999Z</time></trkpt><trkpt lat="42.289262886814235" lon="13.88474121942464"><ele>541.0</ele><time>2026-04-19T06:53:33.999Z</time></trkpt><trkpt lat="42.2891390166461" lon="13.884556359038406"><ele>541.0</ele><time>2026-04-19T06:53:34.999Z</time></trkpt><trkpt lat="42.2890027361609" lon="13.884346511272879"><ele>541.0</ele><time>2026-04-19T06:53:35.999Z</time></trkpt><trkpt lat="42.28888753764216" lon="13.88414522995638"><ele>538.6666666666667</ele><time>2026-04-19T06:53:36.999Z</time></trkpt><trkpt lat="42.288775672454335" lon="13.883943161676397"><ele>536.3333333333334</ele><time>2026-04-19T06:53:37.999Z</time></trkpt><trkpt lat="42.28866514110103" lon="13.883745850946422"><ele>534.0</ele><time>2026-04-19T06:53:38.999Z</time></trkpt><trkpt lat="42.2885693265631" lon="13.883569783236261"><ele>536.75</ele><time>2026-04-19T06:53:39.999Z</time></trkpt><trkpt lat="42.28850251421812" lon="13.88342053061869"><ele>539.5</ele><time>2026-04-19T06:53:40.999Z</time></trkpt><trkpt lat="42.288475948146726" lon="13.883275693063023"><ele>542.25</ele><time>2026-04-19T06:53:41.999Z</time></trkpt><trkpt lat="42.28848217622308" lon="13.883134975031137"><ele>545.0</ele><time>2026-04-19T06:53:42.999Z</time></trkpt><trkpt lat="42.28851728493786" lon="13.882991841309957"><ele>545.0</ele><time>2026-04-19T06:53:43.999Z</time></trkpt><trkpt lat="42.2885851538282" lon="13.882843187072114"><ele>545.0</ele><time>2026-04-19T06:53:44.999Z</time></trkpt><trkpt lat="42.28864493502291" lon="13.882671037640444"><ele>545.0</ele><time>2026-04-19T06:53:45.999Z</time></trkpt><trkpt lat="42.2886672427255" lon="13.882470483100006"><ele>545.0</ele><time>2026-04-19T06:53:46.999Z</time></trkpt><trkpt lat="42.28865770428049" lon="13.88226191455132"><ele>545.0</ele><time>2026-04-19T06:53:47.999Z</time></trkpt><trkpt lat="42.28862104958095" lon="13.882079771146532"><ele>545.0</ele><time>2026-04-19T06:53:48.999Z</time></trkpt><trkpt lat="42.288567869295996" lon="13.881908641468508"><ele>545.0</ele><time>2026-04-19T06:53:49.999Z</time></trkpt><trkpt lat="42.28850464200103" lon="13.881721101420409"><ele>545.0</ele><time>2026-04-19T06:53:50.999Z</time></trkpt><trkpt lat="42.28844662121751" lon="13.881524891023153"><ele>545.6666666666666</ele><time>2026-04-19T06:53:51.999Z</time></trkpt><trkpt lat="42.28839234949556" lon="13.881313504737733"><ele>546.3333333333334</ele><time>2026-04-19T06:53:52.999Z</time></trkpt><trkpt lat="42.28833889788276" lon="13.881095884935915"><ele>547.0</ele><time>2026-04-19T06:53:53.999Z</time></trkpt><trkpt lat="42.2882949329594" lon="13.88088689318912"><ele>549.3333333333334</ele><time>2026-04-19T06:53:54.999Z</time></trkpt><trkpt lat="42.28826389907552" lon="13.880657612687923"><ele>551.6666666666666</ele><time>2026-04-19T06:53:55.999Z</time></trkpt><trkpt lat="42.288253048107926" lon="13.88041954406725"><ele>554.0</ele><time>2026-04-19T06:53:56.999Z</time></trkpt><trkpt lat="42.28825440681025" lon="13.880173125996329"><ele>554.3333333333333</ele><time>2026-04-19T06:53:57.999Z</time></trkpt><trkpt lat="42.28826589299843" lon="13.879924003388801"><ele>554.6666666666666</ele><time>2026-04-19T06:53:58.999Z</time></trkpt><trkpt lat="42.28828833676935" lon="13.879674686925592"><ele>555.0</ele><time>2026-04-19T06:53:59.999Z</time></trkpt><trkpt lat="42.288330104229836" lon="13.879424960141153"><ele>554.6666666666666</ele><time>2026-04-19T06:54:00.999Z</time></trkpt><trkpt lat="42.288377346163536" lon="13.879171444179034"><ele>554.3333333333333</ele><time>2026-04-19T06:54:01.999Z</time></trkpt><trkpt lat="42.28841719002073" lon="13.878923714680646"><ele>554.0</ele><time>2026-04-19T06:54:02.999Z</time></trkpt><trkpt lat="42.2884390575173" lon="13.878700891462731"><ele>554.0</ele><time>2026-04-19T06:54:03.999Z</time></trkpt><trkpt lat="42.28844476497604" lon="13.878492945993457"><ele>554.0</ele><time>2026-04-19T06:54:04.999Z</time></trkpt><trkpt lat="42.28844147862335" lon="13.878275039514088"><ele>554.0</ele><time>2026-04-19T06:54:05.999Z</time></trkpt><trkpt lat="42.288442606328104" lon="13.878062238013163"><ele>554.5</ele><time>2026-04-19T06:54:06.999Z</time></trkpt><trkpt lat="42.288453618065795" lon="13.877868026387489"><ele>555.0</ele><time>2026-04-19T06:54:07.999Z</time></trkpt><trkpt lat="42.28848149699184" lon="13.877704728178804"><ele>555.5</ele><time>2026-04-19T06:54:08.999Z</time></trkpt><trkpt lat="42.28852809627836" lon="13.877569124574977"><ele>556.0</ele><time>2026-04-19T06:54:09.999Z</time></trkpt><trkpt lat="42.28860615317946" lon="13.877438075192567"><ele>555.0</ele><time>2026-04-19T06:54:10.999Z</time></trkpt><trkpt lat="42.288712341848516" lon="13.877313954230273"><ele>554.0</ele><time>2026-04-19T06:54:11.999Z</time></trkpt><trkpt lat="42.28882849083275" lon="13.87719554871776"><ele>553.0</ele><time>2026-04-19T06:54:12.999Z</time></trkpt><trkpt lat="42.28892350845131" lon="13.877078716702503"><ele>552.0</ele><time>2026-04-19T06:54:13.999Z</time></trkpt><trkpt lat="42.28899923921352" lon="13.876971511082479"><ele>555.2</ele><time>2026-04-19T06:54:14.999Z</time></trkpt><trkpt lat="42.28905798686607" lon="13.876860287418065"><ele>558.4000000000001</ele><time>2026-04-19T06:54:15.999Z</time></trkpt><trkpt lat="42.28909015660154" lon="13.876746907068641"><ele>561.5999999999999</ele><time>2026-04-19T06:54:16.999Z</time></trkpt><trkpt lat="42.289113409731954" lon="13.876604317382625"><ele>564.8</ele><time>2026-04-19T06:54:17.999Z</time></trkpt><trkpt lat="42.28911642797489" lon="13.876443111464814"><ele>568.0</ele><time>2026-04-19T06:54:18.999Z</time></trkpt><trkpt lat="42.28910461863976" lon="13.876270418976793"><ele>568.0</ele><time>2026-04-19T06:54:19.999Z</time></trkpt><trkpt lat="42.28910530801166" lon="13.876082799331009"><ele>568.0</ele><time>2026-04-19T06:54:20.999Z</time></trkpt><trkpt lat="42.28906987551314" lon="13.875880799044529"><ele>568.0</ele><time>2026-04-19T06:54:21.999Z</time></trkpt><trkpt lat="42.28904755588682" lon="13.875658398617134"><ele>569.3333333333334</ele><time>2026-04-19T06:54:22.999Z</time></trkpt><trkpt lat="42.28900731778123" lon="13.875429693918633"><ele>570.6666666666666</ele><time>2026-04-19T06:54:23.999Z</time></trkpt><trkpt lat="42.28894591214052" lon="13.8752230191573"><ele>572.0</ele><time>2026-04-19T06:54:24.999Z</time></trkpt><trkpt lat="42.28886547208794" lon="13.87503904505089"><ele>567.5</ele><time>2026-04-19T06:54:25.999Z</time></trkpt><trkpt lat="42.28877774137557" lon="13.874883026006406"><ele>563.0</ele><time>2026-04-19T06:54:26.999Z</time></trkpt><trkpt lat="42.28872128203994" lon="13.874731022668911"><ele>558.5</ele><time>2026-04-19T06:54:27.999Z</time></trkpt><trkpt lat="42.28867199173881" lon="13.874597476883391"><ele>554.0</ele><time>2026-04-19T06:54:28.999Z</time></trkpt><trkpt lat="42.288659238468746" lon="13.874451129767527"><ele>554.0</ele><time>2026-04-19T06:54:29.999Z</time></trkpt><trkpt lat="42.28866824980055" lon="13.87428914996882"><ele>554.0</ele><time>2026-04-19T06:54:30.999Z</time></trkpt><trkpt lat="42.28872183718409" lon="13.874129098511911"><ele>554.0</ele><time>2026-04-19T06:54:31.999Z</time></trkpt><trkpt lat="42.28877919412389" lon="13.873938106702292"><ele>554.0</ele><time>2026-04-19T06:54:32.999Z</time></trkpt><trkpt lat="42.28883931952816" lon="13.873749149903784"><ele>555.75</ele><time>2026-04-19T06:54:33.999Z</time></trkpt><trkpt lat="42.28890232422738" lon="13.873586852532437"><ele>557.5</ele><time>2026-04-19T06:54:34.999Z</time></trkpt><trkpt lat="42.288970824381884" lon="13.873453086749226"><ele>559.25</ele><time>2026-04-19T06:54:35.999Z</time></trkpt><trkpt lat="42.289056908732924" lon="13.873334733291921"><ele>561.0</ele><time>2026-04-19T06:54:36.999Z</time></trkpt><trkpt lat="42.289167543127625" lon="13.873240674662625"><ele>565.0</ele><time>2026-04-19T06:54:37.999Z</time></trkpt><trkpt lat="42.289283322973695" lon="13.873125107358938"><ele>569.0</ele><time>2026-04-19T06:54:38.999Z</time></trkpt><trkpt lat="42.28941047725744" lon="13.87302864938477"><ele>573.0</ele><time>2026-04-19T06:54:39.999Z</time></trkpt><trkpt lat="42.289537671820874" lon="13.872920070410865"><ele>577.0</ele><time>2026-04-19T06:54:40.999Z</time></trkpt><trkpt lat="42.28965706708515" lon="13.872809049592503"><ele>577.0</ele><time>2026-04-19T06:54:41.999Z</time></trkpt><trkpt lat="42.28975413717812" lon="13.872697439719243"><ele>577.0</ele><time>2026-04-19T06:54:42.999Z</time></trkpt><trkpt lat="42.28985011565999" lon="13.872588240089184"><ele>577.0</ele><time>2026-04-19T06:54:43.999Z</time></trkpt><trkpt lat="42.289907567232014" lon="13.872428191115453"><ele>577.0</ele><time>2026-04-19T06:54:44.999Z</time></trkpt><trkpt lat="42.289955834154185" lon="13.872261913200683"><ele>577.0</ele><time>2026-04-19T06:54:45.999Z</time></trkpt><trkpt lat="42.289971819305414" lon="13.872064864052197"><ele>577.0</ele><time>2026-04-19T06:54:46.999Z</time></trkpt><trkpt lat="42.289958777948485" lon="13.871854273752744"><ele>577.0</ele><time>2026-04-19T06:54:47.999Z</time></trkpt><trkpt lat="42.28992936049412" lon="13.87163298823046"><ele>577.0</ele><time>2026-04-19T06:54:48.999Z</time></trkpt><trkpt lat="42.289917084230325" lon="13.871402115505028"><ele>577.0</ele><time>2026-04-19T06:54:49.999Z</time></trkpt><trkpt lat="42.28987323230079" lon="13.8711827007325"><ele>577.0</ele><time>2026-04-19T06:54:50.999Z</time></trkpt><trkpt lat="42.289849854963364" lon="13.870960230197266"><ele>578.0</ele><time>2026-04-19T06:54:51.999Z</time></trkpt><trkpt lat="42.28982033270775" lon="13.870735201309277"><ele>579.0</ele><time>2026-04-19T06:54:52.999Z</time></trkpt><trkpt lat="42.289812361374594" lon="13.870525815381413"><ele>580.0</ele><time>2026-04-19T06:54:53.999Z</time></trkpt><trkpt lat="42.289792200969615" lon="13.870340536036649"><ele>580.0</ele><time>2026-04-19T06:54:54.999Z</time></trkpt><trkpt lat="42.28977310368707" lon="13.870165027057523"><ele>580.0</ele><time>2026-04-19T06:54:55.999Z</time></trkpt><trkpt lat="42.28975348604594" lon="13.869984735851057"><ele>580.0</ele><time>2026-04-19T06:54:56.999Z</time></trkpt><trkpt lat="42.28972943169983" lon="13.869801597275826"><ele>580.0</ele><time>2026-04-19T06:54:57.999Z</time></trkpt><trkpt lat="42.28969669480556" lon="13.869618079622454"><ele>579.6666666666667</ele><time>2026-04-19T06:54:58.999Z</time></trkpt><trkpt lat="42.2896272335999" lon="13.869448222268591"><ele>579.3333333333334</ele><time>2026-04-19T06:54:59.999Z</time></trkpt><trkpt lat="42.289548094846786" lon="13.86927535552733"><ele>579.0</ele><time>2026-04-19T06:55:00.999Z</time></trkpt><trkpt lat="42.28944079093445" lon="13.869112316620882"><ele>583.3333333333334</ele><time>2026-04-19T06:55:01.999Z</time></trkpt><trkpt lat="42.2893171951732" lon="13.868955299829016"><ele>587.6666666666667</ele><time>2026-04-19T06:55:02.999Z</time></trkpt><trkpt lat="42.28918433767526" lon="13.86879419432164"><ele>592.0</ele><time>2026-04-19T06:55:03.999Z</time></trkpt><trkpt lat="42.28906050762473" lon="13.868598479827297"><ele>593.6666666666667</ele><time>2026-04-19T06:55:04.999Z</time></trkpt><trkpt lat="42.28892620888578" lon="13.868423048823034"><ele>595.3333333333334</ele><time>2026-04-19T06:55:05.999Z</time></trkpt><trkpt lat="42.28877560727139" lon="13.868270663568063"><ele>597.0</ele><time>2026-04-19T06:55:06.999Z</time></trkpt><trkpt lat="42.288627054432595" lon="13.868111913375218"><ele>597.0</ele><time>2026-04-19T06:55:07.999Z</time></trkpt><trkpt lat="42.28847239941925" lon="13.8680188253493"><ele>597.0</ele><time>2026-04-19T06:55:08.999Z</time></trkpt><trkpt lat="42.288323446923755" lon="13.867944795949018"><ele>597.0</ele><time>2026-04-19T06:55:09.999Z</time></trkpt><trkpt lat="42.28818978863384" lon="13.86786783526737"><ele>597.0</ele><time>2026-04-19T06:55:10.999Z</time></trkpt><trkpt lat="42.288099161565675" lon="13.867733319687925"><ele>597.0</ele><time>2026-04-19T06:55:11.999Z</time></trkpt><trkpt lat="42.28800008535781" lon="13.86758825190737"><ele>597.0</ele><time>2026-04-19T06:55:12.999Z</time></trkpt><trkpt lat="42.28790325057787" lon="13.867422630540943"><ele>597.0</ele><time>2026-04-19T06:55:13.999Z</time></trkpt><trkpt lat="42.287809888882585" lon="13.867243794459881"><ele>598.3333333333334</ele><time>2026-04-19T06:55:14.999Z</time></trkpt><trkpt lat="42.28771598931595" lon="13.867061372845074"><ele>599.6666666666667</ele><time>2026-04-19T06:55:15.999Z</time></trkpt><trkpt lat="42.287618688650085" lon="13.866870591629956"><ele>601.0</ele><time>2026-04-19T06:55:16.999Z</time></trkpt><trkpt lat="42.28750707863319" lon="13.86668092170417"><ele>602.0</ele><time>2026-04-19T06:55:17.999Z</time></trkpt><trkpt lat="42.28741068940617" lon="13.866473336275137"><ele>603.0</ele><time>2026-04-19T06:55:18.999Z</time></trkpt><trkpt lat="42.28731165454693" lon="13.866290820296149"><ele>604.0</ele><time>2026-04-19T06:55:19.999Z</time></trkpt><trkpt lat="42.2872127378942" lon="13.866149015845085"><ele>604.0</ele><time>2026-04-19T06:55:20.999Z</time></trkpt><trkpt lat="42.28710165710803" lon="13.866031509369463"><ele>604.0</ele><time>2026-04-19T06:55:21.999Z</time></trkpt><trkpt lat="42.2869715092071" lon="13.865971890296187"><ele>604.0</ele><time>2026-04-19T06:55:22.999Z</time></trkpt><trkpt lat="42.286833711356614" lon="13.86595126252121"><ele>604.0</ele><time>2026-04-19T06:55:23.999Z</time></trkpt><trkpt lat="42.286710400456016" lon="13.865919317107828"><ele>609.0</ele><time>2026-04-19T06:55:24.999Z</time></trkpt><trkpt lat="42.28661540957722" lon="13.865827787674068"><ele>614.0</ele><time>2026-04-19T06:55:25.999Z</time></trkpt><trkpt lat="42.28656332374562" lon="13.865680781177272"><ele>619.0</ele><time>2026-04-19T06:55:26.999Z</time></trkpt><trkpt lat="42.28652531590648" lon="13.86550909945291"><ele>624.0</ele><time>2026-04-19T06:55:27.999Z</time></trkpt><trkpt lat="42.286495721252095" lon="13.865309946460942"><ele>620.3333333333334</ele><time>2026-04-19T06:55:28.999Z</time></trkpt><trkpt lat="42.28646779170287" lon="13.865087897196068"><ele>616.6666666666667</ele><time>2026-04-19T06:55:29.999Z</time></trkpt><trkpt lat="42.28643838803017" lon="13.864845826389981"><ele>613.0</ele><time>2026-04-19T06:55:30.999Z</time></trkpt><trkpt lat="42.28640491139936" lon="13.864574388853583"><ele>613.0</ele><time>2026-04-19T06:55:31.999Z</time></trkpt><trkpt lat="42.28635534377291" lon="13.864307857539623"><ele>613.0</ele><time>2026-04-19T06:55:32.999Z</time></trkpt><trkpt lat="42.28631802225738" lon="13.864018153540574"><ele>613.0</ele><time>2026-04-19T06:55:33.999Z</time></trkpt><trkpt lat="42.286298623861754" lon="13.863739471531876"><ele>615.6666666666667</ele><time>2026-04-19T06:55:34.999Z</time></trkpt><trkpt lat="42.286263827456764" lon="13.863463185488406"><ele>618.3333333333334</ele><time>2026-04-19T06:55:35.999Z</time></trkpt><trkpt lat="42.28623147020492" lon="13.863201421634843"><ele>621.0</ele><time>2026-04-19T06:55:36.999Z</time></trkpt><trkpt lat="42.2862022900087" lon="13.862965359540352"><ele>622.5</ele><time>2026-04-19T06:55:37.999Z</time></trkpt><trkpt lat="42.286176076832284" lon="13.862754045775993"><ele>624.0</ele><time>2026-04-19T06:55:38.999Z</time></trkpt><trkpt lat="42.28615712859973" lon="13.86254436686921"><ele>625.5</ele><time>2026-04-19T06:55:39.999Z</time></trkpt><trkpt lat="42.28616429043036" lon="13.862367657807072"><ele>627.0</ele><time>2026-04-19T06:55:40.999Z</time></trkpt><trkpt lat="42.28619230730669" lon="13.862200375729252"><ele>628.75</ele><time>2026-04-19T06:55:41.999Z</time></trkpt><trkpt lat="42.28624360779897" lon="13.862010748415024"><ele>630.5</ele><time>2026-04-19T06:55:42.999Z</time></trkpt><trkpt lat="42.286325109437165" lon="13.861821056730976"><ele>632.25</ele><time>2026-04-19T06:55:43.999Z</time></trkpt><trkpt lat="42.28638144253042" lon="13.861660667377226"><ele>634.0</ele><time>2026-04-19T06:55:44.999Z</time></trkpt><trkpt lat="42.286389009684754" lon="13.861516980893237"><ele>636.25</ele><time>2026-04-19T06:55:45.999Z</time></trkpt><trkpt lat="42.28635291718101" lon="13.861380831415978"><ele>638.5</ele><time>2026-04-19T06:55:46.999Z</time></trkpt><trkpt lat="42.286271791355794" lon="13.861279136633772"><ele>640.75</ele><time>2026-04-19T06:55:47.999Z</time></trkpt><trkpt lat="42.286153347735535" lon="13.861207459637768"><ele>643.0</ele><time>2026-04-19T06:55:48.999Z</time></trkpt><trkpt lat="42.28600636657343" lon="13.861164539740441"><ele>643.0</ele><time>2026-04-19T06:55:49.999Z</time></trkpt><trkpt lat="42.28582839021511" lon="13.861122332914446"><ele>643.0</ele><time>2026-04-19T06:55:50.999Z</time></trkpt><trkpt lat="42.28566588605841" lon="13.861065718263522"><ele>643.0</ele><time>2026-04-19T06:55:51.999Z</time></trkpt><trkpt lat="42.28551611054637" lon="13.861047199888493"><ele>645.3333333333334</ele><time>2026-04-19T06:55:52.999Z</time></trkpt><trkpt lat="42.285367457037324" lon="13.861079269611079"><ele>647.6666666666666</ele><time>2026-04-19T06:55:53.999Z</time></trkpt><trkpt lat="42.285224332116414" lon="13.861165599205558"><ele>650.0</ele><time>2026-04-19T06:55:54.999Z</time></trkpt><trkpt lat="42.285087493203086" lon="13.861286433995156"><ele>650.0</ele><time>2026-04-19T06:55:55.999Z</time></trkpt><trkpt lat="42.284946858820945" lon="13.861387423470633"><ele>650.0</ele><time>2026-04-19T06:55:56.999Z</time></trkpt><trkpt lat="42.28483544999614" lon="13.861476427079781"><ele>650.0</ele><time>2026-04-19T06:55:57.999Z</time></trkpt><trkpt lat="42.28471261719096" lon="13.86148213003221"><ele>650.0</ele><time>2026-04-19T06:55:58.999Z</time></trkpt><trkpt lat="42.284603527594605" lon="13.861460267075179"><ele>650.0</ele><time>2026-04-19T06:55:59.999Z</time></trkpt><trkpt lat="42.28448159557663" lon="13.86140636741902"><ele>650.0</ele><time>2026-04-19T06:56:00.999Z</time></trkpt><trkpt lat="42.28435239037657" lon="13.86133539481716"><ele>650.0</ele><time>2026-04-19T06:56:01.999Z</time></trkpt><trkpt lat="42.284200493978396" lon="13.861252632877322"><ele>650.0</ele><time>2026-04-19T06:56:02.999Z</time></trkpt><trkpt lat="42.284035944647826" lon="13.861165134736138"><ele>649.25</ele><time>2026-04-19T06:56:03.999Z</time></trkpt><trkpt lat="42.28387121842234" lon="13.861092449059258"><ele>648.5</ele><time>2026-04-19T06:56:04.999Z</time></trkpt><trkpt lat="42.28375722226875" lon="13.861029288882325"><ele>647.75</ele><time>2026-04-19T06:56:05.999Z</time></trkpt><trkpt lat="42.28365680770611" lon="13.860967204462519"><ele>647.0</ele><time>2026-04-19T06:56:06.999Z</time></trkpt><trkpt lat="42.28358936575874" lon="13.860922774593824"><ele>647.0</ele><time>2026-04-19T06:56:07.999Z</time></trkpt><trkpt lat="42.28352563310046" lon="13.860887494346054"><ele>647.0</ele><time>2026-04-19T06:56:09.999Z</time></trkpt><trkpt lat="42.28361309618649" lon="13.861012089877619"><ele>647.0</ele><time>2026-04-19T06:56:14.999Z</time></trkpt><trkpt lat="42.28368854422965" lon="13.861026121576629"><ele>647.0</ele><time>2026-04-19T06:56:15.999Z</time></trkpt><trkpt lat="42.28376786535271" lon="13.861057933862735"><ele>647.0</ele><time>2026-04-19T06:56:16.999Z</time></trkpt><trkpt lat="42.283855757581996" lon="13.86110228014894"><ele>647.0</ele><time>2026-04-19T06:56:17.999Z</time></trkpt><trkpt lat="42.28396658962704" lon="13.861155114612345"><ele>647.6</ele><time>2026-04-19T06:56:18.999Z</time></trkpt><trkpt lat="42.28407104724389" lon="13.86122126087386"><ele>648.2</ele><time>2026-04-19T06:56:19.999Z</time></trkpt><trkpt lat="42.28417367244918" lon="13.861282722649538"><ele>648.8</ele><time>2026-04-19T06:56:20.999Z</time></trkpt><trkpt lat="42.28425913625882" lon="13.861325516810997"><ele>649.4</ele><time>2026-04-19T06:56:21.999Z</time></trkpt><trkpt lat="42.284344276864125" lon="13.86136956294141"><ele>650.0</ele><time>2026-04-19T06:56:23.999Z</time></trkpt><trkpt lat="42.28442029302652" lon="13.861315413387743"><ele>650.0</ele><time>2026-04-19T06:56:25.999Z</time></trkpt><trkpt lat="42.28447504785451" lon="13.861263557088918"><ele>650.0</ele><time>2026-04-19T06:56:26.999Z</time></trkpt><trkpt lat="42.284550404617974" lon="13.861204684430245"><ele>650.0</ele><time>2026-04-19T06:56:27.999Z</time></trkpt><trkpt lat="42.28462897655311" lon="13.861150780913114"><ele>650.0</ele><time>2026-04-19T06:56:28.999Z</time></trkpt><trkpt lat="42.28471707091421" lon="13.861088623788222"><ele>650.0</ele><time>2026-04-19T06:56:29.999Z</time></trkpt><trkpt lat="42.284800585656285" lon="13.861020773617284"><ele>650.0</ele><time>2026-04-19T06:56:30.999Z</time></trkpt><trkpt lat="42.284897529021976" lon="13.86091392381697"><ele>653.0</ele><time>2026-04-19T06:56:31.999Z</time></trkpt><trkpt lat="42.28500280240316" lon="13.860816855576005"><ele>656.0</ele><time>2026-04-19T06:56:32.999Z</time></trkpt><trkpt lat="42.28511361799567" lon="13.860743282412514"><ele>659.0</ele><time>2026-04-19T06:56:33.999Z</time></trkpt><trkpt lat="42.28523548829066" lon="13.860687760478461"><ele>662.0</ele><time>2026-04-19T06:56:34.999Z</time></trkpt><trkpt lat="42.28536613378916" lon="13.860645603950354"><ele>662.0</ele><time>2026-04-19T06:56:35.999Z</time></trkpt><trkpt lat="42.285505263091764" lon="13.860639047370793"><ele>662.0</ele><time>2026-04-19T06:56:36.999Z</time></trkpt><trkpt lat="42.28565072597924" lon="13.860605565248367"><ele>662.0</ele><time>2026-04-19T06:56:37.999Z</time></trkpt><trkpt lat="42.28580214515852" lon="13.86059346578327"><ele>662.0</ele><time>2026-04-19T06:56:38.999Z</time></trkpt><trkpt lat="42.28595041167605" lon="13.860576148982007"><ele>661.6</ele><time>2026-04-19T06:56:39.999Z</time></trkpt><trkpt lat="42.28607911606269" lon="13.860556020325394"><ele>661.2</ele><time>2026-04-19T06:56:40.999Z</time></trkpt><trkpt lat="42.28618766256748" lon="13.860532092467746"><ele>660.8</ele><time>2026-04-19T06:56:41.999Z</time></trkpt><trkpt lat="42.286288328867975" lon="13.860501842568365"><ele>660.4</ele><time>2026-04-19T06:56:42.999Z</time></trkpt><trkpt lat="42.28639035834723" lon="13.860469533710457"><ele>660.0</ele><time>2026-04-19T06:56:43.999Z</time></trkpt><trkpt lat="42.2864881630016" lon="13.860432494504659"><ele>663.25</ele><time>2026-04-19T06:56:44.999Z</time></trkpt><trkpt lat="42.28659559537473" lon="13.860421453886042"><ele>666.5</ele><time>2026-04-19T06:56:45.999Z</time></trkpt><trkpt lat="42.28670638997416" lon="13.860430977943706"><ele>669.75</ele><time>2026-04-19T06:56:46.999Z</time></trkpt><trkpt lat="42.286823546953336" lon="13.8604632682326"><ele>673.0</ele><time>2026-04-19T06:56:47.999Z</time></trkpt><trkpt lat="42.28694132778446" lon="13.860498242647168"><ele>673.0</ele><time>2026-04-19T06:56:48.999Z</time></trkpt><trkpt lat="42.287048965394995" lon="13.860520859278022"><ele>673.0</ele><time>2026-04-19T06:56:49.999Z</time></trkpt><trkpt lat="42.28712487484986" lon="13.860521226870274"><ele>673.0</ele><time>2026-04-19T06:56:50.999Z</time></trkpt><trkpt lat="42.28719767238914" lon="13.86046143186885"><ele>673.0</ele><time>2026-04-19T06:56:52.999Z</time></trkpt><trkpt lat="42.28718877870368" lon="13.86028943443556"><ele>673.0</ele><time>2026-04-19T06:56:54.999Z</time></trkpt><trkpt lat="42.28711648770766" lon="13.860182240248577"><ele>676.4</ele><time>2026-04-19T06:56:55.999Z</time></trkpt><trkpt lat="42.28702931085875" lon="13.860109460263459"><ele>679.8</ele><time>2026-04-19T06:56:56.999Z</time></trkpt><trkpt lat="42.28694186633126" lon="13.860030966784773"><ele>683.2</ele><time>2026-04-19T06:56:57.999Z</time></trkpt><trkpt lat="42.28684645805793" lon="13.859951346292295"><ele>686.6</ele><time>2026-04-19T06:56:58.999Z</time></trkpt><trkpt lat="42.28679051670344" lon="13.859847038625425"><ele>690.0</ele><time>2026-04-19T06:56:59.999Z</time></trkpt><trkpt lat="42.28677809574693" lon="13.859747743317913"><ele>690.0</ele><time>2026-04-19T06:57:00.999Z</time></trkpt><trkpt lat="42.286751541925085" lon="13.859611744551271"><ele>690.0</ele><time>2026-04-19T06:57:01.999Z</time></trkpt><trkpt lat="42.2867151770474" lon="13.859447202942674"><ele>690.0</ele><time>2026-04-19T06:57:02.999Z</time></trkpt><trkpt lat="42.286673932549164" lon="13.859271823086795"><ele>690.0</ele><time>2026-04-19T06:57:03.999Z</time></trkpt><trkpt lat="42.2866341542511" lon="13.859121563504775"><ele>691.6</ele><time>2026-04-19T06:57:04.999Z</time></trkpt><trkpt lat="42.28658943307767" lon="13.858984891295782"><ele>693.2</ele><time>2026-04-19T06:57:05.999Z</time></trkpt><trkpt lat="42.28653487524658" lon="13.858856359661475"><ele>694.8</ele><time>2026-04-19T06:57:06.999Z</time></trkpt><trkpt lat="42.28644607454265" lon="13.858778761525864"><ele>696.4</ele><time>2026-04-19T06:57:07.999Z</time></trkpt><trkpt lat="42.286391137867135" lon="13.858696828884733"><ele>698.0</ele><time>2026-04-19T06:57:08.999Z</time></trkpt><trkpt lat="42.286327108591976" lon="13.858625579797836"><ele>698.0</ele><time>2026-04-19T06:57:09.999Z</time></trkpt><trkpt lat="42.286252804437666" lon="13.858539071870817"><ele>698.0</ele><time>2026-04-19T06:57:10.999Z</time></trkpt><trkpt lat="42.286148450182324" lon="13.858543788872803"><ele>698.0</ele><time>2026-04-19T06:57:11.999Z</time></trkpt><trkpt lat="42.28606682665171" lon="13.858558125164096"><ele>698.0</ele><time>2026-04-19T06:57:12.999Z</time></trkpt><trkpt lat="42.28599145994199" lon="13.858539073398974"><ele>698.0</ele><time>2026-04-19T06:57:13.999Z</time></trkpt><trkpt lat="42.285899005568965" lon="13.8585137014978"><ele>698.0</ele><time>2026-04-19T06:57:14.999Z</time></trkpt><trkpt lat="42.28578234811617" lon="13.858475465948432"><ele>698.0</ele><time>2026-04-19T06:57:15.999Z</time></trkpt><trkpt lat="42.285651864806695" lon="13.858434691256203"><ele>698.0</ele><time>2026-04-19T06:57:16.999Z</time></trkpt><trkpt lat="42.28551532905827" lon="13.85839760033451"><ele>698.0</ele><time>2026-04-19T06:57:17.999Z</time></trkpt><trkpt lat="42.28537541389541" lon="13.858357658516693"><ele>702.25</ele><time>2026-04-19T06:57:18.999Z</time></trkpt><trkpt lat="42.285230017962625" lon="13.858304562599592"><ele>706.5</ele><time>2026-04-19T06:57:19.999Z</time></trkpt><trkpt lat="42.285098033965575" lon="13.858257145081145"><ele>710.75</ele><time>2026-04-19T06:57:20.999Z</time></trkpt><trkpt lat="42.28498789947575" lon="13.858221444336186"><ele>715.0</ele><time>2026-04-19T06:57:21.999Z</time></trkpt><trkpt lat="42.284888636695875" lon="13.858222722310797"><ele>715.0</ele><time>2026-04-19T06:57:22.999Z</time></trkpt><trkpt lat="42.284806524994416" lon="13.858197724707987"><ele>715.0</ele><time>2026-04-19T06:57:23.999Z</time></trkpt><trkpt lat="42.284671894604074" lon="13.858182529274103"><ele>715.0</ele><time>2026-04-19T06:57:25.999Z</time></trkpt><trkpt lat="42.284598531130186" lon="13.858163702497226"><ele>715.0</ele><time>2026-04-19T06:57:26.999Z</time></trkpt><trkpt lat="42.28452440067551" lon="13.858161409799651"><ele>715.0</ele><time>2026-04-19T06:57:27.999Z</time></trkpt><trkpt lat="42.2844585073975" lon="13.858140638629251"><ele>715.0</ele><time>2026-04-19T06:57:28.999Z</time></trkpt><trkpt lat="42.284405808395825" lon="13.85808193618632"><ele>714.2</ele><time>2026-04-19T06:57:29.999Z</time></trkpt><trkpt lat="42.28435743081915" lon="13.857997246196026"><ele>713.4</ele><time>2026-04-19T06:57:30.999Z</time></trkpt><trkpt lat="42.28430939776371" lon="13.857900508949944"><ele>712.5999999999999</ele><time>2026-04-19T06:57:31.999Z</time></trkpt><trkpt lat="42.284246074317146" lon="13.857792902263936"><ele>711.8</ele><time>2026-04-19T06:57:32.999Z</time></trkpt><trkpt lat="42.28420102687882" lon="13.857639312866397"><ele>711.0</ele><time>2026-04-19T06:57:33.999Z</time></trkpt><trkpt lat="42.2841493319092" lon="13.857485595892499"><ele>713.4</ele><time>2026-04-19T06:57:34.999Z</time></trkpt><trkpt lat="42.28410896738238" lon="13.857327942213695"><ele>715.8</ele><time>2026-04-19T06:57:36Z</time></trkpt><trkpt lat="42.28408742080591" lon="13.857201668020876"><ele>718.1999999999999</ele><time>2026-04-19T06:57:37Z</time></trkpt><trkpt lat="42.28408403408111" lon="13.85708885355947"><ele>720.5999999999999</ele><time>2026-04-19T06:57:38Z</time></trkpt><trkpt lat="42.28409187317465" lon="13.856967395738955"><ele>723.0</ele><time>2026-04-19T06:57:39Z</time></trkpt><trkpt lat="42.284173240775914" lon="13.856882153313574"><ele>726.5</ele><time>2026-04-19T06:57:40Z</time></trkpt><trkpt lat="42.2842345231736" lon="13.856760601979827"><ele>730.0</ele><time>2026-04-19T06:57:41Z</time></trkpt><trkpt lat="42.284278677492715" lon="13.85661077274787"><ele>733.5</ele><time>2026-04-19T06:57:42Z</time></trkpt><trkpt lat="42.284313012340924" lon="13.856460988990813"><ele>737.0</ele><time>2026-04-19T06:57:43Z</time></trkpt><trkpt lat="42.284322231020546" lon="13.85628938829506"><ele>737.0</ele><time>2026-04-19T06:57:44Z</time></trkpt><trkpt lat="42.2843218067064" lon="13.856105985448254"><ele>737.0</ele><time>2026-04-19T06:57:45Z</time></trkpt><trkpt lat="42.284287081180885" lon="13.85591777897683"><ele>737.0</ele><time>2026-04-19T06:57:46Z</time></trkpt><trkpt lat="42.28424377585864" lon="13.855721239241507"><ele>737.0</ele><time>2026-04-19T06:57:47Z</time></trkpt><trkpt lat="42.28420056747051" lon="13.855499930635244"><ele>737.3333333333333</ele><time>2026-04-19T06:57:48Z</time></trkpt><trkpt lat="42.284156486067324" lon="13.855257667143247"><ele>737.6666666666666</ele><time>2026-04-19T06:57:49Z</time></trkpt><trkpt lat="42.28411317473761" lon="13.8550107214563"><ele>738.0</ele><time>2026-04-19T06:57:50Z</time></trkpt><trkpt lat="42.28406738445497" lon="13.854783363953004"><ele>737.75</ele><time>2026-04-19T06:57:51Z</time></trkpt><trkpt lat="42.28401785291861" lon="13.854568406792142"><ele>737.5</ele><time>2026-04-19T06:57:52Z</time></trkpt><trkpt lat="42.28395444834432" lon="13.854406077072616"><ele>737.25</ele><time>2026-04-19T06:57:53Z</time></trkpt><trkpt lat="42.2839134486108" lon="13.854255136658354"><ele>737.0</ele><time>2026-04-19T06:57:54Z</time></trkpt><trkpt lat="42.283832369899336" lon="13.854122821265134"><ele>737.0</ele><time>2026-04-19T06:57:55Z</time></trkpt><trkpt lat="42.28375336856935" lon="13.853969829478666"><ele>737.0</ele><time>2026-04-19T06:57:56Z</time></trkpt><trkpt lat="42.28368344222109" lon="13.853801334800018"><ele>737.0</ele><time>2026-04-19T06:57:57Z</time></trkpt><trkpt lat="42.28359480969812" lon="13.853669954936997"><ele>737.0</ele><time>2026-04-19T06:57:58Z</time></trkpt><trkpt lat="42.28352591612679" lon="13.853541086606981"><ele>737.75</ele><time>2026-04-19T06:57:59Z</time></trkpt><trkpt lat="42.28346254530122" lon="13.853418393298053"><ele>738.5</ele><time>2026-04-19T06:58:00Z</time></trkpt><trkpt lat="42.28339508440889" lon="13.85328966917324"><ele>739.25</ele><time>2026-04-19T06:58:01Z</time></trkpt><trkpt lat="42.28329906390326" lon="13.853162578427622"><ele>740.0</ele><time>2026-04-19T06:58:02Z</time></trkpt><trkpt lat="42.283194611477796" lon="13.853034290573994"><ele>741.0</ele><time>2026-04-19T06:58:03Z</time></trkpt><trkpt lat="42.283087515107525" lon="13.85291194232497"><ele>742.0</ele><time>2026-04-19T06:58:04Z</time></trkpt><trkpt lat="42.282974926730915" lon="13.852786482913954"><ele>743.0</ele><time>2026-04-19T06:58:05Z</time></trkpt><trkpt lat="42.28285840335368" lon="13.852651644408777"><ele>744.0</ele><time>2026-04-19T06:58:06Z</time></trkpt><trkpt lat="42.28274273357355" lon="13.85250501604859"><ele>744.0</ele><time>2026-04-19T06:58:07Z</time></trkpt><trkpt lat="42.28262039114575" lon="13.852361021188075"><ele>744.0</ele><time>2026-04-19T06:58:08Z</time></trkpt><trkpt lat="42.28249478003804" lon="13.852221132088369"><ele>744.0</ele><time>2026-04-19T06:58:09Z</time></trkpt><trkpt lat="42.28237585789771" lon="13.852081712914147"><ele>744.3333333333334</ele><time>2026-04-19T06:58:10Z</time></trkpt><trkpt lat="42.28226257569427" lon="13.8519356940476"><ele>744.6666666666667</ele><time>2026-04-19T06:58:11Z</time></trkpt><trkpt lat="42.28215465828631" lon="13.85177281958259"><ele>745.0</ele><time>2026-04-19T06:58:12Z</time></trkpt><trkpt lat="42.282042464060694" lon="13.851614135863155"><ele>745.0</ele><time>2026-04-19T06:58:13Z</time></trkpt><trkpt lat="42.281921671242216" lon="13.851451913718867"><ele>745.0</ele><time>2026-04-19T06:58:14Z</time></trkpt><trkpt lat="42.2817992230263" lon="13.851307056278438"><ele>745.0</ele><time>2026-04-19T06:58:15Z</time></trkpt><trkpt lat="42.281686329133734" lon="13.851153827507053"><ele>745.0</ele><time>2026-04-19T06:58:16Z</time></trkpt><trkpt lat="42.28158805508324" lon="13.850985454366548"><ele>745.0</ele><time>2026-04-19T06:58:17Z</time></trkpt><trkpt lat="42.28149567017909" lon="13.850819156389392"><ele>745.0</ele><time>2026-04-19T06:58:18Z</time></trkpt><trkpt lat="42.28140501933924" lon="13.850683589253828"><ele>745.0</ele><time>2026-04-19T06:58:19Z</time></trkpt><trkpt lat="42.28132467808035" lon="13.850528345878718"><ele>746.5</ele><time>2026-04-19T06:58:20Z</time></trkpt><trkpt lat="42.28123427002627" lon="13.850364967487007"><ele>748.0</ele><time>2026-04-19T06:58:21Z</time></trkpt><trkpt lat="42.28114821566121" lon="13.850221199005976"><ele>749.5</ele><time>2026-04-19T06:58:22Z</time></trkpt><trkpt lat="42.28108237345694" lon="13.850068573307937"><ele>751.0</ele><time>2026-04-19T06:58:23Z</time></trkpt><trkpt lat="42.28101645967144" lon="13.849951290526645"><ele>752.0</ele><time>2026-04-19T06:58:24Z</time></trkpt><trkpt lat="42.280946622521476" lon="13.849844925007668"><ele>753.0</ele><time>2026-04-19T06:58:25Z</time></trkpt><trkpt lat="42.28087390720147" lon="13.849765599943732"><ele>754.0</ele><time>2026-04-19T06:58:26Z</time></trkpt><trkpt lat="42.28079371742525" lon="13.849734301687683"><ele>755.0</ele><time>2026-04-19T06:58:27Z</time></trkpt><trkpt lat="42.28070772118666" lon="13.849779971828882"><ele>756.0</ele><time>2026-04-19T06:58:28Z</time></trkpt><trkpt lat="42.28063786428121" lon="13.849863552479198"><ele>759.0</ele><time>2026-04-19T06:58:29Z</time></trkpt><trkpt lat="42.28059612796238" lon="13.850027862226446"><ele>762.0</ele><time>2026-04-19T06:58:30Z</time></trkpt><trkpt lat="42.280529202580475" lon="13.850160397960638"><ele>765.0</ele><time>2026-04-19T06:58:31Z</time></trkpt><trkpt lat="42.280420611772726" lon="13.850273796730667"><ele>768.0</ele><time>2026-04-19T06:58:32Z</time></trkpt><trkpt lat="42.28033999412982" lon="13.850417659096205"><ele>768.0</ele><time>2026-04-19T06:58:33Z</time></trkpt><trkpt lat="42.280297926074574" lon="13.85056545693228"><ele>768.0</ele><time>2026-04-19T06:58:34Z</time></trkpt><trkpt lat="42.28027063726074" lon="13.850721983578252"><ele>768.0</ele><time>2026-04-19T06:58:35Z</time></trkpt><trkpt lat="42.28020507490908" lon="13.850857892817352"><ele>768.0</ele><time>2026-04-19T06:58:36Z</time></trkpt><trkpt lat="42.280085401384106" lon="13.850936184613552"><ele>767.75</ele><time>2026-04-19T06:58:37Z</time></trkpt><trkpt lat="42.27997787678829" lon="13.851055977070686"><ele>767.5</ele><time>2026-04-19T06:58:38Z</time></trkpt><trkpt lat="42.27987209201103" lon="13.851151262250163"><ele>767.25</ele><time>2026-04-19T06:58:39Z</time></trkpt><trkpt lat="42.27979915875723" lon="13.851260308687275"><ele>767.0</ele><time>2026-04-19T06:58:40Z</time></trkpt><trkpt lat="42.27975071859904" lon="13.851396169168268"><ele>772.75</ele><time>2026-04-19T06:58:41Z</time></trkpt><trkpt lat="42.27971372650671" lon="13.851562666620564"><ele>778.5</ele><time>2026-04-19T06:58:42Z</time></trkpt><trkpt lat="42.279685199108414" lon="13.8517412338503"><ele>784.25</ele><time>2026-04-19T06:58:43Z</time></trkpt><trkpt lat="42.27966923377417" lon="13.851929828223245"><ele>790.0</ele><time>2026-04-19T06:58:44Z</time></trkpt><trkpt lat="42.27965902871229" lon="13.852115412390745"><ele>790.0</ele><time>2026-04-19T06:58:45Z</time></trkpt><trkpt lat="42.279665859925906" lon="13.85229560130415"><ele>790.0</ele><time>2026-04-19T06:58:45.999Z</time></trkpt><trkpt lat="42.279689793782964" lon="13.852482194454385"><ele>790.0</ele><time>2026-04-19T06:58:46.999Z</time></trkpt><trkpt lat="42.27970567740534" lon="13.85266325614044"><ele>790.0</ele><time>2026-04-19T06:58:47.999Z</time></trkpt><trkpt lat="42.279713940301846" lon="13.852837300288503"><ele>790.25</ele><time>2026-04-19T06:58:48.999Z</time></trkpt><trkpt lat="42.27968924278838" lon="13.85299757117505"><ele>790.5</ele><time>2026-04-19T06:58:49.999Z</time></trkpt><trkpt lat="42.279675925802835" lon="13.85318095864628"><ele>790.75</ele><time>2026-04-19T06:58:50.999Z</time></trkpt><trkpt lat="42.27964556775118" lon="13.853375257511656"><ele>791.0</ele><time>2026-04-19T06:58:51.999Z</time></trkpt><trkpt lat="42.27962176053734" lon="13.853574501408389"><ele>790.25</ele><time>2026-04-19T06:58:52.999Z</time></trkpt><trkpt lat="42.27958892774044" lon="13.853777313388528"><ele>789.5</ele><time>2026-04-19T06:58:53.999Z</time></trkpt><trkpt lat="42.27951779362993" lon="13.853932869217047"><ele>788.75</ele><time>2026-04-19T06:58:54.999Z</time></trkpt><trkpt lat="42.27941972072853" lon="13.854035907504217"><ele>788.0</ele><time>2026-04-19T06:58:55.999Z</time></trkpt><trkpt lat="42.27929830681369" lon="13.854166411558353"><ele>786.25</ele><time>2026-04-19T06:58:56.999Z</time></trkpt><trkpt lat="42.27917283929935" lon="13.854294556262536"><ele>784.5</ele><time>2026-04-19T06:58:57.999Z</time></trkpt><trkpt lat="42.279054444071406" lon="13.854410508295603"><ele>782.75</ele><time>2026-04-19T06:58:58.999Z</time></trkpt><trkpt lat="42.278943113823104" lon="13.85451888697668"><ele>781.0</ele><time>2026-04-19T06:58:59.999Z</time></trkpt><trkpt lat="42.27885416741203" lon="13.854642722040587"><ele>784.75</ele><time>2026-04-19T06:59:00.999Z</time></trkpt><trkpt lat="42.27875965619976" lon="13.854741803468457"><ele>788.5</ele><time>2026-04-19T06:59:01.999Z</time></trkpt><trkpt lat="42.278664944447804" lon="13.854838434094876"><ele>792.25</ele><time>2026-04-19T06:59:02.999Z</time></trkpt><trkpt lat="42.2785636719896" lon="13.8549380893672"><ele>796.0</ele><time>2026-04-19T06:59:03.999Z</time></trkpt><trkpt lat="42.27846388252873" lon="13.855052483429365"><ele>796.8</ele><time>2026-04-19T06:59:04.999Z</time></trkpt><trkpt lat="42.27836957896754" lon="13.855152986972422"><ele>797.5999999999999</ele><time>2026-04-19T06:59:05.999Z</time></trkpt><trkpt lat="42.27829454345887" lon="13.85524099121938"><ele>798.4</ele><time>2026-04-19T06:59:06.999Z</time></trkpt><trkpt lat="42.278220055011545" lon="13.855328682722625"><ele>799.2</ele><time>2026-04-19T06:59:07.999Z</time></trkpt><trkpt lat="42.27813188389695" lon="13.855395264212817"><ele>800.0</ele><time>2026-04-19T06:59:08.999Z</time></trkpt><trkpt lat="42.27802602279089" lon="13.855414569138887"><ele>800.0</ele><time>2026-04-19T06:59:09.999Z</time></trkpt><trkpt lat="42.27791818166607" lon="13.855452801019148"><ele>800.0</ele><time>2026-04-19T06:59:10.999Z</time></trkpt><trkpt lat="42.27781539966199" lon="13.855521287019014"><ele>800.0</ele><time>2026-04-19T06:59:11.999Z</time></trkpt><trkpt lat="42.27770305048677" lon="13.855570512096667"><ele>800.0</ele><time>2026-04-19T06:59:12.999Z</time></trkpt><trkpt lat="42.277600139991186" lon="13.855616843594165"><ele>800.0</ele><time>2026-04-19T06:59:13.999Z</time></trkpt><trkpt lat="42.27750845999488" lon="13.855688858187225"><ele>800.0</ele><time>2026-04-19T06:59:14.999Z</time></trkpt><trkpt lat="42.27742706400965" lon="13.855780836069586"><ele>800.0</ele><time>2026-04-19T06:59:15.999Z</time></trkpt><trkpt lat="42.277359555761734" lon="13.855908499733271"><ele>800.0</ele><time>2026-04-19T06:59:16.999Z</time></trkpt><trkpt lat="42.27731053817748" lon="13.856054343939336"><ele>800.0</ele><time>2026-04-19T06:59:17.999Z</time></trkpt><trkpt lat="42.277269381381814" lon="13.856200031076492"><ele>802.4</ele><time>2026-04-19T06:59:18.999Z</time></trkpt><trkpt lat="42.27723344018916" lon="13.85635157857388"><ele>804.8</ele><time>2026-04-19T06:59:19.999Z</time></trkpt><trkpt lat="42.27719705080559" lon="13.85650375684815"><ele>807.2</ele><time>2026-04-19T06:59:20.999Z</time></trkpt><trkpt lat="42.27716637451543" lon="13.856642156274303"><ele>809.6</ele><time>2026-04-19T06:59:21.999Z</time></trkpt><trkpt lat="42.27714815747261" lon="13.856770802348768"><ele>812.0</ele><time>2026-04-19T06:59:22.999Z</time></trkpt><trkpt lat="42.277109751747425" lon="13.856881279779714"><ele>812.0</ele><time>2026-04-19T06:59:23.999Z</time></trkpt><trkpt lat="42.27709029436098" lon="13.856979115954994"><ele>812.0</ele><time>2026-04-19T06:59:24.999Z</time></trkpt><trkpt lat="42.27705956760535" lon="13.857108391633444"><ele>812.0</ele><time>2026-04-19T06:59:26.999Z</time></trkpt><trkpt lat="42.277037427505604" lon="13.857218253236125"><ele>812.0</ele><time>2026-04-19T06:59:29.999Z</time></trkpt><trkpt lat="42.27705189114802" lon="13.857318298244204"><ele>812.0</ele><time>2026-04-19T06:59:31.999Z</time></trkpt><trkpt lat="42.27703632021719" lon="13.857471914352004"><ele>812.0</ele><time>2026-04-19T06:59:33.999Z</time></trkpt><trkpt lat="42.277008070074515" lon="13.857553809729438"><ele>812.0</ele><time>2026-04-19T06:59:34.999Z</time></trkpt><trkpt lat="42.27697053775325" lon="13.857692012483405"><ele>812.0</ele><time>2026-04-19T06:59:36.999Z</time></trkpt><trkpt lat="42.276926540907" lon="13.85785985902767"><ele>812.0</ele><time>2026-04-19T06:59:38.999Z</time></trkpt><trkpt lat="42.276891025364066" lon="13.857963398915986"><ele>812.0</ele><time>2026-04-19T06:59:39.999Z</time></trkpt><trkpt lat="42.27684866793187" lon="13.858075305019023"><ele>811.6666666666667</ele><time>2026-04-19T06:59:40.999Z</time></trkpt><trkpt lat="42.2768085647651" lon="13.858180673271049"><ele>811.3333333333334</ele><time>2026-04-19T06:59:42Z</time></trkpt><trkpt lat="42.27677094633155" lon="13.858279212070398"><ele>811.0</ele><time>2026-04-19T06:59:43Z</time></trkpt><trkpt lat="42.276732019399816" lon="13.85837815562517"><ele>810.6666666666667</ele><time>2026-04-19T06:59:44Z</time></trkpt><trkpt lat="42.27669965363415" lon="13.858460422121738"><ele>810.3333333333334</ele><time>2026-04-19T06:59:45Z</time></trkpt><trkpt lat="42.27666786115537" lon="13.858541231394106"><ele>810.0</ele><time>2026-04-19T06:59:46Z</time></trkpt><trkpt lat="42.276612489533434" lon="13.858689210746586"><ele>807.6</ele><time>2026-04-19T06:59:48Z</time></trkpt><trkpt lat="42.27655710978434" lon="13.85883854438963"><ele>805.2</ele><time>2026-04-19T06:59:50Z</time></trkpt><trkpt lat="42.276522558598856" lon="13.858929012779663"><ele>802.8</ele><time>2026-04-19T06:59:51Z</time></trkpt><trkpt lat="42.27649059173474" lon="13.859012714428136"><ele>800.4</ele><time>2026-04-19T06:59:52Z</time></trkpt><trkpt lat="42.27642708121886" lon="13.859139636078318"><ele>798.0</ele><time>2026-04-19T06:59:54Z</time></trkpt><trkpt lat="42.27630848485426" lon="13.859226271406486"><ele>801.0</ele><time>2026-04-19T06:59:56Z</time></trkpt><trkpt lat="42.27625610793887" lon="13.859275002305306"><ele>804.0</ele><time>2026-04-19T06:59:57Z</time></trkpt><trkpt lat="42.27617432324017" lon="13.859374112268283"><ele>807.0</ele><time>2026-04-19T06:59:59Z</time></trkpt><trkpt lat="42.276122755369386" lon="13.859511990604114"><ele>810.0</ele><time>2026-04-19T07:00:01Z</time></trkpt><trkpt lat="42.27612044531366" lon="13.859604407453885"><ele>813.0</ele><time>2026-04-19T07:00:02Z</time></trkpt><trkpt lat="42.27612703746969" lon="13.859695080336508"><ele>816.0</ele><time>2026-04-19T07:00:03Z</time></trkpt><trkpt lat="42.27611482768848" lon="13.85978440682205"><ele>816.0</ele><time>2026-04-19T07:00:04Z</time></trkpt><trkpt lat="42.276110742079915" lon="13.859879618166579"><ele>816.0</ele><time>2026-04-19T07:00:05Z</time></trkpt><trkpt lat="42.2761128150588" lon="13.859971796384354"><ele>816.0</ele><time>2026-04-19T07:00:06Z</time></trkpt><trkpt lat="42.27610445840589" lon="13.860066790316127"><ele>816.0</ele><time>2026-04-19T07:00:07Z</time></trkpt><trkpt lat="42.27604781650854" lon="13.860218702830254"><ele>816.0</ele><time>2026-04-19T07:00:09Z</time></trkpt><trkpt lat="42.27599874164242" lon="13.860273825728173"><ele>816.0</ele><time>2026-04-19T07:00:10Z</time></trkpt><trkpt lat="42.27595069759533" lon="13.860332770963915"><ele>817.1428571428571</ele><time>2026-04-19T07:00:11Z</time></trkpt><trkpt lat="42.27588431173848" lon="13.860374596780673"><ele>818.2857142857143</ele><time>2026-04-19T07:00:12Z</time></trkpt><trkpt lat="42.27583073635806" lon="13.860443526502205"><ele>819.4285714285713</ele><time>2026-04-19T07:00:13Z</time></trkpt><trkpt lat="42.27577893731876" lon="13.860504743534808"><ele>820.5714285714286</ele><time>2026-04-19T07:00:14Z</time></trkpt><trkpt lat="42.2757298082756" lon="13.860558758335923"><ele>821.7142857142857</ele><time>2026-04-19T07:00:15Z</time></trkpt><trkpt lat="42.27567716301136" lon="13.860612786377404"><ele>822.8571428571428</ele><time>2026-04-19T07:00:16Z</time></trkpt><trkpt lat="42.275624047963355" lon="13.860667296830599"><ele>824.0</ele><time>2026-04-19T07:00:17Z</time></trkpt><trkpt lat="42.27558284249749" lon="13.86073923816222"><ele>824.0000000000001</ele><time>2026-04-19T07:00:18Z</time></trkpt><trkpt lat="42.275517042644225" lon="13.860789240431236"><ele>824.0</ele><time>2026-04-19T07:00:19Z</time></trkpt><trkpt lat="42.27544507853188" lon="13.8608333947674"><ele>824.0</ele><time>2026-04-19T07:00:20Z</time></trkpt><trkpt lat="42.27536408487763" lon="13.86087891476508"><ele>824.0</ele><time>2026-04-19T07:00:21Z</time></trkpt><trkpt lat="42.275270326169085" lon="13.860899088229285"><ele>824.0000000000001</ele><time>2026-04-19T07:00:22Z</time></trkpt><trkpt lat="42.275189562570404" lon="13.860949967638975"><ele>824.0</ele><time>2026-04-19T07:00:23Z</time></trkpt><trkpt lat="42.27510609933615" lon="13.861001042217762"><ele>824.8333333333334</ele><time>2026-04-19T07:00:24Z</time></trkpt><trkpt lat="42.275030384327785" lon="13.861046947976552"><ele>825.6666666666667</ele><time>2026-04-19T07:00:25Z</time></trkpt><trkpt lat="42.27495941873377" lon="13.861089974145901"><ele>826.5</ele><time>2026-04-19T07:00:26Z</time></trkpt><trkpt lat="42.27489149852631" lon="13.861130941851664"><ele>827.3333333333333</ele><time>2026-04-19T07:00:27Z</time></trkpt><trkpt lat="42.274826402129975" lon="13.861168411780044"><ele>828.1666666666666</ele><time>2026-04-19T07:00:28Z</time></trkpt><trkpt lat="42.27475751597411" lon="13.86120806311286"><ele>829.0</ele><time>2026-04-19T07:00:29Z</time></trkpt><trkpt lat="42.27468587751476" lon="13.861249023373743"><ele>828.9999999999999</ele><time>2026-04-19T07:00:30Z</time></trkpt><trkpt lat="42.27460877123411" lon="13.861293776801435"><ele>829.0</ele><time>2026-04-19T07:00:31Z</time></trkpt><trkpt lat="42.27453331697847" lon="13.861341109791002"><ele>829.0</ele><time>2026-04-19T07:00:32Z</time></trkpt><trkpt lat="42.274453796866794" lon="13.861403902756257"><ele>829.0</ele><time>2026-04-19T07:00:33Z</time></trkpt><trkpt lat="42.27438163382535" lon="13.861475346956631"><ele>828.9999999999999</ele><time>2026-04-19T07:00:34Z</time></trkpt><trkpt lat="42.27431788789044" lon="13.861575448616449"><ele>829.0</ele><time>2026-04-19T07:00:35Z</time></trkpt><trkpt lat="42.27426738388279" lon="13.861676041951121"><ele>826.9999999999999</ele><time>2026-04-19T07:00:36Z</time></trkpt><trkpt lat="42.27423904693438" lon="13.861810287744134"><ele>825.0</ele><time>2026-04-19T07:00:37Z</time></trkpt><trkpt lat="42.274210161585565" lon="13.861918032392415"><ele>823.0</ele><time>2026-04-19T07:00:38Z</time></trkpt><trkpt lat="42.2741716064167" lon="13.86201931155707"><ele>821.0</ele><time>2026-04-19T07:00:39Z</time></trkpt><trkpt lat="42.27411685150896" lon="13.86209249620785"><ele>818.9999999999999</ele><time>2026-04-19T07:00:40Z</time></trkpt><trkpt lat="42.274055936181455" lon="13.862165853873908"><ele>817.0</ele><time>2026-04-19T07:00:41Z</time></trkpt><trkpt lat="42.274000271807054" lon="13.862213447445662"><ele>819.1666666666666</ele><time>2026-04-19T07:00:42Z</time></trkpt><trkpt lat="42.27392117084644" lon="13.862266215096787"><ele>821.3333333333333</ele><time>2026-04-19T07:00:44Z</time></trkpt><trkpt lat="42.273858102969044" lon="13.862171202661777"><ele>823.5</ele><time>2026-04-19T07:00:46Z</time></trkpt><trkpt lat="42.27385290030973" lon="13.862018626091276"><ele>825.6666666666667</ele><time>2026-04-19T07:00:48Z</time></trkpt><trkpt lat="42.273858527625656" lon="13.861931279854335"><ele>827.8333333333334</ele><time>2026-04-19T07:00:49Z</time></trkpt><trkpt lat="42.273858424760775" lon="13.861835193026579"><ele>830.0</ele><time>2026-04-19T07:00:50Z</time></trkpt><trkpt lat="42.273856708143434" lon="13.861738085669378"><ele>832.3333333333334</ele><time>2026-04-19T07:00:51Z</time></trkpt><trkpt lat="42.27385070525354" lon="13.861637912070568"><ele>834.6666666666667</ele><time>2026-04-19T07:00:52Z</time></trkpt><trkpt lat="42.273845084469414" lon="13.861531154686206"><ele>837.0</ele><time>2026-04-19T07:00:53Z</time></trkpt><trkpt lat="42.2738425273841" lon="13.861421349592144"><ele>839.3333333333333</ele><time>2026-04-19T07:00:54Z</time></trkpt><trkpt lat="42.273847679535685" lon="13.861311429312126"><ele>841.6666666666666</ele><time>2026-04-19T07:00:55Z</time></trkpt><trkpt lat="42.27386234260439" lon="13.861201407345318"><ele>844.0</ele><time>2026-04-19T07:00:56Z</time></trkpt><trkpt lat="42.27388579333909" lon="13.861087016138637"><ele>843.9999999999999</ele><time>2026-04-19T07:00:57Z</time></trkpt><trkpt lat="42.27391948764132" lon="13.860976992836825"><ele>844.0</ele><time>2026-04-19T07:00:58Z</time></trkpt><trkpt lat="42.273963438821504" lon="13.860871441130762"><ele>844.0</ele><time>2026-04-19T07:00:59Z</time></trkpt><trkpt lat="42.27400817672285" lon="13.860772359911428"><ele>844.0</ele><time>2026-04-19T07:01:00Z</time></trkpt><trkpt lat="42.27405257595641" lon="13.860669214618978"><ele>843.9999999999999</ele><time>2026-04-19T07:01:01Z</time></trkpt><trkpt lat="42.27409797170103" lon="13.860561454013833"><ele>844.0</ele><time>2026-04-19T07:01:02Z</time></trkpt><trkpt lat="42.274140700616705" lon="13.860454655498236"><ele>843.1666666666666</ele><time>2026-04-19T07:01:03Z</time></trkpt><trkpt lat="42.27418229498218" lon="13.860350449090706"><ele>842.3333333333333</ele><time>2026-04-19T07:01:04Z</time></trkpt><trkpt lat="42.2742206026736" lon="13.860253547514782"><ele>841.5</ele><time>2026-04-19T07:01:05Z</time></trkpt><trkpt lat="42.27425732234182" lon="13.860155609080698"><ele>840.6666666666667</ele><time>2026-04-19T07:01:06Z</time></trkpt><trkpt lat="42.27429167816884" lon="13.860060415548267"><ele>839.8333333333334</ele><time>2026-04-19T07:01:07Z</time></trkpt><trkpt lat="42.27433928063423" lon="13.859963700192104"><ele>839.0</ele><time>2026-04-19T07:01:08Z</time></trkpt><trkpt lat="42.27438153805001" lon="13.859859974450476"><ele>841.0</ele><time>2026-04-19T07:01:09Z</time></trkpt><trkpt lat="42.27441738208244" lon="13.859754375951187"><ele>843.0</ele><time>2026-04-19T07:01:10Z</time></trkpt><trkpt lat="42.27444909546278" lon="13.859642823744322"><ele>845.0</ele><time>2026-04-19T07:01:11Z</time></trkpt><trkpt lat="42.274502370669616" lon="13.85954481775425"><ele>847.0</ele><time>2026-04-19T07:01:12Z</time></trkpt><trkpt lat="42.27453094591104" lon="13.859449266316267"><ele>849.0</ele><time>2026-04-19T07:01:13Z</time></trkpt><trkpt lat="42.27449492844009" lon="13.859268884448088"><ele>849.0</ele><time>2026-04-19T07:01:15Z</time></trkpt><trkpt lat="42.27440568313953" lon="13.859241286379575"><ele>849.0</ele><time>2026-04-19T07:01:16Z</time></trkpt><trkpt lat="42.27433337685146" lon="13.859279870812781"><ele>849.0</ele><time>2026-04-19T07:01:17Z</time></trkpt><trkpt lat="42.27428582601359" lon="13.859354181071595"><ele>849.0</ele><time>2026-04-19T07:01:18Z</time></trkpt><trkpt lat="42.274178249902114" lon="13.859438192126447"><ele>849.0</ele><time>2026-04-19T07:01:19.999Z</time></trkpt><trkpt lat="42.274107418718536" lon="13.859485219488032"><ele>849.0</ele><time>2026-04-19T07:01:20.999Z</time></trkpt><trkpt lat="42.27403003797838" lon="13.859536595332472"><ele>849.0</ele><time>2026-04-19T07:01:21.999Z</time></trkpt><trkpt lat="42.27394624142728" lon="13.859592230876633"><ele>849.0</ele><time>2026-04-19T07:01:22.999Z</time></trkpt><trkpt lat="42.27385785218567" lon="13.859650915671757"><ele>849.0</ele><time>2026-04-19T07:01:23.999Z</time></trkpt><trkpt lat="42.27376838225047" lon="13.859710319643268"><ele>849.0</ele><time>2026-04-19T07:01:24.999Z</time></trkpt><trkpt lat="42.27367863378012" lon="13.859769906728387"><ele>849.0</ele><time>2026-04-19T07:01:25.999Z</time></trkpt><trkpt lat="42.27359511549915" lon="13.85982412128538"><ele>851.3333333333334</ele><time>2026-04-19T07:01:26.999Z</time></trkpt><trkpt lat="42.273520763515506" lon="13.859868416315418"><ele>853.6666666666667</ele><time>2026-04-19T07:01:27.999Z</time></trkpt><trkpt lat="42.27346126425019" lon="13.859898134532617"><ele>856.0</ele><time>2026-04-19T07:01:28.999Z</time></trkpt><trkpt lat="42.27338058358204" lon="13.859895552463703"><ele>858.3333333333334</ele><time>2026-04-19T07:01:30.999Z</time></trkpt><trkpt lat="42.27338680787316" lon="13.859755511136457"><ele>860.6666666666667</ele><time>2026-04-19T07:01:33.999Z</time></trkpt><trkpt lat="42.27343294358764" lon="13.859679880610113"><ele>863.0</ele><time>2026-04-19T07:01:34.999Z</time></trkpt><trkpt lat="42.273468754163666" lon="13.859594484647173"><ele>863.0000000000001</ele><time>2026-04-19T07:01:35.999Z</time></trkpt><trkpt lat="42.27350761251066" lon="13.859504150178308"><ele>863.0</ele><time>2026-04-19T07:01:36.999Z</time></trkpt><trkpt lat="42.27354951627931" lon="13.859404876612423"><ele>863.0</ele><time>2026-04-19T07:01:37.999Z</time></trkpt><trkpt lat="42.273589088908494" lon="13.859305449789185"><ele>863.0</ele><time>2026-04-19T07:01:38.999Z</time></trkpt><trkpt lat="42.273625170560294" lon="13.859206544843321"><ele>863.0000000000001</ele><time>2026-04-19T07:01:39.999Z</time></trkpt><trkpt lat="42.27366026924188" lon="13.859106034458003"><ele>863.0</ele><time>2026-04-19T07:01:40.999Z</time></trkpt><trkpt lat="42.27369657918999" lon="13.85901315496404"><ele>865.0000000000001</ele><time>2026-04-19T07:01:41.999Z</time></trkpt><trkpt lat="42.2737331537685" lon="13.858920634674703"><ele>867.0</ele><time>2026-04-19T07:01:42.999Z</time></trkpt><trkpt lat="42.273765501845645" lon="13.858826572245391"><ele>869.0</ele><time>2026-04-19T07:01:43.999Z</time></trkpt><trkpt lat="42.2737926479549" lon="13.858727448588473"><ele>871.0</ele><time>2026-04-19T07:01:44.999Z</time></trkpt><trkpt lat="42.27382430534224" lon="13.8586226067427"><ele>873.0000000000001</ele><time>2026-04-19T07:01:45.999Z</time></trkpt><trkpt lat="42.273852475922624" lon="13.858521800718206"><ele>875.0</ele><time>2026-04-19T07:01:46.999Z</time></trkpt><trkpt lat="42.273885964545904" lon="13.858429260439214"><ele>874.8571428571429</ele><time>2026-04-19T07:01:48Z</time></trkpt><trkpt lat="42.27392750614105" lon="13.858342301342093"><ele>874.7142857142858</ele><time>2026-04-19T07:01:49Z</time></trkpt><trkpt lat="42.27396721318019" lon="13.85826875312274"><ele>874.5714285714286</ele><time>2026-04-19T07:01:50Z</time></trkpt><trkpt lat="42.27401357103197" lon="13.858193813577726"><ele>874.4285714285714</ele><time>2026-04-19T07:01:51Z</time></trkpt><trkpt lat="42.27405854117149" lon="13.858112448730738"><ele>874.2857142857143</ele><time>2026-04-19T07:01:52Z</time></trkpt><trkpt lat="42.27409446882379" lon="13.858031375232265"><ele>874.1428571428571</ele><time>2026-04-19T07:01:53Z</time></trkpt><trkpt lat="42.274131906632455" lon="13.857949800746127"><ele>874.0</ele><time>2026-04-19T07:01:54Z</time></trkpt><trkpt lat="42.27417057797954" lon="13.857869445207644"><ele>873.9999999999999</ele><time>2026-04-19T07:01:55Z</time></trkpt><trkpt lat="42.27419151898078" lon="13.857784527189699"><ele>874.0</ele><time>2026-04-19T07:01:56Z</time></trkpt><trkpt lat="42.27418860840707" lon="13.857689626221703"><ele>874.0</ele><time>2026-04-19T07:01:57Z</time></trkpt><trkpt lat="42.274171434797694" lon="13.857600712262466"><ele>874.0</ele><time>2026-04-19T07:01:58Z</time></trkpt><trkpt lat="42.27415583666725" lon="13.857518270006624"><ele>873.9999999999999</ele><time>2026-04-19T07:01:59Z</time></trkpt><trkpt lat="42.27408947125236" lon="13.857467211840696"><ele>874.0</ele><time>2026-04-19T07:02:00Z</time></trkpt><trkpt lat="42.27397274315112" lon="13.85746990804961"><ele>876.8000000000001</ele><time>2026-04-19T07:02:02Z</time></trkpt><trkpt lat="42.273904309062615" lon="13.857543087680098"><ele>879.6000000000001</ele><time>2026-04-19T07:02:03Z</time></trkpt><trkpt lat="42.27384796172" lon="13.857668995630114"><ele>882.4</ele><time>2026-04-19T07:02:04Z</time></trkpt><trkpt lat="42.273791176840014" lon="13.857793149465273"><ele>885.2</ele><time>2026-04-19T07:02:05Z</time></trkpt><trkpt lat="42.273711835510206" lon="13.857912213368525"><ele>888.0</ele><time>2026-04-19T07:02:06Z</time></trkpt><trkpt lat="42.27359941753274" lon="13.858017467327047"><ele>888.0</ele><time>2026-04-19T07:02:07Z</time></trkpt><trkpt lat="42.27347116461474" lon="13.858111059234599"><ele>888.0</ele><time>2026-04-19T07:02:08Z</time></trkpt><trkpt lat="42.273328513456775" lon="13.858214174236457"><ele>888.0</ele><time>2026-04-19T07:02:09Z</time></trkpt><trkpt lat="42.273168091107465" lon="13.85833013516383"><ele>888.6666666666667</ele><time>2026-04-19T07:02:10Z</time></trkpt><trkpt lat="42.273002830431004" lon="13.858449188431537"><ele>889.3333333333334</ele><time>2026-04-19T07:02:11Z</time></trkpt><trkpt lat="42.272859336441236" lon="13.858550565499591"><ele>890.0</ele><time>2026-04-19T07:02:12Z</time></trkpt><trkpt lat="42.27273142362617" lon="13.858640934516288"><ele>890.0</ele><time>2026-04-19T07:02:13Z</time></trkpt><trkpt lat="42.27261971738433" lon="13.858719854296567"><ele>890.0</ele><time>2026-04-19T07:02:14Z</time></trkpt><trkpt lat="42.272524734780205" lon="13.85878911153358"><ele>890.0</ele><time>2026-04-19T07:02:15Z</time></trkpt><trkpt lat="42.27244288095372" lon="13.858849687571418"><ele>890.0</ele><time>2026-04-19T07:02:16Z</time></trkpt><trkpt lat="42.27237991463614" lon="13.858889701183259"><ele>890.0</ele><time>2026-04-19T07:02:17Z</time></trkpt><trkpt lat="42.27227815335579" lon="13.858910070730218"><ele>890.0000000000001</ele><time>2026-04-19T07:02:19Z</time></trkpt><trkpt lat="42.27223613863897" lon="13.858817951030584"><ele>890.0</ele><time>2026-04-19T07:02:21Z</time></trkpt><trkpt lat="42.2722588547443" lon="13.858734951662115"><ele>890.0</ele><time>2026-04-19T07:02:22Z</time></trkpt><trkpt lat="42.272293326238376" lon="13.858654377147573"><ele>890.0</ele><time>2026-04-19T07:02:23Z</time></trkpt><trkpt lat="42.27233276142401" lon="13.858567702139872"><ele>890.0000000000001</ele><time>2026-04-19T07:02:24Z</time></trkpt><trkpt lat="42.272382695814734" lon="13.858473808694875"><ele>890.0</ele><time>2026-04-19T07:02:25Z</time></trkpt><trkpt lat="42.27243582638757" lon="13.858367403367541"><ele>893.0</ele><time>2026-04-19T07:02:26Z</time></trkpt><trkpt lat="42.27248996789874" lon="13.8582468335772"><ele>896.0</ele><time>2026-04-19T07:02:27Z</time></trkpt><trkpt lat="42.27254515356347" lon="13.858110830585154"><ele>899.0</ele><time>2026-04-19T07:02:28Z</time></trkpt><trkpt lat="42.272614454687854" lon="13.857945454520634"><ele>902.0</ele><time>2026-04-19T07:02:29Z</time></trkpt><trkpt lat="42.27267844141625" lon="13.857776418353707"><ele>904.25</ele><time>2026-04-19T07:02:30Z</time></trkpt><trkpt lat="42.27273135749732" lon="13.857610126887726"><ele>906.5</ele><time>2026-04-19T07:02:31Z</time></trkpt><trkpt lat="42.27278219564732" lon="13.857441154822013"><ele>908.75</ele><time>2026-04-19T07:02:32Z</time></trkpt><trkpt lat="42.27284347107755" lon="13.857281486123666"><ele>911.0</ele><time>2026-04-19T07:02:33Z</time></trkpt><trkpt lat="42.2728899931996" lon="13.85715480021253"><ele>911.0</ele><time>2026-04-19T07:02:34Z</time></trkpt><trkpt lat="42.27291186875829" lon="13.857058080715545"><ele>910.9999999999999</ele><time>2026-04-19T07:02:35Z</time></trkpt><trkpt lat="42.27285817682857" lon="13.856953799955093"><ele>910.9999999999999</ele><time>2026-04-19T07:02:37Z</time></trkpt><trkpt lat="42.27271691373956" lon="13.856939009735385"><ele>911.0</ele><time>2026-04-19T07:02:39Z</time></trkpt><trkpt lat="42.27262207948588" lon="13.856978722009188"><ele>911.0</ele><time>2026-04-19T07:02:40Z</time></trkpt><trkpt lat="42.27251283104983" lon="13.85703057735598"><ele>911.0</ele><time>2026-04-19T07:02:41Z</time></trkpt><trkpt lat="42.2723964331421" lon="13.857105304867137"><ele>911.0</ele><time>2026-04-19T07:02:42Z</time></trkpt><trkpt lat="42.27227402158605" lon="13.85720869524799"><ele>911.0</ele><time>2026-04-19T07:02:43Z</time></trkpt><trkpt lat="42.27214677758118" lon="13.85732775043482"><ele>911.0</ele><time>2026-04-19T07:02:44Z</time></trkpt><trkpt lat="42.27201773713212" lon="13.857441326180995"><ele>913.0</ele><time>2026-04-19T07:02:45Z</time></trkpt><trkpt lat="42.271876841442676" lon="13.857555409376925"><ele>915.0</ele><time>2026-04-19T07:02:46Z</time></trkpt><trkpt lat="42.271736426517805" lon="13.857662221626248"><ele>917.0</ele><time>2026-04-19T07:02:47Z</time></trkpt><trkpt lat="42.271616641084535" lon="13.857739832513035"><ele>917.0000000000001</ele><time>2026-04-19T07:02:48Z</time></trkpt><trkpt lat="42.27152136459504" lon="13.857789107017082"><ele>917.0</ele><time>2026-04-19T07:02:49Z</time></trkpt><trkpt lat="42.27143866866506" lon="13.857815129896249"><ele>917.0</ele><time>2026-04-19T07:02:50Z</time></trkpt><trkpt lat="42.271349521618426" lon="13.857794941473923"><ele>917.0</ele><time>2026-04-19T07:02:52Z</time></trkpt><trkpt lat="42.27133243646781" lon="13.857677987954732"><ele>917.0000000000001</ele><time>2026-04-19T07:02:54Z</time></trkpt><trkpt lat="42.27136981122148" lon="13.857603720366585"><ele>917.0</ele><time>2026-04-19T07:02:55Z</time></trkpt><trkpt lat="42.27142510073971" lon="13.857536530140706"><ele>919.75</ele><time>2026-04-19T07:02:56Z</time></trkpt><trkpt lat="42.27149532432663" lon="13.857459703115685"><ele>922.5</ele><time>2026-04-19T07:02:57Z</time></trkpt><trkpt lat="42.27157910753339" lon="13.857344920870121"><ele>925.25</ele><time>2026-04-19T07:02:58Z</time></trkpt><trkpt lat="42.2716681198619" lon="13.857197848666333"><ele>928.0</ele><time>2026-04-19T07:02:59Z</time></trkpt><trkpt lat="42.271754792262314" lon="13.857046674927496"><ele>928.0</ele><time>2026-04-19T07:03:00Z</time></trkpt><trkpt lat="42.27181725976685" lon="13.85689125345587"><ele>928.0</ele><time>2026-04-19T07:03:01Z</time></trkpt><trkpt lat="42.27185377947594" lon="13.856716816734991"><ele>928.0</ele><time>2026-04-19T07:03:02Z</time></trkpt><trkpt lat="42.27187269876559" lon="13.856524249184478"><ele>928.0</ele><time>2026-04-19T07:03:03Z</time></trkpt><trkpt lat="42.27189261291327" lon="13.85632661246555"><ele>930.2</ele><time>2026-04-19T07:03:04Z</time></trkpt><trkpt lat="42.27191619090423" lon="13.856148649822268"><ele>932.4</ele><time>2026-04-19T07:03:05Z</time></trkpt><trkpt lat="42.271933258255295" lon="13.855994712414098"><ele>934.6000000000001</ele><time>2026-04-19T07:03:06Z</time></trkpt><trkpt lat="42.27193370148966" lon="13.855875935982374"><ele>936.8000000000001</ele><time>2026-04-19T07:03:07Z</time></trkpt><trkpt lat="42.271911965601" lon="13.855781017271335"><ele>939.0</ele><time>2026-04-19T07:03:08Z</time></trkpt><trkpt lat="42.27185358400405" lon="13.855681246400884"><ele>940.0</ele><time>2026-04-19T07:03:09Z</time></trkpt><trkpt lat="42.27177193466868" lon="13.855582401992688"><ele>941.0</ele><time>2026-04-19T07:03:10Z</time></trkpt><trkpt lat="42.27166288396706" lon="13.855470412622925"><ele>942.0</ele><time>2026-04-19T07:03:11Z</time></trkpt><trkpt lat="42.27154063937887" lon="13.855331125793873"><ele>943.0</ele><time>2026-04-19T07:03:12Z</time></trkpt><trkpt lat="42.27141622283474" lon="13.85517213032762"><ele>946.0</ele><time>2026-04-19T07:03:13Z</time></trkpt><trkpt lat="42.27128690357188" lon="13.855026177068114"><ele>949.0</ele><time>2026-04-19T07:03:14Z</time></trkpt><trkpt lat="42.27116603639136" lon="13.854893205308796"><ele>952.0</ele><time>2026-04-19T07:03:15Z</time></trkpt><trkpt lat="42.27104841744627" lon="13.85478630591536"><ele>952.0</ele><time>2026-04-19T07:03:16Z</time></trkpt><trkpt lat="42.27091252330066" lon="13.854710788227669"><ele>952.0</ele><time>2026-04-19T07:03:17Z</time></trkpt><trkpt lat="42.27077926244636" lon="13.854639593758998"><ele>952.0</ele><time>2026-04-19T07:03:18Z</time></trkpt><trkpt lat="42.270643149863176" lon="13.854600578359985"><ele>952.0</ele><time>2026-04-19T07:03:18.999Z</time></trkpt><trkpt lat="42.2705158294588" lon="13.854570861186948"><ele>954.75</ele><time>2026-04-19T07:03:19.999Z</time></trkpt><trkpt lat="42.27038752555035" lon="13.854551126567557"><ele>957.5</ele><time>2026-04-19T07:03:20.999Z</time></trkpt><trkpt lat="42.270255204993944" lon="13.854540098538912"><ele>960.25</ele><time>2026-04-19T07:03:21.999Z</time></trkpt><trkpt lat="42.27012665460499" lon="13.854539149061441"><ele>963.0</ele><time>2026-04-19T07:03:22.999Z</time></trkpt><trkpt lat="42.27000676822979" lon="13.85454810840896"><ele>963.0</ele><time>2026-04-19T07:03:23.999Z</time></trkpt><trkpt lat="42.269891351501876" lon="13.854564923550647"><ele>963.0</ele><time>2026-04-19T07:03:24.999Z</time></trkpt><trkpt lat="42.26978267276549" lon="13.854581392860423"><ele>963.0</ele><time>2026-04-19T07:03:25.999Z</time></trkpt><trkpt lat="42.269685197415754" lon="13.854595324113008"><ele>963.0</ele><time>2026-04-19T07:03:26.999Z</time></trkpt><trkpt lat="42.26958526837347" lon="13.854606204994344"><ele>963.0</ele><time>2026-04-19T07:03:27.999Z</time></trkpt><trkpt lat="42.269484636381236" lon="13.854617162526925"><ele>962.0</ele><time>2026-04-19T07:03:28.999Z</time></trkpt><trkpt lat="42.2694000597754" lon="13.854622268625356"><ele>961.0</ele><time>2026-04-19T07:03:29.999Z</time></trkpt><trkpt lat="42.269327416230716" lon="13.854625523494265"><ele>960.0</ele><time>2026-04-19T07:03:30.999Z</time></trkpt><trkpt lat="42.26925422507044" lon="13.854621900299984"><ele>959.0</ele><time>2026-04-19T07:03:31.999Z</time></trkpt><trkpt lat="42.26917389393872" lon="13.854607723734404"><ele>958.0</ele><time>2026-04-19T07:03:32.999Z</time></trkpt><trkpt lat="42.269084484390966" lon="13.854573161031784"><ele>957.0</ele><time>2026-04-19T07:03:33.999Z</time></trkpt><trkpt lat="42.269004301078155" lon="13.854515646256703"><ele>958.4000000000001</ele><time>2026-04-19T07:03:34.999Z</time></trkpt><trkpt lat="42.26891922943585" lon="13.854436052199302"><ele>959.8000000000001</ele><time>2026-04-19T07:03:35.999Z</time></trkpt><trkpt lat="42.26884964533068" lon="13.85433585623422"><ele>961.2</ele><time>2026-04-19T07:03:36.999Z</time></trkpt><trkpt lat="42.26878298541022" lon="13.854226296323418"><ele>962.6</ele><time>2026-04-19T07:03:37.999Z</time></trkpt><trkpt lat="42.26872424521684" lon="13.854109481736902"><ele>964.0</ele><time>2026-04-19T07:03:38.999Z</time></trkpt><trkpt lat="42.268671532254515" lon="13.85399072182991"><ele>963.9999999999999</ele><time>2026-04-19T07:03:39.999Z</time></trkpt><trkpt lat="42.26862965353465" lon="13.853898654713669"><ele>964.0</ele><time>2026-04-19T07:03:40.999Z</time></trkpt><trkpt lat="42.26859430602868" lon="13.853821785870316"><ele>964.0</ele><time>2026-04-19T07:03:41.999Z</time></trkpt><trkpt lat="42.268553149911455" lon="13.8537488415914"><ele>964.0</ele><time>2026-04-19T07:03:42.999Z</time></trkpt><trkpt lat="42.26855323061266" lon="13.853643451136882"><ele>963.9999999999999</ele><time>2026-04-19T07:03:43.999Z</time></trkpt><trkpt lat="42.26858847012713" lon="13.853521355605103"><ele>964.0</ele><time>2026-04-19T07:03:44.999Z</time></trkpt><trkpt lat="42.268644867850035" lon="13.853393874674257"><ele>964.5</ele><time>2026-04-19T07:03:45.999Z</time></trkpt><trkpt lat="42.2687348550044" lon="13.853248783379762"><ele>965.0</ele><time>2026-04-19T07:03:46.999Z</time></trkpt><trkpt lat="42.2688241633001" lon="13.853114385968466"><ele>965.5</ele><time>2026-04-19T07:03:47.999Z</time></trkpt><trkpt lat="42.26889821964487" lon="13.852992265972762"><ele>966.0</ele><time>2026-04-19T07:03:48.999Z</time></trkpt><trkpt lat="42.268958722391204" lon="13.852881127727874"><ele>966.0</ele><time>2026-04-19T07:03:49.999Z</time></trkpt><trkpt lat="42.26901378581397" lon="13.852766038246248"><ele>965.9999999999999</ele><time>2026-04-19T07:03:50.999Z</time></trkpt><trkpt lat="42.26906508989907" lon="13.85265775811087"><ele>965.9999999999999</ele><time>2026-04-19T07:03:51.999Z</time></trkpt><trkpt lat="42.269116754997704" lon="13.85254825475009"><ele>966.0</ele><time>2026-04-19T07:03:53Z</time></trkpt><trkpt lat="42.26916750261819" lon="13.852445331833668"><ele>966.0</ele><time>2026-04-19T07:03:54Z</time></trkpt><trkpt lat="42.269221719436445" lon="13.852348033978238"><ele>966.8333333333334</ele><time>2026-04-19T07:03:55Z</time></trkpt><trkpt lat="42.26926779998799" lon="13.85225932734972"><ele>967.6666666666667</ele><time>2026-04-19T07:03:56Z</time></trkpt><trkpt lat="42.26930820198899" lon="13.852173477937923"><ele>968.5</ele><time>2026-04-19T07:03:57Z</time></trkpt><trkpt lat="42.26934825416361" lon="13.852092798990556"><ele>969.3333333333334</ele><time>2026-04-19T07:03:58Z</time></trkpt><trkpt lat="42.269395459159156" lon="13.852003417838773"><ele>970.1666666666667</ele><time>2026-04-19T07:03:59Z</time></trkpt><trkpt lat="42.26944003765387" lon="13.851908664779181"><ele>971.0</ele><time>2026-04-19T07:04:00Z</time></trkpt><trkpt lat="42.26948514072747" lon="13.851813700521909"><ele>972.0</ele><time>2026-04-19T07:04:01Z</time></trkpt><trkpt lat="42.269523017804744" lon="13.851712718377636"><ele>972.9999999999999</ele><time>2026-04-19T07:04:02Z</time></trkpt><trkpt lat="42.26955284286613" lon="13.85161332081314"><ele>973.9999999999999</ele><time>2026-04-19T07:04:03Z</time></trkpt><trkpt lat="42.26957704233066" lon="13.851429557410698"><ele>975.0</ele><time>2026-04-19T07:04:05Z</time></trkpt><trkpt lat="42.26956901755242" lon="13.851343088173007"><ele>976.0</ele><time>2026-04-19T07:04:06Z</time></trkpt><trkpt lat="42.26954836478381" lon="13.851182898526474"><ele>975.9999999999999</ele><time>2026-04-19T07:04:08Z</time></trkpt><trkpt lat="42.26956369770341" lon="13.85103438878455"><ele>976.0</ele><time>2026-04-19T07:04:10Z</time></trkpt><trkpt lat="42.269594482676716" lon="13.850955392769544"><ele>976.0</ele><time>2026-04-19T07:04:11Z</time></trkpt><trkpt lat="42.269637482908564" lon="13.85088502995562"><ele>976.0</ele><time>2026-04-19T07:04:12Z</time></trkpt><trkpt lat="42.269683071462175" lon="13.850801556218995"><ele>975.9999999999999</ele><time>2026-04-19T07:04:13Z</time></trkpt><trkpt lat="42.26973028984396" lon="13.850716764610532"><ele>976.0</ele><time>2026-04-19T07:04:14Z</time></trkpt><trkpt lat="42.26978487340272" lon="13.85061951521287"><ele>976.4999999999999</ele><time>2026-04-19T07:04:15Z</time></trkpt><trkpt lat="42.26983866052894" lon="13.85052103369963"><ele>977.0</ele><time>2026-04-19T07:04:16Z</time></trkpt><trkpt lat="42.269891254952704" lon="13.850421134405693"><ele>977.5</ele><time>2026-04-19T07:04:17Z</time></trkpt><trkpt lat="42.26993444650523" lon="13.850319577559599"><ele>978.0</ele><time>2026-04-19T07:04:18Z</time></trkpt><trkpt lat="42.26997428187863" lon="13.850217866777742"><ele>978.4999999999999</ele><time>2026-04-19T07:04:19Z</time></trkpt><trkpt lat="42.270004593842934" lon="13.850112825246523"><ele>979.0</ele><time>2026-04-19T07:04:20Z</time></trkpt><trkpt lat="42.27004048362634" lon="13.85001281553785"><ele>978.9999999999999</ele><time>2026-04-19T07:04:21Z</time></trkpt><trkpt lat="42.270087380134356" lon="13.849918350707162"><ele>979.0</ele><time>2026-04-19T07:04:22Z</time></trkpt><trkpt lat="42.27014721155825" lon="13.849833266523696"><ele>979.0</ele><time>2026-04-19T07:04:23Z</time></trkpt><trkpt lat="42.27021504618273" lon="13.8497604776251"><ele>979.0</ele><time>2026-04-19T07:04:24Z</time></trkpt><trkpt lat="42.270290605429665" lon="13.849701235332986"><ele>978.9999999999999</ele><time>2026-04-19T07:04:25Z</time></trkpt><trkpt lat="42.2703753411222" lon="13.8496560963981"><ele>979.0</ele><time>2026-04-19T07:04:26Z</time></trkpt><trkpt lat="42.27046495946508" lon="13.849623769414043"><ele>979.0</ele><time>2026-04-19T07:04:27Z</time></trkpt><trkpt lat="42.27055508284278" lon="13.849596159342083"><ele>979.0000000000001</ele><time>2026-04-19T07:04:28Z</time></trkpt><trkpt lat="42.27064645282757" lon="13.84957485080967"><ele>979.0000000000001</ele><time>2026-04-19T07:04:29Z</time></trkpt><trkpt lat="42.2707484132053" lon="13.849553172598734"><ele>979.0</ele><time>2026-04-19T07:04:30Z</time></trkpt><trkpt lat="42.27084932233764" lon="13.849526501594827"><ele>979.0</ele><time>2026-04-19T07:04:31Z</time></trkpt><trkpt lat="42.27093589285038" lon="13.849483383235405"><ele>979.0</ele><time>2026-04-19T07:04:32Z</time></trkpt><trkpt lat="42.27099164834682" lon="13.849417500710187"><ele>979.0</ele><time>2026-04-19T07:04:33Z</time></trkpt><trkpt lat="42.271013066319995" lon="13.849333813933253"><ele>979.0</ele><time>2026-04-19T07:04:34Z</time></trkpt><trkpt lat="42.27100749070958" lon="13.849247154930325"><ele>979.0</ele><time>2026-04-19T07:04:35Z</time></trkpt><trkpt lat="42.27098826147902" lon="13.84915592367205"><ele>979.0</ele><time>2026-04-19T07:04:36Z</time></trkpt><trkpt lat="42.2709601978392" lon="13.849058743545326"><ele>979.0</ele><time>2026-04-19T07:04:37Z</time></trkpt><trkpt lat="42.27094828118352" lon="13.848932221069873"><ele>979.0</ele><time>2026-04-19T07:04:38Z</time></trkpt><trkpt lat="42.27091587613797" lon="13.848807307987784"><ele>979.0</ele><time>2026-04-19T07:04:39Z</time></trkpt><trkpt lat="42.27092366257546" lon="13.848687154480514"><ele>979.0000000000001</ele><time>2026-04-19T07:04:40Z</time></trkpt><trkpt lat="42.27094866904408" lon="13.848570679059675"><ele>979.0000000000001</ele><time>2026-04-19T07:04:41Z</time></trkpt><trkpt lat="42.27098068593095" lon="13.848443307322464"><ele>979.0</ele><time>2026-04-19T07:04:42Z</time></trkpt><trkpt lat="42.27102656311917" lon="13.848301383628295"><ele>979.0</ele><time>2026-04-19T07:04:43Z</time></trkpt><trkpt lat="42.27107426488356" lon="13.848156459005656"><ele>979.0</ele><time>2026-04-19T07:04:44Z</time></trkpt><trkpt lat="42.27112795181708" lon="13.848026997450823"><ele>979.0000000000001</ele><time>2026-04-19T07:04:45Z</time></trkpt><trkpt lat="42.27118538222518" lon="13.847912967676072"><ele>979.0000000000001</ele><time>2026-04-19T07:04:46Z</time></trkpt><trkpt lat="42.27124780683078" lon="13.847808182955022"><ele>979.0</ele><time>2026-04-19T07:04:47Z</time></trkpt><trkpt lat="42.27130982811414" lon="13.847713319571962"><ele>979.0</ele><time>2026-04-19T07:04:48Z</time></trkpt><trkpt lat="42.271381118651156" lon="13.84761228062002"><ele>976.0</ele><time>2026-04-19T07:04:49Z</time></trkpt><trkpt lat="42.271457263547866" lon="13.847514745787576"><ele>973.0000000000001</ele><time>2026-04-19T07:04:50Z</time></trkpt><trkpt lat="42.27153285832735" lon="13.847420488985186"><ele>970.0000000000001</ele><time>2026-04-19T07:04:51Z</time></trkpt><trkpt lat="42.2716097606951" lon="13.847320725105904"><ele>967.0</ele><time>2026-04-19T07:04:52Z</time></trkpt><trkpt lat="42.271681502487226" lon="13.847212729880285"><ele>964.0</ele><time>2026-04-19T07:04:53Z</time></trkpt><trkpt lat="42.27173759193144" lon="13.84710069388127"><ele>964.0</ele><time>2026-04-19T07:04:54Z</time></trkpt><trkpt lat="42.27178250287908" lon="13.846988685900094"><ele>964.0000000000001</ele><time>2026-04-19T07:04:55Z</time></trkpt><trkpt lat="42.271823468898816" lon="13.84687623316893"><ele>964.0000000000001</ele><time>2026-04-19T07:04:56Z</time></trkpt><trkpt lat="42.27185533233606" lon="13.84676604221129"><ele>964.0</ele><time>2026-04-19T07:04:57Z</time></trkpt><trkpt lat="42.27188148842206" lon="13.846652832556757"><ele>964.0</ele><time>2026-04-19T07:04:58Z</time></trkpt><trkpt lat="42.271904429886725" lon="13.846537556674216"><ele>964.8333333333333</ele><time>2026-04-19T07:04:59Z</time></trkpt><trkpt lat="42.27192657064504" lon="13.846419009025857"><ele>965.6666666666666</ele><time>2026-04-19T07:05:00Z</time></trkpt><trkpt lat="42.271942106140216" lon="13.846314811036502"><ele>966.5</ele><time>2026-04-19T07:05:01Z</time></trkpt><trkpt lat="42.27196124771965" lon="13.84622368360573"><ele>967.3333333333333</ele><time>2026-04-19T07:05:02Z</time></trkpt><trkpt lat="42.271993286040974" lon="13.846118211142386"><ele>968.1666666666666</ele><time>2026-04-19T07:05:03Z</time></trkpt><trkpt lat="42.27203896222231" lon="13.846002923392737"><ele>969.0</ele><time>2026-04-19T07:05:04Z</time></trkpt><trkpt lat="42.272097017140226" lon="13.84588046429209"><ele>970.2</ele><time>2026-04-19T07:05:05Z</time></trkpt><trkpt lat="42.27216735877206" lon="13.845768820319494"><ele>971.4000000000001</ele><time>2026-04-19T07:05:06Z</time></trkpt><trkpt lat="42.272240272204954" lon="13.845664742824132"><ele>972.6</ele><time>2026-04-19T07:05:07Z</time></trkpt><trkpt lat="42.27231574542729" lon="13.84556059775311"><ele>973.8</ele><time>2026-04-19T07:05:08Z</time></trkpt><trkpt lat="42.272390771313276" lon="13.845445130051418"><ele>975.0</ele><time>2026-04-19T07:05:09Z</time></trkpt><trkpt lat="42.27246859844487" lon="13.845326861506903"><ele>972.75</ele><time>2026-04-19T07:05:10Z</time></trkpt><trkpt lat="42.272552485794435" lon="13.84521777880827"><ele>970.5</ele><time>2026-04-19T07:05:11Z</time></trkpt><trkpt lat="42.27264513266411" lon="13.845130914756599"><ele>968.25</ele><time>2026-04-19T07:05:12Z</time></trkpt><trkpt lat="42.27274512325343" lon="13.845060444972889"><ele>966.0</ele><time>2026-04-19T07:05:13Z</time></trkpt><trkpt lat="42.272842796083054" lon="13.844986479952384"><ele>966.0</ele><time>2026-04-19T07:05:14Z</time></trkpt><trkpt lat="42.272934957550035" lon="13.844896876479748"><ele>966.0</ele><time>2026-04-19T07:05:15Z</time></trkpt><trkpt lat="42.27302868677207" lon="13.844796780563893"><ele>966.0</ele><time>2026-04-19T07:05:16Z</time></trkpt><trkpt lat="42.273123964096634" lon="13.844690211615701"><ele>966.0</ele><time>2026-04-19T07:05:17Z</time></trkpt><trkpt lat="42.27320845103299" lon="13.844587739082966"><ele>966.75</ele><time>2026-04-19T07:05:18Z</time></trkpt><trkpt lat="42.273290136524196" lon="13.84448838537485"><ele>967.5</ele><time>2026-04-19T07:05:19Z</time></trkpt><trkpt lat="42.27337089731652" lon="13.844390780712125"><ele>968.25</ele><time>2026-04-19T07:05:20Z</time></trkpt><trkpt lat="42.27346532813376" lon="13.844289835872171"><ele>969.0</ele><time>2026-04-19T07:05:20.999Z</time></trkpt><trkpt lat="42.27355419246746" lon="13.84418827172658"><ele>969.0</ele><time>2026-04-19T07:05:21.999Z</time></trkpt><trkpt lat="42.27364275645259" lon="13.844074546686121"><ele>969.0</ele><time>2026-04-19T07:05:22.999Z</time></trkpt><trkpt lat="42.27373598966753" lon="13.843957658684213"><ele>969.0</ele><time>2026-04-19T07:05:23.999Z</time></trkpt><trkpt lat="42.273838295864486" lon="13.843847976430204"><ele>969.0</ele><time>2026-04-19T07:05:24.999Z</time></trkpt><trkpt lat="42.273929076503876" lon="13.843751127434627"><ele>965.1666666666666</ele><time>2026-04-19T07:05:25.999Z</time></trkpt><trkpt lat="42.27401924831237" lon="13.843653531351684"><ele>961.3333333333333</ele><time>2026-04-19T07:05:26.999Z</time></trkpt><trkpt lat="42.27410302087534" lon="13.843576259880983"><ele>957.5</ele><time>2026-04-19T07:05:27.999Z</time></trkpt><trkpt lat="42.27418167023402" lon="13.843535175354727"><ele>953.6666666666666</ele><time>2026-04-19T07:05:28.999Z</time></trkpt><trkpt lat="42.27425151902629" lon="13.843542507894986"><ele>949.8333333333333</ele><time>2026-04-19T07:05:29.999Z</time></trkpt><trkpt lat="42.2743070058284" lon="13.843615338317628"><ele>946.0</ele><time>2026-04-19T07:05:30.999Z</time></trkpt><trkpt lat="42.274355998131114" lon="13.84370103615403"><ele>946.0</ele><time>2026-04-19T07:05:31.999Z</time></trkpt><trkpt lat="42.27437915582011" lon="13.84381384472871"><ele>945.9999999999999</ele><time>2026-04-19T07:05:32.999Z</time></trkpt><trkpt lat="42.27434633309855" lon="13.843909821464814"><ele>945.9999999999999</ele><time>2026-04-19T07:05:33.999Z</time></trkpt><trkpt lat="42.27431315401205" lon="13.843997829056626"><ele>946.0</ele><time>2026-04-19T07:05:34.999Z</time></trkpt><trkpt lat="42.27427851456978" lon="13.844132543895439"><ele>946.0</ele><time>2026-04-19T07:05:35.999Z</time></trkpt><trkpt lat="42.274231412588485" lon="13.84430204744957"><ele>941.3333333333333</ele><time>2026-04-19T07:05:36.999Z</time></trkpt><trkpt lat="42.274192484286665" lon="13.844502939372349"><ele>936.6666666666667</ele><time>2026-04-19T07:05:37.999Z</time></trkpt><trkpt lat="42.27413098594063" lon="13.844717168399747"><ele>932.0</ele><time>2026-04-19T07:05:38.999Z</time></trkpt><trkpt lat="42.27406622649528" lon="13.844937868882193"><ele>934.6666666666667</ele><time>2026-04-19T07:05:39.999Z</time></trkpt><trkpt lat="42.273990628021316" lon="13.845132688733072"><ele>937.3333333333333</ele><time>2026-04-19T07:05:40.999Z</time></trkpt><trkpt lat="42.27392227434548" lon="13.845336366918456"><ele>940.0</ele><time>2026-04-19T07:05:41.999Z</time></trkpt><trkpt lat="42.27385118578473" lon="13.845548261484565"><ele>940.0</ele><time>2026-04-19T07:05:42.999Z</time></trkpt><trkpt lat="42.27379107787045" lon="13.845757414634143"><ele>940.0</ele><time>2026-04-19T07:05:43.999Z</time></trkpt><trkpt lat="42.27376402294818" lon="13.845965706524757"><ele>940.0</ele><time>2026-04-19T07:05:44.999Z</time></trkpt><trkpt lat="42.27374429993542" lon="13.846175548585187"><ele>937.6666666666666</ele><time>2026-04-19T07:05:45.999Z</time></trkpt><trkpt lat="42.27373848708565" lon="13.846401929469415"><ele>935.3333333333333</ele><time>2026-04-19T07:05:46.999Z</time></trkpt><trkpt lat="42.2737000242677" lon="13.846596381064515"><ele>933.0</ele><time>2026-04-19T07:05:47.999Z</time></trkpt><trkpt lat="42.27368370256855" lon="13.846782527025466"><ele>931.8</ele><time>2026-04-19T07:05:48.999Z</time></trkpt><trkpt lat="42.27368963714349" lon="13.846935944332804"><ele>930.5999999999999</ele><time>2026-04-19T07:05:49.999Z</time></trkpt><trkpt lat="42.273691731306734" lon="13.847060944271002"><ele>929.4000000000001</ele><time>2026-04-19T07:05:50.999Z</time></trkpt><trkpt lat="42.273725967324694" lon="13.84716854859678"><ele>928.2</ele><time>2026-04-19T07:05:51.999Z</time></trkpt><trkpt lat="42.27377659328257" lon="13.847260872221712"><ele>927.0</ele><time>2026-04-19T07:05:52.999Z</time></trkpt><trkpt lat="42.27384198119111" lon="13.847341991954856"><ele>927.0</ele><time>2026-04-19T07:05:53.999Z</time></trkpt><trkpt lat="42.273915285172826" lon="13.847379404624814"><ele>927.0</ele><time>2026-04-19T07:05:54.999Z</time></trkpt><trkpt lat="42.27398917045067" lon="13.847373535120253"><ele>927.0</ele><time>2026-04-19T07:05:55.999Z</time></trkpt><trkpt lat="42.274056876475505" lon="13.847304752639488"><ele>927.0</ele><time>2026-04-19T07:05:56.999Z</time></trkpt><trkpt lat="42.27410543172151" lon="13.847208549885128"><ele>927.0</ele><time>2026-04-19T07:05:58Z</time></trkpt><trkpt lat="42.27413456092109" lon="13.847082106988282"><ele>927.0</ele><time>2026-04-19T07:05:59Z</time></trkpt><trkpt lat="42.27415778113142" lon="13.846932806797989"><ele>923.75</ele><time>2026-04-19T07:06:00Z</time></trkpt><trkpt lat="42.274208593722236" lon="13.84677108020852"><ele>920.5</ele><time>2026-04-19T07:06:01Z</time></trkpt><trkpt lat="42.27426178630177" lon="13.846597000816402"><ele>917.25</ele><time>2026-04-19T07:06:02Z</time></trkpt><trkpt lat="42.27432403694908" lon="13.846441598925455"><ele>914.0</ele><time>2026-04-19T07:06:03Z</time></trkpt><trkpt lat="42.27438473709349" lon="13.846312341844273"><ele>914.0</ele><time>2026-04-19T07:06:04Z</time></trkpt><trkpt lat="42.27445096254955" lon="13.846198333699862"><ele>914.0</ele><time>2026-04-19T07:06:05Z</time></trkpt><trkpt lat="42.27454486416421" lon="13.846081404143252"><ele>914.0</ele><time>2026-04-19T07:06:06Z</time></trkpt><trkpt lat="42.27466814916659" lon="13.845960911471176"><ele>914.0</ele><time>2026-04-19T07:06:07Z</time></trkpt><trkpt lat="42.274814976754385" lon="13.845846783603303"><ele>910.0</ele><time>2026-04-19T07:06:08Z</time></trkpt><trkpt lat="42.27497392405459" lon="13.845738084658844"><ele>906.0</ele><time>2026-04-19T07:06:09Z</time></trkpt><trkpt lat="42.275130913107645" lon="13.845645209968943"><ele>902.0</ele><time>2026-04-19T07:06:10Z</time></trkpt><trkpt lat="42.275288576560634" lon="13.845557661234208"><ele>902.0</ele><time>2026-04-19T07:06:11Z</time></trkpt><trkpt lat="42.2754473877103" lon="13.845471785251876"><ele>902.0</ele><time>2026-04-19T07:06:12Z</time></trkpt><trkpt lat="42.275597669196145" lon="13.84538430732077"><ele>902.0</ele><time>2026-04-19T07:06:13Z</time></trkpt><trkpt lat="42.27573843703156" lon="13.845298207328963"><ele>902.5</ele><time>2026-04-19T07:06:14Z</time></trkpt><trkpt lat="42.275875113640296" lon="13.845221854817966"><ele>903.0</ele><time>2026-04-19T07:06:15Z</time></trkpt><trkpt lat="42.27600976554177" lon="13.845149989899173"><ele>903.5</ele><time>2026-04-19T07:06:16Z</time></trkpt><trkpt lat="42.27613782635605" lon="13.84508137268617"><ele>904.0</ele><time>2026-04-19T07:06:17Z</time></trkpt><trkpt lat="42.276265203556704" lon="13.845010330912418"><ele>904.0</ele><time>2026-04-19T07:06:18Z</time></trkpt><trkpt lat="42.27639895201611" lon="13.844941596232017"><ele>904.0</ele><time>2026-04-19T07:06:19Z</time></trkpt><trkpt lat="42.276539215193" lon="13.844880715183532"><ele>904.0</ele><time>2026-04-19T07:06:20Z</time></trkpt><trkpt lat="42.27666848771278" lon="13.84482199724319"><ele>904.0</ele><time>2026-04-19T07:06:21Z</time></trkpt><trkpt lat="42.276769178541294" lon="13.844772297493988"><ele>901.8000000000001</ele><time>2026-04-19T07:06:22Z</time></trkpt><trkpt lat="42.27683737433065" lon="13.844696072593582"><ele>899.6000000000001</ele><time>2026-04-19T07:06:23Z</time></trkpt><trkpt lat="42.2768676977328" lon="13.844583822362324"><ele>897.4</ele><time>2026-04-19T07:06:24Z</time></trkpt><trkpt lat="42.27686995624735" lon="13.844440442812976"><ele>895.2</ele><time>2026-04-19T07:06:25Z</time></trkpt><trkpt lat="42.27685015322158" lon="13.844285459871632"><ele>893.0</ele><time>2026-04-19T07:06:26Z</time></trkpt><trkpt lat="42.276820429147165" lon="13.844144989230792"><ele>893.0</ele><time>2026-04-19T07:06:27Z</time></trkpt><trkpt lat="42.27681412887494" lon="13.84401343653449"><ele>893.0</ele><time>2026-04-19T07:06:28Z</time></trkpt><trkpt lat="42.27681554827906" lon="13.843895000765864"><ele>893.0</ele><time>2026-04-19T07:06:28.999Z</time></trkpt><trkpt lat="42.276819090285436" lon="13.843771382217911"><ele>893.0</ele><time>2026-04-19T07:06:29.999Z</time></trkpt><trkpt lat="42.27678629624732" lon="13.843644227691717"><ele>893.0</ele><time>2026-04-19T07:06:30.999Z</time></trkpt><trkpt lat="42.27676991437342" lon="13.843517080499765"><ele>893.0</ele><time>2026-04-19T07:06:31.999Z</time></trkpt><trkpt lat="42.27677036697517" lon="13.843391696186046"><ele>893.0</ele><time>2026-04-19T07:06:32.999Z</time></trkpt><trkpt lat="42.2767959420862" lon="13.843261837732944"><ele>893.0</ele><time>2026-04-19T07:06:33.999Z</time></trkpt><trkpt lat="42.27684383838791" lon="13.843151282545213"><ele>893.0</ele><time>2026-04-19T07:06:34.999Z</time></trkpt><trkpt lat="42.27690509265272" lon="13.843034908039245"><ele>893.0</ele><time>2026-04-19T07:06:35.999Z</time></trkpt><trkpt lat="42.27697667977584" lon="13.84288729088831"><ele>893.0</ele><time>2026-04-19T07:06:36.999Z</time></trkpt><trkpt lat="42.27707938194681" lon="13.842753726914523"><ele>893.0</ele><time>2026-04-19T07:06:37.999Z</time></trkpt><trkpt lat="42.27718559949464" lon="13.842620298051305"><ele>893.0</ele><time>2026-04-19T07:06:38.999Z</time></trkpt><trkpt lat="42.27729228647853" lon="13.842518382788635"><ele>893.0</ele><time>2026-04-19T07:06:39.999Z</time></trkpt><trkpt lat="42.277402746873946" lon="13.842433079048845"><ele>892.25</ele><time>2026-04-19T07:06:40.999Z</time></trkpt><trkpt lat="42.27753731540027" lon="13.842408247613339"><ele>891.5</ele><time>2026-04-19T07:06:41.999Z</time></trkpt><trkpt lat="42.27768883173152" lon="13.842399057767294"><ele>890.75</ele><time>2026-04-19T07:06:42.999Z</time></trkpt><trkpt lat="42.27784675631535" lon="13.842385509900362"><ele>890.0</ele><time>2026-04-19T07:06:43.999Z</time></trkpt><trkpt lat="42.27798600754306" lon="13.842365858169893"><ele>888.0</ele><time>2026-04-19T07:06:44.999Z</time></trkpt><trkpt lat="42.27810357652968" lon="13.84234563717023"><ele>886.0</ele><time>2026-04-19T07:06:45.999Z</time></trkpt><trkpt lat="42.27820093278038" lon="13.842306437115116"><ele>884.0</ele><time>2026-04-19T07:06:46.999Z</time></trkpt><trkpt lat="42.278275340961905" lon="13.842234234473786"><ele>882.0</ele><time>2026-04-19T07:06:47.999Z</time></trkpt><trkpt lat="42.278333016767725" lon="13.84216864810308"><ele>880.0</ele><time>2026-04-19T07:06:48.999Z</time></trkpt><trkpt lat="42.2783390186054" lon="13.842050375949272"><ele>880.0</ele><time>2026-04-19T07:06:49.999Z</time></trkpt><trkpt lat="42.2783406785968" lon="13.84193512515362"><ele>880.0</ele><time>2026-04-19T07:06:50.999Z</time></trkpt><trkpt lat="42.27832259827686" lon="13.841799855023153"><ele>880.0</ele><time>2026-04-19T07:06:51.999Z</time></trkpt><trkpt lat="42.278321300027045" lon="13.841644551644995"><ele>880.0</ele><time>2026-04-19T07:06:52.999Z</time></trkpt><trkpt lat="42.27830279417135" lon="13.841464626649193"><ele>880.0</ele><time>2026-04-19T07:06:53.999Z</time></trkpt><trkpt lat="42.27828277141435" lon="13.841267460003925"><ele>882.5</ele><time>2026-04-19T07:06:54.999Z</time></trkpt><trkpt lat="42.27826262291065" lon="13.841055537843019"><ele>885.0</ele><time>2026-04-19T07:06:55.999Z</time></trkpt><trkpt lat="42.27824585753243" lon="13.840862196952152"><ele>887.5</ele><time>2026-04-19T07:06:56.999Z</time></trkpt><trkpt lat="42.27823162859946" lon="13.840692829304142"><ele>890.0</ele><time>2026-04-19T07:06:57.999Z</time></trkpt><trkpt lat="42.27823159599397" lon="13.840540924500244"><ele>891.0</ele><time>2026-04-19T07:06:58.999Z</time></trkpt><trkpt lat="42.27825626259469" lon="13.840391003663713"><ele>892.0</ele><time>2026-04-19T07:06:59.999Z</time></trkpt><trkpt lat="42.278298075224036" lon="13.840246721937758"><ele>893.0</ele><time>2026-04-19T07:07:00.999Z</time></trkpt><trkpt lat="42.278337744553646" lon="13.84013483124265"><ele>894.0</ele><time>2026-04-19T07:07:01.999Z</time></trkpt><trkpt lat="42.278379752752286" lon="13.840043216151033"><ele>895.0</ele><time>2026-04-19T07:07:03.999Z</time></trkpt><trkpt lat="42.27842344041841" lon="13.839891691455682"><ele>896.2857142857142</ele><time>2026-04-19T07:12:57Z</time></trkpt><trkpt lat="42.27845915557096" lon="13.839815440093266"><ele>897.5714285714287</ele><time>2026-04-19T07:12:58Z</time></trkpt><trkpt lat="42.2784996326096" lon="13.839741542742049"><ele>898.8571428571429</ele><time>2026-04-19T07:12:59Z</time></trkpt><trkpt lat="42.278566551938205" lon="13.839694567049838"><ele>900.1428571428571</ele><time>2026-04-19T07:13:00Z</time></trkpt><trkpt lat="42.27861368438343" lon="13.839623212954642"><ele>901.4285714285713</ele><time>2026-04-19T07:13:01Z</time></trkpt><trkpt lat="42.27866219911679" lon="13.839552318195024"><ele>902.7142857142858</ele><time>2026-04-19T07:13:02Z</time></trkpt><trkpt lat="42.27871489476503" lon="13.839478116755743"><ele>904.0</ele><time>2026-04-19T07:13:03Z</time></trkpt><trkpt lat="42.27877760522514" lon="13.839394959778776"><ele>902.25</ele><time>2026-04-19T07:13:04Z</time></trkpt><trkpt lat="42.27884881821996" lon="13.839287907457894"><ele>900.5</ele><time>2026-04-19T07:13:05Z</time></trkpt><trkpt lat="42.27892644236916" lon="13.839141461879617"><ele>898.75</ele><time>2026-04-19T07:13:06Z</time></trkpt><trkpt lat="42.27900037127656" lon="13.838942997986067"><ele>897.0</ele><time>2026-04-19T07:13:07Z</time></trkpt><trkpt lat="42.279031757590936" lon="13.838721571665307"><ele>897.0</ele><time>2026-04-19T07:13:08Z</time></trkpt><trkpt lat="42.279056527803974" lon="13.838548703989616"><ele>897.0</ele><time>2026-04-19T07:13:09Z</time></trkpt><trkpt lat="42.279091354825766" lon="13.83840717324702"><ele>897.0</ele><time>2026-04-19T07:13:09.999Z</time></trkpt><trkpt lat="42.2791391227404" lon="13.838274516103317"><ele>897.0</ele><time>2026-04-19T07:13:10.999Z</time></trkpt><trkpt lat="42.27922772635522" lon="13.838203083532031"><ele>900.25</ele><time>2026-04-19T07:13:11.999Z</time></trkpt><trkpt lat="42.27932960051411" lon="13.838121408742603"><ele>903.5</ele><time>2026-04-19T07:13:12.999Z</time></trkpt><trkpt lat="42.2794336183258" lon="13.838017216231869"><ele>906.75</ele><time>2026-04-19T07:13:13.999Z</time></trkpt><trkpt lat="42.27955132670546" lon="13.837923447086872"><ele>910.0</ele><time>2026-04-19T07:13:14.999Z</time></trkpt><trkpt lat="42.279630090820596" lon="13.83779431032714"><ele>910.0</ele><time>2026-04-19T07:13:15.999Z</time></trkpt><trkpt lat="42.27967993624456" lon="13.837649730947513"><ele>910.0</ele><time>2026-04-19T07:13:16.999Z</time></trkpt><trkpt lat="42.2797203776469" lon="13.837506119488587"><ele>910.0</ele><time>2026-04-19T07:13:17.999Z</time></trkpt><trkpt lat="42.279818665556796" lon="13.837243465018103"><ele>910.0</ele><time>2026-04-19T07:13:19.999Z</time></trkpt><trkpt lat="42.2798605805384" lon="13.83711478189334"><ele>910.8</ele><time>2026-04-19T07:13:20.999Z</time></trkpt><trkpt lat="42.279904576648875" lon="13.836985899664011"><ele>911.6</ele><time>2026-04-19T07:13:21.999Z</time></trkpt><trkpt lat="42.279942454665" lon="13.836867636465156"><ele>912.4000000000001</ele><time>2026-04-19T07:13:22.999Z</time></trkpt><trkpt lat="42.28001337224147" lon="13.836790131837665"><ele>913.2</ele><time>2026-04-19T07:13:23.999Z</time></trkpt><trkpt lat="42.28010422263773" lon="13.836719235111103"><ele>914.0</ele><time>2026-04-19T07:13:24.999Z</time></trkpt><trkpt lat="42.28021838732467" lon="13.836695874440409"><ele>914.0</ele><time>2026-04-19T07:13:25.999Z</time></trkpt><trkpt lat="42.28033600362529" lon="13.836693358497204"><ele>914.0</ele><time>2026-04-19T07:13:26.999Z</time></trkpt><trkpt lat="42.28046093931786" lon="13.836698355445314"><ele>914.0</ele><time>2026-04-19T07:13:27.999Z</time></trkpt><trkpt lat="42.280595250791585" lon="13.836700878783006"><ele>914.0</ele><time>2026-04-19T07:13:28.999Z</time></trkpt><trkpt lat="42.280727870944155" lon="13.836702521820712"><ele>913.25</ele><time>2026-04-19T07:13:29.999Z</time></trkpt><trkpt lat="42.28086362331463" lon="13.836684533346043"><ele>912.5</ele><time>2026-04-19T07:13:30.999Z</time></trkpt><trkpt lat="42.28100178398543" lon="13.836693282369382"><ele>911.75</ele><time>2026-04-19T07:13:31.999Z</time></trkpt><trkpt lat="42.28113763610971" lon="13.836694853933823"><ele>911.0</ele><time>2026-04-19T07:13:32.999Z</time></trkpt><trkpt lat="42.281271852774736" lon="13.83669556705086"><ele>911.0</ele><time>2026-04-19T07:13:33.999Z</time></trkpt><trkpt lat="42.281403828972614" lon="13.836698557717305"><ele>911.0</ele><time>2026-04-19T07:13:34.999Z</time></trkpt><trkpt lat="42.281540403885536" lon="13.836698731525704"><ele>911.0</ele><time>2026-04-19T07:13:35.999Z</time></trkpt><trkpt lat="42.28167348036047" lon="13.836693890228371"><ele>911.0</ele><time>2026-04-19T07:13:36.999Z</time></trkpt><trkpt lat="42.281802207522894" lon="13.836688419838511"><ele>911.1999999999999</ele><time>2026-04-19T07:13:37.999Z</time></trkpt><trkpt lat="42.28191628633009" lon="13.836686262719558"><ele>911.3999999999999</ele><time>2026-04-19T07:13:38.999Z</time></trkpt><trkpt lat="42.28202138971547" lon="13.836675737798657"><ele>911.6</ele><time>2026-04-19T07:13:39.999Z</time></trkpt><trkpt lat="42.28212053469553" lon="13.836667636525716"><ele>911.8</ele><time>2026-04-19T07:13:40.999Z</time></trkpt><trkpt lat="42.28221673315171" lon="13.836657095474493"><ele>912.0</ele><time>2026-04-19T07:13:41.999Z</time></trkpt><trkpt lat="42.28231357911568" lon="13.836651522284566"><ele>912.8333333333334</ele><time>2026-04-19T07:13:42.999Z</time></trkpt><trkpt lat="42.28240465665537" lon="13.836646034068677"><ele>913.6666666666667</ele><time>2026-04-19T07:13:43.999Z</time></trkpt><trkpt lat="42.28249366840549" lon="13.836640968954118"><ele>914.5</ele><time>2026-04-19T07:13:44.999Z</time></trkpt><trkpt lat="42.282577725669114" lon="13.836638568826029"><ele>915.3333333333334</ele><time>2026-04-19T07:13:45.999Z</time></trkpt><trkpt lat="42.28265772874138" lon="13.836641290770078"><ele>916.1666666666667</ele><time>2026-04-19T07:13:46.999Z</time></trkpt><trkpt lat="42.28274251843281" lon="13.836642530820225"><ele>917.0</ele><time>2026-04-19T07:13:47.999Z</time></trkpt><trkpt lat="42.282828784096054" lon="13.836647986114789"><ele>917.0000000000001</ele><time>2026-04-19T07:13:48.999Z</time></trkpt><trkpt lat="42.2829197484797" lon="13.836653530835859"><ele>917.0</ele><time>2026-04-19T07:13:49.999Z</time></trkpt><trkpt lat="42.28302100501362" lon="13.836658978641628"><ele>917.0</ele><time>2026-04-19T07:13:50.999Z</time></trkpt><trkpt lat="42.28311275695928" lon="13.836667331487456"><ele>917.0</ele><time>2026-04-19T07:13:51.999Z</time></trkpt><trkpt lat="42.28319083164649" lon="13.836677293348494"><ele>917.0000000000001</ele><time>2026-04-19T07:13:52.999Z</time></trkpt><trkpt lat="42.28326231636741" lon="13.836688596598922"><ele>917.0</ele><time>2026-04-19T07:13:53.999Z</time></trkpt><trkpt lat="42.28333649043894" lon="13.836707066836258"><ele>916.8333333333334</ele><time>2026-04-19T07:13:54.999Z</time></trkpt><trkpt lat="42.28342044483787" lon="13.836735801792132"><ele>916.6666666666667</ele><time>2026-04-19T07:13:55.999Z</time></trkpt><trkpt lat="42.28350162622159" lon="13.836761434711171"><ele>916.5</ele><time>2026-04-19T07:13:56.999Z</time></trkpt><trkpt lat="42.283582266586855" lon="13.836764016718332"><ele>916.3333333333333</ele><time>2026-04-19T07:13:57.999Z</time></trkpt><trkpt lat="42.28364987326832" lon="13.836746631926022"><ele>916.1666666666666</ele><time>2026-04-19T07:13:58.999Z</time></trkpt><trkpt lat="42.28372806952466" lon="13.836676936506887"><ele>916.0</ele><time>2026-04-19T07:14:00.999Z</time></trkpt><trkpt lat="42.28371993585183" lon="13.836497755505002"><ele>916.0</ele><time>2026-04-19T07:14:03.999Z</time></trkpt><trkpt lat="42.28369800102684" lon="13.83639283691163"><ele>915.9999999999999</ele><time>2026-04-19T07:14:04.999Z</time></trkpt><trkpt lat="42.283670274010426" lon="13.83625596180341"><ele>915.9999999999999</ele><time>2026-04-19T07:14:05.999Z</time></trkpt><trkpt lat="42.28364315220675" lon="13.836107895012288"><ele>916.0</ele><time>2026-04-19T07:14:06.999Z</time></trkpt><trkpt lat="42.28362959389995" lon="13.835935272430262"><ele>916.0</ele><time>2026-04-19T07:14:07.999Z</time></trkpt><trkpt lat="42.28358816185725" lon="13.835759440408193"><ele>915.0</ele><time>2026-04-19T07:14:08.999Z</time></trkpt><trkpt lat="42.28351518380977" lon="13.835590538500556"><ele>914.0</ele><time>2026-04-19T07:14:09.999Z</time></trkpt><trkpt lat="42.28343782282635" lon="13.835399907558735"><ele>913.0</ele><time>2026-04-19T07:14:10.999Z</time></trkpt><trkpt lat="42.28337386765773" lon="13.83519658823554"><ele>914.3333333333333</ele><time>2026-04-19T07:14:11.999Z</time></trkpt><trkpt lat="42.28329907842507" lon="13.835006078625101"><ele>915.6666666666667</ele><time>2026-04-19T07:14:12.999Z</time></trkpt><trkpt lat="42.28320984693116" lon="13.834830185890022"><ele>917.0</ele><time>2026-04-19T07:14:13.999Z</time></trkpt><trkpt lat="42.28314432059464" lon="13.834657829043621"><ele>911.75</ele><time>2026-04-19T07:14:14.999Z</time></trkpt><trkpt lat="42.283088492427815" lon="13.834486124533"><ele>906.5</ele><time>2026-04-19T07:14:15.999Z</time></trkpt><trkpt lat="42.28306055948572" lon="13.83429154814403"><ele>901.25</ele><time>2026-04-19T07:14:16.999Z</time></trkpt><trkpt lat="42.283037712475526" lon="13.834107444810556"><ele>896.0</ele><time>2026-04-19T07:14:17.999Z</time></trkpt><trkpt lat="42.28303490699419" lon="13.833919695731339"><ele>896.0</ele><time>2026-04-19T07:14:18.999Z</time></trkpt><trkpt lat="42.28305003438479" lon="13.833727187594768"><ele>896.0</ele><time>2026-04-19T07:14:19.999Z</time></trkpt><trkpt lat="42.283078613906305" lon="13.83355774165715"><ele>896.0</ele><time>2026-04-19T07:14:20.999Z</time></trkpt><trkpt lat="42.28310301661446" lon="13.833393863917774"><ele>896.0</ele><time>2026-04-19T07:14:21.999Z</time></trkpt><trkpt lat="42.283125483028506" lon="13.833227098784013"><ele>897.25</ele><time>2026-04-19T07:14:22.999Z</time></trkpt><trkpt lat="42.28313609131395" lon="13.833046731991377"><ele>898.5</ele><time>2026-04-19T07:14:23.999Z</time></trkpt><trkpt lat="42.28310789309339" lon="13.832866360619377"><ele>899.75</ele><time>2026-04-19T07:14:24.999Z</time></trkpt><trkpt lat="42.28307927283909" lon="13.832691320596474"><ele>901.0</ele><time>2026-04-19T07:14:25.999Z</time></trkpt><trkpt lat="42.28304557778775" lon="13.832539426808141"><ele>902.0</ele><time>2026-04-19T07:14:26.999Z</time></trkpt><trkpt lat="42.28300965704336" lon="13.832388178316238"><ele>903.0</ele><time>2026-04-19T07:14:27.999Z</time></trkpt><trkpt lat="42.28296949339017" lon="13.832230361221443"><ele>904.0</ele><time>2026-04-19T07:14:28.999Z</time></trkpt><trkpt lat="42.28294588002619" lon="13.832057249601483"><ele>905.0</ele><time>2026-04-19T07:14:29.999Z</time></trkpt><trkpt lat="42.282905261875854" lon="13.831889101321057"><ele>906.0</ele><time>2026-04-19T07:14:30.999Z</time></trkpt><trkpt lat="42.28286441522748" lon="13.83172211796334"><ele>907.0</ele><time>2026-04-19T07:14:31.999Z</time></trkpt><trkpt lat="42.28282354834842" lon="13.831557628504473"><ele>908.0</ele><time>2026-04-19T07:14:32.999Z</time></trkpt><trkpt lat="42.282781960938074" lon="13.831390238904726"><ele>909.0</ele><time>2026-04-19T07:14:33.999Z</time></trkpt><trkpt lat="42.282738830962366" lon="13.83121664046845"><ele>909.0</ele><time>2026-04-19T07:14:34.999Z</time></trkpt><trkpt lat="42.28266210680376" lon="13.831050677604502"><ele>909.0</ele><time>2026-04-19T07:14:35.999Z</time></trkpt><trkpt lat="42.282611637741766" lon="13.830868528918097"><ele>909.0</ele><time>2026-04-19T07:14:36.999Z</time></trkpt><trkpt lat="42.28255896747651" lon="13.8306871274164"><ele>909.0</ele><time>2026-04-19T07:14:37.999Z</time></trkpt><trkpt lat="42.282507591910026" lon="13.830507634545416"><ele>910.4000000000001</ele><time>2026-04-19T07:14:38.999Z</time></trkpt><trkpt lat="42.282455786912635" lon="13.830353270632425"><ele>911.8000000000001</ele><time>2026-04-19T07:14:39.999Z</time></trkpt><trkpt lat="42.28241157072795" lon="13.830229807298375"><ele>913.1999999999999</ele><time>2026-04-19T07:14:40.999Z</time></trkpt><trkpt lat="42.282371644214486" lon="13.830128778735581"><ele>914.5999999999999</ele><time>2026-04-19T07:14:41.999Z</time></trkpt><trkpt lat="42.28232422362322" lon="13.830039029080446"><ele>916.0</ele><time>2026-04-19T07:14:42.999Z</time></trkpt><trkpt lat="42.28226322407917" lon="13.829946889019226"><ele>911.8</ele><time>2026-04-19T07:14:43.999Z</time></trkpt><trkpt lat="42.28219044870024" lon="13.829850242098205"><ele>907.5999999999999</ele><time>2026-04-19T07:14:44.999Z</time></trkpt><trkpt lat="42.28212260388807" lon="13.829742050197133"><ele>903.4</ele><time>2026-04-19T07:14:45.999Z</time></trkpt><trkpt lat="42.28206145582721" lon="13.829624516635755"><ele>899.2</ele><time>2026-04-19T07:14:46.999Z</time></trkpt><trkpt lat="42.282017020925046" lon="13.829492939612315"><ele>895.0</ele><time>2026-04-19T07:14:47.999Z</time></trkpt><trkpt lat="42.28199613890769" lon="13.829338151291546"><ele>897.25</ele><time>2026-04-19T07:14:48.999Z</time></trkpt><trkpt lat="42.28200294200957" lon="13.829189104285149"><ele>899.5</ele><time>2026-04-19T07:14:49.999Z</time></trkpt><trkpt lat="42.28203581030009" lon="13.829042320654066"><ele>901.75</ele><time>2026-04-19T07:14:50.999Z</time></trkpt><trkpt lat="42.28209183498549" lon="13.828895590298602"><ele>904.0</ele><time>2026-04-19T07:14:51.999Z</time></trkpt><trkpt lat="42.282163247680025" lon="13.828763453036787"><ele>904.0</ele><time>2026-04-19T07:14:52.999Z</time></trkpt><trkpt lat="42.282234188364306" lon="13.828642340568386"><ele>904.0000000000001</ele><time>2026-04-19T07:14:53.999Z</time></trkpt><trkpt lat="42.28229535017245" lon="13.828530003011736"><ele>904.0000000000001</ele><time>2026-04-19T07:14:54.999Z</time></trkpt><trkpt lat="42.28235024546233" lon="13.828421729361313"><ele>904.0</ele><time>2026-04-19T07:14:55.999Z</time></trkpt><trkpt lat="42.282405031815905" lon="13.828308344923641"><ele>904.0</ele><time>2026-04-19T07:14:56.999Z</time></trkpt><trkpt lat="42.28245840645615" lon="13.828189524575057"><ele>907.0</ele><time>2026-04-19T07:14:57.999Z</time></trkpt><trkpt lat="42.28250598658977" lon="13.828076503598796"><ele>910.0000000000001</ele><time>2026-04-19T07:14:58.999Z</time></trkpt><trkpt lat="42.28254537328566" lon="13.82795971554178"><ele>913.0000000000001</ele><time>2026-04-19T07:14:59.999Z</time></trkpt><trkpt lat="42.282581424348116" lon="13.827828279335575"><ele>916.0</ele><time>2026-04-19T07:15:00.999Z</time></trkpt><trkpt lat="42.28260485909419" lon="13.827684270744115"><ele>919.0</ele><time>2026-04-19T07:15:01.999Z</time></trkpt><trkpt lat="42.282619843683705" lon="13.827527273218841"><ele>919.0</ele><time>2026-04-19T07:15:02.999Z</time></trkpt><trkpt lat="42.2826307799147" lon="13.827366667374603"><ele>919.0</ele><time>2026-04-19T07:15:03.999Z</time></trkpt><trkpt lat="42.282640683149864" lon="13.827201290183012"><ele>919.0</ele><time>2026-04-19T07:15:04.999Z</time></trkpt><trkpt lat="42.282653884342764" lon="13.827036776580456"><ele>919.0</ele><time>2026-04-19T07:15:05.999Z</time></trkpt><trkpt lat="42.282666426214256" lon="13.826869843032124"><ele>917.0</ele><time>2026-04-19T07:15:06.999Z</time></trkpt><trkpt lat="42.28267960418967" lon="13.826703576787692"><ele>915.0</ele><time>2026-04-19T07:15:07.999Z</time></trkpt><trkpt lat="42.28269155135902" lon="13.826537726198753"><ele>913.0</ele><time>2026-04-19T07:15:08.999Z</time></trkpt><trkpt lat="42.28270459100996" lon="13.826368218931973"><ele>911.0</ele><time>2026-04-19T07:15:09.999Z</time></trkpt><trkpt lat="42.282708095274884" lon="13.826199519808139"><ele>911.0</ele><time>2026-04-19T07:15:10.999Z</time></trkpt><trkpt lat="42.28270118686733" lon="13.826024755429083"><ele>911.0</ele><time>2026-04-19T07:15:11.999Z</time></trkpt><trkpt lat="42.28268989261915" lon="13.825849673724194"><ele>911.0</ele><time>2026-04-19T07:15:12.999Z</time></trkpt><trkpt lat="42.282674385105786" lon="13.825671533221042"><ele>911.0</ele><time>2026-04-19T07:15:13.999Z</time></trkpt><trkpt lat="42.28265684327114" lon="13.82549370632422"><ele>911.5</ele><time>2026-04-19T07:15:14.999Z</time></trkpt><trkpt lat="42.28262344732797" lon="13.825316977931488"><ele>912.0</ele><time>2026-04-19T07:15:15.999Z</time></trkpt><trkpt lat="42.28256947831508" lon="13.825137660045527"><ele>912.5</ele><time>2026-04-19T07:15:16.999Z</time></trkpt><trkpt lat="42.2824965504118" lon="13.82496409837851"><ele>913.0</ele><time>2026-04-19T07:15:17.999Z</time></trkpt><trkpt lat="42.282404668936906" lon="13.824792884034851"><ele>913.6666666666666</ele><time>2026-04-19T07:15:18.999Z</time></trkpt><trkpt lat="42.28229192651731" lon="13.824615150384078"><ele>914.3333333333333</ele><time>2026-04-19T07:15:19.999Z</time></trkpt><trkpt lat="42.282149241488874" lon="13.824442008034852"><ele>915.0</ele><time>2026-04-19T07:15:20.999Z</time></trkpt><trkpt lat="42.281975816824065" lon="13.824265637943451"><ele>915.0</ele><time>2026-04-19T07:15:21.999Z</time></trkpt><trkpt lat="42.28180265805099" lon="13.824089151515837"><ele>915.0</ele><time>2026-04-19T07:15:22.999Z</time></trkpt><trkpt lat="42.281642010713874" lon="13.823911936002672"><ele>915.0</ele><time>2026-04-19T07:15:23.999Z</time></trkpt><trkpt lat="42.281493018730124" lon="13.823716383053453"><ele>912.0</ele><time>2026-04-19T07:15:24.999Z</time></trkpt><trkpt lat="42.28136283747226" lon="13.823540410655488"><ele>909.0</ele><time>2026-04-19T07:15:25.999Z</time></trkpt><trkpt lat="42.28125147512984" lon="13.823378261091465"><ele>906.0</ele><time>2026-04-19T07:15:26.999Z</time></trkpt><trkpt lat="42.281165347038325" lon="13.82322934966654"><ele>906.0</ele><time>2026-04-19T07:15:27.999Z</time></trkpt><trkpt lat="42.28111513320308" lon="13.823065695872268"><ele>906.0</ele><time>2026-04-19T07:15:28.999Z</time></trkpt><trkpt lat="42.28110100716456" lon="13.8228899142545"><ele>906.0</ele><time>2026-04-19T07:15:29.999Z</time></trkpt><trkpt lat="42.281123593291014" lon="13.822719798782254"><ele>906.0</ele><time>2026-04-19T07:15:30.999Z</time></trkpt><trkpt lat="42.28117998842164" lon="13.822568813911298"><ele>910.75</ele><time>2026-04-19T07:15:31.999Z</time></trkpt><trkpt lat="42.281272648921046" lon="13.822456781163448"><ele>915.5</ele><time>2026-04-19T07:15:32.999Z</time></trkpt><trkpt lat="42.28137980606777" lon="13.822371756069456"><ele>920.25</ele><time>2026-04-19T07:15:33.999Z</time></trkpt><trkpt lat="42.281516379807" lon="13.82233771948397"><ele>925.0</ele><time>2026-04-19T07:15:34.999Z</time></trkpt><trkpt lat="42.281672030158724" lon="13.822313038038823"><ele>927.0</ele><time>2026-04-19T07:15:35.999Z</time></trkpt><trkpt lat="42.281852264753425" lon="13.822275843761885"><ele>929.0</ele><time>2026-04-19T07:15:36.999Z</time></trkpt><trkpt lat="42.28202691922368" lon="13.82222522558742"><ele>931.0</ele><time>2026-04-19T07:15:37.999Z</time></trkpt><trkpt lat="42.28220412243872" lon="13.822192869272975"><ele>932.3333333333333</ele><time>2026-04-19T07:15:38.999Z</time></trkpt><trkpt lat="42.28238863382413" lon="13.822155548579632"><ele>933.6666666666667</ele><time>2026-04-19T07:15:39.999Z</time></trkpt><trkpt lat="42.282564544513" lon="13.822115507099062"><ele>935.0</ele><time>2026-04-19T07:15:40.999Z</time></trkpt><trkpt lat="42.28272253085118" lon="13.822081219043334"><ele>935.0</ele><time>2026-04-19T07:15:41.999Z</time></trkpt><trkpt lat="42.28286578387991" lon="13.822048622262436"><ele>935.0</ele><time>2026-04-19T07:15:42.999Z</time></trkpt><trkpt lat="42.28300424098025" lon="13.822022435768012"><ele>935.0</ele><time>2026-04-19T07:15:43.999Z</time></trkpt><trkpt lat="42.2831438345182" lon="13.821987116816414"><ele>935.0</ele><time>2026-04-19T07:15:44.999Z</time></trkpt><trkpt lat="42.28328277839798" lon="13.821951023115378"><ele>938.3333333333334</ele><time>2026-04-19T07:15:45.999Z</time></trkpt><trkpt lat="42.28342941939146" lon="13.821932484956205"><ele>941.6666666666667</ele><time>2026-04-19T07:15:46.999Z</time></trkpt><trkpt lat="42.28358292916675" lon="13.821865483191315"><ele>945.0</ele><time>2026-04-19T07:15:47.999Z</time></trkpt><trkpt lat="42.28374285954646" lon="13.82181370054136"><ele>935.0</ele><time>2026-04-19T07:15:48.999Z</time></trkpt><trkpt lat="42.28391527848854" lon="13.821753693058358"><ele>925.0</ele><time>2026-04-19T07:15:49.999Z</time></trkpt><trkpt lat="42.284078603107986" lon="13.821687483103506"><ele>915.0</ele><time>2026-04-19T07:15:50.999Z</time></trkpt><trkpt lat="42.28422730151069" lon="13.821618783623101"><ele>915.0</ele><time>2026-04-19T07:15:51.999Z</time></trkpt><trkpt lat="42.284382482958215" lon="13.8215713406744"><ele>915.0</ele><time>2026-04-19T07:15:52.999Z</time></trkpt><trkpt lat="42.28451327943232" lon="13.821509982184693"><ele>915.0</ele><time>2026-04-19T07:15:53.999Z</time></trkpt><trkpt lat="42.284637264092254" lon="13.821471373191363"><ele>915.0</ele><time>2026-04-19T07:15:54.999Z</time></trkpt><trkpt lat="42.284756176012145" lon="13.821446713468955"><ele>914.75</ele><time>2026-04-19T07:15:55.999Z</time></trkpt><trkpt lat="42.28488588937669" lon="13.821514324105047"><ele>914.5</ele><time>2026-04-19T07:15:56.999Z</time></trkpt><trkpt lat="42.285026694238454" lon="13.821595231834435"><ele>914.25</ele><time>2026-04-19T07:15:57.999Z</time></trkpt><trkpt lat="42.285171094491865" lon="13.821644420070461"><ele>914.0</ele><time>2026-04-19T07:15:58.999Z</time></trkpt><trkpt lat="42.285318475285266" lon="13.821649730898338"><ele>914.0</ele><time>2026-04-19T07:15:59.999Z</time></trkpt><trkpt lat="42.28546588466625" lon="13.821621586988648"><ele>914.0</ele><time>2026-04-19T07:16:00.999Z</time></trkpt><trkpt lat="42.28560648020506" lon="13.821531652600253"><ele>914.0</ele><time>2026-04-19T07:16:01.999Z</time></trkpt><trkpt lat="42.28574177416978" lon="13.821409445653163"><ele>917.3333333333334</ele><time>2026-04-19T07:16:02.999Z</time></trkpt><trkpt lat="42.28587063647778" lon="13.821260667888112"><ele>920.6666666666667</ele><time>2026-04-19T07:16:03.999Z</time></trkpt><trkpt lat="42.286020999320584" lon="13.821145599302502"><ele>924.0</ele><time>2026-04-19T07:16:04.999Z</time></trkpt><trkpt lat="42.28616255334778" lon="13.821032125804901"><ele>917.6666666666667</ele><time>2026-04-19T07:16:05.999Z</time></trkpt><trkpt lat="42.28634997932983" lon="13.820929834512427"><ele>911.3333333333334</ele><time>2026-04-19T07:16:06.999Z</time></trkpt><trkpt lat="42.286544887459634" lon="13.820860567632103"><ele>905.0</ele><time>2026-04-19T07:16:07.999Z</time></trkpt><trkpt lat="42.28672522046539" lon="13.820805858360025"><ele>905.0</ele><time>2026-04-19T07:16:08.999Z</time></trkpt><trkpt lat="42.286919773157564" lon="13.820744301437434"><ele>905.0</ele><time>2026-04-19T07:16:09.999Z</time></trkpt><trkpt lat="42.287117059687645" lon="13.820681879525527"><ele>905.0</ele><time>2026-04-19T07:16:10.999Z</time></trkpt><trkpt lat="42.28730788462929" lon="13.820621502073749"><ele>907.0</ele><time>2026-04-19T07:16:11.999Z</time></trkpt><trkpt lat="42.287484497169736" lon="13.820565621455428"><ele>909.0</ele><time>2026-04-19T07:16:12.999Z</time></trkpt><trkpt lat="42.28765640310506" lon="13.820511231706238"><ele>911.0</ele><time>2026-04-19T07:16:13.999Z</time></trkpt><trkpt lat="42.28782621915855" lon="13.820453384712412"><ele>911.0</ele><time>2026-04-19T07:16:14.999Z</time></trkpt><trkpt lat="42.287998854883895" lon="13.820394254561432"><ele>911.0</ele><time>2026-04-19T07:16:15.999Z</time></trkpt><trkpt lat="42.28817823332606" lon="13.82033281497974"><ele>911.0</ele><time>2026-04-19T07:16:16.999Z</time></trkpt><trkpt lat="42.28835129839015" lon="13.820273537817199"><ele>913.6666666666667</ele><time>2026-04-19T07:16:17.999Z</time></trkpt><trkpt lat="42.28852776646276" lon="13.820212981088394"><ele>916.3333333333333</ele><time>2026-04-19T07:16:18.999Z</time></trkpt><trkpt lat="42.28870785147104" lon="13.82014739402653"><ele>919.0</ele><time>2026-04-19T07:16:19.999Z</time></trkpt><trkpt lat="42.28889921177941" lon="13.820048626502718"><ele>912.0</ele><time>2026-04-19T07:16:20.999Z</time></trkpt><trkpt lat="42.289093799037104" lon="13.819927830545767"><ele>905.0</ele><time>2026-04-19T07:16:21.999Z</time></trkpt><trkpt lat="42.28930422159045" lon="13.819787438054753"><ele>898.0</ele><time>2026-04-19T07:16:22.999Z</time></trkpt><trkpt lat="42.289522750866595" lon="13.819639772363779"><ele>898.0</ele><time>2026-04-19T07:16:23.999Z</time></trkpt><trkpt lat="42.28974091645325" lon="13.819492740284225"><ele>898.0</ele><time>2026-04-19T07:16:24.999Z</time></trkpt><trkpt lat="42.2899485447952" lon="13.819352809759883"><ele>891.6666666666666</ele><time>2026-04-19T07:16:25.999Z</time></trkpt><trkpt lat="42.290140745786914" lon="13.819199279512613"><ele>885.3333333333333</ele><time>2026-04-19T07:16:26.999Z</time></trkpt><trkpt lat="42.290339221827445" lon="13.819088915730267"><ele>879.0</ele><time>2026-04-19T07:16:28Z</time></trkpt><trkpt lat="42.290523107095645" lon="13.818964092582876"><ele>885.0</ele><time>2026-04-19T07:16:29Z</time></trkpt><trkpt lat="42.29070246652658" lon="13.818842341620986"><ele>891.0</ele><time>2026-04-19T07:16:30Z</time></trkpt><trkpt lat="42.290884700405755" lon="13.818718073770228"><ele>897.0</ele><time>2026-04-19T07:16:31Z</time></trkpt><trkpt lat="42.29106440797107" lon="13.818588241393325"><ele>892.0</ele><time>2026-04-19T07:16:32Z</time></trkpt><trkpt lat="42.29123920220878" lon="13.818440020617967"><ele>887.0</ele><time>2026-04-19T07:16:33Z</time></trkpt><trkpt lat="42.291409151148414" lon="13.818305053422378"><ele>882.0</ele><time>2026-04-19T07:16:34Z</time></trkpt><trkpt lat="42.291588462963844" lon="13.818160562410936"><ele>882.0</ele><time>2026-04-19T07:16:35Z</time></trkpt><trkpt lat="42.29178275278758" lon="13.818026764885463"><ele>882.0</ele><time>2026-04-19T07:16:36Z</time></trkpt><trkpt lat="42.29197252642721" lon="13.817864180557205"><ele>882.0</ele><time>2026-04-19T07:16:37Z</time></trkpt><trkpt lat="42.29215907645934" lon="13.817681434146879"><ele>878.0</ele><time>2026-04-19T07:16:38Z</time></trkpt><trkpt lat="42.292358603549694" lon="13.817500653249208"><ele>874.0</ele><time>2026-04-19T07:16:39Z</time></trkpt><trkpt lat="42.29256938086157" lon="13.817302453398165"><ele>874.0</ele><time>2026-04-19T07:16:40Z</time></trkpt><trkpt lat="42.292777625808164" lon="13.817106936959213"><ele>874.0</ele><time>2026-04-19T07:16:41Z</time></trkpt><trkpt lat="42.292969195229986" lon="13.816922487908268"><ele>870.0</ele><time>2026-04-19T07:16:42Z</time></trkpt><trkpt lat="42.29315706288855" lon="13.816747672646374"><ele>866.0</ele><time>2026-04-19T07:16:43Z</time></trkpt><trkpt lat="42.29334693518709" lon="13.816580911023657"><ele>866.0</ele><time>2026-04-19T07:16:44Z</time></trkpt><trkpt lat="42.293542755488204" lon="13.816448351191294"><ele>866.0</ele><time>2026-04-19T07:16:45Z</time></trkpt><trkpt lat="42.293724172217836" lon="13.816318878758162"><ele>866.0</ele><time>2026-04-19T07:16:46Z</time></trkpt><trkpt lat="42.29389458078145" lon="13.816180027604432"><ele>861.3333333333334</ele><time>2026-04-19T07:16:47Z</time></trkpt><trkpt lat="42.2940729502326" lon="13.816081507260826"><ele>856.6666666666667</ele><time>2026-04-19T07:16:48Z</time></trkpt><trkpt lat="42.294242901343736" lon="13.815991887272835"><ele>852.0</ele><time>2026-04-19T07:16:49Z</time></trkpt><trkpt lat="42.29440793359893" lon="13.815904157315313"><ele>852.0</ele><time>2026-04-19T07:16:50Z</time></trkpt><trkpt lat="42.29456630717838" lon="13.815820150185921"><ele>852.0</ele><time>2026-04-19T07:16:51Z</time></trkpt><trkpt lat="42.29472026195042" lon="13.815737011696726"><ele>852.0</ele><time>2026-04-19T07:16:52Z</time></trkpt><trkpt lat="42.294872835783394" lon="13.815651679569529"><ele>857.0</ele><time>2026-04-19T07:16:53Z</time></trkpt><trkpt lat="42.29502301292266" lon="13.815544217960758"><ele>862.0</ele><time>2026-04-19T07:16:54Z</time></trkpt><trkpt lat="42.29515886304672" lon="13.815401294595127"><ele>867.0</ele><time>2026-04-19T07:16:55Z</time></trkpt><trkpt lat="42.295280019313225" lon="13.815226952724178"><ele>860.0</ele><time>2026-04-19T07:16:56Z</time></trkpt><trkpt lat="42.29538613684388" lon="13.815028917519829"><ele>853.0</ele><time>2026-04-19T07:16:57Z</time></trkpt><trkpt lat="42.29547878527212" lon="13.814810661941756"><ele>846.0</ele><time>2026-04-19T07:16:58Z</time></trkpt><trkpt lat="42.295570974786244" lon="13.814595461784082"><ele>846.3333333333333</ele><time>2026-04-19T07:16:59Z</time></trkpt><trkpt lat="42.29570096098371" lon="13.814417126594451"><ele>846.6666666666666</ele><time>2026-04-19T07:17:00Z</time></trkpt><trkpt lat="42.29582243988158" lon="13.814251705728005"><ele>847.0</ele><time>2026-04-19T07:17:01Z</time></trkpt><trkpt lat="42.295964129536976" lon="13.814102695569135"><ele>847.0</ele><time>2026-04-19T07:17:02Z</time></trkpt><trkpt lat="42.29610779925407" lon="13.813979811188094"><ele>847.0</ele><time>2026-04-19T07:17:03Z</time></trkpt><trkpt lat="42.2962529348008" lon="13.813878856601585"><ele>847.0</ele><time>2026-04-19T07:17:04Z</time></trkpt><trkpt lat="42.29641784798202" lon="13.813798731173915"><ele>848.6666666666666</ele><time>2026-04-19T07:17:05Z</time></trkpt><trkpt lat="42.29660433871716" lon="13.813733707587119"><ele>850.3333333333333</ele><time>2026-04-19T07:17:06Z</time></trkpt><trkpt lat="42.29681442253261" lon="13.813670195121464"><ele>852.0</ele><time>2026-04-19T07:17:07Z</time></trkpt><trkpt lat="42.297036102825196" lon="13.81359499925451"><ele>855.5</ele><time>2026-04-19T07:17:08Z</time></trkpt><trkpt lat="42.297253902906895" lon="13.813492120919125"><ele>859.0</ele><time>2026-04-19T07:17:09Z</time></trkpt><trkpt lat="42.297477600809835" lon="13.813426941902337"><ele>854.3333333333333</ele><time>2026-04-19T07:17:10Z</time></trkpt><trkpt lat="42.29768993355001" lon="13.813334429205373"><ele>849.6666666666667</ele><time>2026-04-19T07:17:11Z</time></trkpt><trkpt lat="42.297894637659915" lon="13.81323457968772"><ele>845.0</ele><time>2026-04-19T07:17:12Z</time></trkpt><trkpt lat="42.29809676072237" lon="13.813125726012347"><ele>845.0</ele><time>2026-04-19T07:17:13Z</time></trkpt><trkpt lat="42.29830142427686" lon="13.81301550403757"><ele>845.0</ele><time>2026-04-19T07:17:14Z</time></trkpt><trkpt lat="42.29850427973118" lon="13.812882523600825"><ele>845.0</ele><time>2026-04-19T07:17:15Z</time></trkpt><trkpt lat="42.29870962175613" lon="13.812775702994745"><ele>845.0</ele><time>2026-04-19T07:17:16Z</time></trkpt><trkpt lat="42.29891028214585" lon="13.81266222143993"><ele>845.0</ele><time>2026-04-19T07:17:17Z</time></trkpt><trkpt lat="42.29911670452054" lon="13.812563026561762"><ele>845.0</ele><time>2026-04-19T07:17:18Z</time></trkpt><trkpt lat="42.29929821977763" lon="13.812426273529532"><ele>844.0</ele><time>2026-04-19T07:17:19Z</time></trkpt><trkpt lat="42.29946975939089" lon="13.812313613951119"><ele>843.0</ele><time>2026-04-19T07:17:20Z</time></trkpt><trkpt lat="42.29965936066728" lon="13.812184446644501"><ele>842.0</ele><time>2026-04-19T07:17:21Z</time></trkpt><trkpt lat="42.2998360555934" lon="13.812062568479053"><ele>842.0</ele><time>2026-04-19T07:17:22Z</time></trkpt><trkpt lat="42.300003326585255" lon="13.811942989095485"><ele>842.0</ele><time>2026-04-19T07:17:23Z</time></trkpt><trkpt lat="42.30016064917799" lon="13.811827661955213"><ele>842.0</ele><time>2026-04-19T07:17:24Z</time></trkpt><trkpt lat="42.30031666704881" lon="13.811710026737563"><ele>837.6666666666667</ele><time>2026-04-19T07:17:25Z</time></trkpt><trkpt lat="42.3004611499498" lon="13.81159311498457"><ele>833.3333333333333</ele><time>2026-04-19T07:17:26Z</time></trkpt><trkpt lat="42.30059958005216" lon="13.811478796329753"><ele>829.0</ele><time>2026-04-19T07:17:27Z</time></trkpt><trkpt lat="42.30073419868732" lon="13.811357592702029"><ele>829.0</ele><time>2026-04-19T07:17:28Z</time></trkpt><trkpt lat="42.300860866202335" lon="13.811239793760281"><ele>829.0</ele><time>2026-04-19T07:17:29Z</time></trkpt><trkpt lat="42.300966828669516" lon="13.811101670048226"><ele>829.0</ele><time>2026-04-19T07:17:30Z</time></trkpt><trkpt lat="42.30104860201069" lon="13.810930096753209"><ele>820.0</ele><time>2026-04-19T07:17:31Z</time></trkpt><trkpt lat="42.301101822148496" lon="13.810727416192922"><ele>811.0</ele><time>2026-04-19T07:17:32Z</time></trkpt><trkpt lat="42.30112247061199" lon="13.810516993849012"><ele>802.0</ele><time>2026-04-19T07:17:33Z</time></trkpt><trkpt lat="42.301103814949876" lon="13.810310266339783"><ele>802.3333333333333</ele><time>2026-04-19T07:17:34Z</time></trkpt><trkpt lat="42.30105772841525" lon="13.810083067746163"><ele>802.6666666666667</ele><time>2026-04-19T07:17:35Z</time></trkpt><trkpt lat="42.30097153091216" lon="13.809856863200276"><ele>803.0</ele><time>2026-04-19T07:17:36Z</time></trkpt><trkpt lat="42.300879526917115" lon="13.80963612997461"><ele>803.0</ele><time>2026-04-19T07:17:37Z</time></trkpt><trkpt lat="42.30082387962135" lon="13.809417770805792"><ele>803.0</ele><time>2026-04-19T07:17:38Z</time></trkpt><trkpt lat="42.30077605937197" lon="13.80921673814316"><ele>803.0</ele><time>2026-04-19T07:17:39Z</time></trkpt><trkpt lat="42.30074853771906" lon="13.809007527283043"><ele>804.0</ele><time>2026-04-19T07:17:40Z</time></trkpt><trkpt lat="42.30074543677278" lon="13.808798936836604"><ele>805.0</ele><time>2026-04-19T07:17:41Z</time></trkpt><trkpt lat="42.30074398460893" lon="13.808583151394021"><ele>806.0</ele><time>2026-04-19T07:17:42Z</time></trkpt><trkpt lat="42.30081724451504" lon="13.808380887250262"><ele>804.0</ele><time>2026-04-19T07:17:43Z</time></trkpt><trkpt lat="42.300880902434656" lon="13.808172953477294"><ele>802.0</ele><time>2026-04-19T07:17:44Z</time></trkpt><trkpt lat="42.30095031844187" lon="13.807944043159676"><ele>800.0</ele><time>2026-04-19T07:17:44.999Z</time></trkpt><trkpt lat="42.30102009068089" lon="13.807713609632968"><ele>798.0</ele><time>2026-04-19T07:17:45.999Z</time></trkpt><trkpt lat="42.301086804508124" lon="13.80750315630651"><ele>796.0</ele><time>2026-04-19T07:17:46.999Z</time></trkpt><trkpt lat="42.301153699716" lon="13.807325260011815"><ele>794.0</ele><time>2026-04-19T07:17:47.999Z</time></trkpt><trkpt lat="42.301237145878105" lon="13.80716188598368"><ele>794.0</ele><time>2026-04-19T07:17:48.999Z</time></trkpt><trkpt lat="42.301338292948564" lon="13.807025200047615"><ele>794.0</ele><time>2026-04-19T07:17:49.999Z</time></trkpt><trkpt lat="42.30145830565364" lon="13.806910536714959"><ele>794.0</ele><time>2026-04-19T07:17:50.999Z</time></trkpt><trkpt lat="42.30159830691001" lon="13.80683276411235"><ele>794.0</ele><time>2026-04-19T07:17:51.999Z</time></trkpt><trkpt lat="42.30176585785243" lon="13.806773367876383"><ele>791.3333333333334</ele><time>2026-04-19T07:17:52.999Z</time></trkpt><trkpt lat="42.30194035045373" lon="13.806701098371388"><ele>788.6666666666667</ele><time>2026-04-19T07:17:53.999Z</time></trkpt><trkpt lat="42.30209616092031" lon="13.806690716481066"><ele>786.0</ele><time>2026-04-19T07:17:54.999Z</time></trkpt><trkpt lat="42.302244896254784" lon="13.806675513942189"><ele>787.0</ele><time>2026-04-19T07:17:55.999Z</time></trkpt><trkpt lat="42.30239942778796" lon="13.806661022966038"><ele>788.0</ele><time>2026-04-19T07:17:56.999Z</time></trkpt><trkpt lat="42.302556659304756" lon="13.80670255708552"><ele>789.0</ele><time>2026-04-19T07:17:57.999Z</time></trkpt><trkpt lat="42.302703523614525" lon="13.806766854121037"><ele>791.2</ele><time>2026-04-19T07:17:58.999Z</time></trkpt><trkpt lat="42.302826516757946" lon="13.806828103773283"><ele>793.4000000000001</ele><time>2026-04-19T07:17:59.999Z</time></trkpt><trkpt lat="42.30293196404274" lon="13.806851764601396"><ele>795.6</ele><time>2026-04-19T07:18:00.999Z</time></trkpt><trkpt lat="42.30302166367185" lon="13.806830811242795"><ele>797.8</ele><time>2026-04-19T07:18:01.999Z</time></trkpt><trkpt lat="42.30309544835918" lon="13.806743167237409"><ele>800.0</ele><time>2026-04-19T07:18:02.999Z</time></trkpt><trkpt lat="42.3031400452988" lon="13.806636449373139"><ele>800.0</ele><time>2026-04-19T07:18:03.999Z</time></trkpt><trkpt lat="42.3031529185728" lon="13.806505676463468"><ele>800.0</ele><time>2026-04-19T07:18:04.999Z</time></trkpt><trkpt lat="42.30314197744014" lon="13.806349683097814"><ele>800.0</ele><time>2026-04-19T07:18:05.999Z</time></trkpt><trkpt lat="42.30310142431504" lon="13.806181338238385"><ele>800.0</ele><time>2026-04-19T07:18:06.999Z</time></trkpt><trkpt lat="42.30304203781519" lon="13.805993584460483"><ele>790.3333333333334</ele><time>2026-04-19T07:18:07.999Z</time></trkpt><trkpt lat="42.302981343306826" lon="13.80579633704513"><ele>780.6666666666667</ele><time>2026-04-19T07:18:08.999Z</time></trkpt><trkpt lat="42.30291055703457" lon="13.805602762833477"><ele>771.0</ele><time>2026-04-19T07:18:09.999Z</time></trkpt><trkpt lat="42.30282986755336" lon="13.805414563635058"><ele>771.0</ele><time>2026-04-19T07:18:10.999Z</time></trkpt><trkpt lat="42.302741132534166" lon="13.805251513866478"><ele>771.0</ele><time>2026-04-19T07:18:11.999Z</time></trkpt><trkpt lat="42.30264550526511" lon="13.805102409312605"><ele>771.0</ele><time>2026-04-19T07:18:12.999Z</time></trkpt><trkpt lat="42.30254569589098" lon="13.804956383971017"><ele>771.0</ele><time>2026-04-19T07:18:13.999Z</time></trkpt><trkpt lat="42.30246485036876" lon="13.80480373806235"><ele>771.5</ele><time>2026-04-19T07:18:14.999Z</time></trkpt><trkpt lat="42.30239369555763" lon="13.804661640787819"><ele>772.0</ele><time>2026-04-19T07:18:15.999Z</time></trkpt><trkpt lat="42.3023469418818" lon="13.80450108112887"><ele>772.5</ele><time>2026-04-19T07:18:16.999Z</time></trkpt><trkpt lat="42.302311428698204" lon="13.804281809722912"><ele>773.0</ele><time>2026-04-19T07:18:17.999Z</time></trkpt><trkpt lat="42.30228929808356" lon="13.804048314341719"><ele>772.3333333333334</ele><time>2026-04-19T07:18:18.999Z</time></trkpt><trkpt lat="42.30227315640775" lon="13.803844955135649"><ele>771.6666666666667</ele><time>2026-04-19T07:18:19.999Z</time></trkpt><trkpt lat="42.30227146935984" lon="13.80363733419737"><ele>771.0</ele><time>2026-04-19T07:18:20.999Z</time></trkpt><trkpt lat="42.30229556014395" lon="13.80341922209608"><ele>771.0</ele><time>2026-04-19T07:18:21.999Z</time></trkpt><trkpt lat="42.302337915763474" lon="13.803228721994737"><ele>771.0</ele><time>2026-04-19T07:18:22.999Z</time></trkpt><trkpt lat="42.30240331355664" lon="13.80304250063739"><ele>771.0</ele><time>2026-04-19T07:18:23.999Z</time></trkpt><trkpt lat="42.302487063555574" lon="13.802858098697392"><ele>766.0</ele><time>2026-04-19T07:18:24.999Z</time></trkpt><trkpt lat="42.30261394489694" lon="13.802658862908777"><ele>761.0</ele><time>2026-04-19T07:18:25.999Z</time></trkpt><trkpt lat="42.30277204014523" lon="13.802445390444348"><ele>756.0</ele><time>2026-04-19T07:18:26.999Z</time></trkpt><trkpt lat="42.30292299966262" lon="13.802216287044464"><ele>756.0</ele><time>2026-04-19T07:18:27.999Z</time></trkpt><trkpt lat="42.303079571599525" lon="13.802004619179435"><ele>756.0</ele><time>2026-04-19T07:18:28.999Z</time></trkpt><trkpt lat="42.30322182470945" lon="13.801807480686191"><ele>756.0</ele><time>2026-04-19T07:18:29.999Z</time></trkpt><trkpt lat="42.303366876480474" lon="13.8016024094413"><ele>758.6666666666666</ele><time>2026-04-19T07:18:30.999Z</time></trkpt><trkpt lat="42.30351739221789" lon="13.80139654879002"><ele>761.3333333333333</ele><time>2026-04-19T07:18:31.999Z</time></trkpt><trkpt lat="42.303674095097506" lon="13.801182048886456"><ele>764.0</ele><time>2026-04-19T07:18:32.999Z</time></trkpt><trkpt lat="42.303829753895236" lon="13.800971041613499"><ele>763.5</ele><time>2026-04-19T07:18:34Z</time></trkpt><trkpt lat="42.30400488390707" lon="13.800777737527667"><ele>763.0</ele><time>2026-04-19T07:18:35Z</time></trkpt><trkpt lat="42.30418673680849" lon="13.800560197576111"><ele>763.0</ele><time>2026-04-19T07:18:36Z</time></trkpt><trkpt lat="42.304365498914855" lon="13.800357259508553"><ele>763.0</ele><time>2026-04-19T07:18:37Z</time></trkpt><trkpt lat="42.30453679659804" lon="13.800177865697018"><ele>761.6666666666667</ele><time>2026-04-19T07:18:38Z</time></trkpt><trkpt lat="42.3047151516336" lon="13.800001986634324"><ele>760.3333333333334</ele><time>2026-04-19T07:18:39Z</time></trkpt><trkpt lat="42.30490218431511" lon="13.799829018448248"><ele>759.0</ele><time>2026-04-19T07:18:40Z</time></trkpt><trkpt lat="42.30508118173902" lon="13.799666227883156"><ele>759.0</ele><time>2026-04-19T07:18:41Z</time></trkpt><trkpt lat="42.30523096863992" lon="13.799514397766371"><ele>759.0</ele><time>2026-04-19T07:18:42Z</time></trkpt><trkpt lat="42.30538625477491" lon="13.799401653474485"><ele>759.0</ele><time>2026-04-19T07:18:43Z</time></trkpt><trkpt lat="42.305549662820646" lon="13.799347015800393"><ele>764.0</ele><time>2026-04-19T07:18:44Z</time></trkpt><trkpt lat="42.305709194042144" lon="13.7993107075263"><ele>769.0</ele><time>2026-04-19T07:18:45Z</time></trkpt><trkpt lat="42.30587021200952" lon="13.799314078414943"><ele>774.0</ele><time>2026-04-19T07:18:46Z</time></trkpt><trkpt lat="42.306039283852186" lon="13.799345628934065"><ele>774.0</ele><time>2026-04-19T07:18:47Z</time></trkpt><trkpt lat="42.306205648397366" lon="13.799427082532697"><ele>774.0</ele><time>2026-04-19T07:18:48Z</time></trkpt><trkpt lat="42.30634709154926" lon="13.799500918339637"><ele>774.0</ele><time>2026-04-19T07:18:49Z</time></trkpt><trkpt lat="42.30646757662358" lon="13.799578031619314"><ele>771.25</ele><time>2026-04-19T07:18:50Z</time></trkpt><trkpt lat="42.30654354493966" lon="13.799732197950847"><ele>768.5</ele><time>2026-04-19T07:18:51Z</time></trkpt><trkpt lat="42.30662709121056" lon="13.799868725264227"><ele>765.75</ele><time>2026-04-19T07:18:52Z</time></trkpt><trkpt lat="42.306680848335944" lon="13.799997226464303"><ele>763.0</ele><time>2026-04-19T07:18:53Z</time></trkpt><trkpt lat="42.30675537554596" lon="13.800080932366987"><ele>763.0</ele><time>2026-04-19T07:18:54Z</time></trkpt><trkpt lat="42.306854861031795" lon="13.800108544787602"><ele>763.0</ele><time>2026-04-19T07:18:55Z</time></trkpt><trkpt lat="42.30696107232581" lon="13.800086611907533"><ele>763.0</ele><time>2026-04-19T07:18:56Z</time></trkpt><trkpt lat="42.307068932318714" lon="13.80005640659789"><ele>763.0</ele><time>2026-04-19T07:18:57Z</time></trkpt><trkpt lat="42.3071631074281" lon="13.799950666595151"><ele>763.0</ele><time>2026-04-19T07:18:58Z</time></trkpt><trkpt lat="42.307245859118645" lon="13.799815993090824"><ele>764.3333333333334</ele><time>2026-04-19T07:18:59Z</time></trkpt><trkpt lat="42.30733917420752" lon="13.7996629239655"><ele>765.6666666666666</ele><time>2026-04-19T07:19:00Z</time></trkpt><trkpt lat="42.30744419442854" lon="13.79947104841361"><ele>767.0</ele><time>2026-04-19T07:19:01Z</time></trkpt><trkpt lat="42.307527560680356" lon="13.799257208889484"><ele>756.6666666666666</ele><time>2026-04-19T07:19:02Z</time></trkpt><trkpt lat="42.307628345561284" lon="13.799028769271867"><ele>746.3333333333334</ele><time>2026-04-19T07:19:03Z</time></trkpt><trkpt lat="42.3077306131663" lon="13.798755102838225"><ele>736.0</ele><time>2026-04-19T07:19:04Z</time></trkpt><trkpt lat="42.30781255766737" lon="13.798461469897548"><ele>728.0</ele><time>2026-04-19T07:19:05Z</time></trkpt><trkpt lat="42.307904845320394" lon="13.798195996810318"><ele>720.0</ele><time>2026-04-19T07:19:06Z</time></trkpt><trkpt lat="42.3079793326696" lon="13.797942860699626"><ele>712.0</ele><time>2026-04-19T07:19:07Z</time></trkpt><trkpt lat="42.30804595351415" lon="13.797725109088413"><ele>717.5</ele><time>2026-04-19T07:19:08Z</time></trkpt><trkpt lat="42.30808508871037" lon="13.797539760435745"><ele>723.0</ele><time>2026-04-19T07:19:09Z</time></trkpt><trkpt lat="42.30815472482759" lon="13.79737975777428"><ele>728.5</ele><time>2026-04-19T07:19:10Z</time></trkpt><trkpt lat="42.30825444233022" lon="13.797261269216948"><ele>734.0</ele><time>2026-04-19T07:19:11Z</time></trkpt><trkpt lat="42.308340593099174" lon="13.797136378667778"><ele>734.0</ele><time>2026-04-19T07:19:12Z</time></trkpt><trkpt lat="42.3084630837778" lon="13.797089587903633"><ele>734.0</ele><time>2026-04-19T07:19:13Z</time></trkpt><trkpt lat="42.308587440619114" lon="13.797044831474304"><ele>734.0</ele><time>2026-04-19T07:19:14Z</time></trkpt><trkpt lat="42.308713852088246" lon="13.797018222814746"><ele>734.0</ele><time>2026-04-19T07:19:15Z</time></trkpt><trkpt lat="42.308832516156166" lon="13.79702501725644"><ele>732.6</ele><time>2026-04-19T07:19:16Z</time></trkpt><trkpt lat="42.308940765215254" lon="13.79702082577688"><ele>731.2</ele><time>2026-04-19T07:19:17Z</time></trkpt><trkpt lat="42.30904207758115" lon="13.797025687717387"><ele>729.8000000000001</ele><time>2026-04-19T07:19:18Z</time></trkpt><trkpt lat="42.309131129562836" lon="13.796984446698552"><ele>728.4000000000001</ele><time>2026-04-19T07:19:19Z</time></trkpt><trkpt lat="42.30920886253884" lon="13.79691146446113"><ele>727.0</ele><time>2026-04-19T07:19:20Z</time></trkpt><trkpt lat="42.30928810112609" lon="13.796834573596556"><ele>727.0</ele><time>2026-04-19T07:19:21Z</time></trkpt><trkpt lat="42.30934351605832" lon="13.796707787518471"><ele>727.0</ele><time>2026-04-19T07:19:22Z</time></trkpt><trkpt lat="42.30936403001824" lon="13.796551798347263"><ele>727.0</ele><time>2026-04-19T07:19:23Z</time></trkpt><trkpt lat="42.309376574554534" lon="13.796389150322463"><ele>727.0</ele><time>2026-04-19T07:19:24Z</time></trkpt><trkpt lat="42.30937768046191" lon="13.796226063480441"><ele>727.0</ele><time>2026-04-19T07:19:25Z</time></trkpt><trkpt lat="42.309384280206245" lon="13.796062028165236"><ele>727.0</ele><time>2026-04-19T07:19:26Z</time></trkpt><trkpt lat="42.309394100965996" lon="13.795907411191628"><ele>727.0</ele><time>2026-04-19T07:19:27Z</time></trkpt><trkpt lat="42.3094036229916" lon="13.79575572311746"><ele>727.0</ele><time>2026-04-19T07:19:28Z</time></trkpt><trkpt lat="42.30940917075003" lon="13.79560631307274"><ele>723.6</ele><time>2026-04-19T07:19:29Z</time></trkpt><trkpt lat="42.309415765035816" lon="13.795457496071958"><ele>720.2</ele><time>2026-04-19T07:19:30Z</time></trkpt><trkpt lat="42.30941947611909" lon="13.795310397622746"><ele>716.8</ele><time>2026-04-19T07:19:31Z</time></trkpt><trkpt lat="42.30941993843016" lon="13.795166695062377"><ele>713.4</ele><time>2026-04-19T07:19:32Z</time></trkpt><trkpt lat="42.30941793710778" lon="13.795012879102703"><ele>710.0</ele><time>2026-04-19T07:19:33Z</time></trkpt><trkpt lat="42.30941530122217" lon="13.79485356758122"><ele>708.8</ele><time>2026-04-19T07:19:34Z</time></trkpt><trkpt lat="42.30940423428619" lon="13.794702070866538"><ele>707.6</ele><time>2026-04-19T07:19:35Z</time></trkpt><trkpt lat="42.3093998933091" lon="13.794557802904778"><ele>706.4000000000001</ele><time>2026-04-19T07:19:36Z</time></trkpt><trkpt lat="42.309393350743214" lon="13.794417875318373"><ele>705.2</ele><time>2026-04-19T07:19:37Z</time></trkpt><trkpt lat="42.309386748642204" lon="13.794281347284633"><ele>704.0</ele><time>2026-04-19T07:19:38Z</time></trkpt><trkpt lat="42.30939687084473" lon="13.794143677926277"><ele>703.75</ele><time>2026-04-19T07:19:39Z</time></trkpt><trkpt lat="42.30939637785543" lon="13.793989109623874"><ele>703.5</ele><time>2026-04-19T07:19:40Z</time></trkpt><trkpt lat="42.3093991777944" lon="13.793821711770386"><ele>703.25</ele><time>2026-04-19T07:19:41Z</time></trkpt><trkpt lat="42.30939418037523" lon="13.793645112160373"><ele>703.0</ele><time>2026-04-19T07:19:42Z</time></trkpt><trkpt lat="42.30940816999338" lon="13.793482759712106"><ele>702.2</ele><time>2026-04-19T07:19:43Z</time></trkpt><trkpt lat="42.30942497587416" lon="13.793328283868892"><ele>701.4</ele><time>2026-04-19T07:19:44Z</time></trkpt><trkpt lat="42.309443370428696" lon="13.793177730895989"><ele>700.6</ele><time>2026-04-19T07:19:45Z</time></trkpt><trkpt lat="42.3094607381265" lon="13.79303103408835"><ele>699.8000000000001</ele><time>2026-04-19T07:19:46Z</time></trkpt><trkpt lat="42.30948745083506" lon="13.792899246910714"><ele>699.0</ele><time>2026-04-19T07:19:47Z</time></trkpt><trkpt lat="42.309535437691636" lon="13.792777437688127"><ele>699.0</ele><time>2026-04-19T07:19:48Z</time></trkpt><trkpt lat="42.30960380182422" lon="13.792680779920074"><ele>699.0</ele><time>2026-04-19T07:19:49Z</time></trkpt><trkpt lat="42.30968993769237" lon="13.792616432316061"><ele>699.0</ele><time>2026-04-19T07:19:50Z</time></trkpt><trkpt lat="42.30978025735192" lon="13.792573064544946"><ele>699.0</ele><time>2026-04-19T07:19:51Z</time></trkpt><trkpt lat="42.309873132208125" lon="13.7925781558591"><ele>699.0</ele><time>2026-04-19T07:19:52Z</time></trkpt><trkpt lat="42.309962826470056" lon="13.792557118224062"><ele>699.8000000000001</ele><time>2026-04-19T07:19:53Z</time></trkpt><trkpt lat="42.310057263332126" lon="13.792568434237257"><ele>700.6</ele><time>2026-04-19T07:19:54Z</time></trkpt><trkpt lat="42.31015984038694" lon="13.792580943102676"><ele>701.4</ele><time>2026-04-19T07:19:55Z</time></trkpt><trkpt lat="42.3102685633877" lon="13.792594393433"><ele>702.2</ele><time>2026-04-19T07:19:56Z</time></trkpt><trkpt lat="42.31036929099734" lon="13.792593482240106"><ele>703.0</ele><time>2026-04-19T07:19:57Z</time></trkpt><trkpt lat="42.31045547451144" lon="13.792565539416293"><ele>703.0</ele><time>2026-04-19T07:19:58Z</time></trkpt><trkpt lat="42.310531304598946" lon="13.7924979827871"><ele>703.0</ele><time>2026-04-19T07:19:59Z</time></trkpt><trkpt lat="42.310597573344396" lon="13.79239577734322"><ele>703.0</ele><time>2026-04-19T07:20:00Z</time></trkpt><trkpt lat="42.310658132647504" lon="13.79226843266806"><ele>703.0</ele><time>2026-04-19T07:20:01Z</time></trkpt><trkpt lat="42.31064646517142" lon="13.792097345799618"><ele>703.0</ele><time>2026-04-19T07:20:02Z</time></trkpt><trkpt lat="42.310620869192135" lon="13.791945493827763"><ele>706.2</ele><time>2026-04-19T07:20:03Z</time></trkpt><trkpt lat="42.31057878070533" lon="13.791816972736605"><ele>709.4</ele><time>2026-04-19T07:20:04Z</time></trkpt><trkpt lat="42.31053393288359" lon="13.791694300296134"><ele>712.6</ele><time>2026-04-19T07:20:05Z</time></trkpt><trkpt lat="42.310499638961545" lon="13.79157344829452"><ele>715.8000000000001</ele><time>2026-04-19T07:20:06Z</time></trkpt><trkpt lat="42.31048044910323" lon="13.791447981267554"><ele>719.0</ele><time>2026-04-19T07:20:07Z</time></trkpt><trkpt lat="42.31047421605806" lon="13.791319627792744"><ele>713.0</ele><time>2026-04-19T07:20:08Z</time></trkpt><trkpt lat="42.31049265280325" lon="13.791196228124914"><ele>707.0</ele><time>2026-04-19T07:20:09Z</time></trkpt><trkpt lat="42.31049558842391" lon="13.791071562318123"><ele>701.0</ele><time>2026-04-19T07:20:10Z</time></trkpt><trkpt lat="42.31049745434031" lon="13.790957737439422"><ele>695.0</ele><time>2026-04-19T07:20:11Z</time></trkpt><trkpt lat="42.310484128294625" lon="13.790846861979794"><ele>689.0</ele><time>2026-04-19T07:20:12Z</time></trkpt><trkpt lat="42.31049965294302" lon="13.790725527892512"><ele>683.0</ele><time>2026-04-19T07:20:13Z</time></trkpt><trkpt lat="42.31049732664356" lon="13.790601025788739"><ele>680.2</ele><time>2026-04-19T07:20:14Z</time></trkpt><trkpt lat="42.31047817954641" lon="13.79047391002663"><ele>677.4</ele><time>2026-04-19T07:20:15Z</time></trkpt><trkpt lat="42.31047031078203" lon="13.790342595257268"><ele>674.6</ele><time>2026-04-19T07:20:16Z</time></trkpt><trkpt lat="42.3104902650144" lon="13.790217886073227"><ele>671.8000000000001</ele><time>2026-04-19T07:20:17Z</time></trkpt><trkpt lat="42.31050435150837" lon="13.790099792286627"><ele>669.0</ele><time>2026-04-19T07:20:18Z</time></trkpt><trkpt lat="42.31053455889162" lon="13.789992195220155"><ele>675.2</ele><time>2026-04-19T07:20:19Z</time></trkpt><trkpt lat="42.31058035800242" lon="13.789894861881542"><ele>681.4000000000001</ele><time>2026-04-19T07:20:20Z</time></trkpt><trkpt lat="42.31063840758866" lon="13.789813790938231"><ele>687.6</ele><time>2026-04-19T07:20:21Z</time></trkpt><trkpt lat="42.31070814708089" lon="13.789730393513787"><ele>693.8</ele><time>2026-04-19T07:20:22Z</time></trkpt><trkpt lat="42.310779436951854" lon="13.789632871313978"><ele>700.0</ele><time>2026-04-19T07:20:23Z</time></trkpt><trkpt lat="42.310867586729366" lon="13.789547959015245"><ele>700.0</ele><time>2026-04-19T07:20:24Z</time></trkpt><trkpt lat="42.310980974824986" lon="13.78945793591163"><ele>700.0</ele><time>2026-04-19T07:20:24.999Z</time></trkpt><trkpt lat="42.31112146984998" lon="13.78938743062331"><ele>700.0</ele><time>2026-04-19T07:20:25.999Z</time></trkpt><trkpt lat="42.31126955247538" lon="13.789306223114616"><ele>700.0</ele><time>2026-04-19T07:20:26.999Z</time></trkpt><trkpt lat="42.311415328029206" lon="13.789215526923238"><ele>698.5</ele><time>2026-04-19T07:20:27.999Z</time></trkpt><trkpt lat="42.31155547590642" lon="13.789143517538667"><ele>697.0</ele><time>2026-04-19T07:20:28.999Z</time></trkpt><trkpt lat="42.31167624919615" lon="13.789050453546922"><ele>695.5</ele><time>2026-04-19T07:20:29.999Z</time></trkpt><trkpt lat="42.311772835199584" lon="13.788933421751693"><ele>694.0</ele><time>2026-04-19T07:20:30.999Z</time></trkpt><trkpt lat="42.311856507424665" lon="13.788805996017294"><ele>694.0</ele><time>2026-04-19T07:20:31.999Z</time></trkpt><trkpt lat="42.31194219504824" lon="13.788685736725988"><ele>694.0</ele><time>2026-04-19T07:20:32.999Z</time></trkpt><trkpt lat="42.31204354965015" lon="13.788580133318813"><ele>694.0</ele><time>2026-04-19T07:20:33.999Z</time></trkpt><trkpt lat="42.31215704571691" lon="13.788472774333595"><ele>694.0</ele><time>2026-04-19T07:20:34.999Z</time></trkpt><trkpt lat="42.312266734951805" lon="13.788331793782037"><ele>696.0</ele><time>2026-04-19T07:20:35.999Z</time></trkpt><trkpt lat="42.31237022906113" lon="13.788158552890318"><ele>698.0</ele><time>2026-04-19T07:20:36.999Z</time></trkpt><trkpt lat="42.312453303757174" lon="13.78795666151505"><ele>700.0</ele><time>2026-04-19T07:20:37.999Z</time></trkpt><trkpt lat="42.312521888209154" lon="13.787719587745075"><ele>694.6666666666667</ele><time>2026-04-19T07:20:38.999Z</time></trkpt><trkpt lat="42.3125848889913" lon="13.787453956048696"><ele>689.3333333333334</ele><time>2026-04-19T07:20:40Z</time></trkpt><trkpt lat="42.31266876113715" lon="13.787162988104525"><ele>684.0</ele><time>2026-04-19T07:20:41Z</time></trkpt><trkpt lat="42.312796410261036" lon="13.786876339444794"><ele>678.5</ele><time>2026-04-19T07:20:42Z</time></trkpt><trkpt lat="42.31291745498629" lon="13.786569810211073"><ele>673.0</ele><time>2026-04-19T07:20:43Z</time></trkpt><trkpt lat="42.31304816937599" lon="13.786253276920796"><ele>681.0</ele><time>2026-04-19T07:20:44Z</time></trkpt><trkpt lat="42.313155617968114" lon="13.785981992835877"><ele>689.0</ele><time>2026-04-19T07:20:45Z</time></trkpt><trkpt lat="42.313245143421746" lon="13.785736472742903"><ele>697.0</ele><time>2026-04-19T07:20:46Z</time></trkpt><trkpt lat="42.31331980510927" lon="13.785529856231094"><ele>697.0</ele><time>2026-04-19T07:20:47Z</time></trkpt><trkpt lat="42.31339435016127" lon="13.785353841971636"><ele>697.0</ele><time>2026-04-19T07:20:48Z</time></trkpt><trkpt lat="42.31348116664243" lon="13.785227358992877"><ele>697.0</ele><time>2026-04-19T07:20:49Z</time></trkpt><trkpt lat="42.313591420674605" lon="13.785152483578322"><ele>697.0</ele><time>2026-04-19T07:20:50Z</time></trkpt><trkpt lat="42.31372989809629" lon="13.785098121221958"><ele>693.5</ele><time>2026-04-19T07:20:51Z</time></trkpt><trkpt lat="42.31387364767586" lon="13.785041917935091"><ele>690.0</ele><time>2026-04-19T07:20:52Z</time></trkpt><trkpt lat="42.3139935428263" lon="13.784975779841455"><ele>686.5</ele><time>2026-04-19T07:20:53Z</time></trkpt><trkpt lat="42.31408309829743" lon="13.78491189260154"><ele>683.0</ele><time>2026-04-19T07:20:54Z</time></trkpt><trkpt lat="42.31412449734723" lon="13.784779042905225"><ele>688.0</ele><time>2026-04-19T07:20:55Z</time></trkpt><trkpt lat="42.314096436864794" lon="13.784607964146707"><ele>693.0</ele><time>2026-04-19T07:20:56Z</time></trkpt><trkpt lat="42.314061690194265" lon="13.784420588708548"><ele>698.0</ele><time>2026-04-19T07:20:57Z</time></trkpt><trkpt lat="42.31404592574633" lon="13.784222871277269"><ele>703.0</ele><time>2026-04-19T07:20:58Z</time></trkpt><trkpt lat="42.314112922079644" lon="13.78404069479745"><ele>703.0</ele><time>2026-04-19T07:20:59Z</time></trkpt><trkpt lat="42.31419462150353" lon="13.783823033608147"><ele>703.0</ele><time>2026-04-19T07:21:00Z</time></trkpt><trkpt lat="42.31427464986323" lon="13.78357726968705"><ele>703.0</ele><time>2026-04-19T07:21:01Z</time></trkpt><trkpt lat="42.31432240329002" lon="13.783274474347278"><ele>701.5</ele><time>2026-04-19T07:21:02Z</time></trkpt><trkpt lat="42.314357659494625" lon="13.782976700686564"><ele>700.0</ele><time>2026-04-19T07:21:03Z</time></trkpt><trkpt lat="42.31440075903924" lon="13.782658989393951"><ele>699.3333333333334</ele><time>2026-04-19T07:21:04Z</time></trkpt><trkpt lat="42.31447550389616" lon="13.782380926747217"><ele>698.6666666666666</ele><time>2026-04-19T07:21:05Z</time></trkpt><trkpt lat="42.314536685770044" lon="13.782130417116388"><ele>698.0</ele><time>2026-04-19T07:21:06Z</time></trkpt><trkpt lat="42.31460578455905" lon="13.781887209074421"><ele>695.6666666666666</ele><time>2026-04-19T07:21:07Z</time></trkpt><trkpt lat="42.31470117796725" lon="13.781626381612563"><ele>693.3333333333334</ele><time>2026-04-19T07:21:08Z</time></trkpt><trkpt lat="42.3148184387864" lon="13.781369278892969"><ele>691.0</ele><time>2026-04-19T07:21:09Z</time></trkpt><trkpt lat="42.31496979745833" lon="13.781117687236758"><ele>701.5</ele><time>2026-04-19T07:21:10Z</time></trkpt><trkpt lat="42.315135884723404" lon="13.780850922408217"><ele>712.0</ele><time>2026-04-19T07:21:11Z</time></trkpt><trkpt lat="42.315313133191225" lon="13.78057345325712"><ele>712.0</ele><time>2026-04-19T07:21:12Z</time></trkpt><trkpt lat="42.31547911021145" lon="13.780324462350723"><ele>712.0</ele><time>2026-04-19T07:21:13Z</time></trkpt><trkpt lat="42.315634863935394" lon="13.780102130743566"><ele>720.0</ele><time>2026-04-19T07:21:14Z</time></trkpt><trkpt lat="42.31579103068008" lon="13.779888616942085"><ele>728.0</ele><time>2026-04-19T07:21:15Z</time></trkpt><trkpt lat="42.31596879047143" lon="13.779684956931817"><ele>728.0</ele><time>2026-04-19T07:21:16Z</time></trkpt><trkpt lat="42.31615745037798" lon="13.779476642300263"><ele>728.0</ele><time>2026-04-19T07:21:17Z</time></trkpt><trkpt lat="42.31632365257017" lon="13.779232937517207"><ele>736.5</ele><time>2026-04-19T07:21:18Z</time></trkpt><trkpt lat="42.31650028485366" lon="13.77898536149449"><ele>745.0</ele><time>2026-04-19T07:21:19Z</time></trkpt><trkpt lat="42.316664343731055" lon="13.778731582123747"><ele>735.0</ele><time>2026-04-19T07:21:20Z</time></trkpt><trkpt lat="42.316809997523926" lon="13.778491536890444"><ele>725.0</ele><time>2026-04-19T07:21:21Z</time></trkpt><trkpt lat="42.316947324511574" lon="13.778258921140651"><ele>725.0</ele><time>2026-04-19T07:21:22Z</time></trkpt><trkpt lat="42.31709148025805" lon="13.778043434575945"><ele>725.0</ele><time>2026-04-19T07:21:23Z</time></trkpt><trkpt lat="42.31721744412346" lon="13.777826376534845"><ele>725.0</ele><time>2026-04-19T07:21:24Z</time></trkpt><trkpt lat="42.317330768913344" lon="13.777599864678704"><ele>729.6666666666666</ele><time>2026-04-19T07:21:25Z</time></trkpt><trkpt lat="42.31747610473319" lon="13.77741430184941"><ele>734.3333333333334</ele><time>2026-04-19T07:21:26Z</time></trkpt><trkpt lat="42.31760856404469" lon="13.77724313617891"><ele>739.0</ele><time>2026-04-19T07:21:27Z</time></trkpt><trkpt lat="42.31776559892995" lon="13.777090889021414"><ele>739.0</ele><time>2026-04-19T07:21:28Z</time></trkpt><trkpt lat="42.31793818442546" lon="13.77693217629703"><ele>739.0</ele><time>2026-04-19T07:21:29Z</time></trkpt><trkpt lat="42.31809751135289" lon="13.776740160246922"><ele>739.0</ele><time>2026-04-19T07:21:30Z</time></trkpt><trkpt lat="42.31821220411659" lon="13.776554050324345"><ele>741.6666666666667</ele><time>2026-04-19T07:21:31Z</time></trkpt><trkpt lat="42.318312762725014" lon="13.776363699470117"><ele>744.3333333333334</ele><time>2026-04-19T07:21:32Z</time></trkpt><trkpt lat="42.31843278782419" lon="13.776221036456592"><ele>747.0</ele><time>2026-04-19T07:21:33Z</time></trkpt><trkpt lat="42.31856745291799" lon="13.776117350757945"><ele>747.0</ele><time>2026-04-19T07:21:34Z</time></trkpt><trkpt lat="42.318735492851985" lon="13.776042166053637"><ele>747.0</ele><time>2026-04-19T07:21:35Z</time></trkpt><trkpt lat="42.31890925323644" lon="13.775974615342546"><ele>747.0</ele><time>2026-04-19T07:21:36Z</time></trkpt><trkpt lat="42.319039202548296" lon="13.77592875221915"><ele>747.6</ele><time>2026-04-19T07:21:37Z</time></trkpt><trkpt lat="42.319117558274534" lon="13.775904685691906"><ele>748.2</ele><time>2026-04-19T07:21:38Z</time></trkpt><trkpt lat="42.31917962955855" lon="13.775957916672786"><ele>748.8</ele><time>2026-04-19T07:21:39Z</time></trkpt><trkpt lat="42.319208487539356" lon="13.7760490331292"><ele>749.4</ele><time>2026-04-19T07:21:40Z</time></trkpt><trkpt lat="42.31920320601999" lon="13.776180324474765"><ele>750.0</ele><time>2026-04-19T07:21:41Z</time></trkpt><trkpt lat="42.31917935582996" lon="13.776365995913878"><ele>750.0</ele><time>2026-04-19T07:21:42Z</time></trkpt><trkpt lat="42.319155715232775" lon="13.776595241077139"><ele>750.0</ele><time>2026-04-19T07:21:43Z</time></trkpt><trkpt lat="42.31915540201315" lon="13.776824542699188"><ele>750.0</ele><time>2026-04-19T07:21:44Z</time></trkpt><trkpt lat="42.31918393356073" lon="13.777019359165017"><ele>750.0</ele><time>2026-04-19T07:21:45Z</time></trkpt><trkpt lat="42.31925312090869" lon="13.777178820410839"><ele>750.0</ele><time>2026-04-19T07:21:46Z</time></trkpt><trkpt lat="42.319358177164496" lon="13.777314997834953"><ele>750.0</ele><time>2026-04-19T07:21:47Z</time></trkpt><trkpt lat="42.31949396006066" lon="13.777418968839946"><ele>750.0</ele><time>2026-04-19T07:21:48Z</time></trkpt><trkpt lat="42.31967597201571" lon="13.777499215598842"><ele>749.6666666666666</ele><time>2026-04-19T07:21:49Z</time></trkpt><trkpt lat="42.31985502395228" lon="13.777560871745278"><ele>749.3333333333333</ele><time>2026-04-19T07:21:50Z</time></trkpt><trkpt lat="42.32003710027038" lon="13.7775754887134"><ele>749.0</ele><time>2026-04-19T07:21:51Z</time></trkpt><trkpt lat="42.32023516260582" lon="13.777534445051923"><ele>749.0</ele><time>2026-04-19T07:21:52Z</time></trkpt><trkpt lat="42.32044885294477" lon="13.7774466303842"><ele>749.0</ele><time>2026-04-19T07:21:53Z</time></trkpt><trkpt lat="42.320660710028825" lon="13.777364818632964"><ele>749.0</ele><time>2026-04-19T07:21:54Z</time></trkpt><trkpt lat="42.32085394055635" lon="13.777299940071686"><ele>751.0</ele><time>2026-04-19T07:21:55Z</time></trkpt><trkpt lat="42.32103535695265" lon="13.777250176416116"><ele>753.0</ele><time>2026-04-19T07:21:56Z</time></trkpt><trkpt lat="42.32123628783872" lon="13.777254838523199"><ele>755.0</ele><time>2026-04-19T07:21:57Z</time></trkpt><trkpt lat="42.321455726814364" lon="13.777266847772102"><ele>756.0</ele><time>2026-04-19T07:21:58Z</time></trkpt><trkpt lat="42.321661374034164" lon="13.777279177797919"><ele>757.0</ele><time>2026-04-19T07:21:59Z</time></trkpt><trkpt lat="42.32184740491618" lon="13.777275528855332"><ele>758.0</ele><time>2026-04-19T07:22:00Z</time></trkpt><trkpt lat="42.32200035136994" lon="13.77730489089482"><ele>758.0</ele><time>2026-04-19T07:22:01Z</time></trkpt><trkpt lat="42.32209765670152" lon="13.777357651058189"><ele>758.0</ele><time>2026-04-19T07:22:01.999Z</time></trkpt><trkpt lat="42.32214982848898" lon="13.777478953939692"><ele>758.0</ele><time>2026-04-19T07:22:02.999Z</time></trkpt><trkpt lat="42.322187899917736" lon="13.777591019753537"><ele>758.0</ele><time>2026-04-19T07:22:03.999Z</time></trkpt><trkpt lat="42.32223109326913" lon="13.777702160372327"><ele>758.0</ele><time>2026-04-19T07:22:04.999Z</time></trkpt><trkpt lat="42.32227013510226" lon="13.777828561924824"><ele>758.25</ele><time>2026-04-19T07:22:05.999Z</time></trkpt><trkpt lat="42.32231330740076" lon="13.777976597531334"><ele>758.5</ele><time>2026-04-19T07:22:06.999Z</time></trkpt><trkpt lat="42.32236371849099" lon="13.778140392616015"><ele>758.75</ele><time>2026-04-19T07:22:07.999Z</time></trkpt><trkpt lat="42.3224376700347" lon="13.778271703900723"><ele>759.0</ele><time>2026-04-19T07:22:08.999Z</time></trkpt><trkpt lat="42.32254805616999" lon="13.778351196014764"><ele>759.0</ele><time>2026-04-19T07:22:09.999Z</time></trkpt><trkpt lat="42.32267175309086" lon="13.7784155757421"><ele>759.0</ele><time>2026-04-19T07:22:10.999Z</time></trkpt><trkpt lat="42.32279919451084" lon="13.778475374104858"><ele>759.0</ele><time>2026-04-19T07:22:11.999Z</time></trkpt><trkpt lat="42.32289621828876" lon="13.778585655625573"><ele>759.0</ele><time>2026-04-19T07:22:12.999Z</time></trkpt><trkpt lat="42.32296163901625" lon="13.778710539498292"><ele>759.75</ele><time>2026-04-19T07:22:13.999Z</time></trkpt><trkpt lat="42.32299521751898" lon="13.778860532676543"><ele>760.5</ele><time>2026-04-19T07:22:14.999Z</time></trkpt><trkpt lat="42.322995447260745" lon="13.779036140473421"><ele>761.25</ele><time>2026-04-19T07:22:15.999Z</time></trkpt><trkpt lat="42.322953982214905" lon="13.779252009009376"><ele>762.0</ele><time>2026-04-19T07:22:16.999Z</time></trkpt><trkpt lat="42.32290686548305" lon="13.77951279969322"><ele>762.5</ele><time>2026-04-19T07:22:17.999Z</time></trkpt><trkpt lat="42.32283245897458" lon="13.779797372096697"><ele>763.0</ele><time>2026-04-19T07:22:18.999Z</time></trkpt><trkpt lat="42.32276365584127" lon="13.780115159730157"><ele>762.5</ele><time>2026-04-19T07:22:19.999Z</time></trkpt><trkpt lat="42.32268978555579" lon="13.78044743451238"><ele>762.0</ele><time>2026-04-19T07:22:20.999Z</time></trkpt><trkpt lat="42.322616048729294" lon="13.780783256478239"><ele>763.0</ele><time>2026-04-19T07:22:21.999Z</time></trkpt><trkpt lat="42.32253871129077" lon="13.781101757239567"><ele>764.0</ele><time>2026-04-19T07:22:22.999Z</time></trkpt><trkpt lat="42.322473684805985" lon="13.781394389644271"><ele>764.0</ele><time>2026-04-19T07:22:23.999Z</time></trkpt><trkpt lat="42.32242028502737" lon="13.781676332060714"><ele>764.0</ele><time>2026-04-19T07:22:24.999Z</time></trkpt><trkpt lat="42.32238357050773" lon="13.78197373574718"><ele>764.0</ele><time>2026-04-19T07:22:25.999Z</time></trkpt><trkpt lat="42.322361172651796" lon="13.782288788361754"><ele>765.6666666666666</ele><time>2026-04-19T07:22:26.999Z</time></trkpt><trkpt lat="42.32234514162322" lon="13.782600402150468"><ele>767.3333333333333</ele><time>2026-04-19T07:22:27.999Z</time></trkpt><trkpt lat="42.32232049862842" lon="13.782893531846677"><ele>769.0</ele><time>2026-04-19T07:22:28.999Z</time></trkpt><trkpt lat="42.322294067235525" lon="13.78319152481658"><ele>771.0</ele><time>2026-04-19T07:22:29.999Z</time></trkpt><trkpt lat="42.322256820730544" lon="13.78349173147667"><ele>773.0</ele><time>2026-04-19T07:22:30.999Z</time></trkpt><trkpt lat="42.32219807267122" lon="13.783751011344727"><ele>775.0</ele><time>2026-04-19T07:22:31.999Z</time></trkpt><trkpt lat="42.322149630381624" lon="13.783992786912012"><ele>778.3333333333333</ele><time>2026-04-19T07:22:32.999Z</time></trkpt><trkpt lat="42.32209185859731" lon="13.78419201799727"><ele>781.6666666666667</ele><time>2026-04-19T07:22:33.999Z</time></trkpt><trkpt lat="42.32202275114956" lon="13.784370218130345"><ele>785.0</ele><time>2026-04-19T07:22:34.999Z</time></trkpt><trkpt lat="42.32190855058808" lon="13.784486829961715"><ele>785.3333333333334</ele><time>2026-04-19T07:22:35.999Z</time></trkpt><trkpt lat="42.321742121240234" lon="13.78452645527691"><ele>785.6666666666667</ele><time>2026-04-19T07:22:36.999Z</time></trkpt><trkpt lat="42.32157223020262" lon="13.784640916489781"><ele>786.0</ele><time>2026-04-19T07:22:37.999Z</time></trkpt><trkpt lat="42.32142222616986" lon="13.784761475269741"><ele>793.3333333333333</ele><time>2026-04-19T07:22:38.999Z</time></trkpt><trkpt lat="42.32130777122322" lon="13.784938595323819"><ele>800.6666666666666</ele><time>2026-04-19T07:22:39.999Z</time></trkpt><trkpt lat="42.32123715443687" lon="13.785140349923756"><ele>808.0</ele><time>2026-04-19T07:22:40.999Z</time></trkpt><trkpt lat="42.321199040265036" lon="13.785360476751443"><ele>808.0</ele><time>2026-04-19T07:22:41.999Z</time></trkpt><trkpt lat="42.32119132420423" lon="13.785542429870382"><ele>808.0</ele><time>2026-04-19T07:22:42.999Z</time></trkpt><trkpt lat="42.321218554986665" lon="13.785676014945109"><ele>808.0</ele><time>2026-04-19T07:22:43.999Z</time></trkpt><trkpt lat="42.32128276955793" lon="13.785791395515682"><ele>808.0</ele><time>2026-04-19T07:22:44.999Z</time></trkpt><trkpt lat="42.32138684968851" lon="13.7858767879169"><ele>803.3333333333333</ele><time>2026-04-19T07:22:46Z</time></trkpt><trkpt lat="42.321530100160054" lon="13.785928079450612"><ele>798.6666666666667</ele><time>2026-04-19T07:22:47Z</time></trkpt><trkpt lat="42.32168726472431" lon="13.7859386360869"><ele>794.0</ele><time>2026-04-19T07:22:48Z</time></trkpt><trkpt lat="42.3218548336458" lon="13.785882487193028"><ele>794.0</ele><time>2026-04-19T07:22:49Z</time></trkpt><trkpt lat="42.322038900931304" lon="13.785773522020174"><ele>794.0</ele><time>2026-04-19T07:22:50Z</time></trkpt><trkpt lat="42.3222332878955" lon="13.785653800715677"><ele>794.0</ele><time>2026-04-19T07:22:51Z</time></trkpt><trkpt lat="42.32245213850186" lon="13.785504980631849"><ele>792.5</ele><time>2026-04-19T07:22:52Z</time></trkpt><trkpt lat="42.32266033392908" lon="13.785317503971552"><ele>791.0</ele><time>2026-04-19T07:22:53Z</time></trkpt><trkpt lat="42.32286653414866" lon="13.78510533626255"><ele>801.0</ele><time>2026-04-19T07:22:54Z</time></trkpt><trkpt lat="42.32309105781933" lon="13.78487992130216"><ele>811.0</ele><time>2026-04-19T07:22:55Z</time></trkpt><trkpt lat="42.32332819234944" lon="13.784654738998059"><ele>811.0</ele><time>2026-04-19T07:22:56Z</time></trkpt><trkpt lat="42.32355652788452" lon="13.784437508292667"><ele>811.0</ele><time>2026-04-19T07:22:57Z</time></trkpt><trkpt lat="42.32379392617786" lon="13.784234425027309"><ele>815.0</ele><time>2026-04-19T07:22:58Z</time></trkpt><trkpt lat="42.32401910218073" lon="13.784020346766667"><ele>819.0</ele><time>2026-04-19T07:22:59Z</time></trkpt><trkpt lat="42.324233878133356" lon="13.783816155936888"><ele>819.0</ele><time>2026-04-19T07:23:00Z</time></trkpt><trkpt lat="42.324444276861385" lon="13.78361667500887"><ele>819.0</ele><time>2026-04-19T07:23:01Z</time></trkpt><trkpt lat="42.32464027962502" lon="13.783436472207415"><ele>819.0</ele><time>2026-04-19T07:23:02Z</time></trkpt><trkpt lat="42.324811886678624" lon="13.783293872908589"><ele>819.0</ele><time>2026-04-19T07:23:03Z</time></trkpt><trkpt lat="42.32494544740286" lon="13.783167081178771"><ele>819.0</ele><time>2026-04-19T07:23:04Z</time></trkpt><trkpt lat="42.32506004214242" lon="13.783142182821592"><ele>819.0</ele><time>2026-04-19T07:23:05Z</time></trkpt><trkpt lat="42.32515896357573" lon="13.783111346518213"><ele>819.0</ele><time>2026-04-19T07:23:06Z</time></trkpt><trkpt lat="42.32528981858961" lon="13.783200792396775"><ele>819.0</ele><time>2026-04-19T07:23:07Z</time></trkpt><trkpt lat="42.32545754825753" lon="13.783248446345365"><ele>819.0</ele><time>2026-04-19T07:23:08Z</time></trkpt><trkpt lat="42.3256074125287" lon="13.783289260194442"><ele>822.5</ele><time>2026-04-19T07:23:09Z</time></trkpt><trkpt lat="42.32571426018363" lon="13.783242171594933"><ele>826.0</ele><time>2026-04-19T07:23:10Z</time></trkpt><trkpt lat="42.32581168099339" lon="13.783107338097693"><ele>829.5</ele><time>2026-04-19T07:23:11Z</time></trkpt><trkpt lat="42.32591966980876" lon="13.782926860316723"><ele>833.0</ele><time>2026-04-19T07:23:12Z</time></trkpt><trkpt lat="42.32604278366375" lon="13.782747688293112"><ele>834.6666666666667</ele><time>2026-04-19T07:23:13Z</time></trkpt><trkpt lat="42.326169666041054" lon="13.78257957299681"><ele>836.3333333333333</ele><time>2026-04-19T07:23:14Z</time></trkpt><trkpt lat="42.32631253039344" lon="13.782466766605738"><ele>838.0</ele><time>2026-04-19T07:23:15Z</time></trkpt><trkpt lat="42.32646886842597" lon="13.782364754463229"><ele>838.0</ele><time>2026-04-19T07:23:16Z</time></trkpt><trkpt lat="42.32663743100498" lon="13.782265152291416"><ele>838.0</ele><time>2026-04-19T07:23:17Z</time></trkpt><trkpt lat="42.32679564650411" lon="13.782172349737646"><ele>838.0</ele><time>2026-04-19T07:23:18Z</time></trkpt><trkpt lat="42.32693986976424" lon="13.78209982960481"><ele>838.0</ele><time>2026-04-19T07:23:19Z</time></trkpt><trkpt lat="42.327062420322854" lon="13.782065819446965"><ele>838.0</ele><time>2026-04-19T07:23:20Z</time></trkpt><trkpt lat="42.32716712996974" lon="13.782125776858255"><ele>838.0</ele><time>2026-04-19T07:23:21Z</time></trkpt><trkpt lat="42.32727462792484" lon="13.78212639491715"><ele>838.0</ele><time>2026-04-19T07:23:22Z</time></trkpt><trkpt lat="42.32736575392754" lon="13.782146441665187"><ele>838.0</ele><time>2026-04-19T07:23:23Z</time></trkpt><trkpt lat="42.32745474351004" lon="13.782023513220379"><ele>837.0</ele><time>2026-04-19T07:23:24Z</time></trkpt><trkpt lat="42.32754357019754" lon="13.781853295316543"><ele>836.0</ele><time>2026-04-19T07:23:25Z</time></trkpt><trkpt lat="42.32761782674433" lon="13.781653688414773"><ele>835.0</ele><time>2026-04-19T07:23:26Z</time></trkpt><trkpt lat="42.327753679223505" lon="13.781470315895483"><ele>835.0</ele><time>2026-04-19T07:23:27Z</time></trkpt><trkpt lat="42.32789057899286" lon="13.78129268957337"><ele>835.0</ele><time>2026-04-19T07:23:28Z</time></trkpt><trkpt lat="42.32803524729688" lon="13.781120422655002"><ele>835.0</ele><time>2026-04-19T07:23:29Z</time></trkpt><trkpt lat="42.32817103862106" lon="13.780966443873892"><ele>837.0</ele><time>2026-04-19T07:23:30Z</time></trkpt><trkpt lat="42.32829432242097" lon="13.78088977725495"><ele>839.0</ele><time>2026-04-19T07:23:31Z</time></trkpt><trkpt lat="42.32841305845051" lon="13.780841849851871"><ele>841.0</ele><time>2026-04-19T07:23:32Z</time></trkpt><trkpt lat="42.328570165538665" lon="13.78081129461638"><ele>843.0</ele><time>2026-04-19T07:23:33Z</time></trkpt><trkpt lat="42.3287622473148" lon="13.780790667826915"><ele>847.0</ele><time>2026-04-19T07:23:34Z</time></trkpt><trkpt lat="42.328977977883135" lon="13.780767537241042"><ele>851.0</ele><time>2026-04-19T07:23:35Z</time></trkpt><trkpt lat="42.32918573254421" lon="13.780720112927636"><ele>855.0</ele><time>2026-04-19T07:23:36Z</time></trkpt><trkpt lat="42.329393163159615" lon="13.780701891748826"><ele>855.0</ele><time>2026-04-19T07:23:37Z</time></trkpt><trkpt lat="42.3295942397116" lon="13.780665892455792"><ele>855.0</ele><time>2026-04-19T07:23:38Z</time></trkpt><trkpt lat="42.3297782884295" lon="13.780587789746663"><ele>855.0</ele><time>2026-04-19T07:23:39Z</time></trkpt><trkpt lat="42.329947527985205" lon="13.780487211557615"><ele>854.3333333333333</ele><time>2026-04-19T07:23:40Z</time></trkpt><trkpt lat="42.330094998901465" lon="13.780356046256754"><ele>853.6666666666666</ele><time>2026-04-19T07:23:41Z</time></trkpt><trkpt lat="42.330223280075884" lon="13.780213690945658"><ele>853.0</ele><time>2026-04-19T07:23:42Z</time></trkpt><trkpt lat="42.330346884448254" lon="13.780070413803314"><ele>853.0</ele><time>2026-04-19T07:23:43Z</time></trkpt><trkpt lat="42.33047550096955" lon="13.779925091640097"><ele>853.0</ele><time>2026-04-19T07:23:44Z</time></trkpt><trkpt lat="42.33059706608742" lon="13.779792361539661"><ele>853.0</ele><time>2026-04-19T07:23:45Z</time></trkpt><trkpt lat="42.330704837255766" lon="13.779675170184012"><ele>854.25</ele><time>2026-04-19T07:23:46Z</time></trkpt><trkpt lat="42.33080327842184" lon="13.779567882157423"><ele>855.5</ele><time>2026-04-19T07:23:47Z</time></trkpt><trkpt lat="42.33091963561456" lon="13.779467576537426"><ele>856.75</ele><time>2026-04-19T07:23:48Z</time></trkpt><trkpt lat="42.3310388401312" lon="13.779404099826362"><ele>858.0</ele><time>2026-04-19T07:23:49Z</time></trkpt><trkpt lat="42.331143693274385" lon="13.779328543006804"><ele>858.0</ele><time>2026-04-19T07:23:50Z</time></trkpt><trkpt lat="42.33124879095301" lon="13.779251346604418"><ele>858.0</ele><time>2026-04-19T07:23:51Z</time></trkpt><trkpt lat="42.33135459684231" lon="13.779173183673464"><ele>858.0</ele><time>2026-04-19T07:23:52Z</time></trkpt><trkpt lat="42.33146418471036" lon="13.779092113031918"><ele>858.0</ele><time>2026-04-19T07:23:53Z</time></trkpt><trkpt lat="42.33156509259317" lon="13.778994086628522"><ele>861.0</ele><time>2026-04-19T07:23:53.999Z</time></trkpt><trkpt lat="42.33167472783727" lon="13.77891768217067"><ele>864.0</ele><time>2026-04-19T07:23:54.999Z</time></trkpt><trkpt lat="42.33178110852366" lon="13.778836112542699"><ele>867.0</ele><time>2026-04-19T07:23:55.999Z</time></trkpt><trkpt lat="42.331886278223955" lon="13.778757686048525"><ele>870.0</ele><time>2026-04-19T07:23:56.999Z</time></trkpt><trkpt lat="42.3319820920592" lon="13.778681770862757"><ele>870.0</ele><time>2026-04-19T07:23:57.999Z</time></trkpt><trkpt lat="42.332078234680985" lon="13.77863344355652"><ele>870.0</ele><time>2026-04-19T07:23:58.999Z</time></trkpt><trkpt lat="42.33217213746209" lon="13.77856385262726"><ele>870.0</ele><time>2026-04-19T07:23:59.999Z</time></trkpt><trkpt lat="42.33226986012006" lon="13.778487799091108"><ele>870.0</ele><time>2026-04-19T07:24:00.999Z</time></trkpt><trkpt lat="42.33238084749427" lon="13.778387937345371"><ele>870.5</ele><time>2026-04-19T07:24:01.999Z</time></trkpt><trkpt lat="42.33249249237421" lon="13.778274285407605"><ele>871.0</ele><time>2026-04-19T07:24:02.999Z</time></trkpt><trkpt lat="42.3326287765436" lon="13.778177131642357"><ele>871.5</ele><time>2026-04-19T07:24:03.999Z</time></trkpt><trkpt lat="42.332748845403785" lon="13.778082288840892"><ele>872.0</ele><time>2026-04-19T07:24:04.999Z</time></trkpt><trkpt lat="42.332843872980966" lon="13.77794944698099"><ele>872.0</ele><time>2026-04-19T07:24:05.999Z</time></trkpt><trkpt lat="42.332943095369195" lon="13.777825405913186"><ele>872.0</ele><time>2026-04-19T07:24:06.999Z</time></trkpt><trkpt lat="42.333031016147594" lon="13.77773656698346"><ele>872.0</ele><time>2026-04-19T07:24:07.999Z</time></trkpt><trkpt lat="42.33310259304608" lon="13.777694266401415"><ele>872.0</ele><time>2026-04-19T07:24:09.999Z</time></trkpt><trkpt lat="42.33312589523111" lon="13.777809640516407"><ele>872.0</ele><time>2026-04-19T07:24:11.999Z</time></trkpt><trkpt lat="42.333065075034625" lon="13.77788921987306"><ele>872.0</ele><time>2026-04-19T07:24:12.999Z</time></trkpt><trkpt lat="42.333029186442815" lon="13.778037988094072"><ele>872.0</ele><time>2026-04-19T07:24:13.999Z</time></trkpt><trkpt lat="42.33298535740814" lon="13.778198001941435"><ele>872.0</ele><time>2026-04-19T07:24:14.999Z</time></trkpt><trkpt lat="42.332964158828815" lon="13.778329842067427"><ele>872.0</ele><time>2026-04-19T07:24:15.999Z</time></trkpt><trkpt lat="42.33295231530592" lon="13.778433514247428"><ele>872.0</ele><time>2026-04-19T07:24:16.999Z</time></trkpt><trkpt lat="42.332944369710944" lon="13.778531722271067"><ele>873.5000000000001</ele><time>2026-04-19T07:24:17.999Z</time></trkpt><trkpt lat="42.3329452464682" lon="13.778638244224902"><ele>875.0</ele><time>2026-04-19T07:24:18.999Z</time></trkpt><trkpt lat="42.33300465328326" lon="13.778736762129492"><ele>876.5</ele><time>2026-04-19T07:24:19.999Z</time></trkpt><trkpt lat="42.33307555507169" lon="13.778774407178942"><ele>878.0</ele><time>2026-04-19T07:24:20.999Z</time></trkpt><trkpt lat="42.33314214459832" lon="13.778777143265753"><ele>879.5000000000001</ele><time>2026-04-19T07:24:21.999Z</time></trkpt><trkpt lat="42.33321670715552" lon="13.778700928419745"><ele>881.0</ele><time>2026-04-19T07:24:22.999Z</time></trkpt><trkpt lat="42.3332956696452" lon="13.778611468029318"><ele>881.0</ele><time>2026-04-19T07:24:23.999Z</time></trkpt><trkpt lat="42.33332867171827" lon="13.778436065239596"><ele>881.0</ele><time>2026-04-19T07:24:24.999Z</time></trkpt><trkpt lat="42.33339616603222" lon="13.77832901979254"><ele>881.0</ele><time>2026-04-19T07:24:25.999Z</time></trkpt><trkpt lat="42.333482829458205" lon="13.778202359269743"><ele>881.0</ele><time>2026-04-19T07:24:26.999Z</time></trkpt><trkpt lat="42.333583135796864" lon="13.778101531588124"><ele>881.0</ele><time>2026-04-19T07:24:27.999Z</time></trkpt><trkpt lat="42.333701214445085" lon="13.777981869761538"><ele>881.0</ele><time>2026-04-19T07:24:28.999Z</time></trkpt><trkpt lat="42.33382136115899" lon="13.777861435000467"><ele>881.0</ele><time>2026-04-19T07:24:29.999Z</time></trkpt><trkpt lat="42.33392973522315" lon="13.777730020091191"><ele>881.0</ele><time>2026-04-19T07:24:30.999Z</time></trkpt><trkpt lat="42.33402365448578" lon="13.777629995757703"><ele>883.0</ele><time>2026-04-19T07:24:31.999Z</time></trkpt><trkpt lat="42.33409140377632" lon="13.777496974717373"><ele>885.0</ele><time>2026-04-19T07:24:32.999Z</time></trkpt><trkpt lat="42.334160144601945" lon="13.777336115750435"><ele>887.0</ele><time>2026-04-19T07:24:33.999Z</time></trkpt><trkpt lat="42.33424464557485" lon="13.777158874317353"><ele>889.0</ele><time>2026-04-19T07:24:34.999Z</time></trkpt><trkpt lat="42.33432268529566" lon="13.77696419158668"><ele>889.25</ele><time>2026-04-19T07:24:35.999Z</time></trkpt><trkpt lat="42.33437516581233" lon="13.776769380726316"><ele>889.5</ele><time>2026-04-19T07:24:36.999Z</time></trkpt><trkpt lat="42.33442945126119" lon="13.776610805439207"><ele>889.75</ele><time>2026-04-19T07:24:37.999Z</time></trkpt><trkpt lat="42.334492667272045" lon="13.77647903860178"><ele>890.0</ele><time>2026-04-19T07:24:38.999Z</time></trkpt><trkpt lat="42.3345410592518" lon="13.776359985290387"><ele>890.0000000000001</ele><time>2026-04-19T07:24:39.999Z</time></trkpt><trkpt lat="42.33459312639009" lon="13.776268254759815"><ele>890.0</ele><time>2026-04-19T07:24:40.999Z</time></trkpt><trkpt lat="42.33464146332835" lon="13.776189719925558"><ele>890.0</ele><time>2026-04-19T07:24:41.999Z</time></trkpt><trkpt lat="42.33471324660171" lon="13.776186934065649"><ele>890.0</ele><time>2026-04-19T07:24:42.999Z</time></trkpt><trkpt lat="42.33476482910412" lon="13.776237733275927"><ele>890.0000000000001</ele><time>2026-04-19T07:24:43.999Z</time></trkpt><trkpt lat="42.33479001542647" lon="13.776329702524057"><ele>890.0</ele><time>2026-04-19T07:24:44.999Z</time></trkpt><trkpt lat="42.33477358982145" lon="13.776472459578764"><ele>890.0</ele><time>2026-04-19T07:24:45.999Z</time></trkpt><trkpt lat="42.33474991031591" lon="13.77661244358302"><ele>890.0</ele><time>2026-04-19T07:24:46.999Z</time></trkpt><trkpt lat="42.33471830416784" lon="13.776772535170931"><ele>890.0</ele><time>2026-04-19T07:24:47.999Z</time></trkpt><trkpt lat="42.334692447691054" lon="13.77695654666977"><ele>890.0</ele><time>2026-04-19T07:24:48.999Z</time></trkpt><trkpt lat="42.33467097023879" lon="13.777150895073117"><ele>889.6666666666667</ele><time>2026-04-19T07:24:49.999Z</time></trkpt><trkpt lat="42.334643695589634" lon="13.777346021621677"><ele>889.3333333333333</ele><time>2026-04-19T07:24:51Z</time></trkpt><trkpt lat="42.3346118410899" lon="13.777548747085474"><ele>889.0</ele><time>2026-04-19T07:24:52Z</time></trkpt><trkpt lat="42.33458110358591" lon="13.777752139873002"><ele>890.25</ele><time>2026-04-19T07:24:53Z</time></trkpt><trkpt lat="42.334554556163006" lon="13.777944859062881"><ele>891.5</ele><time>2026-04-19T07:24:54Z</time></trkpt><trkpt lat="42.33452680379962" lon="13.778111625681023"><ele>892.75</ele><time>2026-04-19T07:24:55Z</time></trkpt><trkpt lat="42.334503935368446" lon="13.778253758390267"><ele>894.0</ele><time>2026-04-19T07:24:56Z</time></trkpt><trkpt lat="42.334516390018976" lon="13.77838099782669"><ele>894.0</ele><time>2026-04-19T07:24:57Z</time></trkpt><trkpt lat="42.334563213781436" lon="13.778477588078522"><ele>894.0000000000001</ele><time>2026-04-19T07:24:58Z</time></trkpt><trkpt lat="42.33463965294124" lon="13.77851616171969"><ele>894.0000000000001</ele><time>2026-04-19T07:24:59Z</time></trkpt><trkpt lat="42.334728600784985" lon="13.778484719744268"><ele>894.0</ele><time>2026-04-19T07:25:00Z</time></trkpt><trkpt lat="42.33481658346736" lon="13.778383288816203"><ele>894.0</ele><time>2026-04-19T07:25:01Z</time></trkpt><trkpt lat="42.334895032931584" lon="13.778210430515859"><ele>898.0</ele><time>2026-04-19T07:25:02Z</time></trkpt><trkpt lat="42.33498489693399" lon="13.778015941399955"><ele>902.0</ele><time>2026-04-19T07:25:03Z</time></trkpt><trkpt lat="42.33507808892941" lon="13.777814657436329"><ele>906.0</ele><time>2026-04-19T07:25:04Z</time></trkpt><trkpt lat="42.335167616889656" lon="13.777592113804806"><ele>906.0</ele><time>2026-04-19T07:25:05Z</time></trkpt><trkpt lat="42.33530061413845" lon="13.777382349513951"><ele>906.0</ele><time>2026-04-19T07:25:06Z</time></trkpt><trkpt lat="42.33544310037616" lon="13.777137041295559"><ele>906.0</ele><time>2026-04-19T07:25:07Z</time></trkpt><trkpt lat="42.33558734034717" lon="13.776901051290814"><ele>910.3333333333333</ele><time>2026-04-19T07:25:08Z</time></trkpt><trkpt lat="42.33572282102529" lon="13.776687746228584"><ele>914.6666666666666</ele><time>2026-04-19T07:25:09Z</time></trkpt><trkpt lat="42.33584215705215" lon="13.776499944221204"><ele>919.0</ele><time>2026-04-19T07:25:10Z</time></trkpt><trkpt lat="42.33595092379929" lon="13.77632535519183"><ele>919.0</ele><time>2026-04-19T07:25:11Z</time></trkpt><trkpt lat="42.33605630702946" lon="13.776167076134017"><ele>919.0</ele><time>2026-04-19T07:25:12Z</time></trkpt><trkpt lat="42.33617073171169" lon="13.7760328289421"><ele>919.0</ele><time>2026-04-19T07:25:13Z</time></trkpt><trkpt lat="42.33628428110875" lon="13.775930231658556"><ele>919.0</ele><time>2026-04-19T07:25:14Z</time></trkpt><trkpt lat="42.33641346589817" lon="13.775838656666638"><ele>921.6666666666666</ele><time>2026-04-19T07:25:15Z</time></trkpt><trkpt lat="42.33655424103468" lon="13.775744407707904"><ele>924.3333333333333</ele><time>2026-04-19T07:25:16Z</time></trkpt><trkpt lat="42.336700510149136" lon="13.775646478767722"><ele>927.0</ele><time>2026-04-19T07:25:17Z</time></trkpt><trkpt lat="42.33684267528349" lon="13.775556427986578"><ele>927.0</ele><time>2026-04-19T07:25:18Z</time></trkpt><trkpt lat="42.336987580578075" lon="13.775477784660614"><ele>927.0</ele><time>2026-04-19T07:25:19Z</time></trkpt><trkpt lat="42.33712819049835" lon="13.775390033121406"><ele>927.0</ele><time>2026-04-19T07:25:20Z</time></trkpt><trkpt lat="42.337276662891966" lon="13.77534113493956"><ele>926.5</ele><time>2026-04-19T07:25:21Z</time></trkpt><trkpt lat="42.337425455740444" lon="13.775292923452172"><ele>926.0</ele><time>2026-04-19T07:25:22Z</time></trkpt><trkpt lat="42.33756666085387" lon="13.775245664383402"><ele>925.5</ele><time>2026-04-19T07:25:23Z</time></trkpt><trkpt lat="42.33770017980374" lon="13.775175952346533"><ele>925.0</ele><time>2026-04-19T07:25:24Z</time></trkpt><trkpt lat="42.337817359563765" lon="13.77507472398483"><ele>925.0</ele><time>2026-04-19T07:25:25Z</time></trkpt><trkpt lat="42.33791909592077" lon="13.77495668617937"><ele>925.0</ele><time>2026-04-19T07:25:26Z</time></trkpt><trkpt lat="42.3380024759417" lon="13.77484265488013"><ele>925.0</ele><time>2026-04-19T07:25:27Z</time></trkpt><trkpt lat="42.338101351391785" lon="13.774746891990748"><ele>925.0</ele><time>2026-04-19T07:25:28Z</time></trkpt><trkpt lat="42.33818913114557" lon="13.774639474640097"><ele>926.8</ele><time>2026-04-19T07:25:29Z</time></trkpt><trkpt lat="42.33827334364759" lon="13.774534400135993"><ele>928.6</ele><time>2026-04-19T07:25:30Z</time></trkpt><trkpt lat="42.33835390708737" lon="13.774433387642999"><ele>930.4000000000001</ele><time>2026-04-19T07:25:31Z</time></trkpt><trkpt lat="42.33842429020966" lon="13.774342867948766"><ele>932.2</ele><time>2026-04-19T07:25:32Z</time></trkpt><trkpt lat="42.33848546700377" lon="13.774262808416026"><ele>934.0</ele><time>2026-04-19T07:25:33Z</time></trkpt><trkpt lat="42.33854586964796" lon="13.774186966732266"><ele>933.9999999999999</ele><time>2026-04-19T07:25:34Z</time></trkpt><trkpt lat="42.33860207605747" lon="13.774131789420089"><ele>934.0</ele><time>2026-04-19T07:25:35Z</time></trkpt><trkpt lat="42.33865794759246" lon="13.774083805541329"><ele>934.0</ele><time>2026-04-19T07:25:36Z</time></trkpt><trkpt lat="42.33873962449807" lon="13.774172856257094"><ele>934.0</ele><time>2026-04-19T07:25:38Z</time></trkpt><trkpt lat="42.33874009290198" lon="13.774264125711362"><ele>933.9999999999999</ele><time>2026-04-19T07:25:39Z</time></trkpt><trkpt lat="42.33871717761794" lon="13.774358257819046"><ele>934.0</ele><time>2026-04-19T07:25:40Z</time></trkpt><trkpt lat="42.338681414673026" lon="13.77445604648497"><ele>935.25</ele><time>2026-04-19T07:25:41Z</time></trkpt><trkpt lat="42.33863497843333" lon="13.774584414744735"><ele>936.5</ele><time>2026-04-19T07:25:42Z</time></trkpt><trkpt lat="42.3385800273081" lon="13.77473393609526"><ele>937.75</ele><time>2026-04-19T07:25:43Z</time></trkpt><trkpt lat="42.338525424674415" lon="13.774887629245935"><ele>939.0</ele><time>2026-04-19T07:25:44Z</time></trkpt><trkpt lat="42.338459555863736" lon="13.775029268532794"><ele>939.0</ele><time>2026-04-19T07:25:45Z</time></trkpt><trkpt lat="42.3383763293551" lon="13.775153555938822"><ele>939.0000000000001</ele><time>2026-04-19T07:25:46Z</time></trkpt><trkpt lat="42.338282591025234" lon="13.775261439855347"><ele>939.0000000000001</ele><time>2026-04-19T07:25:47Z</time></trkpt><trkpt lat="42.33820323355936" lon="13.775350113470614"><ele>939.0</ele><time>2026-04-19T07:25:48Z</time></trkpt><trkpt lat="42.33815656706643" lon="13.77543773418939"><ele>939.0</ele><time>2026-04-19T07:25:49Z</time></trkpt><trkpt lat="42.33814560395589" lon="13.775525688245033"><ele>940.8333333333334</ele><time>2026-04-19T07:25:50Z</time></trkpt><trkpt lat="42.33816337520516" lon="13.775609119415362"><ele>942.6666666666667</ele><time>2026-04-19T07:25:51Z</time></trkpt><trkpt lat="42.338204095496145" lon="13.775695072623733"><ele>944.5</ele><time>2026-04-19T07:25:52Z</time></trkpt><trkpt lat="42.33826473733646" lon="13.77574820816733"><ele>946.3333333333334</ele><time>2026-04-19T07:25:53Z</time></trkpt><trkpt lat="42.33834219135139" lon="13.775766500559557"><ele>948.1666666666667</ele><time>2026-04-19T07:25:54Z</time></trkpt><trkpt lat="42.33843158455474" lon="13.77574022331288"><ele>950.0</ele><time>2026-04-19T07:25:55Z</time></trkpt><trkpt lat="42.33852684443357" lon="13.775675930166853"><ele>950.0</ele><time>2026-04-19T07:25:56Z</time></trkpt><trkpt lat="42.33863452005327" lon="13.775578642165428"><ele>950.0</ele><time>2026-04-19T07:25:57Z</time></trkpt><trkpt lat="42.3387594181734" lon="13.775501090141743"><ele>950.0</ele><time>2026-04-19T07:25:58Z</time></trkpt><trkpt lat="42.338866736668045" lon="13.775386889441045"><ele>950.0</ele><time>2026-04-19T07:25:59Z</time></trkpt><trkpt lat="42.33898995137031" lon="13.775294761987553"><ele>952.5</ele><time>2026-04-19T07:26:00Z</time></trkpt><trkpt lat="42.3391100228564" lon="13.775190102097964"><ele>955.0</ele><time>2026-04-19T07:26:01Z</time></trkpt><trkpt lat="42.339207172066786" lon="13.77505446874781"><ele>957.5</ele><time>2026-04-19T07:26:02Z</time></trkpt><trkpt lat="42.339265284005606" lon="13.77488358362695"><ele>960.0</ele><time>2026-04-19T07:26:03Z</time></trkpt><trkpt lat="42.33930076567926" lon="13.77468240797996"><ele>960.0</ele><time>2026-04-19T07:26:04Z</time></trkpt><trkpt lat="42.33935978091733" lon="13.774484541989787"><ele>960.0</ele><time>2026-04-19T07:26:05Z</time></trkpt><trkpt lat="42.33941480725364" lon="13.774276926121392"><ele>960.0</ele><time>2026-04-19T07:26:06Z</time></trkpt><trkpt lat="42.339475303761716" lon="13.774076613777316"><ele>957.3333333333333</ele><time>2026-04-19T07:26:07Z</time></trkpt><trkpt lat="42.33955054303257" lon="13.773889480989432"><ele>954.6666666666666</ele><time>2026-04-19T07:26:07.999Z</time></trkpt><trkpt lat="42.33963405032559" lon="13.773714393190273"><ele>952.0</ele><time>2026-04-19T07:26:08.999Z</time></trkpt><trkpt lat="42.339720700688474" lon="13.773547185822075"><ele>956.75</ele><time>2026-04-19T07:26:09.999Z</time></trkpt><trkpt lat="42.339813298007364" lon="13.773390426869584"><ele>961.5</ele><time>2026-04-19T07:26:10.999Z</time></trkpt><trkpt lat="42.33990028638208" lon="13.77323155260006"><ele>966.25</ele><time>2026-04-19T07:26:11.999Z</time></trkpt><trkpt lat="42.339969436451845" lon="13.773053738002533"><ele>971.0</ele><time>2026-04-19T07:26:12.999Z</time></trkpt><trkpt lat="42.34003933576447" lon="13.772874489207272"><ele>968.3333333333334</ele><time>2026-04-19T07:26:13.999Z</time></trkpt><trkpt lat="42.34008050366944" lon="13.772666804099995"><ele>965.6666666666667</ele><time>2026-04-19T07:26:14.999Z</time></trkpt><trkpt lat="42.34010008797157" lon="13.77244871312538"><ele>963.0</ele><time>2026-04-19T07:26:15.999Z</time></trkpt><trkpt lat="42.34010722538909" lon="13.772225937018417"><ele>963.0</ele><time>2026-04-19T07:26:16.999Z</time></trkpt><trkpt lat="42.340122447903205" lon="13.772000809537202"><ele>963.0</ele><time>2026-04-19T07:26:17.999Z</time></trkpt><trkpt lat="42.34014102367244" lon="13.771781522856191"><ele>963.0</ele><time>2026-04-19T07:26:18.999Z</time></trkpt><trkpt lat="42.340154590456216" lon="13.771558740859133"><ele>963.25</ele><time>2026-04-19T07:26:19.999Z</time></trkpt><trkpt lat="42.34018683107101" lon="13.771350307456649"><ele>963.5</ele><time>2026-04-19T07:26:20.999Z</time></trkpt><trkpt lat="42.340200127488494" lon="13.771162832191727"><ele>963.75</ele><time>2026-04-19T07:26:21.999Z</time></trkpt><trkpt lat="42.34021097447016" lon="13.770995711245973"><ele>964.0</ele><time>2026-04-19T07:26:22.999Z</time></trkpt><trkpt lat="42.3402212368575" lon="13.770825147214696"><ele>964.2</ele><time>2026-04-19T07:26:23.999Z</time></trkpt><trkpt lat="42.340239383535014" lon="13.770675210569582"><ele>964.4000000000001</ele><time>2026-04-19T07:26:24.999Z</time></trkpt><trkpt lat="42.34026475741626" lon="13.770561409853283"><ele>964.6</ele><time>2026-04-19T07:26:25.999Z</time></trkpt><trkpt lat="42.34030779412658" lon="13.77048588912321"><ele>964.8</ele><time>2026-04-19T07:26:26.999Z</time></trkpt><trkpt lat="42.34038532194275" lon="13.770458294090764"><ele>965.0</ele><time>2026-04-19T07:26:27.999Z</time></trkpt><trkpt lat="42.340481234898625" lon="13.770503210086657"><ele>967.5</ele><time>2026-04-19T07:26:28.999Z</time></trkpt><trkpt lat="42.340556941692384" lon="13.770620225405999"><ele>970.0</ele><time>2026-04-19T07:26:29.999Z</time></trkpt><trkpt lat="42.340645969848566" lon="13.77077449073581"><ele>972.5</ele><time>2026-04-19T07:26:30.999Z</time></trkpt><trkpt lat="42.34073979212096" lon="13.770946780285767"><ele>975.0</ele><time>2026-04-19T07:26:31.999Z</time></trkpt><trkpt lat="42.34083215643429" lon="13.771116281693601"><ele>975.0</ele><time>2026-04-19T07:26:32.999Z</time></trkpt><trkpt lat="42.340940346299334" lon="13.771274952625074"><ele>975.0</ele><time>2026-04-19T07:26:33.999Z</time></trkpt><trkpt lat="42.34100074275852" lon="13.771442218466944"><ele>975.0</ele><time>2026-04-19T07:26:34.999Z</time></trkpt><trkpt lat="42.341078796588256" lon="13.771583041339712"><ele>975.0</ele><time>2026-04-19T07:26:35.999Z</time></trkpt><trkpt lat="42.34111234436687" lon="13.77175405601328"><ele>977.75</ele><time>2026-04-19T07:26:36.999Z</time></trkpt><trkpt lat="42.34110258556404" lon="13.771930546974904"><ele>980.5</ele><time>2026-04-19T07:26:37.999Z</time></trkpt><trkpt lat="42.3410678236487" lon="13.772079874950963"><ele>983.25</ele><time>2026-04-19T07:26:38.999Z</time></trkpt><trkpt lat="42.34098952548687" lon="13.772204656323256"><ele>986.0</ele><time>2026-04-19T07:26:39.999Z</time></trkpt><trkpt lat="42.340886281172054" lon="13.772341503591296"><ele>986.0</ele><time>2026-04-19T07:26:40.999Z</time></trkpt><trkpt lat="42.34077927839441" lon="13.772476669458563"><ele>985.9999999999999</ele><time>2026-04-19T07:26:41.999Z</time></trkpt><trkpt lat="42.34070931251119" lon="13.772584733039034"><ele>985.9999999999999</ele><time>2026-04-19T07:26:42.999Z</time></trkpt><trkpt lat="42.34067831403828" lon="13.772684002206724"><ele>986.0</ele><time>2026-04-19T07:26:43.999Z</time></trkpt><trkpt lat="42.3407071448555" lon="13.772770474651972"><ele>986.0</ele><time>2026-04-19T07:26:44.999Z</time></trkpt><trkpt lat="42.340763649785686" lon="13.772814112703697"><ele>986.0</ele><time>2026-04-19T07:26:45.999Z</time></trkpt><trkpt lat="42.340834916682006" lon="13.772810276504275"><ele>985.9999999999999</ele><time>2026-04-19T07:26:46.999Z</time></trkpt><trkpt lat="42.34090802814018" lon="13.772724068508515"><ele>985.9999999999999</ele><time>2026-04-19T07:26:47.999Z</time></trkpt><trkpt lat="42.3409714911236" lon="13.772576487744509"><ele>986.0</ele><time>2026-04-19T07:26:48.999Z</time></trkpt><trkpt lat="42.341064771192826" lon="13.77243300082884"><ele>986.0</ele><time>2026-04-19T07:26:49.999Z</time></trkpt><trkpt lat="42.34117642886749" lon="13.77230511933773"><ele>986.0</ele><time>2026-04-19T07:26:50.999Z</time></trkpt><trkpt lat="42.3413146360035" lon="13.772167664395772"><ele>986.0</ele><time>2026-04-19T07:26:51.999Z</time></trkpt><trkpt lat="42.34146212758306" lon="13.77202247959262"><ele>986.0</ele><time>2026-04-19T07:26:52.999Z</time></trkpt><trkpt lat="42.34160725292517" lon="13.771864153250792"><ele>990.3333333333334</ele><time>2026-04-19T07:26:53.999Z</time></trkpt><trkpt lat="42.34173184573746" lon="13.77169211015695"><ele>994.6666666666667</ele><time>2026-04-19T07:26:54.999Z</time></trkpt><trkpt lat="42.3418330406893" lon="13.7714880204356"><ele>999.0</ele><time>2026-04-19T07:26:55.999Z</time></trkpt><trkpt lat="42.34187707247202" lon="13.771253500752344"><ele>997.0</ele><time>2026-04-19T07:26:57Z</time></trkpt><trkpt lat="42.341916458625086" lon="13.771021272925358"><ele>995.0</ele><time>2026-04-19T07:26:58Z</time></trkpt><trkpt lat="42.341978237897166" lon="13.770826628312253"><ele>993.0</ele><time>2026-04-19T07:26:59Z</time></trkpt><trkpt lat="42.34202855587495" lon="13.770663221950674"><ele>993.0</ele><time>2026-04-19T07:27:00Z</time></trkpt><trkpt lat="42.342114192035446" lon="13.77050741511063"><ele>993.0</ele><time>2026-04-19T07:27:01Z</time></trkpt><trkpt lat="42.342225870628745" lon="13.77033484303414"><ele>993.0</ele><time>2026-04-19T07:27:02Z</time></trkpt><trkpt lat="42.342348808769" lon="13.770148011744013"><ele>998.0</ele><time>2026-04-19T07:27:03Z</time></trkpt><trkpt lat="42.34247709831762" lon="13.769954311446993"><ele>1003.0</ele><time>2026-04-19T07:27:04Z</time></trkpt><trkpt lat="42.34259711528451" lon="13.769773041009227"><ele>1008.0</ele><time>2026-04-19T07:27:05Z</time></trkpt><trkpt lat="42.34270891787187" lon="13.769603064033026"><ele>1008.0</ele><time>2026-04-19T07:27:06Z</time></trkpt><trkpt lat="42.342807602238665" lon="13.76945303078795"><ele>1008.0</ele><time>2026-04-19T07:27:07Z</time></trkpt><trkpt lat="42.342903770682675" lon="13.769306825358164"><ele>1008.0</ele><time>2026-04-19T07:27:08Z</time></trkpt><trkpt lat="42.34299369733659" lon="13.769171735594044"><ele>1008.0</ele><time>2026-04-19T07:27:09Z</time></trkpt><trkpt lat="42.343078069309485" lon="13.769044990023296"><ele>1010.0</ele><time>2026-04-19T07:27:10Z</time></trkpt><trkpt lat="42.34315797116104" lon="13.768927892242859"><ele>1012.0</ele><time>2026-04-19T07:27:11Z</time></trkpt><trkpt lat="42.34322800526829" lon="13.768813404130084"><ele>1014.0</ele><time>2026-04-19T07:27:12Z</time></trkpt><trkpt lat="42.34330548126203" lon="13.768728432806025"><ele>1016.0</ele><time>2026-04-19T07:27:13Z</time></trkpt><trkpt lat="42.34338899265998" lon="13.768667461082277"><ele>1018.0</ele><time>2026-04-19T07:27:14Z</time></trkpt><trkpt lat="42.34347341858817" lon="13.768583171377491"><ele>1017.5</ele><time>2026-04-19T07:27:15Z</time></trkpt><trkpt lat="42.343554393080176" lon="13.768475805596553"><ele>1017.0</ele><time>2026-04-19T07:27:16Z</time></trkpt><trkpt lat="42.343650717439814" lon="13.768392921084198"><ele>1016.5</ele><time>2026-04-19T07:27:17Z</time></trkpt><trkpt lat="42.343744731512416" lon="13.768299299137208"><ele>1016.0</ele><time>2026-04-19T07:27:18Z</time></trkpt><trkpt lat="42.3438432581094" lon="13.768203694792593"><ele>1017.5</ele><time>2026-04-19T07:27:19Z</time></trkpt><trkpt lat="42.34394504777925" lon="13.768101277161502"><ele>1019.0</ele><time>2026-04-19T07:27:20Z</time></trkpt><trkpt lat="42.34404946927718" lon="13.76799349661349"><ele>1020.5</ele><time>2026-04-19T07:27:21Z</time></trkpt><trkpt lat="42.34415727521057" lon="13.76789229262164"><ele>1022.0</ele><time>2026-04-19T07:27:22Z</time></trkpt><trkpt lat="42.344286514989435" lon="13.76783042482401"><ele>1022.0</ele><time>2026-04-19T07:27:23Z</time></trkpt><trkpt lat="42.34442890515072" lon="13.76776904775345"><ele>1022.0</ele><time>2026-04-19T07:27:24Z</time></trkpt><trkpt lat="42.3445853217548" lon="13.76769027619019"><ele>1022.0</ele><time>2026-04-19T07:27:25Z</time></trkpt><trkpt lat="42.34475003532806" lon="13.767637862919049"><ele>1023.0</ele><time>2026-04-19T07:27:26Z</time></trkpt><trkpt lat="42.34490192305995" lon="13.76758551676558"><ele>1024.0</ele><time>2026-04-19T07:27:27Z</time></trkpt><trkpt lat="42.345036903818986" lon="13.767539937990549"><ele>1025.0</ele><time>2026-04-19T07:27:28Z</time></trkpt><trkpt lat="42.345162972832405" lon="13.767500570773525"><ele>1026.0</ele><time>2026-04-19T07:27:29Z</time></trkpt><trkpt lat="42.34529850421813" lon="13.76746025223985"><ele>1026.0</ele><time>2026-04-19T07:27:30Z</time></trkpt><trkpt lat="42.34545515493179" lon="13.767409430510925"><ele>1026.0</ele><time>2026-04-19T07:27:31Z</time></trkpt><trkpt lat="42.34563591536593" lon="13.767343152256991"><ele>1026.0</ele><time>2026-04-19T07:27:32Z</time></trkpt><trkpt lat="42.345847070622106" lon="13.767264473747122"><ele>1027.5</ele><time>2026-04-19T07:27:33Z</time></trkpt><trkpt lat="42.346078250274594" lon="13.767183344703474"><ele>1029.0</ele><time>2026-04-19T07:27:34Z</time></trkpt><trkpt lat="42.34631410647637" lon="13.767104373353137"><ele>1031.0</ele><time>2026-04-19T07:27:35Z</time></trkpt><trkpt lat="42.34656556341772" lon="13.767016403325332"><ele>1033.0</ele><time>2026-04-19T07:27:36Z</time></trkpt><trkpt lat="42.346807618747484" lon="13.76693115789551"><ele>1033.3333333333333</ele><time>2026-04-19T07:27:37Z</time></trkpt><trkpt lat="42.34702920210469" lon="13.766854851395657"><ele>1033.6666666666667</ele><time>2026-04-19T07:27:38Z</time></trkpt><trkpt lat="42.34723075326286" lon="13.766784076572428"><ele>1034.0</ele><time>2026-04-19T07:27:39Z</time></trkpt><trkpt lat="42.34742410629583" lon="13.766713414281321"><ele>1034.0</ele><time>2026-04-19T07:27:40Z</time></trkpt><trkpt lat="42.3476137337591" lon="13.766644494023822"><ele>1034.0</ele><time>2026-04-19T07:27:41Z</time></trkpt><trkpt lat="42.3478009597452" lon="13.766557492715307"><ele>1034.0</ele><time>2026-04-19T07:27:42Z</time></trkpt><trkpt lat="42.34797343880142" lon="13.766421851940683"><ele>1036.5</ele><time>2026-04-19T07:27:43Z</time></trkpt><trkpt lat="42.34813315095692" lon="13.766220193180763"><ele>1039.0</ele><time>2026-04-19T07:27:44Z</time></trkpt><trkpt lat="42.348291911286765" lon="13.765978322357599"><ele>1039.0</ele><time>2026-04-19T07:27:45Z</time></trkpt><trkpt lat="42.348446029422725" lon="13.76572249532944"><ele>1039.0</ele><time>2026-04-19T07:27:46Z</time></trkpt><trkpt lat="42.348602315279585" lon="13.765466538739997"><ele>1039.0</ele><time>2026-04-19T07:27:47Z</time></trkpt><trkpt lat="42.34872880466736" lon="13.765233607019391"><ele>1039.0</ele><time>2026-04-19T07:27:48Z</time></trkpt><trkpt lat="42.34884854323891" lon="13.765005941647962"><ele>1039.0</ele><time>2026-04-19T07:27:49Z</time></trkpt><trkpt lat="42.34891507172545" lon="13.764745911432067"><ele>1041.0</ele><time>2026-04-19T07:27:50Z</time></trkpt><trkpt lat="42.34899498754643" lon="13.764501201102195"><ele>1043.0</ele><time>2026-04-19T07:27:51Z</time></trkpt><trkpt lat="42.34910308448047" lon="13.764311962672338"><ele>1045.0</ele><time>2026-04-19T07:27:52Z</time></trkpt><trkpt lat="42.34920107700284" lon="13.764130783383267"><ele>1045.0</ele><time>2026-04-19T07:27:53Z</time></trkpt><trkpt lat="42.349271156514455" lon="13.76397034332332"><ele>1045.0</ele><time>2026-04-19T07:27:54Z</time></trkpt><trkpt lat="42.349319197633555" lon="13.763836238492141"><ele>1045.0</ele><time>2026-04-19T07:27:55Z</time></trkpt><trkpt lat="42.34931122929965" lon="13.763677310057906"><ele>1045.0</ele><time>2026-04-19T07:27:56Z</time></trkpt><trkpt lat="42.34925719735981" lon="13.763458820762908"><ele>1044.6666666666665</ele><time>2026-04-19T07:27:56.999Z</time></trkpt><trkpt lat="42.3492218714881" lon="13.763220300283928"><ele>1044.3333333333333</ele><time>2026-04-19T07:27:57.999Z</time></trkpt><trkpt lat="42.34923389079719" lon="13.763001600416322"><ele>1044.0</ele><time>2026-04-19T07:27:58.999Z</time></trkpt><trkpt lat="42.34930736328787" lon="13.762784676029257"><ele>1046.0</ele><time>2026-04-19T07:27:59.999Z</time></trkpt><trkpt lat="42.34940270803847" lon="13.762563050762143"><ele>1048.0</ele><time>2026-04-19T07:28:00.999Z</time></trkpt><trkpt lat="42.34949371266505" lon="13.762386147327044"><ele>1050.0</ele><time>2026-04-19T07:28:01.999Z</time></trkpt><trkpt lat="42.34959537553035" lon="13.762238962614601"><ele>1052.3333333333333</ele><time>2026-04-19T07:28:02.999Z</time></trkpt><trkpt lat="42.349748167556854" lon="13.76213133837525"><ele>1054.6666666666665</ele><time>2026-04-19T07:28:03.999Z</time></trkpt><trkpt lat="42.349936579572365" lon="13.762022216364775"><ele>1057.0</ele><time>2026-04-19T07:28:04.999Z</time></trkpt><trkpt lat="42.35014710817318" lon="13.761906133834705"><ele>1057.6666666666665</ele><time>2026-04-19T07:28:05.999Z</time></trkpt><trkpt lat="42.35035725975565" lon="13.761767037843997"><ele>1058.3333333333333</ele><time>2026-04-19T07:28:06.999Z</time></trkpt><trkpt lat="42.350551999728474" lon="13.761665353029226"><ele>1059.0</ele><time>2026-04-19T07:28:07.999Z</time></trkpt><trkpt lat="42.35072300935799" lon="13.76157051621257"><ele>1059.6666666666667</ele><time>2026-04-19T07:28:08.999Z</time></trkpt><trkpt lat="42.35088289870839" lon="13.7614833205808"><ele>1060.3333333333335</ele><time>2026-04-19T07:28:09.999Z</time></trkpt><trkpt lat="42.35103309244773" lon="13.76146947535853"><ele>1061.0</ele><time>2026-04-19T07:28:10.999Z</time></trkpt><trkpt lat="42.351184719862445" lon="13.761508038245434"><ele>1061.0</ele><time>2026-04-19T07:28:11.999Z</time></trkpt><trkpt lat="42.35135623044296" lon="13.761598298934896"><ele>1061.0</ele><time>2026-04-19T07:28:12.999Z</time></trkpt><trkpt lat="42.351559255851534" lon="13.761693318566818"><ele>1061.0</ele><time>2026-04-19T07:28:13.999Z</time></trkpt><trkpt lat="42.35175665099682" lon="13.761810566182257"><ele>1067.6666666666667</ele><time>2026-04-19T07:28:14.999Z</time></trkpt><trkpt lat="42.3519361289616" lon="13.761897096842732"><ele>1074.3333333333333</ele><time>2026-04-19T07:28:15.999Z</time></trkpt><trkpt lat="42.3521044558227" lon="13.761932373892735"><ele>1081.0</ele><time>2026-04-19T07:28:16.999Z</time></trkpt><trkpt lat="42.352274466659026" lon="13.761897021640902"><ele>1080.3333333333333</ele><time>2026-04-19T07:28:17.999Z</time></trkpt><trkpt lat="42.35246173788901" lon="13.761812299779333"><ele>1079.6666666666667</ele><time>2026-04-19T07:28:18.999Z</time></trkpt><trkpt lat="42.35268040117918" lon="13.761708739497884"><ele>1079.0</ele><time>2026-04-19T07:28:19.999Z</time></trkpt><trkpt lat="42.35291459321159" lon="13.761614885408276"><ele>1083.0</ele><time>2026-04-19T07:28:20.999Z</time></trkpt><trkpt lat="42.35314623105238" lon="13.761527173973489"><ele>1087.0</ele><time>2026-04-19T07:28:21.999Z</time></trkpt><trkpt lat="42.35336074800727" lon="13.761446992951043"><ele>1087.0</ele><time>2026-04-19T07:28:22.999Z</time></trkpt><trkpt lat="42.35354768053455" lon="13.761375188987868"><ele>1087.0</ele><time>2026-04-19T07:28:23.999Z</time></trkpt><trkpt lat="42.35370557484647" lon="13.761289407704625"><ele>1087.0</ele><time>2026-04-19T07:28:24.999Z</time></trkpt><trkpt lat="42.353845269955286" lon="13.761141288348345"><ele>1089.0</ele><time>2026-04-19T07:28:25.999Z</time></trkpt><trkpt lat="42.353986666173725" lon="13.760921084207956"><ele>1091.0</ele><time>2026-04-19T07:28:26.999Z</time></trkpt><trkpt lat="42.354138769144136" lon="13.760656745186465"><ele>1091.0</ele><time>2026-04-19T07:28:27.999Z</time></trkpt><trkpt lat="42.35429588457334" lon="13.760390101304353"><ele>1091.0</ele><time>2026-04-19T07:28:28.999Z</time></trkpt><trkpt lat="42.35445245212625" lon="13.760128183828717"><ele>1091.0</ele><time>2026-04-19T07:28:29.999Z</time></trkpt><trkpt lat="42.35459919232132" lon="13.759886566520432"><ele>1091.0</ele><time>2026-04-19T07:28:30.999Z</time></trkpt><trkpt lat="42.35472452141645" lon="13.759668814824813"><ele>1091.0</ele><time>2026-04-19T07:28:31.999Z</time></trkpt><trkpt lat="42.35482633329022" lon="13.759431138003235"><ele>1095.3333333333335</ele><time>2026-04-19T07:28:32.999Z</time></trkpt><trkpt lat="42.354891510696234" lon="13.759160175629182"><ele>1099.6666666666667</ele><time>2026-04-19T07:28:33.999Z</time></trkpt><trkpt lat="42.35491448942368" lon="13.758882820958826"><ele>1104.0</ele><time>2026-04-19T07:28:34.999Z</time></trkpt><trkpt lat="42.35495068661653" lon="13.758670044517682"><ele>1104.0</ele><time>2026-04-19T07:28:35.999Z</time></trkpt><trkpt lat="42.35498895222179" lon="13.758523378947336"><ele>1104.0</ele><time>2026-04-19T07:28:36.999Z</time></trkpt><trkpt lat="42.35504162394369" lon="13.758417122300902"><ele>1104.0</ele><time>2026-04-19T07:28:37.999Z</time></trkpt><trkpt lat="42.35511904278639" lon="13.758395730973277"><ele>1104.0</ele><time>2026-04-19T07:28:38.999Z</time></trkpt><trkpt lat="42.355187217518186" lon="13.75841645268059"><ele>1104.0</ele><time>2026-04-19T07:28:39.999Z</time></trkpt><trkpt lat="42.35525348648094" lon="13.75849751373131"><ele>1104.0</ele><time>2026-04-19T07:28:40.999Z</time></trkpt><trkpt lat="42.35528594152675" lon="13.75862756488164"><ele>1104.0</ele><time>2026-04-19T07:28:41.999Z</time></trkpt><trkpt lat="42.35524830385841" lon="13.758787556354768"><ele>1104.0</ele><time>2026-04-19T07:28:42.999Z</time></trkpt><trkpt lat="42.355200226183555" lon="13.758999203536874"><ele>1104.0</ele><time>2026-04-19T07:28:43.999Z</time></trkpt><trkpt lat="42.355138455637665" lon="13.759212531192269"><ele>1104.0</ele><time>2026-04-19T07:28:44.999Z</time></trkpt><trkpt lat="42.355128123654076" lon="13.759425474470428"><ele>1104.0</ele><time>2026-04-19T07:28:45.999Z</time></trkpt><trkpt lat="42.35516677259721" lon="13.75964407685232"><ele>1104.0</ele><time>2026-04-19T07:28:46.999Z</time></trkpt><trkpt lat="42.3552146148664" lon="13.759824730447695"><ele>1104.0</ele><time>2026-04-19T07:28:47.999Z</time></trkpt><trkpt lat="42.355273470091724" lon="13.759939096707337"><ele>1104.0</ele><time>2026-04-19T07:28:48.999Z</time></trkpt><trkpt lat="42.355353742001725" lon="13.760000550703902"><ele>1104.0</ele><time>2026-04-19T07:28:49.999Z</time></trkpt><trkpt lat="42.35545505528848" lon="13.75998685072169"><ele>1104.0</ele><time>2026-04-19T07:28:50.999Z</time></trkpt><trkpt lat="42.355561538404025" lon="13.759918456642849"><ele>1104.0</ele><time>2026-04-19T07:28:51.999Z</time></trkpt><trkpt lat="42.35564472179348" lon="13.759749850479663"><ele>1109.0</ele><time>2026-04-19T07:28:52.999Z</time></trkpt><trkpt lat="42.35570756532472" lon="13.759523419719113"><ele>1114.0</ele><time>2026-04-19T07:28:53.999Z</time></trkpt><trkpt lat="42.355785053454134" lon="13.759300106326414"><ele>1119.0</ele><time>2026-04-19T07:28:54.999Z</time></trkpt><trkpt lat="42.35584446118231" lon="13.759103904670274"><ele>1119.0</ele><time>2026-04-19T07:28:55.999Z</time></trkpt><trkpt lat="42.355890409848385" lon="13.758952154856269"><ele>1119.0</ele><time>2026-04-19T07:28:56.999Z</time></trkpt><trkpt lat="42.35593540308787" lon="13.758848318306724"><ele>1119.0</ele><time>2026-04-19T07:28:57.999Z</time></trkpt><trkpt lat="42.355991796461524" lon="13.758792298446222"><ele>1119.0</ele><time>2026-04-19T07:28:58.999Z</time></trkpt><trkpt lat="42.35607286898503" lon="13.758790907501684"><ele>1119.0</ele><time>2026-04-19T07:28:59.999Z</time></trkpt><trkpt lat="42.35614799843237" lon="13.758875199726948"><ele>1119.0</ele><time>2026-04-19T07:29:00.999Z</time></trkpt><trkpt lat="42.35617499691341" lon="13.759025060017255"><ele>1119.0</ele><time>2026-04-19T07:29:01.999Z</time></trkpt><trkpt lat="42.35613897991558" lon="13.759198008714382"><ele>1119.0</ele><time>2026-04-19T07:29:03Z</time></trkpt><trkpt lat="42.35607418277523" lon="13.75940374722501"><ele>1119.0</ele><time>2026-04-19T07:29:04Z</time></trkpt><trkpt lat="42.35600274133505" lon="13.759645243594429"><ele>1120.3333333333333</ele><time>2026-04-19T07:29:05Z</time></trkpt><trkpt lat="42.35590522723705" lon="13.759908151517127"><ele>1121.6666666666665</ele><time>2026-04-19T07:29:06Z</time></trkpt><trkpt lat="42.35582539885247" lon="13.76016604579112"><ele>1123.0</ele><time>2026-04-19T07:29:07Z</time></trkpt><trkpt lat="42.35574843316811" lon="13.760381367343111"><ele>1123.4</ele><time>2026-04-19T07:29:08Z</time></trkpt><trkpt lat="42.35570587549103" lon="13.760534366604416"><ele>1123.8</ele><time>2026-04-19T07:29:09Z</time></trkpt><trkpt lat="42.355708270176414" lon="13.760647787143947"><ele>1124.2</ele><time>2026-04-19T07:29:10Z</time></trkpt><trkpt lat="42.355759719269415" lon="13.76072917451734"><ele>1124.6</ele><time>2026-04-19T07:29:11Z</time></trkpt><trkpt lat="42.3558393304228" lon="13.760754866765865"><ele>1125.0</ele><time>2026-04-19T07:29:12Z</time></trkpt><trkpt lat="42.35593734979621" lon="13.760724644847093"><ele>1125.0</ele><time>2026-04-19T07:29:13Z</time></trkpt><trkpt lat="42.35602054280015" lon="13.760570934004246"><ele>1125.0</ele><time>2026-04-19T07:29:14Z</time></trkpt><trkpt lat="42.356089293840405" lon="13.76038273539281"><ele>1125.0</ele><time>2026-04-19T07:29:15Z</time></trkpt><trkpt lat="42.35619021588289" lon="13.76019836632297"><ele>1124.5</ele><time>2026-04-19T07:29:16Z</time></trkpt><trkpt lat="42.35626904189302" lon="13.760005553838868"><ele>1124.0</ele><time>2026-04-19T07:29:17Z</time></trkpt><trkpt lat="42.35634980425926" lon="13.759853815394731"><ele>1123.5</ele><time>2026-04-19T07:29:18Z</time></trkpt><trkpt lat="42.356427235468715" lon="13.759688360826823"><ele>1123.0</ele><time>2026-04-19T07:29:19Z</time></trkpt><trkpt lat="42.35651183380045" lon="13.759504588703468"><ele>1127.3333333333333</ele><time>2026-04-19T07:29:20Z</time></trkpt><trkpt lat="42.356611464714895" lon="13.759305676691753"><ele>1131.6666666666667</ele><time>2026-04-19T07:29:21Z</time></trkpt><trkpt lat="42.35671227796999" lon="13.759113533425442"><ele>1136.0</ele><time>2026-04-19T07:29:22Z</time></trkpt><trkpt lat="42.356796702211454" lon="13.758944006700537"><ele>1136.0</ele><time>2026-04-19T07:29:23Z</time></trkpt><trkpt lat="42.35685236296716" lon="13.758779453046193"><ele>1136.0</ele><time>2026-04-19T07:29:24Z</time></trkpt><trkpt lat="42.35687472521987" lon="13.758567565546823"><ele>1136.0</ele><time>2026-04-19T07:29:25Z</time></trkpt><trkpt lat="42.35684817835186" lon="13.758350122508297"><ele>1136.6666666666667</ele><time>2026-04-19T07:29:26Z</time></trkpt><trkpt lat="42.35678446491866" lon="13.758141478144198"><ele>1137.3333333333333</ele><time>2026-04-19T07:29:27Z</time></trkpt><trkpt lat="42.35669626574716" lon="13.757929581568064"><ele>1138.0</ele><time>2026-04-19T07:29:28Z</time></trkpt><trkpt lat="42.35663083875905" lon="13.757705852913757"><ele>1140.6666666666665</ele><time>2026-04-19T07:29:29Z</time></trkpt><trkpt lat="42.35656286828844" lon="13.757479709042183"><ele>1143.3333333333333</ele><time>2026-04-19T07:29:30Z</time></trkpt><trkpt lat="42.35651296224054" lon="13.757251506613716"><ele>1146.0</ele><time>2026-04-19T07:29:31Z</time></trkpt><trkpt lat="42.35647795465362" lon="13.757028178661303"><ele>1149.0</ele><time>2026-04-19T07:29:32Z</time></trkpt><trkpt lat="42.35645750463826" lon="13.756815798332203"><ele>1152.0</ele><time>2026-04-19T07:29:33Z</time></trkpt><trkpt lat="42.35646030336125" lon="13.756576178237372"><ele>1155.0</ele><time>2026-04-19T07:29:34Z</time></trkpt><trkpt lat="42.356479308824184" lon="13.7563027699631"><ele>1155.0</ele><time>2026-04-19T07:29:35Z</time></trkpt><trkpt lat="42.356516474934985" lon="13.756015136884107"><ele>1155.0</ele><time>2026-04-19T07:29:36Z</time></trkpt><trkpt lat="42.35657871400083" lon="13.755753586606904"><ele>1155.0</ele><time>2026-04-19T07:29:37Z</time></trkpt><trkpt lat="42.35664912536847" lon="13.755510543662588"><ele>1155.0</ele><time>2026-04-19T07:29:38Z</time></trkpt><trkpt lat="42.35673018013891" lon="13.755265960797383"><ele>1155.0</ele><time>2026-04-19T07:29:39Z</time></trkpt><trkpt lat="42.3568373810678" lon="13.755025775915382"><ele>1155.0</ele><time>2026-04-19T07:29:40Z</time></trkpt><trkpt lat="42.356972070508455" lon="13.754776088165093"><ele>1152.6666666666667</ele><time>2026-04-19T07:29:41Z</time></trkpt><trkpt lat="42.3571150786421" lon="13.754523517134903"><ele>1150.3333333333335</ele><time>2026-04-19T07:29:42Z</time></trkpt><trkpt lat="42.35723083695588" lon="13.754291387206601"><ele>1148.0</ele><time>2026-04-19T07:29:43Z</time></trkpt><trkpt lat="42.3573483989054" lon="13.754075659261158"><ele>1155.0</ele><time>2026-04-19T07:29:44Z</time></trkpt><trkpt lat="42.35744127026627" lon="13.75383253448582"><ele>1162.0</ele><time>2026-04-19T07:29:45Z</time></trkpt><trkpt lat="42.35750475332272" lon="13.753557209805777"><ele>1169.0</ele><time>2026-04-19T07:29:46Z</time></trkpt><trkpt lat="42.35753327227211" lon="13.753244742873243"><ele>1169.0</ele><time>2026-04-19T07:29:47Z</time></trkpt><trkpt lat="42.3575555088294" lon="13.75292685475097"><ele>1169.0</ele><time>2026-04-19T07:29:48Z</time></trkpt><trkpt lat="42.35761559497115" lon="13.752603285806071"><ele>1168.0</ele><time>2026-04-19T07:29:48.999Z</time></trkpt><trkpt lat="42.35767870449946" lon="13.752269381758664"><ele>1167.0</ele><time>2026-04-19T07:29:49.999Z</time></trkpt><trkpt lat="42.3577637996619" lon="13.751940454526117"><ele>1166.5</ele><time>2026-04-19T07:29:50.999Z</time></trkpt><trkpt lat="42.35785273777823" lon="13.751634133377427"><ele>1166.0</ele><time>2026-04-19T07:29:51.999Z</time></trkpt><trkpt lat="42.35790127320797" lon="13.751310434757714"><ele>1168.0</ele><time>2026-04-19T07:29:52.999Z</time></trkpt><trkpt lat="42.35794181144732" lon="13.750950874919923"><ele>1170.0</ele><time>2026-04-19T07:29:53.999Z</time></trkpt><trkpt lat="42.35796032973889" lon="13.750615195283705"><ele>1170.0</ele><time>2026-04-19T07:29:54.999Z</time></trkpt><trkpt lat="42.35800097061075" lon="13.750319150105494"><ele>1170.0</ele><time>2026-04-19T07:29:55.999Z</time></trkpt><trkpt lat="42.35802823198852" lon="13.7500427286796"><ele>1170.0</ele><time>2026-04-19T07:29:56.999Z</time></trkpt><trkpt lat="42.35807930193156" lon="13.74976157804517"><ele>1181.0</ele><time>2026-04-19T07:29:57.999Z</time></trkpt><trkpt lat="42.3581442600412" lon="13.749463427558457"><ele>1192.0</ele><time>2026-04-19T07:29:58.999Z</time></trkpt><trkpt lat="42.358210526103306" lon="13.749153405208816"><ele>1192.0</ele><time>2026-04-19T07:29:59.999Z</time></trkpt><trkpt lat="42.358276476364736" lon="13.748849454978265"><ele>1192.0</ele><time>2026-04-19T07:30:00.999Z</time></trkpt><trkpt lat="42.35834719485703" lon="13.748551314331285"><ele>1189.0</ele><time>2026-04-19T07:30:01.999Z</time></trkpt><trkpt lat="42.358430273776804" lon="13.748262023989762"><ele>1186.0</ele><time>2026-04-19T07:30:02.999Z</time></trkpt><trkpt lat="42.35853411465018" lon="13.747979721762318"><ele>1184.0</ele><time>2026-04-19T07:30:03.999Z</time></trkpt><trkpt lat="42.358639895881495" lon="13.747694755955889"><ele>1182.0</ele><time>2026-04-19T07:30:04.999Z</time></trkpt><trkpt lat="42.35873522838827" lon="13.747435183587987"><ele>1182.0</ele><time>2026-04-19T07:30:05.999Z</time></trkpt><trkpt lat="42.35880404972577" lon="13.747207149937726"><ele>1182.0</ele><time>2026-04-19T07:30:06.999Z</time></trkpt><trkpt lat="42.35888073619424" lon="13.747027733146687"><ele>1182.0</ele><time>2026-04-19T07:30:07.999Z</time></trkpt><trkpt lat="42.35892389056667" lon="13.746900640097293"><ele>1182.0</ele><time>2026-04-19T07:30:08.999Z</time></trkpt><trkpt lat="42.358971093710366" lon="13.746789907282203"><ele>1183.0</ele><time>2026-04-19T07:30:09.999Z</time></trkpt><trkpt lat="42.358947499759026" lon="13.74666335571756"><ele>1184.0</ele><time>2026-04-19T07:30:10.999Z</time></trkpt><trkpt lat="42.35888339568276" lon="13.746569770433625"><ele>1185.0</ele><time>2026-04-19T07:30:11.999Z</time></trkpt><trkpt lat="42.35878479470683" lon="13.746511438034748"><ele>1186.0</ele><time>2026-04-19T07:30:12.999Z</time></trkpt><trkpt lat="42.35867151398669" lon="13.746518764193041"><ele>1187.0</ele><time>2026-04-19T07:30:13.999Z</time></trkpt><trkpt lat="42.358542605047276" lon="13.74657586060267"><ele>1187.0</ele><time>2026-04-19T07:30:14.999Z</time></trkpt><trkpt lat="42.35840601693075" lon="13.746656214257282"><ele>1187.0</ele><time>2026-04-19T07:30:15.999Z</time></trkpt><trkpt lat="42.35826695628123" lon="13.746711935366564"><ele>1187.0</ele><time>2026-04-19T07:30:16.999Z</time></trkpt><trkpt lat="42.358128603037066" lon="13.746720059929714"><ele>1187.0</ele><time>2026-04-19T07:30:17.999Z</time></trkpt><trkpt lat="42.357980319895205" lon="13.74667274312054"><ele>1186.5</ele><time>2026-04-19T07:30:18.999Z</time></trkpt><trkpt lat="42.35782629315462" lon="13.746571782581634"><ele>1186.0</ele><time>2026-04-19T07:30:19.999Z</time></trkpt><trkpt lat="42.357700603308444" lon="13.746462920374661"><ele>1185.5</ele><time>2026-04-19T07:30:20.999Z</time></trkpt><trkpt lat="42.35761290619872" lon="13.746370662079103"><ele>1185.0</ele><time>2026-04-19T07:30:21.999Z</time></trkpt><trkpt lat="42.35756665668355" lon="13.746267931907083"><ele>1185.0</ele><time>2026-04-19T07:30:22.999Z</time></trkpt><trkpt lat="42.35755947261857" lon="13.746130645616233"><ele>1185.0</ele><time>2026-04-19T07:30:23.999Z</time></trkpt><trkpt lat="42.35759711194042" lon="13.745964970238163"><ele>1185.0</ele><time>2026-04-19T07:30:24.999Z</time></trkpt><trkpt lat="42.357675117934384" lon="13.745790872190758"><ele>1185.0</ele><time>2026-04-19T07:30:25.999Z</time></trkpt><trkpt lat="42.35777746766812" lon="13.745662777845943"><ele>1186.6666666666667</ele><time>2026-04-19T07:30:26.999Z</time></trkpt><trkpt lat="42.357914680414986" lon="13.745573507259772"><ele>1188.3333333333335</ele><time>2026-04-19T07:30:27.999Z</time></trkpt><trkpt lat="42.35805971235045" lon="13.745480660088628"><ele>1190.0</ele><time>2026-04-19T07:30:28.999Z</time></trkpt><trkpt lat="42.35820260933015" lon="13.745366785241313"><ele>1192.6666666666667</ele><time>2026-04-19T07:30:29.999Z</time></trkpt><trkpt lat="42.3582731434183" lon="13.745219122655495"><ele>1195.3333333333333</ele><time>2026-04-19T07:30:30.999Z</time></trkpt><trkpt lat="42.35831847562999" lon="13.745017312141742"><ele>1198.0</ele><time>2026-04-19T07:30:31.999Z</time></trkpt><trkpt lat="42.358354505927494" lon="13.744765582006426"><ele>1199.3333333333333</ele><time>2026-04-19T07:30:32.999Z</time></trkpt><trkpt lat="42.35840420189056" lon="13.74448978677471"><ele>1200.6666666666667</ele><time>2026-04-19T07:30:33.999Z</time></trkpt><trkpt lat="42.35846103885597" lon="13.744203054181641"><ele>1202.0</ele><time>2026-04-19T07:30:34.999Z</time></trkpt><trkpt lat="42.358525918420156" lon="13.743900755933662"><ele>1202.0</ele><time>2026-04-19T07:30:35.999Z</time></trkpt><trkpt lat="42.35858783016893" lon="13.743592578228428"><ele>1202.0</ele><time>2026-04-19T07:30:36.999Z</time></trkpt><trkpt lat="42.35865313270904" lon="13.74327466700183"><ele>1201.3333333333335</ele><time>2026-04-19T07:30:37.999Z</time></trkpt><trkpt lat="42.35871913392402" lon="13.742965114821713"><ele>1200.6666666666667</ele><time>2026-04-19T07:30:38.999Z</time></trkpt><trkpt lat="42.35877566525363" lon="13.742706119599132"><ele>1200.0</ele><time>2026-04-19T07:30:39.999Z</time></trkpt><trkpt lat="42.35883134926761" lon="13.742488660789672"><ele>1203.0</ele><time>2026-04-19T07:30:40.999Z</time></trkpt><trkpt lat="42.35891991361915" lon="13.742297325885257"><ele>1206.0</ele><time>2026-04-19T07:30:41.999Z</time></trkpt><trkpt lat="42.35904898788411" lon="13.742115078668363"><ele>1209.0</ele><time>2026-04-19T07:30:42.999Z</time></trkpt><trkpt lat="42.359212352776595" lon="13.741953615540796"><ele>1210.3333333333333</ele><time>2026-04-19T07:30:43.999Z</time></trkpt><trkpt lat="42.359371903656374" lon="13.741797308525534"><ele>1211.6666666666665</ele><time>2026-04-19T07:30:44.999Z</time></trkpt><trkpt lat="42.35949661182015" lon="13.741645464488608"><ele>1213.0</ele><time>2026-04-19T07:30:45.999Z</time></trkpt><trkpt lat="42.359596961231446" lon="13.741474030820326"><ele>1213.0</ele><time>2026-04-19T07:30:46.999Z</time></trkpt><trkpt lat="42.35967300836773" lon="13.74124928465817"><ele>1213.0</ele><time>2026-04-19T07:30:47.999Z</time></trkpt><trkpt lat="42.35973560697024" lon="13.74099947178809"><ele>1213.0</ele><time>2026-04-19T07:30:48.999Z</time></trkpt><trkpt lat="42.35979268957606" lon="13.740760528975734"><ele>1214.0</ele><time>2026-04-19T07:30:49.999Z</time></trkpt><trkpt lat="42.35982469760742" lon="13.740548371770636"><ele>1215.0</ele><time>2026-04-19T07:30:50.999Z</time></trkpt><trkpt lat="42.359818595409585" lon="13.740351581543168"><ele>1216.0</ele><time>2026-04-19T07:30:51.999Z</time></trkpt><trkpt lat="42.35977399544125" lon="13.740199775431707"><ele>1217.0</ele><time>2026-04-19T07:30:52.999Z</time></trkpt><trkpt lat="42.359690901728406" lon="13.740096212762944"><ele>1217.0</ele><time>2026-04-19T07:30:53.999Z</time></trkpt><trkpt lat="42.35957031474758" lon="13.740016050638072"><ele>1217.0</ele><time>2026-04-19T07:30:54.999Z</time></trkpt><trkpt lat="42.359456331703356" lon="13.739921616473003"><ele>1217.0</ele><time>2026-04-19T07:30:55.999Z</time></trkpt><trkpt lat="42.35939070907492" lon="13.739781339486235"><ele>1217.0</ele><time>2026-04-19T07:30:56.999Z</time></trkpt><trkpt lat="42.35936469170742" lon="13.739609429908622"><ele>1217.0</ele><time>2026-04-19T07:30:57.999Z</time></trkpt><trkpt lat="42.3593816095927" lon="13.739390891952926"><ele>1217.0</ele><time>2026-04-19T07:30:58.999Z</time></trkpt><trkpt lat="42.35942312567216" lon="13.73916142246676"><ele>1217.0</ele><time>2026-04-19T07:30:59.999Z</time></trkpt><trkpt lat="42.35949349711275" lon="13.738927879017318"><ele>1218.6666666666667</ele><time>2026-04-19T07:31:00.999Z</time></trkpt><trkpt lat="42.359589294746385" lon="13.738725439893576"><ele>1220.3333333333333</ele><time>2026-04-19T07:31:01.999Z</time></trkpt><trkpt lat="42.35971089950901" lon="13.738560133457732"><ele>1222.0</ele><time>2026-04-19T07:31:02.999Z</time></trkpt><trkpt lat="42.359839781679135" lon="13.738401346980627"><ele>1225.0</ele><time>2026-04-19T07:31:03.999Z</time></trkpt><trkpt lat="42.35995844814321" lon="13.738242928222085"><ele>1228.0</ele><time>2026-04-19T07:31:04.999Z</time></trkpt><trkpt lat="42.36006704825066" lon="13.738063755279796"><ele>1231.0</ele><time>2026-04-19T07:31:05.999Z</time></trkpt><trkpt lat="42.360153119776626" lon="13.737850737062338"><ele>1230.0</ele><time>2026-04-19T07:31:06.999Z</time></trkpt><trkpt lat="42.36021404254616" lon="13.737610535246743"><ele>1229.0</ele><time>2026-04-19T07:31:07.999Z</time></trkpt><trkpt lat="42.36025662558156" lon="13.73734377771042"><ele>1228.0</ele><time>2026-04-19T07:31:09Z</time></trkpt><trkpt lat="42.36027296287" lon="13.73704855820834"><ele>1230.5</ele><time>2026-04-19T07:31:10Z</time></trkpt><trkpt lat="42.36027544718341" lon="13.736739694870073"><ele>1233.0</ele><time>2026-04-19T07:31:11Z</time></trkpt><trkpt lat="42.36028436592206" lon="13.736418807911399"><ele>1233.0</ele><time>2026-04-19T07:31:12Z</time></trkpt><trkpt lat="42.36031813561117" lon="13.736144237301234"><ele>1233.0</ele><time>2026-04-19T07:31:13Z</time></trkpt><trkpt lat="42.36034879740794" lon="13.735916123503607"><ele>1233.0</ele><time>2026-04-19T07:31:14Z</time></trkpt><trkpt lat="42.360361147969925" lon="13.73573790168005"><ele>1234.8</ele><time>2026-04-19T07:31:15Z</time></trkpt><trkpt lat="42.36033826381232" lon="13.735599132067113"><ele>1236.6</ele><time>2026-04-19T07:31:16Z</time></trkpt><trkpt lat="42.36027129803725" lon="13.735498425244108"><ele>1238.4</ele><time>2026-04-19T07:31:17Z</time></trkpt><trkpt lat="42.36017324704838" lon="13.735442448770845"><ele>1240.2</ele><time>2026-04-19T07:31:18Z</time></trkpt><trkpt lat="42.360043927390834" lon="13.735435538861166"><ele>1242.0</ele><time>2026-04-19T07:31:19Z</time></trkpt><trkpt lat="42.3598747612183" lon="13.73549430543164"><ele>1243.6666666666667</ele><time>2026-04-19T07:31:20Z</time></trkpt><trkpt lat="42.3596810578646" lon="13.735585921726662"><ele>1245.3333333333335</ele><time>2026-04-19T07:31:21Z</time></trkpt><trkpt lat="42.35948459466864" lon="13.735665562399557"><ele>1247.0</ele><time>2026-04-19T07:31:22Z</time></trkpt><trkpt lat="42.359272309002186" lon="13.735739360357629"><ele>1247.0</ele><time>2026-04-19T07:31:23Z</time></trkpt><trkpt lat="42.35907132174128" lon="13.73581630491209"><ele>1247.0</ele><time>2026-04-19T07:31:24Z</time></trkpt><trkpt lat="42.358912519470394" lon="13.73589403538883"><ele>1247.0</ele><time>2026-04-19T07:31:25Z</time></trkpt><trkpt lat="42.35877666424513" lon="13.735935634205623"><ele>1246.6</ele><time>2026-04-19T07:31:26Z</time></trkpt><trkpt lat="42.358670820201745" lon="13.73597625690241"><ele>1246.2</ele><time>2026-04-19T07:31:27Z</time></trkpt><trkpt lat="42.35857467489182" lon="13.73593920443874"><ele>1245.8</ele><time>2026-04-19T07:31:28Z</time></trkpt><trkpt lat="42.358507918801365" lon="13.73585333654362"><ele>1245.4</ele><time>2026-04-19T07:31:29Z</time></trkpt><trkpt lat="42.35848735794456" lon="13.73573026578876"><ele>1245.0</ele><time>2026-04-19T07:31:30Z</time></trkpt><trkpt lat="42.3585390483229" lon="13.735572481694255"><ele>1245.0</ele><time>2026-04-19T07:31:31Z</time></trkpt><trkpt lat="42.358574778833884" lon="13.73536524105856"><ele>1245.0</ele><time>2026-04-19T07:31:32Z</time></trkpt><trkpt lat="42.35857225156411" lon="13.735115516152002"><ele>1245.0</ele><time>2026-04-19T07:31:33Z</time></trkpt><trkpt lat="42.35854671363719" lon="13.734861099918557"><ele>1245.0</ele><time>2026-04-19T07:31:34Z</time></trkpt><trkpt lat="42.35849960735483" lon="13.734588289942842"><ele>1245.0</ele><time>2026-04-19T07:31:35Z</time></trkpt><trkpt lat="42.35845543842405" lon="13.734336739935168"><ele>1245.0</ele><time>2026-04-19T07:31:36Z</time></trkpt><trkpt lat="42.358462284140536" lon="13.73411587250456"><ele>1245.0</ele><time>2026-04-19T07:31:37Z</time></trkpt><trkpt lat="42.3584820780284" lon="13.733857844799747"><ele>1245.0</ele><time>2026-04-19T07:31:38Z</time></trkpt><trkpt lat="42.35852227015626" lon="13.733554503902164"><ele>1245.0</ele><time>2026-04-19T07:31:39Z</time></trkpt><trkpt lat="42.3585472834732" lon="13.733235307969082"><ele>1241.0</ele><time>2026-04-19T07:31:40Z</time></trkpt><trkpt lat="42.35858506341262" lon="13.732910329868831"><ele>1237.0</ele><time>2026-04-19T07:31:41Z</time></trkpt><trkpt lat="42.35860405320328" lon="13.732589239284932"><ele>1235.5</ele><time>2026-04-19T07:31:42Z</time></trkpt><trkpt lat="42.358597457045654" lon="13.732249868054634"><ele>1234.0</ele><time>2026-04-19T07:31:43Z</time></trkpt><trkpt lat="42.35857433027569" lon="13.731905431044646"><ele>1236.0</ele><time>2026-04-19T07:31:44Z</time></trkpt><trkpt lat="42.35857388134393" lon="13.731571914004556"><ele>1238.0</ele><time>2026-04-19T07:31:45Z</time></trkpt><trkpt lat="42.35856395106815" lon="13.731263575206984"><ele>1238.0</ele><time>2026-04-19T07:31:46Z</time></trkpt><trkpt lat="42.35855430940666" lon="13.730954500606634"><ele>1238.0</ele><time>2026-04-19T07:31:47Z</time></trkpt><trkpt lat="42.35854878625418" lon="13.73065966793568"><ele>1238.0</ele><time>2026-04-19T07:31:48Z</time></trkpt><trkpt lat="42.35855971706172" lon="13.7303958337653"><ele>1237.3333333333335</ele><time>2026-04-19T07:31:49Z</time></trkpt><trkpt lat="42.35859479991076" lon="13.73015229390253"><ele>1236.6666666666667</ele><time>2026-04-19T07:31:50Z</time></trkpt><trkpt lat="42.358649154440805" lon="13.729912522654985"><ele>1236.0</ele><time>2026-04-19T07:31:50.999Z</time></trkpt><trkpt lat="42.358729986792554" lon="13.729679916938817"><ele>1236.0</ele><time>2026-04-19T07:31:51.999Z</time></trkpt><trkpt lat="42.358837883142286" lon="13.729485525076516"><ele>1236.0</ele><time>2026-04-19T07:31:52.999Z</time></trkpt><trkpt lat="42.3589610166196" lon="13.729331138169591"><ele>1236.0</ele><time>2026-04-19T07:31:53.999Z</time></trkpt><trkpt lat="42.35910546406367" lon="13.729210661782215"><ele>1239.5</ele><time>2026-04-19T07:31:54.999Z</time></trkpt><trkpt lat="42.359228400386975" lon="13.729127740806804"><ele>1243.0</ele><time>2026-04-19T07:31:55.999Z</time></trkpt><trkpt lat="42.359328576480905" lon="13.729091960135083"><ele>1246.5</ele><time>2026-04-19T07:31:56.999Z</time></trkpt><trkpt lat="42.35944465483005" lon="13.729068657953595"><ele>1250.0</ele><time>2026-04-19T07:31:57.999Z</time></trkpt><trkpt lat="42.359579682043346" lon="13.729035491079172"><ele>1253.3333333333335</ele><time>2026-04-19T07:31:58.999Z</time></trkpt><trkpt lat="42.359727707443206" lon="13.729025844174249"><ele>1256.6666666666667</ele><time>2026-04-19T07:31:59.999Z</time></trkpt><trkpt lat="42.35988461525651" lon="13.729036987947335"><ele>1260.0</ele><time>2026-04-19T07:32:00.999Z</time></trkpt><trkpt lat="42.360038623773455" lon="13.729036119293523"><ele>1260.0</ele><time>2026-04-19T07:32:01.999Z</time></trkpt><trkpt lat="42.360164390050144" lon="13.72902104964385"><ele>1260.0</ele><time>2026-04-19T07:32:02.999Z</time></trkpt><trkpt lat="42.36027530526593" lon="13.729030202042866"><ele>1260.0</ele><time>2026-04-19T07:32:03.999Z</time></trkpt><trkpt lat="42.36037874383417" lon="13.729023692771225"><ele>1260.0</ele><time>2026-04-19T07:32:04.999Z</time></trkpt><trkpt lat="42.360477270702134" lon="13.729015027501145"><ele>1260.0</ele><time>2026-04-19T07:32:05.999Z</time></trkpt><trkpt lat="42.3605816471697" lon="13.729011955400297"><ele>1261.75</ele><time>2026-04-19T07:32:06.999Z</time></trkpt><trkpt lat="42.360697071939114" lon="13.729013888907222"><ele>1263.5</ele><time>2026-04-19T07:32:07.999Z</time></trkpt><trkpt lat="42.36082283132207" lon="13.729020197386415"><ele>1265.25</ele><time>2026-04-19T07:32:08.999Z</time></trkpt><trkpt lat="42.36095165196611" lon="13.729024533476586"><ele>1267.0</ele><time>2026-04-19T07:32:09.999Z</time></trkpt><trkpt lat="42.36108514970381" lon="13.729025656725765"><ele>1267.0</ele><time>2026-04-19T07:32:10.999Z</time></trkpt><trkpt lat="42.36122219918185" lon="13.729025059339214"><ele>1267.0</ele><time>2026-04-19T07:32:11.999Z</time></trkpt><trkpt lat="42.36135996819643" lon="13.72902335741827"><ele>1267.0</ele><time>2026-04-19T07:32:12.999Z</time></trkpt><trkpt lat="42.361499839905804" lon="13.72902546927716"><ele>1267.0</ele><time>2026-04-19T07:32:13.999Z</time></trkpt><trkpt lat="42.36164294676815" lon="13.72903668467673"><ele>1268.0</ele><time>2026-04-19T07:32:14.999Z</time></trkpt><trkpt lat="42.36178833409612" lon="13.729057502685249"><ele>1269.0</ele><time>2026-04-19T07:32:15.999Z</time></trkpt><trkpt lat="42.36193508300435" lon="13.72907823422134"><ele>1270.0</ele><time>2026-04-19T07:32:16.999Z</time></trkpt><trkpt lat="42.36208178584779" lon="13.729096569359461"><ele>1271.0</ele><time>2026-04-19T07:32:17.999Z</time></trkpt><trkpt lat="42.362227188888305" lon="13.72910966359059"><ele>1271.0</ele><time>2026-04-19T07:32:18.999Z</time></trkpt><trkpt lat="42.36236255556331" lon="13.729122308773155"><ele>1271.0</ele><time>2026-04-19T07:32:19.999Z</time></trkpt><trkpt lat="42.36249246930437" lon="13.729136706874604"><ele>1271.0</ele><time>2026-04-19T07:32:20.999Z</time></trkpt><trkpt lat="42.36261930393077" lon="13.72915618674413"><ele>1271.0</ele><time>2026-04-19T07:32:21.999Z</time></trkpt><trkpt lat="42.36274586974967" lon="13.729191292211349"><ele>1271.0</ele><time>2026-04-19T07:32:22.999Z</time></trkpt><trkpt lat="42.36287031751309" lon="13.729247033845413"><ele>1271.0</ele><time>2026-04-19T07:32:23.999Z</time></trkpt><trkpt lat="42.36297639012177" lon="13.729364001812284"><ele>1271.0</ele><time>2026-04-19T07:32:24.999Z</time></trkpt><trkpt lat="42.363085075932695" lon="13.72948614245184"><ele>1271.0</ele><time>2026-04-19T07:32:25.999Z</time></trkpt><trkpt lat="42.36317724226723" lon="13.729592073549174"><ele>1271.6666666666667</ele><time>2026-04-19T07:32:26.999Z</time></trkpt><trkpt lat="42.36323450547616" lon="13.7296833244117"><ele>1272.3333333333335</ele><time>2026-04-19T07:32:27.999Z</time></trkpt><trkpt lat="42.36328828685416" lon="13.729753202211258"><ele>1273.0</ele><time>2026-04-19T07:32:28.999Z</time></trkpt><trkpt lat="42.36333805528888" lon="13.729837879633212"><ele>1273.6666666666667</ele><time>2026-04-19T07:32:30.999Z</time></trkpt><trkpt lat="42.36344577868102" lon="13.729797228758198"><ele>1274.3333333333333</ele><time>2026-04-19T07:32:31.999Z</time></trkpt><trkpt lat="42.36345384433575" lon="13.729677299144198"><ele>1275.0</ele><time>2026-04-19T07:32:33.999Z</time></trkpt><trkpt lat="42.363565980786376" lon="13.729654516881082"><ele>1275.0</ele><time>2026-04-19T07:32:36.999Z</time></trkpt><trkpt lat="42.36362166030504" lon="13.729594620493883"><ele>1275.0</ele><time>2026-04-19T07:32:37.999Z</time></trkpt><trkpt lat="42.36365343973656" lon="13.72951990180829"><ele>1275.0</ele><time>2026-04-19T07:32:38.999Z</time></trkpt><trkpt lat="42.36364285984558" lon="13.729410116153831"><ele>1275.0</ele><time>2026-04-19T07:32:39.999Z</time></trkpt><trkpt lat="42.36363005380155" lon="13.7293183190922"><ele>1275.0</ele><time>2026-04-19T07:32:40.999Z</time></trkpt><trkpt lat="42.363578102866505" lon="13.729190078111149"><ele>1275.0</ele><time>2026-04-19T07:32:42.999Z</time></trkpt><trkpt lat="42.36358882558138" lon="13.729103108526393"><ele>1275.5</ele><time>2026-04-19T07:32:44.999Z</time></trkpt><trkpt lat="42.36368925369408" lon="13.72910433066748"><ele>1276.0</ele><time>2026-04-19T07:32:46.999Z</time></trkpt><trkpt lat="42.36381238273607" lon="13.72907982226355"><ele>1276.5</ele><time>2026-04-19T07:32:48.999Z</time></trkpt><trkpt lat="42.3638750195752" lon="13.729070048069481"><ele>1277.0</ele><time>2026-04-19T07:32:49.999Z</time></trkpt><trkpt lat="42.3639413738723" lon="13.729035565939093"><ele>1277.5</ele><time>2026-04-19T07:32:50.999Z</time></trkpt><trkpt lat="42.364000107539155" lon="13.728990972649592"><ele>1278.0</ele><time>2026-04-19T07:32:51.999Z</time></trkpt><trkpt lat="42.36405840087232" lon="13.728938356664477"><ele>1280.2857142857144</ele><time>2026-04-19T07:32:52.999Z</time></trkpt><trkpt lat="42.36411185278775" lon="13.728878389035126"><ele>1282.5714285714287</ele><time>2026-04-19T07:32:53.999Z</time></trkpt><trkpt lat="42.364173851087195" lon="13.728845572833652"><ele>1284.857142857143</ele><time>2026-04-19T07:32:54.999Z</time></trkpt><trkpt lat="42.364227561339725" lon="13.728795001551426"><ele>1287.1428571428573</ele><time>2026-04-19T07:32:55.999Z</time></trkpt><trkpt lat="42.36427932425546" lon="13.72874486076373"><ele>1289.4285714285716</ele><time>2026-04-19T07:32:56.999Z</time></trkpt><trkpt lat="42.36433435143262" lon="13.728691557716388"><ele>1291.7142857142858</ele><time>2026-04-19T07:32:57.999Z</time></trkpt><trkpt lat="42.36438989637392" lon="13.728635559898557"><ele>1294.0</ele><time>2026-04-19T07:32:58.999Z</time></trkpt><trkpt lat="42.36444722358806" lon="13.728576985199503"><ele>1296.6666666666665</ele><time>2026-04-19T07:32:59.999Z</time></trkpt><trkpt lat="42.36449263592547" lon="13.72850355512626"><ele>1299.3333333333333</ele><time>2026-04-19T07:33:00.999Z</time></trkpt><trkpt lat="42.36455752692665" lon="13.728458836077188"><ele>1302.0</ele><time>2026-04-19T07:33:01.999Z</time></trkpt><trkpt lat="42.36460929845746" lon="13.728407628196553"><ele>1304.6666666666667</ele><time>2026-04-19T07:33:02.999Z</time></trkpt><trkpt lat="42.36469292146066" lon="13.728299731794307"><ele>1307.3333333333335</ele><time>2026-04-19T07:33:04.999Z</time></trkpt><trkpt lat="42.36477402790445" lon="13.728276417493042"><ele>1310.0</ele><time>2026-04-19T07:33:06.999Z</time></trkpt><trkpt lat="42.364821659335355" lon="13.728396714954306"><ele>1312.5</ele><time>2026-04-19T07:33:08.999Z</time></trkpt><trkpt lat="42.36485790344155" lon="13.7284720426046"><ele>1315.0</ele><time>2026-04-19T07:33:09.999Z</time></trkpt><trkpt lat="42.36490696079912" lon="13.7285517277703"><ele>1317.5</ele><time>2026-04-19T07:33:10.999Z</time></trkpt><trkpt lat="42.36493322574282" lon="13.728659594960705"><ele>1320.0</ele><time>2026-04-19T07:33:11.999Z</time></trkpt><trkpt lat="42.36495211678382" lon="13.728761199135333"><ele>1322.5</ele><time>2026-04-19T07:33:12.999Z</time></trkpt><trkpt lat="42.36496425600917" lon="13.728861372390126"><ele>1325.0</ele><time>2026-04-19T07:33:13.999Z</time></trkpt><trkpt lat="42.36497108852519" lon="13.729010017230555"><ele>1325.0</ele><time>2026-04-19T07:33:16Z</time></trkpt><trkpt lat="42.36498167063314" lon="13.729107746242077"><ele>1325.0</ele><time>2026-04-19T07:33:19Z</time></trkpt><trkpt lat="42.36503481810911" lon="13.728903302481415"><ele>1325.0</ele><time>2026-04-19T07:33:25Z</time></trkpt><trkpt lat="42.36502280137663" lon="13.728746884627531"><ele>1325.0</ele><time>2026-04-19T07:33:26Z</time></trkpt><trkpt lat="42.365013582133486" lon="13.728599424598304"><ele>1325.8</ele><time>2026-04-19T07:33:27Z</time></trkpt><trkpt lat="42.365006180795206" lon="13.728448346962505"><ele>1326.6</ele><time>2026-04-19T07:33:28Z</time></trkpt><trkpt lat="42.36497382803019" lon="13.728305954521913"><ele>1327.4</ele><time>2026-04-19T07:33:29Z</time></trkpt><trkpt lat="42.36496588475132" lon="13.728159971110733"><ele>1328.2</ele><time>2026-04-19T07:33:30Z</time></trkpt><trkpt lat="42.36495627284264" lon="13.728018629513947"><ele>1329.0</ele><time>2026-04-19T07:33:31Z</time></trkpt><trkpt lat="42.36494998633278" lon="13.727900100815187"><ele>1329.0</ele><time>2026-04-19T07:33:32Z</time></trkpt><trkpt lat="42.36494758380511" lon="13.727799546114541"><ele>1329.0</ele><time>2026-04-19T07:33:33Z</time></trkpt><trkpt lat="42.364963947785434" lon="13.727707408850518"><ele>1329.0</ele><time>2026-04-19T07:33:34Z</time></trkpt><trkpt lat="42.36495659153735" lon="13.72760447428305"><ele>1329.0</ele><time>2026-04-19T07:33:35Z</time></trkpt><trkpt lat="42.36494692197118" lon="13.727502841132473"><ele>1329.0</ele><time>2026-04-19T07:33:36Z</time></trkpt><trkpt lat="42.364936558211966" lon="13.727400632190262"><ele>1329.0</ele><time>2026-04-19T07:33:37Z</time></trkpt><trkpt lat="42.36492595635368" lon="13.727247202840484"><ele>1329.8000000000002</ele><time>2026-04-19T07:33:39Z</time></trkpt><trkpt lat="42.36492539409015" lon="13.727157097050009"><ele>1330.6000000000001</ele><time>2026-04-19T07:34:14.999Z</time></trkpt><trkpt lat="42.36487559972585" lon="13.727222567592138"><ele>1331.4</ele><time>2026-04-19T07:42:47Z</time></trkpt><trkpt lat="42.36488431172731" lon="13.72708650847604"><ele>1332.2</ele><time>2026-04-19T07:45:35.999Z</time></trkpt><trkpt lat="42.364908625615556" lon="13.726941094287886"><ele>1333.0</ele><time>2026-04-19T07:45:37.999Z</time></trkpt><trkpt lat="42.36492777850995" lon="13.726798404664269"><ele>1333.0</ele><time>2026-04-19T07:45:39.999Z</time></trkpt><trkpt lat="42.36496316027172" lon="13.726708333947798"><ele>1333.0</ele><time>2026-04-19T07:45:41.999Z</time></trkpt><trkpt lat="42.36506396247618" lon="13.726649954472578"><ele>1333.0</ele><time>2026-04-19T07:45:43.999Z</time></trkpt><trkpt lat="42.36510910721616" lon="13.726587952397557"><ele>1333.0</ele><time>2026-04-19T07:45:44.999Z</time></trkpt><trkpt lat="42.365136256291365" lon="13.726488381677509"><ele>1333.0</ele><time>2026-04-19T07:45:45.999Z</time></trkpt><trkpt lat="42.36515798955776" lon="13.726394738605846"><ele>1333.0</ele><time>2026-04-19T07:45:46.999Z</time></trkpt><trkpt lat="42.365211669278445" lon="13.726319808066767"><ele>1333.0</ele><time>2026-04-19T07:45:47.999Z</time></trkpt><trkpt lat="42.365249320926104" lon="13.726234826886714"><ele>1333.0</ele><time>2026-04-19T07:45:48.999Z</time></trkpt><trkpt lat="42.36528404969678" lon="13.726156442895316"><ele>1333.0</ele><time>2026-04-19T07:45:49.999Z</time></trkpt><trkpt lat="42.36532018996549" lon="13.72607487317259"><ele>1333.0</ele><time>2026-04-19T07:45:50.999Z</time></trkpt><trkpt lat="42.36534049195456" lon="13.72597696211694"><ele>1333.0</ele><time>2026-04-19T07:45:51.999Z</time></trkpt><trkpt lat="42.36536811414166" lon="13.72586594253695"><ele>1333.0</ele><time>2026-04-19T07:45:52.999Z</time></trkpt><trkpt lat="42.36539605047187" lon="13.725754714133073"><ele>1331.3333333333333</ele><time>2026-04-19T07:45:53.999Z</time></trkpt><trkpt lat="42.36545204100722" lon="13.725708988316157"><ele>1329.6666666666665</ele><time>2026-04-19T07:45:54.999Z</time></trkpt><trkpt lat="42.36551705315338" lon="13.725640801319598"><ele>1328.0</ele><time>2026-04-19T07:45:55.999Z</time></trkpt><trkpt lat="42.36555753071993" lon="13.725552890427728"><ele>1326.3333333333333</ele><time>2026-04-19T07:45:56.999Z</time></trkpt><trkpt lat="42.36559520944712" lon="13.725471058306377"><ele>1324.6666666666667</ele><time>2026-04-19T07:45:57.999Z</time></trkpt><trkpt lat="42.36563891531061" lon="13.725376135931377"><ele>1323.0</ele><time>2026-04-19T07:45:58.999Z</time></trkpt><trkpt lat="42.36568119800356" lon="13.725284304666662"><ele>1324.3333333333333</ele><time>2026-04-19T07:45:59.999Z</time></trkpt><trkpt lat="42.365725147508655" lon="13.725188853353957"><ele>1325.6666666666667</ele><time>2026-04-19T07:46:00.999Z</time></trkpt><trkpt lat="42.3657714400964" lon="13.725088313224287"><ele>1327.0</ele><time>2026-04-19T07:46:01.999Z</time></trkpt><trkpt lat="42.36582001799863" lon="13.724982809676517"><ele>1328.3333333333335</ele><time>2026-04-19T07:46:02.999Z</time></trkpt><trkpt lat="42.3658640782259" lon="13.724887793493107"><ele>1329.6666666666667</ele><time>2026-04-19T07:46:03.999Z</time></trkpt><trkpt lat="42.36589315742345" lon="13.72478511209043"><ele>1331.0</ele><time>2026-04-19T07:46:04.999Z</time></trkpt><trkpt lat="42.36593924422468" lon="13.724700845148757"><ele>1331.0</ele><time>2026-04-19T07:46:05.999Z</time></trkpt><trkpt lat="42.36598095991485" lon="13.724614737382767"><ele>1331.0</ele><time>2026-04-19T07:46:06.999Z</time></trkpt><trkpt lat="42.36602554931796" lon="13.724520577938423"><ele>1331.0</ele><time>2026-04-19T07:46:07.999Z</time></trkpt><trkpt lat="42.36606766315836" lon="13.724421775384686"><ele>1331.0</ele><time>2026-04-19T07:46:08.999Z</time></trkpt><trkpt lat="42.36611032470236" lon="13.724330976083449"><ele>1331.0</ele><time>2026-04-19T07:46:09.999Z</time></trkpt><trkpt lat="42.36614917887858" lon="13.724249246659491"><ele>1331.0</ele><time>2026-04-19T07:46:10.999Z</time></trkpt><trkpt lat="42.36618569807185" lon="13.72416094519807"><ele>1332.3333333333335</ele><time>2026-04-19T07:46:11.999Z</time></trkpt><trkpt lat="42.36622130079316" lon="13.724079092343171"><ele>1333.6666666666667</ele><time>2026-04-19T07:46:12.999Z</time></trkpt><trkpt lat="42.366279529190166" lon="13.72395185247826"><ele>1335.0</ele><time>2026-04-19T07:46:14.999Z</time></trkpt><trkpt lat="42.36633305618627" lon="13.723835494474297"><ele>1336.3333333333333</ele><time>2026-04-19T07:46:16.999Z</time></trkpt><trkpt lat="42.36636906983536" lon="13.723706994436203"><ele>1337.6666666666665</ele><time>2026-04-19T07:46:18.999Z</time></trkpt><trkpt lat="42.36637298700386" lon="13.723621190822008"><ele>1339.0</ele><time>2026-04-19T07:46:19.999Z</time></trkpt><trkpt lat="42.36637373810233" lon="13.723527215997656"><ele>1339.0</ele><time>2026-04-19T07:46:20.999Z</time></trkpt><trkpt lat="42.36637093357258" lon="13.72342859752895"><ele>1339.0</ele><time>2026-04-19T07:46:21.999Z</time></trkpt><trkpt lat="42.36641156896433" lon="13.7233381037398"><ele>1339.0</ele><time>2026-04-19T07:46:22.999Z</time></trkpt><trkpt lat="42.366387130680266" lon="13.723233151030675"><ele>1339.0</ele><time>2026-04-19T07:46:23.999Z</time></trkpt><trkpt lat="42.36638056272738" lon="13.723128581630291"><ele>1339.0</ele><time>2026-04-19T07:46:24.999Z</time></trkpt><trkpt lat="42.36637091466063" lon="13.723017610472384"><ele>1339.0</ele><time>2026-04-19T07:46:25.999Z</time></trkpt><trkpt lat="42.366362829811294" lon="13.722904420768261"><ele>1339.0</ele><time>2026-04-19T07:46:26.999Z</time></trkpt><trkpt lat="42.366364151129034" lon="13.7227946565513"><ele>1339.0</ele><time>2026-04-19T07:46:27.999Z</time></trkpt><trkpt lat="42.36636817413479" lon="13.722683770351138"><ele>1339.0</ele><time>2026-04-19T07:46:28.999Z</time></trkpt><trkpt lat="42.36638840339897" lon="13.722560781464953"><ele>1339.0</ele><time>2026-04-19T07:46:29.999Z</time></trkpt><trkpt lat="42.36640850589168" lon="13.722446826589268"><ele>1339.0</ele><time>2026-04-19T07:46:30.999Z</time></trkpt><trkpt lat="42.36645787311874" lon="13.72234547903561"><ele>1339.0</ele><time>2026-04-19T07:46:31.999Z</time></trkpt><trkpt lat="42.36653356572801" lon="13.722264566580181"><ele>1337.8333333333333</ele><time>2026-04-19T07:46:32.999Z</time></trkpt><trkpt lat="42.36660362463247" lon="13.722180040752937"><ele>1336.6666666666665</ele><time>2026-04-19T07:46:33.999Z</time></trkpt><trkpt lat="42.36667565886556" lon="13.722112740887004"><ele>1335.5</ele><time>2026-04-19T07:46:34.999Z</time></trkpt><trkpt lat="42.36675002632809" lon="13.722050480439199"><ele>1334.3333333333333</ele><time>2026-04-19T07:46:35.999Z</time></trkpt><trkpt lat="42.36681870578486" lon="13.721994461070885"><ele>1333.1666666666667</ele><time>2026-04-19T07:46:36.999Z</time></trkpt><trkpt lat="42.36687589765525" lon="13.72193711098"><ele>1332.0</ele><time>2026-04-19T07:46:37.999Z</time></trkpt><trkpt lat="42.36696757598417" lon="13.72189168512514"><ele>1332.0</ele><time>2026-04-19T07:46:39.999Z</time></trkpt><trkpt lat="42.36704555769959" lon="13.721962105648586"><ele>1332.0</ele><time>2026-04-19T07:46:40.999Z</time></trkpt><trkpt lat="42.36712197935639" lon="13.722020044731456"><ele>1332.0</ele><time>2026-04-19T07:46:41.999Z</time></trkpt><trkpt lat="42.36720357123613" lon="13.722065553582635"><ele>1332.0</ele><time>2026-04-19T07:46:42.999Z</time></trkpt><trkpt lat="42.367285097977245" lon="13.722067616584448"><ele>1332.0</ele><time>2026-04-19T07:46:43.999Z</time></trkpt><trkpt lat="42.36737083850782" lon="13.722041772338207"><ele>1332.0</ele><time>2026-04-19T07:46:44.999Z</time></trkpt><trkpt lat="42.367434642084525" lon="13.721926229087122"><ele>1331.5</ele><time>2026-04-19T07:46:45.999Z</time></trkpt><trkpt lat="42.36748574975275" lon="13.721825740928793"><ele>1331.0</ele><time>2026-04-19T07:46:46.999Z</time></trkpt><trkpt lat="42.36748408603459" lon="13.721686780046499"><ele>1330.5</ele><time>2026-04-19T07:46:47.999Z</time></trkpt><trkpt lat="42.36742731496927" lon="13.721527833423666"><ele>1330.0</ele><time>2026-04-19T07:46:48.999Z</time></trkpt><trkpt lat="42.367394532341656" lon="13.721350500781464"><ele>1330.0</ele><time>2026-04-19T07:46:49.999Z</time></trkpt><trkpt lat="42.36734679764745" lon="13.721156522925401"><ele>1330.0</ele><time>2026-04-19T07:46:50.999Z</time></trkpt><trkpt lat="42.36730254046264" lon="13.720974594880014"><ele>1330.0</ele><time>2026-04-19T07:46:51.999Z</time></trkpt><trkpt lat="42.36725908760207" lon="13.720795569153157"><ele>1330.0</ele><time>2026-04-19T07:46:52.999Z</time></trkpt><trkpt lat="42.36721759530819" lon="13.720620929272249"><ele>1327.5</ele><time>2026-04-19T07:46:53.999Z</time></trkpt><trkpt lat="42.36717714880319" lon="13.720450101142868"><ele>1325.0</ele><time>2026-04-19T07:46:54.999Z</time></trkpt><trkpt lat="42.367134126340964" lon="13.720275656960748"><ele>1322.5</ele><time>2026-04-19T07:46:55.999Z</time></trkpt><trkpt lat="42.367091801218294" lon="13.720107084289351"><ele>1320.0</ele><time>2026-04-19T07:46:56.999Z</time></trkpt><trkpt lat="42.367049359169464" lon="13.719919093340755"><ele>1320.0</ele><time>2026-04-19T07:46:57.999Z</time></trkpt><trkpt lat="42.367016894730675" lon="13.719706416337573"><ele>1320.0</ele><time>2026-04-19T07:46:58.999Z</time></trkpt><trkpt lat="42.36700769337735" lon="13.719472431802274"><ele>1320.0</ele><time>2026-04-19T07:46:59.999Z</time></trkpt><trkpt lat="42.367011553588036" lon="13.719233177765966"><ele>1322.0</ele><time>2026-04-19T07:47:00.999Z</time></trkpt><trkpt lat="42.367025106217895" lon="13.718990132589457"><ele>1324.0</ele><time>2026-04-19T07:47:01.999Z</time></trkpt><trkpt lat="42.367041468726825" lon="13.718746776732132"><ele>1326.0</ele><time>2026-04-19T07:47:02.999Z</time></trkpt><trkpt lat="42.36705668676072" lon="13.718513903430857"><ele>1327.3333333333333</ele><time>2026-04-19T07:47:03.999Z</time></trkpt><trkpt lat="42.367068956626916" lon="13.71827917020683"><ele>1328.6666666666665</ele><time>2026-04-19T07:47:04.999Z</time></trkpt><trkpt lat="42.36708053114714" lon="13.71805773974026"><ele>1330.0</ele><time>2026-04-19T07:47:05.999Z</time></trkpt><trkpt lat="42.3670905746843" lon="13.717860360713061"><ele>1331.4</ele><time>2026-04-19T07:47:06.999Z</time></trkpt><trkpt lat="42.367099194290404" lon="13.717686363861892"><ele>1332.8</ele><time>2026-04-19T07:47:07.999Z</time></trkpt><trkpt lat="42.36710637838896" lon="13.717528067192223"><ele>1334.1999999999998</ele><time>2026-04-19T07:47:08.999Z</time></trkpt><trkpt lat="42.36711143812025" lon="13.71739156799617"><ele>1335.6</ele><time>2026-04-19T07:47:09.999Z</time></trkpt><trkpt lat="42.36711938190051" lon="13.717276302975913"><ele>1337.0</ele><time>2026-04-19T07:47:10.999Z</time></trkpt><trkpt lat="42.367131757198784" lon="13.717186610210511"><ele>1337.0</ele><time>2026-04-19T07:47:11.999Z</time></trkpt><trkpt lat="42.36718107806186" lon="13.717086464705506"><ele>1337.0</ele><time>2026-04-19T07:47:13.999Z</time></trkpt><trkpt lat="42.36724894600908" lon="13.71706241932751"><ele>1337.0</ele><time>2026-04-19T07:47:15.999Z</time></trkpt><trkpt lat="42.36723704647681" lon="13.716969147131282"><ele>1337.0</ele><time>2026-04-19T07:47:16.999Z</time></trkpt><trkpt lat="42.367151328245576" lon="13.716896589445385"><ele>1337.0</ele><time>2026-04-19T07:47:17.999Z</time></trkpt><trkpt lat="42.36722873081621" lon="13.716879307737942"><ele>1337.0</ele><time>2026-04-19T07:47:18.999Z</time></trkpt><trkpt lat="42.36720891067012" lon="13.71677347986994"><ele>1338.75</ele><time>2026-04-19T07:47:21.999Z</time></trkpt><trkpt lat="42.367185984539" lon="13.71659270848971"><ele>1340.5</ele><time>2026-04-19T07:47:55.998Z</time></trkpt><trkpt lat="42.36720021636201" lon="13.71647289630875"><ele>1342.25</ele><time>2026-04-19T07:47:56.998Z</time></trkpt><trkpt lat="42.36720490937631" lon="13.716317537428443"><ele>1344.0</ele><time>2026-04-19T07:47:57.998Z</time></trkpt><trkpt lat="42.36721803876794" lon="13.716155914509022"><ele>1351.3333333333333</ele><time>2026-04-19T07:47:58.998Z</time></trkpt><trkpt lat="42.36724120333771" lon="13.715968910587579"><ele>1358.6666666666665</ele><time>2026-04-19T07:47:59.998Z</time></trkpt><trkpt lat="42.36727143035017" lon="13.715739689791008"><ele>1366.0</ele><time>2026-04-19T07:48:00.998Z</time></trkpt><trkpt lat="42.36728601582107" lon="13.715491590914523"><ele>1366.0</ele><time>2026-04-19T07:48:01.998Z</time></trkpt><trkpt lat="42.367320155827684" lon="13.71524591660009"><ele>1366.0</ele><time>2026-04-19T07:48:02.998Z</time></trkpt><trkpt lat="42.36735151805723" lon="13.715013823249562"><ele>1366.0</ele><time>2026-04-19T07:48:03.998Z</time></trkpt><trkpt lat="42.36737337867439" lon="13.714790521785057"><ele>1366.0</ele><time>2026-04-19T07:48:04.998Z</time></trkpt><trkpt lat="42.367390718703334" lon="13.714584073726257"><ele>1366.0</ele><time>2026-04-19T07:48:05.998Z</time></trkpt><trkpt lat="42.3674284035439" lon="13.714383190115791"><ele>1366.0</ele><time>2026-04-19T07:48:06.998Z</time></trkpt><trkpt lat="42.367475955508965" lon="13.71416215495064"><ele>1366.3333333333333</ele><time>2026-04-19T07:48:07.998Z</time></trkpt><trkpt lat="42.367536544672056" lon="13.713926178529483"><ele>1366.6666666666667</ele><time>2026-04-19T07:48:08.998Z</time></trkpt><trkpt lat="42.367606463717166" lon="13.713667470250412"><ele>1367.0</ele><time>2026-04-19T07:48:09.998Z</time></trkpt><trkpt lat="42.3676713174226" lon="13.713424909352202"><ele>1367.0</ele><time>2026-04-19T07:48:10.998Z</time></trkpt><trkpt lat="42.367749839125665" lon="13.713190120812413"><ele>1367.0</ele><time>2026-04-19T07:48:11.998Z</time></trkpt><trkpt lat="42.36781295759153" lon="13.71296429910913"><ele>1367.0</ele><time>2026-04-19T07:48:12.999Z</time></trkpt><trkpt lat="42.36786864205631" lon="13.712765074284247"><ele>1370.6666666666667</ele><time>2026-04-19T07:48:13.999Z</time></trkpt><trkpt lat="42.36790787709535" lon="13.712560136882283"><ele>1374.3333333333333</ele><time>2026-04-19T07:48:14.999Z</time></trkpt><trkpt lat="42.367971721384436" lon="13.712347236963376"><ele>1378.0</ele><time>2026-04-19T07:48:15.999Z</time></trkpt><trkpt lat="42.368040783024" lon="13.712135425333285"><ele>1378.25</ele><time>2026-04-19T07:48:16.999Z</time></trkpt><trkpt lat="42.368107352407684" lon="13.711957150057032"><ele>1378.5</ele><time>2026-04-19T07:48:17.999Z</time></trkpt><trkpt lat="42.36817256382003" lon="13.711802620721677"><ele>1378.75</ele><time>2026-04-19T07:48:18.999Z</time></trkpt><trkpt lat="42.3682409851656" lon="13.711650017558506"><ele>1379.0</ele><time>2026-04-19T07:48:19.999Z</time></trkpt><trkpt lat="42.368309461844646" lon="13.711497725553391"><ele>1379.0</ele><time>2026-04-19T07:48:20.999Z</time></trkpt><trkpt lat="42.3683777315626" lon="13.711349847757589"><ele>1379.0</ele><time>2026-04-19T07:48:21.999Z</time></trkpt><trkpt lat="42.368447525938166" lon="13.711208160021775"><ele>1379.0</ele><time>2026-04-19T07:48:22.999Z</time></trkpt><trkpt lat="42.368527622227816" lon="13.711072956342994"><ele>1379.0</ele><time>2026-04-19T07:48:23.999Z</time></trkpt><trkpt lat="42.368629441900545" lon="13.71096807935406"><ele>1377.5</ele><time>2026-04-19T07:48:24.999Z</time></trkpt><trkpt lat="42.368708378648414" lon="13.710834788739447"><ele>1376.0</ele><time>2026-04-19T07:48:25.999Z</time></trkpt><trkpt lat="42.36880150886977" lon="13.710727588101937"><ele>1374.5</ele><time>2026-04-19T07:48:26.999Z</time></trkpt><trkpt lat="42.36888559252252" lon="13.710613136746984"><ele>1373.0</ele><time>2026-04-19T07:48:27.999Z</time></trkpt><trkpt lat="42.36898020540152" lon="13.710502101442074"><ele>1374.8000000000002</ele><time>2026-04-19T07:48:28.999Z</time></trkpt><trkpt lat="42.36907315947416" lon="13.710386434277632"><ele>1376.6</ele><time>2026-04-19T07:48:29.999Z</time></trkpt><trkpt lat="42.369170372464104" lon="13.710298603259721"><ele>1378.4</ele><time>2026-04-19T07:48:30.999Z</time></trkpt><trkpt lat="42.36925044408439" lon="13.71023039318646"><ele>1380.1999999999998</ele><time>2026-04-19T07:48:31.999Z</time></trkpt><trkpt lat="42.36933328975292" lon="13.710171490261635"><ele>1382.0</ele><time>2026-04-19T07:48:32.999Z</time></trkpt><trkpt lat="42.36942835099467" lon="13.710144053876775"><ele>1382.0</ele><time>2026-04-19T07:48:33.999Z</time></trkpt><trkpt lat="42.36952653826087" lon="13.710131253982988"><ele>1382.0</ele><time>2026-04-19T07:48:34.999Z</time></trkpt><trkpt lat="42.36961923526442" lon="13.710118522564711"><ele>1382.0</ele><time>2026-04-19T07:48:35.999Z</time></trkpt><trkpt lat="42.36969576840715" lon="13.710083026849796"><ele>1382.0</ele><time>2026-04-19T07:48:36.999Z</time></trkpt><trkpt lat="42.36976749401402" lon="13.710015988441803"><ele>1382.0</ele><time>2026-04-19T07:48:37.999Z</time></trkpt><trkpt lat="42.369828322785054" lon="13.709919995904944"><ele>1384.1999999999998</ele><time>2026-04-19T07:48:38.999Z</time></trkpt><trkpt lat="42.369872316159665" lon="13.709803156407274"><ele>1386.4</ele><time>2026-04-19T07:48:39.999Z</time></trkpt><trkpt lat="42.36990111909929" lon="13.709671651979347"><ele>1388.6</ele><time>2026-04-19T07:48:40.999Z</time></trkpt><trkpt lat="42.36992021579484" lon="13.709533157509162"><ele>1390.8000000000002</ele><time>2026-04-19T07:48:41.999Z</time></trkpt><trkpt lat="42.3699361239865" lon="13.709394401800234"><ele>1393.0</ele><time>2026-04-19T07:48:42.999Z</time></trkpt><trkpt lat="42.369959493977824" lon="13.70926130898663"><ele>1393.0</ele><time>2026-04-19T07:48:43.999Z</time></trkpt><trkpt lat="42.369968435680086" lon="13.709130943330061"><ele>1393.0</ele><time>2026-04-19T07:48:44.999Z</time></trkpt><trkpt lat="42.36998380597611" lon="13.70900461604604"><ele>1393.0</ele><time>2026-04-19T07:48:45.999Z</time></trkpt><trkpt lat="42.36999461719991" lon="13.708874852981555"><ele>1393.0</ele><time>2026-04-19T07:48:46.999Z</time></trkpt><trkpt lat="42.370026135420495" lon="13.708746442908723"><ele>1393.0</ele><time>2026-04-19T07:48:47.999Z</time></trkpt><trkpt lat="42.3700583776492" lon="13.708622697208973"><ele>1393.4</ele><time>2026-04-19T07:48:48.999Z</time></trkpt><trkpt lat="42.370113195360055" lon="13.708514249902422"><ele>1393.8000000000002</ele><time>2026-04-19T07:48:49.999Z</time></trkpt><trkpt lat="42.37013462417422" lon="13.7083872384374"><ele>1394.2</ele><time>2026-04-19T07:48:50.999Z</time></trkpt><trkpt lat="42.37016318113972" lon="13.708266571609967"><ele>1394.6</ele><time>2026-04-19T07:48:51.999Z</time></trkpt><trkpt lat="42.370193700787894" lon="13.708149090530599"><ele>1395.0</ele><time>2026-04-19T07:48:52.999Z</time></trkpt><trkpt lat="42.37019756768834" lon="13.708021006802785"><ele>1395.0</ele><time>2026-04-19T07:48:53.999Z</time></trkpt><trkpt lat="42.370173244496776" lon="13.707899003453251"><ele>1395.0</ele><time>2026-04-19T07:48:54.999Z</time></trkpt><trkpt lat="42.37015424136419" lon="13.70777163313346"><ele>1395.0</ele><time>2026-04-19T07:48:55.999Z</time></trkpt><trkpt lat="42.37014133888046" lon="13.70762447023579"><ele>1395.0</ele><time>2026-04-19T07:48:56.999Z</time></trkpt><trkpt lat="42.370112684860885" lon="13.70747683685515"><ele>1395.0</ele><time>2026-04-19T07:48:57.999Z</time></trkpt><trkpt lat="42.37008502446516" lon="13.70733194610975"><ele>1395.6</ele><time>2026-04-19T07:48:58.999Z</time></trkpt><trkpt lat="42.370062355508225" lon="13.707190513576606"><ele>1396.2</ele><time>2026-04-19T07:48:59.999Z</time></trkpt><trkpt lat="42.37004689319808" lon="13.707055681269853"><ele>1396.8000000000002</ele><time>2026-04-19T07:49:00.999Z</time></trkpt><trkpt lat="42.370046876364036" lon="13.706925625076844"><ele>1397.4</ele><time>2026-04-19T07:49:01.999Z</time></trkpt><trkpt lat="42.37006283667047" lon="13.706798159408628"><ele>1398.0</ele><time>2026-04-19T07:49:02.999Z</time></trkpt><trkpt lat="42.3700746816205" lon="13.706677718480664"><ele>1398.3333333333333</ele><time>2026-04-19T07:49:03.999Z</time></trkpt><trkpt lat="42.37011056365432" lon="13.706580346006064"><ele>1398.6666666666667</ele><time>2026-04-19T07:49:04.999Z</time></trkpt><trkpt lat="42.37015365333166" lon="13.70650419866415"><ele>1399.0</ele><time>2026-04-19T07:49:05.999Z</time></trkpt><trkpt lat="42.37021936327395" lon="13.706457085407965"><ele>1399.3333333333335</ele><time>2026-04-19T07:49:06.999Z</time></trkpt><trkpt lat="42.37027309558192" lon="13.706381202735123"><ele>1399.6666666666667</ele><time>2026-04-19T07:49:07.999Z</time></trkpt><trkpt lat="42.37034433167315" lon="13.706317255791783"><ele>1400.0</ele><time>2026-04-19T07:49:08.999Z</time></trkpt><trkpt lat="42.370419997210426" lon="13.706247491031464"><ele>1400.0</ele><time>2026-04-19T07:49:09.999Z</time></trkpt><trkpt lat="42.37049899415271" lon="13.70617554742165"><ele>1400.0</ele><time>2026-04-19T07:49:10.999Z</time></trkpt><trkpt lat="42.370587345999986" lon="13.70609815790357"><ele>1400.0</ele><time>2026-04-19T07:49:11.999Z</time></trkpt><trkpt lat="42.370671982927966" lon="13.706016826447659"><ele>1400.0</ele><time>2026-04-19T07:49:12.999Z</time></trkpt><trkpt lat="42.37075592714061" lon="13.70593303983815"><ele>1400.0</ele><time>2026-04-19T07:49:13.999Z</time></trkpt><trkpt lat="42.3708398653093" lon="13.705857223076153"><ele>1400.6666666666667</ele><time>2026-04-19T07:49:14.999Z</time></trkpt><trkpt lat="42.37092912842699" lon="13.705786097271051"><ele>1401.3333333333335</ele><time>2026-04-19T07:49:15.999Z</time></trkpt><trkpt lat="42.37101244092979" lon="13.705727845925725"><ele>1402.0</ele><time>2026-04-19T07:49:16.999Z</time></trkpt><trkpt lat="42.371081691511925" lon="13.705682543367894"><ele>1402.6666666666667</ele><time>2026-04-19T07:49:17.999Z</time></trkpt><trkpt lat="42.37115039971136" lon="13.705676432311384"><ele>1403.3333333333333</ele><time>2026-04-19T07:49:18.999Z</time></trkpt><trkpt lat="42.37122165506378" lon="13.705642948358303"><ele>1404.0</ele><time>2026-04-19T07:49:19.999Z</time></trkpt><trkpt lat="42.37128920592683" lon="13.705665098937846"><ele>1403.8000000000002</ele><time>2026-04-19T07:49:20.999Z</time></trkpt><trkpt lat="42.3713744604497" lon="13.70565415880559"><ele>1403.6000000000001</ele><time>2026-04-19T07:49:21.999Z</time></trkpt><trkpt lat="42.37146107557307" lon="13.705643044155545"><ele>1403.4</ele><time>2026-04-19T07:49:22.999Z</time></trkpt><trkpt lat="42.37154253875613" lon="13.705632590487122"><ele>1403.2</ele><time>2026-04-19T07:49:23.999Z</time></trkpt><trkpt lat="42.3716084520124" lon="13.705616125095517"><ele>1403.0</ele><time>2026-04-19T07:49:24.999Z</time></trkpt><trkpt lat="42.37181173610894" lon="13.705600339767662"><ele>1403.0</ele><time>2026-04-19T07:49:28.999Z</time></trkpt><trkpt lat="42.371878094963975" lon="13.705577472645247"><ele>1403.0</ele><time>2026-04-19T07:49:29.999Z</time></trkpt><trkpt lat="42.37201709918029" lon="13.70556436394463"><ele>1403.0</ele><time>2026-04-19T07:49:30.999Z</time></trkpt><trkpt lat="42.372260619899954" lon="13.705376448641742"><ele>1404.3333333333335</ele><time>2026-04-19T07:49:31.999Z</time></trkpt><trkpt lat="42.37232337236738" lon="13.705271114256915"><ele>1405.6666666666667</ele><time>2026-04-19T07:49:32.999Z</time></trkpt><trkpt lat="42.3723606737606" lon="13.705152819460604"><ele>1407.0</ele><time>2026-04-19T07:49:33.999Z</time></trkpt><trkpt lat="42.372392441158695" lon="13.705075951645727"><ele>1408.3333333333333</ele><time>2026-04-19T07:49:35.999Z</time></trkpt><trkpt lat="42.37243958086981" lon="13.704995490469553"><ele>1409.6666666666665</ele><time>2026-04-19T07:49:37.999Z</time></trkpt><trkpt lat="42.37248947329476" lon="13.704929307274197"><ele>1411.0</ele><time>2026-04-19T07:49:39.999Z</time></trkpt><trkpt lat="42.37256464779323" lon="13.704875322015488"><ele>1411.0</ele><time>2026-04-19T07:49:40.999Z</time></trkpt><trkpt lat="42.372623650795944" lon="13.704842627108288"><ele>1411.0</ele><time>2026-04-19T07:49:41.999Z</time></trkpt><trkpt lat="42.37273023817768" lon="13.704820672857709"><ele>1411.0</ele><time>2026-04-19T07:49:43.999Z</time></trkpt><trkpt lat="42.37280452108734" lon="13.704838455404433"><ele>1411.0</ele><time>2026-04-19T07:49:45.999Z</time></trkpt><trkpt lat="42.37289300699717" lon="13.704859346050293"><ele>1411.0</ele><time>2026-04-19T07:49:47.999Z</time></trkpt><trkpt lat="42.372991146328566" lon="13.704913320240252"><ele>1411.0</ele><time>2026-04-19T07:49:50.999Z</time></trkpt><trkpt lat="42.373075541040734" lon="13.704960364472274"><ele>1410.75</ele><time>2026-04-19T07:49:52.999Z</time></trkpt><trkpt lat="42.37315077719108" lon="13.705012774164345"><ele>1410.5</ele><time>2026-04-19T07:49:54.999Z</time></trkpt><trkpt lat="42.373240951516486" lon="13.705083548964819"><ele>1410.25</ele><time>2026-04-19T07:49:56.999Z</time></trkpt><trkpt lat="42.373344521189786" lon="13.705090053294336"><ele>1410.0</ele><time>2026-04-19T07:49:58.999Z</time></trkpt><trkpt lat="42.373727435182154" lon="13.704275819636461"><ele>1407.0</ele><time>2026-04-19T07:50:00.999Z</time></trkpt><trkpt lat="42.37373239485801" lon="13.704110250464923"><ele>1404.0</ele><time>2026-04-19T07:50:02.999Z</time></trkpt><trkpt lat="42.3736370764953" lon="13.704010396934235"><ele>1401.0</ele><time>2026-04-19T07:50:04.999Z</time></trkpt><trkpt lat="42.3735750942739" lon="13.703990083710137"><ele>1398.0</ele><time>2026-04-19T07:50:05.999Z</time></trkpt><trkpt lat="42.37350253209739" lon="13.703980392058412"><ele>1395.0</ele><time>2026-04-19T07:50:06.999Z</time></trkpt><trkpt lat="42.37342840193829" lon="13.703970860630283"><ele>1395.0</ele><time>2026-04-19T07:50:07.999Z</time></trkpt><trkpt lat="42.373354130164934" lon="13.703961313576595"><ele>1395.0</ele><time>2026-04-19T07:50:08.999Z</time></trkpt><trkpt lat="42.37328404224081" lon="13.703953302141114"><ele>1395.0</ele><time>2026-04-19T07:50:09.999Z</time></trkpt><trkpt lat="42.373216299067415" lon="13.703938595516956"><ele>1395.0</ele><time>2026-04-19T07:50:10.999Z</time></trkpt><trkpt lat="42.37314852934725" lon="13.70391905597245"><ele>1395.0</ele><time>2026-04-19T07:50:11.999Z</time></trkpt><trkpt lat="42.37308291247596" lon="13.703893435806796"><ele>1395.0</ele><time>2026-04-19T07:50:12.999Z</time></trkpt><trkpt lat="42.3730216614804" lon="13.703852996579649"><ele>1395.0</ele><time>2026-04-19T07:50:13.999Z</time></trkpt><trkpt lat="42.372965621653364" lon="13.703794655609387"><ele>1395.3333333333333</ele><time>2026-04-19T07:50:14.999Z</time></trkpt><trkpt lat="42.37291979499247" lon="13.703722295726129"><ele>1395.6666666666667</ele><time>2026-04-19T07:50:15.999Z</time></trkpt><trkpt lat="42.37288541955466" lon="13.70363842984667"><ele>1396.0</ele><time>2026-04-19T07:50:16.999Z</time></trkpt><trkpt lat="42.372858998041195" lon="13.703556670544275"><ele>1396.3333333333335</ele><time>2026-04-19T07:50:17.999Z</time></trkpt><trkpt lat="42.37284238726309" lon="13.70347015483875"><ele>1396.6666666666667</ele><time>2026-04-19T07:50:18.999Z</time></trkpt><trkpt lat="42.37284116341133" lon="13.703310696461541"><ele>1397.0</ele><time>2026-04-19T07:50:20.999Z</time></trkpt><trkpt lat="42.37286327161887" lon="13.703178195680671"><ele>1396.0</ele><time>2026-04-19T07:50:22.999Z</time></trkpt><trkpt lat="42.37287437117568" lon="13.703080717366523"><ele>1395.0</ele><time>2026-04-19T07:50:24.999Z</time></trkpt><trkpt lat="42.37293611845977" lon="13.703057555728526"><ele>1394.0</ele><time>2026-04-19T07:50:33.999Z</time></trkpt><trkpt lat="42.372896532976476" lon="13.703177546025866"><ele>1393.0</ele><time>2026-04-19T08:10:12Z</time></trkpt><trkpt lat="42.37286474546582" lon="13.703272635391915"><ele>1392.0</ele><time>2026-04-19T08:10:13Z</time></trkpt><trkpt lat="42.372846228315126" lon="13.70336524796523"><ele>1391.0</ele><time>2026-04-19T08:10:14Z</time></trkpt><trkpt lat="42.37285312694442" lon="13.703512733996327"><ele>1391.5714285714284</ele><time>2026-04-19T08:10:16Z</time></trkpt><trkpt lat="42.37287377521886" lon="13.703594296461112"><ele>1392.1428571428573</ele><time>2026-04-19T08:10:17Z</time></trkpt><trkpt lat="42.37290543433192" lon="13.703673822161708"><ele>1392.7142857142858</ele><time>2026-04-19T08:10:18Z</time></trkpt><trkpt lat="42.372947517724974" lon="13.703751903198164"><ele>1393.2857142857142</ele><time>2026-04-19T08:10:19Z</time></trkpt><trkpt lat="42.37299479173482" lon="13.703816787322479"><ele>1393.8571428571427</ele><time>2026-04-19T08:10:20Z</time></trkpt><trkpt lat="42.37304612041725" lon="13.703866540391164"><ele>1394.4285714285716</ele><time>2026-04-19T08:10:21Z</time></trkpt><trkpt lat="42.37310449097269" lon="13.703902589649015"><ele>1395.0</ele><time>2026-04-19T08:10:22Z</time></trkpt><trkpt lat="42.37317155119367" lon="13.703927885242473"><ele>1395.0</ele><time>2026-04-19T08:10:23Z</time></trkpt><trkpt lat="42.3732466470609" lon="13.70394309021809"><ele>1395.0</ele><time>2026-04-19T08:10:24Z</time></trkpt><trkpt lat="42.373342613628665" lon="13.703959274977409"><ele>1395.0</ele><time>2026-04-19T08:10:25Z</time></trkpt><trkpt lat="42.373436764834985" lon="13.703976208070204"><ele>1395.0</ele><time>2026-04-19T08:10:26Z</time></trkpt><trkpt lat="42.37352237649265" lon="13.703987571320623"><ele>1395.0</ele><time>2026-04-19T08:10:27Z</time></trkpt><trkpt lat="42.37359508914679" lon="13.704003729314556"><ele>1395.0</ele><time>2026-04-19T08:10:28Z</time></trkpt><trkpt lat="42.373663547925325" lon="13.704035891134021"><ele>1395.0</ele><time>2026-04-19T08:10:29Z</time></trkpt><trkpt lat="42.37371499622673" lon="13.70409264575827"><ele>1395.0</ele><time>2026-04-19T08:10:30Z</time></trkpt><trkpt lat="42.37373111220321" lon="13.704252626023177"><ele>1395.0</ele><time>2026-04-19T08:10:32Z</time></trkpt><trkpt lat="42.37369814419655" lon="13.704328697714907"><ele>1395.0</ele><time>2026-04-19T08:10:33Z</time></trkpt><trkpt lat="42.37364678302088" lon="13.704382921518485"><ele>1395.0</ele><time>2026-04-19T08:10:34Z</time></trkpt><trkpt lat="42.373586230202754" lon="13.704411753715991"><ele>1395.0</ele><time>2026-04-19T08:10:35Z</time></trkpt><trkpt lat="42.37346392399739" lon="13.704408814785081"><ele>1395.0</ele><time>2026-04-19T08:10:37Z</time></trkpt><trkpt lat="42.373403953055735" lon="13.70438207250322"><ele>1395.0</ele><time>2026-04-19T08:10:38Z</time></trkpt><trkpt lat="42.373343202871915" lon="13.704340959579564"><ele>1395.0</ele><time>2026-04-19T08:10:39Z</time></trkpt><trkpt lat="42.373273981547264" lon="13.704307873444721"><ele>1395.0</ele><time>2026-04-19T08:10:40Z</time></trkpt><trkpt lat="42.37319496007141" lon="13.704284214029919"><ele>1395.0</ele><time>2026-04-19T08:10:41Z</time></trkpt><trkpt lat="42.373105876205315" lon="13.704263285666723"><ele>1395.0</ele><time>2026-04-19T08:10:42Z</time></trkpt><trkpt lat="42.37301832566721" lon="13.70424534360291"><ele>1395.6666666666667</ele><time>2026-04-19T08:10:43Z</time></trkpt><trkpt lat="42.372920570052635" lon="13.704242671510645"><ele>1396.3333333333335</ele><time>2026-04-19T08:10:44Z</time></trkpt><trkpt lat="42.372735985594296" lon="13.704274626753454"><ele>1397.0</ele><time>2026-04-19T08:10:46Z</time></trkpt><trkpt lat="42.37255507370492" lon="13.704326908289028"><ele>1397.0</ele><time>2026-04-19T08:10:48Z</time></trkpt><trkpt lat="42.37246430478532" lon="13.704373070636418"><ele>1397.0</ele><time>2026-04-19T08:10:49Z</time></trkpt><trkpt lat="42.372384356278374" lon="13.704430227158468"><ele>1397.0</ele><time>2026-04-19T08:10:50Z</time></trkpt><trkpt lat="42.37230470842042" lon="13.704498651309157"><ele>1397.0</ele><time>2026-04-19T08:10:51Z</time></trkpt><trkpt lat="42.372228149197795" lon="13.704566890768499"><ele>1397.0</ele><time>2026-04-19T08:10:52Z</time></trkpt><trkpt lat="42.37215523905096" lon="13.704635258783732"><ele>1398.3999999999999</ele><time>2026-04-19T08:10:53Z</time></trkpt><trkpt lat="42.37208239673816" lon="13.704709290120903"><ele>1399.8</ele><time>2026-04-19T08:10:54Z</time></trkpt><trkpt lat="42.372009340569974" lon="13.704787671028114"><ele>1401.2</ele><time>2026-04-19T08:10:55Z</time></trkpt><trkpt lat="42.37193050646572" lon="13.704863485995388"><ele>1402.6</ele><time>2026-04-19T08:10:56Z</time></trkpt><trkpt lat="42.371855977987636" lon="13.70493450228885"><ele>1404.0</ele><time>2026-04-19T08:10:57Z</time></trkpt><trkpt lat="42.3717778199514" lon="13.705013688645895"><ele>1404.0</ele><time>2026-04-19T08:10:58Z</time></trkpt><trkpt lat="42.37169148002658" lon="13.705093200269598"><ele>1404.0</ele><time>2026-04-19T08:10:59Z</time></trkpt><trkpt lat="42.37159940907447" lon="13.705171987565864"><ele>1404.0</ele><time>2026-04-19T08:11:00Z</time></trkpt><trkpt lat="42.37150434714217" lon="13.70525606066541"><ele>1404.0</ele><time>2026-04-19T08:11:01Z</time></trkpt><trkpt lat="42.371411343470356" lon="13.705343646566456"><ele>1404.0</ele><time>2026-04-19T08:11:02Z</time></trkpt><trkpt lat="42.37133807340412" lon="13.705414666079305"><ele>1404.0</ele><time>2026-04-19T08:11:03Z</time></trkpt><trkpt lat="42.37127660696215" lon="13.70547198748536"><ele>1404.0</ele><time>2026-04-19T08:11:04Z</time></trkpt><trkpt lat="42.37121306575652" lon="13.705528192403134"><ele>1404.0</ele><time>2026-04-19T08:11:05Z</time></trkpt><trkpt lat="42.37113407955154" lon="13.70560004335531"><ele>1404.0</ele><time>2026-04-19T08:11:06Z</time></trkpt><trkpt lat="42.371053524546205" lon="13.705674296651619"><ele>1404.0</ele><time>2026-04-19T08:11:07Z</time></trkpt><trkpt lat="42.37098010339724" lon="13.705742349372171"><ele>1404.0</ele><time>2026-04-19T08:11:08Z</time></trkpt><trkpt lat="42.37090883531257" lon="13.705809784588565"><ele>1404.0</ele><time>2026-04-19T08:11:09Z</time></trkpt><trkpt lat="42.370838698620474" lon="13.705876389512555"><ele>1404.0</ele><time>2026-04-19T08:11:10Z</time></trkpt><trkpt lat="42.370775895282186" lon="13.705932308573116"><ele>1404.0</ele><time>2026-04-19T08:11:11Z</time></trkpt><trkpt lat="42.37067014700259" lon="13.7060094991204"><ele>1404.0</ele><time>2026-04-19T08:11:13Z</time></trkpt><trkpt lat="42.37056956002072" lon="13.706088778023688"><ele>1404.0</ele><time>2026-04-19T08:11:15Z</time></trkpt><trkpt lat="42.370481630447486" lon="13.706186835459885"><ele>1403.4285714285716</ele><time>2026-04-19T08:11:17Z</time></trkpt><trkpt lat="42.37043224966908" lon="13.70624392734776"><ele>1402.857142857143</ele><time>2026-04-19T08:11:18Z</time></trkpt><trkpt lat="42.370370560531136" lon="13.706303344192307"><ele>1402.2857142857142</ele><time>2026-04-19T08:11:19Z</time></trkpt><trkpt lat="42.370302884832746" lon="13.706358346507399"><ele>1401.7142857142858</ele><time>2026-04-19T08:11:20Z</time></trkpt><trkpt lat="42.370241146682964" lon="13.706403717417954"><ele>1401.142857142857</ele><time>2026-04-19T08:11:21Z</time></trkpt><trkpt lat="42.370184470498735" lon="13.706455173188509"><ele>1400.5714285714287</ele><time>2026-04-19T08:11:22Z</time></trkpt><trkpt lat="42.37012730221759" lon="13.706522166589085"><ele>1400.0</ele><time>2026-04-19T08:11:23Z</time></trkpt><trkpt lat="42.37007857449486" lon="13.70660643323403"><ele>1400.0</ele><time>2026-04-19T08:11:24Z</time></trkpt><trkpt lat="42.37004599388456" lon="13.706708063346076"><ele>1400.0</ele><time>2026-04-19T08:11:25Z</time></trkpt><trkpt lat="42.370025759903356" lon="13.70682212346996"><ele>1400.0</ele><time>2026-04-19T08:11:26Z</time></trkpt><trkpt lat="42.37001707217391" lon="13.706941520615523"><ele>1400.0</ele><time>2026-04-19T08:11:27Z</time></trkpt><trkpt lat="42.37001746148055" lon="13.707054810746545"><ele>1400.0</ele><time>2026-04-19T08:11:28Z</time></trkpt><trkpt lat="42.370025736516524" lon="13.70717199729876"><ele>1400.0</ele><time>2026-04-19T08:11:29Z</time></trkpt><trkpt lat="42.370042181647165" lon="13.707291916317649"><ele>1399.6666666666667</ele><time>2026-04-19T08:11:30Z</time></trkpt><trkpt lat="42.370066280053884" lon="13.707417379819988"><ele>1399.3333333333335</ele><time>2026-04-19T08:11:31Z</time></trkpt><trkpt lat="42.370092919965664" lon="13.70753428500946"><ele>1399.0</ele><time>2026-04-19T08:11:32Z</time></trkpt><trkpt lat="42.370116421039974" lon="13.707644262674775"><ele>1398.6666666666667</ele><time>2026-04-19T08:11:33Z</time></trkpt><trkpt lat="42.37013845544303" lon="13.707744726584483"><ele>1398.3333333333333</ele><time>2026-04-19T08:11:34Z</time></trkpt><trkpt lat="42.37015788369092" lon="13.707840590748498"><ele>1398.0</ele><time>2026-04-19T08:11:35Z</time></trkpt><trkpt lat="42.3701705396434" lon="13.707935846156131"><ele>1397.5</ele><time>2026-04-19T08:11:36Z</time></trkpt><trkpt lat="42.37017280752304" lon="13.708036607433286"><ele>1397.0</ele><time>2026-04-19T08:11:37Z</time></trkpt><trkpt lat="42.370165072298356" lon="13.708145729620759"><ele>1396.5</ele><time>2026-04-19T08:11:38Z</time></trkpt><trkpt lat="42.37015804788453" lon="13.708257930536277"><ele>1396.0</ele><time>2026-04-19T08:11:39Z</time></trkpt><trkpt lat="42.37012373537754" lon="13.708357463662907"><ele>1395.5</ele><time>2026-04-19T08:11:40Z</time></trkpt><trkpt lat="42.37011450568163" lon="13.708450591277797"><ele>1395.0</ele><time>2026-04-19T08:11:41Z</time></trkpt><trkpt lat="42.3700657609094" lon="13.708551703264593"><ele>1394.6</ele><time>2026-04-19T08:11:43Z</time></trkpt><trkpt lat="42.370031649105364" lon="13.70865094567807"><ele>1394.2</ele><time>2026-04-19T08:12:37Z</time></trkpt><trkpt lat="42.36998602493699" lon="13.708817323262906"><ele>1393.8000000000002</ele><time>2026-04-19T08:12:39Z</time></trkpt><trkpt lat="42.36996790248374" lon="13.708922126034873"><ele>1393.4</ele><time>2026-04-19T08:12:40Z</time></trkpt><trkpt lat="42.369951676415596" lon="13.709038356218143"><ele>1393.0</ele><time>2026-04-19T08:12:41Z</time></trkpt><trkpt lat="42.36993512160013" lon="13.70916575809686"><ele>1393.0</ele><time>2026-04-19T08:12:42Z</time></trkpt><trkpt lat="42.3699256132509" lon="13.709282542172746"><ele>1393.0</ele><time>2026-04-19T08:12:43Z</time></trkpt><trkpt lat="42.36991650400329" lon="13.709392909098451"><ele>1393.0</ele><time>2026-04-19T08:12:44Z</time></trkpt><trkpt lat="42.36990443851111" lon="13.709495411975507"><ele>1393.0</ele><time>2026-04-19T08:12:45Z</time></trkpt><trkpt lat="42.36989323101332" lon="13.709597669715501"><ele>1393.0</ele><time>2026-04-19T08:12:46Z</time></trkpt><trkpt lat="42.36987873273764" lon="13.709695146653011"><ele>1393.0</ele><time>2026-04-19T08:12:47Z</time></trkpt><trkpt lat="42.36985562166407" lon="13.709790497908596"><ele>1393.3333333333333</ele><time>2026-04-19T08:12:48Z</time></trkpt><trkpt lat="42.369810661050174" lon="13.709879069015937"><ele>1393.6666666666665</ele><time>2026-04-19T08:12:49Z</time></trkpt><trkpt lat="42.36976546391382" lon="13.70997329705016"><ele>1394.0</ele><time>2026-04-19T08:12:50Z</time></trkpt><trkpt lat="42.36970467655997" lon="13.710048555747044"><ele>1394.3333333333333</ele><time>2026-04-19T08:12:51Z</time></trkpt><trkpt lat="42.36963265321377" lon="13.710086111902777"><ele>1394.6666666666667</ele><time>2026-04-19T08:12:52Z</time></trkpt><trkpt lat="42.369559007223316" lon="13.710096298029084"><ele>1395.0</ele><time>2026-04-19T08:12:53Z</time></trkpt><trkpt lat="42.369490694611315" lon="13.710111064889988"><ele>1393.3333333333333</ele><time>2026-04-19T08:12:54Z</time></trkpt><trkpt lat="42.369423993366574" lon="13.710120865407184"><ele>1391.6666666666667</ele><time>2026-04-19T08:12:55Z</time></trkpt><trkpt lat="42.36930597074003" lon="13.710173307220591"><ele>1390.0</ele><time>2026-04-19T08:12:57Z</time></trkpt><trkpt lat="42.369245299985316" lon="13.71019708052929"><ele>1388.3333333333335</ele><time>2026-04-19T08:12:58Z</time></trkpt><trkpt lat="42.369176956471314" lon="13.710246617320944"><ele>1386.6666666666667</ele><time>2026-04-19T08:12:59Z</time></trkpt><trkpt lat="42.369108902416215" lon="13.710321085934805"><ele>1385.0</ele><time>2026-04-19T08:13:00Z</time></trkpt><trkpt lat="42.369040248659275" lon="13.7104142888563"><ele>1385.0</ele><time>2026-04-19T08:13:01Z</time></trkpt><trkpt lat="42.368963833204475" lon="13.710512065116555"><ele>1385.0</ele><time>2026-04-19T08:13:02Z</time></trkpt><trkpt lat="42.36887819290101" lon="13.710587248174686"><ele>1385.0</ele><time>2026-04-19T08:13:03Z</time></trkpt><trkpt lat="42.368822473205135" lon="13.710684606850776"><ele>1385.0</ele><time>2026-04-19T08:13:04Z</time></trkpt><trkpt lat="42.36875920345986" lon="13.7107629887445"><ele>1385.0</ele><time>2026-04-19T08:13:05Z</time></trkpt><trkpt lat="42.368689105151404" lon="13.710848437458603"><ele>1383.8</ele><time>2026-04-19T08:13:06Z</time></trkpt><trkpt lat="42.36862121702324" lon="13.710935266551918"><ele>1382.6</ele><time>2026-04-19T08:13:07Z</time></trkpt><trkpt lat="42.36855351795463" lon="13.71102673804198"><ele>1381.4</ele><time>2026-04-19T08:13:08Z</time></trkpt><trkpt lat="42.36848190064282" lon="13.711121953761563"><ele>1380.2</ele><time>2026-04-19T08:13:09Z</time></trkpt><trkpt lat="42.36841261852305" lon="13.711232912879254"><ele>1379.0</ele><time>2026-04-19T08:13:10Z</time></trkpt><trkpt lat="42.368354587849666" lon="13.711356029647012"><ele>1379.0</ele><time>2026-04-19T08:13:11Z</time></trkpt><trkpt lat="42.368303204409315" lon="13.711490534642042"><ele>1379.0</ele><time>2026-04-19T08:13:12Z</time></trkpt><trkpt lat="42.3682483181238" lon="13.711619184922105"><ele>1379.0</ele><time>2026-04-19T08:13:13Z</time></trkpt><trkpt lat="42.36819179567122" lon="13.711741766746185"><ele>1379.0</ele><time>2026-04-19T08:13:14Z</time></trkpt><trkpt lat="42.36813497592985" lon="13.711865881571958"><ele>1379.0</ele><time>2026-04-19T08:13:15Z</time></trkpt><trkpt lat="42.3680826003484" lon="13.711988227313142"><ele>1378.8000000000002</ele><time>2026-04-19T08:13:16Z</time></trkpt><trkpt lat="42.36804246107401" lon="13.712104366954016"><ele>1378.6000000000001</ele><time>2026-04-19T08:13:17Z</time></trkpt><trkpt lat="42.368004388052945" lon="13.712212352622576"><ele>1378.4</ele><time>2026-04-19T08:13:18Z</time></trkpt><trkpt lat="42.367967364740984" lon="13.712322811240602"><ele>1378.2</ele><time>2026-04-19T08:13:19Z</time></trkpt><trkpt lat="42.36793245569513" lon="13.712439444443126"><ele>1378.0</ele><time>2026-04-19T08:13:20Z</time></trkpt><trkpt lat="42.367897014339526" lon="13.712563596496345"><ele>1378.0</ele><time>2026-04-19T08:13:21Z</time></trkpt><trkpt lat="42.36786675107887" lon="13.712679463420573"><ele>1378.0</ele><time>2026-04-19T08:13:22Z</time></trkpt><trkpt lat="42.36783809854003" lon="13.71278809594672"><ele>1378.0</ele><time>2026-04-19T08:13:23Z</time></trkpt><trkpt lat="42.367805217940266" lon="13.712898105691574"><ele>1378.0</ele><time>2026-04-19T08:13:24Z</time></trkpt><trkpt lat="42.36777254135821" lon="13.713020162491613"><ele>1378.0</ele><time>2026-04-19T08:13:25Z</time></trkpt><trkpt lat="42.3677406452722" lon="13.713135866718643"><ele>1375.8000000000002</ele><time>2026-04-19T08:13:26Z</time></trkpt><trkpt lat="42.367708570200435" lon="13.713251864389562"><ele>1373.6</ele><time>2026-04-19T08:13:27Z</time></trkpt><trkpt lat="42.36767565801455" lon="13.71337193642897"><ele>1371.4</ele><time>2026-04-19T08:13:28Z</time></trkpt><trkpt lat="42.36764328013909" lon="13.713491288336872"><ele>1369.1999999999998</ele><time>2026-04-19T08:13:29Z</time></trkpt><trkpt lat="42.36761019127638" lon="13.713613246132743"><ele>1367.0</ele><time>2026-04-19T08:13:30Z</time></trkpt><trkpt lat="42.36756653730803" lon="13.713726216152596"><ele>1366.3999999999999</ele><time>2026-04-19T08:13:31Z</time></trkpt><trkpt lat="42.36754636424944" lon="13.713857629759866"><ele>1365.8</ele><time>2026-04-19T08:13:32Z</time></trkpt><trkpt lat="42.367512630750134" lon="13.71398379774928"><ele>1365.2</ele><time>2026-04-19T08:13:33Z</time></trkpt><trkpt lat="42.367482637680034" lon="13.714107222888694"><ele>1364.6</ele><time>2026-04-19T08:13:34Z</time></trkpt><trkpt lat="42.36745577376465" lon="13.71421838404503"><ele>1364.0</ele><time>2026-04-19T08:13:35Z</time></trkpt><trkpt lat="42.36743029844636" lon="13.71432778899999"><ele>1364.3333333333335</ele><time>2026-04-19T08:13:36Z</time></trkpt><trkpt lat="42.36740918928594" lon="13.714432673448837"><ele>1364.6666666666667</ele><time>2026-04-19T08:13:37Z</time></trkpt><trkpt lat="42.36739223216191" lon="13.714537954330165"><ele>1365.0</ele><time>2026-04-19T08:13:38Z</time></trkpt><trkpt lat="42.36737812922389" lon="13.714635347168228"><ele>1365.3333333333333</ele><time>2026-04-19T08:13:39Z</time></trkpt><trkpt lat="42.367362167645055" lon="13.714738757668645"><ele>1365.6666666666665</ele><time>2026-04-19T08:13:40Z</time></trkpt><trkpt lat="42.36733344268772" lon="13.714843623140839"><ele>1366.0</ele><time>2026-04-19T08:13:41Z</time></trkpt><trkpt lat="42.36733577949357" lon="13.714949437134479"><ele>1366.0</ele><time>2026-04-19T08:13:42Z</time></trkpt><trkpt lat="42.367319309104154" lon="13.715054145479924"><ele>1366.0</ele><time>2026-04-19T08:13:43Z</time></trkpt><trkpt lat="42.36730748716179" lon="13.715157543015255"><ele>1366.0</ele><time>2026-04-19T08:13:44Z</time></trkpt><trkpt lat="42.3673010300388" lon="13.715267752929512"><ele>1366.0</ele><time>2026-04-19T08:13:45Z</time></trkpt><trkpt lat="42.36727499004851" lon="13.715368852082657"><ele>1366.0</ele><time>2026-04-19T08:13:46Z</time></trkpt><trkpt lat="42.367274305112986" lon="13.715486756873108"><ele>1366.0</ele><time>2026-04-19T08:13:47Z</time></trkpt><trkpt lat="42.36726121609415" lon="13.715612795976913"><ele>1366.0</ele><time>2026-04-19T08:13:48Z</time></trkpt><trkpt lat="42.367248370676876" lon="13.715766396075209"><ele>1366.0</ele><time>2026-04-19T08:13:49Z</time></trkpt><trkpt lat="42.36722882684885" lon="13.715912848789845"><ele>1366.0</ele><time>2026-04-19T08:13:50Z</time></trkpt><trkpt lat="42.3672129047632" lon="13.716040427852308"><ele>1366.0</ele><time>2026-04-19T08:13:51Z</time></trkpt><trkpt lat="42.36720067761599" lon="13.71615735182733"><ele>1366.0</ele><time>2026-04-19T08:13:52Z</time></trkpt><trkpt lat="42.36718514298971" lon="13.716270994352266"><ele>1365.6666666666665</ele><time>2026-04-19T08:13:53Z</time></trkpt><trkpt lat="42.367177280009564" lon="13.716384080358882"><ele>1365.3333333333333</ele><time>2026-04-19T08:13:54Z</time></trkpt><trkpt lat="42.36717864980786" lon="13.716493391807361"><ele>1365.0</ele><time>2026-04-19T08:13:55Z</time></trkpt><trkpt lat="42.367178257613546" lon="13.71659244308874"><ele>1364.6666666666667</ele><time>2026-04-19T08:13:56Z</time></trkpt><trkpt lat="42.367174651160035" lon="13.71668741844661"><ele>1364.3333333333335</ele><time>2026-04-19T08:13:57Z</time></trkpt><trkpt lat="42.367197233610675" lon="13.71678541533798"><ele>1364.0</ele><time>2026-04-19T08:13:58Z</time></trkpt><trkpt lat="42.36721989218595" lon="13.71693602836551"><ele>1362.3333333333335</ele><time>2026-04-19T08:13:59Z</time></trkpt><trkpt lat="42.36724019209314" lon="13.717116964545943"><ele>1360.6666666666667</ele><time>2026-04-19T08:14:00Z</time></trkpt><trkpt lat="42.36730886353967" lon="13.71732032689539"><ele>1359.0</ele><time>2026-04-19T08:14:01Z</time></trkpt><trkpt lat="42.36731253845389" lon="13.717564999668479"><ele>1358.5</ele><time>2026-04-19T08:14:02Z</time></trkpt><trkpt lat="42.36729493073711" lon="13.717818065474583"><ele>1358.0</ele><time>2026-04-19T08:14:03Z</time></trkpt><trkpt lat="42.36726314361054" lon="13.718262345847418"><ele>1358.0</ele><time>2026-04-19T08:14:05Z</time></trkpt><trkpt lat="42.36725593274483" lon="13.718454312875807"><ele>1358.0</ele><time>2026-04-19T08:14:06Z</time></trkpt><trkpt lat="42.36725336341463" lon="13.71864321626576"><ele>1358.0</ele><time>2026-04-19T08:14:07Z</time></trkpt><trkpt lat="42.36724710150878" lon="13.718819567347442"><ele>1358.0</ele><time>2026-04-19T08:14:08Z</time></trkpt><trkpt lat="42.36724071084041" lon="13.718978954079446"><ele>1356.75</ele><time>2026-04-19T08:14:09Z</time></trkpt><trkpt lat="42.36726077786125" lon="13.719132614776546"><ele>1355.5</ele><time>2026-04-19T08:14:10Z</time></trkpt><trkpt lat="42.36731311093107" lon="13.71928040588957"><ele>1354.25</ele><time>2026-04-19T08:14:11Z</time></trkpt><trkpt lat="42.36738977682849" lon="13.719392921059665"><ele>1353.0</ele><time>2026-04-19T08:14:12Z</time></trkpt><trkpt lat="42.36748677477254" lon="13.71945979325674"><ele>1350.75</ele><time>2026-04-19T08:14:13Z</time></trkpt><trkpt lat="42.367603476056864" lon="13.719491976779096"><ele>1348.5</ele><time>2026-04-19T08:14:14Z</time></trkpt><trkpt lat="42.36773090614335" lon="13.71953102006891"><ele>1346.25</ele><time>2026-04-19T08:14:15Z</time></trkpt><trkpt lat="42.36785685062753" lon="13.719635367671737"><ele>1344.0</ele><time>2026-04-19T08:14:16Z</time></trkpt><trkpt lat="42.36797413488663" lon="13.719811360470564"><ele>1350.0</ele><time>2026-04-19T08:14:17Z</time></trkpt><trkpt lat="42.368047443407974" lon="13.720029383882475"><ele>1356.0</ele><time>2026-04-19T08:14:18Z</time></trkpt><trkpt lat="42.36811330407037" lon="13.72026073195204"><ele>1362.0</ele><time>2026-04-19T08:14:19Z</time></trkpt><trkpt lat="42.36814960101485" lon="13.720529189403935"><ele>1362.0</ele><time>2026-04-19T08:14:20Z</time></trkpt><trkpt lat="42.368176704128324" lon="13.720807789414302"><ele>1362.0</ele><time>2026-04-19T08:14:21Z</time></trkpt><trkpt lat="42.36819986318685" lon="13.721083200269453"><ele>1362.0</ele><time>2026-04-19T08:14:22Z</time></trkpt><trkpt lat="42.368221216308164" lon="13.721347942605606"><ele>1361.3333333333333</ele><time>2026-04-19T08:14:23Z</time></trkpt><trkpt lat="42.36824472268858" lon="13.72160365928442"><ele>1360.6666666666665</ele><time>2026-04-19T08:14:24Z</time></trkpt><trkpt lat="42.36826490058505" lon="13.721834801178526"><ele>1360.0</ele><time>2026-04-19T08:14:25Z</time></trkpt><trkpt lat="42.368282948766" lon="13.722037250477486"><ele>1359.0</ele><time>2026-04-19T08:14:26Z</time></trkpt><trkpt lat="42.368305627619705" lon="13.722217996950565"><ele>1358.0</ele><time>2026-04-19T08:14:27Z</time></trkpt><trkpt lat="42.36834440820837" lon="13.722362911554423"><ele>1357.0</ele><time>2026-04-19T08:14:28Z</time></trkpt><trkpt lat="42.36840836055773" lon="13.72247406975411"><ele>1356.0</ele><time>2026-04-19T08:14:29Z</time></trkpt><trkpt lat="42.36849013496424" lon="13.72255843608618"><ele>1356.0</ele><time>2026-04-19T08:14:30Z</time></trkpt><trkpt lat="42.36857971244239" lon="13.722633031151693"><ele>1356.0</ele><time>2026-04-19T08:14:31Z</time></trkpt><trkpt lat="42.36865679261777" lon="13.72272000348616"><ele>1356.0</ele><time>2026-04-19T08:14:32Z</time></trkpt><trkpt lat="42.3687107034581" lon="13.722839574511754"><ele>1356.0</ele><time>2026-04-19T08:14:33Z</time></trkpt><trkpt lat="42.368726771199846" lon="13.722975333965909"><ele>1356.0</ele><time>2026-04-19T08:14:34Z</time></trkpt><trkpt lat="42.36870637495741" lon="13.72311188254639"><ele>1358.5</ele><time>2026-04-19T08:14:35Z</time></trkpt><trkpt lat="42.3686528353644" lon="13.723225884348052"><ele>1361.0</ele><time>2026-04-19T08:14:36Z</time></trkpt><trkpt lat="42.36854832626743" lon="13.723279214411507"><ele>1363.5</ele><time>2026-04-19T08:14:37Z</time></trkpt><trkpt lat="42.368444461546915" lon="13.723369812347041"><ele>1366.0</ele><time>2026-04-19T08:14:38Z</time></trkpt><trkpt lat="42.36830946276375" lon="13.723435215635808"><ele>1366.0</ele><time>2026-04-19T08:14:39Z</time></trkpt><trkpt lat="42.36816193677852" lon="13.723519342775127"><ele>1366.0</ele><time>2026-04-19T08:14:40Z</time></trkpt><trkpt lat="42.36800439991775" lon="13.723618062394483"><ele>1366.0</ele><time>2026-04-19T08:14:41Z</time></trkpt><trkpt lat="42.367843351528784" lon="13.723730744483138"><ele>1369.3333333333333</ele><time>2026-04-19T08:14:42Z</time></trkpt><trkpt lat="42.367679953859174" lon="13.723863084097538"><ele>1372.6666666666667</ele><time>2026-04-19T08:14:43Z</time></trkpt><trkpt lat="42.367516468008006" lon="13.724038459177088"><ele>1376.0</ele><time>2026-04-19T08:14:44Z</time></trkpt><trkpt lat="42.36737304311525" lon="13.724233032582235"><ele>1371.3333333333335</ele><time>2026-04-19T08:14:45Z</time></trkpt><trkpt lat="42.36724704166047" lon="13.724439806710834"><ele>1366.6666666666667</ele><time>2026-04-19T08:14:46Z</time></trkpt><trkpt lat="42.36713438576909" lon="13.724671801912942"><ele>1362.0</ele><time>2026-04-19T08:14:47Z</time></trkpt><trkpt lat="42.36703008077293" lon="13.724927617044115"><ele>1362.0</ele><time>2026-04-19T08:14:48Z</time></trkpt><trkpt lat="42.366925812047256" lon="13.725204889178121"><ele>1362.0</ele><time>2026-04-19T08:14:49Z</time></trkpt><trkpt lat="42.3668235325317" lon="13.725482288138302"><ele>1367.6666666666667</ele><time>2026-04-19T08:14:50Z</time></trkpt><trkpt lat="42.366732511502036" lon="13.725709754724832"><ele>1373.3333333333335</ele><time>2026-04-19T08:14:51Z</time></trkpt><trkpt lat="42.36664897113208" lon="13.725905315754808"><ele>1379.0</ele><time>2026-04-19T08:14:52Z</time></trkpt><trkpt lat="42.366577676455215" lon="13.72607504906561"><ele>1383.0</ele><time>2026-04-19T08:14:53Z</time></trkpt><trkpt lat="42.36652204428279" lon="13.726240156771057"><ele>1387.0</ele><time>2026-04-19T08:14:54Z</time></trkpt><trkpt lat="42.366491736849376" lon="13.726420364311764"><ele>1391.0</ele><time>2026-04-19T08:14:55Z</time></trkpt><trkpt lat="42.36648982275338" lon="13.726633344528185"><ele>1395.0</ele><time>2026-04-19T08:14:56Z</time></trkpt><trkpt lat="42.36650932566144" lon="13.726872602270173"><ele>1397.3333333333333</ele><time>2026-04-19T08:14:57Z</time></trkpt><trkpt lat="42.36652799272491" lon="13.727120242186245"><ele>1399.6666666666665</ele><time>2026-04-19T08:14:58Z</time></trkpt><trkpt lat="42.36654250832252" lon="13.727374647065956"><ele>1402.0</ele><time>2026-04-19T08:14:59Z</time></trkpt><trkpt lat="42.36654884216985" lon="13.727622902973135"><ele>1403.6666666666665</ele><time>2026-04-19T08:15:00Z</time></trkpt><trkpt lat="42.36655335728993" lon="13.727870978507019"><ele>1405.3333333333333</ele><time>2026-04-19T08:15:01Z</time></trkpt><trkpt lat="42.36654814613196" lon="13.728111732034293"><ele>1407.0</ele><time>2026-04-19T08:15:02Z</time></trkpt><trkpt lat="42.36653423526814" lon="13.728340119700277"><ele>1407.0</ele><time>2026-04-19T08:15:03Z</time></trkpt><trkpt lat="42.36652170587482" lon="13.728556763612152"><ele>1407.0</ele><time>2026-04-19T08:15:04Z</time></trkpt><trkpt lat="42.36652344021549" lon="13.72878511183526"><ele>1407.0</ele><time>2026-04-19T08:15:05Z</time></trkpt><trkpt lat="42.36655784060485" lon="13.72902130635933"><ele>1407.6666666666667</ele><time>2026-04-19T08:15:06Z</time></trkpt><trkpt lat="42.366613996263574" lon="13.729261310748937"><ele>1408.3333333333335</ele><time>2026-04-19T08:15:07Z</time></trkpt><trkpt lat="42.36667624725572" lon="13.729504069735478"><ele>1409.0</ele><time>2026-04-19T08:15:08Z</time></trkpt><trkpt lat="42.366746018907044" lon="13.729719520785794"><ele>1407.0</ele><time>2026-04-19T08:15:09Z</time></trkpt><trkpt lat="42.366823394029204" lon="13.729913911464804"><ele>1405.0</ele><time>2026-04-19T08:15:10Z</time></trkpt><trkpt lat="42.36691015360866" lon="13.730072168550484"><ele>1403.0</ele><time>2026-04-19T08:15:11Z</time></trkpt><trkpt lat="42.36700806870051" lon="13.730201904094724"><ele>1401.0</ele><time>2026-04-19T08:15:12Z</time></trkpt><trkpt lat="42.36710520048585" lon="13.730289625617347"><ele>1403.25</ele><time>2026-04-19T08:15:12.999Z</time></trkpt><trkpt lat="42.36720787582736" lon="13.730331483564598"><ele>1405.5</ele><time>2026-04-19T08:15:13.999Z</time></trkpt><trkpt lat="42.36732557798614" lon="13.73032236782604"><ele>1407.75</ele><time>2026-04-19T08:15:14.999Z</time></trkpt><trkpt lat="42.36746230492809" lon="13.730289613026125"><ele>1410.0</ele><time>2026-04-19T08:15:15.999Z</time></trkpt><trkpt lat="42.36759786806477" lon="13.730284012553788"><ele>1410.0</ele><time>2026-04-19T08:15:17Z</time></trkpt><trkpt lat="42.36772081768615" lon="13.730376286338965"><ele>1410.0</ele><time>2026-04-19T08:15:18Z</time></trkpt><trkpt lat="42.36785405166603" lon="13.730471418177878"><ele>1410.0</ele><time>2026-04-19T08:15:19Z</time></trkpt><trkpt lat="42.367977919961824" lon="13.730580078770517"><ele>1410.0</ele><time>2026-04-19T08:15:20Z</time></trkpt><trkpt lat="42.3680417490768" lon="13.73075651120287"><ele>1411.75</ele><time>2026-04-19T08:15:21Z</time></trkpt><trkpt lat="42.368125947527076" lon="13.730939991674814"><ele>1413.5</ele><time>2026-04-19T08:15:22Z</time></trkpt><trkpt lat="42.36819369035588" lon="13.731117300421692"><ele>1415.25</ele><time>2026-04-19T08:15:23Z</time></trkpt><trkpt lat="42.36829107348833" lon="13.731230028696626"><ele>1417.0</ele><time>2026-04-19T08:15:24Z</time></trkpt><trkpt lat="42.36842828790112" lon="13.73131054984889"><ele>1417.0</ele><time>2026-04-19T08:15:25Z</time></trkpt><trkpt lat="42.36859746054048" lon="13.731383662486104"><ele>1417.0</ele><time>2026-04-19T08:15:26Z</time></trkpt><trkpt lat="42.368771226448956" lon="13.731436602956583"><ele>1417.0</ele><time>2026-04-19T08:15:27Z</time></trkpt><trkpt lat="42.36895035831289" lon="13.731458799563544"><ele>1421.3333333333333</ele><time>2026-04-19T08:15:28Z</time></trkpt><trkpt lat="42.369126528904694" lon="13.731470756808243"><ele>1425.6666666666667</ele><time>2026-04-19T08:15:29Z</time></trkpt><trkpt lat="42.36929677900423" lon="13.731467689911566"><ele>1430.0</ele><time>2026-04-19T08:15:30Z</time></trkpt><trkpt lat="42.36947448378593" lon="13.731429539493663"><ele>1430.0</ele><time>2026-04-19T08:15:31Z</time></trkpt><trkpt lat="42.369660472346865" lon="13.731356109112332"><ele>1430.0</ele><time>2026-04-19T08:15:32Z</time></trkpt><trkpt lat="42.36985158624849" lon="13.731319267707338"><ele>1430.0</ele><time>2026-04-19T08:15:33Z</time></trkpt><trkpt lat="42.37004044159316" lon="13.731265772125555"><ele>1430.6666666666667</ele><time>2026-04-19T08:15:34Z</time></trkpt><trkpt lat="42.37023294742427" lon="13.731212811044074"><ele>1431.3333333333333</ele><time>2026-04-19T08:15:35Z</time></trkpt><trkpt lat="42.37042242489777" lon="13.731160664473537"><ele>1432.0</ele><time>2026-04-19T08:15:36Z</time></trkpt><trkpt lat="42.370614882380664" lon="13.73110656650973"><ele>1436.6666666666665</ele><time>2026-04-19T08:15:37Z</time></trkpt><trkpt lat="42.370814433975376" lon="13.731050083081193"><ele>1441.3333333333333</ele><time>2026-04-19T08:15:38Z</time></trkpt><trkpt lat="42.371020557705066" lon="13.730992962592765"><ele>1446.0</ele><time>2026-04-19T08:15:39Z</time></trkpt><trkpt lat="42.3712327101693" lon="13.730934978851582"><ele>1449.3333333333333</ele><time>2026-04-19T08:15:40Z</time></trkpt><trkpt lat="42.3714477610508" lon="13.730877932146623"><ele>1452.6666666666665</ele><time>2026-04-19T08:15:41Z</time></trkpt><trkpt lat="42.37166019558102" lon="13.730821347021868"><ele>1456.0</ele><time>2026-04-19T08:15:42Z</time></trkpt><trkpt lat="42.37186476216788" lon="13.73076674076464"><ele>1456.0</ele><time>2026-04-19T08:15:43Z</time></trkpt><trkpt lat="42.37205166215137" lon="13.730713812663282"><ele>1456.0</ele><time>2026-04-19T08:15:44Z</time></trkpt><trkpt lat="42.37220473036892" lon="13.730652882007861"><ele>1456.0</ele><time>2026-04-19T08:15:45Z</time></trkpt><trkpt lat="42.37233956691823" lon="13.730600032547589"><ele>1457.0</ele><time>2026-04-19T08:15:46Z</time></trkpt><trkpt lat="42.37249159735768" lon="13.730498877368673"><ele>1458.0</ele><time>2026-04-19T08:15:47Z</time></trkpt><trkpt lat="42.37265200130647" lon="13.73034102513762"><ele>1459.0</ele><time>2026-04-19T08:15:48Z</time></trkpt><trkpt lat="42.37282719642572" lon="13.730212967007132"><ele>1460.0</ele><time>2026-04-19T08:15:49Z</time></trkpt><trkpt lat="42.372992706496504" lon="13.730073337079936"><ele>1461.0</ele><time>2026-04-19T08:15:50Z</time></trkpt><trkpt lat="42.3731561044977" lon="13.729937493220557"><ele>1462.0</ele><time>2026-04-19T08:15:51Z</time></trkpt><trkpt lat="42.37332342311978" lon="13.729799641511638"><ele>1462.0</ele><time>2026-04-19T08:15:52Z</time></trkpt><trkpt lat="42.373482778458026" lon="13.729642562837766"><ele>1462.0</ele><time>2026-04-19T08:15:53Z</time></trkpt><trkpt lat="42.37365263795968" lon="13.72950790070305"><ele>1462.0</ele><time>2026-04-19T08:15:54Z</time></trkpt><trkpt lat="42.37381965195489" lon="13.729368722205031"><ele>1465.6666666666665</ele><time>2026-04-19T08:15:55Z</time></trkpt><trkpt lat="42.37398683121949" lon="13.729228317652478"><ele>1469.3333333333333</ele><time>2026-04-19T08:15:56Z</time></trkpt><trkpt lat="42.37415121374783" lon="13.729087599095545"><ele>1473.0</ele><time>2026-04-19T08:15:57Z</time></trkpt><trkpt lat="42.374309764208085" lon="13.728931078066852"><ele>1473.0</ele><time>2026-04-19T08:15:58Z</time></trkpt><trkpt lat="42.37446137726479" lon="13.728759253001098"><ele>1473.0</ele><time>2026-04-19T08:15:59Z</time></trkpt><trkpt lat="42.37461632702941" lon="13.728578366651885"><ele>1473.0</ele><time>2026-04-19T08:16:00Z</time></trkpt><trkpt lat="42.37477657384334" lon="13.728396235940334"><ele>1475.3333333333333</ele><time>2026-04-19T08:16:01Z</time></trkpt><trkpt lat="42.374928262634825" lon="13.728224313822137"><ele>1477.6666666666665</ele><time>2026-04-19T08:16:02Z</time></trkpt><trkpt lat="42.37507084499565" lon="13.728060216831235"><ele>1480.0</ele><time>2026-04-19T08:16:03Z</time></trkpt><trkpt lat="42.37520990887162" lon="13.727934870798903"><ele>1480.0</ele><time>2026-04-19T08:16:04Z</time></trkpt><trkpt lat="42.375329234905344" lon="13.727816328193859"><ele>1480.0</ele><time>2026-04-19T08:16:05Z</time></trkpt><trkpt lat="42.375447195513935" lon="13.727729415556544"><ele>1480.0</ele><time>2026-04-19T08:16:06Z</time></trkpt><trkpt lat="42.37556924077853" lon="13.727675141163795"><ele>1480.0</ele><time>2026-04-19T08:16:07Z</time></trkpt><trkpt lat="42.37568732490386" lon="13.727656372014417"><ele>1482.25</ele><time>2026-04-19T08:16:08Z</time></trkpt><trkpt lat="42.37579900099457" lon="13.72766165763139"><ele>1484.5</ele><time>2026-04-19T08:16:09Z</time></trkpt><trkpt lat="42.375880292914346" lon="13.727772159118055"><ele>1486.75</ele><time>2026-04-19T08:16:10Z</time></trkpt><trkpt lat="42.37596581099731" lon="13.72788018801812"><ele>1489.0</ele><time>2026-04-19T08:16:11Z</time></trkpt><trkpt lat="42.37601604208333" lon="13.72806530617922"><ele>1489.0</ele><time>2026-04-19T08:16:12Z</time></trkpt><trkpt lat="42.376042167405" lon="13.728293551888001"><ele>1489.0</ele><time>2026-04-19T08:16:13Z</time></trkpt><trkpt lat="42.37602034261123" lon="13.728548768874031"><ele>1489.0</ele><time>2026-04-19T08:16:14Z</time></trkpt><trkpt lat="42.37600413042695" lon="13.72884335483102"><ele>1489.3333333333333</ele><time>2026-04-19T08:16:15Z</time></trkpt><trkpt lat="42.37599733726782" lon="13.729131408984292"><ele>1489.6666666666667</ele><time>2026-04-19T08:16:16Z</time></trkpt><trkpt lat="42.375972791588964" lon="13.729428996432713"><ele>1490.0</ele><time>2026-04-19T08:16:17Z</time></trkpt><trkpt lat="42.375950017326794" lon="13.729735526420763"><ele>1492.0</ele><time>2026-04-19T08:16:18Z</time></trkpt><trkpt lat="42.375927105853734" lon="13.73005718992784"><ele>1494.0</ele><time>2026-04-19T08:16:19Z</time></trkpt><trkpt lat="42.37590338823102" lon="13.730405403185491"><ele>1494.5</ele><time>2026-04-19T08:16:20Z</time></trkpt><trkpt lat="42.375882877010405" lon="13.730762683267008"><ele>1495.0</ele><time>2026-04-19T08:16:21Z</time></trkpt><trkpt lat="42.37586026464546" lon="13.73113252549541"><ele>1495.0</ele><time>2026-04-19T08:16:22Z</time></trkpt><trkpt lat="42.37583103924462" lon="13.731488486379321"><ele>1495.0</ele><time>2026-04-19T08:16:23Z</time></trkpt><trkpt lat="42.37581431084171" lon="13.73185095997573"><ele>1498.5</ele><time>2026-04-19T08:16:24Z</time></trkpt><trkpt lat="42.37579269951927" lon="13.732225514480481"><ele>1502.0</ele><time>2026-04-19T08:16:25Z</time></trkpt><trkpt lat="42.37576623380453" lon="13.732605811308314"><ele>1504.5</ele><time>2026-04-19T08:16:26Z</time></trkpt><trkpt lat="42.375737737993575" lon="13.73298732887875"><ele>1507.0</ele><time>2026-04-19T08:16:27Z</time></trkpt><trkpt lat="42.37571100492206" lon="13.733358498640717"><ele>1509.5</ele><time>2026-04-19T08:16:28Z</time></trkpt><trkpt lat="42.37568221046161" lon="13.733720080720666"><ele>1512.0</ele><time>2026-04-19T08:16:29Z</time></trkpt><trkpt lat="42.375655512531765" lon="13.734064775933689"><ele>1514.0</ele><time>2026-04-19T08:16:30Z</time></trkpt><trkpt lat="42.37562745989149" lon="13.734391427639665"><ele>1516.0</ele><time>2026-04-19T08:16:31Z</time></trkpt><trkpt lat="42.375599750796844" lon="13.734689589499384"><ele>1516.0</ele><time>2026-04-19T08:16:32Z</time></trkpt><trkpt lat="42.375575855788455" lon="13.734963082358137"><ele>1516.0</ele><time>2026-04-19T08:16:33Z</time></trkpt><trkpt lat="42.37555356357754" lon="13.735218933685927"><ele>1516.0</ele><time>2026-04-19T08:16:34Z</time></trkpt><trkpt lat="42.37553831591434" lon="13.735452821447035"><ele>1514.6666666666665</ele><time>2026-04-19T08:16:35Z</time></trkpt><trkpt lat="42.375541133584406" lon="13.735675521006375"><ele>1513.3333333333333</ele><time>2026-04-19T08:16:36Z</time></trkpt><trkpt lat="42.37557216346468" lon="13.735871042152946"><ele>1512.0</ele><time>2026-04-19T08:16:37Z</time></trkpt><trkpt lat="42.375632121717445" lon="13.73605337890398"><ele>1512.0</ele><time>2026-04-19T08:16:38Z</time></trkpt><trkpt lat="42.37571602520175" lon="13.736208609631106"><ele>1512.0</ele><time>2026-04-19T08:16:39Z</time></trkpt><trkpt lat="42.37582520172177" lon="13.736332195170464"><ele>1512.0</ele><time>2026-04-19T08:16:40Z</time></trkpt><trkpt lat="42.37595389080494" lon="13.736411991854732"><ele>1512.0</ele><time>2026-04-19T08:16:41Z</time></trkpt><trkpt lat="42.37610464303999" lon="13.73644187925524"><ele>1512.0</ele><time>2026-04-19T08:16:42Z</time></trkpt><trkpt lat="42.37627512853062" lon="13.736435449645482"><ele>1512.0</ele><time>2026-04-19T08:16:43Z</time></trkpt><trkpt lat="42.37645239303985" lon="13.7364285518717"><ele>1512.0</ele><time>2026-04-19T08:16:44Z</time></trkpt><trkpt lat="42.37663500137368" lon="13.73644080448423"><ele>1515.3333333333333</ele><time>2026-04-19T08:16:45Z</time></trkpt><trkpt lat="42.3768055631649" lon="13.736454470202077"><ele>1518.6666666666665</ele><time>2026-04-19T08:16:46Z</time></trkpt><trkpt lat="42.37696775370806" lon="13.736466983028452"><ele>1522.0</ele><time>2026-04-19T08:16:47Z</time></trkpt><trkpt lat="42.37711673464225" lon="13.736480677546078"><ele>1525.0</ele><time>2026-04-19T08:16:48Z</time></trkpt><trkpt lat="42.377247250731166" lon="13.736481965324497"><ele>1528.0</ele><time>2026-04-19T08:16:49Z</time></trkpt><trkpt lat="42.377365576702566" lon="13.736440678372992"><ele>1531.0</ele><time>2026-04-19T08:16:50Z</time></trkpt><trkpt lat="42.377465268108615" lon="13.736341322228318"><ele>1534.0</ele><time>2026-04-19T08:16:51Z</time></trkpt><trkpt lat="42.37754548943208" lon="13.736196364450086"><ele>1531.0</ele><time>2026-04-19T08:16:52Z</time></trkpt><trkpt lat="42.37761222278333" lon="13.73599920760927"><ele>1528.0</ele><time>2026-04-19T08:16:53Z</time></trkpt><trkpt lat="42.37769130164868" lon="13.735777456060775"><ele>1525.0</ele><time>2026-04-19T08:16:54Z</time></trkpt><trkpt lat="42.37778212250294" lon="13.73557010440157"><ele>1525.0</ele><time>2026-04-19T08:16:55Z</time></trkpt><trkpt lat="42.377871547884936" lon="13.735382011397917"><ele>1525.0</ele><time>2026-04-19T08:16:56Z</time></trkpt><trkpt lat="42.37794732591974" lon="13.735212155669883"><ele>1525.0</ele><time>2026-04-19T08:16:57Z</time></trkpt><trkpt lat="42.37801486833122" lon="13.735070555230147"><ele>1525.0</ele><time>2026-04-19T08:16:58Z</time></trkpt><trkpt lat="42.37809562848371" lon="13.734963975713143"><ele>1526.8</ele><time>2026-04-19T08:16:59Z</time></trkpt><trkpt lat="42.3781895543956" lon="13.734916019407494"><ele>1528.6</ele><time>2026-04-19T08:17:00Z</time></trkpt><trkpt lat="42.37828094484993" lon="13.734932937574184"><ele>1530.4</ele><time>2026-04-19T08:17:01Z</time></trkpt><trkpt lat="42.37834254565321" lon="13.735016996813359"><ele>1532.2</ele><time>2026-04-19T08:17:02Z</time></trkpt><trkpt lat="42.37837756189845" lon="13.735117417652251"><ele>1534.0</ele><time>2026-04-19T08:17:03Z</time></trkpt><trkpt lat="42.37840273274369" lon="13.735237869645237"><ele>1536.0</ele><time>2026-04-19T08:17:04Z</time></trkpt><trkpt lat="42.37841156151691" lon="13.735404585718085"><ele>1538.0</ele><time>2026-04-19T08:17:05Z</time></trkpt><trkpt lat="42.37837074148709" lon="13.735612880220923"><ele>1540.0</ele><time>2026-04-19T08:17:06Z</time></trkpt><trkpt lat="42.378296922647436" lon="13.73583436628524"><ele>1540.0</ele><time>2026-04-19T08:17:07Z</time></trkpt><trkpt lat="42.37820113363029" lon="13.736044149127562"><ele>1540.0</ele><time>2026-04-19T08:17:08Z</time></trkpt><trkpt lat="42.37808484841657" lon="13.736232378949046"><ele>1540.0</ele><time>2026-04-19T08:17:09Z</time></trkpt><trkpt lat="42.37791663624643" lon="13.736393848727166"><ele>1538.0</ele><time>2026-04-19T08:17:10Z</time></trkpt><trkpt lat="42.3777420796462" lon="13.736565177597448"><ele>1536.0</ele><time>2026-04-19T08:17:11Z</time></trkpt><trkpt lat="42.37756298263208" lon="13.736767481608954"><ele>1534.0</ele><time>2026-04-19T08:17:12Z</time></trkpt><trkpt lat="42.377404617215234" lon="13.736997595574227"><ele>1535.5</ele><time>2026-04-19T08:17:13Z</time></trkpt><trkpt lat="42.37726895124977" lon="13.737252859208905"><ele>1537.0</ele><time>2026-04-19T08:17:14Z</time></trkpt><trkpt lat="42.377127437192975" lon="13.737482982339444"><ele>1537.0</ele><time>2026-04-19T08:17:15Z</time></trkpt><trkpt lat="42.376967584248675" lon="13.737648805016686"><ele>1537.0</ele><time>2026-04-19T08:17:16Z</time></trkpt><trkpt lat="42.37678803605536" lon="13.73778152792023"><ele>1537.0</ele><time>2026-04-19T08:17:17Z</time></trkpt><trkpt lat="42.376612844489905" lon="13.73791893164003"><ele>1536.0</ele><time>2026-04-19T08:17:18Z</time></trkpt><trkpt lat="42.37644592841838" lon="13.738095105089839"><ele>1535.0</ele><time>2026-04-19T08:17:19Z</time></trkpt><trkpt lat="42.376296938389544" lon="13.738320225455437"><ele>1534.0</ele><time>2026-04-19T08:17:20Z</time></trkpt><trkpt lat="42.37616149627252" lon="13.73858637838105"><ele>1541.0</ele><time>2026-04-19T08:17:21Z</time></trkpt><trkpt lat="42.37602349245756" lon="13.738872976541312"><ele>1548.0</ele><time>2026-04-19T08:17:22Z</time></trkpt><trkpt lat="42.375895835598065" lon="13.739135929367997"><ele>1548.0</ele><time>2026-04-19T08:17:23Z</time></trkpt><trkpt lat="42.37578536015723" lon="13.7393663718267"><ele>1548.0</ele><time>2026-04-19T08:17:24Z</time></trkpt><trkpt lat="42.375686471246816" lon="13.739585153843436"><ele>1548.0</ele><time>2026-04-19T08:17:25Z</time></trkpt><trkpt lat="42.37559972311681" lon="13.739833031239101"><ele>1548.0</ele><time>2026-04-19T08:17:26Z</time></trkpt><trkpt lat="42.37552357735655" lon="13.740110261536351"><ele>1548.0</ele><time>2026-04-19T08:17:27Z</time></trkpt><trkpt lat="42.37544697788694" lon="13.740411396322598"><ele>1548.0</ele><time>2026-04-19T08:17:28Z</time></trkpt><trkpt lat="42.37535881381142" lon="13.740722451853982"><ele>1548.0</ele><time>2026-04-19T08:17:29Z</time></trkpt><trkpt lat="42.375272353056864" lon="13.7410236962243"><ele>1552.6666666666665</ele><time>2026-04-19T08:17:30Z</time></trkpt><trkpt lat="42.375199181230066" lon="13.74130837512621"><ele>1557.3333333333333</ele><time>2026-04-19T08:17:31Z</time></trkpt><trkpt lat="42.375133824575464" lon="13.741570633689937"><ele>1562.0</ele><time>2026-04-19T08:17:32Z</time></trkpt><trkpt lat="42.37506932910896" lon="13.741804124911331"><ele>1566.3333333333333</ele><time>2026-04-19T08:17:33Z</time></trkpt><trkpt lat="42.37499394209099" lon="13.742023961203232"><ele>1570.6666666666665</ele><time>2026-04-19T08:17:34Z</time></trkpt><trkpt lat="42.374893853472045" lon="13.742239080484268"><ele>1575.0</ele><time>2026-04-19T08:17:35Z</time></trkpt><trkpt lat="42.374789145432224" lon="13.742432814340098"><ele>1575.0</ele><time>2026-04-19T08:17:36Z</time></trkpt><trkpt lat="42.37469183337704" lon="13.7426363617169"><ele>1575.0</ele><time>2026-04-19T08:17:37Z</time></trkpt><trkpt lat="42.37462461755308" lon="13.742865716332584"><ele>1575.0</ele><time>2026-04-19T08:17:38Z</time></trkpt><trkpt lat="42.37455952084543" lon="13.743126017914973"><ele>1575.0</ele><time>2026-04-19T08:17:39Z</time></trkpt><trkpt lat="42.37449972018502" lon="13.743371625553925"><ele>1575.0</ele><time>2026-04-19T08:17:40Z</time></trkpt><trkpt lat="42.3744426375088" lon="13.743582282842011"><ele>1575.0</ele><time>2026-04-19T08:17:41Z</time></trkpt><trkpt lat="42.37439212980269" lon="13.743767815176074"><ele>1575.0</ele><time>2026-04-19T08:17:42Z</time></trkpt><trkpt lat="42.374365435384505" lon="13.743944528240885"><ele>1575.0</ele><time>2026-04-19T08:17:43Z</time></trkpt><trkpt lat="42.37435861873816" lon="13.744104017486968"><ele>1575.0</ele><time>2026-04-19T08:17:44Z</time></trkpt><trkpt lat="42.37442308693798" lon="13.744243385326218"><ele>1575.0</ele><time>2026-04-19T08:17:45Z</time></trkpt><trkpt lat="42.3745063316328" lon="13.744356851547733"><ele>1579.5</ele><time>2026-04-19T08:17:46Z</time></trkpt><trkpt lat="42.374615377377836" lon="13.744430562836513"><ele>1584.0</ele><time>2026-04-19T08:17:47Z</time></trkpt><trkpt lat="42.37474445958749" lon="13.744455797439647"><ele>1588.5</ele><time>2026-04-19T08:17:48Z</time></trkpt><trkpt lat="42.37488601042872" lon="13.744433670421493"><ele>1593.0</ele><time>2026-04-19T08:17:49Z</time></trkpt><trkpt lat="42.375058070651846" lon="13.744387327723576"><ele>1591.3333333333335</ele><time>2026-04-19T08:17:50Z</time></trkpt><trkpt lat="42.37525193586078" lon="13.74434265950902"><ele>1589.6666666666667</ele><time>2026-04-19T08:17:51Z</time></trkpt><trkpt lat="42.3754575421971" lon="13.744301666351703"><ele>1588.0</ele><time>2026-04-19T08:17:52Z</time></trkpt><trkpt lat="42.375680184726434" lon="13.744257473123486"><ele>1588.0</ele><time>2026-04-19T08:17:53Z</time></trkpt><trkpt lat="42.37590229304077" lon="13.744213567814448"><ele>1588.0</ele><time>2026-04-19T08:17:54Z</time></trkpt><trkpt lat="42.37613143240944" lon="13.744154943453339"><ele>1588.0</ele><time>2026-04-19T08:17:55Z</time></trkpt><trkpt lat="42.37635173092831" lon="13.744083368117558"><ele>1588.0</ele><time>2026-04-19T08:17:56Z</time></trkpt><trkpt lat="42.376565370372454" lon="13.744027988661479"><ele>1588.0</ele><time>2026-04-19T08:17:57Z</time></trkpt><trkpt lat="42.37676036403276" lon="13.743957570771194"><ele>1590.3333333333335</ele><time>2026-04-19T08:17:58Z</time></trkpt><trkpt lat="42.37693419582434" lon="13.743894268202068"><ele>1592.6666666666665</ele><time>2026-04-19T08:17:59Z</time></trkpt><trkpt lat="42.377092260343545" lon="13.743837403194718"><ele>1595.0</ele><time>2026-04-19T08:18:00Z</time></trkpt><trkpt lat="42.377249403114405" lon="13.743800254084888"><ele>1595.6666666666665</ele><time>2026-04-19T08:18:01Z</time></trkpt><trkpt lat="42.377433409590346" lon="13.743827172409407"><ele>1596.3333333333335</ele><time>2026-04-19T08:18:02Z</time></trkpt><trkpt lat="42.377655196545554" lon="13.743875972454195"><ele>1597.0</ele><time>2026-04-19T08:18:03Z</time></trkpt><trkpt lat="42.377896341944975" lon="13.743911939665276"><ele>1595.3333333333335</ele><time>2026-04-19T08:18:04Z</time></trkpt><trkpt lat="42.37812334444863" lon="13.743961573764418"><ele>1593.6666666666665</ele><time>2026-04-19T08:18:05Z</time></trkpt><trkpt lat="42.378318848643005" lon="13.744026809921081"><ele>1592.0</ele><time>2026-04-19T08:18:06Z</time></trkpt><trkpt lat="42.37848691919181" lon="13.744079857954832"><ele>1592.0</ele><time>2026-04-19T08:18:07Z</time></trkpt><trkpt lat="42.3786095467991" lon="13.744129710635292"><ele>1592.0</ele><time>2026-04-19T08:18:08Z</time></trkpt><trkpt lat="42.3786927670532" lon="13.744230707264222"><ele>1592.0</ele><time>2026-04-19T08:18:09Z</time></trkpt><trkpt lat="42.378717944819655" lon="13.744378458889651"><ele>1592.0</ele><time>2026-04-19T08:18:10Z</time></trkpt><trkpt lat="42.37873092070064" lon="13.744535305187041"><ele>1595.25</ele><time>2026-04-19T08:18:11Z</time></trkpt><trkpt lat="42.37873702292601" lon="13.744718348852548"><ele>1598.5</ele><time>2026-04-19T08:18:12Z</time></trkpt><trkpt lat="42.37871741122832" lon="13.74491962657219"><ele>1601.75</ele><time>2026-04-19T08:18:13Z</time></trkpt><trkpt lat="42.37874451945419" lon="13.745036968966295"><ele>1605.0</ele><time>2026-04-19T08:18:14Z</time></trkpt><trkpt lat="42.3788367776198" lon="13.745122411684791"><ele>1603.4</ele><time>2026-04-19T08:18:15Z</time></trkpt><trkpt lat="42.379001583414976" lon="13.745184564471261"><ele>1601.8</ele><time>2026-04-19T08:18:17Z</time></trkpt><trkpt lat="42.37906007275892" lon="13.745256819854854"><ele>1600.1999999999998</ele><time>2026-04-19T08:18:18Z</time></trkpt><trkpt lat="42.37910047169087" lon="13.745366630620662"><ele>1598.6</ele><time>2026-04-19T08:18:19Z</time></trkpt><trkpt lat="42.37910423126389" lon="13.745494805104359"><ele>1597.0</ele><time>2026-04-19T08:18:20Z</time></trkpt><trkpt lat="42.3790950701852" lon="13.74562440889165"><ele>1597.0</ele><time>2026-04-19T08:18:21Z</time></trkpt><trkpt lat="42.37909042754029" lon="13.745763087848102"><ele>1597.0</ele><time>2026-04-19T08:18:22Z</time></trkpt><trkpt lat="42.37907394550038" lon="13.745886543238836"><ele>1597.0</ele><time>2026-04-19T08:18:23Z</time></trkpt><trkpt lat="42.37902463911693" lon="13.745994417492241"><ele>1597.0</ele><time>2026-04-19T08:18:24Z</time></trkpt><trkpt lat="42.378938287845806" lon="13.746085010603727"><ele>1597.0</ele><time>2026-04-19T08:18:25Z</time></trkpt><trkpt lat="42.378809911995376" lon="13.746138859651886"><ele>1597.25</ele><time>2026-04-19T08:18:26Z</time></trkpt><trkpt lat="42.37868345172018" lon="13.746217083228219"><ele>1597.5</ele><time>2026-04-19T08:18:27Z</time></trkpt><trkpt lat="42.378576256070865" lon="13.746272938314624"><ele>1597.75</ele><time>2026-04-19T08:18:28Z</time></trkpt><trkpt lat="42.37848823656446" lon="13.74634761636029"><ele>1598.0</ele><time>2026-04-19T08:18:29Z</time></trkpt><trkpt lat="42.378426902106575" lon="13.746451653890022"><ele>1598.0</ele><time>2026-04-19T08:18:30Z</time></trkpt><trkpt lat="42.37840499126116" lon="13.74657465861534"><ele>1598.0</ele><time>2026-04-19T08:18:31Z</time></trkpt><trkpt lat="42.37842080808826" lon="13.746701108630516"><ele>1598.0</ele><time>2026-04-19T08:18:32Z</time></trkpt><trkpt lat="42.378477004152835" lon="13.746818634720142"><ele>1598.0</ele><time>2026-04-19T08:18:33Z</time></trkpt><trkpt lat="42.37857494890129" lon="13.746941330533078"><ele>1598.0</ele><time>2026-04-19T08:18:34Z</time></trkpt><trkpt lat="42.378711636254984" lon="13.747060160220617"><ele>1598.3333333333333</ele><time>2026-04-19T08:18:35Z</time></trkpt><trkpt lat="42.3788375974599" lon="13.7471662686621"><ele>1598.6666666666665</ele><time>2026-04-19T08:18:36Z</time></trkpt><trkpt lat="42.37894271333106" lon="13.747299126704542"><ele>1599.0</ele><time>2026-04-19T08:18:37Z</time></trkpt><trkpt lat="42.379019973734444" lon="13.747489027489818"><ele>1596.0</ele><time>2026-04-19T08:18:38Z</time></trkpt><trkpt lat="42.37909155123678" lon="13.747663871763395"><ele>1593.0</ele><time>2026-04-19T08:18:39Z</time></trkpt><trkpt lat="42.379164127236876" lon="13.747812366012743"><ele>1590.0</ele><time>2026-04-19T08:18:40Z</time></trkpt><trkpt lat="42.37919443615876" lon="13.748001417819673"><ele>1587.0</ele><time>2026-04-19T08:18:41Z</time></trkpt><trkpt lat="42.37920976040729" lon="13.748215076627313"><ele>1586.5</ele><time>2026-04-19T08:18:42Z</time></trkpt><trkpt lat="42.37921880002166" lon="13.748418900345335"><ele>1586.0</ele><time>2026-04-19T08:18:43Z</time></trkpt><trkpt lat="42.37923417759095" lon="13.748604452427038"><ele>1585.5</ele><time>2026-04-19T08:18:44Z</time></trkpt><trkpt lat="42.37925064521865" lon="13.748780285480468"><ele>1585.0</ele><time>2026-04-19T08:18:45Z</time></trkpt><trkpt lat="42.37927001297779" lon="13.748946704181252"><ele>1584.5</ele><time>2026-04-19T08:18:46Z</time></trkpt><trkpt lat="42.379311080543296" lon="13.74909580958737"><ele>1584.0</ele><time>2026-04-19T08:18:47Z</time></trkpt><trkpt lat="42.379388187854985" lon="13.749213153655816"><ele>1583.5</ele><time>2026-04-19T08:18:48Z</time></trkpt><trkpt lat="42.379499162632" lon="13.749287942455208"><ele>1583.0</ele><time>2026-04-19T08:18:49Z</time></trkpt><trkpt lat="42.37964906735623" lon="13.749328389896842"><ele>1583.3333333333333</ele><time>2026-04-19T08:18:50Z</time></trkpt><trkpt lat="42.37981749146415" lon="13.749376569041884"><ele>1583.6666666666665</ele><time>2026-04-19T08:18:51Z</time></trkpt><trkpt lat="42.37999459094727" lon="13.749451321317583"><ele>1584.0</ele><time>2026-04-19T08:18:52Z</time></trkpt><trkpt lat="42.38016320020545" lon="13.749524778808313"><ele>1584.0</ele><time>2026-04-19T08:18:53Z</time></trkpt><trkpt lat="42.38032092146337" lon="13.749582440911459"><ele>1584.0</ele><time>2026-04-19T08:18:54Z</time></trkpt><trkpt lat="42.380469935026674" lon="13.749612693653566"><ele>1584.0</ele><time>2026-04-19T08:18:55Z</time></trkpt><trkpt lat="42.3806120463164" lon="13.749622732392568"><ele>1582.75</ele><time>2026-04-19T08:18:56Z</time></trkpt><trkpt lat="42.38074127372495" lon="13.749611699064339"><ele>1581.5</ele><time>2026-04-19T08:18:57Z</time></trkpt><trkpt lat="42.38086412331941" lon="13.749599759092645"><ele>1580.25</ele><time>2026-04-19T08:18:58Z</time></trkpt><trkpt lat="42.38097398796172" lon="13.749592652817332"><ele>1579.0</ele><time>2026-04-19T08:18:59Z</time></trkpt><trkpt lat="42.381083175336855" lon="13.749605552699354"><ele>1579.0</ele><time>2026-04-19T08:19:00Z</time></trkpt><trkpt lat="42.381188565004585" lon="13.74965418243104"><ele>1579.0</ele><time>2026-04-19T08:19:01Z</time></trkpt><trkpt lat="42.38127115439331" lon="13.749739199041"><ele>1579.0</ele><time>2026-04-19T08:19:02Z</time></trkpt><trkpt lat="42.381325052945094" lon="13.74985874772823"><ele>1579.0</ele><time>2026-04-19T08:19:03Z</time></trkpt><trkpt lat="42.38135301410645" lon="13.74999917057086"><ele>1579.0</ele><time>2026-04-19T08:19:04Z</time></trkpt><trkpt lat="42.381353256731735" lon="13.75014633451326"><ele>1578.8000000000002</ele><time>2026-04-19T08:19:05Z</time></trkpt><trkpt lat="42.38132729496296" lon="13.750286552937046"><ele>1578.6000000000001</ele><time>2026-04-19T08:19:06Z</time></trkpt><trkpt lat="42.38129537204481" lon="13.750425860909603"><ele>1578.4</ele><time>2026-04-19T08:19:07Z</time></trkpt><trkpt lat="42.38126875359282" lon="13.750547899829414"><ele>1578.2</ele><time>2026-04-19T08:19:08Z</time></trkpt><trkpt lat="42.38125685902603" lon="13.750664908431178"><ele>1578.0</ele><time>2026-04-19T08:19:09Z</time></trkpt><trkpt lat="42.38125243734311" lon="13.750779031111882"><ele>1578.0</ele><time>2026-04-19T08:19:10Z</time></trkpt><trkpt lat="42.38125716955444" lon="13.750884989702865"><ele>1578.0</ele><time>2026-04-19T08:19:11Z</time></trkpt><trkpt lat="42.381275222834006" lon="13.750994229791438"><ele>1578.0</ele><time>2026-04-19T08:19:12Z</time></trkpt><trkpt lat="42.38130097256049" lon="13.751095197860929"><ele>1578.0</ele><time>2026-04-19T08:19:13Z</time></trkpt><trkpt lat="42.38132966912855" lon="13.751194024167273"><ele>1578.0</ele><time>2026-04-19T08:19:14Z</time></trkpt><trkpt lat="42.38136845686196" lon="13.751287236459357"><ele>1578.0</ele><time>2026-04-19T08:19:15Z</time></trkpt><trkpt lat="42.38141636162006" lon="13.751372437337976"><ele>1576.3333333333333</ele><time>2026-04-19T08:19:16Z</time></trkpt><trkpt lat="42.381450749003314" lon="13.751467497743956"><ele>1574.6666666666665</ele><time>2026-04-19T08:19:17Z</time></trkpt><trkpt lat="42.381495968483705" lon="13.751552371543001"><ele>1573.0</ele><time>2026-04-19T08:19:18Z</time></trkpt><trkpt lat="42.381552237353326" lon="13.751631034670456"><ele>1571.3333333333333</ele><time>2026-04-19T08:19:19Z</time></trkpt><trkpt lat="42.381590428313174" lon="13.75171979459147"><ele>1569.6666666666665</ele><time>2026-04-19T08:19:20Z</time></trkpt><trkpt lat="42.381627633095974" lon="13.75181270017483"><ele>1568.0</ele><time>2026-04-19T08:19:21Z</time></trkpt><trkpt lat="42.38166183085255" lon="13.751907918919706"><ele>1567.4999999999998</ele><time>2026-04-19T08:19:22Z</time></trkpt><trkpt lat="42.38168838459191" lon="13.752007909731248"><ele>1567.0</ele><time>2026-04-19T08:19:23Z</time></trkpt><trkpt lat="42.381691925046454" lon="13.752107557250726"><ele>1566.5</ele><time>2026-04-19T08:19:24Z</time></trkpt><trkpt lat="42.38166102330815" lon="13.752202757900713"><ele>1566.0</ele><time>2026-04-19T08:19:25Z</time></trkpt><trkpt lat="42.38160618888434" lon="13.752274050071284"><ele>1565.4999999999998</ele><time>2026-04-19T08:19:26Z</time></trkpt><trkpt lat="42.38153015319125" lon="13.752287168722615"><ele>1565.0</ele><time>2026-04-19T08:19:27Z</time></trkpt><trkpt lat="42.381464366330945" lon="13.752331430460092"><ele>1565.0000000000002</ele><time>2026-04-19T08:19:28Z</time></trkpt><trkpt lat="42.38139495194224" lon="13.752353571587303"><ele>1565.0</ele><time>2026-04-19T08:19:29Z</time></trkpt><trkpt lat="42.38132808488893" lon="13.752386935737958"><ele>1565.0</ele><time>2026-04-19T08:19:30Z</time></trkpt><trkpt lat="42.38126695145809" lon="13.752440227286295"><ele>1565.0</ele><time>2026-04-19T08:19:31Z</time></trkpt><trkpt lat="42.38122059107677" lon="13.752520640768221"><ele>1565.0</ele><time>2026-04-19T08:19:32Z</time></trkpt><trkpt lat="42.381203980197405" lon="13.752623454808639"><ele>1565.0000000000002</ele><time>2026-04-19T08:19:33Z</time></trkpt><trkpt lat="42.38121324739617" lon="13.752727150874593"><ele>1565.0</ele><time>2026-04-19T08:19:34Z</time></trkpt><trkpt lat="42.381235991389694" lon="13.752819183466132"><ele>1565.7142857142858</ele><time>2026-04-19T08:19:35Z</time></trkpt><trkpt lat="42.381260520618056" lon="13.752912333430348"><ele>1566.4285714285716</ele><time>2026-04-19T08:19:36Z</time></trkpt><trkpt lat="42.381286681507454" lon="13.753001574803653"><ele>1567.1428571428573</ele><time>2026-04-19T08:19:37Z</time></trkpt><trkpt lat="42.38130617498854" lon="13.753091189238479"><ele>1567.857142857143</ele><time>2026-04-19T08:19:38Z</time></trkpt><trkpt lat="42.381315362468875" lon="13.753192394260711"><ele>1568.5714285714284</ele><time>2026-04-19T08:19:39Z</time></trkpt><trkpt lat="42.3813360675547" lon="13.753284521220923"><ele>1569.2857142857144</ele><time>2026-04-19T08:19:40Z</time></trkpt><trkpt lat="42.381370942629935" lon="13.753370858437336"><ele>1570.0</ele><time>2026-04-19T08:19:41Z</time></trkpt><trkpt lat="42.38138260080782" lon="13.753467819036983"><ele>1568.857142857143</ele><time>2026-04-19T08:19:42Z</time></trkpt><trkpt lat="42.38139356253224" lon="13.753565556419506"><ele>1567.7142857142856</ele><time>2026-04-19T08:19:43Z</time></trkpt><trkpt lat="42.38139985228238" lon="13.753663413616962"><ele>1566.5714285714284</ele><time>2026-04-19T08:19:44Z</time></trkpt><trkpt lat="42.381392988814135" lon="13.753762956162747"><ele>1565.4285714285716</ele><time>2026-04-19T08:19:45Z</time></trkpt><trkpt lat="42.38136353460479" lon="13.753859744623997"><ele>1564.2857142857142</ele><time>2026-04-19T08:19:46Z</time></trkpt><trkpt lat="42.38132109721017" lon="13.75394061709867"><ele>1563.142857142857</ele><time>2026-04-19T08:19:47Z</time></trkpt><trkpt lat="42.38127646288654" lon="13.754019031717975"><ele>1562.0</ele><time>2026-04-19T08:19:48Z</time></trkpt><trkpt lat="42.38122683641641" lon="13.754093181712555"><ele>1562.0</ele><time>2026-04-19T08:19:49Z</time></trkpt><trkpt lat="42.381181498437165" lon="13.754167702396815"><ele>1562.0</ele><time>2026-04-19T08:19:50Z</time></trkpt><trkpt lat="42.38114273448795" lon="13.754248920999432"><ele>1562.0</ele><time>2026-04-19T08:19:51Z</time></trkpt><trkpt lat="42.38112241451105" lon="13.754344482422647"><ele>1562.0</ele><time>2026-04-19T08:19:52Z</time></trkpt><trkpt lat="42.38114153530138" lon="13.754444200391884"><ele>1562.0</ele><time>2026-04-19T08:19:53Z</time></trkpt><trkpt lat="42.38118655001777" lon="13.754523831846981"><ele>1562.0</ele><time>2026-04-19T08:19:54Z</time></trkpt><trkpt lat="42.38124825606125" lon="13.75457787304576"><ele>1562.0</ele><time>2026-04-19T08:19:55Z</time></trkpt><trkpt lat="42.38130797997675" lon="13.754621980762737"><ele>1559.857142857143</ele><time>2026-04-19T08:19:56Z</time></trkpt><trkpt lat="42.38136602138337" lon="13.754668217418102"><ele>1557.7142857142858</ele><time>2026-04-19T08:19:57Z</time></trkpt><trkpt lat="42.38142235041509" lon="13.75471601426162"><ele>1555.5714285714284</ele><time>2026-04-19T08:19:58Z</time></trkpt><trkpt lat="42.38146791561789" lon="13.754776146159188"><ele>1553.4285714285716</ele><time>2026-04-19T08:19:59Z</time></trkpt><trkpt lat="42.38150672417296" lon="13.754849808205362"><ele>1551.2857142857142</ele><time>2026-04-19T08:20:00Z</time></trkpt><trkpt lat="42.38153807578685" lon="13.754930143707565"><ele>1549.142857142857</ele><time>2026-04-19T08:20:01Z</time></trkpt><trkpt lat="42.38155028896292" lon="13.755024678703835"><ele>1547.0</ele><time>2026-04-19T08:20:02Z</time></trkpt><trkpt lat="42.381544537660886" lon="13.75511883695479"><ele>1547.0</ele><time>2026-04-19T08:20:03Z</time></trkpt><trkpt lat="42.38158767190231" lon="13.755190491194199"><ele>1547.0</ele><time>2026-04-19T08:20:04Z</time></trkpt><trkpt lat="42.381505762757726" lon="13.755368131204978"><ele>1547.0</ele><time>2026-04-19T08:20:05Z</time></trkpt><trkpt lat="42.38148160434728" lon="13.755523394277615"><ele>1547.0</ele><time>2026-04-19T08:20:06Z</time></trkpt><trkpt lat="42.381459609744674" lon="13.75567815974132"><ele>1545.3999999999999</ele><time>2026-04-19T08:20:07Z</time></trkpt><trkpt lat="42.381443471577775" lon="13.755825509310045"><ele>1543.8</ele><time>2026-04-19T08:20:08Z</time></trkpt><trkpt lat="42.38142557865945" lon="13.75596080361727"><ele>1542.2</ele><time>2026-04-19T08:20:09Z</time></trkpt><trkpt lat="42.381406789511544" lon="13.756095087529893"><ele>1540.6</ele><time>2026-04-19T08:20:10Z</time></trkpt><trkpt lat="42.381387135333114" lon="13.756222538378935"><ele>1539.0</ele><time>2026-04-19T08:20:11Z</time></trkpt><trkpt lat="42.38136927316153" lon="13.756350323876887"><ele>1539.25</ele><time>2026-04-19T08:20:12Z</time></trkpt><trkpt lat="42.38135224451328" lon="13.75650276693343"><ele>1539.5</ele><time>2026-04-19T08:20:13Z</time></trkpt><trkpt lat="42.381332926683115" lon="13.756677076377068"><ele>1539.75</ele><time>2026-04-19T08:20:14Z</time></trkpt><trkpt lat="42.38131462138606" lon="13.756857783015542"><ele>1540.0</ele><time>2026-04-19T08:20:15Z</time></trkpt><trkpt lat="42.381286595603484" lon="13.757023915842822"><ele>1539.2</ele><time>2026-04-19T08:20:16Z</time></trkpt><trkpt lat="42.3812573834815" lon="13.757173080919513"><ele>1538.4</ele><time>2026-04-19T08:20:17Z</time></trkpt><trkpt lat="42.3812249596458" lon="13.757305390997072"><ele>1537.6</ele><time>2026-04-19T08:20:18Z</time></trkpt><trkpt lat="42.38120106721166" lon="13.757422901808498"><ele>1536.8</ele><time>2026-04-19T08:20:19Z</time></trkpt><trkpt lat="42.38121010535517" lon="13.757544410427709"><ele>1536.0</ele><time>2026-04-19T08:20:20Z</time></trkpt><trkpt lat="42.3812522518764" lon="13.757658549014328"><ele>1535.5</ele><time>2026-04-19T08:20:21Z</time></trkpt><trkpt lat="42.381311210123215" lon="13.757761498607579"><ele>1535.0</ele><time>2026-04-19T08:20:22Z</time></trkpt><trkpt lat="42.38136950031886" lon="13.7578536551037"><ele>1534.5</ele><time>2026-04-19T08:20:23Z</time></trkpt><trkpt lat="42.381418838151916" lon="13.757951118228299"><ele>1534.0</ele><time>2026-04-19T08:20:24Z</time></trkpt><trkpt lat="42.38145603401622" lon="13.758051170318298"><ele>1533.5</ele><time>2026-04-19T08:20:25Z</time></trkpt><trkpt lat="42.38149813117938" lon="13.758153426161398"><ele>1533.0</ele><time>2026-04-19T08:20:26Z</time></trkpt><trkpt lat="42.381535665432274" lon="13.758255916964652"><ele>1532.3333333333333</ele><time>2026-04-19T08:20:27Z</time></trkpt><trkpt lat="42.38157057720754" lon="13.758354565009105"><ele>1531.6666666666667</ele><time>2026-04-19T08:20:28Z</time></trkpt><trkpt lat="42.381604720525495" lon="13.758456193421965"><ele>1531.0</ele><time>2026-04-19T08:20:29Z</time></trkpt><trkpt lat="42.38162552402497" lon="13.758571972378839"><ele>1530.3333333333335</ele><time>2026-04-19T08:20:30Z</time></trkpt><trkpt lat="42.38163187913479" lon="13.758682060018355"><ele>1529.6666666666667</ele><time>2026-04-19T08:20:31Z</time></trkpt><trkpt lat="42.381608278537314" lon="13.758790176920337"><ele>1529.0</ele><time>2026-04-19T08:20:32Z</time></trkpt><trkpt lat="42.38155266257277" lon="13.758907654595353"><ele>1528.2</ele><time>2026-04-19T08:20:33Z</time></trkpt><trkpt lat="42.38146673445015" lon="13.75899790684179"><ele>1527.4</ele><time>2026-04-19T08:20:34Z</time></trkpt><trkpt lat="42.381373392462805" lon="13.759092084150508"><ele>1526.6</ele><time>2026-04-19T08:20:35Z</time></trkpt><trkpt lat="42.38132987690487" lon="13.759206898112511"><ele>1525.8</ele><time>2026-04-19T08:20:36Z</time></trkpt><trkpt lat="42.38134064148899" lon="13.759338937012613"><ele>1525.0</ele><time>2026-04-19T08:20:37Z</time></trkpt><trkpt lat="42.38139903292228" lon="13.759472865326053"><ele>1523.0</ele><time>2026-04-19T08:20:38Z</time></trkpt><trkpt lat="42.381504051719844" lon="13.759627084602863"><ele>1521.0</ele><time>2026-04-19T08:20:39Z</time></trkpt><trkpt lat="42.38161121883291" lon="13.75979672877628"><ele>1519.0</ele><time>2026-04-19T08:20:40Z</time></trkpt><trkpt lat="42.381684397120495" lon="13.759985342399768"><ele>1519.0</ele><time>2026-04-19T08:20:41Z</time></trkpt><trkpt lat="42.38172025971949" lon="13.7601962856957"><ele>1519.0</ele><time>2026-04-19T08:20:42Z</time></trkpt><trkpt lat="42.381747101436495" lon="13.760404094088418"><ele>1519.0</ele><time>2026-04-19T08:20:43Z</time></trkpt><trkpt lat="42.38178159351201" lon="13.760587581481534"><ele>1518.5</ele><time>2026-04-19T08:20:44Z</time></trkpt><trkpt lat="42.38183516363665" lon="13.760732479462934"><ele>1518.0</ele><time>2026-04-19T08:20:45Z</time></trkpt><trkpt lat="42.38193015698051" lon="13.760839822162453"><ele>1517.5</ele><time>2026-04-19T08:20:46Z</time></trkpt><trkpt lat="42.38205816488082" lon="13.760912301460415"><ele>1517.0</ele><time>2026-04-19T08:20:47Z</time></trkpt><trkpt lat="42.38221200155091" lon="13.760996209212257"><ele>1518.25</ele><time>2026-04-19T08:20:48Z</time></trkpt><trkpt lat="42.382362553435165" lon="13.761081140753438"><ele>1519.5</ele><time>2026-04-19T08:20:49Z</time></trkpt><trkpt lat="42.38249277851834" lon="13.761160909884724"><ele>1520.75</ele><time>2026-04-19T08:20:50Z</time></trkpt><trkpt lat="42.38261059814591" lon="13.761240902566314"><ele>1522.0</ele><time>2026-04-19T08:20:51Z</time></trkpt><trkpt lat="42.382724039834514" lon="13.7613058216947"><ele>1522.0</ele><time>2026-04-19T08:20:52Z</time></trkpt><trkpt lat="42.382842985854495" lon="13.761330803912145"><ele>1522.0</ele><time>2026-04-19T08:20:53Z</time></trkpt><trkpt lat="42.38296066164064" lon="13.761311909908173"><ele>1522.0</ele><time>2026-04-19T08:20:54Z</time></trkpt><trkpt lat="42.383072977410805" lon="13.761268019233844"><ele>1522.0</ele><time>2026-04-19T08:20:55Z</time></trkpt><trkpt lat="42.38318893246475" lon="13.761214039328427"><ele>1520.6</ele><time>2026-04-19T08:20:56Z</time></trkpt><trkpt lat="42.38329387942976" lon="13.761172329764003"><ele>1519.1999999999998</ele><time>2026-04-19T08:20:57Z</time></trkpt><trkpt lat="42.38340212723556" lon="13.76112827871712"><ele>1517.8</ele><time>2026-04-19T08:20:58Z</time></trkpt><trkpt lat="42.38351133453616" lon="13.761094092506589"><ele>1516.4</ele><time>2026-04-19T08:20:59Z</time></trkpt><trkpt lat="42.383617724701345" lon="13.76108430138998"><ele>1515.0</ele><time>2026-04-19T08:21:00Z</time></trkpt><trkpt lat="42.383725583982795" lon="13.761093420266409"><ele>1515.0</ele><time>2026-04-19T08:21:01Z</time></trkpt><trkpt lat="42.38382830746468" lon="13.761111623732798"><ele>1515.0</ele><time>2026-04-19T08:21:02Z</time></trkpt><trkpt lat="42.383927852953114" lon="13.76111616803011"><ele>1515.0</ele><time>2026-04-19T08:21:03Z</time></trkpt><trkpt lat="42.38402586232853" lon="13.761105285607787"><ele>1515.0</ele><time>2026-04-19T08:21:04Z</time></trkpt><trkpt lat="42.38411940512648" lon="13.76106767591332"><ele>1515.0</ele><time>2026-04-19T08:21:05Z</time></trkpt><trkpt lat="42.38420626490013" lon="13.761010581584507"><ele>1509.0</ele><time>2026-04-19T08:21:06Z</time></trkpt><trkpt lat="42.38430487466518" lon="13.760951100283963"><ele>1503.0</ele><time>2026-04-19T08:21:07Z</time></trkpt><trkpt lat="42.38441469562932" lon="13.760885258905876"><ele>1497.0</ele><time>2026-04-19T08:21:08Z</time></trkpt><trkpt lat="42.38452875306153" lon="13.760811353488437"><ele>1491.0</ele><time>2026-04-19T08:21:09Z</time></trkpt><trkpt lat="42.38463848998674" lon="13.760730906344609"><ele>1492.6</ele><time>2026-04-19T08:21:10Z</time></trkpt><trkpt lat="42.38473578963112" lon="13.760645287023868"><ele>1494.1999999999998</ele><time>2026-04-19T08:21:11Z</time></trkpt><trkpt lat="42.38483419760593" lon="13.760578740671432"><ele>1495.8000000000002</ele><time>2026-04-19T08:21:12Z</time></trkpt><trkpt lat="42.38492950786698" lon="13.760543185420282"><ele>1497.4</ele><time>2026-04-19T08:21:13Z</time></trkpt><trkpt lat="42.38500718192498" lon="13.760518624960202"><ele>1499.0</ele><time>2026-04-19T08:21:14Z</time></trkpt><trkpt lat="42.385047836508534" lon="13.760367747587841"><ele>1499.0</ele><time>2026-04-19T08:21:16Z</time></trkpt><trkpt lat="42.38500665491942" lon="13.760292376454464"><ele>1499.0</ele><time>2026-04-19T08:21:17Z</time></trkpt><trkpt lat="42.38493257813353" lon="13.760265751249513"><ele>1499.0</ele><time>2026-04-19T08:21:18Z</time></trkpt><trkpt lat="42.38483528521237" lon="13.760292466172888"><ele>1499.0</ele><time>2026-04-19T08:21:19Z</time></trkpt><trkpt lat="42.38473231138187" lon="13.760374651344318"><ele>1499.0</ele><time>2026-04-19T08:21:20Z</time></trkpt><trkpt lat="42.384617418109414" lon="13.760495471091474"><ele>1497.0</ele><time>2026-04-19T08:21:21Z</time></trkpt><trkpt lat="42.384498100741666" lon="13.760610597221481"><ele>1495.0</ele><time>2026-04-19T08:21:22Z</time></trkpt><trkpt lat="42.38436975844029" lon="13.760689929326901"><ele>1493.0</ele><time>2026-04-19T08:21:23Z</time></trkpt><trkpt lat="42.384217510657685" lon="13.760735870245574"><ele>1491.0</ele><time>2026-04-19T08:21:24Z</time></trkpt><trkpt lat="42.38405651749539" lon="13.760731069239084"><ele>1491.0</ele><time>2026-04-19T08:21:25Z</time></trkpt><trkpt lat="42.383915268864676" lon="13.760683605711899"><ele>1491.0</ele><time>2026-04-19T08:21:26Z</time></trkpt><trkpt lat="42.38378464180585" lon="13.760585446789086"><ele>1491.0</ele><time>2026-04-19T08:21:27Z</time></trkpt><trkpt lat="42.3836469044344" lon="13.760469823399497"><ele>1492.75</ele><time>2026-04-19T08:21:28Z</time></trkpt><trkpt lat="42.38350049083201" lon="13.76039457588529"><ele>1494.5</ele><time>2026-04-19T08:21:29Z</time></trkpt><trkpt lat="42.38336029451943" lon="13.760375701314706"><ele>1496.25</ele><time>2026-04-19T08:21:30Z</time></trkpt><trkpt lat="42.38324020751153" lon="13.760377272103955"><ele>1498.0</ele><time>2026-04-19T08:21:31Z</time></trkpt><trkpt lat="42.383154823514154" lon="13.760334958786911"><ele>1498.0</ele><time>2026-04-19T08:21:32Z</time></trkpt><trkpt lat="42.38309888414741" lon="13.76025255820986"><ele>1498.0</ele><time>2026-04-19T08:21:33Z</time></trkpt><trkpt lat="42.383081213521415" lon="13.760135813712866"><ele>1498.0</ele><time>2026-04-19T08:21:34Z</time></trkpt><trkpt lat="42.38308040482932" lon="13.759974267066331"><ele>1498.0</ele><time>2026-04-19T08:21:35Z</time></trkpt><trkpt lat="42.38308816216657" lon="13.759772906955794"><ele>1498.0</ele><time>2026-04-19T08:21:36Z</time></trkpt><trkpt lat="42.383086274556014" lon="13.759581252358712"><ele>1493.75</ele><time>2026-04-19T08:21:37Z</time></trkpt><trkpt lat="42.38307233956876" lon="13.7594220555585"><ele>1489.5</ele><time>2026-04-19T08:21:38Z</time></trkpt><trkpt lat="42.383056960126424" lon="13.759271081706105"><ele>1485.25</ele><time>2026-04-19T08:21:39Z</time></trkpt><trkpt lat="42.383044285571025" lon="13.759113415961506"><ele>1481.0</ele><time>2026-04-19T08:21:40Z</time></trkpt><trkpt lat="42.383022154589945" lon="13.758939617905838"><ele>1484.75</ele><time>2026-04-19T08:21:41Z</time></trkpt><trkpt lat="42.38299339931859" lon="13.75875527249766"><ele>1488.5</ele><time>2026-04-19T08:21:42Z</time></trkpt><trkpt lat="42.382971516909514" lon="13.758582474036874"><ele>1492.25</ele><time>2026-04-19T08:21:43Z</time></trkpt><trkpt lat="42.38295802749639" lon="13.758427210682889"><ele>1496.0</ele><time>2026-04-19T08:21:44Z</time></trkpt><trkpt lat="42.382946909855576" lon="13.758284709406158"><ele>1496.0</ele><time>2026-04-19T08:21:45Z</time></trkpt><trkpt lat="42.382934194198285" lon="13.75815807037403"><ele>1496.0</ele><time>2026-04-19T08:21:46Z</time></trkpt><trkpt lat="42.38293052297194" lon="13.758034290784664"><ele>1496.0</ele><time>2026-04-19T08:21:47Z</time></trkpt><trkpt lat="42.38295157344328" lon="13.757916147154805"><ele>1496.0</ele><time>2026-04-19T08:21:48Z</time></trkpt><trkpt lat="42.38301045269154" lon="13.757813706987573"><ele>1496.0</ele><time>2026-04-19T08:21:49Z</time></trkpt><trkpt lat="42.383103099938545" lon="13.757752366852353"><ele>1491.0</ele><time>2026-04-19T08:21:50Z</time></trkpt><trkpt lat="42.38321509153984" lon="13.757744943137757"><ele>1486.0</ele><time>2026-04-19T08:21:51Z</time></trkpt><trkpt lat="42.38332472121225" lon="13.757785966117398"><ele>1481.0</ele><time>2026-04-19T08:21:52Z</time></trkpt><trkpt lat="42.383425077288756" lon="13.757815805502052"><ele>1476.0</ele><time>2026-04-19T08:21:53Z</time></trkpt><trkpt lat="42.3835024343994" lon="13.757792140658513"><ele>1471.0</ele><time>2026-04-19T08:21:54Z</time></trkpt><trkpt lat="42.383567131158614" lon="13.757715450564183"><ele>1472.75</ele><time>2026-04-19T08:21:55Z</time></trkpt><trkpt lat="42.3835905264503" lon="13.75759453880391"><ele>1474.5</ele><time>2026-04-19T08:21:56Z</time></trkpt><trkpt lat="42.38362233782326" lon="13.757410150777712"><ele>1476.25</ele><time>2026-04-19T08:21:57Z</time></trkpt><trkpt lat="42.38369968484097" lon="13.757252034786232"><ele>1478.0</ele><time>2026-04-19T08:21:58Z</time></trkpt><trkpt lat="42.383815983088745" lon="13.757136393908619"><ele>1475.5</ele><time>2026-04-19T08:21:59Z</time></trkpt><trkpt lat="42.38393664384912" lon="13.757073599165777"><ele>1473.0</ele><time>2026-04-19T08:22:00Z</time></trkpt><trkpt lat="42.38402274610688" lon="13.756989657329724"><ele>1470.5</ele><time>2026-04-19T08:22:01Z</time></trkpt><trkpt lat="42.38408641902781" lon="13.756852319389155"><ele>1468.0</ele><time>2026-04-19T08:22:02Z</time></trkpt><trkpt lat="42.38413991299056" lon="13.756656989561927"><ele>1468.0</ele><time>2026-04-19T08:22:03Z</time></trkpt><trkpt lat="42.38419906622195" lon="13.756451976571295"><ele>1468.0</ele><time>2026-04-19T08:22:04Z</time></trkpt><trkpt lat="42.38424358703329" lon="13.7562612640994"><ele>1468.0</ele><time>2026-04-19T08:22:05Z</time></trkpt><trkpt lat="42.38433091330922" lon="13.756106173783115"><ele>1472.0</ele><time>2026-04-19T08:22:06Z</time></trkpt><trkpt lat="42.38442174494348" lon="13.755962835944121"><ele>1476.0</ele><time>2026-04-19T08:22:07Z</time></trkpt><trkpt lat="42.38450671612834" lon="13.755835628513303"><ele>1480.0</ele><time>2026-04-19T08:22:08Z</time></trkpt><trkpt lat="42.38457973763463" lon="13.755703714118166"><ele>1484.0</ele><time>2026-04-19T08:22:09Z</time></trkpt><trkpt lat="42.384636676243886" lon="13.755573182798894"><ele>1484.0</ele><time>2026-04-19T08:22:10Z</time></trkpt><trkpt lat="42.38467929742672" lon="13.755434908107574"><ele>1484.0</ele><time>2026-04-19T08:22:11Z</time></trkpt><trkpt lat="42.38471432040269" lon="13.755300777640455"><ele>1484.0</ele><time>2026-04-19T08:22:12Z</time></trkpt><trkpt lat="42.384748334318864" lon="13.755163934288168"><ele>1484.0</ele><time>2026-04-19T08:22:13Z</time></trkpt><trkpt lat="42.38477466658276" lon="13.755042460258439"><ele>1484.0</ele><time>2026-04-19T08:22:14Z</time></trkpt><trkpt lat="42.3847997547011" lon="13.754917624604948"><ele>1482.5</ele><time>2026-04-19T08:22:15Z</time></trkpt><trkpt lat="42.38482930657205" lon="13.75479690591885"><ele>1481.0</ele><time>2026-04-19T08:22:16Z</time></trkpt><trkpt lat="42.38486275361053" lon="13.754689562458692"><ele>1479.5</ele><time>2026-04-19T08:22:17Z</time></trkpt><trkpt lat="42.38489598290404" lon="13.754585601552021"><ele>1478.0</ele><time>2026-04-19T08:22:18Z</time></trkpt><trkpt lat="42.384946865687255" lon="13.754493789540014"><ele>1476.5</ele><time>2026-04-19T08:22:19Z</time></trkpt><trkpt lat="42.3849911169712" lon="13.754411397884725"><ele>1475.0</ele><time>2026-04-19T08:22:20Z</time></trkpt><trkpt lat="42.385028355290686" lon="13.75432244379146"><ele>1475.0</ele><time>2026-04-19T08:22:21Z</time></trkpt><trkpt lat="42.38506198738551" lon="13.754244510059161"><ele>1475.0</ele><time>2026-04-19T08:22:22Z</time></trkpt><trkpt lat="42.38510130684859" lon="13.754173821634529"><ele>1475.0</ele><time>2026-04-19T08:22:23Z</time></trkpt><trkpt lat="42.385161508704954" lon="13.754037022414439"><ele>1475.0</ele><time>2026-04-19T08:22:25Z</time></trkpt><trkpt lat="42.385234812623324" lon="13.75393180073117"><ele>1475.0</ele><time>2026-04-19T08:22:27Z</time></trkpt><trkpt lat="42.38528603418564" lon="13.753813719429598"><ele>1475.0</ele><time>2026-04-19T08:22:29Z</time></trkpt><trkpt lat="42.38533359527017" lon="13.753712621592307"><ele>1475.0</ele><time>2026-04-19T08:22:31Z</time></trkpt><trkpt lat="42.38539950403393" lon="13.753627012874862"><ele>1475.0</ele><time>2026-04-19T08:22:33Z</time></trkpt><trkpt lat="42.38543606039177" lon="13.75351738653467"><ele>1475.0</ele><time>2026-04-19T08:22:35Z</time></trkpt><trkpt lat="42.38548119992928" lon="13.75342405520318"><ele>1475.0</ele><time>2026-04-19T08:22:37Z</time></trkpt><trkpt lat="42.3855237588612" lon="13.753342304406868"><ele>1475.0</ele><time>2026-04-19T08:22:39Z</time></trkpt><trkpt lat="42.38557180997578" lon="13.753227324028963"><ele>1472.1666666666667</ele><time>2026-04-19T08:22:42Z</time></trkpt><trkpt lat="42.38560397609448" lon="13.753140009231338"><ele>1469.3333333333335</ele><time>2026-04-19T08:22:44Z</time></trkpt><trkpt lat="42.385641550295446" lon="13.753042437465055"><ele>1466.5</ele><time>2026-04-19T08:22:46Z</time></trkpt><trkpt lat="42.385684483784" lon="13.752945818448834"><ele>1463.6666666666667</ele><time>2026-04-19T08:22:48Z</time></trkpt><trkpt lat="42.38571912118092" lon="13.752840397631775"><ele>1460.8333333333333</ele><time>2026-04-19T08:22:50Z</time></trkpt><trkpt lat="42.385757286153456" lon="13.752728079204164"><ele>1458.0</ele><time>2026-04-19T08:22:52Z</time></trkpt><trkpt lat="42.385815273098956" lon="13.752625934146534"><ele>1458.0</ele><time>2026-04-19T08:22:54Z</time></trkpt><trkpt lat="42.38589275142831" lon="13.75254915389105"><ele>1458.0</ele><time>2026-04-19T08:22:56Z</time></trkpt><trkpt lat="42.38597462144828" lon="13.752445954527516"><ele>1458.0</ele><time>2026-04-19T08:22:58Z</time></trkpt><trkpt lat="42.38605256209433" lon="13.752347569388197"><ele>1458.0</ele><time>2026-04-19T08:23:00Z</time></trkpt><trkpt lat="42.38614255504314" lon="13.752251009517542"><ele>1458.0</ele><time>2026-04-19T08:23:02Z</time></trkpt><trkpt lat="42.38623159882016" lon="13.752158685890794"><ele>1458.0</ele><time>2026-04-19T08:23:04Z</time></trkpt><trkpt lat="42.38631761089795" lon="13.752032722682129"><ele>1458.0</ele><time>2026-04-19T08:23:06Z</time></trkpt><trkpt lat="42.38639803256793" lon="13.751937939160289"><ele>1458.0</ele><time>2026-04-19T08:23:08Z</time></trkpt><trkpt lat="42.386463156917" lon="13.75182384642861"><ele>1458.0</ele><time>2026-04-19T08:23:10Z</time></trkpt><trkpt lat="42.386512251955104" lon="13.751701229551989"><ele>1458.0</ele><time>2026-04-19T08:23:12Z</time></trkpt><trkpt lat="42.38655595030077" lon="13.75159351574401"><ele>1457.0</ele><time>2026-04-19T08:23:14Z</time></trkpt><trkpt lat="42.38659834458936" lon="13.75149167306124"><ele>1456.0</ele><time>2026-04-19T08:23:16Z</time></trkpt><trkpt lat="42.38663245667532" lon="13.751387884836369"><ele>1455.0</ele><time>2026-04-19T08:23:18Z</time></trkpt><trkpt lat="42.38665983868762" lon="13.75129891421076"><ele>1454.0</ele><time>2026-04-19T08:23:20Z</time></trkpt><trkpt lat="42.38668612817093" lon="13.751212580184005"><ele>1453.0</ele><time>2026-04-19T08:23:22Z</time></trkpt><trkpt lat="42.386712010564096" lon="13.751134357381474"><ele>1452.0</ele><time>2026-04-19T08:23:24Z</time></trkpt><trkpt lat="42.386740400975626" lon="13.751029806996131"><ele>1452.0</ele><time>2026-04-19T08:23:27Z</time></trkpt><trkpt lat="42.386776062330604" lon="13.750956929548076"><ele>1452.0</ele><time>2026-04-19T08:23:29Z</time></trkpt><trkpt lat="42.3868074465666" lon="13.75086052984543"><ele>1452.0</ele><time>2026-04-19T08:23:30Z</time></trkpt><trkpt lat="42.38684528033202" lon="13.750731807748721"><ele>1452.0</ele><time>2026-04-19T08:23:31Z</time></trkpt><trkpt lat="42.3868950749202" lon="13.750568981376704"><ele>1452.0</ele><time>2026-04-19T08:23:32Z</time></trkpt><trkpt lat="42.38693966426454" lon="13.750416414141819"><ele>1452.0</ele><time>2026-04-19T08:23:33Z</time></trkpt><trkpt lat="42.38697745441989" lon="13.750288334833733"><ele>1452.0</ele><time>2026-04-19T08:23:34Z</time></trkpt><trkpt lat="42.38702512010889" lon="13.750152932374592"><ele>1452.0</ele><time>2026-04-19T08:23:35Z</time></trkpt><trkpt lat="42.38709006611858" lon="13.750026567743657"><ele>1452.0</ele><time>2026-04-19T08:23:36Z</time></trkpt><trkpt lat="42.387169406708324" lon="13.749918727539834"><ele>1452.0</ele><time>2026-04-19T08:23:37.001Z</time></trkpt><trkpt lat="42.38726467657339" lon="13.749849379670216"><ele>1450.5</ele><time>2026-04-19T08:23:38.001Z</time></trkpt><trkpt lat="42.38738275954606" lon="13.74982192311718"><ele>1449.0</ele><time>2026-04-19T08:23:39.001Z</time></trkpt><trkpt lat="42.38750756588784" lon="13.749832149424583"><ele>1447.5</ele><time>2026-04-19T08:23:40.001Z</time></trkpt><trkpt lat="42.38762339116772" lon="13.749898631114625"><ele>1446.0</ele><time>2026-04-19T08:23:41.001Z</time></trkpt><trkpt lat="42.38773544834815" lon="13.750002012833159"><ele>1446.0</ele><time>2026-04-19T08:23:42.001Z</time></trkpt><trkpt lat="42.38785486744591" lon="13.750144623798143"><ele>1446.0</ele><time>2026-04-19T08:23:43.001Z</time></trkpt><trkpt lat="42.38797814747737" lon="13.750358447525183"><ele>1446.0</ele><time>2026-04-19T08:23:44.001Z</time></trkpt><trkpt lat="42.38809481284868" lon="13.750599496307556"><ele>1445.5</ele><time>2026-04-19T08:23:45.001Z</time></trkpt><trkpt lat="42.388229014163514" lon="13.750863903538688"><ele>1445.0</ele><time>2026-04-19T08:23:46.001Z</time></trkpt><trkpt lat="42.388362313671934" lon="13.751121121249582"><ele>1443.0</ele><time>2026-04-19T08:23:47.001Z</time></trkpt><trkpt lat="42.38850922956417" lon="13.751397575737029"><ele>1441.0</ele><time>2026-04-19T08:23:48.001Z</time></trkpt><trkpt lat="42.38866003394788" lon="13.751675560880086"><ele>1439.5</ele><time>2026-04-19T08:23:49.001Z</time></trkpt><trkpt lat="42.38882015793228" lon="13.751965523268916"><ele>1438.0</ele><time>2026-04-19T08:23:50.001Z</time></trkpt><trkpt lat="42.38897349734267" lon="13.752238545845792"><ele>1439.0</ele><time>2026-04-19T08:23:51.001Z</time></trkpt><trkpt lat="42.389109579750475" lon="13.752490019134267"><ele>1440.0</ele><time>2026-04-19T08:23:52.001Z</time></trkpt><trkpt lat="42.38923420366395" lon="13.752730048577316"><ele>1441.0</ele><time>2026-04-19T08:23:53.001Z</time></trkpt><trkpt lat="42.38946180741971" lon="13.753153937439555"><ele>1441.0</ele><time>2026-04-19T08:23:55.001Z</time></trkpt><trkpt lat="42.38956492361758" lon="13.753345863174799"><ele>1441.0</ele><time>2026-04-19T08:23:56.001Z</time></trkpt><trkpt lat="42.38966076941337" lon="13.753513641793639"><ele>1441.0</ele><time>2026-04-19T08:23:57.001Z</time></trkpt><trkpt lat="42.38975476493085" lon="13.753648248460633"><ele>1441.75</ele><time>2026-04-19T08:23:58Z</time></trkpt><trkpt lat="42.389864873757055" lon="13.753727732895618"><ele>1442.5</ele><time>2026-04-19T08:23:59Z</time></trkpt><trkpt lat="42.39000752984006" lon="13.753791441428492"><ele>1443.25</ele><time>2026-04-19T08:24:00Z</time></trkpt><trkpt lat="42.39017413583909" lon="13.753809789981657"><ele>1444.0</ele><time>2026-04-19T08:24:01Z</time></trkpt><trkpt lat="42.39036888485975" lon="13.753792757623009"><ele>1444.6666666666665</ele><time>2026-04-19T08:24:02Z</time></trkpt><trkpt lat="42.39056862032676" lon="13.753744706250274"><ele>1445.3333333333333</ele><time>2026-04-19T08:24:03Z</time></trkpt><trkpt lat="42.39074986859356" lon="13.753690843756237"><ele>1446.0</ele><time>2026-04-19T08:24:04Z</time></trkpt><trkpt lat="42.3909107207244" lon="13.75364359434089"><ele>1446.0</ele><time>2026-04-19T08:24:05Z</time></trkpt><trkpt lat="42.391061418862904" lon="13.753596725618326"><ele>1446.0</ele><time>2026-04-19T08:24:06Z</time></trkpt><trkpt lat="42.39121576161574" lon="13.753551714746289"><ele>1446.0</ele><time>2026-04-19T08:24:07Z</time></trkpt><trkpt lat="42.39137762493897" lon="13.75348953311872"><ele>1446.3333333333333</ele><time>2026-04-19T08:24:08Z</time></trkpt><trkpt lat="42.39155807732899" lon="13.753377481990515"><ele>1446.6666666666665</ele><time>2026-04-19T08:24:09Z</time></trkpt><trkpt lat="42.39174025445708" lon="13.753226882578621"><ele>1447.0</ele><time>2026-04-19T08:24:10Z</time></trkpt><trkpt lat="42.391910895058096" lon="13.753075823659877"><ele>1447.0</ele><time>2026-04-19T08:24:11Z</time></trkpt><trkpt lat="42.39206356096178" lon="13.752947364529572"><ele>1447.0</ele><time>2026-04-19T08:24:12Z</time></trkpt><trkpt lat="42.39220754826574" lon="13.752853879275383"><ele>1447.0</ele><time>2026-04-19T08:24:13Z</time></trkpt><trkpt lat="42.39234087939594" lon="13.752803336483288"><ele>1445.75</ele><time>2026-04-19T08:24:14Z</time></trkpt><trkpt lat="42.39246612414908" lon="13.752797923169732"><ele>1444.5</ele><time>2026-04-19T08:24:15Z</time></trkpt><trkpt lat="42.39259764736454" lon="13.752849548498602"><ele>1443.25</ele><time>2026-04-19T08:24:16Z</time></trkpt><trkpt lat="42.39274690376037" lon="13.75294402522466"><ele>1442.0</ele><time>2026-04-19T08:24:17Z</time></trkpt><trkpt lat="42.3929090450134" lon="13.753061271455607"><ele>1443.3333333333335</ele><time>2026-04-19T08:24:18Z</time></trkpt><trkpt lat="42.39307639767735" lon="13.753145356728552"><ele>1444.6666666666667</ele><time>2026-04-19T08:24:19Z</time></trkpt><trkpt lat="42.393260103254704" lon="13.753243604037076"><ele>1446.0</ele><time>2026-04-19T08:24:20Z</time></trkpt><trkpt lat="42.393414063954395" lon="13.753327752295082"><ele>1446.0</ele><time>2026-04-19T08:24:21Z</time></trkpt><trkpt lat="42.39355583746676" lon="13.753406303633572"><ele>1446.0</ele><time>2026-04-19T08:24:22Z</time></trkpt><trkpt lat="42.39368650123934" lon="13.753471395674469"><ele>1446.0</ele><time>2026-04-19T08:24:23Z</time></trkpt><trkpt lat="42.393799234046874" lon="13.75355331438958"><ele>1446.0</ele><time>2026-04-19T08:24:24Z</time></trkpt><trkpt lat="42.39386077167122" lon="13.753649748872201"><ele>1446.75</ele><time>2026-04-19T08:24:25Z</time></trkpt><trkpt lat="42.39389620493893" lon="13.753784460296622"><ele>1447.5</ele><time>2026-04-19T08:24:26Z</time></trkpt><trkpt lat="42.393877885297826" lon="13.753930259911618"><ele>1448.25</ele><time>2026-04-19T08:24:27Z</time></trkpt><trkpt lat="42.39381544867174" lon="13.754089839467177"><ele>1449.0</ele><time>2026-04-19T08:24:28Z</time></trkpt><trkpt lat="42.39371485315354" lon="13.754271400020013"><ele>1450.3333333333333</ele><time>2026-04-19T08:24:29Z</time></trkpt><trkpt lat="42.3935986245708" lon="13.754487476291775"><ele>1451.6666666666665</ele><time>2026-04-19T08:24:30Z</time></trkpt><trkpt lat="42.39348481049931" lon="13.754714319356923"><ele>1453.0</ele><time>2026-04-19T08:24:31Z</time></trkpt><trkpt lat="42.39336811158586" lon="13.754943840603456"><ele>1453.0</ele><time>2026-04-19T08:24:32Z</time></trkpt><trkpt lat="42.393235437485984" lon="13.755175472002309"><ele>1453.0</ele><time>2026-04-19T08:24:33Z</time></trkpt><trkpt lat="42.39310528925214" lon="13.75542304047152"><ele>1453.0</ele><time>2026-04-19T08:24:34Z</time></trkpt><trkpt lat="42.393001127290034" lon="13.755639932073734"><ele>1451.3333333333333</ele><time>2026-04-19T08:24:35Z</time></trkpt><trkpt lat="42.392915297184345" lon="13.7558560382768"><ele>1449.6666666666667</ele><time>2026-04-19T08:24:36Z</time></trkpt><trkpt lat="42.39284288649183" lon="13.756092100509886"><ele>1448.0</ele><time>2026-04-19T08:24:37Z</time></trkpt><trkpt lat="42.39278826475868" lon="13.75632645870611"><ele>1448.0</ele><time>2026-04-19T08:24:38Z</time></trkpt><trkpt lat="42.39275479224962" lon="13.756537453002684"><ele>1448.0</ele><time>2026-04-19T08:24:39Z</time></trkpt><trkpt lat="42.39274569388569" lon="13.756719501638907"><ele>1448.0</ele><time>2026-04-19T08:24:40Z</time></trkpt><trkpt lat="42.3927773193312" lon="13.756871666176027"><ele>1448.0</ele><time>2026-04-19T08:24:41Z</time></trkpt><trkpt lat="42.392836959637314" lon="13.756994667808119"><ele>1449.0</ele><time>2026-04-19T08:24:42Z</time></trkpt><trkpt lat="42.3929273485951" lon="13.757079449027875"><ele>1450.0</ele><time>2026-04-19T08:24:43Z</time></trkpt><trkpt lat="42.39305935545846" lon="13.757127267315996"><ele>1451.0</ele><time>2026-04-19T08:24:44Z</time></trkpt><trkpt lat="42.39319625214667" lon="13.757106941856355"><ele>1452.0</ele><time>2026-04-19T08:24:45Z</time></trkpt><trkpt lat="42.39331860531913" lon="13.757020431987794"><ele>1454.3333333333333</ele><time>2026-04-19T08:24:46Z</time></trkpt><trkpt lat="42.393448560537415" lon="13.75687484479324"><ele>1456.6666666666665</ele><time>2026-04-19T08:24:47Z</time></trkpt><trkpt lat="42.39360330012137" lon="13.756687027443569"><ele>1459.0</ele><time>2026-04-19T08:24:48Z</time></trkpt><trkpt lat="42.393750787860085" lon="13.756530995628088"><ele>1460.25</ele><time>2026-04-19T08:24:49Z</time></trkpt><trkpt lat="42.393875824981606" lon="13.75638788402711"><ele>1461.5</ele><time>2026-04-19T08:24:50Z</time></trkpt><trkpt lat="42.393993011118404" lon="13.756272550799629"><ele>1462.75</ele><time>2026-04-19T08:24:51Z</time></trkpt><trkpt lat="42.39411875319202" lon="13.756205263685343"><ele>1464.0</ele><time>2026-04-19T08:24:52Z</time></trkpt><trkpt lat="42.39425923869209" lon="13.756185198544545"><ele>1464.0</ele><time>2026-04-19T08:24:53Z</time></trkpt><trkpt lat="42.39441915755014" lon="13.756220831237068"><ele>1464.0</ele><time>2026-04-19T08:24:54Z</time></trkpt><trkpt lat="42.39459933273682" lon="13.756302955565003"><ele>1464.0</ele><time>2026-04-19T08:24:55Z</time></trkpt><trkpt lat="42.394803096409014" lon="13.756406953187394"><ele>1465.3333333333333</ele><time>2026-04-19T08:24:56Z</time></trkpt><trkpt lat="42.39500797952879" lon="13.756490920158043"><ele>1466.6666666666665</ele><time>2026-04-19T08:24:57Z</time></trkpt><trkpt lat="42.39519910846734" lon="13.756556768023696"><ele>1468.0</ele><time>2026-04-19T08:24:58Z</time></trkpt><trkpt lat="42.395357335584094" lon="13.756620061736264"><ele>1468.0</ele><time>2026-04-19T08:24:59Z</time></trkpt><trkpt lat="42.395554383164544" lon="13.75663221758076"><ele>1468.0</ele><time>2026-04-19T08:25:00Z</time></trkpt><trkpt lat="42.39577205038788" lon="13.75660495492358"><ele>1468.0</ele><time>2026-04-19T08:25:01Z</time></trkpt><trkpt lat="42.39600462193162" lon="13.756565446137085"><ele>1468.0</ele><time>2026-04-19T08:25:02Z</time></trkpt><trkpt lat="42.396249310317664" lon="13.756534225654656"><ele>1468.0</ele><time>2026-04-19T08:25:03Z</time></trkpt><trkpt lat="42.39650042361538" lon="13.756500418814042"><ele>1468.5</ele><time>2026-04-19T08:25:04Z</time></trkpt><trkpt lat="42.396730455233055" lon="13.756462235890917"><ele>1469.0</ele><time>2026-04-19T08:25:05Z</time></trkpt><trkpt lat="42.39695308953581" lon="13.756429537812997"><ele>1470.5</ele><time>2026-04-19T08:25:06Z</time></trkpt><trkpt lat="42.39717767019351" lon="13.756400593510376"><ele>1472.0</ele><time>2026-04-19T08:25:07Z</time></trkpt><trkpt lat="42.3974041276756" lon="13.756373339025554"><ele>1472.0</ele><time>2026-04-19T08:25:08Z</time></trkpt><trkpt lat="42.397619389025074" lon="13.756342966674671"><ele>1472.0</ele><time>2026-04-19T08:25:09Z</time></trkpt><trkpt lat="42.39783210700618" lon="13.756298743886175"><ele>1472.0</ele><time>2026-04-19T08:25:10Z</time></trkpt><trkpt lat="42.39802379588696" lon="13.756235635780966"><ele>1472.0</ele><time>2026-04-19T08:25:11Z</time></trkpt><trkpt lat="42.39819615950681" lon="13.75612966617299"><ele>1472.0</ele><time>2026-04-19T08:25:12Z</time></trkpt><trkpt lat="42.398347682329174" lon="13.755975193345025"><ele>1472.0</ele><time>2026-04-19T08:25:13Z</time></trkpt><trkpt lat="42.39849847511943" lon="13.755759200737467"><ele>1472.5</ele><time>2026-04-19T08:25:14Z</time></trkpt><trkpt lat="42.3986339007397" lon="13.755511171022759"><ele>1473.0</ele><time>2026-04-19T08:25:15Z</time></trkpt><trkpt lat="42.39877571368776" lon="13.755260039754457"><ele>1474.6666666666667</ele><time>2026-04-19T08:25:16Z</time></trkpt><trkpt lat="42.39891763128917" lon="13.755027625986129"><ele>1476.3333333333335</ele><time>2026-04-19T08:25:17Z</time></trkpt><trkpt lat="42.39904411625504" lon="13.754824557481687"><ele>1478.0</ele><time>2026-04-19T08:25:18Z</time></trkpt><trkpt lat="42.39915914657518" lon="13.754634970667214"><ele>1478.0</ele><time>2026-04-19T08:25:19Z</time></trkpt><trkpt lat="42.399263615897794" lon="13.754472449210581"><ele>1478.0</ele><time>2026-04-19T08:25:20Z</time></trkpt><trkpt lat="42.399363998930674" lon="13.754316204822553"><ele>1478.0</ele><time>2026-04-19T08:25:21Z</time></trkpt><trkpt lat="42.39945211737075" lon="13.754176667575663"><ele>1478.0</ele><time>2026-04-19T08:25:22Z</time></trkpt><trkpt lat="42.39953511351375" lon="13.75405479328115"><ele>1478.4</ele><time>2026-04-19T08:25:23Z</time></trkpt><trkpt lat="42.39960947097046" lon="13.753925389321763"><ele>1478.8000000000002</ele><time>2026-04-19T08:25:24Z</time></trkpt><trkpt lat="42.39967856583736" lon="13.753815333267955"><ele>1479.2</ele><time>2026-04-19T08:25:25Z</time></trkpt><trkpt lat="42.399743031252285" lon="13.75372035818057"><ele>1479.6</ele><time>2026-04-19T08:25:26Z</time></trkpt><trkpt lat="42.399792273084564" lon="13.753634954430407"><ele>1480.0</ele><time>2026-04-19T08:25:27Z</time></trkpt><trkpt lat="42.39984092051175" lon="13.753563381825845"><ele>1480.6</ele><time>2026-04-19T08:25:28Z</time></trkpt><trkpt lat="42.399889014555065" lon="13.75348130770934"><ele>1481.2</ele><time>2026-04-19T08:25:29Z</time></trkpt><trkpt lat="42.39994952395796" lon="13.753382001374657"><ele>1481.8000000000002</ele><time>2026-04-19T08:25:30Z</time></trkpt><trkpt lat="42.4000176852952" lon="13.753276122598022"><ele>1482.4</ele><time>2026-04-19T08:25:31Z</time></trkpt><trkpt lat="42.40009052482054" lon="13.753164828119425"><ele>1483.0</ele><time>2026-04-19T08:25:32Z</time></trkpt><trkpt lat="42.40016748527483" lon="13.753045582057869"><ele>1483.0</ele><time>2026-04-19T08:25:33Z</time></trkpt><trkpt lat="42.40024562008571" lon="13.752919802490911"><ele>1483.0</ele><time>2026-04-19T08:25:34Z</time></trkpt><trkpt lat="42.400319918180486" lon="13.752794556058163"><ele>1483.0</ele><time>2026-04-19T08:25:35Z</time></trkpt><trkpt lat="42.40039390386865" lon="13.752668147346425"><ele>1483.0</ele><time>2026-04-19T08:25:36Z</time></trkpt><trkpt lat="42.40046725121331" lon="13.752544448314234"><ele>1483.75</ele><time>2026-04-19T08:25:37Z</time></trkpt><trkpt lat="42.40053769983666" lon="13.752417460573144"><ele>1484.5</ele><time>2026-04-19T08:25:38Z</time></trkpt><trkpt lat="42.40059960347901" lon="13.752284546208456"><ele>1485.25</ele><time>2026-04-19T08:25:39Z</time></trkpt><trkpt lat="42.40065446614674" lon="13.752144179363611"><ele>1486.0</ele><time>2026-04-19T08:25:40Z</time></trkpt><trkpt lat="42.40070171000939" lon="13.75200109648066"><ele>1486.5</ele><time>2026-04-19T08:25:41Z</time></trkpt><trkpt lat="42.400730462241114" lon="13.751847854683373"><ele>1487.0</ele><time>2026-04-19T08:25:42Z</time></trkpt><trkpt lat="42.40073626804583" lon="13.75169150892596"><ele>1487.5</ele><time>2026-04-19T08:25:43.001Z</time></trkpt><trkpt lat="42.40072415208348" lon="13.751532479377927"><ele>1488.0</ele><time>2026-04-19T08:25:44.001Z</time></trkpt><trkpt lat="42.40071057159645" lon="13.751381390232531"><ele>1488.0</ele><time>2026-04-19T08:25:45.001Z</time></trkpt><trkpt lat="42.400697944161784" lon="13.751231185147082"><ele>1488.0</ele><time>2026-04-19T08:25:46.001Z</time></trkpt><trkpt lat="42.40068827474357" lon="13.751086678388612"><ele>1488.0</ele><time>2026-04-19T08:25:47.001Z</time></trkpt><trkpt lat="42.40067683424097" lon="13.750940606265157"><ele>1488.0</ele><time>2026-04-19T08:25:48.001Z</time></trkpt><trkpt lat="42.400663107611344" lon="13.750798770494699"><ele>1488.0</ele><time>2026-04-19T08:25:49.001Z</time></trkpt><trkpt lat="42.40065119955204" lon="13.750653585874552"><ele>1488.0</ele><time>2026-04-19T08:25:50.001Z</time></trkpt><trkpt lat="42.40064136038346" lon="13.750506042035228"><ele>1488.0</ele><time>2026-04-19T08:25:51.001Z</time></trkpt><trkpt lat="42.40063134300267" lon="13.750359975143406"><ele>1488.0</ele><time>2026-04-19T08:25:52.001Z</time></trkpt><trkpt lat="42.40061434050353" lon="13.750219430945892"><ele>1488.0</ele><time>2026-04-19T08:25:53.001Z</time></trkpt><trkpt lat="42.400610994166016" lon="13.750078897466715"><ele>1488.0</ele><time>2026-04-19T08:25:54.001Z</time></trkpt><trkpt lat="42.400597917129176" lon="13.749925038962559"><ele>1488.0</ele><time>2026-04-19T08:25:55.001Z</time></trkpt><trkpt lat="42.40059192874398" lon="13.749778308295461"><ele>1488.0</ele><time>2026-04-19T08:25:56.001Z</time></trkpt><trkpt lat="42.40058835379869" lon="13.749632172165631"><ele>1488.0</ele><time>2026-04-19T08:25:57.001Z</time></trkpt><trkpt lat="42.40057783359008" lon="13.749484081964502"><ele>1488.0</ele><time>2026-04-19T08:25:58.001Z</time></trkpt><trkpt lat="42.40056288089328" lon="13.749332522078417"><ele>1488.0</ele><time>2026-04-19T08:25:59.001Z</time></trkpt><trkpt lat="42.400550658384" lon="13.749186227510426"><ele>1488.4</ele><time>2026-04-19T08:26:00.001Z</time></trkpt><trkpt lat="42.40053942500348" lon="13.749037751156408"><ele>1488.8000000000002</ele><time>2026-04-19T08:26:01.001Z</time></trkpt><trkpt lat="42.400531781870946" lon="13.748887791473406"><ele>1489.2</ele><time>2026-04-19T08:26:02.001Z</time></trkpt><trkpt lat="42.400519092578264" lon="13.74873939624901"><ele>1489.6</ele><time>2026-04-19T08:26:03.001Z</time></trkpt><trkpt lat="42.40050821664895" lon="13.748592312522643"><ele>1490.0</ele><time>2026-04-19T08:26:04.001Z</time></trkpt><trkpt lat="42.40049936980609" lon="13.74844584656284"><ele>1489.8</ele><time>2026-04-19T08:26:05.001Z</time></trkpt><trkpt lat="42.40048978915019" lon="13.748299882934843"><ele>1489.6</ele><time>2026-04-19T08:26:06.001Z</time></trkpt><trkpt lat="42.40048288620943" lon="13.74815029059493"><ele>1489.4</ele><time>2026-04-19T08:26:07.001Z</time></trkpt><trkpt lat="42.40048238980676" lon="13.748005983729062"><ele>1489.2</ele><time>2026-04-19T08:26:08.001Z</time></trkpt><trkpt lat="42.40048860998793" lon="13.747857226636542"><ele>1489.0</ele><time>2026-04-19T08:26:09.001Z</time></trkpt><trkpt lat="42.400498915852644" lon="13.747706282967938"><ele>1489.4</ele><time>2026-04-19T08:26:10.001Z</time></trkpt><trkpt lat="42.400524776741605" lon="13.747558804041804"><ele>1489.8000000000002</ele><time>2026-04-19T08:26:11.001Z</time></trkpt><trkpt lat="42.40055675570994" lon="13.747418177350024"><ele>1490.1999999999998</ele><time>2026-04-19T08:26:12.001Z</time></trkpt><trkpt lat="42.40058858087588" lon="13.747277062578693"><ele>1490.6</ele><time>2026-04-19T08:26:13.001Z</time></trkpt><trkpt lat="42.40062239171911" lon="13.747134228604196"><ele>1491.0</ele><time>2026-04-19T08:26:14.001Z</time></trkpt><trkpt lat="42.40065698259373" lon="13.74699445250605"><ele>1491.1999999999998</ele><time>2026-04-19T08:26:15.001Z</time></trkpt><trkpt lat="42.4006884351978" lon="13.74685405184144"><ele>1491.3999999999999</ele><time>2026-04-19T08:26:16.001Z</time></trkpt><trkpt lat="42.40072199803317" lon="13.746710031095526"><ele>1491.6</ele><time>2026-04-19T08:26:17.001Z</time></trkpt><trkpt lat="42.40075305840318" lon="13.746569576575517"><ele>1491.8</ele><time>2026-04-19T08:26:18.001Z</time></trkpt><trkpt lat="42.400783221308586" lon="13.746424929536069"><ele>1492.0</ele><time>2026-04-19T08:26:19.001Z</time></trkpt><trkpt lat="42.400809902014174" lon="13.746279839638175"><ele>1492.0</ele><time>2026-04-19T08:26:20.001Z</time></trkpt><trkpt lat="42.4008408200662" lon="13.746138151702905"><ele>1492.0</ele><time>2026-04-19T08:26:21.001Z</time></trkpt><trkpt lat="42.4008734053487" lon="13.745991864873481"><ele>1492.0</ele><time>2026-04-19T08:26:22Z</time></trkpt><trkpt lat="42.40090273497868" lon="13.745845418681915"><ele>1492.0</ele><time>2026-04-19T08:26:23Z</time></trkpt><trkpt lat="42.400934762076105" lon="13.745702287800665"><ele>1492.0</ele><time>2026-04-19T08:26:24Z</time></trkpt><trkpt lat="42.400970018035935" lon="13.745561050217628"><ele>1491.3999999999999</ele><time>2026-04-19T08:26:25Z</time></trkpt><trkpt lat="42.401011014743425" lon="13.745421907496581"><ele>1490.8</ele><time>2026-04-19T08:26:26Z</time></trkpt><trkpt lat="42.401061981077675" lon="13.745288682551836"><ele>1490.2</ele><time>2026-04-19T08:26:27Z</time></trkpt><trkpt lat="42.401127823040255" lon="13.745168575208057"><ele>1489.6</ele><time>2026-04-19T08:26:28Z</time></trkpt><trkpt lat="42.40121337689602" lon="13.745070666669394"><ele>1489.0</ele><time>2026-04-19T08:26:29Z</time></trkpt><trkpt lat="42.401311439430174" lon="13.744997441730321"><ele>1489.6</ele><time>2026-04-19T08:26:30Z</time></trkpt><trkpt lat="42.40141249440211" lon="13.744939552189418"><ele>1490.2</ele><time>2026-04-19T08:26:31Z</time></trkpt><trkpt lat="42.40151600857298" lon="13.744880911440873"><ele>1490.8</ele><time>2026-04-19T08:26:32Z</time></trkpt><trkpt lat="42.401617271962614" lon="13.744826394868639"><ele>1491.3999999999999</ele><time>2026-04-19T08:26:33Z</time></trkpt><trkpt lat="42.40171640932701" lon="13.744771792739567"><ele>1492.0</ele><time>2026-04-19T08:26:34Z</time></trkpt><trkpt lat="42.40181782438106" lon="13.74471731471289"><ele>1492.0</ele><time>2026-04-19T08:26:35Z</time></trkpt><trkpt lat="42.401919264548745" lon="13.744667231647519"><ele>1492.0</ele><time>2026-04-19T08:26:36Z</time></trkpt><trkpt lat="42.4020209423673" lon="13.744615962058187"><ele>1492.0</ele><time>2026-04-19T08:26:37Z</time></trkpt><trkpt lat="42.40212230507552" lon="13.744569063089715"><ele>1492.0</ele><time>2026-04-19T08:26:38Z</time></trkpt><trkpt lat="42.40222340452327" lon="13.744511312119274"><ele>1492.0</ele><time>2026-04-19T08:26:39Z</time></trkpt><trkpt lat="42.402322837114255" lon="13.744446949757833"><ele>1492.1999999999998</ele><time>2026-04-19T08:26:40Z</time></trkpt><trkpt lat="42.402423449783555" lon="13.744385600599122"><ele>1492.4</ele><time>2026-04-19T08:26:41Z</time></trkpt><trkpt lat="42.40252332787136" lon="13.744326656066011"><ele>1492.6</ele><time>2026-04-19T08:26:42Z</time></trkpt><trkpt lat="42.402622936789776" lon="13.744263011539317"><ele>1492.8000000000002</ele><time>2026-04-19T08:26:43Z</time></trkpt><trkpt lat="42.4027233688391" lon="13.744205791923296"><ele>1493.0</ele><time>2026-04-19T08:26:44Z</time></trkpt><trkpt lat="42.40282267602526" lon="13.744147480522283"><ele>1493.2</ele><time>2026-04-19T08:26:45Z</time></trkpt><trkpt lat="42.402923812685174" lon="13.74409512003343"><ele>1493.4</ele><time>2026-04-19T08:26:46Z</time></trkpt><trkpt lat="42.403027555326645" lon="13.744040798562647"><ele>1493.6000000000001</ele><time>2026-04-19T08:26:47Z</time></trkpt><trkpt lat="42.40312926402178" lon="13.743992943068523"><ele>1493.8000000000002</ele><time>2026-04-19T08:26:48Z</time></trkpt><trkpt lat="42.40323207957557" lon="13.743937751033918"><ele>1494.0</ele><time>2026-04-19T08:26:49Z</time></trkpt><trkpt lat="42.40333189387536" lon="13.743877594936375"><ele>1494.4</ele><time>2026-04-19T08:26:50Z</time></trkpt><trkpt lat="42.40343244417183" lon="13.743819260172275"><ele>1494.8000000000002</ele><time>2026-04-19T08:26:51Z</time></trkpt><trkpt lat="42.40353427125833" lon="13.743771787216604"><ele>1495.1999999999998</ele><time>2026-04-19T08:26:52Z</time></trkpt><trkpt lat="42.40364156619874" lon="13.743734750708738"><ele>1495.6</ele><time>2026-04-19T08:26:53Z</time></trkpt><trkpt lat="42.40374879586416" lon="13.7437095195838"><ele>1496.0</ele><time>2026-04-19T08:26:54Z</time></trkpt><trkpt lat="42.403858788280886" lon="13.743697870613387"><ele>1497.0</ele><time>2026-04-19T08:26:55Z</time></trkpt><trkpt lat="42.40396714416957" lon="13.743694635980694"><ele>1498.0</ele><time>2026-04-19T08:26:56Z</time></trkpt><trkpt lat="42.404078534848935" lon="13.743704073372195"><ele>1499.0</ele><time>2026-04-19T08:26:57Z</time></trkpt><trkpt lat="42.40418884424025" lon="13.743731633439381"><ele>1500.0</ele><time>2026-04-19T08:26:58Z</time></trkpt><trkpt lat="42.40429714763723" lon="13.743759417480202"><ele>1501.0</ele><time>2026-04-19T08:26:59Z</time></trkpt><trkpt lat="42.40440333102158" lon="13.743796094721429"><ele>1501.0</ele><time>2026-04-19T08:27:00Z</time></trkpt><trkpt lat="42.40451056618142" lon="13.743836219337942"><ele>1501.0</ele><time>2026-04-19T08:27:01Z</time></trkpt><trkpt lat="42.404619376311366" lon="13.743873364230554"><ele>1501.0</ele><time>2026-04-19T08:27:02Z</time></trkpt><trkpt lat="42.404724405068315" lon="13.743915327963633"><ele>1501.0</ele><time>2026-04-19T08:27:03Z</time></trkpt><trkpt lat="42.404829665014645" lon="13.743960681257635"><ele>1501.0</ele><time>2026-04-19T08:27:04Z</time></trkpt><trkpt lat="42.40493533021324" lon="13.744001989363252"><ele>1501.0</ele><time>2026-04-19T08:27:05Z</time></trkpt><trkpt lat="42.40504061614472" lon="13.744045175614724"><ele>1501.0</ele><time>2026-04-19T08:27:06Z</time></trkpt><trkpt lat="42.40514647668181" lon="13.744084139686526"><ele>1501.0</ele><time>2026-04-19T08:27:07Z</time></trkpt><trkpt lat="42.40525444747981" lon="13.744120226987523"><ele>1501.0</ele><time>2026-04-19T08:27:08Z</time></trkpt><trkpt lat="42.40536037045008" lon="13.74415759476397"><ele>1501.0</ele><time>2026-04-19T08:27:09Z</time></trkpt><trkpt lat="42.40546684957147" lon="13.744195923816612"><ele>1501.4</ele><time>2026-04-19T08:27:10Z</time></trkpt><trkpt lat="42.40557403803483" lon="13.74423531792098"><ele>1501.8</ele><time>2026-04-19T08:27:11Z</time></trkpt><trkpt lat="42.40567847767126" lon="13.744277182604923"><ele>1502.2</ele><time>2026-04-19T08:27:12Z</time></trkpt><trkpt lat="42.4057825174075" lon="13.74432117278733"><ele>1502.6000000000001</ele><time>2026-04-19T08:27:13Z</time></trkpt><trkpt lat="42.4058874739934" lon="13.744363133244434"><ele>1503.0</ele><time>2026-04-19T08:27:14Z</time></trkpt><trkpt lat="42.405992332500546" lon="13.744403290574253"><ele>1503.2</ele><time>2026-04-19T08:27:15Z</time></trkpt><trkpt lat="42.40609549323228" lon="13.7444494580637"><ele>1503.4</ele><time>2026-04-19T08:27:16Z</time></trkpt><trkpt lat="42.40619799125423" lon="13.74449829221624"><ele>1503.6000000000001</ele><time>2026-04-19T08:27:17Z</time></trkpt><trkpt lat="42.4062952229963" lon="13.744546034999262"><ele>1503.8000000000002</ele><time>2026-04-19T08:27:18Z</time></trkpt><trkpt lat="42.40638222095824" lon="13.74457969786484"><ele>1504.0</ele><time>2026-04-19T08:27:19Z</time></trkpt><trkpt lat="42.40647133916783" lon="13.744616024634581"><ele>1504.0</ele><time>2026-04-19T08:27:20Z</time></trkpt><trkpt lat="42.40655706831667" lon="13.744662515993952"><ele>1504.0</ele><time>2026-04-19T08:27:21Z</time></trkpt><trkpt lat="42.40663902290407" lon="13.744702970646841"><ele>1504.0</ele><time>2026-04-19T08:27:22Z</time></trkpt><trkpt lat="42.40670802163137" lon="13.744735160734313"><ele>1504.0</ele><time>2026-04-19T08:27:23Z</time></trkpt><trkpt lat="42.406826550358346" lon="13.744784461152308"><ele>1504.0</ele><time>2026-04-19T08:27:25Z</time></trkpt><trkpt lat="42.40695267720631" lon="13.744788733474266"><ele>1504.0</ele><time>2026-04-19T08:27:27Z</time></trkpt><trkpt lat="42.4070487125044" lon="13.744746953100202"><ele>1504.0</ele><time>2026-04-19T08:27:29Z</time></trkpt><trkpt lat="42.40711080619961" lon="13.744692162257511"><ele>1504.0</ele><time>2026-04-19T08:27:31Z</time></trkpt><trkpt lat="42.407158075060245" lon="13.744624981561916"><ele>1504.0</ele><time>2026-04-19T08:27:33Z</time></trkpt><trkpt lat="42.40721026945417" lon="13.744572260439966"><ele>1504.0</ele><time>2026-04-19T08:27:36Z</time></trkpt><trkpt lat="42.40727432888255" lon="13.744534237100064"><ele>1504.0</ele><time>2026-04-19T08:27:39Z</time></trkpt><trkpt lat="42.407247547852876" lon="13.744446460789648"><ele>1504.0</ele><time>2026-04-19T08:27:44Z</time></trkpt><trkpt lat="42.4071841165243" lon="13.744465408597199"><ele>1504.0</ele><time>2026-04-19T08:28:10Z</time></trkpt><trkpt lat="42.407137578376755" lon="13.744538288528576"><ele>1504.0</ele><time>2026-04-19T08:28:13Z</time></trkpt><trkpt lat="42.40709022195686" lon="13.744622811306307"><ele>1504.0</ele><time>2026-04-19T08:28:15Z</time></trkpt><trkpt lat="42.40703420067939" lon="13.74467899529755"><ele>1504.0</ele><time>2026-04-19T08:28:17Z</time></trkpt><trkpt lat="42.40697936708138" lon="13.744726749686327"><ele>1504.0</ele><time>2026-04-19T08:28:19Z</time></trkpt><trkpt lat="42.406917879788864" lon="13.74475481987228"><ele>1504.0</ele><time>2026-04-19T08:28:21Z</time></trkpt><trkpt lat="42.40685223332189" lon="13.74474775670994"><ele>1504.0</ele><time>2026-04-19T08:28:23Z</time></trkpt><trkpt lat="42.406768995515975" lon="13.744712756160817"><ele>1504.0</ele><time>2026-04-19T08:28:26Z</time></trkpt><trkpt lat="42.406691706203915" lon="13.744684453703469"><ele>1504.0</ele><time>2026-04-19T08:28:29Z</time></trkpt><trkpt lat="42.40662101340344" lon="13.744646875541893"><ele>1504.0</ele><time>2026-04-19T08:28:32Z</time></trkpt><trkpt lat="42.40655998105318" lon="13.744611457770914"><ele>1504.0</ele><time>2026-04-19T08:28:35Z</time></trkpt><trkpt lat="42.40649120544755" lon="13.74459046989183"><ele>1504.0</ele><time>2026-04-19T08:28:38Z</time></trkpt><trkpt lat="42.40639574007439" lon="13.744541239821075"><ele>1504.0</ele><time>2026-04-19T08:28:41Z</time></trkpt><trkpt lat="42.40629273643514" lon="13.74450528684067"><ele>1504.0</ele><time>2026-04-19T08:28:43Z</time></trkpt><trkpt lat="42.40618252172424" lon="13.744464157089318"><ele>1504.0</ele><time>2026-04-19T08:28:45Z</time></trkpt><trkpt lat="42.40607135337902" lon="13.744418768995155"><ele>1504.0</ele><time>2026-04-19T08:28:47Z</time></trkpt><trkpt lat="42.40596588840507" lon="13.744380669615655"><ele>1504.0</ele><time>2026-04-19T08:28:49Z</time></trkpt><trkpt lat="42.40586218074829" lon="13.744342534472052"><ele>1504.0</ele><time>2026-04-19T08:28:51Z</time></trkpt><trkpt lat="42.405761264441516" lon="13.744302904721309"><ele>1503.8000000000002</ele><time>2026-04-19T08:28:53Z</time></trkpt><trkpt lat="42.40565973219259" lon="13.744263484079415"><ele>1503.6000000000001</ele><time>2026-04-19T08:28:55Z</time></trkpt><trkpt lat="42.40555984483387" lon="13.744222879953753"><ele>1503.4</ele><time>2026-04-19T08:28:57Z</time></trkpt><trkpt lat="42.40544738580312" lon="13.74420427530944"><ele>1503.2</ele><time>2026-04-19T08:28:59Z</time></trkpt><trkpt lat="42.40538162756999" lon="13.744191602199098"><ele>1503.0</ele><time>2026-04-19T08:29:00Z</time></trkpt><trkpt lat="42.40530691804839" lon="13.744165856522397"><ele>1502.6666666666667</ele><time>2026-04-19T08:29:01Z</time></trkpt><trkpt lat="42.405238091141534" lon="13.744133078720555"><ele>1502.3333333333333</ele><time>2026-04-19T08:29:02Z</time></trkpt><trkpt lat="42.40513351462044" lon="13.74407769441414"><ele>1502.0</ele><time>2026-04-19T08:29:04Z</time></trkpt><trkpt lat="42.40501603987659" lon="13.744029776900858"><ele>1501.6666666666665</ele><time>2026-04-19T08:29:06Z</time></trkpt><trkpt lat="42.40494881346115" lon="13.744003513041745"><ele>1501.3333333333333</ele><time>2026-04-19T08:29:07Z</time></trkpt><trkpt lat="42.40488417068482" lon="13.743974113493117"><ele>1501.0</ele><time>2026-04-19T08:29:08Z</time></trkpt><trkpt lat="42.40482266114193" lon="13.743947079708745"><ele>1501.0</ele><time>2026-04-19T08:29:09Z</time></trkpt><trkpt lat="42.404760255856154" lon="13.743924015916168"><ele>1501.0</ele><time>2026-04-19T08:29:10Z</time></trkpt><trkpt lat="42.40464380160924" lon="13.743885279227829"><ele>1501.0</ele><time>2026-04-19T08:29:12Z</time></trkpt><trkpt lat="42.40454195458958" lon="13.743842078608612"><ele>1501.0</ele><time>2026-04-19T08:29:14Z</time></trkpt><trkpt lat="42.40444730173868" lon="13.743800290406174"><ele>1501.0</ele><time>2026-04-19T08:29:16Z</time></trkpt><trkpt lat="42.40434452838991" lon="13.743768897400514"><ele>1501.0</ele><time>2026-04-19T08:29:18Z</time></trkpt><trkpt lat="42.404243254550785" lon="13.743734626644892"><ele>1501.0</ele><time>2026-04-19T08:29:20Z</time></trkpt><trkpt lat="42.40414451522807" lon="13.743699025636344"><ele>1501.0</ele><time>2026-04-19T08:29:22Z</time></trkpt><trkpt lat="42.40403785801602" lon="13.74366437329002"><ele>1501.0</ele><time>2026-04-19T08:29:24Z</time></trkpt><trkpt lat="42.4039336598749" lon="13.743651487036525"><ele>1501.0</ele><time>2026-04-19T08:29:26Z</time></trkpt><trkpt lat="42.403853822863546" lon="13.743659950752177"><ele>1500.0</ele><time>2026-04-19T08:29:28Z</time></trkpt><trkpt lat="42.4037640879781" lon="13.743663551378253"><ele>1499.0</ele><time>2026-04-19T08:29:31Z</time></trkpt><trkpt lat="42.40369787281666" lon="13.743675522024862"><ele>1498.0</ele><time>2026-04-19T08:29:39.999Z</time></trkpt><trkpt lat="42.403578052425466" lon="13.743733706881216"><ele>1497.0</ele><time>2026-04-19T08:32:37Z</time></trkpt><trkpt lat="42.403468837866924" lon="13.743790385381642"><ele>1496.0</ele><time>2026-04-19T08:32:38Z</time></trkpt><trkpt lat="42.40335184213928" lon="13.743852360019526"><ele>1496.0</ele><time>2026-04-19T08:32:39Z</time></trkpt><trkpt lat="42.40321612598857" lon="13.743924480624793"><ele>1496.0</ele><time>2026-04-19T08:32:40Z</time></trkpt><trkpt lat="42.403065959413375" lon="13.74400434420525"><ele>1496.0</ele><time>2026-04-19T08:32:41Z</time></trkpt><trkpt lat="42.40289345366652" lon="13.744100899686206"><ele>1495.3333333333335</ele><time>2026-04-19T08:32:42Z</time></trkpt><trkpt lat="42.40270596120587" lon="13.74421093741626"><ele>1494.6666666666667</ele><time>2026-04-19T08:32:43Z</time></trkpt><trkpt lat="42.40250261922184" lon="13.7443317457981"><ele>1494.0</ele><time>2026-04-19T08:32:44Z</time></trkpt><trkpt lat="42.402289244832595" lon="13.744454456938993"><ele>1493.3333333333333</ele><time>2026-04-19T08:32:45Z</time></trkpt><trkpt lat="42.40207562175128" lon="13.744573837362092"><ele>1492.6666666666665</ele><time>2026-04-19T08:32:46Z</time></trkpt><trkpt lat="42.40188034115698" lon="13.7446856973778"><ele>1492.0</ele><time>2026-04-19T08:32:47Z</time></trkpt><trkpt lat="42.401691140606324" lon="13.744796955249633"><ele>1492.0</ele><time>2026-04-19T08:32:48Z</time></trkpt><trkpt lat="42.4015148533242" lon="13.744895639206579"><ele>1492.0</ele><time>2026-04-19T08:32:49Z</time></trkpt><trkpt lat="42.401352629788015" lon="13.744983013377185"><ele>1492.0</ele><time>2026-04-19T08:32:50Z</time></trkpt><trkpt lat="42.40121365398156" lon="13.745069729078438"><ele>1491.0</ele><time>2026-04-19T08:32:51Z</time></trkpt><trkpt lat="42.40110078738597" lon="13.745175080983913"><ele>1490.0</ele><time>2026-04-19T08:32:52Z</time></trkpt><trkpt lat="42.40101555761673" lon="13.745326796392185"><ele>1489.0</ele><time>2026-04-19T08:32:53Z</time></trkpt><trkpt lat="42.40094267759762" lon="13.745548462515332"><ele>1489.0</ele><time>2026-04-19T08:32:54Z</time></trkpt><trkpt lat="42.40089283843397" lon="13.745800221917655"><ele>1489.0</ele><time>2026-04-19T08:32:55Z</time></trkpt><trkpt lat="42.4008435026273" lon="13.746084562537066"><ele>1489.0</ele><time>2026-04-19T08:32:56Z</time></trkpt><trkpt lat="42.40078415820862" lon="13.746367212177834"><ele>1489.6666666666665</ele><time>2026-04-19T08:32:57Z</time></trkpt><trkpt lat="42.4007179853492" lon="13.74665150793354"><ele>1490.3333333333333</ele><time>2026-04-19T08:32:58Z</time></trkpt><trkpt lat="42.40065702630786" lon="13.746918852060428"><ele>1491.0</ele><time>2026-04-19T08:32:59Z</time></trkpt><trkpt lat="42.400597214008336" lon="13.747175293532845"><ele>1491.0</ele><time>2026-04-19T08:33:00Z</time></trkpt><trkpt lat="42.400540155259044" lon="13.74743825141618"><ele>1491.0</ele><time>2026-04-19T08:33:01Z</time></trkpt><trkpt lat="42.40049447760811" lon="13.747689681403884"><ele>1491.0</ele><time>2026-04-19T08:33:02Z</time></trkpt><trkpt lat="42.40046730942517" lon="13.747951445485429"><ele>1491.5</ele><time>2026-04-19T08:33:03Z</time></trkpt><trkpt lat="42.40047144179825" lon="13.748247217209626"><ele>1492.0</ele><time>2026-04-19T08:33:04Z</time></trkpt><trkpt lat="42.40049505038483" lon="13.748575792914245"><ele>1491.0</ele><time>2026-04-19T08:33:05Z</time></trkpt><trkpt lat="42.400523146352235" lon="13.748920035401934"><ele>1490.0</ele><time>2026-04-19T08:33:06Z</time></trkpt><trkpt lat="42.400550499816354" lon="13.749274454751601"><ele>1489.0</ele><time>2026-04-19T08:33:07Z</time></trkpt><trkpt lat="42.40057528261587" lon="13.74962741752281"><ele>1488.0</ele><time>2026-04-19T08:33:08Z</time></trkpt><trkpt lat="42.400598058777774" lon="13.749952637713507"><ele>1488.5</ele><time>2026-04-19T08:33:09Z</time></trkpt><trkpt lat="42.40062168459856" lon="13.750264194579715"><ele>1489.0</ele><time>2026-04-19T08:33:10Z</time></trkpt><trkpt lat="42.40064578131803" lon="13.750564672397084"><ele>1489.0</ele><time>2026-04-19T08:33:11Z</time></trkpt><trkpt lat="42.400671353703025" lon="13.750848097722367"><ele>1489.0</ele><time>2026-04-19T08:33:12Z</time></trkpt><trkpt lat="42.40069177690176" lon="13.751130402934013"><ele>1489.0</ele><time>2026-04-19T08:33:13Z</time></trkpt><trkpt lat="42.40070857092372" lon="13.751404815349293"><ele>1488.6666666666665</ele><time>2026-04-19T08:33:14Z</time></trkpt><trkpt lat="42.400721691346135" lon="13.751666516594462"><ele>1488.3333333333333</ele><time>2026-04-19T08:33:15Z</time></trkpt><trkpt lat="42.40071597791854" lon="13.751906753804393"><ele>1488.0</ele><time>2026-04-19T08:33:16Z</time></trkpt><trkpt lat="42.40067925223571" lon="13.752125363007304"><ele>1487.3333333333333</ele><time>2026-04-19T08:33:17Z</time></trkpt><trkpt lat="42.400582815904414" lon="13.752307667385798"><ele>1486.6666666666665</ele><time>2026-04-19T08:33:18Z</time></trkpt><trkpt lat="42.40046987403188" lon="13.752501289621273"><ele>1486.0</ele><time>2026-04-19T08:33:19Z</time></trkpt><trkpt lat="42.40035021819046" lon="13.752724617133708"><ele>1485.0</ele><time>2026-04-19T08:33:20Z</time></trkpt><trkpt lat="42.40020255259489" lon="13.752946921690633"><ele>1484.0</ele><time>2026-04-19T08:33:21Z</time></trkpt><trkpt lat="42.400067159788286" lon="13.753173962386052"><ele>1483.0</ele><time>2026-04-19T08:33:22Z</time></trkpt><trkpt lat="42.39993793032102" lon="13.753390307552815"><ele>1482.6666666666665</ele><time>2026-04-19T08:33:23Z</time></trkpt><trkpt lat="42.399804900236106" lon="13.753603630888165"><ele>1482.3333333333333</ele><time>2026-04-19T08:33:24Z</time></trkpt><trkpt lat="42.39967098627011" lon="13.753811183029656"><ele>1482.0</ele><time>2026-04-19T08:33:25Z</time></trkpt><trkpt lat="42.39953881424532" lon="13.754015704032183"><ele>1481.3333333333333</ele><time>2026-04-19T08:33:26Z</time></trkpt><trkpt lat="42.39941115747608" lon="13.754217641276536"><ele>1480.6666666666665</ele><time>2026-04-19T08:33:27Z</time></trkpt><trkpt lat="42.39928494982766" lon="13.754422206622198"><ele>1480.0</ele><time>2026-04-19T08:33:28Z</time></trkpt><trkpt lat="42.399156503129554" lon="13.754628334637308"><ele>1479.3333333333333</ele><time>2026-04-19T08:33:29Z</time></trkpt><trkpt lat="42.39902673824143" lon="13.754835022736366"><ele>1478.6666666666667</ele><time>2026-04-19T08:33:30Z</time></trkpt><trkpt lat="42.39889589231359" lon="13.75504446973394"><ele>1478.0</ele><time>2026-04-19T08:33:31Z</time></trkpt><trkpt lat="42.39875122625891" lon="13.755236480819086"><ele>1476.3333333333335</ele><time>2026-04-19T08:33:32Z</time></trkpt><trkpt lat="42.39862183054098" lon="13.755438295117596"><ele>1474.6666666666667</ele><time>2026-04-19T08:33:33Z</time></trkpt><trkpt lat="42.39851958113468" lon="13.755657498014964"><ele>1473.0</ele><time>2026-04-19T08:33:34Z</time></trkpt><trkpt lat="42.39840522270094" lon="13.755847114809368"><ele>1473.0</ele><time>2026-04-19T08:33:35Z</time></trkpt><trkpt lat="42.39828236554782" lon="13.756018590399234"><ele>1473.0</ele><time>2026-04-19T08:33:36Z</time></trkpt><trkpt lat="42.39813475490063" lon="13.756157564653785"><ele>1473.0</ele><time>2026-04-19T08:33:37Z</time></trkpt><trkpt lat="42.39795988210805" lon="13.75624628568131"><ele>1472.5</ele><time>2026-04-19T08:33:38Z</time></trkpt><trkpt lat="42.397749399469575" lon="13.7563052280243"><ele>1472.0</ele><time>2026-04-19T08:33:39Z</time></trkpt><trkpt lat="42.397511866393295" lon="13.75634361954053"><ele>1472.0</ele><time>2026-04-19T08:33:40Z</time></trkpt><trkpt lat="42.397256096104364" lon="13.756372215122521"><ele>1472.0</ele><time>2026-04-19T08:33:41Z</time></trkpt><trkpt lat="42.396987151089846" lon="13.756405251134604"><ele>1470.5</ele><time>2026-04-19T08:33:42Z</time></trkpt><trkpt lat="42.39672149435015" lon="13.756441603366557"><ele>1469.0</ele><time>2026-04-19T08:33:43Z</time></trkpt><trkpt lat="42.39645747244601" lon="13.756475977925886"><ele>1468.5</ele><time>2026-04-19T08:33:44Z</time></trkpt><trkpt lat="42.396215482503564" lon="13.756507325488476"><ele>1468.0</ele><time>2026-04-19T08:33:45Z</time></trkpt><trkpt lat="42.39598631350595" lon="13.756539744971896"><ele>1468.0</ele><time>2026-04-19T08:33:46Z</time></trkpt><trkpt lat="42.39577079271876" lon="13.756572306057054"><ele>1468.0</ele><time>2026-04-19T08:33:47Z</time></trkpt><trkpt lat="42.3955792078337" lon="13.756596396497548"><ele>1468.0</ele><time>2026-04-19T08:33:48Z</time></trkpt><trkpt lat="42.39539628429624" lon="13.756594330382338"><ele>1468.0</ele><time>2026-04-19T08:33:49Z</time></trkpt><trkpt lat="42.39519968467222" lon="13.756548198349083"><ele>1468.0</ele><time>2026-04-19T08:33:50Z</time></trkpt><trkpt lat="42.39498461881666" lon="13.756461756717774"><ele>1468.0</ele><time>2026-04-19T08:33:51Z</time></trkpt><trkpt lat="42.394782066962584" lon="13.756376608318956"><ele>1466.6666666666665</ele><time>2026-04-19T08:33:52Z</time></trkpt><trkpt lat="42.39459690130419" lon="13.75630385681151"><ele>1465.3333333333333</ele><time>2026-04-19T08:33:53Z</time></trkpt><trkpt lat="42.394431681026745" lon="13.756238229268968"><ele>1464.0</ele><time>2026-04-19T08:33:54Z</time></trkpt><trkpt lat="42.39428665841252" lon="13.756183728386908"><ele>1464.0</ele><time>2026-04-19T08:33:55Z</time></trkpt><trkpt lat="42.394156004129535" lon="13.756175437213052"><ele>1464.0</ele><time>2026-04-19T08:33:56Z</time></trkpt><trkpt lat="42.394019819450996" lon="13.75623339861597"><ele>1464.0</ele><time>2026-04-19T08:33:57Z</time></trkpt><trkpt lat="42.39388241377478" lon="13.75635440810173"><ele>1464.0</ele><time>2026-04-19T08:33:58Z</time></trkpt><trkpt lat="42.393734311905085" lon="13.75651729291541"><ele>1462.3333333333333</ele><time>2026-04-19T08:33:59Z</time></trkpt><trkpt lat="42.39357394076522" lon="13.756698817015405"><ele>1460.6666666666665</ele><time>2026-04-19T08:34:00Z</time></trkpt><trkpt lat="42.393436879667895" lon="13.756850398169659"><ele>1459.0</ele><time>2026-04-19T08:34:01Z</time></trkpt><trkpt lat="42.39332286771034" lon="13.756970997153159"><ele>1459.0</ele><time>2026-04-19T08:34:01.999Z</time></trkpt><trkpt lat="42.393211440764" lon="13.757060874278155"><ele>1459.0</ele><time>2026-04-19T08:34:02.999Z</time></trkpt><trkpt lat="42.39309543043094" lon="13.757095694893883"><ele>1459.0</ele><time>2026-04-19T08:34:03.999Z</time></trkpt><trkpt lat="42.3929752822989" lon="13.75707165330059"><ele>1459.0</ele><time>2026-04-19T08:34:04.999Z</time></trkpt><trkpt lat="42.392864725906726" lon="13.756992544323758"><ele>1457.25</ele><time>2026-04-19T08:34:05.999Z</time></trkpt><trkpt lat="42.392792910681806" lon="13.756871292082344"><ele>1455.5</ele><time>2026-04-19T08:34:07.001Z</time></trkpt><trkpt lat="42.392767444747555" lon="13.756723751918745"><ele>1453.75</ele><time>2026-04-19T08:34:08.001Z</time></trkpt><trkpt lat="42.39277181092431" lon="13.756536696007899"><ele>1452.0</ele><time>2026-04-19T08:34:09.001Z</time></trkpt><trkpt lat="42.39280856037699" lon="13.756311198914837"><ele>1450.6666666666667</ele><time>2026-04-19T08:34:10.001Z</time></trkpt><trkpt lat="42.39286733655751" lon="13.75608633451029"><ele>1449.3333333333335</ele><time>2026-04-19T08:34:11.001Z</time></trkpt><trkpt lat="42.392948640603855" lon="13.755848989025354"><ele>1448.0</ele><time>2026-04-19T08:34:12.001Z</time></trkpt><trkpt lat="42.39303688903715" lon="13.755617704415085"><ele>1449.6666666666667</ele><time>2026-04-19T08:34:13.001Z</time></trkpt><trkpt lat="42.393127272267826" lon="13.755398958845262"><ele>1451.3333333333333</ele><time>2026-04-19T08:34:14.001Z</time></trkpt><trkpt lat="42.393223989232496" lon="13.75521277891646"><ele>1453.0</ele><time>2026-04-19T08:34:15.001Z</time></trkpt><trkpt lat="42.39332300594495" lon="13.755044210691917"><ele>1453.0</ele><time>2026-04-19T08:34:16.001Z</time></trkpt><trkpt lat="42.39341770079935" lon="13.754881864623892"><ele>1453.0</ele><time>2026-04-19T08:34:17.001Z</time></trkpt><trkpt lat="42.393502094976526" lon="13.754724335359455"><ele>1453.0</ele><time>2026-04-19T08:34:18.001Z</time></trkpt><trkpt lat="42.39358108738155" lon="13.754563785718625"><ele>1453.0</ele><time>2026-04-19T08:34:19.001Z</time></trkpt><trkpt lat="42.39365469706664" lon="13.754406068847642"><ele>1452.0</ele><time>2026-04-19T08:34:20.001Z</time></trkpt><trkpt lat="42.39372826580074" lon="13.754256477123288"><ele>1451.0</ele><time>2026-04-19T08:34:21.001Z</time></trkpt><trkpt lat="42.39380353765323" lon="13.754108005760298"><ele>1450.0</ele><time>2026-04-19T08:34:22.001Z</time></trkpt><trkpt lat="42.39386616539495" lon="13.753965237308515"><ele>1449.0</ele><time>2026-04-19T08:34:23.001Z</time></trkpt><trkpt lat="42.393898659226515" lon="13.753823466528502"><ele>1448.4</ele><time>2026-04-19T08:34:24Z</time></trkpt><trkpt lat="42.39389681009091" lon="13.753683490133914"><ele>1447.8000000000002</ele><time>2026-04-19T08:34:25Z</time></trkpt><trkpt lat="42.39384159302036" lon="13.75356928178604"><ele>1447.1999999999998</ele><time>2026-04-19T08:34:26Z</time></trkpt><trkpt lat="42.393753242116766" lon="13.753480462426648"><ele>1446.6</ele><time>2026-04-19T08:34:27Z</time></trkpt><trkpt lat="42.3936290775197" lon="13.75341955877344"><ele>1446.0</ele><time>2026-04-19T08:34:28Z</time></trkpt><trkpt lat="42.39347013353321" lon="13.753345361577093"><ele>1446.0</ele><time>2026-04-19T08:34:29Z</time></trkpt><trkpt lat="42.39329583138804" lon="13.75325456569837"><ele>1446.0</ele><time>2026-04-19T08:34:30Z</time></trkpt><trkpt lat="42.39311739140789" lon="13.75315563425838"><ele>1446.0</ele><time>2026-04-19T08:34:31Z</time></trkpt><trkpt lat="42.39294892952506" lon="13.753062292370975"><ele>1444.6666666666667</ele><time>2026-04-19T08:34:32Z</time></trkpt><trkpt lat="42.39279793127692" lon="13.752975697152658"><ele>1443.3333333333335</ele><time>2026-04-19T08:34:33Z</time></trkpt><trkpt lat="42.39265704859312" lon="13.752898909900765"><ele>1442.0</ele><time>2026-04-19T08:34:34Z</time></trkpt><trkpt lat="42.392519878005196" lon="13.752837148520094"><ele>1442.0</ele><time>2026-04-19T08:34:35Z</time></trkpt><trkpt lat="42.392372215047665" lon="13.75280429814627"><ele>1442.0</ele><time>2026-04-19T08:34:36Z</time></trkpt><trkpt lat="42.39221095578702" lon="13.752826265254088"><ele>1442.0</ele><time>2026-04-19T08:34:37Z</time></trkpt><trkpt lat="42.39205208799208" lon="13.752911353617355"><ele>1443.6666666666667</ele><time>2026-04-19T08:34:38Z</time></trkpt><trkpt lat="42.39188589124075" lon="13.753052813769814"><ele>1445.3333333333333</ele><time>2026-04-19T08:34:39Z</time></trkpt><trkpt lat="42.39170550457785" lon="13.75321606297942"><ele>1447.0</ele><time>2026-04-19T08:34:40Z</time></trkpt><trkpt lat="42.39154663533398" lon="13.753361240906635"><ele>1447.0</ele><time>2026-04-19T08:34:41Z</time></trkpt><trkpt lat="42.39139703911698" lon="13.753478463191783"><ele>1447.0</ele><time>2026-04-19T08:34:42Z</time></trkpt><trkpt lat="42.391230658473944" lon="13.753557425404848"><ele>1447.0</ele><time>2026-04-19T08:34:43Z</time></trkpt><trkpt lat="42.39103887372296" lon="13.753609895295725"><ele>1446.6666666666665</ele><time>2026-04-19T08:34:44Z</time></trkpt><trkpt lat="42.39082551082548" lon="13.753660560791971"><ele>1446.3333333333333</ele><time>2026-04-19T08:34:45Z</time></trkpt><trkpt lat="42.39062148187214" lon="13.75370677425925"><ele>1446.0</ele><time>2026-04-19T08:34:46Z</time></trkpt><trkpt lat="42.39044030083915" lon="13.753753837661028"><ele>1445.3333333333333</ele><time>2026-04-19T08:34:47Z</time></trkpt><trkpt lat="42.39027312434575" lon="13.753788768422487"><ele>1444.6666666666665</ele><time>2026-04-19T08:34:48Z</time></trkpt><trkpt lat="42.39010475311591" lon="13.753797955800657"><ele>1444.0</ele><time>2026-04-19T08:34:49Z</time></trkpt><trkpt lat="42.38995015182877" lon="13.753765097641923"><ele>1444.0</ele><time>2026-04-19T08:34:50Z</time></trkpt><trkpt lat="42.38981335563099" lon="13.753690010711269"><ele>1444.0</ele><time>2026-04-19T08:34:51Z</time></trkpt><trkpt lat="42.389697337753525" lon="13.753576456432247"><ele>1444.0</ele><time>2026-04-19T08:34:52Z</time></trkpt><trkpt lat="42.389600302082066" lon="13.753425608695522"><ele>1444.0</ele><time>2026-04-19T08:34:53Z</time></trkpt><trkpt lat="42.38950105960372" lon="13.75323592258268"><ele>1444.0</ele><time>2026-04-19T08:34:54Z</time></trkpt><trkpt lat="42.38938519052193" lon="13.753016235457082"><ele>1444.0</ele><time>2026-04-19T08:34:55Z</time></trkpt><trkpt lat="42.38926622813869" lon="13.752794942653917"><ele>1444.0</ele><time>2026-04-19T08:34:56Z</time></trkpt><trkpt lat="42.38914452992694" lon="13.752563205644373"><ele>1444.0</ele><time>2026-04-19T08:34:57Z</time></trkpt><trkpt lat="42.38902257504347" lon="13.752334107069895"><ele>1444.0</ele><time>2026-04-19T08:34:58Z</time></trkpt><trkpt lat="42.388894296178236" lon="13.752095519027629"><ele>1444.0</ele><time>2026-04-19T08:34:59Z</time></trkpt><trkpt lat="42.38877362178247" lon="13.751869513074181"><ele>1443.0</ele><time>2026-04-19T08:35:00Z</time></trkpt><trkpt lat="42.38866024211954" lon="13.751660486305598"><ele>1442.0</ele><time>2026-04-19T08:35:01Z</time></trkpt><trkpt lat="42.388555144965075" lon="13.751463972222009"><ele>1441.0</ele><time>2026-04-19T08:35:02Z</time></trkpt><trkpt lat="42.38845096932002" lon="13.7512700163261"><ele>1441.0</ele><time>2026-04-19T08:35:03Z</time></trkpt><trkpt lat="42.38835293878213" lon="13.751087348116373"><ele>1441.0</ele><time>2026-04-19T08:35:04Z</time></trkpt><trkpt lat="42.38825124725691" lon="13.750894634120108"><ele>1441.0</ele><time>2026-04-19T08:35:05Z</time></trkpt><trkpt lat="42.38815475542154" lon="13.750699301948483"><ele>1441.3333333333333</ele><time>2026-04-19T08:35:06Z</time></trkpt><trkpt lat="42.38805717600899" lon="13.750514301601525"><ele>1441.6666666666667</ele><time>2026-04-19T08:35:07Z</time></trkpt><trkpt lat="42.387962762726765" lon="13.750343195249238"><ele>1442.0</ele><time>2026-04-19T08:35:08Z</time></trkpt><trkpt lat="42.387877415887495" lon="13.75018276371854"><ele>1443.0</ele><time>2026-04-19T08:35:09Z</time></trkpt><trkpt lat="42.38778831058133" lon="13.750035912305979"><ele>1444.0</ele><time>2026-04-19T08:35:10Z</time></trkpt><trkpt lat="42.38767791044919" lon="13.749916763895069"><ele>1445.0</ele><time>2026-04-19T08:35:11Z</time></trkpt><trkpt lat="42.38754314752176" lon="13.749837159784406"><ele>1446.0</ele><time>2026-04-19T08:35:12Z</time></trkpt><trkpt lat="42.38740937535577" lon="13.749804002825488"><ele>1446.0</ele><time>2026-04-19T08:35:13Z</time></trkpt><trkpt lat="42.387282899247914" lon="13.749813683187893"><ele>1446.0</ele><time>2026-04-19T08:35:14Z</time></trkpt><trkpt lat="42.38716426415148" lon="13.749879795536007"><ele>1446.0</ele><time>2026-04-19T08:35:15Z</time></trkpt><trkpt lat="42.38705916149538" lon="13.750002436899964"><ele>1446.0</ele><time>2026-04-19T08:35:16Z</time></trkpt><trkpt lat="42.3869781787703" lon="13.750180256627994"><ele>1448.0</ele><time>2026-04-19T08:35:17Z</time></trkpt><trkpt lat="42.386913084460225" lon="13.750413060977593"><ele>1450.0</ele><time>2026-04-19T08:35:18Z</time></trkpt><trkpt lat="42.38684909718772" lon="13.750673042674494"><ele>1452.0</ele><time>2026-04-19T08:35:19Z</time></trkpt><trkpt lat="42.38676417557879" lon="13.750936036651613"><ele>1449.3333333333333</ele><time>2026-04-19T08:35:20Z</time></trkpt><trkpt lat="42.38667691466761" lon="13.751215052117958"><ele>1446.6666666666665</ele><time>2026-04-19T08:35:21Z</time></trkpt><trkpt lat="42.386586622896786" lon="13.751481565751307"><ele>1444.0</ele><time>2026-04-19T08:35:22Z</time></trkpt><trkpt lat="42.386493995751216" lon="13.751726757683993"><ele>1441.6666666666665</ele><time>2026-04-19T08:35:23Z</time></trkpt><trkpt lat="42.38639115522296" lon="13.751932421147284"><ele>1439.3333333333333</ele><time>2026-04-19T08:35:24Z</time></trkpt><trkpt lat="42.386251877506304" lon="13.752128593185743"><ele>1437.0</ele><time>2026-04-19T08:35:25Z</time></trkpt><trkpt lat="42.386070696013135" lon="13.752316214073616"><ele>1441.0</ele><time>2026-04-19T08:35:26Z</time></trkpt><trkpt lat="42.38587488422652" lon="13.7525158802207"><ele>1445.0</ele><time>2026-04-19T08:35:27Z</time></trkpt><trkpt lat="42.3857055693766" lon="13.752766099332298"><ele>1445.0</ele><time>2026-04-19T08:35:28Z</time></trkpt><trkpt lat="42.38557824093036" lon="13.753097201602897"><ele>1445.0</ele><time>2026-04-19T08:35:29Z</time></trkpt><trkpt lat="42.38546497693533" lon="13.75342051202386"><ele>1460.0</ele><time>2026-04-19T08:35:30Z</time></trkpt><trkpt lat="42.38531986498093" lon="13.753732979496853"><ele>1475.0</ele><time>2026-04-19T08:35:31Z</time></trkpt><trkpt lat="42.38516274272919" lon="13.754026340693013"><ele>1475.0</ele><time>2026-04-19T08:35:32Z</time></trkpt><trkpt lat="42.38501511499427" lon="13.754310610573615"><ele>1475.0</ele><time>2026-04-19T08:35:33Z</time></trkpt><trkpt lat="42.38488649118561" lon="13.754594318253632"><ele>1465.0</ele><time>2026-04-19T08:35:34Z</time></trkpt><trkpt lat="42.38479658232282" lon="13.754886477834942"><ele>1455.0</ele><time>2026-04-19T08:35:35Z</time></trkpt><trkpt lat="42.38473437775769" lon="13.75518943160753"><ele>1464.6666666666667</ele><time>2026-04-19T08:35:36Z</time></trkpt><trkpt lat="42.384678803892264" lon="13.75544360487695"><ele>1474.3333333333335</ele><time>2026-04-19T08:35:37Z</time></trkpt><trkpt lat="42.384595980251234" lon="13.755674968861765"><ele>1484.0</ele><time>2026-04-19T08:35:38Z</time></trkpt><trkpt lat="42.38446998921122" lon="13.755909067646956"><ele>1478.6666666666667</ele><time>2026-04-19T08:35:39Z</time></trkpt><trkpt lat="42.38432595879654" lon="13.756140493665677"><ele>1473.3333333333333</ele><time>2026-04-19T08:35:40Z</time></trkpt><trkpt lat="42.38420294552153" lon="13.756375479594855"><ele>1468.0</ele><time>2026-04-19T08:35:41Z</time></trkpt><trkpt lat="42.38412216745456" lon="13.756625121763284"><ele>1468.0</ele><time>2026-04-19T08:35:42Z</time></trkpt><trkpt lat="42.38405310266294" lon="13.756863999432442"><ele>1468.0</ele><time>2026-04-19T08:35:43Z</time></trkpt><trkpt lat="42.383974614049045" lon="13.757039446868065"><ele>1468.0</ele><time>2026-04-19T08:35:44Z</time></trkpt><trkpt lat="42.38388509841928" lon="13.757140271703523"><ele>1470.5</ele><time>2026-04-19T08:35:45Z</time></trkpt><trkpt lat="42.383787393179986" lon="13.757201821230094"><ele>1473.0</ele><time>2026-04-19T08:35:46Z</time></trkpt><trkpt lat="42.383680155009415" lon="13.757257255146293"><ele>1475.5</ele><time>2026-04-19T08:35:47Z</time></trkpt><trkpt lat="42.38360042852859" lon="13.757355726357911"><ele>1478.0</ele><time>2026-04-19T08:35:48Z</time></trkpt><trkpt lat="42.383545706449155" lon="13.75755632006146"><ele>1476.6000000000001</ele><time>2026-04-19T08:35:49Z</time></trkpt><trkpt lat="42.383518392668954" lon="13.75773083501865"><ele>1475.2</ele><time>2026-04-19T08:35:50Z</time></trkpt><trkpt lat="42.38345978515663" lon="13.75781466744983"><ele>1473.8</ele><time>2026-04-19T08:35:51Z</time></trkpt><trkpt lat="42.38337661297404" lon="13.757847513842666"><ele>1472.4</ele><time>2026-04-19T08:35:52Z</time></trkpt><trkpt lat="42.383271830233305" lon="13.757831749127444"><ele>1471.0</ele><time>2026-04-19T08:35:53Z</time></trkpt><trkpt lat="42.38316455020515" lon="13.757777603694146"><ele>1471.0</ele><time>2026-04-19T08:35:54Z</time></trkpt><trkpt lat="42.383051215981396" lon="13.757731238645368"><ele>1471.0</ele><time>2026-04-19T08:35:55Z</time></trkpt><trkpt lat="42.38295740705472" lon="13.757793849140915"><ele>1471.0</ele><time>2026-04-19T08:35:56Z</time></trkpt><trkpt lat="42.382906339298394" lon="13.757911793726915"><ele>1471.0</ele><time>2026-04-19T08:35:57Z</time></trkpt><trkpt lat="42.38287553760764" lon="13.75807959294225"><ele>1479.3333333333333</ele><time>2026-04-19T08:35:58Z</time></trkpt><trkpt lat="42.38289217972643" lon="13.758265881142338"><ele>1487.6666666666667</ele><time>2026-04-19T08:35:59Z</time></trkpt><trkpt lat="42.38293359411638" lon="13.758497588090929"><ele>1496.0</ele><time>2026-04-19T08:36:00Z</time></trkpt><trkpt lat="42.38298279446895" lon="13.758766441296142"><ele>1491.0</ele><time>2026-04-19T08:36:01Z</time></trkpt><trkpt lat="42.38302300870555" lon="13.759037537915214"><ele>1486.0</ele><time>2026-04-19T08:36:02Z</time></trkpt><trkpt lat="42.38305694393847" lon="13.759326121955489"><ele>1481.0</ele><time>2026-04-19T08:36:03Z</time></trkpt><trkpt lat="42.38307430831569" lon="13.759595033298552"><ele>1481.0</ele><time>2026-04-19T08:36:04Z</time></trkpt><trkpt lat="42.38308207217978" lon="13.759830616362368"><ele>1481.0</ele><time>2026-04-19T08:36:05Z</time></trkpt><trkpt lat="42.383088597826834" lon="13.760042596017472"><ele>1481.0</ele><time>2026-04-19T08:36:06Z</time></trkpt><trkpt lat="42.38309837935426" lon="13.76022683937638"><ele>1485.25</ele><time>2026-04-19T08:36:07Z</time></trkpt><trkpt lat="42.38313451661493" lon="13.760371511875132"><ele>1489.5</ele><time>2026-04-19T08:36:08Z</time></trkpt><trkpt lat="42.383205606549225" lon="13.76046271780048"><ele>1493.75</ele><time>2026-04-19T08:36:09Z</time></trkpt><trkpt lat="42.38331521934077" lon="13.760490856436297"><ele>1498.0</ele><time>2026-04-19T08:36:10Z</time></trkpt><trkpt lat="42.38345685821419" lon="13.760477418452325"><ele>1498.0</ele><time>2026-04-19T08:36:11Z</time></trkpt><trkpt lat="42.38364081370571" lon="13.760474469804768"><ele>1498.0</ele><time>2026-04-19T08:36:12Z</time></trkpt><trkpt lat="42.38380218238927" lon="13.76058177515388"><ele>1498.0</ele><time>2026-04-19T08:36:13.001Z</time></trkpt><trkpt lat="42.38397293014492" lon="13.760708693130944"><ele>1495.6666666666665</ele><time>2026-04-19T08:36:14.001Z</time></trkpt><trkpt lat="42.38413656333345" lon="13.760768755518995"><ele>1493.3333333333333</ele><time>2026-04-19T08:36:15.001Z</time></trkpt><trkpt lat="42.38429287128485" lon="13.760760821384526"><ele>1491.0</ele><time>2026-04-19T08:36:16.001Z</time></trkpt><trkpt lat="42.38444021837976" lon="13.760701565170566"><ele>1491.0</ele><time>2026-04-19T08:36:17.001Z</time></trkpt><trkpt lat="42.38457644817653" lon="13.760603691006265"><ele>1491.0</ele><time>2026-04-19T08:36:18.001Z</time></trkpt><trkpt lat="42.38469943738197" lon="13.760478221455369"><ele>1491.0</ele><time>2026-04-19T08:36:19.001Z</time></trkpt><trkpt lat="42.38479619353641" lon="13.760368660519363"><ele>1491.0</ele><time>2026-04-19T08:36:20.001Z</time></trkpt><trkpt lat="42.38488137016262" lon="13.760308782970084"><ele>1492.3333333333333</ele><time>2026-04-19T08:36:21.001Z</time></trkpt><trkpt lat="42.384953903814086" lon="13.76030188774091"><ele>1493.6666666666667</ele><time>2026-04-19T08:36:22.001Z</time></trkpt><trkpt lat="42.385012023645714" lon="13.760342387708855"><ele>1495.0</ele><time>2026-04-19T08:36:23.001Z</time></trkpt><trkpt lat="42.38504125775696" lon="13.760418659679843"><ele>1496.3333333333335</ele><time>2026-04-19T08:36:24.001Z</time></trkpt><trkpt lat="42.384994857417" lon="13.760538593344453"><ele>1497.6666666666667</ele><time>2026-04-19T08:36:26.001Z</time></trkpt><trkpt lat="42.38490978463791" lon="13.760551872075348"><ele>1499.0</ele><time>2026-04-19T08:36:29.001Z</time></trkpt><trkpt lat="42.384774760217276" lon="13.760590470054892"><ele>1497.0</ele><time>2026-04-19T08:36:31.001Z</time></trkpt><trkpt lat="42.38467117307579" lon="13.760663060623349"><ele>1495.0</ele><time>2026-04-19T08:36:32.001Z</time></trkpt><trkpt lat="42.38455114047634" lon="13.760763652881497"><ele>1493.0</ele><time>2026-04-19T08:36:33.001Z</time></trkpt><trkpt lat="42.384429795059816" lon="13.760869762967173"><ele>1491.0</ele><time>2026-04-19T08:36:34.001Z</time></trkpt><trkpt lat="42.38430340786353" lon="13.760953335122737"><ele>1491.0</ele><time>2026-04-19T08:36:35.001Z</time></trkpt><trkpt lat="42.38417404142082" lon="13.761013692867968"><ele>1491.0</ele><time>2026-04-19T08:36:36.001Z</time></trkpt><trkpt lat="42.38405388714494" lon="13.761065126246221"><ele>1491.0</ele><time>2026-04-19T08:36:37.001Z</time></trkpt><trkpt lat="42.38395729287772" lon="13.761097382315581"><ele>1491.0</ele><time>2026-04-19T08:36:38Z</time></trkpt><trkpt lat="42.38387522320439" lon="13.76110913964733"><ele>1491.0</ele><time>2026-04-19T08:36:39Z</time></trkpt><trkpt lat="42.383801186990304" lon="13.761105013463624"><ele>1495.0</ele><time>2026-04-19T08:36:40Z</time></trkpt><trkpt lat="42.38371815107209" lon="13.761092295558008"><ele>1499.0</ele><time>2026-04-19T08:36:41Z</time></trkpt><trkpt lat="42.38363869380658" lon="13.761073668241222"><ele>1503.0</ele><time>2026-04-19T08:36:42Z</time></trkpt><trkpt lat="42.38356068260708" lon="13.761061511617783"><ele>1507.0</ele><time>2026-04-19T08:36:43Z</time></trkpt><trkpt lat="42.383483060816374" lon="13.761069957494811"><ele>1511.0</ele><time>2026-04-19T08:36:44Z</time></trkpt><trkpt lat="42.38341020777422" lon="13.761093175918736"><ele>1515.0</ele><time>2026-04-19T08:36:45Z</time></trkpt><trkpt lat="42.3833393425045" lon="13.761124299691776"><ele>1515.0</ele><time>2026-04-19T08:36:46Z</time></trkpt><trkpt lat="42.38326915261839" lon="13.761158339528382"><ele>1515.0</ele><time>2026-04-19T08:36:47Z</time></trkpt><trkpt lat="42.383198475579945" lon="13.761195557351941"><ele>1515.0</ele><time>2026-04-19T08:36:48Z</time></trkpt><trkpt lat="42.38312791088175" lon="13.761229822155236"><ele>1515.0</ele><time>2026-04-19T08:36:49Z</time></trkpt><trkpt lat="42.383055477143635" lon="13.761257386732748"><ele>1515.0</ele><time>2026-04-19T08:36:50Z</time></trkpt><trkpt lat="42.38297965509861" lon="13.76128810446921"><ele>1515.0</ele><time>2026-04-19T08:36:51Z</time></trkpt><trkpt lat="42.38289544748196" lon="13.761314728592895"><ele>1516.1666666666667</ele><time>2026-04-19T08:36:52Z</time></trkpt><trkpt lat="42.382810552545585" lon="13.76131353446036"><ele>1517.3333333333333</ele><time>2026-04-19T08:36:53Z</time></trkpt><trkpt lat="42.38272998265791" lon="13.76129244659715"><ele>1518.5</ele><time>2026-04-19T08:36:54Z</time></trkpt><trkpt lat="42.38265116163929" lon="13.761253240511483"><ele>1519.6666666666665</ele><time>2026-04-19T08:36:55Z</time></trkpt><trkpt lat="42.382583080886455" lon="13.761208918157143"><ele>1520.8333333333333</ele><time>2026-04-19T08:36:56Z</time></trkpt><trkpt lat="42.38251696773045" lon="13.761170635739093"><ele>1522.0</ele><time>2026-04-19T08:36:57Z</time></trkpt><trkpt lat="42.38244835939191" lon="13.7611313474105"><ele>1522.0</ele><time>2026-04-19T08:36:58Z</time></trkpt><trkpt lat="42.38237444360128" lon="13.761087179860796"><ele>1522.0</ele><time>2026-04-19T08:36:59Z</time></trkpt><trkpt lat="42.382300325058935" lon="13.761033348450216"><ele>1522.0</ele><time>2026-04-19T08:37:00Z</time></trkpt><trkpt lat="42.382222085574305" lon="13.760975507258477"><ele>1522.0</ele><time>2026-04-19T08:37:01Z</time></trkpt><trkpt lat="42.38214384209925" lon="13.760926847439594"><ele>1522.0</ele><time>2026-04-19T08:37:02Z</time></trkpt><trkpt lat="42.38206083528884" lon="13.760878462341356"><ele>1522.0</ele><time>2026-04-19T08:37:03Z</time></trkpt><trkpt lat="42.381981560444814" lon="13.760831854936818"><ele>1521.2857142857142</ele><time>2026-04-19T08:37:04Z</time></trkpt><trkpt lat="42.38191076122821" lon="13.760784319416533"><ele>1520.5714285714284</ele><time>2026-04-19T08:37:05Z</time></trkpt><trkpt lat="42.38185483838684" lon="13.760722348655595"><ele>1519.8571428571427</ele><time>2026-04-19T08:37:06Z</time></trkpt><trkpt lat="42.38181808819983" lon="13.76065141247228"><ele>1519.142857142857</ele><time>2026-04-19T08:37:07Z</time></trkpt><trkpt lat="42.38178729986326" lon="13.760563003410832"><ele>1518.4285714285716</ele><time>2026-04-19T08:37:08Z</time></trkpt><trkpt lat="42.381767313992185" lon="13.760463555207082"><ele>1517.7142857142856</ele><time>2026-04-19T08:37:09Z</time></trkpt><trkpt lat="42.38175061715206" lon="13.760359277378196"><ele>1517.0</ele><time>2026-04-19T08:37:10Z</time></trkpt><trkpt lat="42.381738371716686" lon="13.760254794038266"><ele>1517.3333333333335</ele><time>2026-04-19T08:37:11Z</time></trkpt><trkpt lat="42.38172438461587" lon="13.76015057178402"><ele>1517.6666666666667</ele><time>2026-04-19T08:37:12Z</time></trkpt><trkpt lat="42.38170723515931" lon="13.760048669575921"><ele>1518.0</ele><time>2026-04-19T08:37:13Z</time></trkpt><trkpt lat="42.38168598143424" lon="13.759945998922522"><ele>1518.3333333333333</ele><time>2026-04-19T08:37:14Z</time></trkpt><trkpt lat="42.38164954574068" lon="13.759849319130561"><ele>1518.6666666666665</ele><time>2026-04-19T08:37:15Z</time></trkpt><trkpt lat="42.3816064979463" lon="13.75975327663924"><ele>1519.0</ele><time>2026-04-19T08:37:16Z</time></trkpt><trkpt lat="42.38155823603705" lon="13.759658261156694"><ele>1519.0</ele><time>2026-04-19T08:37:17Z</time></trkpt><trkpt lat="42.38151100841351" lon="13.759567818050932"><ele>1519.0</ele><time>2026-04-19T08:37:18Z</time></trkpt><trkpt lat="42.38145533117819" lon="13.759484769740984"><ele>1519.0</ele><time>2026-04-19T08:37:19Z</time></trkpt><trkpt lat="42.38140325740728" lon="13.759402701352741"><ele>1519.0</ele><time>2026-04-19T08:37:20Z</time></trkpt><trkpt lat="42.38136630891124" lon="13.7593048621911"><ele>1519.0</ele><time>2026-04-19T08:37:21Z</time></trkpt><trkpt lat="42.38135923269315" lon="13.759194528032024"><ele>1519.0</ele><time>2026-04-19T08:37:22Z</time></trkpt><trkpt lat="42.381390298804845" lon="13.759083425346969"><ele>1519.2</ele><time>2026-04-19T08:37:23Z</time></trkpt><trkpt lat="42.38145314040524" lon="13.758976538252206"><ele>1519.4</ele><time>2026-04-19T08:37:24Z</time></trkpt><trkpt lat="42.38154604856323" lon="13.758896791238927"><ele>1519.6</ele><time>2026-04-19T08:37:25Z</time></trkpt><trkpt lat="42.38161937219889" lon="13.758811913105646"><ele>1519.8</ele><time>2026-04-19T08:37:26Z</time></trkpt><trkpt lat="42.381655937376514" lon="13.758669149746831"><ele>1520.0</ele><time>2026-04-19T08:37:27Z</time></trkpt><trkpt lat="42.38164678939061" lon="13.758490637829986"><ele>1523.0</ele><time>2026-04-19T08:37:28Z</time></trkpt><trkpt lat="42.38159589433428" lon="13.758292933957671"><ele>1526.0</ele><time>2026-04-19T08:37:29Z</time></trkpt><trkpt lat="42.381505009424295" lon="13.758081572709969"><ele>1529.0</ele><time>2026-04-19T08:37:30Z</time></trkpt><trkpt lat="42.381406911721776" lon="13.757880564767431"><ele>1530.0</ele><time>2026-04-19T08:37:31Z</time></trkpt><trkpt lat="42.38131863279629" lon="13.757720929028853"><ele>1531.0</ele><time>2026-04-19T08:37:32Z</time></trkpt><trkpt lat="42.3812459951577" lon="13.757585389004138"><ele>1532.0</ele><time>2026-04-19T08:37:33Z</time></trkpt><trkpt lat="42.38120765907441" lon="13.757442089522335"><ele>1533.0</ele><time>2026-04-19T08:37:34Z</time></trkpt><trkpt lat="42.38121798428381" lon="13.757294744654924"><ele>1532.6666666666667</ele><time>2026-04-19T08:37:35Z</time></trkpt><trkpt lat="42.38126860529807" lon="13.757120935328587"><ele>1532.3333333333335</ele><time>2026-04-19T08:37:36Z</time></trkpt><trkpt lat="42.38132314142291" lon="13.756902717425874"><ele>1532.0</ele><time>2026-04-19T08:37:37Z</time></trkpt><trkpt lat="42.38135420193734" lon="13.756655205775967"><ele>1532.0</ele><time>2026-04-19T08:37:38Z</time></trkpt><trkpt lat="42.381375416622724" lon="13.756394884449886"><ele>1532.0</ele><time>2026-04-19T08:37:39Z</time></trkpt><trkpt lat="42.38141425783364" lon="13.756118568728564"><ele>1532.0</ele><time>2026-04-19T08:37:40Z</time></trkpt><trkpt lat="42.381454083601746" lon="13.755863110776366"><ele>1534.3333333333335</ele><time>2026-04-19T08:37:41Z</time></trkpt><trkpt lat="42.381482145201076" lon="13.755637001784692"><ele>1536.6666666666667</ele><time>2026-04-19T08:37:42Z</time></trkpt><trkpt lat="42.38150947689146" lon="13.755435118801033"><ele>1539.0</ele><time>2026-04-19T08:37:43Z</time></trkpt><trkpt lat="42.381542511460665" lon="13.755260088913376"><ele>1541.0</ele><time>2026-04-19T08:37:44Z</time></trkpt><trkpt lat="42.381567353520474" lon="13.755100921722594"><ele>1543.0</ele><time>2026-04-19T08:37:45Z</time></trkpt><trkpt lat="42.38157199515955" lon="13.75495393508005"><ele>1545.0</ele><time>2026-04-19T08:37:46Z</time></trkpt><trkpt lat="42.381529985212005" lon="13.754805166601788"><ele>1547.0</ele><time>2026-04-19T08:37:47Z</time></trkpt><trkpt lat="42.381434162994076" lon="13.754657899057994"><ele>1548.6</ele><time>2026-04-19T08:37:48Z</time></trkpt><trkpt lat="42.381315090743556" lon="13.754548942403598"><ele>1550.1999999999998</ele><time>2026-04-19T08:37:49Z</time></trkpt><trkpt lat="42.38120735409146" lon="13.754480858227385"><ele>1551.8</ele><time>2026-04-19T08:37:50Z</time></trkpt><trkpt lat="42.38114083309054" lon="13.754403890800594"><ele>1553.4</ele><time>2026-04-19T08:37:51Z</time></trkpt><trkpt lat="42.38112771868534" lon="13.754283010449647"><ele>1555.0</ele><time>2026-04-19T08:37:52Z</time></trkpt><trkpt lat="42.381167289264454" lon="13.754158606981775"><ele>1554.75</ele><time>2026-04-19T08:37:53Z</time></trkpt><trkpt lat="42.381252992559055" lon="13.75404017637266"><ele>1554.5</ele><time>2026-04-19T08:37:54Z</time></trkpt><trkpt lat="42.38137409140475" lon="13.753905729299985"><ele>1554.25</ele><time>2026-04-19T08:37:55Z</time></trkpt><trkpt lat="42.38145462508922" lon="13.753732930291072"><ele>1554.0</ele><time>2026-04-19T08:37:56Z</time></trkpt><trkpt lat="42.38145631035012" lon="13.753568637603852"><ele>1555.6666666666665</ele><time>2026-04-19T08:37:57Z</time></trkpt><trkpt lat="42.38142556701794" lon="13.75338037250748"><ele>1557.3333333333333</ele><time>2026-04-19T08:37:58Z</time></trkpt><trkpt lat="42.38136294101463" lon="13.753167836651594"><ele>1559.0</ele><time>2026-04-19T08:37:59Z</time></trkpt><trkpt lat="42.38129548763771" lon="13.75295523340701"><ele>1561.0</ele><time>2026-04-19T08:38:00Z</time></trkpt><trkpt lat="42.38124541217902" lon="13.752744407731187"><ele>1563.0</ele><time>2026-04-19T08:38:01Z</time></trkpt><trkpt lat="42.38123879352853" lon="13.752564926981703"><ele>1565.0</ele><time>2026-04-19T08:38:02Z</time></trkpt><trkpt lat="42.3812710478833" lon="13.752449761408089"><ele>1567.0</ele><time>2026-04-19T08:38:03Z</time></trkpt><trkpt lat="42.381335478073936" lon="13.752372104914752"><ele>1566.5</ele><time>2026-04-19T08:38:04Z</time></trkpt><trkpt lat="42.381437511017154" lon="13.752323135258417"><ele>1566.0</ele><time>2026-04-19T08:38:05Z</time></trkpt><trkpt lat="42.381569891088425" lon="13.752292740274067"><ele>1565.5</ele><time>2026-04-19T08:38:06Z</time></trkpt><trkpt lat="42.38168136198527" lon="13.752222675775208"><ele>1565.0</ele><time>2026-04-19T08:38:07Z</time></trkpt><trkpt lat="42.38173260907162" lon="13.752095073183135"><ele>1565.0</ele><time>2026-04-19T08:38:07.999Z</time></trkpt><trkpt lat="42.38173049802689" lon="13.751950302640982"><ele>1565.0</ele><time>2026-04-19T08:38:08.999Z</time></trkpt><trkpt lat="42.38167774168055" lon="13.751804117038466"><ele>1565.0</ele><time>2026-04-19T08:38:09.999Z</time></trkpt><trkpt lat="42.38158243875113" lon="13.75162767648259"><ele>1565.0</ele><time>2026-04-19T08:38:10.999Z</time></trkpt><trkpt lat="42.381470353757294" lon="13.751440817713885"><ele>1566.0</ele><time>2026-04-19T08:38:11.999Z</time></trkpt><trkpt lat="42.38136815343528" lon="13.751248001086797"><ele>1567.0</ele><time>2026-04-19T08:38:12.999Z</time></trkpt><trkpt lat="42.38129328376887" lon="13.751036213519047"><ele>1568.0</ele><time>2026-04-19T08:38:13.999Z</time></trkpt><trkpt lat="42.381255913218695" lon="13.750821203058651"><ele>1571.3333333333333</ele><time>2026-04-19T08:38:14.999Z</time></trkpt><trkpt lat="42.38125389098923" lon="13.750629193781112"><ele>1574.6666666666665</ele><time>2026-04-19T08:38:15.999Z</time></trkpt><trkpt lat="42.38129060965042" lon="13.750438295992282"><ele>1578.0</ele><time>2026-04-19T08:38:16.999Z</time></trkpt><trkpt lat="42.38134837990559" lon="13.750232159584256"><ele>1578.25</ele><time>2026-04-19T08:38:17.999Z</time></trkpt><trkpt lat="42.38137949662419" lon="13.75003976416642"><ele>1578.5</ele><time>2026-04-19T08:38:19.001Z</time></trkpt><trkpt lat="42.381364894526385" lon="13.749878307865988"><ele>1578.75</ele><time>2026-04-19T08:38:20.001Z</time></trkpt><trkpt lat="42.381304337237815" lon="13.749739057293217"><ele>1579.0</ele><time>2026-04-19T08:38:21.001Z</time></trkpt><trkpt lat="42.38121237835315" lon="13.749627614574878"><ele>1579.0</ele><time>2026-04-19T08:38:22.001Z</time></trkpt><trkpt lat="42.38109891084038" lon="13.749558047036516"><ele>1579.0</ele><time>2026-04-19T08:38:23.001Z</time></trkpt><trkpt lat="42.380971241676185" lon="13.749537171080057"><ele>1579.0</ele><time>2026-04-19T08:38:24.001Z</time></trkpt><trkpt lat="42.380823584624515" lon="13.749556397081511"><ele>1579.0</ele><time>2026-04-19T08:38:25.001Z</time></trkpt><trkpt lat="42.3806668299411" lon="13.749596058804824"><ele>1580.6666666666667</ele><time>2026-04-19T08:38:26.001Z</time></trkpt><trkpt lat="42.380500492758564" lon="13.74961358707325"><ele>1582.3333333333335</ele><time>2026-04-19T08:38:27.001Z</time></trkpt><trkpt lat="42.38032495973403" lon="13.74958158276599"><ele>1584.0</ele><time>2026-04-19T08:38:28.001Z</time></trkpt><trkpt lat="42.38015783312356" lon="13.749512610169681"><ele>1584.0</ele><time>2026-04-19T08:38:29.001Z</time></trkpt><trkpt lat="42.37999604594218" lon="13.749443282271722"><ele>1584.0</ele><time>2026-04-19T08:38:30.001Z</time></trkpt><trkpt lat="42.37983778259125" lon="13.749378888205593"><ele>1584.0</ele><time>2026-04-19T08:38:31.001Z</time></trkpt><trkpt lat="42.37968234264116" lon="13.749319468787549"><ele>1583.75</ele><time>2026-04-19T08:38:32.001Z</time></trkpt><trkpt lat="42.379544508882795" lon="13.749269349550714"><ele>1583.5</ele><time>2026-04-19T08:38:33.001Z</time></trkpt><trkpt lat="42.37942300962989" lon="13.749212424332987"><ele>1583.25</ele><time>2026-04-19T08:38:34.001Z</time></trkpt><trkpt lat="42.37933744455893" lon="13.749125093783382"><ele>1583.0</ele><time>2026-04-19T08:38:35.001Z</time></trkpt><trkpt lat="42.379276574381564" lon="13.748985562565016"><ele>1583.0</ele><time>2026-04-19T08:38:36.001Z</time></trkpt><trkpt lat="42.379242619203616" lon="13.748796201368174"><ele>1583.0</ele><time>2026-04-19T08:38:37Z</time></trkpt><trkpt lat="42.37923233930299" lon="13.74857171747774"><ele>1583.0</ele><time>2026-04-19T08:38:38Z</time></trkpt><trkpt lat="42.37922940360406" lon="13.748325463172485"><ele>1583.6666666666665</ele><time>2026-04-19T08:38:39Z</time></trkpt><trkpt lat="42.37921720496265" lon="13.748077506031873"><ele>1584.3333333333335</ele><time>2026-04-19T08:38:40Z</time></trkpt><trkpt lat="42.37918849195236" lon="13.747843596266966"><ele>1585.0</ele><time>2026-04-19T08:38:41Z</time></trkpt><trkpt lat="42.379127344403784" lon="13.747621571727626"><ele>1585.6666666666667</ele><time>2026-04-19T08:38:42Z</time></trkpt><trkpt lat="42.37903019342086" lon="13.747404477533488"><ele>1586.3333333333335</ele><time>2026-04-19T08:38:43Z</time></trkpt><trkpt lat="42.37892188611023" lon="13.747209865542889"><ele>1587.0</ele><time>2026-04-19T08:38:44Z</time></trkpt><trkpt lat="42.37879193515609" lon="13.747048520606327"><ele>1589.75</ele><time>2026-04-19T08:38:45Z</time></trkpt><trkpt lat="42.378653552061714" lon="13.74694149820627"><ele>1592.5</ele><time>2026-04-19T08:38:46Z</time></trkpt><trkpt lat="42.37853617771826" lon="13.746852612948386"><ele>1595.25</ele><time>2026-04-19T08:38:47Z</time></trkpt><trkpt lat="42.37845487341064" lon="13.746717732919157"><ele>1598.0</ele><time>2026-04-19T08:38:48Z</time></trkpt><trkpt lat="42.37841345705211" lon="13.746567894391625"><ele>1598.0</ele><time>2026-04-19T08:38:49Z</time></trkpt><trkpt lat="42.378435980375464" lon="13.746441297866369"><ele>1598.0</ele><time>2026-04-19T08:38:50Z</time></trkpt><trkpt lat="42.378499646171356" lon="13.746328782637713"><ele>1598.0</ele><time>2026-04-19T08:38:51Z</time></trkpt><trkpt lat="42.378612433766605" lon="13.746238294650084"><ele>1598.0</ele><time>2026-04-19T08:38:52Z</time></trkpt><trkpt lat="42.37877027538979" lon="13.746170562456392"><ele>1597.75</ele><time>2026-04-19T08:38:53Z</time></trkpt><trkpt lat="42.37892946781985" lon="13.746105980045531"><ele>1597.5</ele><time>2026-04-19T08:38:54Z</time></trkpt><trkpt lat="42.37904152873467" lon="13.746020685694534"><ele>1597.25</ele><time>2026-04-19T08:38:55Z</time></trkpt><trkpt lat="42.379102619317806" lon="13.745901753185263"><ele>1597.0</ele><time>2026-04-19T08:38:56Z</time></trkpt><trkpt lat="42.37912263316281" lon="13.745744414527595"><ele>1597.0</ele><time>2026-04-19T08:38:57Z</time></trkpt><trkpt lat="42.37912151569803" lon="13.745544614976666"><ele>1597.0</ele><time>2026-04-19T08:38:58Z</time></trkpt><trkpt lat="42.37910773197615" lon="13.745354647440475"><ele>1597.0</ele><time>2026-04-19T08:38:59Z</time></trkpt><trkpt lat="42.37906630386432" lon="13.745203055443557"><ele>1597.0</ele><time>2026-04-19T08:39:00Z</time></trkpt><trkpt lat="42.37901043614642" lon="13.745106577688688"><ele>1595.6</ele><time>2026-04-19T08:39:01Z</time></trkpt><trkpt lat="42.378911988854746" lon="13.74504702595926"><ele>1594.1999999999998</ele><time>2026-04-19T08:39:02Z</time></trkpt><trkpt lat="42.37880645643001" lon="13.744988437157941"><ele>1592.8</ele><time>2026-04-19T08:39:03Z</time></trkpt><trkpt lat="42.378736587108676" lon="13.744903876298695"><ele>1591.4</ele><time>2026-04-19T08:39:04Z</time></trkpt><trkpt lat="42.3787114982659" lon="13.744772507432454"><ele>1590.0</ele><time>2026-04-19T08:39:05Z</time></trkpt><trkpt lat="42.37872438993756" lon="13.744617485398294"><ele>1590.5</ele><time>2026-04-19T08:39:06Z</time></trkpt><trkpt lat="42.37873969073295" lon="13.744448436959543"><ele>1591.0</ele><time>2026-04-19T08:39:07Z</time></trkpt><trkpt lat="42.37871760671262" lon="13.744271754942865"><ele>1591.5</ele><time>2026-04-19T08:39:08Z</time></trkpt><trkpt lat="42.37864796687338" lon="13.744121356720413"><ele>1592.0</ele><time>2026-04-19T08:39:09Z</time></trkpt><trkpt lat="42.37854368472559" lon="13.744026838043524"><ele>1592.0</ele><time>2026-04-19T08:39:10Z</time></trkpt><trkpt lat="42.37841256896013" lon="13.743986586274117"><ele>1592.0</ele><time>2026-04-19T08:39:11Z</time></trkpt><trkpt lat="42.37825514631507" lon="13.743961148333863"><ele>1592.0</ele><time>2026-04-19T08:39:12Z</time></trkpt><trkpt lat="42.3780807523936" lon="13.743936034450932"><ele>1593.6666666666665</ele><time>2026-04-19T08:39:13Z</time></trkpt><trkpt lat="42.377914923284784" lon="13.743902698162383"><ele>1595.3333333333335</ele><time>2026-04-19T08:39:14Z</time></trkpt><trkpt lat="42.37774737512781" lon="13.743865875102403"><ele>1597.0</ele><time>2026-04-19T08:39:15Z</time></trkpt><trkpt lat="42.37757479399998" lon="13.743826208213127"><ele>1597.0</ele><time>2026-04-19T08:39:16Z</time></trkpt><trkpt lat="42.37740230900986" lon="13.743782803130555"><ele>1597.0</ele><time>2026-04-19T08:39:17Z</time></trkpt><trkpt lat="42.37724032753262" lon="13.743752240734242"><ele>1597.0</ele><time>2026-04-19T08:39:18Z</time></trkpt><trkpt lat="42.3770654552947" lon="13.743776643227203"><ele>1596.3333333333335</ele><time>2026-04-19T08:39:19Z</time></trkpt><trkpt lat="42.376863302305" lon="13.74385720284364"><ele>1595.6666666666665</ele><time>2026-04-19T08:39:20Z</time></trkpt><trkpt lat="42.37666407835003" lon="13.74394007428018"><ele>1595.0</ele><time>2026-04-19T08:39:21Z</time></trkpt><trkpt lat="42.37647049538095" lon="13.744012296387442"><ele>1592.6666666666665</ele><time>2026-04-19T08:39:22Z</time></trkpt><trkpt lat="42.37629111419046" lon="13.744079256180918"><ele>1590.3333333333335</ele><time>2026-04-19T08:39:23Z</time></trkpt><trkpt lat="42.376126129406664" lon="13.744135092430946"><ele>1588.0</ele><time>2026-04-19T08:39:24Z</time></trkpt><trkpt lat="42.375966725958904" lon="13.744180035977328"><ele>1588.0</ele><time>2026-04-19T08:39:25Z</time></trkpt><trkpt lat="42.37582016194278" lon="13.744214296232158"><ele>1588.0</ele><time>2026-04-19T08:39:26Z</time></trkpt><trkpt lat="42.375678050545105" lon="13.744241962343937"><ele>1588.0</ele><time>2026-04-19T08:39:27Z</time></trkpt><trkpt lat="42.37554469890932" lon="13.744265841805953"><ele>1588.0</ele><time>2026-04-19T08:39:28Z</time></trkpt><trkpt lat="42.37541802578748" lon="13.744287018751416"><ele>1587.2</ele><time>2026-04-19T08:39:29Z</time></trkpt><trkpt lat="42.375301388790305" lon="13.744308238393405"><ele>1586.4</ele><time>2026-04-19T08:39:30Z</time></trkpt><trkpt lat="42.375189435087634" lon="13.744310428814947"><ele>1585.6000000000001</ele><time>2026-04-19T08:39:31Z</time></trkpt><trkpt lat="42.37508353122128" lon="13.74433036317354"><ele>1584.8000000000002</ele><time>2026-04-19T08:39:32Z</time></trkpt><trkpt lat="42.374984459218545" lon="13.744369057850479"><ele>1584.0</ele><time>2026-04-19T08:39:33Z</time></trkpt><trkpt lat="42.374870599252034" lon="13.744377783332398"><ele>1585.8000000000002</ele><time>2026-04-19T08:39:34Z</time></trkpt><trkpt lat="42.37474993928735" lon="13.744402849139398"><ele>1587.6000000000001</ele><time>2026-04-19T08:39:35Z</time></trkpt><trkpt lat="42.374638746530785" lon="13.744391116209238"><ele>1589.4</ele><time>2026-04-19T08:39:36Z</time></trkpt><trkpt lat="42.37454554815718" lon="13.744382375765964"><ele>1591.2</ele><time>2026-04-19T08:39:37Z</time></trkpt><trkpt lat="42.37448237986479" lon="13.744255897233655"><ele>1593.0</ele><time>2026-04-19T08:39:38Z</time></trkpt><trkpt lat="42.37440814925513" lon="13.744117289691019"><ele>1588.5</ele><time>2026-04-19T08:39:39Z</time></trkpt><trkpt lat="42.37436657294116" lon="13.743960058389758"><ele>1584.0</ele><time>2026-04-19T08:39:40Z</time></trkpt><trkpt lat="42.374417674173564" lon="13.743777920560794"><ele>1579.5</ele><time>2026-04-19T08:39:41Z</time></trkpt><trkpt lat="42.37447538636328" lon="13.743551545184491"><ele>1575.0</ele><time>2026-04-19T08:39:42Z</time></trkpt><trkpt lat="42.37455122936292" lon="13.743293462334075"><ele>1577.0</ele><time>2026-04-19T08:39:43Z</time></trkpt><trkpt lat="42.37463190470435" lon="13.742998820364699"><ele>1579.0</ele><time>2026-04-19T08:39:44Z</time></trkpt><trkpt lat="42.37472361560255" lon="13.742716487040502"><ele>1577.0</ele><time>2026-04-19T08:39:45Z</time></trkpt><trkpt lat="42.374833507038204" lon="13.742442147289351"><ele>1575.0</ele><time>2026-04-19T08:39:46Z</time></trkpt><trkpt lat="42.37495901828857" lon="13.742173714030928"><ele>1568.5</ele><time>2026-04-19T08:39:47Z</time></trkpt><trkpt lat="42.375064652900555" lon="13.741869353240798"><ele>1562.0</ele><time>2026-04-19T08:39:48Z</time></trkpt><trkpt lat="42.37515765949071" lon="13.741540026579333"><ele>1562.0</ele><time>2026-04-19T08:39:49Z</time></trkpt><trkpt lat="42.37525602203089" lon="13.741184999502389"><ele>1562.0</ele><time>2026-04-19T08:39:50Z</time></trkpt><trkpt lat="42.37535705386567" lon="13.740822621918499"><ele>1562.0</ele><time>2026-04-19T08:39:51Z</time></trkpt><trkpt lat="42.37545677292821" lon="13.740483611672788"><ele>1562.0</ele><time>2026-04-19T08:39:52Z</time></trkpt><trkpt lat="42.37554374366193" lon="13.740177537394686"><ele>1562.0</ele><time>2026-04-19T08:39:53Z</time></trkpt><trkpt lat="42.37562177452514" lon="13.73989256610764"><ele>1562.0</ele><time>2026-04-19T08:39:54Z</time></trkpt><trkpt lat="42.37571292944911" lon="13.739608921220483"><ele>1555.0</ele><time>2026-04-19T08:39:54.999Z</time></trkpt><trkpt lat="42.37584890850354" lon="13.739319769835598"><ele>1548.0</ele><time>2026-04-19T08:39:55.999Z</time></trkpt><trkpt lat="42.37598830605084" lon="13.739030321908833"><ele>1548.0</ele><time>2026-04-19T08:39:56.999Z</time></trkpt><trkpt lat="42.37611548759885" lon="13.738763118847334"><ele>1548.0</ele><time>2026-04-19T08:39:57.999Z</time></trkpt><trkpt lat="42.376244960632405" lon="13.73851327887492"><ele>1549.0</ele><time>2026-04-19T08:39:58.999Z</time></trkpt><trkpt lat="42.37637818077236" lon="13.73828724411149"><ele>1550.0</ele><time>2026-04-19T08:39:59.999Z</time></trkpt><trkpt lat="42.376509370970986" lon="13.73808638690289"><ele>1551.0</ele><time>2026-04-19T08:40:00.999Z</time></trkpt><trkpt lat="42.3766367247657" lon="13.737893336490654"><ele>1551.0</ele><time>2026-04-19T08:40:01.999Z</time></trkpt><trkpt lat="42.376832300366054" lon="13.737781753237849"><ele>1551.0</ele><time>2026-04-19T08:40:02.999Z</time></trkpt><trkpt lat="42.37701924391888" lon="13.737628906348272"><ele>1551.0</ele><time>2026-04-19T08:40:03.999Z</time></trkpt><trkpt lat="42.37719216079078" lon="13.737445757729745"><ele>1550.0</ele><time>2026-04-19T08:40:04.999Z</time></trkpt><trkpt lat="42.37732534172477" lon="13.737199060052639"><ele>1549.0</ele><time>2026-04-19T08:40:05.999Z</time></trkpt><trkpt lat="42.37745417635636" lon="13.736959719446848"><ele>1548.0</ele><time>2026-04-19T08:40:06.999Z</time></trkpt><trkpt lat="42.377586489353824" lon="13.736748408155785"><ele>1549.3333333333335</ele><time>2026-04-19T08:40:07.999Z</time></trkpt><trkpt lat="42.37776625653324" lon="13.736597044067452"><ele>1550.6666666666667</ele><time>2026-04-19T08:40:08.999Z</time></trkpt><trkpt lat="42.377922731765075" lon="13.736420062342065"><ele>1552.0</ele><time>2026-04-19T08:40:09.999Z</time></trkpt><trkpt lat="42.378070011430076" lon="13.736278129612732"><ele>1552.0</ele><time>2026-04-19T08:40:10.999Z</time></trkpt><trkpt lat="42.378187588639584" lon="13.736115781984036"><ele>1552.0</ele><time>2026-04-19T08:40:11.999Z</time></trkpt><trkpt lat="42.37827695400722" lon="13.735923524832382"><ele>1552.0</ele><time>2026-04-19T08:40:12.999Z</time></trkpt><trkpt lat="42.378341049400724" lon="13.73572420018779"><ele>1549.0</ele><time>2026-04-19T08:40:13.999Z</time></trkpt><trkpt lat="42.37840623010547" lon="13.735545704188057"><ele>1546.0</ele><time>2026-04-19T08:40:14.999Z</time></trkpt><trkpt lat="42.378437351174284" lon="13.735377500902922"><ele>1543.0</ele><time>2026-04-19T08:40:15.999Z</time></trkpt><trkpt lat="42.37842510057882" lon="13.735228807885367"><ele>1540.0</ele><time>2026-04-19T08:40:16.999Z</time></trkpt><trkpt lat="42.37839398612414" lon="13.735087589524083"><ele>1538.8</ele><time>2026-04-19T08:40:17.999Z</time></trkpt><trkpt lat="42.37833297505832" lon="13.734985753308154"><ele>1537.6</ele><time>2026-04-19T08:40:18.999Z</time></trkpt><trkpt lat="42.37823424572515" lon="13.73490103502446"><ele>1536.4</ele><time>2026-04-19T08:40:19.999Z</time></trkpt><trkpt lat="42.378135987906695" lon="13.734901537406222"><ele>1535.2</ele><time>2026-04-19T08:40:20.999Z</time></trkpt><trkpt lat="42.37804625139315" lon="13.734967442531666"><ele>1534.0</ele><time>2026-04-19T08:40:21.999Z</time></trkpt><trkpt lat="42.37796066656797" lon="13.735103561767406"><ele>1531.0</ele><time>2026-04-19T08:40:22.999Z</time></trkpt><trkpt lat="42.37787167864883" lon="13.735308887611732"><ele>1528.0</ele><time>2026-04-19T08:40:23.999Z</time></trkpt><trkpt lat="42.37778049531792" lon="13.735550956404754"><ele>1525.0</ele><time>2026-04-19T08:40:25Z</time></trkpt><trkpt lat="42.37767643203749" lon="13.735783361132336"><ele>1525.0</ele><time>2026-04-19T08:40:26Z</time></trkpt><trkpt lat="42.37757492749331" lon="13.736018539310953"><ele>1525.0</ele><time>2026-04-19T08:40:27Z</time></trkpt><trkpt lat="42.377479215987975" lon="13.736207558610163"><ele>1525.0</ele><time>2026-04-19T08:40:28Z</time></trkpt><trkpt lat="42.377421541762544" lon="13.736356843046448"><ele>1524.25</ele><time>2026-04-19T08:40:29Z</time></trkpt><trkpt lat="42.37734279435791" lon="13.736443552715183"><ele>1523.5</ele><time>2026-04-19T08:40:30Z</time></trkpt><trkpt lat="42.37723745443411" lon="13.736487560563425"><ele>1522.75</ele><time>2026-04-19T08:40:31Z</time></trkpt><trkpt lat="42.377092682269236" lon="13.736431875806543"><ele>1522.0</ele><time>2026-04-19T08:40:32Z</time></trkpt><trkpt lat="42.37690941677019" lon="13.736420335806589"><ele>1522.0</ele><time>2026-04-19T08:40:33Z</time></trkpt><trkpt lat="42.376728801700686" lon="13.736419417864678"><ele>1522.0</ele><time>2026-04-19T08:40:34Z</time></trkpt><trkpt lat="42.376551767726596" lon="13.73640767406126"><ele>1522.0</ele><time>2026-04-19T08:40:35Z</time></trkpt><trkpt lat="42.37638538674051" lon="13.73640638042602"><ele>1519.5</ele><time>2026-04-19T08:40:36Z</time></trkpt><trkpt lat="42.37622518553435" lon="13.73640408274175"><ele>1517.0</ele><time>2026-04-19T08:40:37Z</time></trkpt><trkpt lat="42.37607573678471" lon="13.736398865826773"><ele>1514.5</ele><time>2026-04-19T08:40:38Z</time></trkpt><trkpt lat="42.375940271325845" lon="13.736375083003432"><ele>1512.0</ele><time>2026-04-19T08:40:39Z</time></trkpt><trkpt lat="42.37582689483217" lon="13.736283827010608"><ele>1512.0</ele><time>2026-04-19T08:40:40Z</time></trkpt><trkpt lat="42.375727117985726" lon="13.736140081259455"><ele>1512.0</ele><time>2026-04-19T08:40:41Z</time></trkpt><trkpt lat="42.37563656011094" lon="13.735973576964234"><ele>1512.0</ele><time>2026-04-19T08:40:42Z</time></trkpt><trkpt lat="42.37558425238293" lon="13.735771174931902"><ele>1511.6666666666667</ele><time>2026-04-19T08:40:43Z</time></trkpt><trkpt lat="42.37556846113515" lon="13.735534176462329"><ele>1511.3333333333335</ele><time>2026-04-19T08:40:44Z</time></trkpt><trkpt lat="42.37558031251079" lon="13.735266692934374"><ele>1511.0</ele><time>2026-04-19T08:40:45Z</time></trkpt><trkpt lat="42.37559156315956" lon="13.734948657319329"><ele>1511.5</ele><time>2026-04-19T08:40:46Z</time></trkpt><trkpt lat="42.37561971719394" lon="13.734617588896452"><ele>1512.0</ele><time>2026-04-19T08:40:47Z</time></trkpt><trkpt lat="42.37564458919016" lon="13.734265272087343"><ele>1512.0</ele><time>2026-04-19T08:40:48Z</time></trkpt><trkpt lat="42.37567813303215" lon="13.733894616014311"><ele>1512.0</ele><time>2026-04-19T08:40:49Z</time></trkpt><trkpt lat="42.37571373263558" lon="13.733527588092034"><ele>1509.5</ele><time>2026-04-19T08:40:50Z</time></trkpt><trkpt lat="42.375741377008524" lon="13.73316967985478"><ele>1507.0</ele><time>2026-04-19T08:40:51Z</time></trkpt><trkpt lat="42.375762774392356" lon="13.732831971552267"><ele>1504.5</ele><time>2026-04-19T08:40:52Z</time></trkpt><trkpt lat="42.37577968109311" lon="13.732507101172322"><ele>1502.0</ele><time>2026-04-19T08:40:53Z</time></trkpt><trkpt lat="42.37581665626361" lon="13.732195255705493"><ele>1502.0</ele><time>2026-04-19T08:40:54Z</time></trkpt><trkpt lat="42.37582085068799" lon="13.731896619449328"><ele>1502.0</ele><time>2026-04-19T08:40:55Z</time></trkpt><trkpt lat="42.37584890670642" lon="13.731609994201573"><ele>1502.0</ele><time>2026-04-19T08:40:56Z</time></trkpt><trkpt lat="42.37586991481899" lon="13.731332446001973"><ele>1500.3333333333335</ele><time>2026-04-19T08:40:57Z</time></trkpt><trkpt lat="42.375883984695584" lon="13.73106391761916"><ele>1498.6666666666667</ele><time>2026-04-19T08:40:58Z</time></trkpt><trkpt lat="42.37589785758072" lon="13.730800092026142"><ele>1497.0</ele><time>2026-04-19T08:40:59Z</time></trkpt><trkpt lat="42.37591540624661" lon="13.730508969503244"><ele>1496.0</ele><time>2026-04-19T08:41:00Z</time></trkpt><trkpt lat="42.37593105421346" lon="13.730223512400165"><ele>1495.0</ele><time>2026-04-19T08:41:01Z</time></trkpt><trkpt lat="42.375948515561944" lon="13.729953382336145"><ele>1494.0</ele><time>2026-04-19T08:41:02Z</time></trkpt><trkpt lat="42.375966168067826" lon="13.729696461273774"><ele>1494.0</ele><time>2026-04-19T08:41:03Z</time></trkpt><trkpt lat="42.375983477983034" lon="13.729451815792473"><ele>1494.0</ele><time>2026-04-19T08:41:04Z</time></trkpt><trkpt lat="42.37600144777715" lon="13.729215587465847"><ele>1494.0</ele><time>2026-04-19T08:41:05Z</time></trkpt><trkpt lat="42.376020195762855" lon="13.728985342334504"><ele>1492.6666666666667</ele><time>2026-04-19T08:41:06Z</time></trkpt><trkpt lat="42.37603097666089" lon="13.728760255289487"><ele>1491.3333333333335</ele><time>2026-04-19T08:41:07Z</time></trkpt><trkpt lat="42.37604561414608" lon="13.728527899309489"><ele>1490.0</ele><time>2026-04-19T08:41:08Z</time></trkpt><trkpt lat="42.37605656106556" lon="13.728308023456513"><ele>1489.75</ele><time>2026-04-19T08:41:09Z</time></trkpt><trkpt lat="42.376047894673505" lon="13.72810365695078"><ele>1489.5</ele><time>2026-04-19T08:41:10Z</time></trkpt><trkpt lat="42.3760092648757" lon="13.727924891461184"><ele>1489.25</ele><time>2026-04-19T08:41:11Z</time></trkpt><trkpt lat="42.3759396676119" lon="13.727782664369807"><ele>1489.0</ele><time>2026-04-19T08:41:12Z</time></trkpt><trkpt lat="42.375844639271705" lon="13.727671677710763"><ele>1490.5</ele><time>2026-04-19T08:41:13Z</time></trkpt><trkpt lat="42.375735978805565" lon="13.727607774653615"><ele>1492.0</ele><time>2026-04-19T08:41:13.999Z</time></trkpt><trkpt lat="42.375628390809645" lon="13.727605003046541"><ele>1493.5</ele><time>2026-04-19T08:41:14.999Z</time></trkpt><trkpt lat="42.37549574878382" lon="13.72764898420131"><ele>1495.0</ele><time>2026-04-19T08:41:15.999Z</time></trkpt><trkpt lat="42.3753343183882" lon="13.727751889413861"><ele>1490.0</ele><time>2026-04-19T08:41:16.999Z</time></trkpt><trkpt lat="42.37515919125751" lon="13.727915506262043"><ele>1485.0</ele><time>2026-04-19T08:41:17.999Z</time></trkpt><trkpt lat="42.374979449040275" lon="13.728120564502456"><ele>1480.0</ele><time>2026-04-19T08:41:18.999Z</time></trkpt><trkpt lat="42.37480452573899" lon="13.72834968927765"><ele>1476.5</ele><time>2026-04-19T08:41:19.999Z</time></trkpt><trkpt lat="42.37460347887214" lon="13.728571580479533"><ele>1473.0</ele><time>2026-04-19T08:41:20.999Z</time></trkpt><trkpt lat="42.37440193345" lon="13.7288045034755"><ele>1473.0</ele><time>2026-04-19T08:41:21.999Z</time></trkpt><trkpt lat="42.37418291790021" lon="13.729009530585403"><ele>1473.0</ele><time>2026-04-19T08:41:22.999Z</time></trkpt><trkpt lat="42.37395459713582" lon="13.729244407193637"><ele>1467.5</ele><time>2026-04-19T08:41:23.999Z</time></trkpt><trkpt lat="42.37369264290971" lon="13.729456586371962"><ele>1462.0</ele><time>2026-04-19T08:41:24.999Z</time></trkpt><trkpt lat="42.373421351773736" lon="13.729677260001706"><ele>1462.0</ele><time>2026-04-19T08:41:25.999Z</time></trkpt><trkpt lat="42.373167626667666" lon="13.729884301137677"><ele>1462.0</ele><time>2026-04-19T08:41:26.999Z</time></trkpt><trkpt lat="42.372953611494395" lon="13.730062861574602"><ele>1461.0</ele><time>2026-04-19T08:41:27.999Z</time></trkpt><trkpt lat="42.372759205128496" lon="13.730225493949911"><ele>1460.0</ele><time>2026-04-19T08:41:28.999Z</time></trkpt><trkpt lat="42.37258838974188" lon="13.730368784094816"><ele>1459.0</ele><time>2026-04-19T08:41:29.999Z</time></trkpt><trkpt lat="42.37244462802963" lon="13.73049601077894"><ele>1459.0</ele><time>2026-04-19T08:41:30.999Z</time></trkpt><trkpt lat="42.37230896430699" lon="13.730599118180999"><ele>1459.0</ele><time>2026-04-19T08:41:31.999Z</time></trkpt><trkpt lat="42.37213853287154" lon="13.730642146575956"><ele>1459.0</ele><time>2026-04-19T08:41:32.999Z</time></trkpt><trkpt lat="42.371920429047435" lon="13.730709159257641"><ele>1457.5</ele><time>2026-04-19T08:41:33.999Z</time></trkpt><trkpt lat="42.37166612914737" lon="13.730761996267445"><ele>1456.0</ele><time>2026-04-19T08:41:34.999Z</time></trkpt><trkpt lat="42.37139884199807" lon="13.730845716467957"><ele>1451.0</ele><time>2026-04-19T08:41:35.999Z</time></trkpt><trkpt lat="42.37112218549148" lon="13.730927833145648"><ele>1446.0</ele><time>2026-04-19T08:41:36.999Z</time></trkpt><trkpt lat="42.37085664150664" lon="13.730996838240642"><ele>1443.0</ele><time>2026-04-19T08:41:37.999Z</time></trkpt><trkpt lat="42.37060384250346" lon="13.731061146564997"><ele>1440.0</ele><time>2026-04-19T08:41:38.999Z</time></trkpt><trkpt lat="42.370366525289874" lon="13.731127315220252"><ele>1436.0</ele><time>2026-04-19T08:41:39.999Z</time></trkpt><trkpt lat="42.370137500873334" lon="13.731194710872865"><ele>1432.0</ele><time>2026-04-19T08:41:40.999Z</time></trkpt><trkpt lat="42.36991733049638" lon="13.731260250177161"><ele>1432.0</ele><time>2026-04-19T08:41:41.999Z</time></trkpt><trkpt lat="42.36970452940058" lon="13.73132532424377"><ele>1432.0</ele><time>2026-04-19T08:41:42.999Z</time></trkpt><trkpt lat="42.36950668164008" lon="13.731387553765344"><ele>1432.0</ele><time>2026-04-19T08:41:43.999Z</time></trkpt><trkpt lat="42.36932596047715" lon="13.731437339288947"><ele>1431.3333333333333</ele><time>2026-04-19T08:41:44.999Z</time></trkpt><trkpt lat="42.369144291568595" lon="13.731436100977847"><ele>1430.6666666666667</ele><time>2026-04-19T08:41:45.999Z</time></trkpt><trkpt lat="42.36896461747477" lon="13.731410444241623"><ele>1430.0</ele><time>2026-04-19T08:41:46.999Z</time></trkpt><trkpt lat="42.36878394297646" lon="13.73138158823218"><ele>1425.6666666666667</ele><time>2026-04-19T08:41:47.999Z</time></trkpt><trkpt lat="42.36861254251771" lon="13.731363708246837"><ele>1421.3333333333333</ele><time>2026-04-19T08:41:48.999Z</time></trkpt><trkpt lat="42.36846346942739" lon="13.73126977882343"><ele>1417.0</ele><time>2026-04-19T08:41:49.999Z</time></trkpt><trkpt lat="42.368318037116104" lon="13.731175834447198"><ele>1415.25</ele><time>2026-04-19T08:41:50.999Z</time></trkpt><trkpt lat="42.36819670568153" lon="13.731054590081543"><ele>1413.5</ele><time>2026-04-19T08:41:51.999Z</time></trkpt><trkpt lat="42.36812564079451" lon="13.73092208863385"><ele>1411.75</ele><time>2026-04-19T08:41:52.999Z</time></trkpt><trkpt lat="42.36808965469169" lon="13.730787325812408"><ele>1410.0</ele><time>2026-04-19T08:41:53.999Z</time></trkpt><trkpt lat="42.368017665551186" lon="13.730645211186399"><ele>1410.0</ele><time>2026-04-19T08:41:54.999Z</time></trkpt><trkpt lat="42.36792211476575" lon="13.73048117051505"><ele>1410.0</ele><time>2026-04-19T08:41:55.999Z</time></trkpt><trkpt lat="42.367777186772955" lon="13.730352327087427"><ele>1410.0</ele><time>2026-04-19T08:41:56.999Z</time></trkpt><trkpt lat="42.367611931455706" lon="13.730258102316519"><ele>1410.0</ele><time>2026-04-19T08:41:57.999Z</time></trkpt><trkpt lat="42.367454390702854" lon="13.730235360577122"><ele>1410.0</ele><time>2026-04-19T08:41:58.999Z</time></trkpt><trkpt lat="42.36731248232119" lon="13.730254598625491"><ele>1410.0</ele><time>2026-04-19T08:41:59.999Z</time></trkpt><trkpt lat="42.36718732810708" lon="13.730278784597582"><ele>1410.0</ele><time>2026-04-19T08:42:00.999Z</time></trkpt><trkpt lat="42.36707700151327" lon="13.730249452088094"><ele>1407.0</ele><time>2026-04-19T08:42:01.999Z</time></trkpt><trkpt lat="42.36698439439838" lon="13.730129699947996"><ele>1404.0</ele><time>2026-04-19T08:42:02.999Z</time></trkpt><trkpt lat="42.3668821428232" lon="13.729962691855688"><ele>1401.0</ele><time>2026-04-19T08:42:03.999Z</time></trkpt><trkpt lat="42.366799716331116" lon="13.729773176675511"><ele>1401.0</ele><time>2026-04-19T08:42:04.999Z</time></trkpt><trkpt lat="42.36671031796049" lon="13.729522517624847"><ele>1401.0</ele><time>2026-04-19T08:42:05.999Z</time></trkpt><trkpt lat="42.366634637208215" lon="13.729244198278792"><ele>1401.0</ele><time>2026-04-19T08:42:06.999Z</time></trkpt><trkpt lat="42.36658368024167" lon="13.728990071630514"><ele>1403.0</ele><time>2026-04-19T08:42:07.999Z</time></trkpt><trkpt lat="42.366537735275436" lon="13.728756985373357"><ele>1405.0</ele><time>2026-04-19T08:42:08.999Z</time></trkpt><trkpt lat="42.36655596779425" lon="13.728498037260191"><ele>1407.0</ele><time>2026-04-19T08:42:09.999Z</time></trkpt><trkpt lat="42.36656512460377" lon="13.72820846439714"><ele>1407.0</ele><time>2026-04-19T08:42:10.999Z</time></trkpt><trkpt lat="42.3665682055111" lon="13.727931025092126"><ele>1407.0</ele><time>2026-04-19T08:42:11.999Z</time></trkpt><trkpt lat="42.36657170060516" lon="13.727663163732352"><ele>1407.0</ele><time>2026-04-19T08:42:12.999Z</time></trkpt><trkpt lat="42.36656073350142" lon="13.727419373938789"><ele>1405.3333333333333</ele><time>2026-04-19T08:42:13.999Z</time></trkpt><trkpt lat="42.36654323944632" lon="13.727189282918625"><ele>1403.6666666666665</ele><time>2026-04-19T08:42:14.999Z</time></trkpt><trkpt lat="42.36653887624254" lon="13.726977167835846"><ele>1402.0</ele><time>2026-04-19T08:42:15.999Z</time></trkpt><trkpt lat="42.36652209082016" lon="13.726760682298176"><ele>1400.25</ele><time>2026-04-19T08:42:16.999Z</time></trkpt><trkpt lat="42.366525176220186" lon="13.726567972544524"><ele>1398.5</ele><time>2026-04-19T08:42:17.999Z</time></trkpt><trkpt lat="42.36652659464329" lon="13.726385560231217"><ele>1396.75</ele><time>2026-04-19T08:42:18.999Z</time></trkpt><trkpt lat="42.36656435186479" lon="13.726213447550306"><ele>1395.0</ele><time>2026-04-19T08:42:19.999Z</time></trkpt><trkpt lat="42.36662998867685" lon="13.726058313810734"><ele>1391.0</ele><time>2026-04-19T08:42:20.999Z</time></trkpt><trkpt lat="42.366693829696885" lon="13.725897204776782"><ele>1387.0</ele><time>2026-04-19T08:42:21.999Z</time></trkpt><trkpt lat="42.36675900949007" lon="13.72573920788252"><ele>1383.0</ele><time>2026-04-19T08:42:22.999Z</time></trkpt><trkpt lat="42.366820863907115" lon="13.72558045854593"><ele>1379.0</ele><time>2026-04-19T08:42:23.999Z</time></trkpt><trkpt lat="42.36686534131544" lon="13.725417787566123"><ele>1379.0</ele><time>2026-04-19T08:42:24.999Z</time></trkpt><trkpt lat="42.36692626835767" lon="13.725267839023699"><ele>1379.0</ele><time>2026-04-19T08:42:25.999Z</time></trkpt><trkpt lat="42.36697703967721" lon="13.725113857310681"><ele>1379.0</ele><time>2026-04-19T08:42:26.999Z</time></trkpt><trkpt lat="42.367033453039426" lon="13.724966526492679"><ele>1379.0</ele><time>2026-04-19T08:42:27.999Z</time></trkpt><trkpt lat="42.367094076499264" lon="13.724828338900382"><ele>1378.25</ele><time>2026-04-19T08:42:28.999Z</time></trkpt><trkpt lat="42.36715716714871" lon="13.724686124722009"><ele>1377.5</ele><time>2026-04-19T08:42:29.999Z</time></trkpt><trkpt lat="42.36721954212484" lon="13.72455201917129"><ele>1376.75</ele><time>2026-04-19T08:42:31Z</time></trkpt><trkpt lat="42.36730289242172" lon="13.724436831110395"><ele>1376.0</ele><time>2026-04-19T08:42:32Z</time></trkpt><trkpt lat="42.36737855000355" lon="13.724317607227112"><ele>1376.0</ele><time>2026-04-19T08:42:33Z</time></trkpt><trkpt lat="42.36745618920118" lon="13.724203693554168"><ele>1376.0</ele><time>2026-04-19T08:42:34Z</time></trkpt><trkpt lat="42.36753112790816" lon="13.724101787184384"><ele>1376.0</ele><time>2026-04-19T08:42:35Z</time></trkpt><trkpt lat="42.36759424397498" lon="13.723992907361852"><ele>1376.0</ele><time>2026-04-19T08:42:36Z</time></trkpt><trkpt lat="42.36767465550304" lon="13.723908528154343"><ele>1376.0</ele><time>2026-04-19T08:42:37Z</time></trkpt><trkpt lat="42.36776482568592" lon="13.723850308198434"><ele>1376.0</ele><time>2026-04-19T08:42:38Z</time></trkpt><trkpt lat="42.367849449115674" lon="13.723781394318795"><ele>1376.0</ele><time>2026-04-19T08:42:39Z</time></trkpt><trkpt lat="42.367930782382636" lon="13.723705683756727"><ele>1376.0</ele><time>2026-04-19T08:42:40Z</time></trkpt><trkpt lat="42.36801556382597" lon="13.72364302148963"><ele>1376.0</ele><time>2026-04-19T08:42:41Z</time></trkpt><trkpt lat="42.368100589880854" lon="13.723582211789624"><ele>1376.0</ele><time>2026-04-19T08:42:42Z</time></trkpt><trkpt lat="42.368178216615995" lon="13.723537377468926"><ele>1374.5714285714287</ele><time>2026-04-19T08:42:43Z</time></trkpt><trkpt lat="42.36824827353808" lon="13.723495665833234"><ele>1373.142857142857</ele><time>2026-04-19T08:42:44Z</time></trkpt><trkpt lat="42.3683156904689" lon="13.723459586687923"><ele>1371.7142857142858</ele><time>2026-04-19T08:42:45Z</time></trkpt><trkpt lat="42.36838271877508" lon="13.723415614440395"><ele>1370.2857142857142</ele><time>2026-04-19T08:42:46Z</time></trkpt><trkpt lat="42.368447333673096" lon="13.723370807513588"><ele>1368.857142857143</ele><time>2026-04-19T08:42:47Z</time></trkpt><trkpt lat="42.36851578241945" lon="13.723332399731555"><ele>1367.4285714285716</ele><time>2026-04-19T08:42:48Z</time></trkpt><trkpt lat="42.368579843876624" lon="13.723277965381294"><ele>1366.0</ele><time>2026-04-19T08:42:49Z</time></trkpt><trkpt lat="42.36864898722974" lon="13.723235305291423"><ele>1366.0</ele><time>2026-04-19T08:42:50Z</time></trkpt><trkpt lat="42.36870454372821" lon="13.723172998929659"><ele>1366.0</ele><time>2026-04-19T08:42:51Z</time></trkpt><trkpt lat="42.36874443556798" lon="13.723096474875424"><ele>1366.0</ele><time>2026-04-19T08:42:52Z</time></trkpt><trkpt lat="42.3687551927366" lon="13.722975627055726"><ele>1366.0</ele><time>2026-04-19T08:42:53Z</time></trkpt><trkpt lat="42.36873505909091" lon="13.722848126098318"><ele>1366.0</ele><time>2026-04-19T08:42:54Z</time></trkpt><trkpt lat="42.36870098712161" lon="13.722734609395896"><ele>1366.0</ele><time>2026-04-19T08:42:55Z</time></trkpt><trkpt lat="42.36865080576912" lon="13.722645327320283"><ele>1364.3333333333333</ele><time>2026-04-19T08:42:56Z</time></trkpt><trkpt lat="42.36858046409252" lon="13.722599693789713"><ele>1362.6666666666665</ele><time>2026-04-19T08:42:57Z</time></trkpt><trkpt lat="42.36852882762414" lon="13.722526275021549"><ele>1361.0</ele><time>2026-04-19T08:42:58Z</time></trkpt><trkpt lat="42.36842216210335" lon="13.722435762521085"><ele>1359.3333333333333</ele><time>2026-04-19T08:42:59.999Z</time></trkpt><trkpt lat="42.36838261482188" lon="13.722364675342389"><ele>1357.6666666666667</ele><time>2026-04-19T08:43:00.999Z</time></trkpt><trkpt lat="42.368344422190816" lon="13.722271845905217"><ele>1356.0</ele><time>2026-04-19T08:43:01.999Z</time></trkpt><trkpt lat="42.36833709739692" lon="13.722156833828116"><ele>1356.0</ele><time>2026-04-19T08:43:02.999Z</time></trkpt><trkpt lat="42.3683242694341" lon="13.722031783772493"><ele>1356.0</ele><time>2026-04-19T08:43:03.999Z</time></trkpt><trkpt lat="42.3683129180103" lon="13.72189733375829"><ele>1356.0</ele><time>2026-04-19T08:43:04.999Z</time></trkpt><trkpt lat="42.36829997827467" lon="13.721760656021798"><ele>1356.0</ele><time>2026-04-19T08:43:05.999Z</time></trkpt><trkpt lat="42.36827698530746" lon="13.721636753150452"><ele>1356.0</ele><time>2026-04-19T08:43:06.999Z</time></trkpt><trkpt lat="42.36826823952292" lon="13.721522160524117"><ele>1356.6666666666667</ele><time>2026-04-19T08:43:07.999Z</time></trkpt><trkpt lat="42.36826018659384" lon="13.721407696659965"><ele>1357.3333333333333</ele><time>2026-04-19T08:43:08.999Z</time></trkpt><trkpt lat="42.368247435469655" lon="13.721299586964374"><ele>1358.0</ele><time>2026-04-19T08:43:09.999Z</time></trkpt><trkpt lat="42.36823531902952" lon="13.721187474478633"><ele>1358.6666666666665</ele><time>2026-04-19T08:43:10.999Z</time></trkpt><trkpt lat="42.36822075345707" lon="13.721064783748215"><ele>1359.3333333333333</ele><time>2026-04-19T08:43:11.999Z</time></trkpt><trkpt lat="42.36821001722557" lon="13.720936246642477"><ele>1360.0</ele><time>2026-04-19T08:43:12.999Z</time></trkpt><trkpt lat="42.36820092665851" lon="13.720810953004793"><ele>1360.3333333333333</ele><time>2026-04-19T08:43:13.999Z</time></trkpt><trkpt lat="42.368186734316126" lon="13.72068936035975"><ele>1360.6666666666665</ele><time>2026-04-19T08:43:14.999Z</time></trkpt><trkpt lat="42.36817427244716" lon="13.720578756939485"><ele>1361.0</ele><time>2026-04-19T08:43:15.999Z</time></trkpt><trkpt lat="42.36815807039406" lon="13.720472145974066"><ele>1361.3333333333333</ele><time>2026-04-19T08:43:16.999Z</time></trkpt><trkpt lat="42.368142548781584" lon="13.720362880172521"><ele>1361.6666666666667</ele><time>2026-04-19T08:43:17.999Z</time></trkpt><trkpt lat="42.368129539820224" lon="13.720252135422824"><ele>1362.0</ele><time>2026-04-19T08:43:18.999Z</time></trkpt><trkpt lat="42.36811360855011" lon="13.72015317868398"><ele>1362.5714285714287</ele><time>2026-04-19T08:43:19.999Z</time></trkpt><trkpt lat="42.368079799245855" lon="13.720061875030828"><ele>1363.142857142857</ele><time>2026-04-19T08:43:20.999Z</time></trkpt><trkpt lat="42.36805026285176" lon="13.719975762362928"><ele>1363.7142857142858</ele><time>2026-04-19T08:43:21.999Z</time></trkpt><trkpt lat="42.36802135301722" lon="13.719882774540894"><ele>1364.2857142857142</ele><time>2026-04-19T08:43:22.999Z</time></trkpt><trkpt lat="42.367988956226014" lon="13.71979278202739"><ele>1364.857142857143</ele><time>2026-04-19T08:43:23.999Z</time></trkpt><trkpt lat="42.367944431519156" lon="13.719716246797532"><ele>1365.4285714285716</ele><time>2026-04-19T08:43:24.999Z</time></trkpt><trkpt lat="42.36788705402421" lon="13.719654558780581"><ele>1366.0</ele><time>2026-04-19T08:43:25.999Z</time></trkpt><trkpt lat="42.36783210623875" lon="13.719578017870226"><ele>1363.8333333333333</ele><time>2026-04-19T08:43:26.999Z</time></trkpt><trkpt lat="42.367764663045996" lon="13.719517637204724"><ele>1361.6666666666665</ele><time>2026-04-19T08:43:27.999Z</time></trkpt><trkpt lat="42.3676793832418" lon="13.719498185936184"><ele>1359.5</ele><time>2026-04-19T08:43:28.999Z</time></trkpt><trkpt lat="42.36760678390222" lon="13.719457355656079"><ele>1357.3333333333333</ele><time>2026-04-19T08:43:29.999Z</time></trkpt><trkpt lat="42.36753854010423" lon="13.719427113157536"><ele>1355.1666666666667</ele><time>2026-04-19T08:43:30.999Z</time></trkpt><trkpt lat="42.36746802805431" lon="13.719395088660399"><ele>1353.0</ele><time>2026-04-19T08:43:31.999Z</time></trkpt><trkpt lat="42.36740186680415" lon="13.719318063265314"><ele>1353.0</ele><time>2026-04-19T08:43:32.999Z</time></trkpt><trkpt lat="42.367328385975135" lon="13.719245196127275"><ele>1353.0</ele><time>2026-04-19T08:43:33.999Z</time></trkpt><trkpt lat="42.36729644175904" lon="13.719106739846815"><ele>1353.0</ele><time>2026-04-19T08:43:34.999Z</time></trkpt><trkpt lat="42.36727824090059" lon="13.718960847321329"><ele>1353.0</ele><time>2026-04-19T08:43:35.999Z</time></trkpt><trkpt lat="42.36727834780796" lon="13.718822346805501"><ele>1353.0</ele><time>2026-04-19T08:43:36.999Z</time></trkpt><trkpt lat="42.3672700403129" lon="13.71870033682548"><ele>1353.0</ele><time>2026-04-19T08:43:37.999Z</time></trkpt><trkpt lat="42.367278788301554" lon="13.71858765472538"><ele>1353.0</ele><time>2026-04-19T08:43:38.999Z</time></trkpt><trkpt lat="42.36728147010811" lon="13.718481579525005"><ele>1353.0</ele><time>2026-04-19T08:43:39.999Z</time></trkpt><trkpt lat="42.367281639730514" lon="13.718375573748753"><ele>1353.0</ele><time>2026-04-19T08:43:40.999Z</time></trkpt><trkpt lat="42.367286993866955" lon="13.71824815717443"><ele>1353.0</ele><time>2026-04-19T08:43:41.999Z</time></trkpt><trkpt lat="42.36729985447372" lon="13.718121053346295"><ele>1353.0</ele><time>2026-04-19T08:43:42.999Z</time></trkpt><trkpt lat="42.36730707649144" lon="13.718006277208701"><ele>1353.8333333333333</ele><time>2026-04-19T08:43:43.999Z</time></trkpt><trkpt lat="42.367309331157976" lon="13.717903373679823"><ele>1354.6666666666667</ele><time>2026-04-19T08:43:44.999Z</time></trkpt><trkpt lat="42.36731175790219" lon="13.71780241732089"><ele>1355.5</ele><time>2026-04-19T08:43:45.999Z</time></trkpt><trkpt lat="42.3673184168973" lon="13.717694237667327"><ele>1356.3333333333335</ele><time>2026-04-19T08:43:46.999Z</time></trkpt><trkpt lat="42.36732915262619" lon="13.717573673242722"><ele>1357.1666666666667</ele><time>2026-04-19T08:43:47.999Z</time></trkpt><trkpt lat="42.36733910388346" lon="13.717465379463125"><ele>1358.0</ele><time>2026-04-19T08:43:48.999Z</time></trkpt><trkpt lat="42.36735142188749" lon="13.717367872813293"><ele>1358.2</ele><time>2026-04-19T08:43:49.999Z</time></trkpt><trkpt lat="42.36736115153899" lon="13.717278292822526"><ele>1358.4</ele><time>2026-04-19T08:43:50.999Z</time></trkpt><trkpt lat="42.3673288564392" lon="13.71712742021644"><ele>1358.6000000000001</ele><time>2026-04-19T08:43:52.999Z</time></trkpt><trkpt lat="42.36723863435791" lon="13.71704294803822"><ele>1358.8000000000002</ele><time>2026-04-19T08:43:54.999Z</time></trkpt><trkpt lat="42.36712917265166" lon="13.717092092522302"><ele>1359.0</ele><time>2026-04-19T08:43:56.999Z</time></trkpt><trkpt lat="42.36709450666512" lon="13.717167834056127"><ele>1354.6</ele><time>2026-04-19T08:43:57.999Z</time></trkpt><trkpt lat="42.36707988127998" lon="13.717262912717777"><ele>1350.2</ele><time>2026-04-19T08:43:58.999Z</time></trkpt><trkpt lat="42.367078231426504" lon="13.717372731484124"><ele>1345.8</ele><time>2026-04-19T08:43:59.999Z</time></trkpt><trkpt lat="42.36707925160363" lon="13.717496837282464"><ele>1341.3999999999999</ele><time>2026-04-19T08:44:00.999Z</time></trkpt><trkpt lat="42.36707504435138" lon="13.717631316834774"><ele>1337.0</ele><time>2026-04-19T08:44:01.999Z</time></trkpt><trkpt lat="42.36706398283236" lon="13.717774751640773"><ele>1335.25</ele><time>2026-04-19T08:44:02.999Z</time></trkpt><trkpt lat="42.36705537906979" lon="13.717918892324382"><ele>1333.5</ele><time>2026-04-19T08:44:03.999Z</time></trkpt><trkpt lat="42.367047556803435" lon="13.718069887152803"><ele>1331.75</ele><time>2026-04-19T08:44:04.999Z</time></trkpt><trkpt lat="42.36703966819468" lon="13.718235594446723"><ele>1330.0</ele><time>2026-04-19T08:44:05.999Z</time></trkpt><trkpt lat="42.36703468766274" lon="13.71839732427631"><ele>1330.0</ele><time>2026-04-19T08:44:06.999Z</time></trkpt><trkpt lat="42.3670258984229" lon="13.718542037018398"><ele>1330.0</ele><time>2026-04-19T08:44:07.999Z</time></trkpt><trkpt lat="42.367016527248055" lon="13.718677429575145"><ele>1330.0</ele><time>2026-04-19T08:44:08.999Z</time></trkpt><trkpt lat="42.367006306183605" lon="13.718807720242323"><ele>1330.0</ele><time>2026-04-19T08:44:09.999Z</time></trkpt><trkpt lat="42.36699712162248" lon="13.718934221641572"><ele>1330.0</ele><time>2026-04-19T08:44:10.999Z</time></trkpt><trkpt lat="42.36699022125952" lon="13.719069940305546"><ele>1329.2</ele><time>2026-04-19T08:44:11.999Z</time></trkpt><trkpt lat="42.366983331350625" lon="13.719213281447402"><ele>1328.4</ele><time>2026-04-19T08:44:12.999Z</time></trkpt><trkpt lat="42.36697667478066" lon="13.71935191241418"><ele>1327.6</ele><time>2026-04-19T08:44:13.999Z</time></trkpt><trkpt lat="42.366973262231426" lon="13.719475604008988"><ele>1326.8</ele><time>2026-04-19T08:44:14.999Z</time></trkpt><trkpt lat="42.36697683270839" lon="13.719614138464593"><ele>1326.0</ele><time>2026-04-19T08:44:15.999Z</time></trkpt><trkpt lat="42.36699221967948" lon="13.719765206437339"><ele>1324.5</ele><time>2026-04-19T08:44:16.999Z</time></trkpt><trkpt lat="42.36701964903486" lon="13.719929090764722"><ele>1323.0</ele><time>2026-04-19T08:44:17.999Z</time></trkpt><trkpt lat="42.36705496533699" lon="13.720098968330268"><ele>1321.5</ele><time>2026-04-19T08:44:18.999Z</time></trkpt><trkpt lat="42.36709424311145" lon="13.720272144320827"><ele>1320.0</ele><time>2026-04-19T08:44:19.999Z</time></trkpt><trkpt lat="42.367136898444286" lon="13.720425021111085"><ele>1319.2</ele><time>2026-04-19T08:44:20.999Z</time></trkpt><trkpt lat="42.36717762467791" lon="13.720569383286021"><ele>1318.4</ele><time>2026-04-19T08:44:21.999Z</time></trkpt><trkpt lat="42.36721108089702" lon="13.720708596422467"><ele>1317.6</ele><time>2026-04-19T08:44:22.999Z</time></trkpt><trkpt lat="42.367239883135554" lon="13.720847051343977"><ele>1316.8</ele><time>2026-04-19T08:44:23.999Z</time></trkpt><trkpt lat="42.36727098584477" lon="13.720977821529619"><ele>1316.0</ele><time>2026-04-19T08:44:24.999Z</time></trkpt><trkpt lat="42.367303715458405" lon="13.721099682078885"><ele>1318.8</ele><time>2026-04-19T08:44:25.999Z</time></trkpt><trkpt lat="42.36733617043443" lon="13.72122105026107"><ele>1321.6</ele><time>2026-04-19T08:44:26.999Z</time></trkpt><trkpt lat="42.36736796818428" lon="13.721350324853073"><ele>1324.4</ele><time>2026-04-19T08:44:27.999Z</time></trkpt><trkpt lat="42.36740379484584" lon="13.721491551870901"><ele>1327.2</ele><time>2026-04-19T08:44:28.999Z</time></trkpt><trkpt lat="42.36743635786422" lon="13.721626803369567"><ele>1330.0</ele><time>2026-04-19T08:44:29.999Z</time></trkpt><trkpt lat="42.367456337223736" lon="13.721756210857302"><ele>1330.0</ele><time>2026-04-19T08:44:30.999Z</time></trkpt><trkpt lat="42.367444758938674" lon="13.721878224373832"><ele>1330.0</ele><time>2026-04-19T08:44:31.999Z</time></trkpt><trkpt lat="42.36738988119044" lon="13.721983345353975"><ele>1330.0</ele><time>2026-04-19T08:44:32.998Z</time></trkpt><trkpt lat="42.36730889443587" lon="13.722045856496038"><ele>1330.0</ele><time>2026-04-19T08:44:33.998Z</time></trkpt><trkpt lat="42.36721403576143" lon="13.722057009272614"><ele>1330.0</ele><time>2026-04-19T08:44:34.998Z</time></trkpt><trkpt lat="42.36711948414082" lon="13.722016513158326"><ele>1330.4</ele><time>2026-04-19T08:44:35.999Z</time></trkpt><trkpt lat="42.36704728056526" lon="13.721940000366244"><ele>1330.8</ele><time>2026-04-19T08:44:36.999Z</time></trkpt><trkpt lat="42.36701287807002" lon="13.721846037366753"><ele>1331.1999999999998</ele><time>2026-04-19T08:44:37.999Z</time></trkpt><trkpt lat="42.366995729346236" lon="13.72175108647972"><ele>1331.6</ele><time>2026-04-19T08:44:38.999Z</time></trkpt><trkpt lat="42.36707037875023" lon="13.721620572934095"><ele>1332.0</ele><time>2026-04-19T08:44:39.999Z</time></trkpt><trkpt lat="42.36710398005166" lon="13.721447245763581"><ele>1329.0</ele><time>2026-04-19T08:44:40.999Z</time></trkpt><trkpt lat="42.367100779947954" lon="13.721257294557871"><ele>1326.0</ele><time>2026-04-19T08:44:41.999Z</time></trkpt><trkpt lat="42.36708478270584" lon="13.721082185014266"><ele>1323.0</ele><time>2026-04-19T08:44:42.999Z</time></trkpt><trkpt lat="42.36703269833989" lon="13.72090296362426"><ele>1320.0</ele><time>2026-04-19T08:44:43.999Z</time></trkpt><trkpt lat="42.36693911810633" lon="13.720697986659415"><ele>1320.0</ele><time>2026-04-19T08:44:44.999Z</time></trkpt><trkpt lat="42.36682297015599" lon="13.720475845013903"><ele>1320.0</ele><time>2026-04-19T08:44:45.999Z</time></trkpt><trkpt lat="42.36674863204367" lon="13.72020992339916"><ele>1320.0</ele><time>2026-04-19T08:44:46.999Z</time></trkpt><trkpt lat="42.36668449382728" lon="13.71993185083512"><ele>1320.0</ele><time>2026-04-19T08:44:47.999Z</time></trkpt><trkpt lat="42.36661631124126" lon="13.719667077719667"><ele>1320.0</ele><time>2026-04-19T08:44:48.999Z</time></trkpt><trkpt lat="42.36657305804304" lon="13.719430055994255"><ele>1320.0</ele><time>2026-04-19T08:44:49.999Z</time></trkpt><trkpt lat="42.36653475361724" lon="13.719235868513557"><ele>1321.25</ele><time>2026-04-19T08:44:50.999Z</time></trkpt><trkpt lat="42.36648597302333" lon="13.719074912122633"><ele>1322.5</ele><time>2026-04-19T08:44:51.999Z</time></trkpt><trkpt lat="42.36640962612526" lon="13.718962898555697"><ele>1323.75</ele><time>2026-04-19T08:44:52.999Z</time></trkpt><trkpt lat="42.366307461753905" lon="13.718903802673841"><ele>1325.0</ele><time>2026-04-19T08:44:53.999Z</time></trkpt><trkpt lat="42.366180155550374" lon="13.718907710460119"><ele>1325.0</ele><time>2026-04-19T08:44:54.999Z</time></trkpt><trkpt lat="42.36605118721771" lon="13.718968272546105"><ele>1325.0</ele><time>2026-04-19T08:44:55.999Z</time></trkpt><trkpt lat="42.365950874622506" lon="13.71907656636145"><ele>1325.0</ele><time>2026-04-19T08:44:56.999Z</time></trkpt><trkpt lat="42.365875750836814" lon="13.71924748441164"><ele>1325.0</ele><time>2026-04-19T08:44:57.999Z</time></trkpt><trkpt lat="42.36579411425076" lon="13.719471544275619"><ele>1321.6666666666667</ele><time>2026-04-19T08:44:58.999Z</time></trkpt><trkpt lat="42.36569948118026" lon="13.719676942078365"><ele>1318.3333333333333</ele><time>2026-04-19T08:44:59.999Z</time></trkpt><trkpt lat="42.365627842943546" lon="13.719906212305178"><ele>1315.0</ele><time>2026-04-19T08:45:00.999Z</time></trkpt><trkpt lat="42.36558081236818" lon="13.72015371836397"><ele>1315.0</ele><time>2026-04-19T08:45:01.999Z</time></trkpt><trkpt lat="42.3655711903792" lon="13.720397093990963"><ele>1315.0</ele><time>2026-04-19T08:45:02.999Z</time></trkpt><trkpt lat="42.36557812524751" lon="13.720669470001319"><ele>1315.0</ele><time>2026-04-19T08:45:03.999Z</time></trkpt><trkpt lat="42.365605909545415" lon="13.720971616774468"><ele>1315.3333333333333</ele><time>2026-04-19T08:45:04.999Z</time></trkpt><trkpt lat="42.36563552221193" lon="13.721262129854027"><ele>1315.6666666666667</ele><time>2026-04-19T08:45:05.999Z</time></trkpt><trkpt lat="42.36566733524394" lon="13.721484860135563"><ele>1316.0</ele><time>2026-04-19T08:45:06.999Z</time></trkpt><trkpt lat="42.36569196428538" lon="13.721726390648382"><ele>1316.0</ele><time>2026-04-19T08:45:07.999Z</time></trkpt><trkpt lat="42.36571947582789" lon="13.721951293030347"><ele>1316.0</ele><time>2026-04-19T08:45:08.999Z</time></trkpt><trkpt lat="42.36570987954665" lon="13.722114025407166"><ele>1316.0</ele><time>2026-04-19T08:45:09.999Z</time></trkpt><trkpt lat="42.36568536116935" lon="13.722284122477276"><ele>1316.0</ele><time>2026-04-19T08:45:10.999Z</time></trkpt><trkpt lat="42.36563270271098" lon="13.722441113448859"><ele>1316.0</ele><time>2026-04-19T08:45:11.999Z</time></trkpt><trkpt lat="42.36555387620819" lon="13.722574113315877"><ele>1316.0</ele><time>2026-04-19T08:45:12.999Z</time></trkpt><trkpt lat="42.36545743874092" lon="13.722695456118469"><ele>1316.0</ele><time>2026-04-19T08:45:13.999Z</time></trkpt><trkpt lat="42.3653653387117" lon="13.722816634772485"><ele>1316.0</ele><time>2026-04-19T08:45:14.999Z</time></trkpt><trkpt lat="42.36526954990773" lon="13.722914990748807"><ele>1314.6</ele><time>2026-04-19T08:45:15.999Z</time></trkpt><trkpt lat="42.36518908946004" lon="13.723030070431653"><ele>1313.1999999999998</ele><time>2026-04-19T08:45:16.999Z</time></trkpt><trkpt lat="42.36511263423455" lon="13.723139421595752"><ele>1311.8000000000002</ele><time>2026-04-19T08:45:17.999Z</time></trkpt><trkpt lat="42.365048059085595" lon="13.723257066362121"><ele>1310.4</ele><time>2026-04-19T08:45:18.999Z</time></trkpt><trkpt lat="42.364972221263145" lon="13.723350459940184"><ele>1309.0</ele><time>2026-04-19T08:45:19.999Z</time></trkpt><trkpt lat="42.364903366283606" lon="13.72344504071853"><ele>1309.0</ele><time>2026-04-19T08:45:20.999Z</time></trkpt><trkpt lat="42.36483701372209" lon="13.723533019921698"><ele>1309.0</ele><time>2026-04-19T08:45:21.999Z</time></trkpt><trkpt lat="42.3647703649175" lon="13.72361862251468"><ele>1309.0</ele><time>2026-04-19T08:45:22.999Z</time></trkpt><trkpt lat="42.364712102014835" lon="13.723699457448324"><ele>1309.0</ele><time>2026-04-19T08:45:23.999Z</time></trkpt><trkpt lat="42.364657392206105" lon="13.723779698012425"><ele>1309.0</ele><time>2026-04-19T08:45:24.999Z</time></trkpt><trkpt lat="42.36460229434619" lon="13.723859036430786"><ele>1309.0</ele><time>2026-04-19T08:45:25.999Z</time></trkpt><trkpt lat="42.36454939064513" lon="13.723924247989078"><ele>1308.5</ele><time>2026-04-19T08:45:26.999Z</time></trkpt><trkpt lat="42.364501359920865" lon="13.723997775089803"><ele>1308.0</ele><time>2026-04-19T08:45:27.999Z</time></trkpt><trkpt lat="42.36445347007684" lon="13.7240676871851"><ele>1307.5</ele><time>2026-04-19T08:45:28.999Z</time></trkpt><trkpt lat="42.36440419203484" lon="13.724130974969157"><ele>1307.0</ele><time>2026-04-19T08:45:29.999Z</time></trkpt><trkpt lat="42.36435597808062" lon="13.72419207807597"><ele>1306.5</ele><time>2026-04-19T08:45:30.999Z</time></trkpt><trkpt lat="42.36423400234225" lon="13.72419781236187"><ele>1306.0</ele><time>2026-04-19T08:45:32.999Z</time></trkpt><trkpt lat="42.36416546315897" lon="13.724193141502392"><ele>1306.0000000000002</ele><time>2026-04-19T08:45:33.999Z</time></trkpt><trkpt lat="42.36409629693665" lon="13.724207111631577"><ele>1306.0</ele><time>2026-04-19T08:45:34.999Z</time></trkpt><trkpt lat="42.36402827629577" lon="13.724198064420706"><ele>1306.0</ele><time>2026-04-19T08:45:35.999Z</time></trkpt><trkpt lat="42.3639644540829" lon="13.724161506523037"><ele>1306.0</ele><time>2026-04-19T08:45:36.999Z</time></trkpt><trkpt lat="42.36389321330729" lon="13.724129626180225"><ele>1306.0</ele><time>2026-04-19T08:45:37.999Z</time></trkpt><trkpt lat="42.36382182894249" lon="13.72409670845816"><ele>1306.0000000000002</ele><time>2026-04-19T08:45:38.999Z</time></trkpt><trkpt lat="42.36374808097691" lon="13.724063819958031"><ele>1306.0</ele><time>2026-04-19T08:45:39.999Z</time></trkpt><trkpt lat="42.36366576592628" lon="13.724061423563802"><ele>1302.8333333333333</ele><time>2026-04-19T08:45:40.999Z</time></trkpt><trkpt lat="42.363584926023975" lon="13.724050638320469"><ele>1299.6666666666665</ele><time>2026-04-19T08:45:41.999Z</time></trkpt><trkpt lat="42.36350661166828" lon="13.724019186476369"><ele>1296.5</ele><time>2026-04-19T08:45:42.999Z</time></trkpt><trkpt lat="42.36342393375661" lon="13.724037168695888"><ele>1293.3333333333333</ele><time>2026-04-19T08:45:43.999Z</time></trkpt><trkpt lat="42.36334376326209" lon="13.723988771176614"><ele>1290.1666666666667</ele><time>2026-04-19T08:45:44.999Z</time></trkpt><trkpt lat="42.363285094368855" lon="13.72391583805094"><ele>1287.0</ele><time>2026-04-19T08:45:45.999Z</time></trkpt><trkpt lat="42.36321681104839" lon="13.723835633716659"><ele>1287.0</ele><time>2026-04-19T08:45:46.999Z</time></trkpt><trkpt lat="42.36315954910971" lon="13.723754753521286"><ele>1287.0</ele><time>2026-04-19T08:45:47.999Z</time></trkpt><trkpt lat="42.363104695834984" lon="13.723660186077879"><ele>1287.0</ele><time>2026-04-19T08:45:48.999Z</time></trkpt><trkpt lat="42.36306142609648" lon="13.723561670583091"><ele>1287.0</ele><time>2026-04-19T08:45:49.999Z</time></trkpt><trkpt lat="42.36302453316111" lon="13.723455317200218"><ele>1287.0</ele><time>2026-04-19T08:45:50.999Z</time></trkpt><trkpt lat="42.36298097473199" lon="13.723351578082209"><ele>1287.0</ele><time>2026-04-19T08:45:51.999Z</time></trkpt><trkpt lat="42.36296264546069" lon="13.723236205983007"><ele>1285.1666666666667</ele><time>2026-04-19T08:45:52.999Z</time></trkpt><trkpt lat="42.36293362656731" lon="13.723124344422699"><ele>1283.3333333333333</ele><time>2026-04-19T08:45:53.999Z</time></trkpt><trkpt lat="42.362891668891926" lon="13.723023985295391"><ele>1281.5</ele><time>2026-04-19T08:45:54.999Z</time></trkpt><trkpt lat="42.36287233152666" lon="13.72291258029271"><ele>1279.6666666666665</ele><time>2026-04-19T08:45:55.999Z</time></trkpt><trkpt lat="42.36284150056351" lon="13.72280487779241"><ele>1277.8333333333333</ele><time>2026-04-19T08:45:56.999Z</time></trkpt><trkpt lat="42.36281306951184" lon="13.722696177954074"><ele>1276.0</ele><time>2026-04-19T08:45:57.999Z</time></trkpt><trkpt lat="42.362787656438655" lon="13.72258993859519"><ele>1276.0</ele><time>2026-04-19T08:45:58.999Z</time></trkpt><trkpt lat="42.36276076090419" lon="13.722482272808953"><ele>1276.0</ele><time>2026-04-19T08:45:59.999Z</time></trkpt><trkpt lat="42.36273520536337" lon="13.722371678872147"><ele>1276.0</ele><time>2026-04-19T08:46:00.999Z</time></trkpt><trkpt lat="42.36270836491797" lon="13.722263688662197"><ele>1276.0</ele><time>2026-04-19T08:46:01.999Z</time></trkpt><trkpt lat="42.36267881598323" lon="13.722155369268384"><ele>1276.0</ele><time>2026-04-19T08:46:02.999Z</time></trkpt><trkpt lat="42.36264847139032" lon="13.722047718426204"><ele>1276.0</ele><time>2026-04-19T08:46:03.999Z</time></trkpt><trkpt lat="42.36262054456572" lon="13.721939368531206"><ele>1277.3333333333333</ele><time>2026-04-19T08:46:04.999Z</time></trkpt><trkpt lat="42.36259952193462" lon="13.72183298648852"><ele>1278.6666666666665</ele><time>2026-04-19T08:46:05.999Z</time></trkpt><trkpt lat="42.362575295825835" lon="13.721719001929042"><ele>1280.0</ele><time>2026-04-19T08:46:06.999Z</time></trkpt><trkpt lat="42.36255585410078" lon="13.721603971179512"><ele>1281.3333333333333</ele><time>2026-04-19T08:46:07.999Z</time></trkpt><trkpt lat="42.36253635381678" lon="13.72149325046487"><ele>1282.6666666666667</ele><time>2026-04-19T08:46:08.999Z</time></trkpt><trkpt lat="42.36252048074829" lon="13.72137986034694"><ele>1284.0</ele><time>2026-04-19T08:46:09.999Z</time></trkpt><trkpt lat="42.36250751091173" lon="13.721271257797481"><ele>1284.0</ele><time>2026-04-19T08:46:10.999Z</time></trkpt><trkpt lat="42.36249353057216" lon="13.721162090061318"><ele>1284.0</ele><time>2026-04-19T08:46:11.999Z</time></trkpt><trkpt lat="42.36246989352882" lon="13.721060438525656"><ele>1284.0</ele><time>2026-04-19T08:46:12.999Z</time></trkpt><trkpt lat="42.362426828239414" lon="13.720971075294276"><ele>1284.0</ele><time>2026-04-19T08:46:13.999Z</time></trkpt><trkpt lat="42.362364338050455" lon="13.720902055077536"><ele>1284.0</ele><time>2026-04-19T08:46:14.999Z</time></trkpt><trkpt lat="42.362294545824966" lon="13.72084864777267"><ele>1284.0</ele><time>2026-04-19T08:46:15.999Z</time></trkpt><trkpt lat="42.36222359760618" lon="13.720810470987539"><ele>1282.3333333333333</ele><time>2026-04-19T08:46:16.999Z</time></trkpt><trkpt lat="42.362148962886295" lon="13.720785080547806"><ele>1280.6666666666667</ele><time>2026-04-19T08:46:17.999Z</time></trkpt><trkpt lat="42.36206639289795" lon="13.720762034097797"><ele>1279.0</ele><time>2026-04-19T08:46:18.999Z</time></trkpt><trkpt lat="42.36198779337628" lon="13.720752443085399"><ele>1277.3333333333335</ele><time>2026-04-19T08:46:19.999Z</time></trkpt><trkpt lat="42.36190881157415" lon="13.720753435441178"><ele>1275.6666666666667</ele><time>2026-04-19T08:46:20.999Z</time></trkpt><trkpt lat="42.361832291704374" lon="13.720752741731932"><ele>1274.0</ele><time>2026-04-19T08:46:21.999Z</time></trkpt><trkpt lat="42.36175488890893" lon="13.72075214143107"><ele>1274.0</ele><time>2026-04-19T08:46:22.999Z</time></trkpt><trkpt lat="42.36167778241467" lon="13.720758257796984"><ele>1274.0</ele><time>2026-04-19T08:46:23.999Z</time></trkpt><trkpt lat="42.361600168053805" lon="13.72076791739531"><ele>1274.0</ele><time>2026-04-19T08:46:24.999Z</time></trkpt><trkpt lat="42.361514849266" lon="13.72077879243976"><ele>1274.0</ele><time>2026-04-19T08:46:25.999Z</time></trkpt><trkpt lat="42.36143543977814" lon="13.720783932090804"><ele>1274.0</ele><time>2026-04-19T08:46:26.999Z</time></trkpt><trkpt lat="42.36135401517205" lon="13.720754964216047"><ele>1274.0</ele><time>2026-04-19T08:46:27.999Z</time></trkpt><trkpt lat="42.36128821133987" lon="13.720679907412284"><ele>1270.0</ele><time>2026-04-19T08:46:28.999Z</time></trkpt><trkpt lat="42.36125252991381" lon="13.720559676815002"><ele>1266.0</ele><time>2026-04-19T08:46:29.999Z</time></trkpt><trkpt lat="42.361261396210445" lon="13.72039773071607"><ele>1262.0</ele><time>2026-04-19T08:46:30.999Z</time></trkpt><trkpt lat="42.3612606950798" lon="13.720215842758547"><ele>1258.0</ele><time>2026-04-19T08:46:31.999Z</time></trkpt><trkpt lat="42.361249212923056" lon="13.72002558708698"><ele>1258.0</ele><time>2026-04-19T08:46:32.999Z</time></trkpt><trkpt lat="42.361250583456005" lon="13.719851298858151"><ele>1258.0</ele><time>2026-04-19T08:46:33.998Z</time></trkpt><trkpt lat="42.36126205728273" lon="13.719704435007671"><ele>1258.0</ele><time>2026-04-19T08:46:34.998Z</time></trkpt><trkpt lat="42.3612631743036" lon="13.719594289253836"><ele>1258.0</ele><time>2026-04-19T08:46:35.998Z</time></trkpt><trkpt lat="42.36115689568674" lon="13.719521575775486"><ele>1258.0</ele><time>2026-04-19T08:46:37.998Z</time></trkpt><trkpt lat="42.361092826301125" lon="13.719571204213809"><ele>1258.0</ele><time>2026-04-19T08:46:38.998Z</time></trkpt><trkpt lat="42.36103942506874" lon="13.719664723313818"><ele>1258.0</ele><time>2026-04-19T08:46:39.998Z</time></trkpt><trkpt lat="42.36103989048804" lon="13.7198506651726"><ele>1258.0</ele><time>2026-04-19T08:46:40.998Z</time></trkpt><trkpt lat="42.361056877211084" lon="13.720071108897608"><ele>1258.0</ele><time>2026-04-19T08:46:41.999Z</time></trkpt><trkpt lat="42.361062521106085" lon="13.720290135070345"><ele>1257.4</ele><time>2026-04-19T08:46:42.999Z</time></trkpt><trkpt lat="42.3610657432777" lon="13.720460246861268"><ele>1256.8</ele><time>2026-04-19T08:46:43.999Z</time></trkpt><trkpt lat="42.361064573960746" lon="13.720607636056672"><ele>1256.2</ele><time>2026-04-19T08:46:44.999Z</time></trkpt><trkpt lat="42.36106268049536" lon="13.720741662124476"><ele>1255.6</ele><time>2026-04-19T08:46:45.999Z</time></trkpt><trkpt lat="42.361041669722894" lon="13.720836575764153"><ele>1255.0</ele><time>2026-04-19T08:46:46.999Z</time></trkpt><trkpt lat="42.36097259939186" lon="13.720891141453947"><ele>1255.0</ele><time>2026-04-19T08:46:47.999Z</time></trkpt><trkpt lat="42.36086470614033" lon="13.72076919472497"><ele>1255.0</ele><time>2026-04-19T08:46:49.999Z</time></trkpt><trkpt lat="42.360865600852044" lon="13.720618974398915"><ele>1255.0</ele><time>2026-04-19T08:46:50.999Z</time></trkpt><trkpt lat="42.36083420147549" lon="13.720403824058549"><ele>1255.0</ele><time>2026-04-19T08:46:51.999Z</time></trkpt><trkpt lat="42.360787480779486" lon="13.720184100378914"><ele>1256.0</ele><time>2026-04-19T08:46:52.999Z</time></trkpt><trkpt lat="42.360766953591195" lon="13.719936876222453"><ele>1257.0</ele><time>2026-04-19T08:46:53.999Z</time></trkpt><trkpt lat="42.36074000310884" lon="13.719665069530638"><ele>1258.0</ele><time>2026-04-19T08:46:54.999Z</time></trkpt><trkpt lat="42.360709905304766" lon="13.71938422443155"><ele>1258.0</ele><time>2026-04-19T08:46:55.999Z</time></trkpt><trkpt lat="42.36067197428678" lon="13.719108700630429"><ele>1258.0</ele><time>2026-04-19T08:46:56.999Z</time></trkpt><trkpt lat="42.36062621107136" lon="13.718839262066915"><ele>1258.0</ele><time>2026-04-19T08:46:57.999Z</time></trkpt><trkpt lat="42.360547827032256" lon="13.718578471652135"><ele>1249.3333333333333</ele><time>2026-04-19T08:46:58.999Z</time></trkpt><trkpt lat="42.36043330320682" lon="13.718338912172971"><ele>1240.6666666666667</ele><time>2026-04-19T08:46:59.999Z</time></trkpt><trkpt lat="42.360300769926525" lon="13.718090654706423"><ele>1232.0</ele><time>2026-04-19T08:47:00.999Z</time></trkpt><trkpt lat="42.36017349499166" lon="13.717819763435871"><ele>1237.0</ele><time>2026-04-19T08:47:01.999Z</time></trkpt><trkpt lat="42.36005075835076" lon="13.717535981407204"><ele>1242.0</ele><time>2026-04-19T08:47:02.999Z</time></trkpt><trkpt lat="42.35995215202204" lon="13.717258152084915"><ele>1242.0</ele><time>2026-04-19T08:47:03.999Z</time></trkpt><trkpt lat="42.35985256365629" lon="13.71701454208384"><ele>1242.0</ele><time>2026-04-19T08:47:04.999Z</time></trkpt><trkpt lat="42.359763984140564" lon="13.71678100166861"><ele>1242.0</ele><time>2026-04-19T08:47:05.999Z</time></trkpt><trkpt lat="42.359687029764736" lon="13.716552061370058"><ele>1233.0</ele><time>2026-04-19T08:47:06.999Z</time></trkpt><trkpt lat="42.35962120709463" lon="13.716323462732916"><ele>1224.0</ele><time>2026-04-19T08:47:07.999Z</time></trkpt><trkpt lat="42.359565794183915" lon="13.716103550057465"><ele>1215.0</ele><time>2026-04-19T08:47:08.999Z</time></trkpt><trkpt lat="42.35952922769273" lon="13.715860613894911"><ele>1215.0</ele><time>2026-04-19T08:47:09.999Z</time></trkpt><trkpt lat="42.3594997636475" lon="13.715619983471067"><ele>1215.0</ele><time>2026-04-19T08:47:10.999Z</time></trkpt><trkpt lat="42.35948120766578" lon="13.715399279705942"><ele>1215.0</ele><time>2026-04-19T08:47:11.999Z</time></trkpt><trkpt lat="42.35947778368897" lon="13.715199788450933"><ele>1215.4</ele><time>2026-04-19T08:47:12.999Z</time></trkpt><trkpt lat="42.35947891487327" lon="13.715019742023753"><ele>1215.8</ele><time>2026-04-19T08:47:13.999Z</time></trkpt><trkpt lat="42.359479914281025" lon="13.714860669905676"><ele>1216.2</ele><time>2026-04-19T08:47:14.999Z</time></trkpt><trkpt lat="42.359478000815265" lon="13.714724161961218"><ele>1216.6</ele><time>2026-04-19T08:47:15.999Z</time></trkpt><trkpt lat="42.359481271076355" lon="13.714613661526107"><ele>1217.0</ele><time>2026-04-19T08:47:16.999Z</time></trkpt><trkpt lat="42.35940201675037" lon="13.714523531814082"><ele>1217.0</ele><time>2026-04-19T08:47:18.999Z</time></trkpt><trkpt lat="42.35929565217062" lon="13.714593161383064"><ele>1217.0</ele><time>2026-04-19T08:47:20.999Z</time></trkpt><trkpt lat="42.35928263805494" lon="13.714709741070195"><ele>1217.0</ele><time>2026-04-19T08:47:21.999Z</time></trkpt><trkpt lat="42.35927394859486" lon="13.714823912339726"><ele>1217.0</ele><time>2026-04-19T08:47:22.999Z</time></trkpt><trkpt lat="42.35927582150484" lon="13.714951851092158"><ele>1217.0</ele><time>2026-04-19T08:47:23.999Z</time></trkpt><trkpt lat="42.359271715233106" lon="13.71508284331856"><ele>1217.0</ele><time>2026-04-19T08:47:24.999Z</time></trkpt><trkpt lat="42.35926230981024" lon="13.715193632805185"><ele>1217.0</ele><time>2026-04-19T08:47:25.999Z</time></trkpt><trkpt lat="42.359250775137305" lon="13.715318179247372"><ele>1217.0</ele><time>2026-04-19T08:47:26.999Z</time></trkpt><trkpt lat="42.35923931070728" lon="13.715448699686394"><ele>1217.0</ele><time>2026-04-19T08:47:27.999Z</time></trkpt><trkpt lat="42.35922636474254" lon="13.715582713035007"><ele>1217.0</ele><time>2026-04-19T08:47:28.999Z</time></trkpt><trkpt lat="42.359213405446695" lon="13.71572569078534"><ele>1216.5</ele><time>2026-04-19T08:47:29.999Z</time></trkpt><trkpt lat="42.35920151453605" lon="13.715870750270776"><ele>1216.0</ele><time>2026-04-19T08:47:30.999Z</time></trkpt><trkpt lat="42.359197990384274" lon="13.716017464349848"><ele>1215.5</ele><time>2026-04-19T08:47:31.999Z</time></trkpt><trkpt lat="42.35920413921786" lon="13.71616787322665"><ele>1215.0</ele><time>2026-04-19T08:47:32.999Z</time></trkpt><trkpt lat="42.35922158174265" lon="13.716331920695477"><ele>1213.3333333333333</ele><time>2026-04-19T08:47:33.999Z</time></trkpt><trkpt lat="42.35925052845074" lon="13.716510967415031"><ele>1211.6666666666665</ele><time>2026-04-19T08:47:34.999Z</time></trkpt><trkpt lat="42.359284916700815" lon="13.7167158126573"><ele>1210.0</ele><time>2026-04-19T08:47:35.999Z</time></trkpt><trkpt lat="42.35931352828505" lon="13.71695239647005"><ele>1207.6666666666665</ele><time>2026-04-19T08:47:36.999Z</time></trkpt><trkpt lat="42.35934065486085" lon="13.717236184020232"><ele>1205.3333333333333</ele><time>2026-04-19T08:47:37.999Z</time></trkpt><trkpt lat="42.359369728732396" lon="13.717535751907253"><ele>1203.0</ele><time>2026-04-19T08:47:38.999Z</time></trkpt><trkpt lat="42.359400202537564" lon="13.717845034094053"><ele>1200.0</ele><time>2026-04-19T08:47:39.999Z</time></trkpt><trkpt lat="42.35943751370411" lon="13.718138748386632"><ele>1197.0</ele><time>2026-04-19T08:47:40.999Z</time></trkpt><trkpt lat="42.35946250419309" lon="13.718400676280611"><ele>1194.0</ele><time>2026-04-19T08:47:41.999Z</time></trkpt><trkpt lat="42.35949106689035" lon="13.718658690083549"><ele>1192.3333333333333</ele><time>2026-04-19T08:47:42.999Z</time></trkpt><trkpt lat="42.359527938710585" lon="13.718906362114248"><ele>1190.6666666666665</ele><time>2026-04-19T08:47:43.999Z</time></trkpt><trkpt lat="42.359574397110855" lon="13.71913110974994"><ele>1189.0</ele><time>2026-04-19T08:47:44.999Z</time></trkpt><trkpt lat="42.35958533952758" lon="13.719348894370231"><ele>1188.0</ele><time>2026-04-19T08:47:45.999Z</time></trkpt><trkpt lat="42.359552559124744" lon="13.719591972139902"><ele>1187.0</ele><time>2026-04-19T08:47:46.999Z</time></trkpt><trkpt lat="42.3594848871156" lon="13.719854331816855"><ele>1186.0</ele><time>2026-04-19T08:47:47.999Z</time></trkpt><trkpt lat="42.3594302907319" lon="13.720104199094886"><ele>1185.3333333333333</ele><time>2026-04-19T08:47:48.999Z</time></trkpt><trkpt lat="42.359424151474826" lon="13.720380162615522"><ele>1184.6666666666667</ele><time>2026-04-19T08:47:49.999Z</time></trkpt><trkpt lat="42.35945933314255" lon="13.720691297568884"><ele>1184.0</ele><time>2026-04-19T08:47:50.999Z</time></trkpt><trkpt lat="42.359488638644876" lon="13.720980908775662"><ele>1181.3333333333335</ele><time>2026-04-19T08:47:51.999Z</time></trkpt><trkpt lat="42.35948287426204" lon="13.721264404169657"><ele>1178.6666666666667</ele><time>2026-04-19T08:47:52.999Z</time></trkpt><trkpt lat="42.35945863468171" lon="13.72152573171905"><ele>1176.0</ele><time>2026-04-19T08:47:53.999Z</time></trkpt><trkpt lat="42.3594522292624" lon="13.721764597623872"><ele>1173.6666666666667</ele><time>2026-04-19T08:47:54.999Z</time></trkpt><trkpt lat="42.359471892962375" lon="13.722013175774421"><ele>1171.3333333333335</ele><time>2026-04-19T08:47:55.999Z</time></trkpt><trkpt lat="42.359530911336975" lon="13.722269438272287"><ele>1169.0</ele><time>2026-04-19T08:47:56.999Z</time></trkpt><trkpt lat="42.359615109017376" lon="13.722524527131597"><ele>1171.3333333333335</ele><time>2026-04-19T08:47:57.999Z</time></trkpt><trkpt lat="42.35964310931514" lon="13.722767781814245"><ele>1173.6666666666667</ele><time>2026-04-19T08:47:58.999Z</time></trkpt><trkpt lat="42.35967341186986" lon="13.72298255313269"><ele>1176.0</ele><time>2026-04-19T08:47:59.999Z</time></trkpt><trkpt lat="42.35970039083887" lon="13.72320222023693"><ele>1176.0</ele><time>2026-04-19T08:48:00.999Z</time></trkpt><trkpt lat="42.35971645023588" lon="13.72335377687706"><ele>1176.0</ele><time>2026-04-19T08:48:01.999Z</time></trkpt><trkpt lat="42.359718708831444" lon="13.723465626773056"><ele>1176.0</ele><time>2026-04-19T08:48:02.999Z</time></trkpt><trkpt lat="42.35967342300091" lon="13.723544495843399"><ele>1176.0</ele><time>2026-04-19T08:48:04.999Z</time></trkpt><trkpt lat="42.35960480322611" lon="13.72351805138037"><ele>1176.0</ele><time>2026-04-19T08:48:05.999Z</time></trkpt><trkpt lat="42.35956557555229" lon="13.723433667044885"><ele>1176.0</ele><time>2026-04-19T08:48:06.999Z</time></trkpt><trkpt lat="42.35957659338108" lon="13.723287580119086"><ele>1176.0</ele><time>2026-04-19T08:48:07.999Z</time></trkpt><trkpt lat="42.3595596593356" lon="13.723089009491712"><ele>1176.0</ele><time>2026-04-19T08:48:08.999Z</time></trkpt><trkpt lat="42.359534496450756" lon="13.72284534375618"><ele>1176.0</ele><time>2026-04-19T08:48:09.999Z</time></trkpt><trkpt lat="42.35945687730196" lon="13.72256682698306"><ele>1172.5</ele><time>2026-04-19T08:48:10.999Z</time></trkpt><trkpt lat="42.35935345720167" lon="13.72229012027303"><ele>1169.0</ele><time>2026-04-19T08:48:11.999Z</time></trkpt><trkpt lat="42.35923674349814" lon="13.721985673609666"><ele>1172.5</ele><time>2026-04-19T08:48:12.999Z</time></trkpt><trkpt lat="42.35912012924898" lon="13.721655463716461"><ele>1176.0</ele><time>2026-04-19T08:48:13.999Z</time></trkpt><trkpt lat="42.35902314755975" lon="13.721310652836367"><ele>1180.0</ele><time>2026-04-19T08:48:14.999Z</time></trkpt><trkpt lat="42.358933889692565" lon="13.720994885726604"><ele>1184.0</ele><time>2026-04-19T08:48:15.999Z</time></trkpt><trkpt lat="42.35883642748637" lon="13.72072935259016"><ele>1169.0</ele><time>2026-04-19T08:48:16.999Z</time></trkpt><trkpt lat="42.35873621878822" lon="13.720407732876051"><ele>1154.0</ele><time>2026-04-19T08:48:17.999Z</time></trkpt><trkpt lat="42.35866246103449" lon="13.720102895688981"><ele>1154.0</ele><time>2026-04-19T08:48:18.999Z</time></trkpt><trkpt lat="42.35860720685644" lon="13.719812618644092"><ele>1154.0</ele><time>2026-04-19T08:48:19.999Z</time></trkpt><trkpt lat="42.35855046296861" lon="13.719535475698267"><ele>1154.0</ele><time>2026-04-19T08:48:20.999Z</time></trkpt><trkpt lat="42.35847604340273" lon="13.719264447564989"><ele>1155.6666666666667</ele><time>2026-04-19T08:48:21.999Z</time></trkpt><trkpt lat="42.35841479714192" lon="13.719023093263818"><ele>1157.3333333333333</ele><time>2026-04-19T08:48:22.999Z</time></trkpt><trkpt lat="42.35835817318088" lon="13.718793483567646"><ele>1159.0</ele><time>2026-04-19T08:48:23.999Z</time></trkpt><trkpt lat="42.35829411430258" lon="13.718580545500467"><ele>1160.6666666666665</ele><time>2026-04-19T08:48:24.999Z</time></trkpt><trkpt lat="42.35819780991637" lon="13.718399432199005"><ele>1162.3333333333333</ele><time>2026-04-19T08:48:25.999Z</time></trkpt><trkpt lat="42.35804560782336" lon="13.71824682084019"><ele>1164.0</ele><time>2026-04-19T08:48:26.999Z</time></trkpt><trkpt lat="42.35786442549269" lon="13.71813045498078"><ele>1159.3333333333333</ele><time>2026-04-19T08:48:27.999Z</time></trkpt><trkpt lat="42.357692153799825" lon="13.7180431688119"><ele>1154.6666666666665</ele><time>2026-04-19T08:48:28.999Z</time></trkpt><trkpt lat="42.3575832630975" lon="13.717931550381472"><ele>1150.0</ele><time>2026-04-19T08:48:29.999Z</time></trkpt><trkpt lat="42.35746354971699" lon="13.717709811437638"><ele>1150.0</ele><time>2026-04-19T08:48:30.999Z</time></trkpt><trkpt lat="42.357396292669875" lon="13.717532225576575"><ele>1150.0</ele><time>2026-04-19T08:48:31.999Z</time></trkpt><trkpt lat="42.357312153872975" lon="13.717275947178182"><ele>1150.0</ele><time>2026-04-19T08:48:32.999Z</time></trkpt><trkpt lat="42.35724643813082" lon="13.717034242424265"><ele>1142.6666666666665</ele><time>2026-04-19T08:48:33.999Z</time></trkpt><trkpt lat="42.35719828718976" lon="13.716800594755098"><ele>1135.3333333333333</ele><time>2026-04-19T08:48:34.999Z</time></trkpt><trkpt lat="42.35717665991273" lon="13.716549563359104"><ele>1128.0</ele><time>2026-04-19T08:48:35.999Z</time></trkpt><trkpt lat="42.357202382110344" lon="13.716328951621367"><ele>1129.0</ele><time>2026-04-19T08:48:36.999Z</time></trkpt><trkpt lat="42.35722581218255" lon="13.71610180919928"><ele>1130.0</ele><time>2026-04-19T08:48:37.999Z</time></trkpt><trkpt lat="42.3572434353728" lon="13.715899320136387"><ele>1131.0</ele><time>2026-04-19T08:48:38.999Z</time></trkpt><trkpt lat="42.35718703662511" lon="13.715727565848068"><ele>1131.0</ele><time>2026-04-19T08:48:39.999Z</time></trkpt><trkpt lat="42.35710808857728" lon="13.71557384535862"><ele>1131.0</ele><time>2026-04-19T08:48:40.999Z</time></trkpt><trkpt lat="42.35698255179968" lon="13.715404907099657"><ele>1131.0</ele><time>2026-04-19T08:48:41.999Z</time></trkpt><trkpt lat="42.356832509950756" lon="13.715223762790115"><ele>1134.5</ele><time>2026-04-19T08:48:42.999Z</time></trkpt><trkpt lat="42.35664262931923" lon="13.714994002175633"><ele>1138.0</ele><time>2026-04-19T08:48:43.999Z</time></trkpt><trkpt lat="42.35650040999722" lon="13.714788030600872"><ele>1138.0</ele><time>2026-04-19T08:48:44.999Z</time></trkpt><trkpt lat="42.356375616485145" lon="13.714600398641917"><ele>1138.0</ele><time>2026-04-19T08:48:45.999Z</time></trkpt><trkpt lat="42.3562635678641" lon="13.714445832215535"><ele>1138.0</ele><time>2026-04-19T08:48:46.999Z</time></trkpt><trkpt lat="42.35614809993373" lon="13.714318745705556"><ele>1136.0</ele><time>2026-04-19T08:48:47.999Z</time></trkpt><trkpt lat="42.356017784068115" lon="13.714236512382149"><ele>1134.0</ele><time>2026-04-19T08:48:48.999Z</time></trkpt><trkpt lat="42.35584721602977" lon="13.714198141940667"><ele>1132.0</ele><time>2026-04-19T08:48:49.999Z</time></trkpt><trkpt lat="42.355649039381646" lon="13.714199002155329"><ele>1132.0</ele><time>2026-04-19T08:48:50.999Z</time></trkpt><trkpt lat="42.35549103903051" lon="13.714229225202113"><ele>1132.0</ele><time>2026-04-19T08:48:51.999Z</time></trkpt><trkpt lat="42.35537759105822" lon="13.714295459138397"><ele>1132.0</ele><time>2026-04-19T08:48:52.999Z</time></trkpt><trkpt lat="42.35528431366181" lon="13.714454748946178"><ele>1132.0</ele><time>2026-04-19T08:48:54Z</time></trkpt><trkpt lat="42.35518927614721" lon="13.714624705308351"><ele>1129.25</ele><time>2026-04-19T08:48:55Z</time></trkpt><trkpt lat="42.35509451864234" lon="13.714801845135607"><ele>1126.5</ele><time>2026-04-19T08:48:56Z</time></trkpt><trkpt lat="42.35500793209625" lon="13.714936671464747"><ele>1123.75</ele><time>2026-04-19T08:48:57Z</time></trkpt><trkpt lat="42.35493126848939" lon="13.715049407387278"><ele>1121.0</ele><time>2026-04-19T08:48:58Z</time></trkpt><trkpt lat="42.35484957186312" lon="13.715129297783268"><ele>1121.0</ele><time>2026-04-19T08:48:59Z</time></trkpt><trkpt lat="42.354762587052264" lon="13.715151011805217"><ele>1121.0</ele><time>2026-04-19T08:49:00Z</time></trkpt><trkpt lat="42.354662662159555" lon="13.715110575530632"><ele>1121.0</ele><time>2026-04-19T08:49:01Z</time></trkpt><trkpt lat="42.354552012253784" lon="13.71496442666844"><ele>1121.0</ele><time>2026-04-19T08:49:02Z</time></trkpt><trkpt lat="42.354400301194964" lon="13.714805605066047"><ele>1119.0</ele><time>2026-04-19T08:49:03Z</time></trkpt><trkpt lat="42.35422039159232" lon="13.714703152768053"><ele>1117.0</ele><time>2026-04-19T08:49:04Z</time></trkpt><trkpt lat="42.35405810456245" lon="13.714595177808146"><ele>1115.0</ele><time>2026-04-19T08:49:05Z</time></trkpt><trkpt lat="42.353919972714976" lon="13.714485982030906"><ele>1113.6666666666667</ele><time>2026-04-19T08:49:06Z</time></trkpt><trkpt lat="42.35378744524232" lon="13.714373748521835"><ele>1112.3333333333333</ele><time>2026-04-19T08:49:07Z</time></trkpt><trkpt lat="42.353670514578795" lon="13.714216156988561"><ele>1111.0</ele><time>2026-04-19T08:49:08Z</time></trkpt><trkpt lat="42.35354580053429" lon="13.714043027331895"><ele>1111.0</ele><time>2026-04-19T08:49:08.999Z</time></trkpt><trkpt lat="42.35342672974947" lon="13.713878321259394"><ele>1111.0</ele><time>2026-04-19T08:49:09.999Z</time></trkpt><trkpt lat="42.35330430484885" lon="13.713746460896537"><ele>1111.0</ele><time>2026-04-19T08:49:10.999Z</time></trkpt><trkpt lat="42.35316689803377" lon="13.713629449361264"><ele>1108.3333333333333</ele><time>2026-04-19T08:49:11.999Z</time></trkpt><trkpt lat="42.35300497028117" lon="13.713541969905773"><ele>1105.6666666666667</ele><time>2026-04-19T08:49:12.999Z</time></trkpt><trkpt lat="42.3528026501668" lon="13.713463700258137"><ele>1103.0</ele><time>2026-04-19T08:49:13.999Z</time></trkpt><trkpt lat="42.352581956715134" lon="13.713396971916747"><ele>1103.0</ele><time>2026-04-19T08:49:14.999Z</time></trkpt><trkpt lat="42.35237060266471" lon="13.713307271911292"><ele>1103.0</ele><time>2026-04-19T08:49:15.999Z</time></trkpt><trkpt lat="42.35217594706206" lon="13.713226634374283"><ele>1103.0</ele><time>2026-04-19T08:49:16.999Z</time></trkpt><trkpt lat="42.35199966941661" lon="13.713153955333384"><ele>1102.6666666666667</ele><time>2026-04-19T08:49:17.999Z</time></trkpt><trkpt lat="42.35184021051361" lon="13.71310127872953"><ele>1102.3333333333333</ele><time>2026-04-19T08:49:18.999Z</time></trkpt><trkpt lat="42.351683767955755" lon="13.713111202058313"><ele>1102.0</ele><time>2026-04-19T08:49:19.999Z</time></trkpt><trkpt lat="42.351514787930796" lon="13.713196649486592"><ele>1100.5</ele><time>2026-04-19T08:49:20.999Z</time></trkpt><trkpt lat="42.35133330215722" lon="13.713340526987054"><ele>1099.0</ele><time>2026-04-19T08:49:21.999Z</time></trkpt><trkpt lat="42.35112727394977" lon="13.713510881886403"><ele>1097.5</ele><time>2026-04-19T08:49:22.999Z</time></trkpt><trkpt lat="42.35090115326027" lon="13.713668989315682"><ele>1096.0</ele><time>2026-04-19T08:49:23.999Z</time></trkpt><trkpt lat="42.35065607113023" lon="13.713839173223704"><ele>1097.0</ele><time>2026-04-19T08:49:24.999Z</time></trkpt><trkpt lat="42.35041083957794" lon="13.714018240356017"><ele>1098.0</ele><time>2026-04-19T08:49:25.999Z</time></trkpt><trkpt lat="42.35016643897672" lon="13.714200294334184"><ele>1098.0</ele><time>2026-04-19T08:49:26.999Z</time></trkpt><trkpt lat="42.349939996013134" lon="13.71436486080051"><ele>1098.0</ele><time>2026-04-19T08:49:27.999Z</time></trkpt><trkpt lat="42.34974219552591" lon="13.714512021190727"><ele>1097.3333333333333</ele><time>2026-04-19T08:49:28.999Z</time></trkpt><trkpt lat="42.3495810730223" lon="13.714628697360894"><ele>1096.6666666666665</ele><time>2026-04-19T08:49:29.999Z</time></trkpt><trkpt lat="42.34944880997212" lon="13.71472822937584"><ele>1096.0</ele><time>2026-04-19T08:49:30.999Z</time></trkpt><trkpt lat="42.34932503360882" lon="13.71480504607516"><ele>1096.0</ele><time>2026-04-19T08:49:31.999Z</time></trkpt><trkpt lat="42.34919631835594" lon="13.71481939517645"><ele>1096.0</ele><time>2026-04-19T08:49:32.999Z</time></trkpt><trkpt lat="42.34906551340314" lon="13.714802486248933"><ele>1096.0</ele><time>2026-04-19T08:49:33.999Z</time></trkpt><trkpt lat="42.348933859916265" lon="13.714761760758144"><ele>1096.0</ele><time>2026-04-19T08:49:34.999Z</time></trkpt><trkpt lat="42.348801745193796" lon="13.714711073781851"><ele>1095.75</ele><time>2026-04-19T08:49:35.999Z</time></trkpt><trkpt lat="42.348672433944046" lon="13.714655573812673"><ele>1095.5</ele><time>2026-04-19T08:49:36.999Z</time></trkpt><trkpt lat="42.34854267609243" lon="13.71459900129762"><ele>1095.25</ele><time>2026-04-19T08:49:37.999Z</time></trkpt><trkpt lat="42.34840714817368" lon="13.7145692030309"><ele>1095.0</ele><time>2026-04-19T08:49:38.999Z</time></trkpt><trkpt lat="42.348287588979034" lon="13.714504173268551"><ele>1095.25</ele><time>2026-04-19T08:49:39.999Z</time></trkpt><trkpt lat="42.34818980016002" lon="13.714398525100508"><ele>1095.5</ele><time>2026-04-19T08:49:40.999Z</time></trkpt><trkpt lat="42.34809422602331" lon="13.714282233460958"><ele>1095.75</ele><time>2026-04-19T08:49:41.999Z</time></trkpt><trkpt lat="42.347994531611135" lon="13.714156268585402"><ele>1096.0</ele><time>2026-04-19T08:49:42.999Z</time></trkpt><trkpt lat="42.34789771083113" lon="13.714034354360098"><ele>1096.0</ele><time>2026-04-19T08:49:43.999Z</time></trkpt><trkpt lat="42.34779058716447" lon="13.713930927138897"><ele>1096.0</ele><time>2026-04-19T08:49:44.999Z</time></trkpt><trkpt lat="42.347709657126636" lon="13.713794228514944"><ele>1096.0</ele><time>2026-04-19T08:49:45.999Z</time></trkpt><trkpt lat="42.347625058526894" lon="13.713672054889605"><ele>1096.0</ele><time>2026-04-19T08:49:46.999Z</time></trkpt><trkpt lat="42.347549172619246" lon="13.713548344818928"><ele>1099.25</ele><time>2026-04-19T08:49:47.999Z</time></trkpt><trkpt lat="42.347487020423735" lon="13.713424606360181"><ele>1102.5</ele><time>2026-04-19T08:49:48.999Z</time></trkpt><trkpt lat="42.34742775891752" lon="13.713282416370266"><ele>1105.75</ele><time>2026-04-19T08:49:49.999Z</time></trkpt><trkpt lat="42.34736388488265" lon="13.713135230512643"><ele>1109.0</ele><time>2026-04-19T08:49:50.999Z</time></trkpt><trkpt lat="42.347296695415494" lon="13.712987247655885"><ele>1109.0</ele><time>2026-04-19T08:49:51.999Z</time></trkpt><trkpt lat="42.3472199555425" lon="13.712846282422642"><ele>1109.0</ele><time>2026-04-19T08:49:52.999Z</time></trkpt><trkpt lat="42.34712379731314" lon="13.712728328239859"><ele>1109.0</ele><time>2026-04-19T08:49:53.999Z</time></trkpt><trkpt lat="42.34703073742083" lon="13.712594310570676"><ele>1109.0</ele><time>2026-04-19T08:49:54.999Z</time></trkpt><trkpt lat="42.34693910865508" lon="13.712437511781209"><ele>1107.3333333333335</ele><time>2026-04-19T08:49:55.999Z</time></trkpt><trkpt lat="42.346808958670714" lon="13.712309922986092"><ele>1105.6666666666667</ele><time>2026-04-19T08:49:56.999Z</time></trkpt><trkpt lat="42.34666475266172" lon="13.712217131733299"><ele>1104.0</ele><time>2026-04-19T08:49:57.999Z</time></trkpt><trkpt lat="42.34653373085121" lon="13.712110068681186"><ele>1104.0</ele><time>2026-04-19T08:49:58.999Z</time></trkpt><trkpt lat="42.34639869629815" lon="13.712006112053826"><ele>1104.0</ele><time>2026-04-19T08:49:59.999Z</time></trkpt><trkpt lat="42.346283242346686" lon="13.711867807726835"><ele>1104.0</ele><time>2026-04-19T08:50:00.999Z</time></trkpt><trkpt lat="42.34617331949448" lon="13.711719882063445"><ele>1105.0</ele><time>2026-04-19T08:50:01.999Z</time></trkpt><trkpt lat="42.346064906028495" lon="13.711586071890249"><ele>1106.0</ele><time>2026-04-19T08:50:02.999Z</time></trkpt><trkpt lat="42.345956626968984" lon="13.711484733661088"><ele>1107.0</ele><time>2026-04-19T08:50:03.999Z</time></trkpt><trkpt lat="42.34584440940286" lon="13.711421818737154"><ele>1108.0</ele><time>2026-04-19T08:50:04.999Z</time></trkpt><trkpt lat="42.34573469963584" lon="13.71143218864283"><ele>1108.0</ele><time>2026-04-19T08:50:05.999Z</time></trkpt><trkpt lat="42.34562692658803" lon="13.711515203268032"><ele>1108.0</ele><time>2026-04-19T08:50:06.999Z</time></trkpt><trkpt lat="42.345526798150765" lon="13.711649591506061"><ele>1108.0</ele><time>2026-04-19T08:50:07.999Z</time></trkpt><trkpt lat="42.34541017052968" lon="13.711802418303039"><ele>1108.0</ele><time>2026-04-19T08:50:08.999Z</time></trkpt><trkpt lat="42.34524557104693" lon="13.711886491759822"><ele>1103.3333333333333</ele><time>2026-04-19T08:50:09.999Z</time></trkpt><trkpt lat="42.34508002820978" lon="13.711956403955236"><ele>1098.6666666666667</ele><time>2026-04-19T08:50:10.999Z</time></trkpt><trkpt lat="42.34493199852335" lon="13.712008477879118"><ele>1094.0</ele><time>2026-04-19T08:50:11.999Z</time></trkpt><trkpt lat="42.34481027513167" lon="13.712054466589764"><ele>1093.0</ele><time>2026-04-19T08:50:12.999Z</time></trkpt><trkpt lat="42.344697441063055" lon="13.712031800297567"><ele>1092.0</ele><time>2026-04-19T08:50:13.999Z</time></trkpt><trkpt lat="42.344619691930376" lon="13.711915668484457"><ele>1091.0</ele><time>2026-04-19T08:50:14.999Z</time></trkpt><trkpt lat="42.344550995535435" lon="13.71180069904042"><ele>1090.0</ele><time>2026-04-19T08:50:15.999Z</time></trkpt><trkpt lat="42.344471246720985" lon="13.711653139248932"><ele>1095.3333333333333</ele><time>2026-04-19T08:50:16.999Z</time></trkpt><trkpt lat="42.344376338604896" lon="13.711485913595176"><ele>1100.6666666666667</ele><time>2026-04-19T08:50:17.999Z</time></trkpt><trkpt lat="42.3442820466649" lon="13.711324293426316"><ele>1106.0</ele><time>2026-04-19T08:50:18.999Z</time></trkpt><trkpt lat="42.34417635359757" lon="13.711143131272085"><ele>1104.0</ele><time>2026-04-19T08:50:19.999Z</time></trkpt><trkpt lat="42.34408170060899" lon="13.71098089225309"><ele>1102.0</ele><time>2026-04-19T08:50:20.999Z</time></trkpt><trkpt lat="42.34399893838721" lon="13.710829300822882"><ele>1100.0</ele><time>2026-04-19T08:50:21.999Z</time></trkpt><trkpt lat="42.343917092689075" lon="13.710674275326449"><ele>1098.0</ele><time>2026-04-19T08:50:22.999Z</time></trkpt><trkpt lat="42.34383849429833" lon="13.710525400619648"><ele>1098.0</ele><time>2026-04-19T08:50:23.999Z</time></trkpt><trkpt lat="42.34374876093471" lon="13.710390553913376"><ele>1098.0</ele><time>2026-04-19T08:50:24.999Z</time></trkpt><trkpt lat="42.343682494396006" lon="13.710229918253265"><ele>1098.0</ele><time>2026-04-19T08:50:25.999Z</time></trkpt><trkpt lat="42.34360392160353" lon="13.710081092041309"><ele>1098.0</ele><time>2026-04-19T08:50:26.999Z</time></trkpt><trkpt lat="42.34352424091327" lon="13.709930167337284"><ele>1102.0</ele><time>2026-04-19T08:50:27.999Z</time></trkpt><trkpt lat="42.3434430220361" lon="13.709776329125951"><ele>1106.0</ele><time>2026-04-19T08:50:28.999Z</time></trkpt><trkpt lat="42.34336145548589" lon="13.709621832376897"><ele>1110.0</ele><time>2026-04-19T08:50:29.999Z</time></trkpt><trkpt lat="42.34328172837251" lon="13.709470819740494"><ele>1114.0</ele><time>2026-04-19T08:50:30.999Z</time></trkpt><trkpt lat="42.3432042933448" lon="13.709324148589408"><ele>1112.5</ele><time>2026-04-19T08:50:31.999Z</time></trkpt><trkpt lat="42.343128943721155" lon="13.709180244864429"><ele>1111.0</ele><time>2026-04-19T08:50:32.999Z</time></trkpt><trkpt lat="42.3430546181452" lon="13.709035410496634"><ele>1109.5</ele><time>2026-04-19T08:50:33.999Z</time></trkpt><trkpt lat="42.34296829550348" lon="13.708906605117981"><ele>1108.0</ele><time>2026-04-19T08:50:34.999Z</time></trkpt><trkpt lat="42.34290963665858" lon="13.708752892677708"><ele>1108.0</ele><time>2026-04-19T08:50:35.999Z</time></trkpt><trkpt lat="42.34283498726213" lon="13.708607427300482"><ele>1108.0</ele><time>2026-04-19T08:50:36.999Z</time></trkpt><trkpt lat="42.342758775513495" lon="13.708458917452038"><ele>1108.0</ele><time>2026-04-19T08:50:37.999Z</time></trkpt><trkpt lat="42.34266870279081" lon="13.708322603713475"><ele>1108.0</ele><time>2026-04-19T08:50:38.999Z</time></trkpt><trkpt lat="42.34259450615481" lon="13.708175937913099"><ele>1110.6</ele><time>2026-04-19T08:50:39.999Z</time></trkpt><trkpt lat="42.34252419439603" lon="13.70803740146511"><ele>1113.1999999999998</ele><time>2026-04-19T08:50:40.999Z</time></trkpt><trkpt lat="42.34245769757647" lon="13.707910004619421"><ele>1115.8</ele><time>2026-04-19T08:50:41.999Z</time></trkpt><trkpt lat="42.34239051785864" lon="13.707806954939743"><ele>1118.3999999999999</ele><time>2026-04-19T08:50:42.999Z</time></trkpt><trkpt lat="42.342304249457676" lon="13.707753211611765"><ele>1121.0</ele><time>2026-04-19T08:50:43.999Z</time></trkpt><trkpt lat="42.34221110619875" lon="13.707774527998145"><ele>1124.6666666666667</ele><time>2026-04-19T08:50:44.999Z</time></trkpt><trkpt lat="42.34210875780594" lon="13.707869396260222"><ele>1128.3333333333333</ele><time>2026-04-19T08:50:45.999Z</time></trkpt><trkpt lat="42.34199218948639" lon="13.708032084699086"><ele>1132.0</ele><time>2026-04-19T08:50:46.999Z</time></trkpt><trkpt lat="42.34185908753073" lon="13.708219375607223"><ele>1132.0</ele><time>2026-04-19T08:50:47.999Z</time></trkpt><trkpt lat="42.34172388294698" lon="13.708400897242685"><ele>1132.0</ele><time>2026-04-19T08:50:48.999Z</time></trkpt><trkpt lat="42.34161143997506" lon="13.708614464971193"><ele>1132.0</ele><time>2026-04-19T08:50:49.999Z</time></trkpt><trkpt lat="42.34152501664834" lon="13.708834708382138"><ele>1135.3333333333333</ele><time>2026-04-19T08:50:50.999Z</time></trkpt><trkpt lat="42.34144280294649" lon="13.709025647871297"><ele>1138.6666666666667</ele><time>2026-04-19T08:50:51.999Z</time></trkpt><trkpt lat="42.34134392779608" lon="13.709168512656206"><ele>1142.0</ele><time>2026-04-19T08:50:52.999Z</time></trkpt><trkpt lat="42.34121206344512" lon="13.709295200830438"><ele>1142.0</ele><time>2026-04-19T08:50:54Z</time></trkpt><trkpt lat="42.34103484615886" lon="13.709372682812006"><ele>1142.0</ele><time>2026-04-19T08:50:55Z</time></trkpt><trkpt lat="42.340864701325295" lon="13.709476478409739"><ele>1142.0</ele><time>2026-04-19T08:50:56Z</time></trkpt><trkpt lat="42.34068099593055" lon="13.709613871622425"><ele>1142.3333333333335</ele><time>2026-04-19T08:50:57Z</time></trkpt><trkpt lat="42.34052359368858" lon="13.709812878149705"><ele>1142.6666666666667</ele><time>2026-04-19T08:50:58Z</time></trkpt><trkpt lat="42.340380359628" lon="13.710003295075424"><ele>1143.0</ele><time>2026-04-19T08:50:59Z</time></trkpt><trkpt lat="42.34024474195642" lon="13.710148189084606"><ele>1135.6666666666667</ele><time>2026-04-19T08:51:00Z</time></trkpt><trkpt lat="42.34011349900231" lon="13.710244319163062"><ele>1128.3333333333335</ele><time>2026-04-19T08:51:01Z</time></trkpt><trkpt lat="42.33997427226482" lon="13.710304952647904"><ele>1121.0</ele><time>2026-04-19T08:51:02Z</time></trkpt><trkpt lat="42.33982304083358" lon="13.710262102948043"><ele>1120.3333333333335</ele><time>2026-04-19T08:51:03Z</time></trkpt><trkpt lat="42.3396628311234" lon="13.71025608355289"><ele>1119.6666666666667</ele><time>2026-04-19T08:51:04Z</time></trkpt><trkpt lat="42.339454547968124" lon="13.71023583626068"><ele>1119.0</ele><time>2026-04-19T08:51:05Z</time></trkpt><trkpt lat="42.33927438727327" lon="13.710216379707154"><ele>1125.3333333333333</ele><time>2026-04-19T08:51:06Z</time></trkpt><trkpt lat="42.33911053188517" lon="13.710154299682204"><ele>1131.6666666666665</ele><time>2026-04-19T08:51:07Z</time></trkpt><trkpt lat="42.3389499486655" lon="13.710078344614471"><ele>1138.0</ele><time>2026-04-19T08:51:08Z</time></trkpt><trkpt lat="42.33858448030989" lon="13.709849174771234"><ele>1138.0</ele><time>2026-04-19T08:51:10Z</time></trkpt><trkpt lat="42.338406820253724" lon="13.709721416437242"><ele>1138.0</ele><time>2026-04-19T08:51:11Z</time></trkpt><trkpt lat="42.338243975870434" lon="13.709625362367595"><ele>1138.0</ele><time>2026-04-19T08:51:12Z</time></trkpt><trkpt lat="42.33809184070333" lon="13.7095484431862"><ele>1139.6666666666665</ele><time>2026-04-19T08:51:13Z</time></trkpt><trkpt lat="42.33794613108625" lon="13.70947990799044"><ele>1141.3333333333333</ele><time>2026-04-19T08:51:14Z</time></trkpt><trkpt lat="42.33779082532046" lon="13.709415850242276"><ele>1143.0</ele><time>2026-04-19T08:51:15Z</time></trkpt><trkpt lat="42.337639768809446" lon="13.709373058446728"><ele>1147.6666666666667</ele><time>2026-04-19T08:51:16Z</time></trkpt><trkpt lat="42.33748712783047" lon="13.709343920729669"><ele>1152.3333333333335</ele><time>2026-04-19T08:51:17Z</time></trkpt><trkpt lat="42.33732884411398" lon="13.709320214488582"><ele>1157.0</ele><time>2026-04-19T08:51:18Z</time></trkpt><trkpt lat="42.33718097251486" lon="13.709351746241882"><ele>1155.0</ele><time>2026-04-19T08:51:19Z</time></trkpt><trkpt lat="42.33702978293699" lon="13.709409314622576"><ele>1153.0</ele><time>2026-04-19T08:51:20Z</time></trkpt><trkpt lat="42.33689351749444" lon="13.709480960039837"><ele>1151.0</ele><time>2026-04-19T08:51:21Z</time></trkpt><trkpt lat="42.336780861619914" lon="13.709543861720599"><ele>1149.0</ele><time>2026-04-19T08:51:22Z</time></trkpt><trkpt lat="42.33668374880604" lon="13.709587038473044"><ele>1149.0</ele><time>2026-04-19T08:51:23Z</time></trkpt><trkpt lat="42.33657637760517" lon="13.709635277569822"><ele>1149.0</ele><time>2026-04-19T08:51:24Z</time></trkpt><trkpt lat="42.33646462477895" lon="13.70971191555877"><ele>1149.0</ele><time>2026-04-19T08:51:25Z</time></trkpt><trkpt lat="42.33634478383465" lon="13.709795434056185"><ele>1149.0</ele><time>2026-04-19T08:51:26Z</time></trkpt><trkpt lat="42.33622500286863" lon="13.709873519530838"><ele>1151.25</ele><time>2026-04-19T08:51:27Z</time></trkpt><trkpt lat="42.33610450114521" lon="13.709944410555412"><ele>1153.5</ele><time>2026-04-19T08:51:28Z</time></trkpt><trkpt lat="42.33598105889388" lon="13.71001686555508"><ele>1155.75</ele><time>2026-04-19T08:51:28.999Z</time></trkpt><trkpt lat="42.33586127968223" lon="13.710092773169144"><ele>1158.0</ele><time>2026-04-19T08:51:29.999Z</time></trkpt><trkpt lat="42.33573832016547" lon="13.710157842522818"><ele>1158.0</ele><time>2026-04-19T08:51:30.999Z</time></trkpt><trkpt lat="42.33561898150014" lon="13.710202960858593"><ele>1158.0</ele><time>2026-04-19T08:51:31.999Z</time></trkpt><trkpt lat="42.33550711564229" lon="13.710227179394728"><ele>1158.0</ele><time>2026-04-19T08:51:32.999Z</time></trkpt><trkpt lat="42.33539047356541" lon="13.710252321448358"><ele>1158.0</ele><time>2026-04-19T08:51:33.999Z</time></trkpt><trkpt lat="42.335272869564484" lon="13.710275442055252"><ele>1159.75</ele><time>2026-04-19T08:51:34.999Z</time></trkpt><trkpt lat="42.33515383819198" lon="13.710304772641274"><ele>1161.5</ele><time>2026-04-19T08:51:35.999Z</time></trkpt><trkpt lat="42.335036924181566" lon="13.710340903199299"><ele>1163.25</ele><time>2026-04-19T08:51:36.999Z</time></trkpt><trkpt lat="42.334917825049764" lon="13.710381778479626"><ele>1165.0</ele><time>2026-04-19T08:51:37.999Z</time></trkpt><trkpt lat="42.33479852486279" lon="13.710420693548281"><ele>1164.0</ele><time>2026-04-19T08:51:38.999Z</time></trkpt><trkpt lat="42.33467813056458" lon="13.710464290138372"><ele>1163.0</ele><time>2026-04-19T08:51:39.999Z</time></trkpt><trkpt lat="42.334558027435065" lon="13.710514418245412"><ele>1162.0</ele><time>2026-04-19T08:51:40.999Z</time></trkpt><trkpt lat="42.33443654489942" lon="13.710568401516252"><ele>1161.0</ele><time>2026-04-19T08:51:41.999Z</time></trkpt><trkpt lat="42.3343153181793" lon="13.710629262013923"><ele>1161.0</ele><time>2026-04-19T08:51:42.999Z</time></trkpt><trkpt lat="42.33419137284566" lon="13.710694326650549"><ele>1161.0</ele><time>2026-04-19T08:51:43.999Z</time></trkpt><trkpt lat="42.33406515941476" lon="13.710755043963095"><ele>1161.0</ele><time>2026-04-19T08:51:44.999Z</time></trkpt><trkpt lat="42.3339380800285" lon="13.71081125843998"><ele>1161.0</ele><time>2026-04-19T08:51:45.999Z</time></trkpt><trkpt lat="42.333805056015976" lon="13.710850775590924"><ele>1161.6666666666667</ele><time>2026-04-19T08:51:46.999Z</time></trkpt><trkpt lat="42.33365615953788" lon="13.710822989989088"><ele>1162.3333333333335</ele><time>2026-04-19T08:51:47.999Z</time></trkpt><trkpt lat="42.33350034762426" lon="13.710761909194472"><ele>1163.0</ele><time>2026-04-19T08:51:48.999Z</time></trkpt><trkpt lat="42.33335508020749" lon="13.710689771621764"><ele>1163.0</ele><time>2026-04-19T08:51:49.999Z</time></trkpt><trkpt lat="42.333223862898315" lon="13.710652805299423"><ele>1163.0</ele><time>2026-04-19T08:51:50.999Z</time></trkpt><trkpt lat="42.33310480532579" lon="13.71059732571927"><ele>1163.0</ele><time>2026-04-19T08:51:51.999Z</time></trkpt><trkpt lat="42.33298390598226" lon="13.710551723422862"><ele>1163.0</ele><time>2026-04-19T08:51:52.999Z</time></trkpt><trkpt lat="42.33286051193465" lon="13.710514715846479"><ele>1164.8</ele><time>2026-04-19T08:51:53.999Z</time></trkpt><trkpt lat="42.33274788419926" lon="13.71048735736417"><ele>1166.6</ele><time>2026-04-19T08:51:54.999Z</time></trkpt><trkpt lat="42.33264503829867" lon="13.710471547658594"><ele>1168.4</ele><time>2026-04-19T08:51:55.999Z</time></trkpt><trkpt lat="42.332540241471285" lon="13.710456288737749"><ele>1170.2</ele><time>2026-04-19T08:51:56.999Z</time></trkpt><trkpt lat="42.332435585477555" lon="13.710437499097464"><ele>1172.0</ele><time>2026-04-19T08:51:57.999Z</time></trkpt><trkpt lat="42.33233667958663" lon="13.71041446684054"><ele>1172.0</ele><time>2026-04-19T08:51:58.999Z</time></trkpt><trkpt lat="42.33223729520634" lon="13.710394323628499"><ele>1172.0</ele><time>2026-04-19T08:51:59.999Z</time></trkpt><trkpt lat="42.33213439045436" lon="13.710373943048717"><ele>1172.0</ele><time>2026-04-19T08:52:00.999Z</time></trkpt><trkpt lat="42.33202965904457" lon="13.710351648563394"><ele>1172.0</ele><time>2026-04-19T08:52:01.999Z</time></trkpt><trkpt lat="42.33192469598991" lon="13.710332022601708"><ele>1172.0</ele><time>2026-04-19T08:52:02.999Z</time></trkpt><trkpt lat="42.331818777167754" lon="13.71031497066412"><ele>1172.4</ele><time>2026-04-19T08:52:03.999Z</time></trkpt><trkpt lat="42.331711796798125" lon="13.710308570362097"><ele>1172.8000000000002</ele><time>2026-04-19T08:52:04.999Z</time></trkpt><trkpt lat="42.33160394887529" lon="13.710314458935997"><ele>1173.2</ele><time>2026-04-19T08:52:05.999Z</time></trkpt><trkpt lat="42.33149924543264" lon="13.710336876902518"><ele>1173.6000000000001</ele><time>2026-04-19T08:52:06.999Z</time></trkpt><trkpt lat="42.331394696825555" lon="13.71037689953473"><ele>1174.0</ele><time>2026-04-19T08:52:07.999Z</time></trkpt><trkpt lat="42.331300651772324" lon="13.710424321066991"><ele>1172.6000000000001</ele><time>2026-04-19T08:52:08.999Z</time></trkpt><trkpt lat="42.331205420471385" lon="13.710484708488414"><ele>1171.2</ele><time>2026-04-19T08:52:09.999Z</time></trkpt><trkpt lat="42.331110212318386" lon="13.710550728764945"><ele>1169.8000000000002</ele><time>2026-04-19T08:52:10.999Z</time></trkpt><trkpt lat="42.33101510274046" lon="13.710613155309188"><ele>1168.4</ele><time>2026-04-19T08:52:11.999Z</time></trkpt><trkpt lat="42.33091877563785" lon="13.7106759376316"><ele>1167.0</ele><time>2026-04-19T08:52:12.999Z</time></trkpt><trkpt lat="42.33082131458586" lon="13.710742128951178"><ele>1167.0</ele><time>2026-04-19T08:52:13.999Z</time></trkpt><trkpt lat="42.33072527072619" lon="13.710806385355937"><ele>1167.0</ele><time>2026-04-19T08:52:14.999Z</time></trkpt><trkpt lat="42.33063059444938" lon="13.710863543264695"><ele>1167.0</ele><time>2026-04-19T08:52:15.999Z</time></trkpt><trkpt lat="42.33053745906961" lon="13.710918627407024"><ele>1167.0</ele><time>2026-04-19T08:52:16.999Z</time></trkpt><trkpt lat="42.330446750942144" lon="13.710969410172188"><ele>1167.0</ele><time>2026-04-19T08:52:17.999Z</time></trkpt><trkpt lat="42.33034287608799" lon="13.710984385497692"><ele>1166.0</ele><time>2026-04-19T08:52:18.999Z</time></trkpt><trkpt lat="42.33024597031128" lon="13.711036603911188"><ele>1165.0</ele><time>2026-04-19T08:52:19.999Z</time></trkpt><trkpt lat="42.3301438500258" lon="13.711061630532514"><ele>1164.0</ele><time>2026-04-19T08:52:20.999Z</time></trkpt><trkpt lat="42.33004640210915" lon="13.71109241721378"><ele>1163.0</ele><time>2026-04-19T08:52:21.999Z</time></trkpt><trkpt lat="42.32994920415311" lon="13.711119218191168"><ele>1162.0</ele><time>2026-04-19T08:52:22.999Z</time></trkpt><trkpt lat="42.32984939659604" lon="13.71114944146468"><ele>1163.8</ele><time>2026-04-19T08:52:23.999Z</time></trkpt><trkpt lat="42.32975093565343" lon="13.71118319716452"><ele>1165.6</ele><time>2026-04-19T08:52:24.999Z</time></trkpt><trkpt lat="42.32966159923952" lon="13.71121635948938"><ele>1167.3999999999999</ele><time>2026-04-19T08:52:25.999Z</time></trkpt><trkpt lat="42.32958053906963" lon="13.711250058212448"><ele>1169.2</ele><time>2026-04-19T08:52:26.999Z</time></trkpt><trkpt lat="42.32949824939227" lon="13.71128469028176"><ele>1171.0</ele><time>2026-04-19T08:52:27.999Z</time></trkpt><trkpt lat="42.329411389283074" lon="13.71132246064257"><ele>1171.0</ele><time>2026-04-19T08:52:28.999Z</time></trkpt><trkpt lat="42.32932242250557" lon="13.711361724169128"><ele>1171.0</ele><time>2026-04-19T08:52:29.999Z</time></trkpt><trkpt lat="42.32923204928029" lon="13.711400822893923"><ele>1171.0</ele><time>2026-04-19T08:52:30.999Z</time></trkpt><trkpt lat="42.329148645364626" lon="13.711467226510296"><ele>1171.0</ele><time>2026-04-19T08:52:31.999Z</time></trkpt><trkpt lat="42.32906694362008" lon="13.711538178577998"><ele>1171.0</ele><time>2026-04-19T08:52:32.999Z</time></trkpt><trkpt lat="42.328993513417586" lon="13.711625361876298"><ele>1171.0</ele><time>2026-04-19T08:52:33.999Z</time></trkpt><trkpt lat="42.328934239093634" lon="13.7117249949283"><ele>1171.0</ele><time>2026-04-19T08:52:34.999Z</time></trkpt><trkpt lat="42.32888313222247" lon="13.711828889772095"><ele>1171.0</ele><time>2026-04-19T08:52:35.999Z</time></trkpt><trkpt lat="42.32883293523022" lon="13.711937309450185"><ele>1171.0</ele><time>2026-04-19T08:52:36.999Z</time></trkpt><trkpt lat="42.32878897173322" lon="13.712054381465585"><ele>1171.0</ele><time>2026-04-19T08:52:37.999Z</time></trkpt><trkpt lat="42.3287564094921" lon="13.712179257927891"><ele>1172.0</ele><time>2026-04-19T08:52:38.999Z</time></trkpt><trkpt lat="42.32872324694585" lon="13.71230078412469"><ele>1173.0</ele><time>2026-04-19T08:52:39.999Z</time></trkpt><trkpt lat="42.32869142372206" lon="13.712404736786333"><ele>1174.0</ele><time>2026-04-19T08:52:40.999Z</time></trkpt><trkpt lat="42.32865877058413" lon="13.712488923674053"><ele>1175.0</ele><time>2026-04-19T08:52:41.999Z</time></trkpt><trkpt lat="42.32861322680438" lon="13.712561309530034"><ele>1176.0</ele><time>2026-04-19T08:52:42.999Z</time></trkpt><trkpt lat="42.32855087577075" lon="13.71260736405426"><ele>1177.0</ele><time>2026-04-19T08:52:43.999Z</time></trkpt><trkpt lat="42.32846707557773" lon="13.712606754495189"><ele>1177.0</ele><time>2026-04-19T08:52:44.999Z</time></trkpt><trkpt lat="42.32839424407915" lon="13.712529397290433"><ele>1177.0</ele><time>2026-04-19T08:52:45.999Z</time></trkpt><trkpt lat="42.32833640271934" lon="13.712445505101611"><ele>1177.0</ele><time>2026-04-19T08:52:46.999Z</time></trkpt><trkpt lat="42.32827656500647" lon="13.712354428976477"><ele>1177.0</ele><time>2026-04-19T08:52:47.999Z</time></trkpt><trkpt lat="42.32823387912624" lon="13.712237398244595"><ele>1177.0</ele><time>2026-04-19T08:52:48.999Z</time></trkpt><trkpt lat="42.3282005718571" lon="13.712115854444521"><ele>1177.0</ele><time>2026-04-19T08:52:49.999Z</time></trkpt><trkpt lat="42.32818764964378" lon="13.711978787709906"><ele>1177.0</ele><time>2026-04-19T08:52:50.999Z</time></trkpt><trkpt lat="42.328194041702304" lon="13.711839238740646"><ele>1177.0</ele><time>2026-04-19T08:52:51.999Z</time></trkpt><trkpt lat="42.32823427538448" lon="13.711702963327152"><ele>1177.0</ele><time>2026-04-19T08:52:52.999Z</time></trkpt><trkpt lat="42.32826780431221" lon="13.711568801237703"><ele>1177.0</ele><time>2026-04-19T08:52:53.999Z</time></trkpt><trkpt lat="42.328303233997495" lon="13.711430123645622"><ele>1177.2</ele><time>2026-04-19T08:52:54.999Z</time></trkpt><trkpt lat="42.328335961770854" lon="13.711294085399928"><ele>1177.4</ele><time>2026-04-19T08:52:55.999Z</time></trkpt><trkpt lat="42.32834951244735" lon="13.711148540725494"><ele>1177.6</ele><time>2026-04-19T08:52:56.999Z</time></trkpt><trkpt lat="42.328377232720236" lon="13.711007508858408"><ele>1177.8</ele><time>2026-04-19T08:52:57.999Z</time></trkpt><trkpt lat="42.328402214016954" lon="13.710866824062604"><ele>1178.0</ele><time>2026-04-19T08:52:58.999Z</time></trkpt><trkpt lat="42.32842099236401" lon="13.710724904271183"><ele>1179.0</ele><time>2026-04-19T08:53:00Z</time></trkpt><trkpt lat="42.328430849367315" lon="13.7105782614972"><ele>1180.0</ele><time>2026-04-19T08:53:01Z</time></trkpt><trkpt lat="42.328431719359415" lon="13.710431283151236"><ele>1181.0</ele><time>2026-04-19T08:53:02Z</time></trkpt><trkpt lat="42.3284200921699" lon="13.710279181834819"><ele>1182.0</ele><time>2026-04-19T08:53:03Z</time></trkpt><trkpt lat="42.328406399770415" lon="13.710119571018307"><ele>1183.0</ele><time>2026-04-19T08:53:04Z</time></trkpt><trkpt lat="42.32839528670742" lon="13.709955328084853"><ele>1183.5</ele><time>2026-04-19T08:53:05Z</time></trkpt><trkpt lat="42.32838627137464" lon="13.709784644056857"><ele>1184.0</ele><time>2026-04-19T08:53:06Z</time></trkpt><trkpt lat="42.328376947611645" lon="13.709606704124427"><ele>1184.5</ele><time>2026-04-19T08:53:07Z</time></trkpt><trkpt lat="42.32836523685196" lon="13.70942082200822"><ele>1185.0</ele><time>2026-04-19T08:53:08Z</time></trkpt><trkpt lat="42.32836077707463" lon="13.709229812247887"><ele>1186.3333333333333</ele><time>2026-04-19T08:53:09Z</time></trkpt><trkpt lat="42.32834695582429" lon="13.709028927265534"><ele>1187.6666666666665</ele><time>2026-04-19T08:53:10Z</time></trkpt><trkpt lat="42.328328811892035" lon="13.708807803290913"><ele>1189.0</ele><time>2026-04-19T08:53:11Z</time></trkpt><trkpt lat="42.32831744031527" lon="13.708573293772677"><ele>1189.0</ele><time>2026-04-19T08:53:12Z</time></trkpt><trkpt lat="42.32833084727727" lon="13.70831961261672"><ele>1189.0</ele><time>2026-04-19T08:53:13Z</time></trkpt><trkpt lat="42.32835164983986" lon="13.708023143640377"><ele>1189.0</ele><time>2026-04-19T08:53:14Z</time></trkpt><trkpt lat="42.328329060863425" lon="13.70769897509326"><ele>1189.5</ele><time>2026-04-19T08:53:15Z</time></trkpt><trkpt lat="42.328338983704036" lon="13.707376845467996"><ele>1190.0</ele><time>2026-04-19T08:53:16Z</time></trkpt><trkpt lat="42.3283270917392" lon="13.707072564592519"><ele>1190.3333333333335</ele><time>2026-04-19T08:53:17Z</time></trkpt><trkpt lat="42.328325151570986" lon="13.706779129585648"><ele>1190.6666666666667</ele><time>2026-04-19T08:53:18Z</time></trkpt><trkpt lat="42.328342619498514" lon="13.706486412746699"><ele>1191.0</ele><time>2026-04-19T08:53:19Z</time></trkpt><trkpt lat="42.32837274557646" lon="13.706170628415789"><ele>1193.5</ele><time>2026-04-19T08:53:20Z</time></trkpt><trkpt lat="42.32836672433341" lon="13.705826706502686"><ele>1196.0</ele><time>2026-04-19T08:53:21Z</time></trkpt><trkpt lat="42.32838051682602" lon="13.705465136763577"><ele>1198.0</ele><time>2026-04-19T08:53:22Z</time></trkpt><trkpt lat="42.32837385145772" lon="13.705094026660936"><ele>1200.0</ele><time>2026-04-19T08:53:23Z</time></trkpt><trkpt lat="42.328365462897494" lon="13.704753083313816"><ele>1200.0</ele><time>2026-04-19T08:53:24Z</time></trkpt><trkpt lat="42.32835984730493" lon="13.704429474222255"><ele>1200.0</ele><time>2026-04-19T08:53:25Z</time></trkpt><trkpt lat="42.328353755522635" lon="13.704129138236768"><ele>1201.3333333333333</ele><time>2026-04-19T08:53:26Z</time></trkpt><trkpt lat="42.32834695154278" lon="13.703850933575113"><ele>1202.6666666666665</ele><time>2026-04-19T08:53:27Z</time></trkpt><trkpt lat="42.328343100819254" lon="13.703600202683667"><ele>1204.0</ele><time>2026-04-19T08:53:28Z</time></trkpt><trkpt lat="42.328296309391106" lon="13.70339308420497"><ele>1204.6666666666665</ele><time>2026-04-19T08:53:29Z</time></trkpt><trkpt lat="42.32823066274711" lon="13.703191818237213"><ele>1205.3333333333333</ele><time>2026-04-19T08:53:30Z</time></trkpt><trkpt lat="42.32813648207018" lon="13.703005100902555"><ele>1206.0</ele><time>2026-04-19T08:53:31Z</time></trkpt><trkpt lat="42.32805501022828" lon="13.702847795552637"><ele>1208.0</ele><time>2026-04-19T08:53:31.999Z</time></trkpt><trkpt lat="42.32798132908255" lon="13.70271969208866"><ele>1210.0</ele><time>2026-04-19T08:53:32.999Z</time></trkpt><trkpt lat="42.3279187517724" lon="13.702610947505326"><ele>1212.0</ele><time>2026-04-19T08:53:33.999Z</time></trkpt><trkpt lat="42.327857696298985" lon="13.702551851670684"><ele>1214.0</ele><time>2026-04-19T08:53:34.999Z</time></trkpt><trkpt lat="42.327808434238456" lon="13.70245145239418"><ele>1216.0</ele><time>2026-04-19T08:53:36.999Z</time></trkpt><trkpt lat="42.32783123676608" lon="13.702329985525392"><ele>1216.0</ele><time>2026-04-19T08:53:40.999Z</time></trkpt><trkpt lat="42.327810256577365" lon="13.702183356969849"><ele>1216.0</ele><time>2026-04-19T08:53:42.999Z</time></trkpt><trkpt lat="42.327820494559575" lon="13.702097828402916"><ele>1216.0</ele><time>2026-04-19T08:53:43.999Z</time></trkpt><trkpt lat="42.32783014929041" lon="13.70199997698524"><ele>1216.0</ele><time>2026-04-19T08:53:44.999Z</time></trkpt><trkpt lat="42.327840873408114" lon="13.701889411605654"><ele>1216.0</ele><time>2026-04-19T08:53:45.999Z</time></trkpt><trkpt lat="42.32788795346069" lon="13.701773386042882"><ele>1216.0</ele><time>2026-04-19T08:53:46.999Z</time></trkpt><trkpt lat="42.32789765267599" lon="13.701652959055737"><ele>1215.6</ele><time>2026-04-19T08:53:47.999Z</time></trkpt><trkpt lat="42.32790165150841" lon="13.701534873976053"><ele>1215.1999999999998</ele><time>2026-04-19T08:53:48.999Z</time></trkpt><trkpt lat="42.32789471965801" lon="13.7014129899787"><ele>1214.8000000000002</ele><time>2026-04-19T08:53:49.999Z</time></trkpt><trkpt lat="42.327883352244626" lon="13.701293834060332"><ele>1214.4</ele><time>2026-04-19T08:53:50.999Z</time></trkpt><trkpt lat="42.327868904361935" lon="13.701171538318425"><ele>1214.0</ele><time>2026-04-19T08:53:51.999Z</time></trkpt><trkpt lat="42.32781861981632" lon="13.701060637083335"><ele>1215.25</ele><time>2026-04-19T08:53:52.999Z</time></trkpt><trkpt lat="42.32779040810834" lon="13.700932927720022"><ele>1216.5</ele><time>2026-04-19T08:53:53.999Z</time></trkpt><trkpt lat="42.32774644032678" lon="13.70079133302276"><ele>1217.75</ele><time>2026-04-19T08:53:54.999Z</time></trkpt><trkpt lat="42.32769177020078" lon="13.700642108802393"><ele>1219.0</ele><time>2026-04-19T08:53:55.999Z</time></trkpt><trkpt lat="42.327619600954094" lon="13.700472656549213"><ele>1219.0</ele><time>2026-04-19T08:53:56.999Z</time></trkpt><trkpt lat="42.32757644551117" lon="13.70028225159022"><ele>1219.0</ele><time>2026-04-19T08:53:57.999Z</time></trkpt><trkpt lat="42.327516558264655" lon="13.700139144938133"><ele>1219.0</ele><time>2026-04-19T08:53:58.999Z</time></trkpt><trkpt lat="42.32745390635817" lon="13.699983423777212"><ele>1219.0</ele><time>2026-04-19T08:53:59.999Z</time></trkpt><trkpt lat="42.32738357343249" lon="13.699796531158741"><ele>1218.3333333333333</ele><time>2026-04-19T08:54:00.999Z</time></trkpt><trkpt lat="42.327315670044875" lon="13.69960547996684"><ele>1217.6666666666667</ele><time>2026-04-19T08:54:01.999Z</time></trkpt><trkpt lat="42.32724891573119" lon="13.699418256103295"><ele>1217.0</ele><time>2026-04-19T08:54:02.999Z</time></trkpt><trkpt lat="42.32718377009924" lon="13.699239947042091"><ele>1217.0</ele><time>2026-04-19T08:54:03.999Z</time></trkpt><trkpt lat="42.32712184986942" lon="13.6990706926332"><ele>1217.0</ele><time>2026-04-19T08:54:04.999Z</time></trkpt><trkpt lat="42.32706562613736" lon="13.698915586729257"><ele>1217.0</ele><time>2026-04-19T08:54:05.999Z</time></trkpt><trkpt lat="42.32701116561429" lon="13.698761518121154"><ele>1217.0</ele><time>2026-04-19T08:54:06.999Z</time></trkpt><trkpt lat="42.32695861802898" lon="13.698602948298758"><ele>1220.6666666666667</ele><time>2026-04-19T08:54:07.999Z</time></trkpt><trkpt lat="42.32690913967055" lon="13.698426743813112"><ele>1224.3333333333333</ele><time>2026-04-19T08:54:08.999Z</time></trkpt><trkpt lat="42.32685983244021" lon="13.698213225352664"><ele>1228.0</ele><time>2026-04-19T08:54:09.999Z</time></trkpt><trkpt lat="42.32680841290818" lon="13.697960598581012"><ele>1232.0</ele><time>2026-04-19T08:54:10.999Z</time></trkpt><trkpt lat="42.326755762511425" lon="13.69771179656873"><ele>1236.0</ele><time>2026-04-19T08:54:11.999Z</time></trkpt><trkpt lat="42.32671121248934" lon="13.697499377800124"><ele>1240.0</ele><time>2026-04-19T08:54:12.999Z</time></trkpt><trkpt lat="42.32667339028912" lon="13.697314232393731"><ele>1240.0</ele><time>2026-04-19T08:54:13.999Z</time></trkpt><trkpt lat="42.32664375753556" lon="13.697146425751239"><ele>1240.0</ele><time>2026-04-19T08:54:14.999Z</time></trkpt><trkpt lat="42.3266205686254" lon="13.696984960393458"><ele>1240.0</ele><time>2026-04-19T08:54:15.999Z</time></trkpt><trkpt lat="42.32660288781397" lon="13.696823987999004"><ele>1240.0</ele><time>2026-04-19T08:54:16.999Z</time></trkpt><trkpt lat="42.32659020198518" lon="13.696673150660695"><ele>1241.8333333333333</ele><time>2026-04-19T08:54:17.999Z</time></trkpt><trkpt lat="42.32658247563489" lon="13.696550294877119"><ele>1243.6666666666665</ele><time>2026-04-19T08:54:18.999Z</time></trkpt><trkpt lat="42.32657841104543" lon="13.69644888851179"><ele>1245.5</ele><time>2026-04-19T08:54:19.999Z</time></trkpt><trkpt lat="42.3265768008285" lon="13.69634587594495"><ele>1247.3333333333333</ele><time>2026-04-19T08:54:20.999Z</time></trkpt><trkpt lat="42.32657509807749" lon="13.696236943608605"><ele>1249.1666666666667</ele><time>2026-04-19T08:54:21.999Z</time></trkpt><trkpt lat="42.32657134416931" lon="13.69613142150987"><ele>1251.0</ele><time>2026-04-19T08:54:22.999Z</time></trkpt><trkpt lat="42.32652393847891" lon="13.696022918484342"><ele>1252.5</ele><time>2026-04-19T08:54:23.999Z</time></trkpt><trkpt lat="42.32650679730146" lon="13.695919750179288"><ele>1254.0</ele><time>2026-04-19T08:54:24.999Z</time></trkpt><trkpt lat="42.326474388168826" lon="13.695825529873481"><ele>1255.5</ele><time>2026-04-19T08:54:25.999Z</time></trkpt><trkpt lat="42.32644642830245" lon="13.695725888752515"><ele>1257.0</ele><time>2026-04-19T08:54:26.999Z</time></trkpt><trkpt lat="42.32640788287528" lon="13.69563327548628"><ele>1258.5</ele><time>2026-04-19T08:54:27.999Z</time></trkpt><trkpt lat="42.32636618863388" lon="13.69554151510522"><ele>1260.0</ele><time>2026-04-19T08:54:28.999Z</time></trkpt><trkpt lat="42.326326814773566" lon="13.695448543476413"><ele>1255.2</ele><time>2026-04-19T08:54:29.999Z</time></trkpt><trkpt lat="42.326295321262755" lon="13.695343223806072"><ele>1250.4</ele><time>2026-04-19T08:54:30.999Z</time></trkpt><trkpt lat="42.32630856507284" lon="13.69520912528247"><ele>1245.6</ele><time>2026-04-19T08:54:31.999Z</time></trkpt><trkpt lat="42.32627523559856" lon="13.695099381511138"><ele>1240.8</ele><time>2026-04-19T08:54:32.999Z</time></trkpt><trkpt lat="42.32624391001363" lon="13.694983743193228"><ele>1236.0</ele><time>2026-04-19T08:54:33.999Z</time></trkpt><trkpt lat="42.32621202149863" lon="13.694860338618728"><ele>1236.0</ele><time>2026-04-19T08:54:34.999Z</time></trkpt><trkpt lat="42.32618223893577" lon="13.69473227978643"><ele>1236.0</ele><time>2026-04-19T08:54:35.999Z</time></trkpt><trkpt lat="42.32615457179366" lon="13.694602886344134"><ele>1236.0</ele><time>2026-04-19T08:54:36.999Z</time></trkpt><trkpt lat="42.32612614057185" lon="13.69446991944089"><ele>1236.0</ele><time>2026-04-19T08:54:37.999Z</time></trkpt><trkpt lat="42.32609890443905" lon="13.694339167282454"><ele>1236.0</ele><time>2026-04-19T08:54:38.999Z</time></trkpt><trkpt lat="42.32607218077724" lon="13.694191619029546"><ele>1238.75</ele><time>2026-04-19T08:54:39.999Z</time></trkpt><trkpt lat="42.326050566511285" lon="13.694031216281514"><ele>1241.5</ele><time>2026-04-19T08:54:40.999Z</time></trkpt><trkpt lat="42.32602891126237" lon="13.693849110249932"><ele>1244.25</ele><time>2026-04-19T08:54:41.999Z</time></trkpt><trkpt lat="42.3260058005067" lon="13.693649980088647"><ele>1247.0</ele><time>2026-04-19T08:54:42.999Z</time></trkpt><trkpt lat="42.32598125707284" lon="13.693433428769682"><ele>1250.0</ele><time>2026-04-19T08:54:43.999Z</time></trkpt><trkpt lat="42.325956188773425" lon="13.693217751115059"><ele>1253.0</ele><time>2026-04-19T08:54:44.999Z</time></trkpt><trkpt lat="42.32593239435721" lon="13.693013033345416"><ele>1256.0</ele><time>2026-04-19T08:54:45.999Z</time></trkpt><trkpt lat="42.325907509713296" lon="13.692833049840191"><ele>1257.3999999999999</ele><time>2026-04-19T08:54:46.999Z</time></trkpt><trkpt lat="42.32588116068425" lon="13.692674499478482"><ele>1258.8</ele><time>2026-04-19T08:54:47.999Z</time></trkpt><trkpt lat="42.32585737663954" lon="13.692530766656084"><ele>1260.1999999999998</ele><time>2026-04-19T08:54:48.999Z</time></trkpt><trkpt lat="42.32584090294972" lon="13.692414216750207"><ele>1261.6</ele><time>2026-04-19T08:54:49.999Z</time></trkpt><trkpt lat="42.32584301466686" lon="13.692290337519259"><ele>1263.0</ele><time>2026-04-19T08:54:51.999Z</time></trkpt><trkpt lat="42.32590823288522" lon="13.692282700155726"><ele>1263.0</ele><time>2026-04-19T08:54:53.999Z</time></trkpt><trkpt lat="42.325950821510304" lon="13.692429639203658"><ele>1263.0</ele><time>2026-04-19T08:54:55.999Z</time></trkpt><trkpt lat="42.325951305649326" lon="13.692544891731627"><ele>1263.0</ele><time>2026-04-19T08:54:56.999Z</time></trkpt><trkpt lat="42.325961040787284" lon="13.692703499166523"><ele>1263.0</ele><time>2026-04-19T08:54:57.999Z</time></trkpt><trkpt lat="42.32600975539633" lon="13.692887551643674"><ele>1261.25</ele><time>2026-04-19T08:54:58.999Z</time></trkpt><trkpt lat="42.3260582885055" lon="13.693082792920713"><ele>1259.5</ele><time>2026-04-19T08:54:59.999Z</time></trkpt><trkpt lat="42.32611229763324" lon="13.693257976827073"><ele>1257.75</ele><time>2026-04-19T08:55:00.999Z</time></trkpt><trkpt lat="42.326160725302266" lon="13.693428640198107"><ele>1256.0</ele><time>2026-04-19T08:55:01.999Z</time></trkpt><trkpt lat="42.32620676231739" lon="13.693583283884815"><ele>1253.75</ele><time>2026-04-19T08:55:02.999Z</time></trkpt><trkpt lat="42.32624891191197" lon="13.693727757640074"><ele>1251.5</ele><time>2026-04-19T08:55:03.999Z</time></trkpt><trkpt lat="42.32630048376483" lon="13.693866824532142"><ele>1249.25</ele><time>2026-04-19T08:55:04.999Z</time></trkpt><trkpt lat="42.32635491117279" lon="13.694003309085483"><ele>1247.0</ele><time>2026-04-19T08:55:06Z</time></trkpt><trkpt lat="42.32640348791492" lon="13.694145562416493"><ele>1254.0</ele><time>2026-04-19T08:55:07Z</time></trkpt><trkpt lat="42.32645367900785" lon="13.69428704351844"><ele>1261.0</ele><time>2026-04-19T08:55:08Z</time></trkpt><trkpt lat="42.32651377058168" lon="13.694417098186072"><ele>1268.0</ele><time>2026-04-19T08:55:09Z</time></trkpt><trkpt lat="42.32656757777799" lon="13.694550172394106"><ele>1275.0</ele><time>2026-04-19T08:55:10Z</time></trkpt><trkpt lat="42.32661864844559" lon="13.694685954178897"><ele>1275.0</ele><time>2026-04-19T08:55:11Z</time></trkpt><trkpt lat="42.326675001154626" lon="13.694820445748775"><ele>1275.0</ele><time>2026-04-19T08:55:12Z</time></trkpt><trkpt lat="42.32673691403491" lon="13.69495043757925"><ele>1275.0</ele><time>2026-04-19T08:55:13Z</time></trkpt><trkpt lat="42.32680934932114" lon="13.695084329512161"><ele>1275.0</ele><time>2026-04-19T08:55:14Z</time></trkpt><trkpt lat="42.32688971653204" lon="13.695228595691564"><ele>1271.25</ele><time>2026-04-19T08:55:15Z</time></trkpt><trkpt lat="42.326988787568204" lon="13.695370421754323"><ele>1267.5</ele><time>2026-04-19T08:55:16Z</time></trkpt><trkpt lat="42.32708198188419" lon="13.695523226013673"><ele>1263.75</ele><time>2026-04-19T08:55:17Z</time></trkpt><trkpt lat="42.3271536971001" lon="13.695704367162842"><ele>1260.0</ele><time>2026-04-19T08:55:18Z</time></trkpt><trkpt lat="42.32724132738974" lon="13.695864025066715"><ele>1266.2</ele><time>2026-04-19T08:55:19Z</time></trkpt><trkpt lat="42.32729440082197" lon="13.69601808532049"><ele>1272.4</ele><time>2026-04-19T08:55:20Z</time></trkpt><trkpt lat="42.327332394775674" lon="13.69615571876745"><ele>1278.6</ele><time>2026-04-19T08:55:21Z</time></trkpt><trkpt lat="42.32735374478031" lon="13.696252724913426"><ele>1284.8</ele><time>2026-04-19T08:55:22Z</time></trkpt><trkpt lat="42.32738274742247" lon="13.696362562969782"><ele>1291.0</ele><time>2026-04-19T08:55:24Z</time></trkpt><trkpt lat="42.32742574396282" lon="13.696530226570244"><ele>1291.0</ele><time>2026-04-19T08:55:26Z</time></trkpt><trkpt lat="42.327448779722204" lon="13.69663224052815"><ele>1291.0</ele><time>2026-04-19T08:55:27Z</time></trkpt><trkpt lat="42.32746879333989" lon="13.696726435082224"><ele>1291.0</ele><time>2026-04-19T08:55:28Z</time></trkpt><trkpt lat="42.327500319200524" lon="13.696812793371578"><ele>1291.0</ele><time>2026-04-19T08:55:29Z</time></trkpt><trkpt lat="42.327534819690676" lon="13.696906328213398"><ele>1291.0</ele><time>2026-04-19T08:55:30Z</time></trkpt><trkpt lat="42.32756551561937" lon="13.697004802740999"><ele>1291.0</ele><time>2026-04-19T08:55:31Z</time></trkpt><trkpt lat="42.327600916042115" lon="13.697102774106005"><ele>1289.4285714285713</ele><time>2026-04-19T08:55:32Z</time></trkpt><trkpt lat="42.32763034356713" lon="13.69719653170272"><ele>1287.857142857143</ele><time>2026-04-19T08:55:33Z</time></trkpt><trkpt lat="42.327660123985915" lon="13.697280264249807"><ele>1286.2857142857142</ele><time>2026-04-19T08:55:34Z</time></trkpt><trkpt lat="42.32769213796803" lon="13.69736105016375"><ele>1284.7142857142858</ele><time>2026-04-19T08:55:35Z</time></trkpt><trkpt lat="42.32772725162003" lon="13.697450998022251"><ele>1283.142857142857</ele><time>2026-04-19T08:55:36Z</time></trkpt><trkpt lat="42.32778137474872" lon="13.697532132757642"><ele>1281.5714285714284</ele><time>2026-04-19T08:55:37Z</time></trkpt><trkpt lat="42.32782869800146" lon="13.697606047498796"><ele>1280.0</ele><time>2026-04-19T08:55:38Z</time></trkpt><trkpt lat="42.32786107684202" lon="13.697685167835711"><ele>1280.2</ele><time>2026-04-19T08:55:39Z</time></trkpt><trkpt lat="42.32795073631963" lon="13.697794935552484"><ele>1280.4</ele><time>2026-04-19T08:55:40.999Z</time></trkpt><trkpt lat="42.32800144223723" lon="13.69785241230462"><ele>1280.6</ele><time>2026-04-19T08:55:41.999Z</time></trkpt><trkpt lat="42.32809036589159" lon="13.697949850043733"><ele>1280.8</ele><time>2026-04-19T08:55:43.999Z</time></trkpt><trkpt lat="42.328122112971336" lon="13.698045594228004"><ele>1281.0</ele><time>2026-04-19T08:55:45.999Z</time></trkpt><trkpt lat="42.328140164983566" lon="13.698138539471378"><ele>1281.0</ele><time>2026-04-19T08:55:47.999Z</time></trkpt><trkpt lat="42.328171726941946" lon="13.698245420866785"><ele>1281.0</ele><time>2026-04-19T08:55:49.999Z</time></trkpt><trkpt lat="42.328230433484194" lon="13.698283298299927"><ele>1281.0</ele><time>2026-04-19T08:55:52.999Z</time></trkpt><trkpt lat="42.32829449183426" lon="13.698318056212706"><ele>1281.0</ele><time>2026-04-19T08:55:55.999Z</time></trkpt><trkpt lat="42.328348357942886" lon="13.698229039669748"><ele>1281.0</ele><time>2026-04-19T08:55:57.999Z</time></trkpt><trkpt lat="42.32834147772917" lon="13.698076083800538"><ele>1281.0</ele><time>2026-04-19T08:55:59.999Z</time></trkpt><trkpt lat="42.32831969386431" lon="13.697992264417543"><ele>1281.0</ele><time>2026-04-19T08:56:00.999Z</time></trkpt><trkpt lat="42.328276837455455" lon="13.697897888336781"><ele>1281.0</ele><time>2026-04-19T08:56:01.999Z</time></trkpt><trkpt lat="42.328225201810525" lon="13.697811356820198"><ele>1281.0</ele><time>2026-04-19T08:56:02.999Z</time></trkpt><trkpt lat="42.32813305536163" lon="13.69775410172097"><ele>1281.0</ele><time>2026-04-19T08:56:03.999Z</time></trkpt><trkpt lat="42.32805156725789" lon="13.697657194449677"><ele>1281.0</ele><time>2026-04-19T08:56:04.999Z</time></trkpt><trkpt lat="42.327972654431846" lon="13.697572333635929"><ele>1280.8</ele><time>2026-04-19T08:56:05.999Z</time></trkpt><trkpt lat="42.327904048320605" lon="13.69747408633761"><ele>1280.6</ele><time>2026-04-19T08:56:06.999Z</time></trkpt><trkpt lat="42.32785554177945" lon="13.697358360286623"><ele>1280.4</ele><time>2026-04-19T08:56:07.999Z</time></trkpt><trkpt lat="42.32782116730706" lon="13.697232843800414"><ele>1280.2</ele><time>2026-04-19T08:56:08.999Z</time></trkpt><trkpt lat="42.32778947170897" lon="13.697092918097834"><ele>1280.0</ele><time>2026-04-19T08:56:09.999Z</time></trkpt><trkpt lat="42.3277738527695" lon="13.696931253629488"><ele>1282.75</ele><time>2026-04-19T08:56:10.999Z</time></trkpt><trkpt lat="42.32777588255057" lon="13.696760977142384"><ele>1285.5</ele><time>2026-04-19T08:56:11.999Z</time></trkpt><trkpt lat="42.327783580107955" lon="13.696609495873313"><ele>1288.25</ele><time>2026-04-19T08:56:12.999Z</time></trkpt><trkpt lat="42.32780090651884" lon="13.69645613172155"><ele>1291.0</ele><time>2026-04-19T08:56:13.999Z</time></trkpt><trkpt lat="42.32781040538628" lon="13.696304663433574"><ele>1291.0</ele><time>2026-04-19T08:56:14.999Z</time></trkpt><trkpt lat="42.3278047102436" lon="13.696169519272587"><ele>1291.0</ele><time>2026-04-19T08:56:15.999Z</time></trkpt><trkpt lat="42.32776559638352" lon="13.696032536826745"><ele>1291.0</ele><time>2026-04-19T08:56:16.999Z</time></trkpt><trkpt lat="42.327707617686684" lon="13.69588526758522"><ele>1291.0</ele><time>2026-04-19T08:56:17.999Z</time></trkpt><trkpt lat="42.32764966955811" lon="13.69574366547416"><ele>1292.4</ele><time>2026-04-19T08:56:18.999Z</time></trkpt><trkpt lat="42.32760445756143" lon="13.6956057479666"><ele>1293.8</ele><time>2026-04-19T08:56:19.999Z</time></trkpt><trkpt lat="42.32758682300458" lon="13.695482898963151"><ele>1295.2</ele><time>2026-04-19T08:56:20.999Z</time></trkpt><trkpt lat="42.327583540614135" lon="13.695354330529447"><ele>1296.6000000000001</ele><time>2026-04-19T08:56:21.999Z</time></trkpt><trkpt lat="42.32758640389785" lon="13.695209141096878"><ele>1298.0</ele><time>2026-04-19T08:56:22.999Z</time></trkpt><trkpt lat="42.32754086255377" lon="13.695060180231874"><ele>1300.6000000000001</ele><time>2026-04-19T08:56:23.999Z</time></trkpt><trkpt lat="42.32749920223457" lon="13.694925313250668"><ele>1303.2</ele><time>2026-04-19T08:56:24.999Z</time></trkpt><trkpt lat="42.327456318733425" lon="13.694789843408104"><ele>1305.8</ele><time>2026-04-19T08:56:25.999Z</time></trkpt><trkpt lat="42.327414591409855" lon="13.694658025897477"><ele>1308.4</ele><time>2026-04-19T08:56:26.999Z</time></trkpt><trkpt lat="42.32737536966241" lon="13.69452760944342"><ele>1311.0</ele><time>2026-04-19T08:56:27.999Z</time></trkpt><trkpt lat="42.32734495396528" lon="13.694402929273153"><ele>1314.1999999999998</ele><time>2026-04-19T08:56:28.999Z</time></trkpt><trkpt lat="42.327315863760944" lon="13.694274124168548"><ele>1317.3999999999999</ele><time>2026-04-19T08:56:29.999Z</time></trkpt><trkpt lat="42.32729098879001" lon="13.694138941867738"><ele>1320.6</ele><time>2026-04-19T08:56:30.999Z</time></trkpt><trkpt lat="42.327265835202056" lon="13.693999279273045"><ele>1323.8</ele><time>2026-04-19T08:56:31.999Z</time></trkpt><trkpt lat="42.327241065855794" lon="13.693861750139774"><ele>1327.0</ele><time>2026-04-19T08:56:32.999Z</time></trkpt><trkpt lat="42.3272122098624" lon="13.693727725076721"><ele>1321.6</ele><time>2026-04-19T08:56:33.999Z</time></trkpt><trkpt lat="42.32718133496454" lon="13.693599475506929"><ele>1316.1999999999998</ele><time>2026-04-19T08:56:34.999Z</time></trkpt><trkpt lat="42.32715020070747" lon="13.693470148611636"><ele>1310.8</ele><time>2026-04-19T08:56:35.999Z</time></trkpt><trkpt lat="42.3271201284103" lon="13.693345232958453"><ele>1305.4</ele><time>2026-04-19T08:56:36.999Z</time></trkpt><trkpt lat="42.32709426789091" lon="13.6932236432744"><ele>1300.0</ele><time>2026-04-19T08:56:37.999Z</time></trkpt><trkpt lat="42.32707137154501" lon="13.69310834646288"><ele>1300.0</ele><time>2026-04-19T08:56:38.999Z</time></trkpt><trkpt lat="42.32705386120632" lon="13.692981472468556"><ele>1300.0</ele><time>2026-04-19T08:56:39.999Z</time></trkpt><trkpt lat="42.32704108207588" lon="13.692842092254466"><ele>1300.0</ele><time>2026-04-19T08:56:40.999Z</time></trkpt><trkpt lat="42.32702881809755" lon="13.69268895482101"><ele>1300.0</ele><time>2026-04-19T08:56:41.999Z</time></trkpt><trkpt lat="42.32701363617943" lon="13.69251359487164"><ele>1300.0</ele><time>2026-04-19T08:56:42.999Z</time></trkpt><trkpt lat="42.326994522463885" lon="13.692315190706749"><ele>1303.3333333333333</ele><time>2026-04-19T08:56:43.999Z</time></trkpt><trkpt lat="42.326977152831915" lon="13.692109699925988"><ele>1306.6666666666667</ele><time>2026-04-19T08:56:44.999Z</time></trkpt><trkpt lat="42.32695962701111" lon="13.691902361308218"><ele>1310.0</ele><time>2026-04-19T08:56:45.999Z</time></trkpt><trkpt lat="42.3269415256799" lon="13.691705550314028"><ele>1311.6</ele><time>2026-04-19T08:56:46.999Z</time></trkpt><trkpt lat="42.32692504033195" lon="13.691530925773314"><ele>1313.2</ele><time>2026-04-19T08:56:47.999Z</time></trkpt><trkpt lat="42.326910539456016" lon="13.691377322131533"><ele>1314.8000000000002</ele><time>2026-04-19T08:56:48.999Z</time></trkpt><trkpt lat="42.3268986536525" lon="13.69125141922967"><ele>1316.4</ele><time>2026-04-19T08:56:49.999Z</time></trkpt><trkpt lat="42.326888137549545" lon="13.691118710616054"><ele>1318.0</ele><time>2026-04-19T08:56:50.999Z</time></trkpt><trkpt lat="42.326888827179886" lon="13.690993711367117"><ele>1318.6000000000001</ele><time>2026-04-19T08:56:51.999Z</time></trkpt><trkpt lat="42.32689584711853" lon="13.690868699380802"><ele>1319.2</ele><time>2026-04-19T08:56:52.999Z</time></trkpt><trkpt lat="42.3269078260099" lon="13.690758938536176"><ele>1319.8</ele><time>2026-04-19T08:56:53.999Z</time></trkpt><trkpt lat="42.32692905873647" lon="13.69062984398858"><ele>1320.4</ele><time>2026-04-19T08:56:54.999Z</time></trkpt><trkpt lat="42.32695238024682" lon="13.690509618205752"><ele>1321.0</ele><time>2026-04-19T08:56:55.999Z</time></trkpt><trkpt lat="42.32697930895448" lon="13.69039607091216"><ele>1321.0</ele><time>2026-04-19T08:56:56.999Z</time></trkpt><trkpt lat="42.32701002813873" lon="13.690279947858322"><ele>1321.0</ele><time>2026-04-19T08:56:57.999Z</time></trkpt><trkpt lat="42.32704634573047" lon="13.690154157232328"><ele>1321.0</ele><time>2026-04-19T08:56:58.999Z</time></trkpt><trkpt lat="42.32709044598388" lon="13.690011387044423"><ele>1321.0</ele><time>2026-04-19T08:56:59.999Z</time></trkpt><trkpt lat="42.3271393899535" lon="13.689857822805996"><ele>1321.0</ele><time>2026-04-19T08:57:00.999Z</time></trkpt><trkpt lat="42.327188020659285" lon="13.689715816253456"><ele>1326.6</ele><time>2026-04-19T08:57:01.999Z</time></trkpt><trkpt lat="42.32722918362725" lon="13.68959981038515"><ele>1332.1999999999998</ele><time>2026-04-19T08:57:02.999Z</time></trkpt><trkpt lat="42.32725994433897" lon="13.689518738293"><ele>1337.8000000000002</ele><time>2026-04-19T08:57:03.999Z</time></trkpt><trkpt lat="42.3273124513017" lon="13.68938120872306"><ele>1343.4</ele><time>2026-04-19T08:57:05.999Z</time></trkpt><trkpt lat="42.32736734708295" lon="13.689249469315724"><ele>1349.0</ele><time>2026-04-19T08:57:07.999Z</time></trkpt><trkpt lat="42.32740413721719" lon="13.689168194202129"><ele>1349.0</ele><time>2026-04-19T08:57:08.999Z</time></trkpt><trkpt lat="42.32745074741602" lon="13.689072329715511"><ele>1349.0</ele><time>2026-04-19T08:57:09.999Z</time></trkpt><trkpt lat="42.32751300932912" lon="13.688949073316484"><ele>1349.0</ele><time>2026-04-19T08:57:10.999Z</time></trkpt><trkpt lat="42.32759188085399" lon="13.688796522494277"><ele>1349.0</ele><time>2026-04-19T08:57:12Z</time></trkpt><trkpt lat="42.3276730293951" lon="13.68863956746437"><ele>1344.5</ele><time>2026-04-19T08:57:13Z</time></trkpt><trkpt lat="42.32774855733743" lon="13.688489122694747"><ele>1340.0</ele><time>2026-04-19T08:57:14Z</time></trkpt><trkpt lat="42.327818308666025" lon="13.688346621424127"><ele>1335.5</ele><time>2026-04-19T08:57:15Z</time></trkpt><trkpt lat="42.32788412601258" lon="13.688198496462052"><ele>1331.0</ele><time>2026-04-19T08:57:16Z</time></trkpt><trkpt lat="42.32794076547383" lon="13.6880503066518"><ele>1331.0</ele><time>2026-04-19T08:57:17Z</time></trkpt><trkpt lat="42.327981500264755" lon="13.687914365874503"><ele>1331.0</ele><time>2026-04-19T08:57:18Z</time></trkpt><trkpt lat="42.32801542633019" lon="13.687780257304917"><ele>1331.0</ele><time>2026-04-19T08:57:19Z</time></trkpt><trkpt lat="42.32803415987002" lon="13.687632115327936"><ele>1331.0</ele><time>2026-04-19T08:57:20Z</time></trkpt><trkpt lat="42.32804479937437" lon="13.687487769380319"><ele>1331.0</ele><time>2026-04-19T08:57:21Z</time></trkpt><trkpt lat="42.32804189194175" lon="13.687338301942946"><ele>1328.6666666666667</ele><time>2026-04-19T08:57:22Z</time></trkpt><trkpt lat="42.32803544168417" lon="13.687216948108533"><ele>1326.3333333333335</ele><time>2026-04-19T08:57:23Z</time></trkpt><trkpt lat="42.328033551169476" lon="13.68712153998984"><ele>1324.0</ele><time>2026-04-19T08:57:24Z</time></trkpt><trkpt lat="42.32805545617105" lon="13.687028477008488"><ele>1321.6666666666667</ele><time>2026-04-19T08:57:26Z</time></trkpt><trkpt lat="42.32813507096726" lon="13.687058468454442"><ele>1319.3333333333333</ele><time>2026-04-19T08:57:28Z</time></trkpt><trkpt lat="42.32816248531559" lon="13.687184683725986"><ele>1317.0</ele><time>2026-04-19T08:57:30Z</time></trkpt><trkpt lat="42.32814848537912" lon="13.687289727111242"><ele>1319.8</ele><time>2026-04-19T08:57:31Z</time></trkpt><trkpt lat="42.32812312078657" lon="13.687421434071522"><ele>1322.6</ele><time>2026-04-19T08:57:32Z</time></trkpt><trkpt lat="42.32810088792878" lon="13.687567544252712"><ele>1325.3999999999999</ele><time>2026-04-19T08:57:33Z</time></trkpt><trkpt lat="42.32807467774198" lon="13.687715512774728"><ele>1328.1999999999998</ele><time>2026-04-19T08:57:34Z</time></trkpt><trkpt lat="42.328044693801935" lon="13.687860712560859"><ele>1331.0</ele><time>2026-04-19T08:57:35Z</time></trkpt><trkpt lat="42.32801227317081" lon="13.688005463034095"><ele>1331.0</ele><time>2026-04-19T08:57:36Z</time></trkpt><trkpt lat="42.32797464180718" lon="13.688150200645854"><ele>1331.0</ele><time>2026-04-19T08:57:37Z</time></trkpt><trkpt lat="42.32794040814551" lon="13.688298294552183"><ele>1331.0</ele><time>2026-04-19T08:57:38Z</time></trkpt><trkpt lat="42.32790507474523" lon="13.688443643692922"><ele>1331.0</ele><time>2026-04-19T08:57:39Z</time></trkpt><trkpt lat="42.32786977068084" lon="13.68858767492364"><ele>1334.6</ele><time>2026-04-19T08:57:40Z</time></trkpt><trkpt lat="42.3278324803176" lon="13.688727483633128"><ele>1338.1999999999998</ele><time>2026-04-19T08:57:41Z</time></trkpt><trkpt lat="42.3277923475333" lon="13.688867065915002"><ele>1341.8000000000002</ele><time>2026-04-19T08:57:42Z</time></trkpt><trkpt lat="42.32774575466787" lon="13.689002967856194"><ele>1345.4</ele><time>2026-04-19T08:57:43Z</time></trkpt><trkpt lat="42.32770182435404" lon="13.68913524028283"><ele>1349.0</ele><time>2026-04-19T08:57:44Z</time></trkpt><trkpt lat="42.32765770518194" lon="13.689268063465498"><ele>1349.0</ele><time>2026-04-19T08:57:45Z</time></trkpt><trkpt lat="42.327620748288076" lon="13.689408807572033"><ele>1349.0</ele><time>2026-04-19T08:57:46Z</time></trkpt><trkpt lat="42.32758466972686" lon="13.689547971418678"><ele>1349.0</ele><time>2026-04-19T08:57:47Z</time></trkpt><trkpt lat="42.32754932527505" lon="13.689676599962445"><ele>1349.0</ele><time>2026-04-19T08:57:48Z</time></trkpt><trkpt lat="42.32752116625333" lon="13.689798026469132"><ele>1349.0</ele><time>2026-04-19T08:57:48.999Z</time></trkpt><trkpt lat="42.327502429329286" lon="13.689922932819533"><ele>1352.4</ele><time>2026-04-19T08:57:49.999Z</time></trkpt><trkpt lat="42.32749348010887" lon="13.690046094201234"><ele>1355.8000000000002</ele><time>2026-04-19T08:57:50.999Z</time></trkpt><trkpt lat="42.32748999856476" lon="13.690169314459682"><ele>1359.1999999999998</ele><time>2026-04-19T08:57:51.999Z</time></trkpt><trkpt lat="42.32748621517121" lon="13.690291722035614"><ele>1362.6</ele><time>2026-04-19T08:57:52.999Z</time></trkpt><trkpt lat="42.32748171120063" lon="13.69041173654298"><ele>1366.0</ele><time>2026-04-19T08:57:53.999Z</time></trkpt><trkpt lat="42.32748363759913" lon="13.690532843899874"><ele>1366.0</ele><time>2026-04-19T08:57:54.999Z</time></trkpt><trkpt lat="42.327495257160294" lon="13.690653607578719"><ele>1366.0</ele><time>2026-04-19T08:57:55.999Z</time></trkpt><trkpt lat="42.32751771840053" lon="13.690783618154788"><ele>1366.0</ele><time>2026-04-19T08:57:56.999Z</time></trkpt><trkpt lat="42.32753863206693" lon="13.690927428162384"><ele>1366.0</ele><time>2026-04-19T08:57:57.999Z</time></trkpt><trkpt lat="42.327561980734764" lon="13.6910788208475"><ele>1366.0</ele><time>2026-04-19T08:57:58.999Z</time></trkpt><trkpt lat="42.32758631827373" lon="13.691228289577"><ele>1366.0</ele><time>2026-04-19T08:57:59.999Z</time></trkpt><trkpt lat="42.327619634030285" lon="13.691379343257946"><ele>1366.0</ele><time>2026-04-19T08:58:00.999Z</time></trkpt><trkpt lat="42.32766534490485" lon="13.691525761900214"><ele>1366.0</ele><time>2026-04-19T08:58:01.999Z</time></trkpt><trkpt lat="42.327713862437115" lon="13.691661640214546"><ele>1366.0</ele><time>2026-04-19T08:58:02.999Z</time></trkpt><trkpt lat="42.32774784467137" lon="13.691776542778499"><ele>1366.0</ele><time>2026-04-19T08:58:03.999Z</time></trkpt><trkpt lat="42.327782458948406" lon="13.691873998798481"><ele>1364.0</ele><time>2026-04-19T08:58:04.999Z</time></trkpt><trkpt lat="42.32781777956382" lon="13.691976146960965"><ele>1362.0</ele><time>2026-04-19T08:58:05.999Z</time></trkpt><trkpt lat="42.32784859249298" lon="13.692077568967674"><ele>1360.0</ele><time>2026-04-19T08:58:06.999Z</time></trkpt><trkpt lat="42.32787930324846" lon="13.692173798902138"><ele>1358.0</ele><time>2026-04-19T08:58:07.999Z</time></trkpt><trkpt lat="42.32791002037462" lon="13.692257698392664"><ele>1356.0</ele><time>2026-04-19T08:58:08.999Z</time></trkpt><trkpt lat="42.327968562275764" lon="13.692392803333822"><ele>1354.0</ele><time>2026-04-19T08:58:10.999Z</time></trkpt><trkpt lat="42.32803452203213" lon="13.692529519567197"><ele>1356.0</ele><time>2026-04-19T08:58:12.999Z</time></trkpt><trkpt lat="42.32806513473634" lon="13.692605831512516"><ele>1358.0</ele><time>2026-04-19T08:58:13.999Z</time></trkpt><trkpt lat="42.32809069740618" lon="13.6926883071683"><ele>1360.0</ele><time>2026-04-19T08:58:14.999Z</time></trkpt><trkpt lat="42.32811756346815" lon="13.69277066692612"><ele>1362.0</ele><time>2026-04-19T08:58:15.999Z</time></trkpt><trkpt lat="42.32816773258066" lon="13.69286673074723"><ele>1364.0</ele><time>2026-04-19T08:58:17.999Z</time></trkpt><trkpt lat="42.32824629023399" lon="13.692901139728763"><ele>1366.0</ele><time>2026-04-19T08:58:20.999Z</time></trkpt><trkpt lat="42.3283101171502" lon="13.692815448769549"><ele>1364.0</ele><time>2026-04-19T08:58:22.999Z</time></trkpt><trkpt lat="42.328305173820056" lon="13.692718395044459"><ele>1362.0</ele><time>2026-04-19T08:58:23.999Z</time></trkpt><trkpt lat="42.328264231808426" lon="13.692625183126918"><ele>1360.0</ele><time>2026-04-19T08:58:24.999Z</time></trkpt><trkpt lat="42.32819932360856" lon="13.69254846708227"><ele>1358.0</ele><time>2026-04-19T08:58:25.999Z</time></trkpt><trkpt lat="42.32814942593723" lon="13.692462141655842"><ele>1356.0</ele><time>2026-04-19T08:58:26.999Z</time></trkpt><trkpt lat="42.328094495621045" lon="13.692354805731068"><ele>1354.0</ele><time>2026-04-19T08:58:27.999Z</time></trkpt><trkpt lat="42.32804728978107" lon="13.692241395239757"><ele>1353.9999999999998</ele><time>2026-04-19T08:58:28.999Z</time></trkpt><trkpt lat="42.328006165339204" lon="13.692144432828815"><ele>1354.0</ele><time>2026-04-19T08:58:29.999Z</time></trkpt><trkpt lat="42.32796395873505" lon="13.69208012926944"><ele>1354.0</ele><time>2026-04-19T08:58:31.999Z</time></trkpt><trkpt lat="42.327942589342676" lon="13.69198570087647"><ele>1354.0</ele><time>2026-04-19T08:59:04.999Z</time></trkpt><trkpt lat="42.32792026737838" lon="13.691897032326349"><ele>1354.0</ele><time>2026-04-19T08:59:12.999Z</time></trkpt><trkpt lat="42.32795842042804" lon="13.691818460741729"><ele>1353.9999999999998</ele><time>2026-04-19T08:59:19.999Z</time></trkpt><trkpt lat="42.32796504239921" lon="13.69173353607118"><ele>1354.0</ele><time>2026-04-19T08:59:25.999Z</time></trkpt><trkpt lat="42.327947997346236" lon="13.691638195336079"><ele>1355.7142857142856</ele><time>2026-04-19T08:59:32.999Z</time></trkpt><trkpt lat="42.32796170463836" lon="13.691543562676598"><ele>1357.4285714285713</ele><time>2026-04-19T08:59:39.999Z</time></trkpt><trkpt lat="42.32792153001163" lon="13.69147522674569"><ele>1359.142857142857</ele><time>2026-04-19T08:59:44.999Z</time></trkpt><trkpt lat="42.32788187984284" lon="13.691396341110845"><ele>1360.8571428571427</ele><time>2026-04-19T08:59:51.999Z</time></trkpt><trkpt lat="42.3278121129925" lon="13.69139289416736"><ele>1362.5714285714284</ele><time>2026-04-19T08:59:55.999Z</time></trkpt><trkpt lat="42.32782653471631" lon="13.691303272264186"><ele>1364.2857142857142</ele><time>2026-04-19T09:00:14.999Z</time></trkpt><trkpt lat="42.32779707813998" lon="13.691385121995635"><ele>1366.0</ele><time>2026-04-19T09:00:27.999Z</time></trkpt><trkpt lat="42.32775995085364" lon="13.691315140062507"><ele>1366.0</ele><time>2026-04-19T09:00:39.999Z</time></trkpt><trkpt lat="42.32779284863729" lon="13.691396849808067"><ele>1366.0</ele><time>2026-04-19T09:01:26.999Z</time></trkpt><trkpt lat="42.327851483751495" lon="13.69144099094858"><ele>1366.0</ele><time>2026-04-19T09:01:36.999Z</time></trkpt><trkpt lat="42.32791359461071" lon="13.691456009227847"><ele>1366.0</ele><time>2026-04-19T09:01:44.999Z</time></trkpt><trkpt lat="42.327925669549884" lon="13.691368861035476"><ele>1366.0</ele><time>2026-04-19T09:02:02.999Z</time></trkpt><trkpt lat="42.32792527938889" lon="13.691263606872253"><ele>1366.0</ele><time>2026-04-19T09:02:10.999Z</time></trkpt><trkpt lat="42.32795750027006" lon="13.691189267872439"><ele>1366.0</ele><time>2026-04-19T09:09:26Z</time></trkpt><trkpt lat="42.327952664713095" lon="13.691280409934588"><ele>1366.0</ele><time>2026-04-19T09:10:08.001Z</time></trkpt><trkpt lat="42.3279326339092" lon="13.691373853744306"><ele>1366.0</ele><time>2026-04-19T09:10:18.001Z</time></trkpt><trkpt lat="42.32793724537359" lon="13.69146295536939"><ele>1366.0</ele><time>2026-04-19T09:10:23.001Z</time></trkpt><trkpt lat="42.32795640269989" lon="13.691547930193572"><ele>1366.0</ele><time>2026-04-19T09:10:30.001Z</time></trkpt><trkpt lat="42.327949413630506" lon="13.691648696418333"><ele>1366.0</ele><time>2026-04-19T09:10:36.001Z</time></trkpt><trkpt lat="42.327928099450574" lon="13.691750292805105"><ele>1366.0</ele><time>2026-04-19T09:10:41.001Z</time></trkpt><trkpt lat="42.32792407149209" lon="13.691841737640852"><ele>1366.0</ele><time>2026-04-19T09:10:46Z</time></trkpt><trkpt lat="42.327951229828585" lon="13.691927971080792"><ele>1364.0</ele><time>2026-04-19T09:10:52Z</time></trkpt><trkpt lat="42.327974895507616" lon="13.692017873726346"><ele>1362.0</ele><time>2026-04-19T09:10:58Z</time></trkpt><trkpt lat="42.32798345359609" lon="13.692115152427078"><ele>1360.0</ele><time>2026-04-19T09:12:41Z</time></trkpt><trkpt lat="42.32801170420069" lon="13.692209804766666"><ele>1358.0</ele><time>2026-04-19T09:12:44Z</time></trkpt><trkpt lat="42.32803832894528" lon="13.692316766219548"><ele>1356.0</ele><time>2026-04-19T09:12:46Z</time></trkpt><trkpt lat="42.32807862321432" lon="13.692409268259986"><ele>1354.0</ele><time>2026-04-19T09:12:48Z</time></trkpt><trkpt lat="42.328128912022564" lon="13.692495503585562"><ele>1356.0</ele><time>2026-04-19T09:12:50Z</time></trkpt><trkpt lat="42.328178531425195" lon="13.692579239084234"><ele>1358.0</ele><time>2026-04-19T09:12:52Z</time></trkpt><trkpt lat="42.32822645264656" lon="13.692657278527465"><ele>1360.0</ele><time>2026-04-19T09:12:54Z</time></trkpt><trkpt lat="42.328272600850134" lon="13.692753268540876"><ele>1362.0</ele><time>2026-04-19T09:12:56Z</time></trkpt><trkpt lat="42.32822989599335" lon="13.692862982377735"><ele>1364.0</ele><time>2026-04-19T09:12:58Z</time></trkpt><trkpt lat="42.32816374216396" lon="13.692898445894818"><ele>1366.0</ele><time>2026-04-19T09:13:00Z</time></trkpt><trkpt lat="42.32813184685311" lon="13.69276257973387"><ele>1363.6</ele><time>2026-04-19T09:13:01Z</time></trkpt><trkpt lat="42.32809720006416" lon="13.692589367821105"><ele>1361.1999999999998</ele><time>2026-04-19T09:13:03Z</time></trkpt><trkpt lat="42.32805841905435" lon="13.692497651722096"><ele>1358.8000000000002</ele><time>2026-04-19T09:13:04Z</time></trkpt><trkpt lat="42.32802219461928" lon="13.692412296588458"><ele>1356.4</ele><time>2026-04-19T09:13:05Z</time></trkpt><trkpt lat="42.32798982647335" lon="13.692334212254103"><ele>1354.0</ele><time>2026-04-19T09:13:06Z</time></trkpt><trkpt lat="42.32794082693203" lon="13.692203790169552"><ele>1354.0</ele><time>2026-04-19T09:13:08Z</time></trkpt><trkpt lat="42.327886600148936" lon="13.692050691093002"><ele>1354.0</ele><time>2026-04-19T09:13:10Z</time></trkpt><trkpt lat="42.32785639997484" lon="13.691962254776755"><ele>1354.0</ele><time>2026-04-19T09:13:11Z</time></trkpt><trkpt lat="42.32782625603454" lon="13.69186772647862"><ele>1354.0</ele><time>2026-04-19T09:13:12Z</time></trkpt><trkpt lat="42.327794265189475" lon="13.69176552264948"><ele>1354.0</ele><time>2026-04-19T09:13:13Z</time></trkpt><trkpt lat="42.327762373406344" lon="13.691664835081657"><ele>1354.0</ele><time>2026-04-19T09:13:14Z</time></trkpt><trkpt lat="42.327731303220425" lon="13.69156681702765"><ele>1356.0</ele><time>2026-04-19T09:13:15Z</time></trkpt><trkpt lat="42.327699911824936" lon="13.691467785636783"><ele>1358.0</ele><time>2026-04-19T09:13:16Z</time></trkpt><trkpt lat="42.327671906548154" lon="13.691376845084957"><ele>1360.0</ele><time>2026-04-19T09:13:17Z</time></trkpt><trkpt lat="42.32764616996277" lon="13.691282989500136"><ele>1362.0</ele><time>2026-04-19T09:13:18Z</time></trkpt><trkpt lat="42.32762535701398" lon="13.691178142568269"><ele>1364.0</ele><time>2026-04-19T09:13:19Z</time></trkpt><trkpt lat="42.32761152431173" lon="13.691078717396865"><ele>1366.0</ele><time>2026-04-19T09:13:20Z</time></trkpt><trkpt lat="42.3275955234131" lon="13.690985684773517"><ele>1367.5</ele><time>2026-04-19T09:13:21Z</time></trkpt><trkpt lat="42.32757958539431" lon="13.690893017592657"><ele>1369.0</ele><time>2026-04-19T09:13:22Z</time></trkpt><trkpt lat="42.327562332731574" lon="13.690792706989107"><ele>1370.5</ele><time>2026-04-19T09:13:23Z</time></trkpt><trkpt lat="42.32754826487936" lon="13.690687033957573"><ele>1372.0</ele><time>2026-04-19T09:13:24Z</time></trkpt><trkpt lat="42.32753606650444" lon="13.690571125406484"><ele>1373.5</ele><time>2026-04-19T09:13:25Z</time></trkpt><trkpt lat="42.32753063354747" lon="13.690462699823279"><ele>1375.0</ele><time>2026-04-19T09:13:26Z</time></trkpt><trkpt lat="42.32752985112286" lon="13.690368930236906"><ele>1374.9999999999998</ele><time>2026-04-19T09:13:27Z</time></trkpt><trkpt lat="42.32753214561516" lon="13.69027341658841"><ele>1375.0</ele><time>2026-04-19T09:13:28Z</time></trkpt><trkpt lat="42.32753600429101" lon="13.690172043035318"><ele>1375.0</ele><time>2026-04-19T09:13:29Z</time></trkpt><trkpt lat="42.3275411156082" lon="13.690071829906499"><ele>1375.0</ele><time>2026-04-19T09:13:30Z</time></trkpt><trkpt lat="42.3275500837816" lon="13.689968390518022"><ele>1375.0</ele><time>2026-04-19T09:13:31Z</time></trkpt><trkpt lat="42.32756261784894" lon="13.689864953395244"><ele>1374.9999999999998</ele><time>2026-04-19T09:13:32Z</time></trkpt><trkpt lat="42.327578535833545" lon="13.689769891152324"><ele>1375.0</ele><time>2026-04-19T09:13:33Z</time></trkpt><trkpt lat="42.32759842467655" lon="13.689676214010591"><ele>1373.5</ele><time>2026-04-19T09:13:34Z</time></trkpt><trkpt lat="42.327621156678354" lon="13.68957801589985"><ele>1372.0</ele><time>2026-04-19T09:13:35Z</time></trkpt><trkpt lat="42.3276486062193" lon="13.68947619801675"><ele>1370.5</ele><time>2026-04-19T09:13:36Z</time></trkpt><trkpt lat="42.32767789583153" lon="13.689374408403852"><ele>1369.0</ele><time>2026-04-19T09:13:37Z</time></trkpt><trkpt lat="42.32770807916794" lon="13.689269512856855"><ele>1367.5</ele><time>2026-04-19T09:13:38Z</time></trkpt><trkpt lat="42.32773806103127" lon="13.689165317476679"><ele>1366.0</ele><time>2026-04-19T09:13:39Z</time></trkpt><trkpt lat="42.32776818732345" lon="13.689060620190373"><ele>1363.1666666666665</ele><time>2026-04-19T09:13:40Z</time></trkpt><trkpt lat="42.32779830878703" lon="13.688955993402093"><ele>1360.3333333333333</ele><time>2026-04-19T09:13:41Z</time></trkpt><trkpt lat="42.327827524472546" lon="13.688854781915984"><ele>1357.5</ele><time>2026-04-19T09:13:42Z</time></trkpt><trkpt lat="42.32785815062378" lon="13.688747392324194"><ele>1354.6666666666667</ele><time>2026-04-19T09:13:43Z</time></trkpt><trkpt lat="42.32788820722146" lon="13.68864099834836"><ele>1351.8333333333335</ele><time>2026-04-19T09:13:44Z</time></trkpt><trkpt lat="42.32791864394887" lon="13.688533258854767"><ele>1349.0</ele><time>2026-04-19T09:13:45Z</time></trkpt><trkpt lat="42.327946866104156" lon="13.68842225493823"><ele>1346.0</ele><time>2026-04-19T09:13:46Z</time></trkpt><trkpt lat="42.32797481630866" lon="13.688307243044838"><ele>1343.0</ele><time>2026-04-19T09:13:47Z</time></trkpt><trkpt lat="42.328001483070864" lon="13.688193039648864"><ele>1340.0</ele><time>2026-04-19T09:13:48Z</time></trkpt><trkpt lat="42.3280278263904" lon="13.688080195064222"><ele>1337.0</ele><time>2026-04-19T09:13:49Z</time></trkpt><trkpt lat="42.32805428891615" lon="13.68796581049622"><ele>1334.0</ele><time>2026-04-19T09:13:50Z</time></trkpt><trkpt lat="42.32808056120351" lon="13.687849160125447"><ele>1331.0</ele><time>2026-04-19T09:13:51Z</time></trkpt><trkpt lat="42.328106262312396" lon="13.687735045782663"><ele>1340.1999999999998</ele><time>2026-04-19T09:13:52Z</time></trkpt><trkpt lat="42.32813173850785" lon="13.687620245159666"><ele>1349.3999999999999</ele><time>2026-04-19T09:13:53Z</time></trkpt><trkpt lat="42.32815521441774" lon="13.687507854665748"><ele>1358.6</ele><time>2026-04-19T09:13:54Z</time></trkpt><trkpt lat="42.32817522977698" lon="13.687401426930633"><ele>1367.8</ele><time>2026-04-19T09:13:55Z</time></trkpt><trkpt lat="42.32819050272567" lon="13.687307840702358"><ele>1377.0</ele><time>2026-04-19T09:13:56Z</time></trkpt><trkpt lat="42.32820090446328" lon="13.687134443834074"><ele>1377.0</ele><time>2026-04-19T09:13:58Z</time></trkpt><trkpt lat="42.32818036585244" lon="13.687049235915731"><ele>1377.0</ele><time>2026-04-19T09:13:59Z</time></trkpt><trkpt lat="42.32808274635716" lon="13.686973614695514"><ele>1377.0</ele><time>2026-04-19T09:14:01Z</time></trkpt><trkpt lat="42.328021250231885" lon="13.687002046264242"><ele>1377.0</ele><time>2026-04-19T09:14:02Z</time></trkpt><trkpt lat="42.32798954132005" lon="13.687100477834367"><ele>1377.0</ele><time>2026-04-19T09:14:03Z</time></trkpt><trkpt lat="42.3279773500987" lon="13.68719361439804"><ele>1377.0</ele><time>2026-04-19T09:14:04Z</time></trkpt><trkpt lat="42.327990144444165" lon="13.687316498278733"><ele>1365.5</ele><time>2026-04-19T09:14:05Z</time></trkpt><trkpt lat="42.328010678190424" lon="13.68747506565993"><ele>1354.0</ele><time>2026-04-19T09:14:06Z</time></trkpt><trkpt lat="42.3280121526614" lon="13.687642941659224"><ele>1342.5</ele><time>2026-04-19T09:14:07Z</time></trkpt><trkpt lat="42.32797498010647" lon="13.687840398714268"><ele>1331.0</ele><time>2026-04-19T09:14:08Z</time></trkpt><trkpt lat="42.327908804922586" lon="13.688054515395786"><ele>1331.0</ele><time>2026-04-19T09:14:09Z</time></trkpt><trkpt lat="42.32783048172325" lon="13.688262551502207"><ele>1331.0</ele><time>2026-04-19T09:14:10Z</time></trkpt><trkpt lat="42.32772784416598" lon="13.688471595843957"><ele>1331.0</ele><time>2026-04-19T09:14:11Z</time></trkpt><trkpt lat="42.32761286929865" lon="13.68867756070105"><ele>1337.0</ele><time>2026-04-19T09:14:12Z</time></trkpt><trkpt lat="42.32749570606105" lon="13.6888920918754"><ele>1343.0</ele><time>2026-04-19T09:14:13Z</time></trkpt><trkpt lat="42.32738353639907" lon="13.689117642380078"><ele>1349.0</ele><time>2026-04-19T09:14:14Z</time></trkpt><trkpt lat="42.32728338110578" lon="13.689344714693272"><ele>1336.6666666666667</ele><time>2026-04-19T09:14:15Z</time></trkpt><trkpt lat="42.3271914139935" lon="13.689570233421339"><ele>1324.3333333333333</ele><time>2026-04-19T09:14:16Z</time></trkpt><trkpt lat="42.327111678473834" lon="13.68980611524111"><ele>1312.0</ele><time>2026-04-19T09:14:17Z</time></trkpt><trkpt lat="42.32704055411559" lon="13.690028897566155"><ele>1312.0</ele><time>2026-04-19T09:14:18Z</time></trkpt><trkpt lat="42.32697575939107" lon="13.690235696964507"><ele>1312.0</ele><time>2026-04-19T09:14:19Z</time></trkpt><trkpt lat="42.32692121757689" lon="13.690434957553911"><ele>1312.0</ele><time>2026-04-19T09:14:20Z</time></trkpt><trkpt lat="42.32688739696179" lon="13.690630166214603"><ele>1313.5</ele><time>2026-04-19T09:14:21Z</time></trkpt><trkpt lat="42.326852954920234" lon="13.690827615327871"><ele>1315.0</ele><time>2026-04-19T09:14:22Z</time></trkpt><trkpt lat="42.326838262988325" lon="13.691010572134743"><ele>1316.5</ele><time>2026-04-19T09:14:23Z</time></trkpt><trkpt lat="42.32684712550779" lon="13.691204971564275"><ele>1318.0</ele><time>2026-04-19T09:14:24Z</time></trkpt><trkpt lat="42.32687012590609" lon="13.691406329130201"><ele>1318.0</ele><time>2026-04-19T09:14:25Z</time></trkpt><trkpt lat="42.32689377038947" lon="13.691593096810228"><ele>1318.0</ele><time>2026-04-19T09:14:26Z</time></trkpt><trkpt lat="42.32690951063431" lon="13.691765859957773"><ele>1318.0</ele><time>2026-04-19T09:14:27Z</time></trkpt><trkpt lat="42.326921366168406" lon="13.691934050962374"><ele>1318.0</ele><time>2026-04-19T09:14:28Z</time></trkpt><trkpt lat="42.32693623811584" lon="13.69210062661002"><ele>1316.0</ele><time>2026-04-19T09:14:29Z</time></trkpt><trkpt lat="42.32695179153845" lon="13.692265683522965"><ele>1314.0</ele><time>2026-04-19T09:14:30Z</time></trkpt><trkpt lat="42.32696832292754" lon="13.692428124896903"><ele>1312.0</ele><time>2026-04-19T09:14:31Z</time></trkpt><trkpt lat="42.32698270224116" lon="13.692587834286215"><ele>1310.0</ele><time>2026-04-19T09:14:32Z</time></trkpt><trkpt lat="42.32699660387068" lon="13.692739454403268"><ele>1307.5</ele><time>2026-04-19T09:14:33Z</time></trkpt><trkpt lat="42.32701170518711" lon="13.692906876537233"><ele>1305.0</ele><time>2026-04-19T09:14:34Z</time></trkpt><trkpt lat="42.32702880099677" lon="13.693082186002107"><ele>1302.5</ele><time>2026-04-19T09:14:35Z</time></trkpt><trkpt lat="42.32704915428622" lon="13.69324823222293"><ele>1300.0</ele><time>2026-04-19T09:14:36Z</time></trkpt><trkpt lat="42.32709032624198" lon="13.693389148712917"><ele>1300.0</ele><time>2026-04-19T09:14:37Z</time></trkpt><trkpt lat="42.32714864147552" lon="13.693554642012131"><ele>1300.0</ele><time>2026-04-19T09:14:38Z</time></trkpt><trkpt lat="42.327197743422836" lon="13.6937447767543"><ele>1300.0</ele><time>2026-04-19T09:14:39Z</time></trkpt><trkpt lat="42.32722967920854" lon="13.693954622247425"><ele>1300.0</ele><time>2026-04-19T09:14:40Z</time></trkpt><trkpt lat="42.32725120487638" lon="13.69415564690704"><ele>1302.75</ele><time>2026-04-19T09:14:41Z</time></trkpt><trkpt lat="42.32728300341789" lon="13.694339694719108"><ele>1305.5</ele><time>2026-04-19T09:14:42Z</time></trkpt><trkpt lat="42.32732380696761" lon="13.694517710444904"><ele>1308.25</ele><time>2026-04-19T09:14:43Z</time></trkpt><trkpt lat="42.327370511917195" lon="13.694686807221604"><ele>1311.0</ele><time>2026-04-19T09:14:44Z</time></trkpt><trkpt lat="42.32743472115429" lon="13.694838850361668"><ele>1311.0</ele><time>2026-04-19T09:14:45Z</time></trkpt><trkpt lat="42.327495278087845" lon="13.694990611355049"><ele>1311.0</ele><time>2026-04-19T09:14:46Z</time></trkpt><trkpt lat="42.32753882374129" lon="13.695126508945307"><ele>1311.0</ele><time>2026-04-19T09:14:47Z</time></trkpt><trkpt lat="42.327563825998595" lon="13.695265285291322"><ele>1311.0</ele><time>2026-04-19T09:14:48Z</time></trkpt><trkpt lat="42.32756576224589" lon="13.695406421274939"><ele>1311.0</ele><time>2026-04-19T09:14:49Z</time></trkpt><trkpt lat="42.32756493219683" lon="13.69553781113752"><ele>1307.75</ele><time>2026-04-19T09:14:50Z</time></trkpt><trkpt lat="42.327578084437846" lon="13.695690034084025"><ele>1304.5</ele><time>2026-04-19T09:14:51Z</time></trkpt><trkpt lat="42.32762979585121" lon="13.695839215890526"><ele>1301.25</ele><time>2026-04-19T09:14:52Z</time></trkpt><trkpt lat="42.32769508122399" lon="13.695985800366813"><ele>1298.0</ele><time>2026-04-19T09:14:53Z</time></trkpt><trkpt lat="42.327751835494084" lon="13.696123548574166"><ele>1296.8333333333335</ele><time>2026-04-19T09:14:54Z</time></trkpt><trkpt lat="42.32777543294965" lon="13.696246449520231"><ele>1295.6666666666667</ele><time>2026-04-19T09:14:55Z</time></trkpt><trkpt lat="42.32777813456549" lon="13.696377038507283"><ele>1294.5</ele><time>2026-04-19T09:14:56Z</time></trkpt><trkpt lat="42.32775998021342" lon="13.696490604484506"><ele>1293.3333333333333</ele><time>2026-04-19T09:14:57Z</time></trkpt><trkpt lat="42.3277398760777" lon="13.696600242318773"><ele>1292.1666666666665</ele><time>2026-04-19T09:14:58Z</time></trkpt><trkpt lat="42.327728673567364" lon="13.696702956354477"><ele>1291.0</ele><time>2026-04-19T09:14:59Z</time></trkpt><trkpt lat="42.32772474573149" lon="13.696805941966325"><ele>1291.0</ele><time>2026-04-19T09:15:00Z</time></trkpt><trkpt lat="42.327731340864375" lon="13.696911221021596"><ele>1291.0</ele><time>2026-04-19T09:15:01Z</time></trkpt><trkpt lat="42.32774423073193" lon="13.697015686178954"><ele>1291.0</ele><time>2026-04-19T09:15:02Z</time></trkpt><trkpt lat="42.32776179026843" lon="13.697112469601182"><ele>1291.0</ele><time>2026-04-19T09:15:03Z</time></trkpt><trkpt lat="42.3277854612863" lon="13.697206968937419"><ele>1291.0</ele><time>2026-04-19T09:15:04Z</time></trkpt><trkpt lat="42.327812945205515" lon="13.697317836352221"><ele>1291.0</ele><time>2026-04-19T09:15:05Z</time></trkpt><trkpt lat="42.32784717548491" lon="13.69743481464628"><ele>1289.3333333333333</ele><time>2026-04-19T09:15:06Z</time></trkpt><trkpt lat="42.327890210884554" lon="13.697529181379377"><ele>1287.6666666666665</ele><time>2026-04-19T09:15:07Z</time></trkpt><trkpt lat="42.327943871961786" lon="13.697604367913108"><ele>1286.0</ele><time>2026-04-19T09:15:08Z</time></trkpt><trkpt lat="42.328006382242286" lon="13.697649087707187"><ele>1284.3333333333333</ele><time>2026-04-19T09:15:09Z</time></trkpt><trkpt lat="42.328056477466916" lon="13.697717501989779"><ele>1282.6666666666667</ele><time>2026-04-19T09:15:10Z</time></trkpt><trkpt lat="42.32811552262976" lon="13.69776136364762"><ele>1281.0</ele><time>2026-04-19T09:15:11Z</time></trkpt><trkpt lat="42.328182767324904" lon="13.697835886358941"><ele>1281.0</ele><time>2026-04-19T09:15:13Z</time></trkpt><trkpt lat="42.32824859117526" lon="13.697905987920038"><ele>1281.0</ele><time>2026-04-19T09:15:37Z</time></trkpt><trkpt lat="42.328287760404514" lon="13.698025987831112"><ele>1281.0</ele><time>2026-04-19T09:15:38.999Z</time></trkpt><trkpt lat="42.32831266973569" lon="13.698182390202959"><ele>1281.0</ele><time>2026-04-19T09:15:40.999Z</time></trkpt><trkpt lat="42.32825591701111" lon="13.69827672757461"><ele>1281.0</ele><time>2026-04-19T09:15:42.999Z</time></trkpt><trkpt lat="42.3281726360351" lon="13.698224531574473"><ele>1281.0</ele><time>2026-04-19T09:15:44.999Z</time></trkpt><trkpt lat="42.32816921054513" lon="13.698133360501693"><ele>1281.0</ele><time>2026-04-19T09:15:45.999Z</time></trkpt><trkpt lat="42.328131199184746" lon="13.698033456039303"><ele>1281.0</ele><time>2026-04-19T09:15:46.999Z</time></trkpt><trkpt lat="42.32808686103243" lon="13.69791791391425"><ele>1281.0</ele><time>2026-04-19T09:15:47.999Z</time></trkpt><trkpt lat="42.32800559934239" lon="13.697809601119454"><ele>1281.0</ele><time>2026-04-19T09:15:48.999Z</time></trkpt><trkpt lat="42.32790533816309" lon="13.697707207621892"><ele>1280.75</ele><time>2026-04-19T09:15:49.999Z</time></trkpt><trkpt lat="42.327826805392036" lon="13.697568052083678"><ele>1280.5</ele><time>2026-04-19T09:15:50.999Z</time></trkpt><trkpt lat="42.327744262203545" lon="13.69741121183068"><ele>1280.25</ele><time>2026-04-19T09:15:51.999Z</time></trkpt><trkpt lat="42.32767308494303" lon="13.697241080008904"><ele>1280.0</ele><time>2026-04-19T09:15:52.999Z</time></trkpt><trkpt lat="42.32761280136217" lon="13.697074497219997"><ele>1282.75</ele><time>2026-04-19T09:15:53.999Z</time></trkpt><trkpt lat="42.32756058592225" lon="13.696918689469546"><ele>1285.5</ele><time>2026-04-19T09:15:54.999Z</time></trkpt><trkpt lat="42.327513009269246" lon="13.69675381870687"><ele>1288.25</ele><time>2026-04-19T09:15:55.999Z</time></trkpt><trkpt lat="42.327466883365496" lon="13.69657299246821"><ele>1291.0</ele><time>2026-04-19T09:15:56.999Z</time></trkpt><trkpt lat="42.32742330765588" lon="13.696391629408122"><ele>1291.0</ele><time>2026-04-19T09:15:57.999Z</time></trkpt><trkpt lat="42.32738164323414" lon="13.696216565145619"><ele>1291.0</ele><time>2026-04-19T09:15:58.999Z</time></trkpt><trkpt lat="42.327327720016406" lon="13.696036181088186"><ele>1291.0</ele><time>2026-04-19T09:15:59.999Z</time></trkpt><trkpt lat="42.32726118915079" lon="13.695856987899793"><ele>1291.0</ele><time>2026-04-19T09:16:00.999Z</time></trkpt><trkpt lat="42.327187727780725" lon="13.695692813206005"><ele>1287.0</ele><time>2026-04-19T09:16:01.999Z</time></trkpt><trkpt lat="42.32711422917954" lon="13.695540708697827"><ele>1283.0</ele><time>2026-04-19T09:16:02.999Z</time></trkpt><trkpt lat="42.32703863582085" lon="13.695398365850053"><ele>1279.0</ele><time>2026-04-19T09:16:03.999Z</time></trkpt><trkpt lat="42.32695654258006" lon="13.695271849811686"><ele>1275.0</ele><time>2026-04-19T09:16:04.999Z</time></trkpt><trkpt lat="42.32688064040394" lon="13.695155267370854"><ele>1275.0</ele><time>2026-04-19T09:16:06Z</time></trkpt><trkpt lat="42.32681073860639" lon="13.69503512017407"><ele>1275.0</ele><time>2026-04-19T09:16:07Z</time></trkpt><trkpt lat="42.3267491895432" lon="13.694913508214471"><ele>1275.0</ele><time>2026-04-19T09:16:08Z</time></trkpt><trkpt lat="42.326687007314334" lon="13.694769675651749"><ele>1275.0</ele><time>2026-04-19T09:16:09Z</time></trkpt><trkpt lat="42.326620750364725" lon="13.694612978124043"><ele>1275.0</ele><time>2026-04-19T09:16:10Z</time></trkpt><trkpt lat="42.326554347340156" lon="13.694454998083632"><ele>1275.0</ele><time>2026-04-19T09:16:11Z</time></trkpt><trkpt lat="42.32649126581465" lon="13.694294026892042"><ele>1275.0</ele><time>2026-04-19T09:16:12Z</time></trkpt><trkpt lat="42.3264308981211" lon="13.69412603530928"><ele>1275.0</ele><time>2026-04-19T09:16:13Z</time></trkpt><trkpt lat="42.32637083025254" lon="13.693949781762432"><ele>1270.25</ele><time>2026-04-19T09:16:14Z</time></trkpt><trkpt lat="42.32631155560337" lon="13.693772101788165"><ele>1265.5</ele><time>2026-04-19T09:16:15Z</time></trkpt><trkpt lat="42.32625364853378" lon="13.69358845031179"><ele>1260.75</ele><time>2026-04-19T09:16:16Z</time></trkpt><trkpt lat="42.32620368565742" lon="13.693417719048911"><ele>1256.0</ele><time>2026-04-19T09:16:17Z</time></trkpt><trkpt lat="42.32615059806746" lon="13.693247458534348"><ele>1256.0</ele><time>2026-04-19T09:16:18Z</time></trkpt><trkpt lat="42.32610165317411" lon="13.693091023765472"><ele>1256.0</ele><time>2026-04-19T09:16:19Z</time></trkpt><trkpt lat="42.326062478994274" lon="13.692938765847023"><ele>1256.0</ele><time>2026-04-19T09:16:20Z</time></trkpt><trkpt lat="42.326027522275076" lon="13.692788920979554"><ele>1256.0</ele><time>2026-04-19T09:16:21Z</time></trkpt><trkpt lat="42.325996732484406" lon="13.692643039461721"><ele>1257.1666666666667</ele><time>2026-04-19T09:16:22Z</time></trkpt><trkpt lat="42.32598880086571" lon="13.692499153168594"><ele>1258.3333333333335</ele><time>2026-04-19T09:16:23Z</time></trkpt><trkpt lat="42.32597564818553" lon="13.692366505137436"><ele>1259.5</ele><time>2026-04-19T09:16:24Z</time></trkpt><trkpt lat="42.32596254196844" lon="13.6922664908094"><ele>1260.6666666666667</ele><time>2026-04-19T09:16:25Z</time></trkpt><trkpt lat="42.32592379461074" lon="13.692195462782683"><ele>1261.8333333333333</ele><time>2026-04-19T09:16:26Z</time></trkpt><trkpt lat="42.32582719197852" lon="13.692234543008354"><ele>1263.0</ele><time>2026-04-19T09:16:27Z</time></trkpt><trkpt lat="42.32579462797247" lon="13.692400438663865"><ele>1263.0</ele><time>2026-04-19T09:16:29Z</time></trkpt><trkpt lat="42.32582256136612" lon="13.692526570110884"><ele>1263.0</ele><time>2026-04-19T09:16:30Z</time></trkpt><trkpt lat="42.32585398301086" lon="13.692716458762158"><ele>1263.0</ele><time>2026-04-19T09:16:31Z</time></trkpt><trkpt lat="42.3258893352988" lon="13.692943578956443"><ele>1263.0</ele><time>2026-04-19T09:16:32Z</time></trkpt><trkpt lat="42.32591928003491" lon="13.693190221141652"><ele>1260.6666666666667</ele><time>2026-04-19T09:16:33Z</time></trkpt><trkpt lat="42.325948443690436" lon="13.693441133726088"><ele>1258.3333333333335</ele><time>2026-04-19T09:16:34Z</time></trkpt><trkpt lat="42.32597547600026" lon="13.69367975804075"><ele>1256.0</ele><time>2026-04-19T09:16:35Z</time></trkpt><trkpt lat="42.326001635002285" lon="13.693903363312028"><ele>1253.75</ele><time>2026-04-19T09:16:36Z</time></trkpt><trkpt lat="42.32604099764131" lon="13.694097639785602"><ele>1251.5</ele><time>2026-04-19T09:16:37Z</time></trkpt><trkpt lat="42.32606478533062" lon="13.694284505983203"><ele>1249.25</ele><time>2026-04-19T09:16:38Z</time></trkpt><trkpt lat="42.326104646935875" lon="13.694472325892352"><ele>1247.0</ele><time>2026-04-19T09:16:39Z</time></trkpt><trkpt lat="42.32614313262669" lon="13.694646592038785"><ele>1244.25</ele><time>2026-04-19T09:16:40Z</time></trkpt><trkpt lat="42.32617986246873" lon="13.694815414831815"><ele>1241.5</ele><time>2026-04-19T09:16:41Z</time></trkpt><trkpt lat="42.326221061663006" lon="13.694972022134705"><ele>1238.75</ele><time>2026-04-19T09:16:42Z</time></trkpt><trkpt lat="42.32624996164849" lon="13.695135918493666"><ele>1236.0</ele><time>2026-04-19T09:16:43Z</time></trkpt><trkpt lat="42.32629467187258" lon="13.695276159616135"><ele>1233.2</ele><time>2026-04-19T09:16:44Z</time></trkpt><trkpt lat="42.32634357556133" lon="13.695412824609685"><ele>1230.3999999999999</ele><time>2026-04-19T09:16:45Z</time></trkpt><trkpt lat="42.32639042176752" lon="13.69554373973268"><ele>1227.6</ele><time>2026-04-19T09:16:46Z</time></trkpt><trkpt lat="42.326450442030236" lon="13.69565981673062"><ele>1224.8</ele><time>2026-04-19T09:16:47Z</time></trkpt><trkpt lat="42.32648650418078" lon="13.695785926161568"><ele>1222.0</ele><time>2026-04-19T09:16:48Z</time></trkpt><trkpt lat="42.326508250324295" lon="13.695910429975404"><ele>1229.25</ele><time>2026-04-19T09:16:49Z</time></trkpt><trkpt lat="42.32652998240165" lon="13.696031867159354"><ele>1236.5</ele><time>2026-04-19T09:16:50Z</time></trkpt><trkpt lat="42.3265388509439" lon="13.696154064782307"><ele>1243.75</ele><time>2026-04-19T09:16:51Z</time></trkpt><trkpt lat="42.326544720139175" lon="13.696309949964215"><ele>1251.0</ele><time>2026-04-19T09:16:52Z</time></trkpt><trkpt lat="42.32655935332521" lon="13.69651903753904"><ele>1251.0</ele><time>2026-04-19T09:16:53Z</time></trkpt><trkpt lat="42.32656469354556" lon="13.696728663051703"><ele>1251.0</ele><time>2026-04-19T09:16:54Z</time></trkpt><trkpt lat="42.32657822774802" lon="13.69693296729991"><ele>1251.0</ele><time>2026-04-19T09:16:55Z</time></trkpt><trkpt lat="42.326604505557135" lon="13.697119476122714"><ele>1251.0</ele><time>2026-04-19T09:16:56Z</time></trkpt><trkpt lat="42.326640477736454" lon="13.697292849609374"><ele>1248.25</ele><time>2026-04-19T09:16:57Z</time></trkpt><trkpt lat="42.326674198185046" lon="13.697458520062241"><ele>1245.5</ele><time>2026-04-19T09:16:58Z</time></trkpt><trkpt lat="42.32670577791592" lon="13.697618793347713"><ele>1242.75</ele><time>2026-04-19T09:16:59Z</time></trkpt><trkpt lat="42.32674078230407" lon="13.697783309120858"><ele>1240.0</ele><time>2026-04-19T09:17:00Z</time></trkpt><trkpt lat="42.32678068650601" lon="13.697962283930966"><ele>1237.0</ele><time>2026-04-19T09:17:01Z</time></trkpt><trkpt lat="42.32681935027476" lon="13.698145176980761"><ele>1234.0</ele><time>2026-04-19T09:17:02Z</time></trkpt><trkpt lat="42.32685378591678" lon="13.69831774811251"><ele>1231.0</ele><time>2026-04-19T09:17:03Z</time></trkpt><trkpt lat="42.326893444656285" lon="13.698478482130447"><ele>1228.0</ele><time>2026-04-19T09:17:04Z</time></trkpt><trkpt lat="42.32694108722636" lon="13.698628665386277"><ele>1225.8</ele><time>2026-04-19T09:17:05Z</time></trkpt><trkpt lat="42.32698656607124" lon="13.698774316626375"><ele>1223.6</ele><time>2026-04-19T09:17:06Z</time></trkpt><trkpt lat="42.32703788754583" lon="13.69890869784398"><ele>1221.4</ele><time>2026-04-19T09:17:07Z</time></trkpt><trkpt lat="42.327089124903345" lon="13.699038820830616"><ele>1219.2</ele><time>2026-04-19T09:17:08Z</time></trkpt><trkpt lat="42.327124092293424" lon="13.699167133378792"><ele>1217.0</ele><time>2026-04-19T09:17:09Z</time></trkpt><trkpt lat="42.32716623860596" lon="13.699268049294226"><ele>1217.0</ele><time>2026-04-19T09:17:10Z</time></trkpt><trkpt lat="42.32718546846906" lon="13.699359826835336"><ele>1217.0</ele><time>2026-04-19T09:17:13Z</time></trkpt><trkpt lat="42.327239326677855" lon="13.69948374857015"><ele>1217.0</ele><time>2026-04-19T09:17:21Z</time></trkpt><trkpt lat="42.32728655825577" lon="13.699618823459687"><ele>1217.0</ele><time>2026-04-19T09:17:22Z</time></trkpt><trkpt lat="42.32734509117224" lon="13.699754932087506"><ele>1217.0</ele><time>2026-04-19T09:17:23Z</time></trkpt><trkpt lat="42.327397104989984" lon="13.699905162180313"><ele>1217.4</ele><time>2026-04-19T09:17:24Z</time></trkpt><trkpt lat="42.327447536837795" lon="13.700048775260806"><ele>1217.8000000000002</ele><time>2026-04-19T09:17:25Z</time></trkpt><trkpt lat="42.3274963011947" lon="13.70017786366606"><ele>1218.2</ele><time>2026-04-19T09:17:26Z</time></trkpt><trkpt lat="42.32754373706802" lon="13.700299439728465"><ele>1218.6000000000001</ele><time>2026-04-19T09:17:27Z</time></trkpt><trkpt lat="42.32759322639192" lon="13.70041256804318"><ele>1219.0</ele><time>2026-04-19T09:17:28Z</time></trkpt><trkpt lat="42.32764235322969" lon="13.700521801013153"><ele>1219.0</ele><time>2026-04-19T09:17:29Z</time></trkpt><trkpt lat="42.32769513580821" lon="13.700655601924066"><ele>1219.0</ele><time>2026-04-19T09:17:30Z</time></trkpt><trkpt lat="42.32774988000499" lon="13.700806642030225"><ele>1219.0</ele><time>2026-04-19T09:17:31Z</time></trkpt><trkpt lat="42.327798835353825" lon="13.700961409340778"><ele>1219.0</ele><time>2026-04-19T09:17:32Z</time></trkpt><trkpt lat="42.32783419753676" lon="13.701113905454102"><ele>1217.75</ele><time>2026-04-19T09:17:33Z</time></trkpt><trkpt lat="42.32786522591765" lon="13.7014001013685"><ele>1216.5</ele><time>2026-04-19T09:17:35Z</time></trkpt><trkpt lat="42.32787335397498" lon="13.70153111289033"><ele>1215.25</ele><time>2026-04-19T09:17:36Z</time></trkpt><trkpt lat="42.32787562854627" lon="13.701659018558276"><ele>1214.0</ele><time>2026-04-19T09:17:37Z</time></trkpt><trkpt lat="42.327864592766446" lon="13.70177294446242"><ele>1214.0</ele><time>2026-04-19T09:17:38Z</time></trkpt><trkpt lat="42.327855497263336" lon="13.701894869184791"><ele>1214.0</ele><time>2026-04-19T09:17:39Z</time></trkpt><trkpt lat="42.32784326566366" lon="13.702012649738661"><ele>1214.0</ele><time>2026-04-19T09:17:40Z</time></trkpt><trkpt lat="42.327816362238494" lon="13.702121932506834"><ele>1214.0</ele><time>2026-04-19T09:17:41Z</time></trkpt><trkpt lat="42.32781611704258" lon="13.702230601960656"><ele>1214.0</ele><time>2026-04-19T09:17:42Z</time></trkpt><trkpt lat="42.327771336137246" lon="13.702365869661174"><ele>1214.0</ele><time>2026-04-19T09:17:44Z</time></trkpt><trkpt lat="42.32767272775421" lon="13.702385130261435"><ele>1214.0</ele><time>2026-04-19T09:17:46Z</time></trkpt><trkpt lat="42.32758268943976" lon="13.7023860850803"><ele>1214.0</ele><time>2026-04-19T09:17:47Z</time></trkpt><trkpt lat="42.32747297834034" lon="13.702376189498578"><ele>1214.0</ele><time>2026-04-19T09:17:48Z</time></trkpt><trkpt lat="42.327343034435174" lon="13.702352536798838"><ele>1214.0</ele><time>2026-04-19T09:17:48.999Z</time></trkpt><trkpt lat="42.327202234766716" lon="13.702288798182122"><ele>1214.0</ele><time>2026-04-19T09:17:49.999Z</time></trkpt><trkpt lat="42.32703835238011" lon="13.70223418399966"><ele>1214.0</ele><time>2026-04-19T09:17:50.999Z</time></trkpt><trkpt lat="42.326876703827736" lon="13.702179608178854"><ele>1214.0</ele><time>2026-04-19T09:17:51.999Z</time></trkpt><trkpt lat="42.32672980227287" lon="13.702148582742849"><ele>1214.0</ele><time>2026-04-19T09:17:52.999Z</time></trkpt><trkpt lat="42.32660501520008" lon="13.702102458671307"><ele>1214.0</ele><time>2026-04-19T09:17:53.999Z</time></trkpt><trkpt lat="42.326496193372684" lon="13.70205543665312"><ele>1214.0</ele><time>2026-04-19T09:17:54.999Z</time></trkpt><trkpt lat="42.326421627517405" lon="13.701944449301049"><ele>1214.0</ele><time>2026-04-19T09:17:55.999Z</time></trkpt><trkpt lat="42.32633347051843" lon="13.701814650041527"><ele>1210.6666666666667</ele><time>2026-04-19T09:17:56.999Z</time></trkpt><trkpt lat="42.32623497026874" lon="13.701677121395615"><ele>1207.3333333333333</ele><time>2026-04-19T09:17:57.999Z</time></trkpt><trkpt lat="42.3261146136031" lon="13.701540488713933"><ele>1204.0</ele><time>2026-04-19T09:17:58.999Z</time></trkpt><trkpt lat="42.32600455162435" lon="13.701392201897717"><ele>1204.0</ele><time>2026-04-19T09:17:59.999Z</time></trkpt><trkpt lat="42.32592784651505" lon="13.701254814219164"><ele>1204.0</ele><time>2026-04-19T09:18:00.999Z</time></trkpt><trkpt lat="42.32586319012221" lon="13.701152359990424"><ele>1204.0</ele><time>2026-04-19T09:18:01.999Z</time></trkpt><trkpt lat="42.32580841914924" lon="13.701070233343465"><ele>1204.0</ele><time>2026-04-19T09:18:02.999Z</time></trkpt><trkpt lat="42.32578647551559" lon="13.70095356094835"><ele>1204.0</ele><time>2026-04-19T09:18:03.999Z</time></trkpt><trkpt lat="42.32569297857717" lon="13.700861931851962"><ele>1201.75</ele><time>2026-04-19T09:18:04.999Z</time></trkpt><trkpt lat="42.3255910596322" lon="13.70075647049919"><ele>1199.5</ele><time>2026-04-19T09:18:05.999Z</time></trkpt><trkpt lat="42.32547730644637" lon="13.700656985475765"><ele>1197.25</ele><time>2026-04-19T09:18:06.999Z</time></trkpt><trkpt lat="42.325390107329014" lon="13.700555696546541"><ele>1195.0</ele><time>2026-04-19T09:18:07.999Z</time></trkpt><trkpt lat="42.32530665662232" lon="13.700480217341935"><ele>1195.0</ele><time>2026-04-19T09:18:08.999Z</time></trkpt><trkpt lat="42.32524943367446" lon="13.700421591680131"><ele>1195.0</ele><time>2026-04-19T09:18:09.999Z</time></trkpt><trkpt lat="42.32524366299619" lon="13.700296397393059"><ele>1195.0</ele><time>2026-04-19T09:18:12Z</time></trkpt><trkpt lat="42.325298699969345" lon="13.70024687316932"><ele>1195.0</ele><time>2026-04-19T09:18:13Z</time></trkpt><trkpt lat="42.32536875135508" lon="13.70024962526739"><ele>1195.0</ele><time>2026-04-19T09:18:14Z</time></trkpt><trkpt lat="42.325431412952184" lon="13.700273061524285"><ele>1195.0</ele><time>2026-04-19T09:18:15Z</time></trkpt><trkpt lat="42.32549368383667" lon="13.700342401336677"><ele>1195.0</ele><time>2026-04-19T09:18:16Z</time></trkpt><trkpt lat="42.325554349561926" lon="13.700434475354639"><ele>1195.0</ele><time>2026-04-19T09:18:17Z</time></trkpt><trkpt lat="42.32562445196405" lon="13.700527625872331"><ele>1195.0</ele><time>2026-04-19T09:18:18Z</time></trkpt><trkpt lat="42.32569896205327" lon="13.700603244008116"><ele>1195.0</ele><time>2026-04-19T09:18:19Z</time></trkpt><trkpt lat="42.325771911839205" lon="13.700632125714064"><ele>1195.0</ele><time>2026-04-19T09:18:20Z</time></trkpt><trkpt lat="42.32583875242209" lon="13.700603352241743"><ele>1195.0</ele><time>2026-04-19T09:18:21Z</time></trkpt><trkpt lat="42.32588170944489" lon="13.700529047926471"><ele>1195.0</ele><time>2026-04-19T09:18:22Z</time></trkpt><trkpt lat="42.32589557122656" lon="13.700427965813756"><ele>1195.0</ele><time>2026-04-19T09:18:23Z</time></trkpt><trkpt lat="42.32582227940293" lon="13.700315730192646"><ele>1195.0</ele><time>2026-04-19T09:18:24Z</time></trkpt><trkpt lat="42.32573442839157" lon="13.70025994640151"><ele>1195.0</ele><time>2026-04-19T09:18:25Z</time></trkpt><trkpt lat="42.32563047924261" lon="13.70015733524126"><ele>1195.0</ele><time>2026-04-19T09:18:26Z</time></trkpt><trkpt lat="42.3255508009727" lon="13.700071782081453"><ele>1195.0</ele><time>2026-04-19T09:18:27Z</time></trkpt><trkpt lat="42.325461964678254" lon="13.699977412778921"><ele>1193.0</ele><time>2026-04-19T09:18:28Z</time></trkpt><trkpt lat="42.325373986500594" lon="13.699887516826923"><ele>1191.0</ele><time>2026-04-19T09:18:29Z</time></trkpt><trkpt lat="42.32528010803705" lon="13.69979399486558"><ele>1189.0</ele><time>2026-04-19T09:18:30Z</time></trkpt><trkpt lat="42.325191746741446" lon="13.699705487313741"><ele>1187.0</ele><time>2026-04-19T09:18:31Z</time></trkpt><trkpt lat="42.32510612866654" lon="13.699644185999931"><ele>1185.0</ele><time>2026-04-19T09:18:32Z</time></trkpt><trkpt lat="42.32502139438498" lon="13.699550334781927"><ele>1185.0</ele><time>2026-04-19T09:18:33Z</time></trkpt><trkpt lat="42.324932552978346" lon="13.699464949596507"><ele>1185.0</ele><time>2026-04-19T09:18:34Z</time></trkpt><trkpt lat="42.32483745164079" lon="13.699389093720459"><ele>1185.0</ele><time>2026-04-19T09:18:35Z</time></trkpt><trkpt lat="42.32474062895835" lon="13.699322405359403"><ele>1185.0</ele><time>2026-04-19T09:18:36Z</time></trkpt><trkpt lat="42.32464697378698" lon="13.699247926195639"><ele>1185.0</ele><time>2026-04-19T09:18:37Z</time></trkpt><trkpt lat="42.32454555529033" lon="13.699182908281"><ele>1182.2</ele><time>2026-04-19T09:18:38Z</time></trkpt><trkpt lat="42.32444923887741" lon="13.699118501088266"><ele>1179.4</ele><time>2026-04-19T09:18:39Z</time></trkpt><trkpt lat="42.32436252216692" lon="13.699056021298317"><ele>1176.6</ele><time>2026-04-19T09:18:40Z</time></trkpt><trkpt lat="42.324282812439115" lon="13.69898194173969"><ele>1173.8</ele><time>2026-04-19T09:18:41Z</time></trkpt><trkpt lat="42.324228263050685" lon="13.698882338774688"><ele>1171.0</ele><time>2026-04-19T09:18:42Z</time></trkpt><trkpt lat="42.32418197705502" lon="13.698789695864557"><ele>1171.0</ele><time>2026-04-19T09:18:43Z</time></trkpt><trkpt lat="42.324136358280704" lon="13.698692252699466"><ele>1171.0</ele><time>2026-04-19T09:18:44Z</time></trkpt><trkpt lat="42.324074218201545" lon="13.69859485255157"><ele>1171.0</ele><time>2026-04-19T09:18:45Z</time></trkpt><trkpt lat="42.32402216870328" lon="13.698489638528164"><ele>1171.0</ele><time>2026-04-19T09:18:46Z</time></trkpt><trkpt lat="42.32396462777838" lon="13.698385220757661"><ele>1171.0</ele><time>2026-04-19T09:18:47Z</time></trkpt><trkpt lat="42.32389687483955" lon="13.698287242580333"><ele>1170.6</ele><time>2026-04-19T09:18:48Z</time></trkpt><trkpt lat="42.3238266708657" lon="13.69818876824481"><ele>1170.1999999999998</ele><time>2026-04-19T09:18:49Z</time></trkpt><trkpt lat="42.32375564095794" lon="13.698090457223682"><ele>1169.8000000000002</ele><time>2026-04-19T09:18:50Z</time></trkpt><trkpt lat="42.32369173786924" lon="13.697991106168036"><ele>1169.4</ele><time>2026-04-19T09:18:51Z</time></trkpt><trkpt lat="42.32362857262897" lon="13.697903150203315"><ele>1169.0</ele><time>2026-04-19T09:18:52Z</time></trkpt><trkpt lat="42.32356537667764" lon="13.697826161389758"><ele>1166.2</ele><time>2026-04-19T09:18:53Z</time></trkpt><trkpt lat="42.32349717076421" lon="13.697747326373797"><ele>1163.4</ele><time>2026-04-19T09:18:54Z</time></trkpt><trkpt lat="42.32342448061583" lon="13.697664181713257"><ele>1160.6</ele><time>2026-04-19T09:18:55Z</time></trkpt><trkpt lat="42.32333227735828" lon="13.697560245325931"><ele>1157.8</ele><time>2026-04-19T09:18:56Z</time></trkpt><trkpt lat="42.32323972572179" lon="13.697470538099328"><ele>1155.0</ele><time>2026-04-19T09:18:57Z</time></trkpt><trkpt lat="42.3231389850279" lon="13.697385783115505"><ele>1155.75</ele><time>2026-04-19T09:18:58Z</time></trkpt><trkpt lat="42.32303955090388" lon="13.697304154594768"><ele>1156.5</ele><time>2026-04-19T09:18:59Z</time></trkpt><trkpt lat="42.3229310123376" lon="13.697219278397267"><ele>1157.25</ele><time>2026-04-19T09:19:00Z</time></trkpt><trkpt lat="42.32282168589559" lon="13.697128978130648"><ele>1158.0</ele><time>2026-04-19T09:19:01Z</time></trkpt><trkpt lat="42.32271888031959" lon="13.697039502741339"><ele>1158.0</ele><time>2026-04-19T09:19:02Z</time></trkpt><trkpt lat="42.32262010038459" lon="13.696952084089578"><ele>1158.0</ele><time>2026-04-19T09:19:03Z</time></trkpt><trkpt lat="42.32252425212234" lon="13.696869664328323"><ele>1158.0</ele><time>2026-04-19T09:19:04Z</time></trkpt><trkpt lat="42.32242446915747" lon="13.696801083548715"><ele>1158.0</ele><time>2026-04-19T09:19:05Z</time></trkpt><trkpt lat="42.32232575114319" lon="13.696740775510564"><ele>1154.6</ele><time>2026-04-19T09:19:06Z</time></trkpt><trkpt lat="42.32222504499398" lon="13.69669203943188"><ele>1151.1999999999998</ele><time>2026-04-19T09:19:07Z</time></trkpt><trkpt lat="42.322123972024315" lon="13.696656707643196"><ele>1147.8</ele><time>2026-04-19T09:19:08Z</time></trkpt><trkpt lat="42.32202518717981" lon="13.696632204749744"><ele>1144.3999999999999</ele><time>2026-04-19T09:19:09Z</time></trkpt><trkpt lat="42.32192820139483" lon="13.696607895638214"><ele>1141.0</ele><time>2026-04-19T09:19:10Z</time></trkpt><trkpt lat="42.321831770424524" lon="13.696578406063322"><ele>1141.0</ele><time>2026-04-19T09:19:11Z</time></trkpt><trkpt lat="42.32173841851093" lon="13.696552226621133"><ele>1141.0</ele><time>2026-04-19T09:19:12Z</time></trkpt><trkpt lat="42.321646451584364" lon="13.696529119100834"><ele>1141.0</ele><time>2026-04-19T09:19:13Z</time></trkpt><trkpt lat="42.321556174375225" lon="13.696503428749358"><ele>1141.0</ele><time>2026-04-19T09:19:14Z</time></trkpt><trkpt lat="42.32147183903453" lon="13.696477340539488"><ele>1141.0</ele><time>2026-04-19T09:19:15Z</time></trkpt><trkpt lat="42.32138476259067" lon="13.69645770696531"><ele>1140.0</ele><time>2026-04-19T09:19:16Z</time></trkpt><trkpt lat="42.32131006052898" lon="13.696455855559512"><ele>1139.0</ele><time>2026-04-19T09:19:17Z</time></trkpt><trkpt lat="42.321212448942525" lon="13.69643596551262"><ele>1138.0</ele><time>2026-04-19T09:19:18Z</time></trkpt><trkpt lat="42.32112864284792" lon="13.696429224208702"><ele>1137.0</ele><time>2026-04-19T09:19:19Z</time></trkpt><trkpt lat="42.32104336339199" lon="13.696421115449118"><ele>1136.0</ele><time>2026-04-19T09:19:20Z</time></trkpt><trkpt lat="42.32095720505551" lon="13.696416219588214"><ele>1135.0</ele><time>2026-04-19T09:19:21Z</time></trkpt><trkpt lat="42.32087403590251" lon="13.696423005543506"><ele>1135.0</ele><time>2026-04-19T09:19:22Z</time></trkpt><trkpt lat="42.3207916110979" lon="13.696437299025897"><ele>1135.0</ele><time>2026-04-19T09:19:23Z</time></trkpt><trkpt lat="42.32071206774312" lon="13.696454318737771"><ele>1135.0</ele><time>2026-04-19T09:19:24Z</time></trkpt><trkpt lat="42.32063215663869" lon="13.696485775564028"><ele>1135.0</ele><time>2026-04-19T09:19:25Z</time></trkpt><trkpt lat="42.32055645089641" lon="13.69652856313231"><ele>1135.0</ele><time>2026-04-19T09:19:26Z</time></trkpt><trkpt lat="42.3204841927637" lon="13.696577793053246"><ele>1135.0</ele><time>2026-04-19T09:19:27Z</time></trkpt><trkpt lat="42.320413469207786" lon="13.696636408964718"><ele>1135.0</ele><time>2026-04-19T09:19:28Z</time></trkpt><trkpt lat="42.32034716995826" lon="13.69669648052862"><ele>1135.0</ele><time>2026-04-19T09:19:29Z</time></trkpt><trkpt lat="42.32027917809704" lon="13.696757520010316"><ele>1135.0</ele><time>2026-04-19T09:19:30Z</time></trkpt><trkpt lat="42.320211713529616" lon="13.696816877825347"><ele>1135.0</ele><time>2026-04-19T09:19:31Z</time></trkpt><trkpt lat="42.32014444320658" lon="13.696876589650275"><ele>1135.0</ele><time>2026-04-19T09:19:32Z</time></trkpt><trkpt lat="42.32007872597389" lon="13.696937414330108"><ele>1135.0</ele><time>2026-04-19T09:19:33Z</time></trkpt><trkpt lat="42.32000592555474" lon="13.697011044514275"><ele>1135.0</ele><time>2026-04-19T09:19:34Z</time></trkpt><trkpt lat="42.319928043918026" lon="13.697097083686236"><ele>1135.0</ele><time>2026-04-19T09:19:35Z</time></trkpt><trkpt lat="42.319847967072846" lon="13.697191673293526"><ele>1135.0</ele><time>2026-04-19T09:19:36Z</time></trkpt><trkpt lat="42.31977293848132" lon="13.697284574552421"><ele>1135.0</ele><time>2026-04-19T09:19:37Z</time></trkpt><trkpt lat="42.31970177913417" lon="13.697380638315156"><ele>1135.0</ele><time>2026-04-19T09:19:38Z</time></trkpt><trkpt lat="42.31963539376274" lon="13.697480662056584"><ele>1131.0</ele><time>2026-04-19T09:19:39Z</time></trkpt><trkpt lat="42.319571057631734" lon="13.69757967174107"><ele>1127.0</ele><time>2026-04-19T09:19:40Z</time></trkpt><trkpt lat="42.31950335222918" lon="13.69768357508593"><ele>1123.0</ele><time>2026-04-19T09:19:41Z</time></trkpt><trkpt lat="42.319436369427564" lon="13.697789308907032"><ele>1119.0</ele><time>2026-04-19T09:19:42Z</time></trkpt><trkpt lat="42.319375116871385" lon="13.697893664511941"><ele>1115.0</ele><time>2026-04-19T09:19:43Z</time></trkpt><trkpt lat="42.3193167701362" lon="13.697999982724713"><ele>1115.0</ele><time>2026-04-19T09:19:44Z</time></trkpt><trkpt lat="42.31925674344833" lon="13.698104456098555"><ele>1115.0</ele><time>2026-04-19T09:19:45Z</time></trkpt><trkpt lat="42.31919828192902" lon="13.698207180192238"><ele>1115.0</ele><time>2026-04-19T09:19:46Z</time></trkpt><trkpt lat="42.319143315396914" lon="13.698311222642676"><ele>1115.0</ele><time>2026-04-19T09:19:47Z</time></trkpt><trkpt lat="42.31908423188179" lon="13.698421944934124"><ele>1115.0</ele><time>2026-04-19T09:19:48Z</time></trkpt><trkpt lat="42.31902248143538" lon="13.698535719602317"><ele>1119.5</ele><time>2026-04-19T09:19:49Z</time></trkpt><trkpt lat="42.31895634714303" lon="13.698651152640158"><ele>1124.0</ele><time>2026-04-19T09:19:50Z</time></trkpt><trkpt lat="42.3188899679216" lon="13.698769165375197"><ele>1128.5</ele><time>2026-04-19T09:19:51Z</time></trkpt><trkpt lat="42.31881787680023" lon="13.698894390425975"><ele>1133.0</ele><time>2026-04-19T09:19:52Z</time></trkpt><trkpt lat="42.31873607901652" lon="13.699027603450359"><ele>1127.5</ele><time>2026-04-19T09:19:53Z</time></trkpt><trkpt lat="42.318646857653924" lon="13.699165916787372"><ele>1122.0</ele><time>2026-04-19T09:19:54Z</time></trkpt><trkpt lat="42.31855744043319" lon="13.699302361267597"><ele>1116.5</ele><time>2026-04-19T09:19:55Z</time></trkpt><trkpt lat="42.31847210054686" lon="13.69943062869958"><ele>1111.0</ele><time>2026-04-19T09:19:56Z</time></trkpt><trkpt lat="42.31839946731407" lon="13.699561171145554"><ele>1111.0</ele><time>2026-04-19T09:19:57Z</time></trkpt><trkpt lat="42.31833669940899" lon="13.699693345731673"><ele>1111.0</ele><time>2026-04-19T09:19:58Z</time></trkpt><trkpt lat="42.318277896400026" lon="13.699820097346242"><ele>1111.0</ele><time>2026-04-19T09:19:59Z</time></trkpt><trkpt lat="42.31821565756666" lon="13.699944159121529"><ele>1111.0</ele><time>2026-04-19T09:20:00Z</time></trkpt><trkpt lat="42.318156833707185" lon="13.700064394407425"><ele>1111.0</ele><time>2026-04-19T09:20:01Z</time></trkpt><trkpt lat="42.31810222810275" lon="13.700184731574122"><ele>1106.0</ele><time>2026-04-19T09:20:02Z</time></trkpt><trkpt lat="42.318046015339135" lon="13.700299382728728"><ele>1101.0</ele><time>2026-04-19T09:20:03Z</time></trkpt><trkpt lat="42.317982324021365" lon="13.700402840591726"><ele>1096.0</ele><time>2026-04-19T09:20:04Z</time></trkpt><trkpt lat="42.317915917052424" lon="13.700499935239355"><ele>1091.0</ele><time>2026-04-19T09:20:05Z</time></trkpt><trkpt lat="42.31785013374287" lon="13.700602581977096"><ele>1086.0</ele><time>2026-04-19T09:20:06Z</time></trkpt><trkpt lat="42.3177867724152" lon="13.700714358565447"><ele>1086.0</ele><time>2026-04-19T09:20:07Z</time></trkpt><trkpt lat="42.317717375828806" lon="13.700839216212621"><ele>1086.0</ele><time>2026-04-19T09:20:08Z</time></trkpt><trkpt lat="42.31764385718831" lon="13.7009707346714"><ele>1086.0</ele><time>2026-04-19T09:20:09Z</time></trkpt><trkpt lat="42.31756948856581" lon="13.70110740015184"><ele>1086.0</ele><time>2026-04-19T09:20:10Z</time></trkpt><trkpt lat="42.31749501062705" lon="13.701255500998567"><ele>1089.75</ele><time>2026-04-19T09:20:11Z</time></trkpt><trkpt lat="42.31742076209755" lon="13.7014071043445"><ele>1093.5</ele><time>2026-04-19T09:20:12Z</time></trkpt><trkpt lat="42.31734493847848" lon="13.7015573139808"><ele>1097.25</ele><time>2026-04-19T09:20:13Z</time></trkpt><trkpt lat="42.31727536364529" lon="13.701713552811668"><ele>1101.0</ele><time>2026-04-19T09:20:14Z</time></trkpt><trkpt lat="42.31720521508393" lon="13.701885659947171"><ele>1094.0</ele><time>2026-04-19T09:20:15Z</time></trkpt><trkpt lat="42.31713311799844" lon="13.702060363295983"><ele>1087.0</ele><time>2026-04-19T09:20:16Z</time></trkpt><trkpt lat="42.317064558585756" lon="13.702233967222218"><ele>1080.0</ele><time>2026-04-19T09:20:17Z</time></trkpt><trkpt lat="42.31699798756179" lon="13.702390358838615"><ele>1073.0</ele><time>2026-04-19T09:20:18Z</time></trkpt><trkpt lat="42.31693120499352" lon="13.702539330922955"><ele>1073.0</ele><time>2026-04-19T09:20:19Z</time></trkpt><trkpt lat="42.316865750190395" lon="13.70268348017201"><ele>1073.0</ele><time>2026-04-19T09:20:20Z</time></trkpt><trkpt lat="42.31679564678891" lon="13.70282766475237"><ele>1073.0</ele><time>2026-04-19T09:20:21Z</time></trkpt><trkpt lat="42.31672223120174" lon="13.702975128244653"><ele>1073.0</ele><time>2026-04-19T09:20:22Z</time></trkpt><trkpt lat="42.3166480570468" lon="13.703123412551996"><ele>1076.5</ele><time>2026-04-19T09:20:23Z</time></trkpt><trkpt lat="42.31657241185678" lon="13.703275126681557"><ele>1080.0</ele><time>2026-04-19T09:20:24Z</time></trkpt><trkpt lat="42.31649628204276" lon="13.703429870239555"><ele>1083.5</ele><time>2026-04-19T09:20:25Z</time></trkpt><trkpt lat="42.316422721520865" lon="13.703588028860459"><ele>1087.0</ele><time>2026-04-19T09:20:26Z</time></trkpt><trkpt lat="42.31635290245381" lon="13.703739705013144"><ele>1079.75</ele><time>2026-04-19T09:20:27Z</time></trkpt><trkpt lat="42.316285153340644" lon="13.703885886515716"><ele>1072.5</ele><time>2026-04-19T09:20:28Z</time></trkpt><trkpt lat="42.31621706941421" lon="13.704036585601706"><ele>1065.25</ele><time>2026-04-19T09:20:29Z</time></trkpt><trkpt lat="42.316144227285136" lon="13.704193583135075"><ele>1058.0</ele><time>2026-04-19T09:20:30Z</time></trkpt><trkpt lat="42.316073532325326" lon="13.704349633835504"><ele>1061.25</ele><time>2026-04-19T09:20:31Z</time></trkpt><trkpt lat="42.31600810612671" lon="13.704503833506251"><ele>1064.5</ele><time>2026-04-19T09:20:32Z</time></trkpt><trkpt lat="42.315941048435924" lon="13.704657913050472"><ele>1067.75</ele><time>2026-04-19T09:20:33Z</time></trkpt><trkpt lat="42.31587346710906" lon="13.70481536284388"><ele>1071.0</ele><time>2026-04-19T09:20:34Z</time></trkpt><trkpt lat="42.31580466106783" lon="13.704969803744056"><ele>1071.0</ele><time>2026-04-19T09:20:35Z</time></trkpt><trkpt lat="42.315729114650516" lon="13.705136345864084"><ele>1071.0</ele><time>2026-04-19T09:20:36Z</time></trkpt><trkpt lat="42.31564776369632" lon="13.705314439955592"><ele>1071.0</ele><time>2026-04-19T09:20:37Z</time></trkpt><trkpt lat="42.315571422978174" lon="13.705502283293152"><ele>1065.25</ele><time>2026-04-19T09:20:38Z</time></trkpt><trkpt lat="42.31550414680964" lon="13.70568538046007"><ele>1059.5</ele><time>2026-04-19T09:20:39Z</time></trkpt><trkpt lat="42.315445783233464" lon="13.705870809501686"><ele>1053.75</ele><time>2026-04-19T09:20:40Z</time></trkpt><trkpt lat="42.315394112305945" lon="13.706051901262382"><ele>1048.0</ele><time>2026-04-19T09:20:41Z</time></trkpt><trkpt lat="42.315354337257716" lon="13.706230925300783"><ele>1048.0</ele><time>2026-04-19T09:20:42Z</time></trkpt><trkpt lat="42.315318724336784" lon="13.706409250760291"><ele>1048.0</ele><time>2026-04-19T09:20:43Z</time></trkpt><trkpt lat="42.315290667741245" lon="13.706583180265941"><ele>1048.0</ele><time>2026-04-19T09:20:44Z</time></trkpt><trkpt lat="42.31527215356407" lon="13.706749865383864"><ele>1048.0</ele><time>2026-04-19T09:20:45Z</time></trkpt><trkpt lat="42.31526541860103" lon="13.706912270361364"><ele>1048.2</ele><time>2026-04-19T09:20:46Z</time></trkpt><trkpt lat="42.31524229477897" lon="13.707066776124194"><ele>1048.4</ele><time>2026-04-19T09:20:47Z</time></trkpt><trkpt lat="42.31523029231783" lon="13.70720327536639"><ele>1048.6000000000001</ele><time>2026-04-19T09:20:48Z</time></trkpt><trkpt lat="42.31521620300814" lon="13.707316350389508"><ele>1048.8</ele><time>2026-04-19T09:20:49Z</time></trkpt><trkpt lat="42.31514895405272" lon="13.707412565800366"><ele>1049.0</ele><time>2026-04-19T09:20:51Z</time></trkpt><trkpt lat="42.31506124904932" lon="13.707284474442929"><ele>1049.0</ele><time>2026-04-19T09:20:53Z</time></trkpt><trkpt lat="42.315087612805264" lon="13.70715372707265"><ele>1049.0</ele><time>2026-04-19T09:20:54Z</time></trkpt><trkpt lat="42.31509493907698" lon="13.7069670537296"><ele>1049.0</ele><time>2026-04-19T09:20:55Z</time></trkpt><trkpt lat="42.31508709379521" lon="13.706747489187197"><ele>1049.0</ele><time>2026-04-19T09:20:56Z</time></trkpt><trkpt lat="42.3151029424913" lon="13.706494742845184"><ele>1048.6666666666667</ele><time>2026-04-19T09:20:57Z</time></trkpt><trkpt lat="42.31511140433288" lon="13.70620526267453"><ele>1048.3333333333333</ele><time>2026-04-19T09:20:58Z</time></trkpt><trkpt lat="42.31512706422728" lon="13.705902702487526"><ele>1048.0</ele><time>2026-04-19T09:20:59Z</time></trkpt><trkpt lat="42.315145823681696" lon="13.705609034212811"><ele>1046.6666666666665</ele><time>2026-04-19T09:21:00Z</time></trkpt><trkpt lat="42.315188631587134" lon="13.705368937082326"><ele>1045.3333333333333</ele><time>2026-04-19T09:21:01Z</time></trkpt><trkpt lat="42.31523248919546" lon="13.705122603521506"><ele>1044.0</ele><time>2026-04-19T09:21:02Z</time></trkpt><trkpt lat="42.31529461016279" lon="13.704859330245352"><ele>1039.5</ele><time>2026-04-19T09:21:03Z</time></trkpt><trkpt lat="42.315369772089184" lon="13.704577724369244"><ele>1035.0</ele><time>2026-04-19T09:21:04Z</time></trkpt><trkpt lat="42.315448318999344" lon="13.704284390542632"><ele>1029.5</ele><time>2026-04-19T09:21:05Z</time></trkpt><trkpt lat="42.31552921320086" lon="13.703984122010866"><ele>1024.0</ele><time>2026-04-19T09:21:06Z</time></trkpt><trkpt lat="42.315608624094324" lon="13.703689544066117"><ele>1036.0</ele><time>2026-04-19T09:21:07Z</time></trkpt><trkpt lat="42.315687382119386" lon="13.703392469108739"><ele>1048.0</ele><time>2026-04-19T09:21:08Z</time></trkpt><trkpt lat="42.31576520019064" lon="13.703097992459975"><ele>1048.0</ele><time>2026-04-19T09:21:09Z</time></trkpt><trkpt lat="42.31584355897783" lon="13.70280146967432"><ele>1048.0</ele><time>2026-04-19T09:21:10Z</time></trkpt><trkpt lat="42.31592645221109" lon="13.702487940878182"><ele>1042.5</ele><time>2026-04-19T09:21:11Z</time></trkpt><trkpt lat="42.31600964018283" lon="13.702174503090319"><ele>1037.0</ele><time>2026-04-19T09:21:12Z</time></trkpt><trkpt lat="42.31609228753796" lon="13.701861712576854"><ele>1028.5</ele><time>2026-04-19T09:21:13Z</time></trkpt><trkpt lat="42.31617381703383" lon="13.701550449175848"><ele>1020.0</ele><time>2026-04-19T09:21:14Z</time></trkpt><trkpt lat="42.316236445086595" lon="13.701242832744192"><ele>1016.3333333333333</ele><time>2026-04-19T09:21:15Z</time></trkpt><trkpt lat="42.316310904738295" lon="13.70095984830413"><ele>1012.6666666666666</ele><time>2026-04-19T09:21:16Z</time></trkpt><trkpt lat="42.3163806804818" lon="13.70069288039191"><ele>1009.0</ele><time>2026-04-19T09:21:17Z</time></trkpt><trkpt lat="42.31644555518799" lon="13.700460560981298"><ele>1016.3333333333333</ele><time>2026-04-19T09:21:18Z</time></trkpt><trkpt lat="42.31651921709278" lon="13.700264551257424"><ele>1023.6666666666667</ele><time>2026-04-19T09:21:19Z</time></trkpt><trkpt lat="42.31660346284428" lon="13.700079364102091"><ele>1031.0</ele><time>2026-04-19T09:21:20Z</time></trkpt><trkpt lat="42.31668127630058" lon="13.699922303291771"><ele>1031.0</ele><time>2026-04-19T09:21:21Z</time></trkpt><trkpt lat="42.31673797355958" lon="13.699807474323922"><ele>1031.0</ele><time>2026-04-19T09:21:22Z</time></trkpt><trkpt lat="42.31676007783195" lon="13.699703635323132"><ele>1031.0</ele><time>2026-04-19T09:21:23Z</time></trkpt><trkpt lat="42.31673077804532" lon="13.699621490118789"><ele>1031.0</ele><time>2026-04-19T09:21:24Z</time></trkpt><trkpt lat="42.31658950985987" lon="13.699602389453934"><ele>1031.0</ele><time>2026-04-19T09:21:26Z</time></trkpt><trkpt lat="42.316525028685334" lon="13.699684530961125"><ele>1031.0</ele><time>2026-04-19T09:21:27Z</time></trkpt><trkpt lat="42.31646665451387" lon="13.699828504986831"><ele>1031.0</ele><time>2026-04-19T09:21:28Z</time></trkpt><trkpt lat="42.316403689455164" lon="13.700010983696263"><ele>1031.0</ele><time>2026-04-19T09:21:29Z</time></trkpt><trkpt lat="42.31632244627921" lon="13.700216436972148"><ele>1031.0</ele><time>2026-04-19T09:21:30Z</time></trkpt><trkpt lat="42.31622399045565" lon="13.700448241340547"><ele>1027.3333333333335</ele><time>2026-04-19T09:21:31Z</time></trkpt><trkpt lat="42.31613015464434" lon="13.70068625084078"><ele>1023.6666666666667</ele><time>2026-04-19T09:21:32Z</time></trkpt><trkpt lat="42.316041923520686" lon="13.700900523768786"><ele>1020.0</ele><time>2026-04-19T09:21:33Z</time></trkpt><trkpt lat="42.31595736100983" lon="13.70109538742022"><ele>1020.0</ele><time>2026-04-19T09:21:34Z</time></trkpt><trkpt lat="42.31587241066924" lon="13.701277659658361"><ele>1020.0</ele><time>2026-04-19T09:21:35Z</time></trkpt><trkpt lat="42.315786212148275" lon="13.701452944878099"><ele>1020.0</ele><time>2026-04-19T09:21:36Z</time></trkpt><trkpt lat="42.31570504732666" lon="13.70162617760169"><ele>1020.0</ele><time>2026-04-19T09:21:37Z</time></trkpt><trkpt lat="42.31562658833714" lon="13.701784786446337"><ele>1020.0</ele><time>2026-04-19T09:21:38Z</time></trkpt><trkpt lat="42.31554725445615" lon="13.701936979093182"><ele>1020.0</ele><time>2026-04-19T09:21:39Z</time></trkpt><trkpt lat="42.315462966007516" lon="13.7020942657748"><ele>1020.0</ele><time>2026-04-19T09:21:40Z</time></trkpt><trkpt lat="42.31538644429745" lon="13.702242105925222"><ele>1018.5</ele><time>2026-04-19T09:21:41Z</time></trkpt><trkpt lat="42.3153118865928" lon="13.702377823573004"><ele>1017.0</ele><time>2026-04-19T09:21:42Z</time></trkpt><trkpt lat="42.315237571309886" lon="13.70250900730702"><ele>1015.5</ele><time>2026-04-19T09:21:43Z</time></trkpt><trkpt lat="42.315164742762775" lon="13.702631608606367"><ele>1014.0</ele><time>2026-04-19T09:21:44Z</time></trkpt><trkpt lat="42.31509553471777" lon="13.702751902218449"><ele>1014.0</ele><time>2026-04-19T09:21:45Z</time></trkpt><trkpt lat="42.31502859374885" lon="13.702871093261978"><ele>1014.0000000000001</ele><time>2026-04-19T09:21:46Z</time></trkpt><trkpt lat="42.31496223761408" lon="13.702984281888323"><ele>1014.0000000000001</ele><time>2026-04-19T09:21:47Z</time></trkpt><trkpt lat="42.31489634033882" lon="13.703091838612178"><ele>1014.0</ele><time>2026-04-19T09:21:48Z</time></trkpt><trkpt lat="42.31483234723054" lon="13.7031977871226"><ele>1014.0</ele><time>2026-04-19T09:21:49Z</time></trkpt><trkpt lat="42.314773714010336" lon="13.703299846270712"><ele>1011.1666666666666</ele><time>2026-04-19T09:21:50Z</time></trkpt><trkpt lat="42.31471979833035" lon="13.70340710926212"><ele>1008.3333333333333</ele><time>2026-04-19T09:21:51Z</time></trkpt><trkpt lat="42.31467267112316" lon="13.70350672795021"><ele>1005.5</ele><time>2026-04-19T09:21:52Z</time></trkpt><trkpt lat="42.314620990463624" lon="13.703602952899566"><ele>1002.6666666666666</ele><time>2026-04-19T09:21:53Z</time></trkpt><trkpt lat="42.31456904737578" lon="13.703695203077938"><ele>999.8333333333333</ele><time>2026-04-19T09:21:54Z</time></trkpt><trkpt lat="42.314520451093244" lon="13.70378113160289"><ele>997.0</ele><time>2026-04-19T09:21:55Z</time></trkpt><trkpt lat="42.31447669374535" lon="13.703870682607294"><ele>996.9999999999999</ele><time>2026-04-19T09:21:56Z</time></trkpt><trkpt lat="42.314441674922755" lon="13.703961931683029"><ele>997.0</ele><time>2026-04-19T09:21:57Z</time></trkpt><trkpt lat="42.31440522396431" lon="13.704051770754491"><ele>996.9999999999999</ele><time>2026-04-19T09:21:58Z</time></trkpt><trkpt lat="42.314362275311005" lon="13.704132247994355"><ele>996.9999999999999</ele><time>2026-04-19T09:21:59Z</time></trkpt><trkpt lat="42.314319376871794" lon="13.7042110955776"><ele>997.0</ele><time>2026-04-19T09:22:00Z</time></trkpt><trkpt lat="42.31427919813166" lon="13.704287902755121"><ele>996.9999999999999</ele><time>2026-04-19T09:22:01Z</time></trkpt><trkpt lat="42.31423751189939" lon="13.704356145783594"><ele>996.9999999999999</ele><time>2026-04-19T09:22:02Z</time></trkpt><trkpt lat="42.31414489287917" lon="13.70440166326135"><ele>997.0</ele><time>2026-04-19T09:22:04Z</time></trkpt><trkpt lat="42.31407741099675" lon="13.704294962042862"><ele>997.0</ele><time>2026-04-19T09:22:06Z</time></trkpt><trkpt lat="42.31413058116524" lon="13.70414664313462"><ele>997.0</ele><time>2026-04-19T09:22:08Z</time></trkpt><trkpt lat="42.314161123940764" lon="13.70405149525031"><ele>997.0</ele><time>2026-04-19T09:22:09Z</time></trkpt><trkpt lat="42.31417982363702" lon="13.703939201133283"><ele>997.0</ele><time>2026-04-19T09:22:10Z</time></trkpt><trkpt lat="42.31422055222698" lon="13.703827357032509"><ele>997.0</ele><time>2026-04-19T09:22:11Z</time></trkpt><trkpt lat="42.31425957013122" lon="13.703716032390947"><ele>997.0</ele><time>2026-04-19T09:22:12Z</time></trkpt><trkpt lat="42.31429769079551" lon="13.70361108425876"><ele>997.0</ele><time>2026-04-19T09:22:13Z</time></trkpt><trkpt lat="42.3143341800443" lon="13.703498783999562"><ele>997.0</ele><time>2026-04-19T09:22:14Z</time></trkpt><trkpt lat="42.31437070510256" lon="13.70337320031099"><ele>997.0</ele><time>2026-04-19T09:22:15Z</time></trkpt><trkpt lat="42.31441012143387" lon="13.703239586022738"><ele>995.6</ele><time>2026-04-19T09:22:16Z</time></trkpt><trkpt lat="42.31445166646409" lon="13.703104277154146"><ele>994.2</ele><time>2026-04-19T09:22:17Z</time></trkpt><trkpt lat="42.31449221848817" lon="13.702971230790522"><ele>992.8</ele><time>2026-04-19T09:22:18Z</time></trkpt><trkpt lat="42.31453847759908" lon="13.702842345769023"><ele>991.4</ele><time>2026-04-19T09:22:19Z</time></trkpt><trkpt lat="42.31458406710488" lon="13.70269054024418"><ele>990.0</ele><time>2026-04-19T09:22:20Z</time></trkpt><trkpt lat="42.31462945876262" lon="13.702551629808202"><ele>989.2</ele><time>2026-04-19T09:22:21Z</time></trkpt><trkpt lat="42.31466892712756" lon="13.70241829698474"><ele>988.4</ele><time>2026-04-19T09:22:22Z</time></trkpt><trkpt lat="42.3147057653506" lon="13.702286688867694"><ele>987.5999999999999</ele><time>2026-04-19T09:22:23Z</time></trkpt><trkpt lat="42.31474412385924" lon="13.702159804036715"><ele>986.8</ele><time>2026-04-19T09:22:24Z</time></trkpt><trkpt lat="42.314794720205235" lon="13.70203539321844"><ele>986.0</ele><time>2026-04-19T09:22:25Z</time></trkpt><trkpt lat="42.31480860007968" lon="13.701898905391012"><ele>986.0</ele><time>2026-04-19T09:22:26Z</time></trkpt><trkpt lat="42.314849359149505" lon="13.701780885470576"><ele>985.9999999999999</ele><time>2026-04-19T09:22:27Z</time></trkpt><trkpt lat="42.31485608161709" lon="13.701659887987562"><ele>985.9999999999999</ele><time>2026-04-19T09:22:28Z</time></trkpt><trkpt lat="42.31488211017412" lon="13.701547547745777"><ele>986.0</ele><time>2026-04-19T09:22:29Z</time></trkpt><trkpt lat="42.31490319941545" lon="13.701436116279789"><ele>986.0</ele><time>2026-04-19T09:22:30Z</time></trkpt><trkpt lat="42.31492718895019" lon="13.701300717700168"><ele>986.0</ele><time>2026-04-19T09:22:31Z</time></trkpt><trkpt lat="42.314958172283276" lon="13.701140008230615"><ele>986.0</ele><time>2026-04-19T09:22:32Z</time></trkpt><trkpt lat="42.314987012110905" lon="13.700976700908873"><ele>986.0</ele><time>2026-04-19T09:22:33Z</time></trkpt><trkpt lat="42.315015254775965" lon="13.700825073885246"><ele>986.0</ele><time>2026-04-19T09:22:34Z</time></trkpt><trkpt lat="42.315042475848074" lon="13.700682113611078"><ele>984.5999999999999</ele><time>2026-04-19T09:22:35Z</time></trkpt><trkpt lat="42.3150700834352" lon="13.700537371440884"><ele>983.1999999999999</ele><time>2026-04-19T09:22:36Z</time></trkpt><trkpt lat="42.31509552033248" lon="13.700391844274828"><ele>981.8000000000001</ele><time>2026-04-19T09:22:37Z</time></trkpt><trkpt lat="42.315121075616915" lon="13.700244708547235"><ele>980.4000000000001</ele><time>2026-04-19T09:22:38Z</time></trkpt><trkpt lat="42.31514836091971" lon="13.700097814619383"><ele>979.0</ele><time>2026-04-19T09:22:39Z</time></trkpt><trkpt lat="42.31517870829346" lon="13.69995105298663"><ele>977.5</ele><time>2026-04-19T09:22:40Z</time></trkpt><trkpt lat="42.31520617767699" lon="13.699805544146491"><ele>976.0</ele><time>2026-04-19T09:22:41Z</time></trkpt><trkpt lat="42.315231477361145" lon="13.699657759130785"><ele>974.5</ele><time>2026-04-19T09:22:42Z</time></trkpt><trkpt lat="42.31527385498894" lon="13.699515204168215"><ele>973.0</ele><time>2026-04-19T09:22:43Z</time></trkpt><trkpt lat="42.315300502754816" lon="13.699366928743245"><ele>971.5</ele><time>2026-04-19T09:22:44Z</time></trkpt><trkpt lat="42.3153195325058" lon="13.69921147037193"><ele>970.0</ele><time>2026-04-19T09:22:45Z</time></trkpt><trkpt lat="42.31531494703715" lon="13.699061013099847"><ele>968.5</ele><time>2026-04-19T09:22:46Z</time></trkpt><trkpt lat="42.315318854539456" lon="13.698909569107077"><ele>967.0</ele><time>2026-04-19T09:22:47Z</time></trkpt><trkpt lat="42.315304214456475" lon="13.698758931234606"><ele>967.0</ele><time>2026-04-19T09:22:48Z</time></trkpt><trkpt lat="42.3152967263206" lon="13.698603309955331"><ele>967.0</ele><time>2026-04-19T09:22:49Z</time></trkpt><trkpt lat="42.31525767429178" lon="13.698453339026475"><ele>967.0</ele><time>2026-04-19T09:22:50Z</time></trkpt><trkpt lat="42.31517840151302" lon="13.69833329964864"><ele>967.0</ele><time>2026-04-19T09:22:51Z</time></trkpt><trkpt lat="42.315102694421476" lon="13.698219442438296"><ele>966.8</ele><time>2026-04-19T09:22:52Z</time></trkpt><trkpt lat="42.31501690733089" lon="13.698123726053923"><ele>966.6</ele><time>2026-04-19T09:22:53Z</time></trkpt><trkpt lat="42.31494294552397" lon="13.698012423576662"><ele>966.3999999999999</ele><time>2026-04-19T09:22:54Z</time></trkpt><trkpt lat="42.31491173084084" lon="13.697865818735135"><ele>966.1999999999999</ele><time>2026-04-19T09:22:55Z</time></trkpt><trkpt lat="42.314903723063736" lon="13.697726002426608"><ele>966.0</ele><time>2026-04-19T09:22:56Z</time></trkpt><trkpt lat="42.31490423658891" lon="13.69757951228074"><ele>966.0</ele><time>2026-04-19T09:22:57Z</time></trkpt><trkpt lat="42.314907061983234" lon="13.697431601431177"><ele>965.9999999999999</ele><time>2026-04-19T09:22:58Z</time></trkpt><trkpt lat="42.31490956347614" lon="13.69728338795605"><ele>965.9999999999999</ele><time>2026-04-19T09:22:59Z</time></trkpt><trkpt lat="42.31490927880047" lon="13.697133302065623"><ele>966.0</ele><time>2026-04-19T09:23:00Z</time></trkpt><trkpt lat="42.314892798806916" lon="13.696985741880628"><ele>966.0</ele><time>2026-04-19T09:23:01Z</time></trkpt><trkpt lat="42.314897661046594" lon="13.69683572375423"><ele>966.0</ele><time>2026-04-19T09:23:02Z</time></trkpt><trkpt lat="42.3149108089345" lon="13.696684999904145"><ele>966.0</ele><time>2026-04-19T09:23:03Z</time></trkpt><trkpt lat="42.31492456450025" lon="13.69653507577139"><ele>966.0</ele><time>2026-04-19T09:23:04Z</time></trkpt><trkpt lat="42.31494217123025" lon="13.696384695124344"><ele>966.0</ele><time>2026-04-19T09:23:05Z</time></trkpt><trkpt lat="42.31496704617014" lon="13.696234592699644"><ele>966.0</ele><time>2026-04-19T09:23:06Z</time></trkpt><trkpt lat="42.31500032559544" lon="13.696088861947304"><ele>965.9999999999999</ele><time>2026-04-19T09:23:07Z</time></trkpt><trkpt lat="42.3150385818563" lon="13.695946321463476"><ele>965.9999999999999</ele><time>2026-04-19T09:23:08Z</time></trkpt><trkpt lat="42.31507218377046" lon="13.695800656228576"><ele>966.0</ele><time>2026-04-19T09:23:09Z</time></trkpt><trkpt lat="42.315101061153065" lon="13.695655808258575"><ele>966.0</ele><time>2026-04-19T09:23:10Z</time></trkpt><trkpt lat="42.31512911149574" lon="13.69550826083557"><ele>966.1999999999999</ele><time>2026-04-19T09:23:11Z</time></trkpt><trkpt lat="42.315156943788374" lon="13.695360587402524"><ele>966.3999999999999</ele><time>2026-04-19T09:23:12Z</time></trkpt><trkpt lat="42.31518340156146" lon="13.695217220691173"><ele>966.6</ele><time>2026-04-19T09:23:13Z</time></trkpt><trkpt lat="42.315203266969625" lon="13.695094593405628"><ele>966.8</ele><time>2026-04-19T09:23:14Z</time></trkpt><trkpt lat="42.31522048629059" lon="13.694985585613743"><ele>967.0</ele><time>2026-04-19T09:23:15Z</time></trkpt><trkpt lat="42.31523489865926" lon="13.69488543168593"><ele>966.6</ele><time>2026-04-19T09:23:16Z</time></trkpt><trkpt lat="42.31524874548818" lon="13.694798926831078"><ele>966.2</ele><time>2026-04-19T09:23:17Z</time></trkpt><trkpt lat="42.31523512329717" lon="13.694647705857134"><ele>965.8</ele><time>2026-04-19T09:23:19Z</time></trkpt><trkpt lat="42.31515095715206" lon="13.694550746354706"><ele>965.4</ele><time>2026-04-19T09:23:21Z</time></trkpt><trkpt lat="42.315055680171966" lon="13.694481024669756"><ele>965.0</ele><time>2026-04-19T09:23:23Z</time></trkpt><trkpt lat="42.314974067704476" lon="13.694418579758494"><ele>965.0</ele><time>2026-04-19T09:23:24Z</time></trkpt><trkpt lat="42.314882698197614" lon="13.694321388115615"><ele>965.0</ele><time>2026-04-19T09:23:25Z</time></trkpt><trkpt lat="42.31479448905407" lon="13.694223525887022"><ele>965.0</ele><time>2026-04-19T09:23:26Z</time></trkpt><trkpt lat="42.31470919819186" lon="13.69409809302508"><ele>965.0</ele><time>2026-04-19T09:23:27Z</time></trkpt><trkpt lat="42.31462980985895" lon="13.693940116985567"><ele>965.3333333333334</ele><time>2026-04-19T09:23:28Z</time></trkpt><trkpt lat="42.31454310921447" lon="13.693767060991489"><ele>965.6666666666667</ele><time>2026-04-19T09:23:29Z</time></trkpt><trkpt lat="42.31443392714387" lon="13.69359463491857"><ele>966.0</ele><time>2026-04-19T09:23:30Z</time></trkpt><trkpt lat="42.314314011266845" lon="13.693404702386315"><ele>966.0</ele><time>2026-04-19T09:23:31Z</time></trkpt><trkpt lat="42.31418274889416" lon="13.693228512928687"><ele>966.0</ele><time>2026-04-19T09:23:32Z</time></trkpt><trkpt lat="42.31404801494322" lon="13.693057290230533"><ele>966.0</ele><time>2026-04-19T09:23:33Z</time></trkpt><trkpt lat="42.31392371053052" lon="13.692904945160826"><ele>967.3333333333333</ele><time>2026-04-19T09:23:34Z</time></trkpt><trkpt lat="42.31381996567142" lon="13.692746030461324"><ele>968.6666666666666</ele><time>2026-04-19T09:23:35Z</time></trkpt><trkpt lat="42.313768856852136" lon="13.692541217820335"><ele>970.0</ele><time>2026-04-19T09:23:36Z</time></trkpt><trkpt lat="42.313721030893994" lon="13.692307399154435"><ele>970.0</ele><time>2026-04-19T09:23:37Z</time></trkpt><trkpt lat="42.313648891470244" lon="13.692047897880057"><ele>970.0</ele><time>2026-04-19T09:23:38Z</time></trkpt><trkpt lat="42.31356745678676" lon="13.691767607944405"><ele>970.0</ele><time>2026-04-19T09:23:39Z</time></trkpt><trkpt lat="42.313467804553134" lon="13.691510990314368"><ele>967.3333333333333</ele><time>2026-04-19T09:23:40Z</time></trkpt><trkpt lat="42.31338295835427" lon="13.691274319522819"><ele>964.6666666666667</ele><time>2026-04-19T09:23:41Z</time></trkpt><trkpt lat="42.31330601774148" lon="13.691047303830633"><ele>962.0</ele><time>2026-04-19T09:23:42Z</time></trkpt><trkpt lat="42.31321340818144" lon="13.69084797754772"><ele>961.3333333333334</ele><time>2026-04-19T09:23:43Z</time></trkpt><trkpt lat="42.31308989946537" lon="13.69069059695551"><ele>960.6666666666667</ele><time>2026-04-19T09:23:44Z</time></trkpt><trkpt lat="42.31294051641126" lon="13.690566680606299"><ele>960.0</ele><time>2026-04-19T09:23:45Z</time></trkpt><trkpt lat="42.31278703320049" lon="13.690493715592462"><ele>960.0</ele><time>2026-04-19T09:23:46Z</time></trkpt><trkpt lat="42.3126438501328" lon="13.69048626471904"><ele>960.0</ele><time>2026-04-19T09:23:47Z</time></trkpt><trkpt lat="42.312493495178316" lon="13.69054120571842"><ele>960.0</ele><time>2026-04-19T09:23:48Z</time></trkpt><trkpt lat="42.31233025111666" lon="13.690655283271655"><ele>965.6666666666667</ele><time>2026-04-19T09:23:49Z</time></trkpt><trkpt lat="42.31215167345812" lon="13.690784119053053"><ele>971.3333333333334</ele><time>2026-04-19T09:23:50Z</time></trkpt><trkpt lat="42.311939485184375" lon="13.690863568907126"><ele>977.0</ele><time>2026-04-19T09:23:51Z</time></trkpt><trkpt lat="42.3117131856156" lon="13.690963003427681"><ele>977.0</ele><time>2026-04-19T09:23:52Z</time></trkpt><trkpt lat="42.31151272704294" lon="13.69105590743328"><ele>977.0</ele><time>2026-04-19T09:23:53Z</time></trkpt><trkpt lat="42.311293460780306" lon="13.691175541685089"><ele>977.0</ele><time>2026-04-19T09:23:54Z</time></trkpt><trkpt lat="42.31108907814871" lon="13.691350402703792"><ele>978.5</ele><time>2026-04-19T09:23:55Z</time></trkpt><trkpt lat="42.31087978840463" lon="13.69155958235078"><ele>980.0</ele><time>2026-04-19T09:23:56Z</time></trkpt><trkpt lat="42.31066381385001" lon="13.691770913976207"><ele>980.5</ele><time>2026-04-19T09:23:57Z</time></trkpt><trkpt lat="42.310467275033375" lon="13.691956790690313"><ele>981.0</ele><time>2026-04-19T09:23:58Z</time></trkpt><trkpt lat="42.31029790282069" lon="13.692139267234435"><ele>981.0</ele><time>2026-04-19T09:23:59Z</time></trkpt><trkpt lat="42.31015042300695" lon="13.69232249996342"><ele>981.0</ele><time>2026-04-19T09:24:00Z</time></trkpt><trkpt lat="42.31002416702524" lon="13.69249757303526"><ele>981.0</ele><time>2026-04-19T09:24:01Z</time></trkpt><trkpt lat="42.30989731265845" lon="13.69264516866346"><ele>981.0</ele><time>2026-04-19T09:24:02Z</time></trkpt><trkpt lat="42.30976256143655" lon="13.692711080780251"><ele>981.0</ele><time>2026-04-19T09:24:03Z</time></trkpt><trkpt lat="42.309643372763304" lon="13.69272613012709"><ele>981.0</ele><time>2026-04-19T09:24:04Z</time></trkpt><trkpt lat="42.30951387573829" lon="13.692685100829975"><ele>981.0</ele><time>2026-04-19T09:24:05Z</time></trkpt><trkpt lat="42.309354044848966" lon="13.6926248760999"><ele>983.6666666666667</ele><time>2026-04-19T09:24:06Z</time></trkpt><trkpt lat="42.30918294667398" lon="13.692564295946722"><ele>986.3333333333334</ele><time>2026-04-19T09:24:07Z</time></trkpt><trkpt lat="42.30905318663876" lon="13.692467442530425"><ele>989.0</ele><time>2026-04-19T09:24:08Z</time></trkpt><trkpt lat="42.30894813267084" lon="13.692364550210959"><ele>986.8000000000001</ele><time>2026-04-19T09:24:09Z</time></trkpt><trkpt lat="42.30889329856924" lon="13.692294972561266"><ele>984.6000000000001</ele><time>2026-04-19T09:24:10Z</time></trkpt><trkpt lat="42.30881811470016" lon="13.692157934093311"><ele>982.4</ele><time>2026-04-19T09:24:12Z</time></trkpt><trkpt lat="42.30879654390735" lon="13.692008345337563"><ele>980.2</ele><time>2026-04-19T09:24:13Z</time></trkpt><trkpt lat="42.308760968433454" lon="13.691854502535211"><ele>978.0</ele><time>2026-04-19T09:24:14Z</time></trkpt><trkpt lat="42.30874922443954" lon="13.691695871740635"><ele>978.0</ele><time>2026-04-19T09:24:15Z</time></trkpt><trkpt lat="42.30871306112035" lon="13.691528788725485"><ele>978.0</ele><time>2026-04-19T09:24:16Z</time></trkpt><trkpt lat="42.308672021675584" lon="13.69134878734462"><ele>978.0</ele><time>2026-04-19T09:24:17Z</time></trkpt><trkpt lat="42.30865800463241" lon="13.691125421312892"><ele>978.0</ele><time>2026-04-19T09:24:18Z</time></trkpt><trkpt lat="42.308621288476104" lon="13.690893238578349"><ele>978.6666666666667</ele><time>2026-04-19T09:24:19Z</time></trkpt><trkpt lat="42.30860379437512" lon="13.690646922462367"><ele>979.3333333333334</ele><time>2026-04-19T09:24:20Z</time></trkpt><trkpt lat="42.3085794954304" lon="13.690373990691223"><ele>980.0</ele><time>2026-04-19T09:24:21Z</time></trkpt><trkpt lat="42.30855889950371" lon="13.690103615381002"><ele>981.0</ele><time>2026-04-19T09:24:22Z</time></trkpt><trkpt lat="42.308532226464195" lon="13.689849283781385"><ele>982.0</ele><time>2026-04-19T09:24:23Z</time></trkpt><trkpt lat="42.308501842625446" lon="13.68961898522932"><ele>983.0</ele><time>2026-04-19T09:24:24Z</time></trkpt><trkpt lat="42.3084905744812" lon="13.689399433992714"><ele>983.0</ele><time>2026-04-19T09:24:25Z</time></trkpt><trkpt lat="42.30848565725786" lon="13.68918291619458"><ele>983.0</ele><time>2026-04-19T09:24:26Z</time></trkpt><trkpt lat="42.30850905238471" lon="13.688932533537812"><ele>983.0</ele><time>2026-04-19T09:24:27Z</time></trkpt><trkpt lat="42.308563464830314" lon="13.688665842727678"><ele>980.0</ele><time>2026-04-19T09:24:28Z</time></trkpt><trkpt lat="42.308642560854906" lon="13.688379989836546"><ele>977.0</ele><time>2026-04-19T09:24:29Z</time></trkpt><trkpt lat="42.30873909115187" lon="13.688084872195834"><ele>977.0</ele><time>2026-04-19T09:24:30Z</time></trkpt><trkpt lat="42.30883528130628" lon="13.687794646394435"><ele>977.0</ele><time>2026-04-19T09:24:31Z</time></trkpt><trkpt lat="42.30891948422944" lon="13.687502774474776"><ele>981.3333333333334</ele><time>2026-04-19T09:24:32Z</time></trkpt><trkpt lat="42.30901138028408" lon="13.687222468160472"><ele>985.6666666666667</ele><time>2026-04-19T09:24:33Z</time></trkpt><trkpt lat="42.30909716681643" lon="13.686957279667288"><ele>990.0</ele><time>2026-04-19T09:24:34Z</time></trkpt><trkpt lat="42.30917964529942" lon="13.686710935696873"><ele>990.0</ele><time>2026-04-19T09:24:35Z</time></trkpt><trkpt lat="42.30926141634641" lon="13.686467129278503"><ele>990.0</ele><time>2026-04-19T09:24:36Z</time></trkpt><trkpt lat="42.309337861102414" lon="13.686224949078872"><ele>990.0</ele><time>2026-04-19T09:24:37Z</time></trkpt><trkpt lat="42.309408306925576" lon="13.685982994209033"><ele>989.0</ele><time>2026-04-19T09:24:38Z</time></trkpt><trkpt lat="42.30948648603958" lon="13.68574034041637"><ele>988.0</ele><time>2026-04-19T09:24:39Z</time></trkpt><trkpt lat="42.30956932568248" lon="13.685500929507464"><ele>987.0</ele><time>2026-04-19T09:24:40Z</time></trkpt><trkpt lat="42.30964749421849" lon="13.685262768385382"><ele>984.3333333333333</ele><time>2026-04-19T09:24:41Z</time></trkpt><trkpt lat="42.30972111244875" lon="13.685025473910764"><ele>981.6666666666666</ele><time>2026-04-19T09:24:42Z</time></trkpt><trkpt lat="42.30981116510233" lon="13.68479702925018"><ele>979.0</ele><time>2026-04-19T09:24:43Z</time></trkpt><trkpt lat="42.30987513412142" lon="13.684556408819203"><ele>982.6666666666666</ele><time>2026-04-19T09:24:44Z</time></trkpt><trkpt lat="42.309955846379644" lon="13.684321498858964"><ele>986.3333333333333</ele><time>2026-04-19T09:24:45Z</time></trkpt><trkpt lat="42.31003286184214" lon="13.684081947174763"><ele>990.0</ele><time>2026-04-19T09:24:46Z</time></trkpt><trkpt lat="42.31010844076168" lon="13.683838160635815"><ele>987.6666666666667</ele><time>2026-04-19T09:24:47Z</time></trkpt><trkpt lat="42.31018068236178" lon="13.683596561953623"><ele>985.3333333333334</ele><time>2026-04-19T09:24:48Z</time></trkpt><trkpt lat="42.31025520600031" lon="13.683349464885163"><ele>983.0</ele><time>2026-04-19T09:24:49Z</time></trkpt><trkpt lat="42.31033213751252" lon="13.6831096000168"><ele>983.0</ele><time>2026-04-19T09:24:50Z</time></trkpt><trkpt lat="42.31040844289307" lon="13.682870429463826"><ele>983.0</ele><time>2026-04-19T09:24:51Z</time></trkpt><trkpt lat="42.31047755979724" lon="13.682621387081312"><ele>983.0</ele><time>2026-04-19T09:24:52Z</time></trkpt><trkpt lat="42.31053296781835" lon="13.682355350897852"><ele>983.0</ele><time>2026-04-19T09:24:53Z</time></trkpt><trkpt lat="42.31057283133482" lon="13.682072744133952"><ele>983.0</ele><time>2026-04-19T09:24:54Z</time></trkpt><trkpt lat="42.31060384699646" lon="13.681780768555365"><ele>983.0</ele><time>2026-04-19T09:24:55Z</time></trkpt><trkpt lat="42.31063134229164" lon="13.681491251254563"><ele>990.0</ele><time>2026-04-19T09:24:56Z</time></trkpt><trkpt lat="42.3106593573351" lon="13.681202592875088"><ele>997.0</ele><time>2026-04-19T09:24:57Z</time></trkpt><trkpt lat="42.31068022216749" lon="13.68092054455961"><ele>1004.0</ele><time>2026-04-19T09:24:58Z</time></trkpt><trkpt lat="42.31068546260161" lon="13.68066168805986"><ele>1006.0</ele><time>2026-04-19T09:24:59Z</time></trkpt><trkpt lat="42.310660208927295" lon="13.680430260608691"><ele>1008.0</ele><time>2026-04-19T09:25:00Z</time></trkpt><trkpt lat="42.31059691506703" lon="13.68020222695341"><ele>1010.0</ele><time>2026-04-19T09:25:01Z</time></trkpt><trkpt lat="42.310498121203324" lon="13.679977650421302"><ele>1014.0</ele><time>2026-04-19T09:25:02Z</time></trkpt><trkpt lat="42.31038592831097" lon="13.67976309985373"><ele>1018.0</ele><time>2026-04-19T09:25:03Z</time></trkpt><trkpt lat="42.310198926792076" lon="13.679364164627943"><ele>1018.0</ele><time>2026-04-19T09:25:05Z</time></trkpt><trkpt lat="42.31013081565408" lon="13.67918916162108"><ele>1018.0</ele><time>2026-04-19T09:25:06Z</time></trkpt><trkpt lat="42.31004821279961" lon="13.679028384986381"><ele>1018.0</ele><time>2026-04-19T09:25:07Z</time></trkpt><trkpt lat="42.30995351700111" lon="13.678887272584719"><ele>1018.0</ele><time>2026-04-19T09:25:08Z</time></trkpt><trkpt lat="42.30988770180913" lon="13.678725340007752"><ele>1015.0</ele><time>2026-04-19T09:25:09Z</time></trkpt><trkpt lat="42.30981418789137" lon="13.678574154237413"><ele>1012.0</ele><time>2026-04-19T09:25:10Z</time></trkpt><trkpt lat="42.30976867747637" lon="13.678416068927953"><ele>1009.0</ele><time>2026-04-19T09:25:11Z</time></trkpt><trkpt lat="42.30971272305204" lon="13.678258118415739"><ele>1006.0</ele><time>2026-04-19T09:25:12Z</time></trkpt><trkpt lat="42.30963867838512" lon="13.678101064746897"><ele>1006.0</ele><time>2026-04-19T09:25:13Z</time></trkpt><trkpt lat="42.309555446248645" lon="13.67793119559609"><ele>1006.0</ele><time>2026-04-19T09:25:14Z</time></trkpt><trkpt lat="42.309454394300914" lon="13.677755796329599"><ele>1006.0</ele><time>2026-04-19T09:25:15Z</time></trkpt><trkpt lat="42.309355969692646" lon="13.677559932504296"><ele>1012.6666666666666</ele><time>2026-04-19T09:25:16Z</time></trkpt><trkpt lat="42.309238856162764" lon="13.677394917758875"><ele>1019.3333333333333</ele><time>2026-04-19T09:25:17Z</time></trkpt><trkpt lat="42.30908836206196" lon="13.677247956748166"><ele>1026.0</ele><time>2026-04-19T09:25:18Z</time></trkpt><trkpt lat="42.30892392095429" lon="13.677127145938295"><ele>1026.3333333333333</ele><time>2026-04-19T09:25:19Z</time></trkpt><trkpt lat="42.30878676206601" lon="13.676999741344583"><ele>1026.6666666666665</ele><time>2026-04-19T09:25:20Z</time></trkpt><trkpt lat="42.308672809327604" lon="13.676867147419852"><ele>1027.0</ele><time>2026-04-19T09:25:21Z</time></trkpt><trkpt lat="42.30856838602922" lon="13.67671076653952"><ele>1027.0</ele><time>2026-04-19T09:25:22Z</time></trkpt><trkpt lat="42.308461777396296" lon="13.676577107317051"><ele>1027.0</ele><time>2026-04-19T09:25:23Z</time></trkpt><trkpt lat="42.308366645940815" lon="13.67646713769769"><ele>1027.0</ele><time>2026-04-19T09:25:24Z</time></trkpt><trkpt lat="42.3082670160937" lon="13.676404611783067"><ele>1027.0</ele><time>2026-04-19T09:25:25Z</time></trkpt><trkpt lat="42.308153024572064" lon="13.676452340035086"><ele>1026.4</ele><time>2026-04-19T09:25:26Z</time></trkpt><trkpt lat="42.308064226819596" lon="13.676539355162577"><ele>1025.8000000000002</ele><time>2026-04-19T09:25:27Z</time></trkpt><trkpt lat="42.30798006113922" lon="13.676639472980611"><ele>1025.2</ele><time>2026-04-19T09:25:28Z</time></trkpt><trkpt lat="42.307876231664864" lon="13.676658898063007"><ele>1024.6000000000001</ele><time>2026-04-19T09:25:29Z</time></trkpt><trkpt lat="42.30776802753839" lon="13.676616180779234"><ele>1024.0</ele><time>2026-04-19T09:25:30Z</time></trkpt><trkpt lat="42.30763776644194" lon="13.676522339414667"><ele>1024.0</ele><time>2026-04-19T09:25:31Z</time></trkpt><trkpt lat="42.307486781459716" lon="13.67647681786427"><ele>1024.0</ele><time>2026-04-19T09:25:32Z</time></trkpt><trkpt lat="42.30732826363424" lon="13.676453102527221"><ele>1024.0</ele><time>2026-04-19T09:25:33Z</time></trkpt><trkpt lat="42.307158985125426" lon="13.67649801846172"><ele>1026.6666666666665</ele><time>2026-04-19T09:25:34Z</time></trkpt><trkpt lat="42.30699235814789" lon="13.676575138525351"><ele>1029.3333333333333</ele><time>2026-04-19T09:25:35Z</time></trkpt><trkpt lat="42.306834215423315" lon="13.67669006027845"><ele>1032.0</ele><time>2026-04-19T09:25:36Z</time></trkpt><trkpt lat="42.30669188735462" lon="13.676772822342993"><ele>1032.0</ele><time>2026-04-19T09:25:37Z</time></trkpt><trkpt lat="42.30651004904305" lon="13.676810854635885"><ele>1032.0</ele><time>2026-04-19T09:25:38Z</time></trkpt><trkpt lat="42.306315505611636" lon="13.67683323994099"><ele>1032.0</ele><time>2026-04-19T09:25:39Z</time></trkpt><trkpt lat="42.30611427491594" lon="13.67685447386748"><ele>1034.6666666666667</ele><time>2026-04-19T09:25:40Z</time></trkpt><trkpt lat="42.3059162558283" lon="13.676832433005094"><ele>1037.3333333333335</ele><time>2026-04-19T09:25:41Z</time></trkpt><trkpt lat="42.305729346042305" lon="13.676835766702352"><ele>1040.0</ele><time>2026-04-19T09:25:42Z</time></trkpt><trkpt lat="42.30555520836682" lon="13.676859341050497"><ele>1041.0</ele><time>2026-04-19T09:25:43Z</time></trkpt><trkpt lat="42.30539286749811" lon="13.67690773463274"><ele>1042.0</ele><time>2026-04-19T09:25:44Z</time></trkpt><trkpt lat="42.3052308084066" lon="13.677003525041071"><ele>1043.0</ele><time>2026-04-19T09:25:45Z</time></trkpt><trkpt lat="42.305069413415595" lon="13.677146014461163"><ele>1034.0</ele><time>2026-04-19T09:25:46Z</time></trkpt><trkpt lat="42.304918077372335" lon="13.67731127795516"><ele>1025.0</ele><time>2026-04-19T09:25:47Z</time></trkpt><trkpt lat="42.30479392007646" lon="13.677480439528052"><ele>1016.0</ele><time>2026-04-19T09:25:48Z</time></trkpt><trkpt lat="42.30468655959501" lon="13.677635002383955"><ele>1016.0</ele><time>2026-04-19T09:25:49Z</time></trkpt><trkpt lat="42.304585374637135" lon="13.67776133730072"><ele>1015.9999999999999</ele><time>2026-04-19T09:25:50Z</time></trkpt><trkpt lat="42.30449413504571" lon="13.677849694062644"><ele>1015.9999999999999</ele><time>2026-04-19T09:25:51Z</time></trkpt><trkpt lat="42.30440957825321" lon="13.677849351778422"><ele>1016.0</ele><time>2026-04-19T09:25:52Z</time></trkpt><trkpt lat="42.30433938855616" lon="13.677818381613498"><ele>1016.0</ele><time>2026-04-19T09:25:53Z</time></trkpt><trkpt lat="42.304256195566836" lon="13.677698655494398"><ele>1016.0</ele><time>2026-04-19T09:25:54Z</time></trkpt><trkpt lat="42.30414737692613" lon="13.677525522374111"><ele>1016.0</ele><time>2026-04-19T09:25:55Z</time></trkpt><trkpt lat="42.304039010872486" lon="13.67733218508661"><ele>1016.0</ele><time>2026-04-19T09:25:56Z</time></trkpt><trkpt lat="42.3039143609159" lon="13.677146585673887"><ele>1012.6666666666667</ele><time>2026-04-19T09:25:57Z</time></trkpt><trkpt lat="42.303811103043316" lon="13.676961367276924"><ele>1009.3333333333333</ele><time>2026-04-19T09:25:58Z</time></trkpt><trkpt lat="42.303727420716605" lon="13.676770834530076"><ele>1006.0</ele><time>2026-04-19T09:25:59Z</time></trkpt><trkpt lat="42.30364220124177" lon="13.676586292900078"><ele>1006.0</ele><time>2026-04-19T09:26:00Z</time></trkpt><trkpt lat="42.303587418535734" lon="13.676398731867142"><ele>1006.0</ele><time>2026-04-19T09:26:01Z</time></trkpt><trkpt lat="42.30351254874341" lon="13.676245902751411"><ele>1006.0</ele><time>2026-04-19T09:26:02Z</time></trkpt><trkpt lat="42.303421469508905" lon="13.676114459779537"><ele>1006.0</ele><time>2026-04-19T09:26:03Z</time></trkpt><trkpt lat="42.303295881241766" lon="13.676027477210107"><ele>1009.0</ele><time>2026-04-19T09:26:04Z</time></trkpt><trkpt lat="42.303163155591164" lon="13.676007817550824"><ele>1012.0</ele><time>2026-04-19T09:26:05Z</time></trkpt><trkpt lat="42.303014268394506" lon="13.676032804859698"><ele>1015.0</ele><time>2026-04-19T09:26:06Z</time></trkpt><trkpt lat="42.302859051201324" lon="13.67600329783989"><ele>1018.0</ele><time>2026-04-19T09:26:07Z</time></trkpt><trkpt lat="42.30268986387194" lon="13.67592480914763"><ele>1018.0</ele><time>2026-04-19T09:26:08Z</time></trkpt><trkpt lat="42.30251399805439" lon="13.675821925967991"><ele>1018.0</ele><time>2026-04-19T09:26:09Z</time></trkpt><trkpt lat="42.30234051571672" lon="13.675699991371518"><ele>1018.0</ele><time>2026-04-19T09:26:10Z</time></trkpt><trkpt lat="42.30216741969713" lon="13.675569865339734"><ele>1019.0</ele><time>2026-04-19T09:26:11Z</time></trkpt><trkpt lat="42.30201473257132" lon="13.675405211146268"><ele>1020.0</ele><time>2026-04-19T09:26:12Z</time></trkpt><trkpt lat="42.301902541853835" lon="13.675219299139798"><ele>1021.0</ele><time>2026-04-19T09:26:13Z</time></trkpt><trkpt lat="42.30181403574101" lon="13.675038806050743"><ele>1021.0</ele><time>2026-04-19T09:26:14Z</time></trkpt><trkpt lat="42.301737774156116" lon="13.674856284423878"><ele>1021.0</ele><time>2026-04-19T09:26:15Z</time></trkpt><trkpt lat="42.30164296205105" lon="13.67465258614468"><ele>1021.0</ele><time>2026-04-19T09:26:16Z</time></trkpt><trkpt lat="42.30155033295354" lon="13.674443106260068"><ele>1021.6666666666666</ele><time>2026-04-19T09:26:17Z</time></trkpt><trkpt lat="42.30143614302957" lon="13.674248821319155"><ele>1022.3333333333333</ele><time>2026-04-19T09:26:18Z</time></trkpt><trkpt lat="42.30131069127445" lon="13.674092802607356"><ele>1023.0</ele><time>2026-04-19T09:26:19Z</time></trkpt><trkpt lat="42.30120021225438" lon="13.67395797435695"><ele>1023.0</ele><time>2026-04-19T09:26:20Z</time></trkpt><trkpt lat="42.30109851632514" lon="13.67383840094436"><ele>1023.0</ele><time>2026-04-19T09:26:21Z</time></trkpt><trkpt lat="42.30100377660874" lon="13.673723907744066"><ele>1023.0</ele><time>2026-04-19T09:26:22Z</time></trkpt><trkpt lat="42.30091054879049" lon="13.673599681467435"><ele>1023.0</ele><time>2026-04-19T09:26:23Z</time></trkpt><trkpt lat="42.30081916818541" lon="13.673455289638582"><ele>1027.0</ele><time>2026-04-19T09:26:24Z</time></trkpt><trkpt lat="42.30073707170686" lon="13.673313237647156"><ele>1031.0</ele><time>2026-04-19T09:26:25Z</time></trkpt><trkpt lat="42.30068783885176" lon="13.673147760020097"><ele>1035.0</ele><time>2026-04-19T09:26:26Z</time></trkpt><trkpt lat="42.300631796645575" lon="13.672977627487759"><ele>1039.0</ele><time>2026-04-19T09:26:27Z</time></trkpt><trkpt lat="42.300587748563245" lon="13.672791019462647"><ele>1039.75</ele><time>2026-04-19T09:26:28Z</time></trkpt><trkpt lat="42.30052933125006" lon="13.672606589559887"><ele>1040.5</ele><time>2026-04-19T09:26:29Z</time></trkpt><trkpt lat="42.3004890669369" lon="13.672432552429003"><ele>1041.25</ele><time>2026-04-19T09:26:30Z</time></trkpt><trkpt lat="42.300451180047226" lon="13.672268797362618"><ele>1042.0</ele><time>2026-04-19T09:26:31Z</time></trkpt><trkpt lat="42.30041923483178" lon="13.672101658388126"><ele>1046.25</ele><time>2026-04-19T09:26:32Z</time></trkpt><trkpt lat="42.300419544751996" lon="13.671917161930844"><ele>1050.5</ele><time>2026-04-19T09:26:33Z</time></trkpt><trkpt lat="42.300416876342375" lon="13.67173005828214"><ele>1054.75</ele><time>2026-04-19T09:26:34Z</time></trkpt><trkpt lat="42.30043408832594" lon="13.671540036888196"><ele>1059.0</ele><time>2026-04-19T09:26:35Z</time></trkpt><trkpt lat="42.30046239693073" lon="13.671333778147842"><ele>1059.0</ele><time>2026-04-19T09:26:36Z</time></trkpt><trkpt lat="42.300504496453485" lon="13.671121812159354"><ele>1059.0</ele><time>2026-04-19T09:26:37Z</time></trkpt><trkpt lat="42.30054910064093" lon="13.670910482076916"><ele>1059.0</ele><time>2026-04-19T09:26:38Z</time></trkpt><trkpt lat="42.300598948607814" lon="13.67067806302602"><ele>1058.0</ele><time>2026-04-19T09:26:39Z</time></trkpt><trkpt lat="42.30065015324355" lon="13.670436336335394"><ele>1057.0</ele><time>2026-04-19T09:26:40Z</time></trkpt><trkpt lat="42.300690130932246" lon="13.670192855465007"><ele>1056.0</ele><time>2026-04-19T09:26:41Z</time></trkpt><trkpt lat="42.3007453869175" lon="13.669952644262628"><ele>1054.6666666666667</ele><time>2026-04-19T09:26:42Z</time></trkpt><trkpt lat="42.30079160447088" lon="13.669721337481693"><ele>1053.3333333333335</ele><time>2026-04-19T09:26:43Z</time></trkpt><trkpt lat="42.300830787874446" lon="13.669500479616305"><ele>1052.0</ele><time>2026-04-19T09:26:44Z</time></trkpt><trkpt lat="42.30086084859378" lon="13.669269509769784"><ele>1050.6666666666667</ele><time>2026-04-19T09:26:45Z</time></trkpt><trkpt lat="42.30087959897032" lon="13.669039057974508"><ele>1049.3333333333333</ele><time>2026-04-19T09:26:46Z</time></trkpt><trkpt lat="42.30091109551507" lon="13.668813157814064"><ele>1048.0</ele><time>2026-04-19T09:26:47Z</time></trkpt><trkpt lat="42.300930245567606" lon="13.668585536761857"><ele>1047.6666666666665</ele><time>2026-04-19T09:26:48Z</time></trkpt><trkpt lat="42.300949090872315" lon="13.66836153821162"><ele>1047.3333333333333</ele><time>2026-04-19T09:26:49Z</time></trkpt><trkpt lat="42.30096706632149" lon="13.668142074351016"><ele>1047.0</ele><time>2026-04-19T09:26:50Z</time></trkpt><trkpt lat="42.300981989175035" lon="13.667929156485217"><ele>1046.5</ele><time>2026-04-19T09:26:51Z</time></trkpt><trkpt lat="42.300992902620244" lon="13.667721483737232"><ele>1046.0</ele><time>2026-04-19T09:26:52Z</time></trkpt><trkpt lat="42.30099712699298" lon="13.667521134040603"><ele>1045.5</ele><time>2026-04-19T09:26:53Z</time></trkpt><trkpt lat="42.30099825951655" lon="13.667334501937706"><ele>1045.0</ele><time>2026-04-19T09:26:54Z</time></trkpt><trkpt lat="42.30099755589981" lon="13.667144380525542"><ele>1045.0</ele><time>2026-04-19T09:26:55Z</time></trkpt><trkpt lat="42.300996009922926" lon="13.666962620970887"><ele>1045.0</ele><time>2026-04-19T09:26:56Z</time></trkpt><trkpt lat="42.30099820245797" lon="13.666780275381898"><ele>1045.0</ele><time>2026-04-19T09:26:57Z</time></trkpt><trkpt lat="42.301005975256054" lon="13.666603107275915"><ele>1045.0</ele><time>2026-04-19T09:26:58Z</time></trkpt><trkpt lat="42.301026358305876" lon="13.666430172343453"><ele>1044.0</ele><time>2026-04-19T09:26:59Z</time></trkpt><trkpt lat="42.30105874124592" lon="13.66626419403974"><ele>1043.0</ele><time>2026-04-19T09:27:00Z</time></trkpt><trkpt lat="42.30110379671068" lon="13.666108903627647"><ele>1042.0</ele><time>2026-04-19T09:27:01Z</time></trkpt><trkpt lat="42.301153958596515" lon="13.665955362174191"><ele>1041.0</ele><time>2026-04-19T09:27:02Z</time></trkpt><trkpt lat="42.301205880891196" lon="13.665809407298969"><ele>1040.25</ele><time>2026-04-19T09:27:03Z</time></trkpt><trkpt lat="42.30125801315252" lon="13.665663524055114"><ele>1039.5</ele><time>2026-04-19T09:27:04Z</time></trkpt><trkpt lat="42.30130745821844" lon="13.665525190890538"><ele>1038.75</ele><time>2026-04-19T09:27:05Z</time></trkpt><trkpt lat="42.301358087776315" lon="13.66538511030439"><ele>1038.0</ele><time>2026-04-19T09:27:06Z</time></trkpt><trkpt lat="42.30140819396018" lon="13.665251826373352"><ele>1038.0</ele><time>2026-04-19T09:27:07Z</time></trkpt><trkpt lat="42.301448962594655" lon="13.665110428349287"><ele>1038.0</ele><time>2026-04-19T09:27:08Z</time></trkpt><trkpt lat="42.30148406305051" lon="13.664971459894812"><ele>1038.0</ele><time>2026-04-19T09:27:09Z</time></trkpt><trkpt lat="42.30149642002835" lon="13.664834685933442"><ele>1038.0</ele><time>2026-04-19T09:27:10Z</time></trkpt><trkpt lat="42.30146608151282" lon="13.664704201614308"><ele>1038.0</ele><time>2026-04-19T09:27:11Z</time></trkpt><trkpt lat="42.30140536313381" lon="13.664594519194583"><ele>1038.0</ele><time>2026-04-19T09:27:12Z</time></trkpt><trkpt lat="42.30133156752525" lon="13.664476935890109"><ele>1038.0</ele><time>2026-04-19T09:27:13Z</time></trkpt><trkpt lat="42.30128572271888" lon="13.664327781142687"><ele>1038.0</ele><time>2026-04-19T09:27:14Z</time></trkpt><trkpt lat="42.30126158974268" lon="13.66417428580902"><ele>1038.0</ele><time>2026-04-19T09:27:15Z</time></trkpt><trkpt lat="42.301291342188094" lon="13.66401635112535"><ele>1039.6666666666667</ele><time>2026-04-19T09:27:16Z</time></trkpt><trkpt lat="42.301356080489434" lon="13.66384424106585"><ele>1041.3333333333335</ele><time>2026-04-19T09:27:17Z</time></trkpt><trkpt lat="42.301457293102395" lon="13.663658899315564"><ele>1043.0</ele><time>2026-04-19T09:27:18Z</time></trkpt><trkpt lat="42.3015727328116" lon="13.663478160482478"><ele>1038.0</ele><time>2026-04-19T09:27:19Z</time></trkpt><trkpt lat="42.30167276932834" lon="13.66329381321504"><ele>1033.0</ele><time>2026-04-19T09:27:20Z</time></trkpt><trkpt lat="42.30177014848839" lon="13.663095851419659"><ele>1028.0</ele><time>2026-04-19T09:27:21Z</time></trkpt><trkpt lat="42.30186675120036" lon="13.662856923075125"><ele>1031.3333333333335</ele><time>2026-04-19T09:27:22Z</time></trkpt><trkpt lat="42.301964280112536" lon="13.662604278422505"><ele>1034.6666666666667</ele><time>2026-04-19T09:27:23Z</time></trkpt><trkpt lat="42.302067572020164" lon="13.662351874140334"><ele>1038.0</ele><time>2026-04-19T09:27:24Z</time></trkpt><trkpt lat="42.30216269103048" lon="13.6620864398864"><ele>1046.5</ele><time>2026-04-19T09:27:25Z</time></trkpt><trkpt lat="42.3022300570477" lon="13.661784509783711"><ele>1055.0</ele><time>2026-04-19T09:27:26Z</time></trkpt><trkpt lat="42.3022835344665" lon="13.6614606666599"><ele>1043.6666666666667</ele><time>2026-04-19T09:27:27Z</time></trkpt><trkpt lat="42.30232370583843" lon="13.661155686744136"><ele>1032.3333333333333</ele><time>2026-04-19T09:27:28Z</time></trkpt><trkpt lat="42.30235347450434" lon="13.660866299313488"><ele>1021.0</ele><time>2026-04-19T09:27:29Z</time></trkpt><trkpt lat="42.30237151860948" lon="13.660564788483097"><ele>1020.0</ele><time>2026-04-19T09:27:30Z</time></trkpt><trkpt lat="42.3023762288694" lon="13.660257414837861"><ele>1019.0</ele><time>2026-04-19T09:27:31Z</time></trkpt><trkpt lat="42.30237440700924" lon="13.659938233857241"><ele>1019.0</ele><time>2026-04-19T09:27:32Z</time></trkpt><trkpt lat="42.30238845211283" lon="13.65961244947178"><ele>1019.0</ele><time>2026-04-19T09:27:33Z</time></trkpt><trkpt lat="42.302388452111934" lon="13.659286647988317"><ele>1019.5</ele><time>2026-04-19T09:27:34Z</time></trkpt><trkpt lat="42.30238964820262" lon="13.65896097820858"><ele>1020.0</ele><time>2026-04-19T09:27:35Z</time></trkpt><trkpt lat="42.302396565008465" lon="13.65862739531939"><ele>1021.5</ele><time>2026-04-19T09:27:36Z</time></trkpt><trkpt lat="42.302415892587305" lon="13.658286817446763"><ele>1023.0</ele><time>2026-04-19T09:27:37Z</time></trkpt><trkpt lat="42.30245386441848" lon="13.657938963734969"><ele>1025.5</ele><time>2026-04-19T09:27:38Z</time></trkpt><trkpt lat="42.30250639089235" lon="13.657618065813558"><ele>1028.0</ele><time>2026-04-19T09:27:39Z</time></trkpt><trkpt lat="42.30255446912815" lon="13.657332590090348"><ele>1028.0</ele><time>2026-04-19T09:27:40Z</time></trkpt><trkpt lat="42.302601232805266" lon="13.657065670356772"><ele>1028.0</ele><time>2026-04-19T09:27:41Z</time></trkpt><trkpt lat="42.302651596438096" lon="13.656815394581203"><ele>1028.0</ele><time>2026-04-19T09:27:42Z</time></trkpt><trkpt lat="42.30271969438875" lon="13.656575535349996"><ele>1028.6666666666667</ele><time>2026-04-19T09:27:43Z</time></trkpt><trkpt lat="42.30280424525552" lon="13.656358802711816"><ele>1029.3333333333333</ele><time>2026-04-19T09:27:44Z</time></trkpt><trkpt lat="42.30289903816757" lon="13.656181594054646"><ele>1030.0</ele><time>2026-04-19T09:27:45Z</time></trkpt><trkpt lat="42.3029849675095" lon="13.656014235500573"><ele>1030.0</ele><time>2026-04-19T09:27:46Z</time></trkpt><trkpt lat="42.303064439718625" lon="13.65585944670545"><ele>1030.0</ele><time>2026-04-19T09:27:47Z</time></trkpt><trkpt lat="42.30313558375937" lon="13.655720878770047"><ele>1030.0</ele><time>2026-04-19T09:27:48Z</time></trkpt><trkpt lat="42.3031353687048" lon="13.655534128283001"><ele>1030.0</ele><time>2026-04-19T09:27:49Z</time></trkpt><trkpt lat="42.30316373119584" lon="13.655412097902333"><ele>1029.1666666666665</ele><time>2026-04-19T09:27:50Z</time></trkpt><trkpt lat="42.30319610624683" lon="13.655304489064942"><ele>1028.3333333333333</ele><time>2026-04-19T09:27:51Z</time></trkpt><trkpt lat="42.3032318472998" lon="13.655205995045053"><ele>1027.5</ele><time>2026-04-19T09:27:52Z</time></trkpt><trkpt lat="42.303261242000794" lon="13.655121442996869"><ele>1026.6666666666667</ele><time>2026-04-19T09:27:53Z</time></trkpt><trkpt lat="42.30327568075978" lon="13.65500351000106"><ele>1025.8333333333335</ele><time>2026-04-19T09:27:55Z</time></trkpt><trkpt lat="42.3032307547535" lon="13.65491120502475"><ele>1025.0</ele><time>2026-04-19T09:27:58Z</time></trkpt><trkpt lat="42.303165102850585" lon="13.654885305145065"><ele>1022.8333333333334</ele><time>2026-04-19T09:28:00Z</time></trkpt><trkpt lat="42.30306499734916" lon="13.65489783817751"><ele>1020.6666666666667</ele><time>2026-04-19T09:28:02Z</time></trkpt><trkpt lat="42.30298218273409" lon="13.654934190439867"><ele>1018.5</ele><time>2026-04-19T09:28:04Z</time></trkpt><trkpt lat="42.302874455139516" lon="13.655006066732813"><ele>1016.3333333333333</ele><time>2026-04-19T09:28:06Z</time></trkpt><trkpt lat="42.30281665001066" lon="13.655046505549596"><ele>1014.1666666666666</ele><time>2026-04-19T09:28:07Z</time></trkpt><trkpt lat="42.30275328357162" lon="13.655085131081194"><ele>1012.0</ele><time>2026-04-19T09:28:08Z</time></trkpt><trkpt lat="42.30268407711941" lon="13.655120001731953"><ele>1011.9999999999999</ele><time>2026-04-19T09:28:09Z</time></trkpt><trkpt lat="42.30260748155461" lon="13.655148233474314"><ele>1012.0</ele><time>2026-04-19T09:28:10Z</time></trkpt><trkpt lat="42.30252576535599" lon="13.655157865564489"><ele>1012.0</ele><time>2026-04-19T09:28:11Z</time></trkpt><trkpt lat="42.30244976696011" lon="13.655164866671221"><ele>1012.0</ele><time>2026-04-19T09:28:12Z</time></trkpt><trkpt lat="42.30237163896209" lon="13.655144190820721"><ele>1011.9999999999999</ele><time>2026-04-19T09:28:13Z</time></trkpt><trkpt lat="42.302297516509036" lon="13.65512773234558"><ele>1012.0</ele><time>2026-04-19T09:28:14Z</time></trkpt><trkpt lat="42.30220686683749" lon="13.655097964610254"><ele>1012.3333333333333</ele><time>2026-04-19T09:28:15Z</time></trkpt><trkpt lat="42.30212272275239" lon="13.65506785967484"><ele>1012.6666666666666</ele><time>2026-04-19T09:28:16Z</time></trkpt><trkpt lat="42.302039236347845" lon="13.655034712582804"><ele>1013.0</ele><time>2026-04-19T09:28:17Z</time></trkpt><trkpt lat="42.301951777942485" lon="13.655005529090227"><ele>1013.3333333333333</ele><time>2026-04-19T09:28:18Z</time></trkpt><trkpt lat="42.30186649043349" lon="13.654968776623457"><ele>1013.6666666666666</ele><time>2026-04-19T09:28:19Z</time></trkpt><trkpt lat="42.30178125452221" lon="13.654941465888946"><ele>1014.0</ele><time>2026-04-19T09:28:20Z</time></trkpt><trkpt lat="42.30169449968566" lon="13.654893692135856"><ele>1014.0</ele><time>2026-04-19T09:28:21Z</time></trkpt><trkpt lat="42.30161337793756" lon="13.654865151436924"><ele>1014.0000000000001</ele><time>2026-04-19T09:28:22Z</time></trkpt><trkpt lat="42.30153540372194" lon="13.654859221855475"><ele>1014.0000000000001</ele><time>2026-04-19T09:28:23Z</time></trkpt><trkpt lat="42.301453977231475" lon="13.654783901242768"><ele>1014.0</ele><time>2026-04-19T09:28:25Z</time></trkpt><trkpt lat="42.30152242849778" lon="13.65477150802508"><ele>1014.0</ele><time>2026-04-19T09:28:28Z</time></trkpt><trkpt lat="42.30164169313295" lon="13.654743338142099"><ele>1014.0</ele><time>2026-04-19T09:28:29Z</time></trkpt><trkpt lat="42.30172705026142" lon="13.654760794115353"><ele>1014.0000000000001</ele><time>2026-04-19T09:28:30Z</time></trkpt><trkpt lat="42.30182201314973" lon="13.654791892192593"><ele>1014.0000000000001</ele><time>2026-04-19T09:28:31Z</time></trkpt><trkpt lat="42.30192505091807" lon="13.65480157935355"><ele>1014.0</ele><time>2026-04-19T09:28:32Z</time></trkpt><trkpt lat="42.30203032408258" lon="13.65479756671785"><ele>1014.0</ele><time>2026-04-19T09:28:33Z</time></trkpt><trkpt lat="42.302146646211575" lon="13.654789262766675"><ele>1013.6666666666666</ele><time>2026-04-19T09:28:34Z</time></trkpt><trkpt lat="42.30225010418487" lon="13.65477781822982"><ele>1013.3333333333333</ele><time>2026-04-19T09:28:35Z</time></trkpt><trkpt lat="42.302335870483226" lon="13.654754960547251"><ele>1013.0</ele><time>2026-04-19T09:28:36Z</time></trkpt><trkpt lat="42.30240936616842" lon="13.65471741245974"><ele>1012.6666666666666</ele><time>2026-04-19T09:28:37Z</time></trkpt><trkpt lat="42.30247481988294" lon="13.654669383085471"><ele>1012.3333333333333</ele><time>2026-04-19T09:28:38Z</time></trkpt><trkpt lat="42.302544210677276" lon="13.654630873754712"><ele>1012.0</ele><time>2026-04-19T09:28:39Z</time></trkpt><trkpt lat="42.30259653659068" lon="13.65456785265655"><ele>1012.0</ele><time>2026-04-19T09:28:40Z</time></trkpt><trkpt lat="42.30265977662819" lon="13.654516768225893"><ele>1012.0</ele><time>2026-04-19T09:28:41Z</time></trkpt><trkpt lat="42.3027331511523" lon="13.654448461452182"><ele>1012.0</ele><time>2026-04-19T09:28:42Z</time></trkpt><trkpt lat="42.302805219830745" lon="13.654358589127696"><ele>1012.0</ele><time>2026-04-19T09:28:43Z</time></trkpt><trkpt lat="42.30287354733543" lon="13.654251460356887"><ele>1012.0</ele><time>2026-04-19T09:28:44Z</time></trkpt><trkpt lat="42.302940639110794" lon="13.654135533696495"><ele>1011.4000000000001</ele><time>2026-04-19T09:28:45Z</time></trkpt><trkpt lat="42.30301764246589" lon="13.654041792595752"><ele>1010.8000000000001</ele><time>2026-04-19T09:28:46Z</time></trkpt><trkpt lat="42.30307740740773" lon="13.653938822034833"><ele>1010.2</ele><time>2026-04-19T09:28:47Z</time></trkpt><trkpt lat="42.30313460660259" lon="13.653839449782621"><ele>1009.6</ele><time>2026-04-19T09:28:48Z</time></trkpt><trkpt lat="42.30318946905343" lon="13.65374291548375"><ele>1009.0</ele><time>2026-04-19T09:28:49Z</time></trkpt><trkpt lat="42.30324301689529" lon="13.653648694251723"><ele>1006.1666666666666</ele><time>2026-04-19T09:28:50Z</time></trkpt><trkpt lat="42.30329572199883" lon="13.653555955829718"><ele>1003.3333333333333</ele><time>2026-04-19T09:28:51Z</time></trkpt><trkpt lat="42.30334498127646" lon="13.653469280440074"><ele>1000.5</ele><time>2026-04-19T09:28:52Z</time></trkpt><trkpt lat="42.303393830024376" lon="13.653383327749227"><ele>997.6666666666667</ele><time>2026-04-19T09:28:53Z</time></trkpt><trkpt lat="42.303442041753335" lon="13.65329849587117"><ele>994.8333333333334</ele><time>2026-04-19T09:28:54Z</time></trkpt><trkpt lat="42.303488860459346" lon="13.653216114906163"><ele>992.0</ele><time>2026-04-19T09:28:55Z</time></trkpt><trkpt lat="42.3035361713453" lon="13.653132867957755"><ele>992.0000000000001</ele><time>2026-04-19T09:28:56Z</time></trkpt><trkpt lat="42.3035732151006" lon="13.653042152811649"><ele>992.0</ele><time>2026-04-19T09:28:57Z</time></trkpt><trkpt lat="42.30362640030955" lon="13.652968054369278"><ele>992.0</ele><time>2026-04-19T09:28:58Z</time></trkpt><trkpt lat="42.30366336357547" lon="13.652877199691266"><ele>992.0</ele><time>2026-04-19T09:28:59Z</time></trkpt><trkpt lat="42.303720838674266" lon="13.652808867763872"><ele>992.0000000000001</ele><time>2026-04-19T09:29:00Z</time></trkpt><trkpt lat="42.3037679842161" lon="13.652727035080504"><ele>992.0</ele><time>2026-04-19T09:29:01Z</time></trkpt><trkpt lat="42.3038137011815" lon="13.652650163780827"><ele>992.8571428571429</ele><time>2026-04-19T09:29:02Z</time></trkpt><trkpt lat="42.3038488988517" lon="13.65255701288669"><ele>993.7142857142858</ele><time>2026-04-19T09:29:02.999Z</time></trkpt><trkpt lat="42.30389952523314" lon="13.652480193621548"><ele>994.5714285714287</ele><time>2026-04-19T09:29:03.999Z</time></trkpt><trkpt lat="42.30394291367208" lon="13.652404654371413"><ele>995.4285714285716</ele><time>2026-04-19T09:29:04.999Z</time></trkpt><trkpt lat="42.30399994660203" lon="13.652346664250652"><ele>996.2857142857143</ele><time>2026-04-19T09:29:05.999Z</time></trkpt><trkpt lat="42.304046749901225" lon="13.65227233068794"><ele>997.1428571428573</ele><time>2026-04-19T09:29:06.999Z</time></trkpt><trkpt lat="42.304082068326984" lon="13.652194841898904"><ele>998.0000000000001</ele><time>2026-04-19T09:29:07.999Z</time></trkpt><trkpt lat="42.30413670821575" lon="13.652133226082267"><ele>998.0000000000001</ele><time>2026-04-19T09:29:08.999Z</time></trkpt><trkpt lat="42.30417392080654" lon="13.652042763500354"><ele>998.0</ele><time>2026-04-19T09:29:09.999Z</time></trkpt><trkpt lat="42.30421994150984" lon="13.651976264096547"><ele>998.0000000000001</ele><time>2026-04-19T09:29:10.999Z</time></trkpt><trkpt lat="42.30426786305897" lon="13.651904154258272"><ele>998.0000000000001</ele><time>2026-04-19T09:29:11.999Z</time></trkpt><trkpt lat="42.30431526690209" lon="13.651842665313845"><ele>998.0</ele><time>2026-04-19T09:29:12.999Z</time></trkpt><trkpt lat="42.304353278581665" lon="13.65177329132636"><ele>998.0000000000001</ele><time>2026-04-19T09:29:13.999Z</time></trkpt><trkpt lat="42.30439484478281" lon="13.651703777231397"><ele>998.0000000000001</ele><time>2026-04-19T09:29:14.999Z</time></trkpt><trkpt lat="42.30444173352677" lon="13.6516390195004"><ele>994.857142857143</ele><time>2026-04-19T09:29:15.999Z</time></trkpt><trkpt lat="42.304488614301334" lon="13.65157139838989"><ele>991.7142857142858</ele><time>2026-04-19T09:29:16.999Z</time></trkpt><trkpt lat="42.30452933510928" lon="13.651506342663176"><ele>988.5714285714286</ele><time>2026-04-19T09:29:17.999Z</time></trkpt><trkpt lat="42.304568573486286" lon="13.651436251426787"><ele>985.4285714285714</ele><time>2026-04-19T09:29:18.999Z</time></trkpt><trkpt lat="42.30461212763857" lon="13.651371013225688"><ele>982.2857142857142</ele><time>2026-04-19T09:29:19.999Z</time></trkpt><trkpt lat="42.30465307100741" lon="13.651306240637135"><ele>979.142857142857</ele><time>2026-04-19T09:29:20.999Z</time></trkpt><trkpt lat="42.30469610787855" lon="13.651234448816052"><ele>975.9999999999999</ele><time>2026-04-19T09:29:21.999Z</time></trkpt><trkpt lat="42.30478244078697" lon="13.651107276161648"><ele>975.5999999999999</ele><time>2026-04-19T09:29:23.999Z</time></trkpt><trkpt lat="42.30486623289733" lon="13.650982134353143"><ele>975.1999999999999</ele><time>2026-04-19T09:29:25.999Z</time></trkpt><trkpt lat="42.30495688313167" lon="13.650871764161561"><ele>974.8000000000001</ele><time>2026-04-19T09:29:27.999Z</time></trkpt><trkpt lat="42.30500818115257" lon="13.650818818497305"><ele>974.4000000000001</ele><time>2026-04-19T09:29:28.999Z</time></trkpt><trkpt lat="42.305113236838864" lon="13.650740911284034"><ele>974.0</ele><time>2026-04-19T09:29:30.999Z</time></trkpt><trkpt lat="42.30522046987191" lon="13.650666779461606"><ele>974.0</ele><time>2026-04-19T09:29:32.999Z</time></trkpt><trkpt lat="42.30532648686866" lon="13.650587231192983"><ele>974.0000000000001</ele><time>2026-04-19T09:29:34.999Z</time></trkpt><trkpt lat="42.305392890357936" lon="13.65053717228667"><ele>974.0000000000001</ele><time>2026-04-19T09:29:35.999Z</time></trkpt><trkpt lat="42.30546153379923" lon="13.6504663722426"><ele>974.0</ele><time>2026-04-19T09:29:36.999Z</time></trkpt><trkpt lat="42.30547029160216" lon="13.650325356648512"><ele>974.0</ele><time>2026-04-19T09:29:37.999Z</time></trkpt><trkpt lat="42.30549338165369" lon="13.650211876096968"><ele>968.3333333333334</ele><time>2026-04-19T09:29:38.999Z</time></trkpt><trkpt lat="42.30552571072932" lon="13.65004807943305"><ele>962.6666666666667</ele><time>2026-04-19T09:29:39.999Z</time></trkpt><trkpt lat="42.305499225620025" lon="13.649836662008795"><ele>957.0</ele><time>2026-04-19T09:29:40.999Z</time></trkpt><trkpt lat="42.30551304835467" lon="13.649600769371807"><ele>955.0</ele><time>2026-04-19T09:29:41.999Z</time></trkpt><trkpt lat="42.30551531677879" lon="13.649366736606549"><ele>953.0</ele><time>2026-04-19T09:29:42.999Z</time></trkpt><trkpt lat="42.305529450394495" lon="13.649146895954841"><ele>951.0</ele><time>2026-04-19T09:29:43.999Z</time></trkpt><trkpt lat="42.30556449044759" lon="13.648924908777943"><ele>959.3333333333333</ele><time>2026-04-19T09:29:44.999Z</time></trkpt><trkpt lat="42.305605307755414" lon="13.648685945308168"><ele>967.6666666666666</ele><time>2026-04-19T09:29:45.999Z</time></trkpt><trkpt lat="42.30563623988957" lon="13.648431301641589"><ele>976.0</ele><time>2026-04-19T09:29:46.999Z</time></trkpt><trkpt lat="42.305682993406315" lon="13.648181211242424"><ele>976.0</ele><time>2026-04-19T09:29:47.999Z</time></trkpt><trkpt lat="42.305720794785124" lon="13.647939555889247"><ele>976.0</ele><time>2026-04-19T09:29:48.999Z</time></trkpt><trkpt lat="42.30574493860241" lon="13.647712391847026"><ele>976.0</ele><time>2026-04-19T09:29:49.999Z</time></trkpt><trkpt lat="42.30575496563906" lon="13.647484774892014"><ele>973.3333333333333</ele><time>2026-04-19T09:29:50.999Z</time></trkpt><trkpt lat="42.305757610851785" lon="13.647265238369146"><ele>970.6666666666667</ele><time>2026-04-19T09:29:51.999Z</time></trkpt><trkpt lat="42.30575495774686" lon="13.647056672529718"><ele>968.0</ele><time>2026-04-19T09:29:52.999Z</time></trkpt><trkpt lat="42.305758592754984" lon="13.646838064263903"><ele>967.3333333333334</ele><time>2026-04-19T09:29:53.999Z</time></trkpt><trkpt lat="42.30575760958523" lon="13.646619541032466"><ele>966.6666666666667</ele><time>2026-04-19T09:29:54.999Z</time></trkpt><trkpt lat="42.30575204998614" lon="13.646391813315198"><ele>966.0</ele><time>2026-04-19T09:29:55.999Z</time></trkpt><trkpt lat="42.30573420534017" lon="13.646172792913958"><ele>965.0</ele><time>2026-04-19T09:29:56.999Z</time></trkpt><trkpt lat="42.30571177083511" lon="13.645948380030262"><ele>964.0</ele><time>2026-04-19T09:29:57.999Z</time></trkpt><trkpt lat="42.30568706487384" lon="13.64571837857436"><ele>963.0</ele><time>2026-04-19T09:29:58.999Z</time></trkpt><trkpt lat="42.30565907030553" lon="13.645480226744732"><ele>962.6666666666667</ele><time>2026-04-19T09:29:59.999Z</time></trkpt><trkpt lat="42.30565127062878" lon="13.645233653256222"><ele>962.3333333333334</ele><time>2026-04-19T09:30:00.999Z</time></trkpt><trkpt lat="42.3056143008438" lon="13.64499992322786"><ele>962.0</ele><time>2026-04-19T09:30:01.999Z</time></trkpt><trkpt lat="42.305590778984104" lon="13.64475117480798"><ele>954.6666666666667</ele><time>2026-04-19T09:30:02.999Z</time></trkpt><trkpt lat="42.305564819383896" lon="13.644509998426768"><ele>947.3333333333333</ele><time>2026-04-19T09:30:03.999Z</time></trkpt><trkpt lat="42.30554163171123" lon="13.644264671146052"><ele>940.0</ele><time>2026-04-19T09:30:04.999Z</time></trkpt><trkpt lat="42.30551884804433" lon="13.644034678311462"><ele>940.0</ele><time>2026-04-19T09:30:05.999Z</time></trkpt><trkpt lat="42.30549855239295" lon="13.643809898772142"><ele>940.0</ele><time>2026-04-19T09:30:06.999Z</time></trkpt><trkpt lat="42.30547815263374" lon="13.643590487049972"><ele>940.0</ele><time>2026-04-19T09:30:07.999Z</time></trkpt><trkpt lat="42.30546041444436" lon="13.643385168327324"><ele>940.0</ele><time>2026-04-19T09:30:08.999Z</time></trkpt><trkpt lat="42.30543926407426" lon="13.643184232775218"><ele>940.0</ele><time>2026-04-19T09:30:09.999Z</time></trkpt><trkpt lat="42.30542174022559" lon="13.642992738427134"><ele>940.0</ele><time>2026-04-19T09:30:10.999Z</time></trkpt><trkpt lat="42.30539955145268" lon="13.64281144684112"><ele>940.0</ele><time>2026-04-19T09:30:11.999Z</time></trkpt><trkpt lat="42.30536344591593" lon="13.642683176838487"><ele>940.0</ele><time>2026-04-19T09:30:12.999Z</time></trkpt><trkpt lat="42.30531302983649" lon="13.642584398119356"><ele>940.0</ele><time>2026-04-19T09:30:13.999Z</time></trkpt><trkpt lat="42.30520497979239" lon="13.64256693797624"><ele>940.0</ele><time>2026-04-19T09:30:14.999Z</time></trkpt><trkpt lat="42.3051119606111" lon="13.642594871162794"><ele>940.0</ele><time>2026-04-19T09:30:15.999Z</time></trkpt><trkpt lat="42.30503578765761" lon="13.642669116681823"><ele>940.0</ele><time>2026-04-19T09:30:16.999Z</time></trkpt><trkpt lat="42.3049780979644" lon="13.642817176123632"><ele>940.0</ele><time>2026-04-19T09:30:17.999Z</time></trkpt><trkpt lat="42.30494404757053" lon="13.64301666034824"><ele>940.0</ele><time>2026-04-19T09:30:18.999Z</time></trkpt><trkpt lat="42.30494847928663" lon="13.6432844853844"><ele>940.0</ele><time>2026-04-19T09:30:19.999Z</time></trkpt><trkpt lat="42.304956117770686" lon="13.643565731462289"><ele>940.0</ele><time>2026-04-19T09:30:20.999Z</time></trkpt><trkpt lat="42.304950451268674" lon="13.6438179577789"><ele>940.0</ele><time>2026-04-19T09:30:21.999Z</time></trkpt><trkpt lat="42.30493949361737" lon="13.644009416199246"><ele>940.0</ele><time>2026-04-19T09:30:22.999Z</time></trkpt><trkpt lat="42.30491542383682" lon="13.644160106700186"><ele>940.0</ele><time>2026-04-19T09:30:23.999Z</time></trkpt><trkpt lat="42.30485750794398" lon="13.64426566231289"><ele>940.0</ele><time>2026-04-19T09:30:24.999Z</time></trkpt><trkpt lat="42.30479366908666" lon="13.64433463308656"><ele>940.0</ele><time>2026-04-19T09:30:25.999Z</time></trkpt><trkpt lat="42.30468815994876" lon="13.644320376331098"><ele>940.0</ele><time>2026-04-19T09:30:26.999Z</time></trkpt><trkpt lat="42.304600091609984" lon="13.644273054662838"><ele>940.0</ele><time>2026-04-19T09:30:27.999Z</time></trkpt><trkpt lat="42.304532344234524" lon="13.644172234069913"><ele>940.0</ele><time>2026-04-19T09:30:28.999Z</time></trkpt><trkpt lat="42.304490685909975" lon="13.644030461223142"><ele>934.6666666666666</ele><time>2026-04-19T09:30:29.999Z</time></trkpt><trkpt lat="42.30444625739657" lon="13.64381622914645"><ele>929.3333333333333</ele><time>2026-04-19T09:30:30.999Z</time></trkpt><trkpt lat="42.304374930858216" lon="13.643566875558108"><ele>924.0</ele><time>2026-04-19T09:30:31.999Z</time></trkpt><trkpt lat="42.304296316027624" lon="13.643340240563624"><ele>923.6666666666667</ele><time>2026-04-19T09:30:32.999Z</time></trkpt><trkpt lat="42.30418663410583" lon="13.643158348803798"><ele>923.3333333333334</ele><time>2026-04-19T09:30:33.999Z</time></trkpt><trkpt lat="42.30411185252101" lon="13.643004333861233"><ele>923.0</ele><time>2026-04-19T09:30:34.999Z</time></trkpt><trkpt lat="42.30398779426095" lon="13.642834676082966"><ele>917.6666666666667</ele><time>2026-04-19T09:30:35.999Z</time></trkpt><trkpt lat="42.30385905584612" lon="13.64270222273962"><ele>912.3333333333333</ele><time>2026-04-19T09:30:36.998Z</time></trkpt><trkpt lat="42.303659001563936" lon="13.642650574563776"><ele>907.0</ele><time>2026-04-19T09:30:37.998Z</time></trkpt><trkpt lat="42.30344735100684" lon="13.642594612033433"><ele>907.0</ele><time>2026-04-19T09:30:38.998Z</time></trkpt><trkpt lat="42.30321959101061" lon="13.642505121574994"><ele>907.0</ele><time>2026-04-19T09:30:39.998Z</time></trkpt><trkpt lat="42.30296448833962" lon="13.642448747549622"><ele>903.5</ele><time>2026-04-19T09:30:40.998Z</time></trkpt><trkpt lat="42.30270926459314" lon="13.642369609191489"><ele>900.0</ele><time>2026-04-19T09:30:41.998Z</time></trkpt><trkpt lat="42.30246828316315" lon="13.642272549480767"><ele>896.0</ele><time>2026-04-19T09:30:42.998Z</time></trkpt><trkpt lat="42.30224673073549" lon="13.642206592634416"><ele>892.0</ele><time>2026-04-19T09:30:43.998Z</time></trkpt><trkpt lat="42.302034258891325" lon="13.642168683268956"><ele>888.0</ele><time>2026-04-19T09:30:44.998Z</time></trkpt><trkpt lat="42.3018308221408" lon="13.64212428967381"><ele>888.0</ele><time>2026-04-19T09:30:45.998Z</time></trkpt><trkpt lat="42.30162072478521" lon="13.642117869782664"><ele>888.0</ele><time>2026-04-19T09:30:46.998Z</time></trkpt><trkpt lat="42.3014005227729" lon="13.642155583853702"><ele>888.0</ele><time>2026-04-19T09:30:47.998Z</time></trkpt><trkpt lat="42.30117447585672" lon="13.64223607837631"><ele>886.5</ele><time>2026-04-19T09:30:48.998Z</time></trkpt><trkpt lat="42.30095440969364" lon="13.642340402664725"><ele>885.0</ele><time>2026-04-19T09:30:49.998Z</time></trkpt><trkpt lat="42.30075115091481" lon="13.642459340314149"><ele>882.0</ele><time>2026-04-19T09:30:50.999Z</time></trkpt><trkpt lat="42.30055728134517" lon="13.642541208447904"><ele>879.0</ele><time>2026-04-19T09:30:51.999Z</time></trkpt><trkpt lat="42.30039671816946" lon="13.642616521009737"><ele>876.0</ele><time>2026-04-19T09:30:52.999Z</time></trkpt><trkpt lat="42.30025946247262" lon="13.64265585789527"><ele>876.0</ele><time>2026-04-19T09:30:53.999Z</time></trkpt><trkpt lat="42.300136933248666" lon="13.642650735871381"><ele>876.0</ele><time>2026-04-19T09:30:54.999Z</time></trkpt><trkpt lat="42.30003105002664" lon="13.64258201154647"><ele>876.0</ele><time>2026-04-19T09:30:55.999Z</time></trkpt><trkpt lat="42.29993072456787" lon="13.64248198917154"><ele>876.0</ele><time>2026-04-19T09:30:56.999Z</time></trkpt><trkpt lat="42.29983413270577" lon="13.642321446887195"><ele>876.0</ele><time>2026-04-19T09:30:57.999Z</time></trkpt><trkpt lat="42.29976263822413" lon="13.64210742665017"><ele>876.0</ele><time>2026-04-19T09:30:58.999Z</time></trkpt><trkpt lat="42.29970138671896" lon="13.64183557547447"><ele>876.0</ele><time>2026-04-19T09:30:59.999Z</time></trkpt><trkpt lat="42.299635626437386" lon="13.641528662286081"><ele>865.5</ele><time>2026-04-19T09:31:00.999Z</time></trkpt><trkpt lat="42.29956788349868" lon="13.641212820671138"><ele>855.0</ele><time>2026-04-19T09:31:01.999Z</time></trkpt><trkpt lat="42.29950742411931" lon="13.640907011051793"><ele>853.0</ele><time>2026-04-19T09:31:02.999Z</time></trkpt><trkpt lat="42.29945577628843" lon="13.640619502312031"><ele>851.0</ele><time>2026-04-19T09:31:03.999Z</time></trkpt><trkpt lat="42.299422377350396" lon="13.64034537560204"><ele>849.0</ele><time>2026-04-19T09:31:04.999Z</time></trkpt><trkpt lat="42.29941103091092" lon="13.640068021940127"><ele>846.5</ele><time>2026-04-19T09:31:05.999Z</time></trkpt><trkpt lat="42.29943545169496" lon="13.639754707953125"><ele>844.0</ele><time>2026-04-19T09:31:06.999Z</time></trkpt><trkpt lat="42.29948647009656" lon="13.639418366446737"><ele>842.5</ele><time>2026-04-19T09:31:07.999Z</time></trkpt><trkpt lat="42.299540334111015" lon="13.639099662399474"><ele>841.0</ele><time>2026-04-19T09:31:08.999Z</time></trkpt><trkpt lat="42.2995981319727" lon="13.638820624555619"><ele>838.0</ele><time>2026-04-19T09:31:09.999Z</time></trkpt><trkpt lat="42.29967220967228" lon="13.638569039756836"><ele>835.0</ele><time>2026-04-19T09:31:10.999Z</time></trkpt><trkpt lat="42.29979150954953" lon="13.638337779043225"><ele>832.0</ele><time>2026-04-19T09:31:11.999Z</time></trkpt><trkpt lat="42.29994737390664" lon="13.638081237835436"><ele>838.0</ele><time>2026-04-19T09:31:12.999Z</time></trkpt><trkpt lat="42.30008284649864" lon="13.637811045566615"><ele>844.0</ele><time>2026-04-19T09:31:13.999Z</time></trkpt><trkpt lat="42.30017697709589" lon="13.637540818721643"><ele>844.0</ele><time>2026-04-19T09:31:14.999Z</time></trkpt><trkpt lat="42.300259276081356" lon="13.637277415153171"><ele>844.0</ele><time>2026-04-19T09:31:15.999Z</time></trkpt><trkpt lat="42.300311070604224" lon="13.63700662707911"><ele>844.0</ele><time>2026-04-19T09:31:17Z</time></trkpt><trkpt lat="42.30033454624234" lon="13.636682251549068"><ele>838.5</ele><time>2026-04-19T09:31:18Z</time></trkpt><trkpt lat="42.30034915510043" lon="13.636328063744939"><ele>833.0</ele><time>2026-04-19T09:31:19Z</time></trkpt><trkpt lat="42.30037720260805" lon="13.63595715475269"><ele>830.5</ele><time>2026-04-19T09:31:20Z</time></trkpt><trkpt lat="42.30042338389424" lon="13.635565922307027"><ele>828.0</ele><time>2026-04-19T09:31:21Z</time></trkpt><trkpt lat="42.300474203341906" lon="13.635167551656743"><ele>825.5</ele><time>2026-04-19T09:31:22Z</time></trkpt><trkpt lat="42.30052004571166" lon="13.634794237672418"><ele>823.0</ele><time>2026-04-19T09:31:23Z</time></trkpt><trkpt lat="42.300563752498036" lon="13.634432940923592"><ele>837.5</ele><time>2026-04-19T09:31:24Z</time></trkpt><trkpt lat="42.30060164756444" lon="13.634075181403448"><ele>852.0</ele><time>2026-04-19T09:31:25Z</time></trkpt><trkpt lat="42.30062970921576" lon="13.633707756960744"><ele>850.0</ele><time>2026-04-19T09:31:26Z</time></trkpt><trkpt lat="42.300668640243515" lon="13.633333792295172"><ele>848.0</ele><time>2026-04-19T09:31:27Z</time></trkpt><trkpt lat="42.300649574172816" lon="13.632953894008963"><ele>847.0</ele><time>2026-04-19T09:31:28Z</time></trkpt><trkpt lat="42.300656692642235" lon="13.632583853230207"><ele>846.0</ele><time>2026-04-19T09:31:29Z</time></trkpt><trkpt lat="42.30066757879248" lon="13.632211710474362"><ele>844.5</ele><time>2026-04-19T09:31:30Z</time></trkpt><trkpt lat="42.300676608476074" lon="13.631865244901668"><ele>843.0</ele><time>2026-04-19T09:31:31Z</time></trkpt><trkpt lat="42.30068390854832" lon="13.631545632908175"><ele>843.0</ele><time>2026-04-19T09:31:32Z</time></trkpt><trkpt lat="42.30069644991817" lon="13.631227332067569"><ele>843.0</ele><time>2026-04-19T09:31:33Z</time></trkpt><trkpt lat="42.30070210610342" lon="13.630918196794047"><ele>842.3333333333333</ele><time>2026-04-19T09:31:34Z</time></trkpt><trkpt lat="42.30070776015496" lon="13.630625455212737"><ele>841.6666666666666</ele><time>2026-04-19T09:31:35Z</time></trkpt><trkpt lat="42.30071218694912" lon="13.630344439261167"><ele>841.0</ele><time>2026-04-19T09:31:36Z</time></trkpt><trkpt lat="42.300718189143886" lon="13.630072646738258"><ele>839.3333333333333</ele><time>2026-04-19T09:31:37Z</time></trkpt><trkpt lat="42.30072713424794" lon="13.62981146202708"><ele>837.6666666666667</ele><time>2026-04-19T09:31:38Z</time></trkpt><trkpt lat="42.30073872407923" lon="13.629554116967164"><ele>836.0</ele><time>2026-04-19T09:31:39Z</time></trkpt><trkpt lat="42.30074399648115" lon="13.629308238874069"><ele>834.0</ele><time>2026-04-19T09:31:40Z</time></trkpt><trkpt lat="42.30072334863485" lon="13.629079000483959"><ele>832.0</ele><time>2026-04-19T09:31:41Z</time></trkpt><trkpt lat="42.30066613326768" lon="13.628871444665535"><ele>830.0</ele><time>2026-04-19T09:31:42Z</time></trkpt><trkpt lat="42.30056843858356" lon="13.628697228313351"><ele>825.3333333333334</ele><time>2026-04-19T09:31:43Z</time></trkpt><trkpt lat="42.3004491949961" lon="13.628580977240336"><ele>820.6666666666667</ele><time>2026-04-19T09:31:44Z</time></trkpt><trkpt lat="42.30030590582856" lon="13.628507254567523"><ele>816.0</ele><time>2026-04-19T09:31:45Z</time></trkpt><trkpt lat="42.300136771279284" lon="13.628486086700994"><ele>816.0</ele><time>2026-04-19T09:31:46Z</time></trkpt><trkpt lat="42.299959856571455" lon="13.628474869997007"><ele>816.0</ele><time>2026-04-19T09:31:47Z</time></trkpt><trkpt lat="42.2997781563402" lon="13.628451463629892"><ele>816.0</ele><time>2026-04-19T09:31:48Z</time></trkpt><trkpt lat="42.29961180739911" lon="13.628426212913974"><ele>815.75</ele><time>2026-04-19T09:31:49Z</time></trkpt><trkpt lat="42.29945467439613" lon="13.628403449217405"><ele>815.5</ele><time>2026-04-19T09:31:50Z</time></trkpt><trkpt lat="42.299308757950705" lon="13.628387764663202"><ele>815.25</ele><time>2026-04-19T09:31:51Z</time></trkpt><trkpt lat="42.299173863236426" lon="13.628370349669103"><ele>815.0</ele><time>2026-04-19T09:31:52Z</time></trkpt><trkpt lat="42.299073771593854" lon="13.628335909300654"><ele>815.0</ele><time>2026-04-19T09:31:53Z</time></trkpt><trkpt lat="42.29900030503794" lon="13.62829101844344"><ele>815.0</ele><time>2026-04-19T09:31:54Z</time></trkpt><trkpt lat="42.29894368612918" lon="13.628236530223926"><ele>815.0</ele><time>2026-04-19T09:31:55Z</time></trkpt><trkpt lat="42.29890527838037" lon="13.628111749769145"><ele>815.0</ele><time>2026-04-19T09:31:57Z</time></trkpt><trkpt lat="42.29893785426802" lon="13.627939675880203"><ele>815.0</ele><time>2026-04-19T09:31:59Z</time></trkpt><trkpt lat="42.2989771152131" lon="13.6278042762124"><ele>815.0</ele><time>2026-04-19T09:32:00Z</time></trkpt><trkpt lat="42.29902021448478" lon="13.627637534612864"><ele>815.0</ele><time>2026-04-19T09:32:01Z</time></trkpt><trkpt lat="42.299063942916526" lon="13.627462058680925"><ele>815.0</ele><time>2026-04-19T09:32:02Z</time></trkpt><trkpt lat="42.299111815995694" lon="13.62726482814594"><ele>815.0</ele><time>2026-04-19T09:32:03Z</time></trkpt><trkpt lat="42.2991639052607" lon="13.627061594322289"><ele>816.3333333333334</ele><time>2026-04-19T09:32:04Z</time></trkpt><trkpt lat="42.299218816815895" lon="13.626856808468355"><ele>817.6666666666667</ele><time>2026-04-19T09:32:05Z</time></trkpt><trkpt lat="42.29927365161118" lon="13.62665508448165"><ele>819.0</ele><time>2026-04-19T09:32:06Z</time></trkpt><trkpt lat="42.29932362302587" lon="13.626452812641043"><ele>819.0</ele><time>2026-04-19T09:32:07Z</time></trkpt><trkpt lat="42.299382222984725" lon="13.626254731873846"><ele>819.0</ele><time>2026-04-19T09:32:08Z</time></trkpt><trkpt lat="42.29944440112165" lon="13.626046925479157"><ele>819.0</ele><time>2026-04-19T09:32:09Z</time></trkpt><trkpt lat="42.29950615124275" lon="13.625850227114304"><ele>819.6666666666667</ele><time>2026-04-19T09:32:10Z</time></trkpt><trkpt lat="42.29957021553141" lon="13.625650444891171"><ele>820.3333333333334</ele><time>2026-04-19T09:32:11Z</time></trkpt><trkpt lat="42.299643265061334" lon="13.625447189047465"><ele>821.0</ele><time>2026-04-19T09:32:12Z</time></trkpt><trkpt lat="42.299721777593405" lon="13.62526219174818"><ele>820.6666666666667</ele><time>2026-04-19T09:32:13Z</time></trkpt><trkpt lat="42.29980564047688" lon="13.625066524686364"><ele>820.3333333333333</ele><time>2026-04-19T09:32:14Z</time></trkpt><trkpt lat="42.299892150516776" lon="13.624879694375725"><ele>820.0</ele><time>2026-04-19T09:32:15Z</time></trkpt><trkpt lat="42.29997945331899" lon="13.624683207183763"><ele>820.0</ele><time>2026-04-19T09:32:16Z</time></trkpt><trkpt lat="42.30006619206119" lon="13.624497807409744"><ele>820.0</ele><time>2026-04-19T09:32:17Z</time></trkpt><trkpt lat="42.30015721283499" lon="13.624308615711854"><ele>820.0</ele><time>2026-04-19T09:32:18Z</time></trkpt><trkpt lat="42.300255507624925" lon="13.624121184782677"><ele>820.3333333333333</ele><time>2026-04-19T09:32:19Z</time></trkpt><trkpt lat="42.300351492279724" lon="13.623949517228116"><ele>820.6666666666667</ele><time>2026-04-19T09:32:20Z</time></trkpt><trkpt lat="42.300451603426424" lon="13.623766377588447"><ele>821.0</ele><time>2026-04-19T09:32:21Z</time></trkpt><trkpt lat="42.30054613837722" lon="13.623591145899157"><ele>821.3333333333334</ele><time>2026-04-19T09:32:22Z</time></trkpt><trkpt lat="42.30064368898249" lon="13.623409823428993"><ele>821.6666666666667</ele><time>2026-04-19T09:32:23Z</time></trkpt><trkpt lat="42.30073784339432" lon="13.623232568464672"><ele>822.0</ele><time>2026-04-19T09:32:24Z</time></trkpt><trkpt lat="42.30083656382674" lon="13.623048150207998"><ele>822.0</ele><time>2026-04-19T09:32:25Z</time></trkpt><trkpt lat="42.300932190518544" lon="13.62286945713219"><ele>822.0</ele><time>2026-04-19T09:32:25.999Z</time></trkpt><trkpt lat="42.30102992281044" lon="13.622690246771095"><ele>822.0</ele><time>2026-04-19T09:32:26.999Z</time></trkpt><trkpt lat="42.30113059023659" lon="13.62250988378307"><ele>822.6666666666667</ele><time>2026-04-19T09:32:27.999Z</time></trkpt><trkpt lat="42.30122748067115" lon="13.622337138243092"><ele>823.3333333333334</ele><time>2026-04-19T09:32:28.999Z</time></trkpt><trkpt lat="42.30132992268715" lon="13.622156783971407"><ele>824.0</ele><time>2026-04-19T09:32:29.999Z</time></trkpt><trkpt lat="42.30142888449281" lon="13.621978217474537"><ele>825.6666666666667</ele><time>2026-04-19T09:32:30.999Z</time></trkpt><trkpt lat="42.301525179182704" lon="13.621800016815108"><ele>827.3333333333333</ele><time>2026-04-19T09:32:31.999Z</time></trkpt><trkpt lat="42.30162755486226" lon="13.621619781912358"><ele>829.0</ele><time>2026-04-19T09:32:32.999Z</time></trkpt><trkpt lat="42.30172751396185" lon="13.621446898068148"><ele>829.0</ele><time>2026-04-19T09:32:33.999Z</time></trkpt><trkpt lat="42.301825425341164" lon="13.621261389051908"><ele>829.0</ele><time>2026-04-19T09:32:34.999Z</time></trkpt><trkpt lat="42.30201788244563" lon="13.620902605138195"><ele>829.3333333333333</ele><time>2026-04-19T09:32:36.999Z</time></trkpt><trkpt lat="42.30211512061557" lon="13.620719289988989"><ele>829.6666666666667</ele><time>2026-04-19T09:32:37.999Z</time></trkpt><trkpt lat="42.302216308047015" lon="13.620542037701899"><ele>830.0</ele><time>2026-04-19T09:32:38.999Z</time></trkpt><trkpt lat="42.30231304632221" lon="13.620357934163314"><ele>830.0</ele><time>2026-04-19T09:32:39.999Z</time></trkpt><trkpt lat="42.30241375516901" lon="13.620180811468991"><ele>830.0</ele><time>2026-04-19T09:32:40.999Z</time></trkpt><trkpt lat="42.30251244373063" lon="13.620005109506996"><ele>830.0</ele><time>2026-04-19T09:32:41.999Z</time></trkpt><trkpt lat="42.30261097411949" lon="13.619815456673914"><ele>830.0</ele><time>2026-04-19T09:32:42.999Z</time></trkpt><trkpt lat="42.302704474292184" lon="13.619644902102209"><ele>830.0</ele><time>2026-04-19T09:32:43.999Z</time></trkpt><trkpt lat="42.30280109706871" lon="13.619457977915433"><ele>830.0</ele><time>2026-04-19T09:32:44.999Z</time></trkpt><trkpt lat="42.30289835713875" lon="13.619278800556918"><ele>830.0</ele><time>2026-04-19T09:32:45.999Z</time></trkpt><trkpt lat="42.30299728614523" lon="13.61910002460376"><ele>830.0</ele><time>2026-04-19T09:32:46.999Z</time></trkpt><trkpt lat="42.303095259056775" lon="13.618918749059505"><ele>830.0</ele><time>2026-04-19T09:32:47.999Z</time></trkpt><trkpt lat="42.30319193065042" lon="13.618742646183014"><ele>830.3333333333334</ele><time>2026-04-19T09:32:48.999Z</time></trkpt><trkpt lat="42.303287237785305" lon="13.618556622402865"><ele>830.6666666666667</ele><time>2026-04-19T09:32:49.999Z</time></trkpt><trkpt lat="42.303385416039795" lon="13.618376891559379"><ele>831.0</ele><time>2026-04-19T09:32:50.999Z</time></trkpt><trkpt lat="42.30348172981203" lon="13.618200921972086"><ele>831.0</ele><time>2026-04-19T09:32:52Z</time></trkpt><trkpt lat="42.30357872944164" lon="13.618016216356299"><ele>831.0</ele><time>2026-04-19T09:32:53Z</time></trkpt><trkpt lat="42.303674386477844" lon="13.61784077736113"><ele>831.0</ele><time>2026-04-19T09:32:54Z</time></trkpt><trkpt lat="42.303773934283804" lon="13.617660696266993"><ele>831.3333333333333</ele><time>2026-04-19T09:32:55Z</time></trkpt><trkpt lat="42.30387879174856" lon="13.617484873839706"><ele>831.6666666666666</ele><time>2026-04-19T09:32:56Z</time></trkpt><trkpt lat="42.303965235751114" lon="13.617294013232243"><ele>832.0</ele><time>2026-04-19T09:32:57Z</time></trkpt><trkpt lat="42.3040621090635" lon="13.617114670236841"><ele>833.6666666666666</ele><time>2026-04-19T09:32:58Z</time></trkpt><trkpt lat="42.30415620872408" lon="13.616939918677243"><ele>835.3333333333333</ele><time>2026-04-19T09:32:59Z</time></trkpt><trkpt lat="42.30425406577171" lon="13.61675779043487"><ele>837.0</ele><time>2026-04-19T09:33:00Z</time></trkpt><trkpt lat="42.30435323631567" lon="13.616587152299905"><ele>837.0</ele><time>2026-04-19T09:33:01Z</time></trkpt><trkpt lat="42.30445113590651" lon="13.616403211369127"><ele>837.0</ele><time>2026-04-19T09:33:02Z</time></trkpt><trkpt lat="42.304549670206875" lon="13.616227468519662"><ele>837.0</ele><time>2026-04-19T09:33:03Z</time></trkpt><trkpt lat="42.304645846035235" lon="13.61604444975476"><ele>836.0</ele><time>2026-04-19T09:33:04Z</time></trkpt><trkpt lat="42.304743185338445" lon="13.615859967960498"><ele>835.0</ele><time>2026-04-19T09:33:05Z</time></trkpt><trkpt lat="42.304838961619026" lon="13.615684531306705"><ele>834.0</ele><time>2026-04-19T09:33:06Z</time></trkpt><trkpt lat="42.304937311393765" lon="13.615497465335952"><ele>834.6666666666667</ele><time>2026-04-19T09:33:07Z</time></trkpt><trkpt lat="42.30503406702578" lon="13.615316301221439"><ele>835.3333333333334</ele><time>2026-04-19T09:33:08Z</time></trkpt><trkpt lat="42.30512777183971" lon="13.615136553984"><ele>836.0</ele><time>2026-04-19T09:33:09Z</time></trkpt><trkpt lat="42.305226354305795" lon="13.614951334650984"><ele>836.0</ele><time>2026-04-19T09:33:10Z</time></trkpt><trkpt lat="42.30532537908098" lon="13.614780758611028"><ele>836.0</ele><time>2026-04-19T09:33:11Z</time></trkpt><trkpt lat="42.30542376563618" lon="13.614594139388847"><ele>836.0</ele><time>2026-04-19T09:33:12Z</time></trkpt><trkpt lat="42.30552087517447" lon="13.614414977060454"><ele>835.3333333333334</ele><time>2026-04-19T09:33:13Z</time></trkpt><trkpt lat="42.305617811139264" lon="13.614237096001474"><ele>834.6666666666667</ele><time>2026-04-19T09:33:14Z</time></trkpt><trkpt lat="42.305717000091846" lon="13.614053910041052"><ele>834.0</ele><time>2026-04-19T09:33:15Z</time></trkpt><trkpt lat="42.305812831935775" lon="13.61388018648675"><ele>834.0</ele><time>2026-04-19T09:33:16Z</time></trkpt><trkpt lat="42.305910675511605" lon="13.61369475225506"><ele>834.0</ele><time>2026-04-19T09:33:17Z</time></trkpt><trkpt lat="42.30600902376236" lon="13.613517182513077"><ele>834.0</ele><time>2026-04-19T09:33:18Z</time></trkpt><trkpt lat="42.30610655005189" lon="13.613340568984974"><ele>836.3333333333333</ele><time>2026-04-19T09:33:19Z</time></trkpt><trkpt lat="42.306203719750314" lon="13.613154472780495"><ele>838.6666666666666</ele><time>2026-04-19T09:33:20Z</time></trkpt><trkpt lat="42.306298826476095" lon="13.61297685584312"><ele>841.0</ele><time>2026-04-19T09:33:21Z</time></trkpt><trkpt lat="42.306394367547185" lon="13.612791838627066"><ele>839.3333333333333</ele><time>2026-04-19T09:33:22Z</time></trkpt><trkpt lat="42.30649376249192" lon="13.612615032045642"><ele>837.6666666666667</ele><time>2026-04-19T09:33:23Z</time></trkpt><trkpt lat="42.306590274059836" lon="13.612435538699923"><ele>836.0</ele><time>2026-04-19T09:33:24Z</time></trkpt><trkpt lat="42.30668750071916" lon="13.612253535043601"><ele>836.0</ele><time>2026-04-19T09:33:25Z</time></trkpt><trkpt lat="42.306783521439385" lon="13.612074221569792"><ele>836.0</ele><time>2026-04-19T09:33:26Z</time></trkpt><trkpt lat="42.30687881620631" lon="13.611890329652125"><ele>836.0</ele><time>2026-04-19T09:33:27Z</time></trkpt><trkpt lat="42.30697808783615" lon="13.611715260981699"><ele>836.0</ele><time>2026-04-19T09:33:28Z</time></trkpt><trkpt lat="42.307074318666096" lon="13.611535374473693"><ele>836.0</ele><time>2026-04-19T09:33:29Z</time></trkpt><trkpt lat="42.307173716172336" lon="13.611357036163215"><ele>836.0</ele><time>2026-04-19T09:33:30Z</time></trkpt><trkpt lat="42.30726891029147" lon="13.611175002283165"><ele>836.6666666666667</ele><time>2026-04-19T09:33:31Z</time></trkpt><trkpt lat="42.30736678774129" lon="13.61099267068786"><ele>837.3333333333333</ele><time>2026-04-19T09:33:32Z</time></trkpt><trkpt lat="42.30746691162718" lon="13.61081887036006"><ele>838.0</ele><time>2026-04-19T09:33:33Z</time></trkpt><trkpt lat="42.30756261450319" lon="13.61063443455655"><ele>838.0</ele><time>2026-04-19T09:33:34Z</time></trkpt><trkpt lat="42.30765649032707" lon="13.610462143577674"><ele>838.0</ele><time>2026-04-19T09:33:35Z</time></trkpt><trkpt lat="42.30774829199803" lon="13.610283918178379"><ele>838.0</ele><time>2026-04-19T09:33:36Z</time></trkpt><trkpt lat="42.30784072483686" lon="13.610115678748945"><ele>839.0</ele><time>2026-04-19T09:33:37Z</time></trkpt><trkpt lat="42.30793057920461" lon="13.60994734904432"><ele>840.0</ele><time>2026-04-19T09:33:38Z</time></trkpt><trkpt lat="42.3080204627104" lon="13.60978039041886"><ele>841.0</ele><time>2026-04-19T09:33:39Z</time></trkpt><trkpt lat="42.30811198048455" lon="13.609619727006564"><ele>841.6666666666666</ele><time>2026-04-19T09:33:40Z</time></trkpt><trkpt lat="42.308201428612236" lon="13.60945649542409"><ele>842.3333333333333</ele><time>2026-04-19T09:33:41Z</time></trkpt><trkpt lat="42.3082910808014" lon="13.60929064647653"><ele>843.0</ele><time>2026-04-19T09:33:42Z</time></trkpt><trkpt lat="42.30838023580226" lon="13.609124993364453"><ele>843.0</ele><time>2026-04-19T09:33:43Z</time></trkpt><trkpt lat="42.30847233475031" lon="13.608960620803913"><ele>843.0</ele><time>2026-04-19T09:33:44Z</time></trkpt><trkpt lat="42.30856533950824" lon="13.608795008200277"><ele>843.0</ele><time>2026-04-19T09:33:45Z</time></trkpt><trkpt lat="42.308654877578455" lon="13.60862729073328"><ele>843.0</ele><time>2026-04-19T09:33:46Z</time></trkpt><trkpt lat="42.30874404425399" lon="13.608455893371275"><ele>843.0</ele><time>2026-04-19T09:33:47Z</time></trkpt><trkpt lat="42.30883223858982" lon="13.6082851813473"><ele>843.0</ele><time>2026-04-19T09:33:48Z</time></trkpt><trkpt lat="42.30892202276133" lon="13.608116986597695"><ele>843.0</ele><time>2026-04-19T09:33:49Z</time></trkpt><trkpt lat="42.309010975099305" lon="13.607944643035527"><ele>843.0</ele><time>2026-04-19T09:33:50Z</time></trkpt><trkpt lat="42.30910349608212" lon="13.607782863240239"><ele>843.0</ele><time>2026-04-19T09:33:51Z</time></trkpt><trkpt lat="42.30919359159052" lon="13.607614676514546"><ele>843.0</ele><time>2026-04-19T09:33:52Z</time></trkpt><trkpt lat="42.309281937709045" lon="13.607446491105891"><ele>843.0</ele><time>2026-04-19T09:33:53Z</time></trkpt><trkpt lat="42.309371723756364" lon="13.607280090017753"><ele>843.0</ele><time>2026-04-19T09:33:54Z</time></trkpt><trkpt lat="42.30946163339127" lon="13.607113016084318"><ele>843.0</ele><time>2026-04-19T09:33:55Z</time></trkpt><trkpt lat="42.309551690340655" lon="13.606949878830426"><ele>843.0</ele><time>2026-04-19T09:33:56Z</time></trkpt><trkpt lat="42.309644871192994" lon="13.606783549206758"><ele>843.0</ele><time>2026-04-19T09:33:57Z</time></trkpt><trkpt lat="42.30973349859012" lon="13.606624099257715"><ele>844.0</ele><time>2026-04-19T09:33:58Z</time></trkpt><trkpt lat="42.30982265434476" lon="13.60645546845116"><ele>845.0</ele><time>2026-04-19T09:33:59Z</time></trkpt><trkpt lat="42.309910877265686" lon="13.606288880781566"><ele>846.0</ele><time>2026-04-19T09:34:00Z</time></trkpt><trkpt lat="42.31000003986067" lon="13.606121050664669"><ele>846.0</ele><time>2026-04-19T09:34:01Z</time></trkpt><trkpt lat="42.31009110851976" lon="13.605957302964677"><ele>846.0</ele><time>2026-04-19T09:34:02Z</time></trkpt><trkpt lat="42.310182634757254" lon="13.605791178120313"><ele>846.0</ele><time>2026-04-19T09:34:03Z</time></trkpt><trkpt lat="42.31027370868471" lon="13.605625885685823"><ele>846.0</ele><time>2026-04-19T09:34:04Z</time></trkpt><trkpt lat="42.31036350978314" lon="13.605459509587014"><ele>846.0</ele><time>2026-04-19T09:34:05Z</time></trkpt><trkpt lat="42.310454865021846" lon="13.605291567628521"><ele>846.0</ele><time>2026-04-19T09:34:06Z</time></trkpt><trkpt lat="42.31054599682635" lon="13.605123747267346"><ele>846.6666666666667</ele><time>2026-04-19T09:34:07Z</time></trkpt><trkpt lat="42.31063440348469" lon="13.604954673556225"><ele>847.3333333333334</ele><time>2026-04-19T09:34:08Z</time></trkpt><trkpt lat="42.310721612056405" lon="13.604783573251884"><ele>848.0</ele><time>2026-04-19T09:34:09Z</time></trkpt><trkpt lat="42.31081115924081" lon="13.604613974734919"><ele>848.0</ele><time>2026-04-19T09:34:10Z</time></trkpt><trkpt lat="42.310901927378374" lon="13.604445730254193"><ele>848.0</ele><time>2026-04-19T09:34:11Z</time></trkpt><trkpt lat="42.31099268070174" lon="13.604277874312306"><ele>848.0</ele><time>2026-04-19T09:34:12Z</time></trkpt><trkpt lat="42.311084468973384" lon="13.604112299810728"><ele>848.0</ele><time>2026-04-19T09:34:13Z</time></trkpt><trkpt lat="42.311174663228286" lon="13.60394575105282"><ele>848.0</ele><time>2026-04-19T09:34:14Z</time></trkpt><trkpt lat="42.31126617390041" lon="13.603776803189435"><ele>848.0</ele><time>2026-04-19T09:34:15Z</time></trkpt><trkpt lat="42.311355765343755" lon="13.603612011375699"><ele>849.3333333333334</ele><time>2026-04-19T09:34:16Z</time></trkpt><trkpt lat="42.31144620873719" lon="13.603445518408641"><ele>850.6666666666667</ele><time>2026-04-19T09:34:17Z</time></trkpt><trkpt lat="42.311536818550486" lon="13.603279985876549"><ele>852.0</ele><time>2026-04-19T09:34:18Z</time></trkpt><trkpt lat="42.31162518278005" lon="13.603113682932651"><ele>852.0</ele><time>2026-04-19T09:34:19Z</time></trkpt><trkpt lat="42.311711839840775" lon="13.602946232600903"><ele>852.0</ele><time>2026-04-19T09:34:20Z</time></trkpt><trkpt lat="42.31179845569066" lon="13.602778575924281"><ele>852.0</ele><time>2026-04-19T09:34:21Z</time></trkpt><trkpt lat="42.31188766779462" lon="13.602611612638452"><ele>851.6666666666667</ele><time>2026-04-19T09:34:22Z</time></trkpt><trkpt lat="42.31197921451519" lon="13.602446167400966"><ele>851.3333333333334</ele><time>2026-04-19T09:34:23Z</time></trkpt><trkpt lat="42.312068794792836" lon="13.602280147915947"><ele>851.0</ele><time>2026-04-19T09:34:24Z</time></trkpt><trkpt lat="42.312158080904524" lon="13.602113841639797"><ele>852.0</ele><time>2026-04-19T09:34:25Z</time></trkpt><trkpt lat="42.31224678300261" lon="13.601946354216048"><ele>853.0</ele><time>2026-04-19T09:34:26Z</time></trkpt><trkpt lat="42.31233497450336" lon="13.601779143308983"><ele>854.0</ele><time>2026-04-19T09:34:27Z</time></trkpt><trkpt lat="42.31242366896555" lon="13.6016109500061"><ele>854.0</ele><time>2026-04-19T09:34:28Z</time></trkpt><trkpt lat="42.312513359120544" lon="13.60144483018298"><ele>854.0</ele><time>2026-04-19T09:34:29Z</time></trkpt><trkpt lat="42.31260212508067" lon="13.601276095972588"><ele>854.0</ele><time>2026-04-19T09:34:30Z</time></trkpt><trkpt lat="42.31269122258475" lon="13.601105050733452"><ele>853.6666666666667</ele><time>2026-04-19T09:34:31Z</time></trkpt><trkpt lat="42.31278143690742" lon="13.600937403735731"><ele>853.3333333333333</ele><time>2026-04-19T09:34:32Z</time></trkpt><trkpt lat="42.312873127561666" lon="13.600769451568679"><ele>853.0</ele><time>2026-04-19T09:34:33Z</time></trkpt><trkpt lat="42.31296654126284" lon="13.600603526129133"><ele>853.0</ele><time>2026-04-19T09:34:34Z</time></trkpt><trkpt lat="42.31305612172499" lon="13.600438549360073"><ele>853.0</ele><time>2026-04-19T09:34:35Z</time></trkpt><trkpt lat="42.31314655329226" lon="13.600269566295623"><ele>853.0</ele><time>2026-04-19T09:34:36Z</time></trkpt><trkpt lat="42.31323618761828" lon="13.600105768306333"><ele>853.6666666666666</ele><time>2026-04-19T09:34:37Z</time></trkpt><trkpt lat="42.313325226710894" lon="13.599941133306308"><ele>854.3333333333333</ele><time>2026-04-19T09:34:38Z</time></trkpt><trkpt lat="42.31341491545079" lon="13.599777335286497"><ele>855.0</ele><time>2026-04-19T09:34:39Z</time></trkpt><trkpt lat="42.313500546146976" lon="13.599613702333663"><ele>855.0</ele><time>2026-04-19T09:34:40Z</time></trkpt><trkpt lat="42.313590949306466" lon="13.599448531497314"><ele>855.0</ele><time>2026-04-19T09:34:41Z</time></trkpt><trkpt lat="42.31368324237258" lon="13.599283958962909"><ele>855.0</ele><time>2026-04-19T09:34:42Z</time></trkpt><trkpt lat="42.313770205501264" lon="13.59911739447651"><ele>855.0</ele><time>2026-04-19T09:34:43Z</time></trkpt><trkpt lat="42.3138594094428" lon="13.598942234813665"><ele>855.0</ele><time>2026-04-19T09:34:44Z</time></trkpt><trkpt lat="42.31395397595325" lon="13.598770251200992"><ele>855.0</ele><time>2026-04-19T09:34:45Z</time></trkpt><trkpt lat="42.31405030346035" lon="13.598593349140884"><ele>856.3333333333333</ele><time>2026-04-19T09:34:46Z</time></trkpt><trkpt lat="42.314157981626" lon="13.598399699303485"><ele>857.6666666666666</ele><time>2026-04-19T09:34:47Z</time></trkpt><trkpt lat="42.314266143028185" lon="13.598201443993858"><ele>859.0</ele><time>2026-04-19T09:34:48Z</time></trkpt><trkpt lat="42.31437485789053" lon="13.597998114715187"><ele>859.6666666666666</ele><time>2026-04-19T09:34:49Z</time></trkpt><trkpt lat="42.314489078366044" lon="13.597784383253511"><ele>860.3333333333333</ele><time>2026-04-19T09:34:50Z</time></trkpt><trkpt lat="42.31460752104855" lon="13.597568821800204"><ele>861.0</ele><time>2026-04-19T09:34:51Z</time></trkpt><trkpt lat="42.31472194849339" lon="13.597357264284598"><ele>861.3333333333333</ele><time>2026-04-19T09:34:52Z</time></trkpt><trkpt lat="42.314833384430244" lon="13.597150680304315"><ele>861.6666666666666</ele><time>2026-04-19T09:34:53Z</time></trkpt><trkpt lat="42.31493956265699" lon="13.596949798726287"><ele>862.0</ele><time>2026-04-19T09:34:54Z</time></trkpt><trkpt lat="42.31504130774368" lon="13.596756823699966"><ele>863.0</ele><time>2026-04-19T09:34:55Z</time></trkpt><trkpt lat="42.31514453971777" lon="13.596566827755508"><ele>864.0</ele><time>2026-04-19T09:34:56Z</time></trkpt><trkpt lat="42.315248270144394" lon="13.59637589810087"><ele>865.0</ele><time>2026-04-19T09:34:57Z</time></trkpt><trkpt lat="42.31534810896386" lon="13.596189834747918"><ele>866.0</ele><time>2026-04-19T09:34:58Z</time></trkpt><trkpt lat="42.31544111367556" lon="13.596007469713093"><ele>867.0</ele><time>2026-04-19T09:34:59Z</time></trkpt><trkpt lat="42.31553594405535" lon="13.595824343897974"><ele>868.0</ele><time>2026-04-19T09:35:00Z</time></trkpt><trkpt lat="42.315638280662235" lon="13.595640571846298"><ele>868.0</ele><time>2026-04-19T09:35:01Z</time></trkpt><trkpt lat="42.31573829853678" lon="13.595464071696188"><ele>868.0</ele><time>2026-04-19T09:35:02Z</time></trkpt><trkpt lat="42.315835882828566" lon="13.595282540528265"><ele>868.0</ele><time>2026-04-19T09:35:03Z</time></trkpt><trkpt lat="42.31593348692795" lon="13.595093068422678"><ele>869.3333333333333</ele><time>2026-04-19T09:35:04Z</time></trkpt><trkpt lat="42.316031366410044" lon="13.594908628403383"><ele>870.6666666666667</ele><time>2026-04-19T09:35:05Z</time></trkpt><trkpt lat="42.3161315628105" lon="13.594726245589694"><ele>872.0</ele><time>2026-04-19T09:35:06Z</time></trkpt><trkpt lat="42.31623106682092" lon="13.594539636472167"><ele>872.3333333333334</ele><time>2026-04-19T09:35:07Z</time></trkpt><trkpt lat="42.31632941248871" lon="13.594354107749991"><ele>872.6666666666667</ele><time>2026-04-19T09:35:08Z</time></trkpt><trkpt lat="42.316432210828864" lon="13.594164125185552"><ele>873.0</ele><time>2026-04-19T09:35:09Z</time></trkpt><trkpt lat="42.316533531199035" lon="13.593977113621715"><ele>873.0</ele><time>2026-04-19T09:35:10Z</time></trkpt><trkpt lat="42.316635126636605" lon="13.593788261574945"><ele>873.0</ele><time>2026-04-19T09:35:11Z</time></trkpt><trkpt lat="42.31673366543073" lon="13.59359762948557"><ele>873.0</ele><time>2026-04-19T09:35:12Z</time></trkpt><trkpt lat="42.31683705436819" lon="13.593409298582094"><ele>873.0</ele><time>2026-04-19T09:35:13Z</time></trkpt><trkpt lat="42.316941548704406" lon="13.593222829597826"><ele>873.0</ele><time>2026-04-19T09:35:14Z</time></trkpt><trkpt lat="42.31704460838637" lon="13.593029808799994"><ele>873.0</ele><time>2026-04-19T09:35:15Z</time></trkpt><trkpt lat="42.31714780037579" lon="13.59283560604568"><ele>873.6666666666667</ele><time>2026-04-19T09:35:16Z</time></trkpt><trkpt lat="42.317250884342045" lon="13.592641153416766"><ele>874.3333333333334</ele><time>2026-04-19T09:35:17Z</time></trkpt><trkpt lat="42.31735505064779" lon="13.592446371007162"><ele>875.0</ele><time>2026-04-19T09:35:18Z</time></trkpt><trkpt lat="42.317460878035256" lon="13.592248913559969"><ele>875.0</ele><time>2026-04-19T09:35:19Z</time></trkpt><trkpt lat="42.31756814512718" lon="13.592047401967134"><ele>875.0</ele><time>2026-04-19T09:35:20Z</time></trkpt><trkpt lat="42.31767303232756" lon="13.591854813407029"><ele>875.0</ele><time>2026-04-19T09:35:21Z</time></trkpt><trkpt lat="42.31778102863444" lon="13.59165023550815"><ele>876.3333333333334</ele><time>2026-04-19T09:35:22Z</time></trkpt><trkpt lat="42.317888887093844" lon="13.591453589184555"><ele>877.6666666666667</ele><time>2026-04-19T09:35:23Z</time></trkpt><trkpt lat="42.3179971995246" lon="13.591253759720038"><ele>879.0</ele><time>2026-04-19T09:35:24Z</time></trkpt><trkpt lat="42.318101134559164" lon="13.591056882875595"><ele>880.6666666666667</ele><time>2026-04-19T09:35:25Z</time></trkpt><trkpt lat="42.31820387748321" lon="13.590861071930663"><ele>882.3333333333334</ele><time>2026-04-19T09:35:26Z</time></trkpt><trkpt lat="42.31832280466411" lon="13.590678704410443"><ele>884.0</ele><time>2026-04-19T09:35:27Z</time></trkpt><trkpt lat="42.318414161506254" lon="13.590472870923142"><ele>885.0</ele><time>2026-04-19T09:35:28Z</time></trkpt><trkpt lat="42.31851475282894" lon="13.590284962747813"><ele>886.0</ele><time>2026-04-19T09:35:29Z</time></trkpt><trkpt lat="42.31863334676619" lon="13.590102770944583"><ele>887.0</ele><time>2026-04-19T09:35:30Z</time></trkpt><trkpt lat="42.31873377736154" lon="13.58991603109301"><ele>887.0</ele><time>2026-04-19T09:35:31Z</time></trkpt><trkpt lat="42.31882419019559" lon="13.589715543514641"><ele>887.0</ele><time>2026-04-19T09:35:32Z</time></trkpt><trkpt lat="42.318921051509726" lon="13.589535984643678"><ele>887.0</ele><time>2026-04-19T09:35:33Z</time></trkpt><trkpt lat="42.31901457146409" lon="13.589363558550339"><ele>887.75</ele><time>2026-04-19T09:35:34Z</time></trkpt><trkpt lat="42.319106928925116" lon="13.589199139628775"><ele>888.5</ele><time>2026-04-19T09:35:35Z</time></trkpt><trkpt lat="42.31919195878112" lon="13.589033792012122"><ele>889.25</ele><time>2026-04-19T09:35:36Z</time></trkpt><trkpt lat="42.31927471829001" lon="13.588883025470818"><ele>890.0</ele><time>2026-04-19T09:35:37Z</time></trkpt><trkpt lat="42.319352771491424" lon="13.588738166679898"><ele>890.0</ele><time>2026-04-19T09:35:38Z</time></trkpt><trkpt lat="42.31943101558588" lon="13.588593197950463"><ele>890.0</ele><time>2026-04-19T09:35:39Z</time></trkpt><trkpt lat="42.31951503607902" lon="13.588439870173985"><ele>890.0</ele><time>2026-04-19T09:35:40Z</time></trkpt><trkpt lat="42.31959729716224" lon="13.58827293920221"><ele>890.0</ele><time>2026-04-19T09:35:41Z</time></trkpt><trkpt lat="42.31967161859277" lon="13.588075153060316"><ele>890.0</ele><time>2026-04-19T09:35:42Z</time></trkpt><trkpt lat="42.319721042463975" lon="13.587857227427358"><ele>890.0</ele><time>2026-04-19T09:35:43Z</time></trkpt><trkpt lat="42.31974771104435" lon="13.587643660614363"><ele>890.0</ele><time>2026-04-19T09:35:44Z</time></trkpt><trkpt lat="42.31975290248948" lon="13.587447806614314"><ele>890.0</ele><time>2026-04-19T09:35:45Z</time></trkpt><trkpt lat="42.31974366535731" lon="13.587268528265476"><ele>890.0</ele><time>2026-04-19T09:35:46Z</time></trkpt><trkpt lat="42.319727896648494" lon="13.587098259903415"><ele>890.0</ele><time>2026-04-19T09:35:47Z</time></trkpt><trkpt lat="42.31970709310832" lon="13.586924206390155"><ele>890.0</ele><time>2026-04-19T09:35:48Z</time></trkpt><trkpt lat="42.319681232985154" lon="13.586740776570906"><ele>889.0</ele><time>2026-04-19T09:35:49Z</time></trkpt><trkpt lat="42.31964700383288" lon="13.586544421149403"><ele>888.0</ele><time>2026-04-19T09:35:50Z</time></trkpt><trkpt lat="42.31961021101243" lon="13.586337610400042"><ele>887.0</ele><time>2026-04-19T09:35:51Z</time></trkpt><trkpt lat="42.31957172584308" lon="13.586146028517806"><ele>886.75</ele><time>2026-04-19T09:35:52Z</time></trkpt><trkpt lat="42.31952909204406" lon="13.585969494592092"><ele>886.5</ele><time>2026-04-19T09:35:53Z</time></trkpt><trkpt lat="42.31947167045056" lon="13.58581468582758"><ele>886.25</ele><time>2026-04-19T09:35:54Z</time></trkpt><trkpt lat="42.31938889589365" lon="13.585683042668764"><ele>886.0</ele><time>2026-04-19T09:35:55Z</time></trkpt><trkpt lat="42.31928395380766" lon="13.585559818923507"><ele>886.0</ele><time>2026-04-19T09:35:56Z</time></trkpt><trkpt lat="42.3191644136813" lon="13.585445322755387"><ele>886.0</ele><time>2026-04-19T09:35:57Z</time></trkpt><trkpt lat="42.31904621639531" lon="13.585327188319726"><ele>886.0</ele><time>2026-04-19T09:35:58Z</time></trkpt><trkpt lat="42.31892419900872" lon="13.585215690075826"><ele>886.0</ele><time>2026-04-19T09:35:59Z</time></trkpt><trkpt lat="42.31881063874395" lon="13.585105045458041"><ele>886.0</ele><time>2026-04-19T09:36:00Z</time></trkpt><trkpt lat="42.3187052343376" lon="13.584982038137497"><ele>886.0</ele><time>2026-04-19T09:36:01Z</time></trkpt><trkpt lat="42.31862649396543" lon="13.584828638435265"><ele>886.0</ele><time>2026-04-19T09:36:02Z</time></trkpt><trkpt lat="42.31855184906657" lon="13.58467750553116"><ele>886.0</ele><time>2026-04-19T09:36:03Z</time></trkpt><trkpt lat="42.31847941034131" lon="13.584519906368985"><ele>886.25</ele><time>2026-04-19T09:36:04Z</time></trkpt><trkpt lat="42.31839829339138" lon="13.584359838912663"><ele>886.5</ele><time>2026-04-19T09:36:05Z</time></trkpt><trkpt lat="42.31833333309325" lon="13.584193643750014"><ele>886.75</ele><time>2026-04-19T09:36:06Z</time></trkpt><trkpt lat="42.31826986809638" lon="13.584040676402482"><ele>887.0</ele><time>2026-04-19T09:36:07Z</time></trkpt><trkpt lat="42.31822182672472" lon="13.583882470425335"><ele>887.0</ele><time>2026-04-19T09:36:08Z</time></trkpt><trkpt lat="42.31816308672484" lon="13.583735605357116"><ele>887.0</ele><time>2026-04-19T09:36:09Z</time></trkpt><trkpt lat="42.31809115989496" lon="13.583597403902214"><ele>887.0</ele><time>2026-04-19T09:36:10Z</time></trkpt><trkpt lat="42.318034296110355" lon="13.583450636455622"><ele>887.0</ele><time>2026-04-19T09:36:11Z</time></trkpt><trkpt lat="42.317975629513" lon="13.583305548607642"><ele>886.0</ele><time>2026-04-19T09:36:12Z</time></trkpt><trkpt lat="42.31792161833851" lon="13.583166819759263"><ele>885.0</ele><time>2026-04-19T09:36:13Z</time></trkpt><trkpt lat="42.31787108189836" lon="13.583029134508989"><ele>884.0</ele><time>2026-04-19T09:36:14Z</time></trkpt><trkpt lat="42.31781969543994" lon="13.582894020681323"><ele>883.0</ele><time>2026-04-19T09:36:15Z</time></trkpt><trkpt lat="42.31776597865075" lon="13.582759187298988"><ele>883.0</ele><time>2026-04-19T09:36:16Z</time></trkpt><trkpt lat="42.317713241555595" lon="13.582624676456826"><ele>883.0</ele><time>2026-04-19T09:36:17Z</time></trkpt><trkpt lat="42.31766148236158" lon="13.58248912165447"><ele>883.0</ele><time>2026-04-19T09:36:18Z</time></trkpt><trkpt lat="42.31760863146696" lon="13.582356634569187"><ele>883.0</ele><time>2026-04-19T09:36:19Z</time></trkpt><trkpt lat="42.317551799427925" lon="13.58222747481717"><ele>883.0</ele><time>2026-04-19T09:36:20Z</time></trkpt><trkpt lat="42.31749565130476" lon="13.582100011518426"><ele>883.5999999999999</ele><time>2026-04-19T09:36:21Z</time></trkpt><trkpt lat="42.317443474573324" lon="13.581964973463402"><ele>884.1999999999999</ele><time>2026-04-19T09:36:22Z</time></trkpt><trkpt lat="42.317391031322494" lon="13.581830370344536"><ele>884.8</ele><time>2026-04-19T09:36:23Z</time></trkpt><trkpt lat="42.31733805898247" lon="13.581697325443237"><ele>885.4</ele><time>2026-04-19T09:36:24Z</time></trkpt><trkpt lat="42.31728340875721" lon="13.58156586303954"><ele>886.0</ele><time>2026-04-19T09:36:25Z</time></trkpt><trkpt lat="42.31722814523925" lon="13.581437124734649"><ele>883.75</ele><time>2026-04-19T09:36:26Z</time></trkpt><trkpt lat="42.31717712560364" lon="13.581300084004303"><ele>881.5</ele><time>2026-04-19T09:36:27Z</time></trkpt><trkpt lat="42.31712671214877" lon="13.581166066913115"><ele>879.25</ele><time>2026-04-19T09:36:28Z</time></trkpt><trkpt lat="42.31707844827441" lon="13.581031382641356"><ele>877.0</ele><time>2026-04-19T09:36:29Z</time></trkpt><trkpt lat="42.31701731691085" lon="13.580891409356944"><ele>877.0</ele><time>2026-04-19T09:36:30Z</time></trkpt><trkpt lat="42.316957171539315" lon="13.580735028790885"><ele>877.0</ele><time>2026-04-19T09:36:31Z</time></trkpt><trkpt lat="42.31689485035442" lon="13.580568223979789"><ele>877.0</ele><time>2026-04-19T09:36:32Z</time></trkpt><trkpt lat="42.31682469501961" lon="13.580395890682345"><ele>877.0</ele><time>2026-04-19T09:36:33Z</time></trkpt><trkpt lat="42.31674837637578" lon="13.580220686156109"><ele>877.0</ele><time>2026-04-19T09:36:34Z</time></trkpt><trkpt lat="42.31667385000067" lon="13.580047083986974"><ele>877.0</ele><time>2026-04-19T09:36:35Z</time></trkpt><trkpt lat="42.31660709906434" lon="13.579866521350763"><ele>877.0</ele><time>2026-04-19T09:36:36Z</time></trkpt><trkpt lat="42.31655048205884" lon="13.57965406292297"><ele>877.0</ele><time>2026-04-19T09:36:37Z</time></trkpt><trkpt lat="42.316497804613384" lon="13.5793947080191"><ele>877.0</ele><time>2026-04-19T09:36:38Z</time></trkpt><trkpt lat="42.316447262732" lon="13.57909196561041"><ele>877.0</ele><time>2026-04-19T09:36:39Z</time></trkpt><trkpt lat="42.316401126421106" lon="13.578769528144397"><ele>872.5</ele><time>2026-04-19T09:36:40Z</time></trkpt><trkpt lat="42.31635578394951" lon="13.578447810412362"><ele>868.0</ele><time>2026-04-19T09:36:41Z</time></trkpt><trkpt lat="42.31630738500715" lon="13.578131401869298"><ele>868.0</ele><time>2026-04-19T09:36:42Z</time></trkpt><trkpt lat="42.31625612539751" lon="13.577819304457062"><ele>868.0</ele><time>2026-04-19T09:36:43Z</time></trkpt><trkpt lat="42.31620381423592" lon="13.577517741005558"><ele>868.0</ele><time>2026-04-19T09:36:44Z</time></trkpt><trkpt lat="42.316157252057785" lon="13.577220046266774"><ele>868.0</ele><time>2026-04-19T09:36:45Z</time></trkpt><trkpt lat="42.316115914307424" lon="13.57693333333355"><ele>868.0</ele><time>2026-04-19T09:36:46Z</time></trkpt><trkpt lat="42.316077770853596" lon="13.576656227107057"><ele>868.6666666666666</ele><time>2026-04-19T09:36:47Z</time></trkpt><trkpt lat="42.316038586901406" lon="13.576390423869343"><ele>869.3333333333333</ele><time>2026-04-19T09:36:48Z</time></trkpt><trkpt lat="42.31600198964578" lon="13.576141189808228"><ele>870.0</ele><time>2026-04-19T09:36:49Z</time></trkpt><trkpt lat="42.315961916388304" lon="13.575903628191663"><ele>870.0</ele><time>2026-04-19T09:36:50Z</time></trkpt><trkpt lat="42.31592164671284" lon="13.575670211152312"><ele>870.0</ele><time>2026-04-19T09:36:51Z</time></trkpt><trkpt lat="42.31588084533899" lon="13.575416216262047"><ele>870.0</ele><time>2026-04-19T09:36:52Z</time></trkpt><trkpt lat="42.31584444875955" lon="13.575166290406758"><ele>869.6666666666667</ele><time>2026-04-19T09:36:53Z</time></trkpt><trkpt lat="42.315807714033426" lon="13.574914279055234"><ele>869.3333333333334</ele><time>2026-04-19T09:36:54Z</time></trkpt><trkpt lat="42.315769625379005" lon="13.574653021003124"><ele>869.0</ele><time>2026-04-19T09:36:55Z</time></trkpt><trkpt lat="42.31572772443143" lon="13.574381441904693"><ele>869.0</ele><time>2026-04-19T09:36:56Z</time></trkpt><trkpt lat="42.31568475017545" lon="13.57410926529477"><ele>869.0</ele><time>2026-04-19T09:36:57Z</time></trkpt><trkpt lat="42.315639832593455" lon="13.573832277145462"><ele>869.0</ele><time>2026-04-19T09:36:58Z</time></trkpt><trkpt lat="42.31559660005893" lon="13.573541136486922"><ele>868.0</ele><time>2026-04-19T09:36:59Z</time></trkpt><trkpt lat="42.315550729978916" lon="13.57326927448519"><ele>867.0</ele><time>2026-04-19T09:37:00Z</time></trkpt><trkpt lat="42.31550804681188" lon="13.572988710109387"><ele>866.0</ele><time>2026-04-19T09:37:01Z</time></trkpt><trkpt lat="42.31546558099916" lon="13.572711227360543"><ele>866.0</ele><time>2026-04-19T09:37:02Z</time></trkpt><trkpt lat="42.315421998431006" lon="13.572438204715276"><ele>866.0</ele><time>2026-04-19T09:37:03Z</time></trkpt><trkpt lat="42.31537945181078" lon="13.572163710351154"><ele>866.0</ele><time>2026-04-19T09:37:04Z</time></trkpt><trkpt lat="42.31533833545622" lon="13.571893203805539"><ele>866.0</ele><time>2026-04-19T09:37:05Z</time></trkpt><trkpt lat="42.31529717438097" lon="13.571625535253279"><ele>866.0</ele><time>2026-04-19T09:37:06Z</time></trkpt><trkpt lat="42.31525475119848" lon="13.571355611573065"><ele>866.0</ele><time>2026-04-19T09:37:07Z</time></trkpt><trkpt lat="42.315210601716544" lon="13.571082761260076"><ele>866.0</ele><time>2026-04-19T09:37:08Z</time></trkpt><trkpt lat="42.315164445214535" lon="13.570814235596588"><ele>866.0</ele><time>2026-04-19T09:37:09Z</time></trkpt><trkpt lat="42.31511759206456" lon="13.570543885474564"><ele>866.0</ele><time>2026-04-19T09:37:10Z</time></trkpt><trkpt lat="42.31507377633924" lon="13.570272461003615"><ele>865.0</ele><time>2026-04-19T09:37:11Z</time></trkpt><trkpt lat="42.31503178906846" lon="13.569998847463866"><ele>864.0</ele><time>2026-04-19T09:37:12Z</time></trkpt><trkpt lat="42.3149894191515" lon="13.56972788600326"><ele>863.0</ele><time>2026-04-19T09:37:13Z</time></trkpt><trkpt lat="42.31494726631456" lon="13.569454327166566"><ele>863.0</ele><time>2026-04-19T09:37:14Z</time></trkpt><trkpt lat="42.31492167872023" lon="13.569179628862962"><ele>863.0</ele><time>2026-04-19T09:37:15Z</time></trkpt><trkpt lat="42.31487973597792" lon="13.568907024096903"><ele>863.0</ele><time>2026-04-19T09:37:16Z</time></trkpt><trkpt lat="42.314822001750294" lon="13.568639610073864"><ele>863.6666666666667</ele><time>2026-04-19T09:37:17Z</time></trkpt><trkpt lat="42.31478197323319" lon="13.568369320062542"><ele>864.3333333333333</ele><time>2026-04-19T09:37:18Z</time></trkpt><trkpt lat="42.31473925737547" lon="13.56809579721331"><ele>865.0</ele><time>2026-04-19T09:37:19Z</time></trkpt><trkpt lat="42.31469808144236" lon="13.567827304424211"><ele>863.0</ele><time>2026-04-19T09:37:20Z</time></trkpt><trkpt lat="42.31465662704548" lon="13.567557249058636"><ele>861.0</ele><time>2026-04-19T09:37:21Z</time></trkpt><trkpt lat="42.31461587746882" lon="13.567283225926133"><ele>859.0</ele><time>2026-04-19T09:37:22Z</time></trkpt><trkpt lat="42.31457428266987" lon="13.56699727804782"><ele>859.0</ele><time>2026-04-19T09:37:23Z</time></trkpt><trkpt lat="42.314527259215026" lon="13.566684266807254"><ele>859.0</ele><time>2026-04-19T09:37:24Z</time></trkpt><trkpt lat="42.31447303998091" lon="13.566349436969618"><ele>860.5</ele><time>2026-04-19T09:37:25Z</time></trkpt><trkpt lat="42.314414869489646" lon="13.566005430071826"><ele>862.0</ele><time>2026-04-19T09:37:26Z</time></trkpt><trkpt lat="42.31435340156591" lon="13.56565637759508"><ele>862.5</ele><time>2026-04-19T09:37:27Z</time></trkpt><trkpt lat="42.31430051724277" lon="13.565308467923087"><ele>863.0</ele><time>2026-04-19T09:37:28Z</time></trkpt><trkpt lat="42.31424674347391" lon="13.5649701995409"><ele>863.0</ele><time>2026-04-19T09:37:29Z</time></trkpt><trkpt lat="42.31419568334445" lon="13.564643540042086"><ele>863.0</ele><time>2026-04-19T09:37:30Z</time></trkpt><trkpt lat="42.31414706043198" lon="13.564324235245266"><ele>864.0</ele><time>2026-04-19T09:37:31Z</time></trkpt><trkpt lat="42.31410153452998" lon="13.564014820083035"><ele>865.0</ele><time>2026-04-19T09:37:32Z</time></trkpt><trkpt lat="42.3140633424805" lon="13.56372468684517"><ele>866.0</ele><time>2026-04-19T09:37:33Z</time></trkpt><trkpt lat="42.31403537464892" lon="13.56342029485804"><ele>867.0</ele><time>2026-04-19T09:37:34Z</time></trkpt><trkpt lat="42.31403473862676" lon="13.563099889996808"><ele>865.5</ele><time>2026-04-19T09:37:35Z</time></trkpt><trkpt lat="42.31406504772432" lon="13.56274944643375"><ele>864.0</ele><time>2026-04-19T09:37:36Z</time></trkpt><trkpt lat="42.31412093071009" lon="13.562378732629051"><ele>862.0</ele><time>2026-04-19T09:37:37Z</time></trkpt><trkpt lat="42.31419539174501" lon="13.562010019890248"><ele>860.0</ele><time>2026-04-19T09:37:38Z</time></trkpt><trkpt lat="42.314270147391014" lon="13.56165924929244"><ele>860.0</ele><time>2026-04-19T09:37:39Z</time></trkpt><trkpt lat="42.31433275529054" lon="13.561327128694545"><ele>860.0</ele><time>2026-04-19T09:37:40Z</time></trkpt><trkpt lat="42.3143857008296" lon="13.561017849546644"><ele>857.0</ele><time>2026-04-19T09:37:41Z</time></trkpt><trkpt lat="42.31444073141123" lon="13.560717043293645"><ele>854.0</ele><time>2026-04-19T09:37:42Z</time></trkpt><trkpt lat="42.3145006817231" lon="13.560418285078086"><ele>851.0</ele><time>2026-04-19T09:37:43Z</time></trkpt><trkpt lat="42.314567055374965" lon="13.56011494414779"><ele>848.0</ele><time>2026-04-19T09:37:44Z</time></trkpt><trkpt lat="42.31465136621392" lon="13.559803079257485"><ele>850.5</ele><time>2026-04-19T09:37:45Z</time></trkpt><trkpt lat="42.314773437057276" lon="13.55947446285449"><ele>853.0</ele><time>2026-04-19T09:37:46Z</time></trkpt><trkpt lat="42.31491060622251" lon="13.559141050255992"><ele>853.0</ele><time>2026-04-19T09:37:47Z</time></trkpt><trkpt lat="42.31504360245948" lon="13.55881376903378"><ele>853.0</ele><time>2026-04-19T09:37:48Z</time></trkpt><trkpt lat="42.31516765173686" lon="13.558497094567246"><ele>849.0</ele><time>2026-04-19T09:37:49Z</time></trkpt><trkpt lat="42.31529116354442" lon="13.558190347678993"><ele>845.0</ele><time>2026-04-19T09:37:50Z</time></trkpt><trkpt lat="42.31540576831864" lon="13.557892106399622"><ele>845.0</ele><time>2026-04-19T09:37:51Z</time></trkpt><trkpt lat="42.31551976255463" lon="13.557593181670148"><ele>845.0</ele><time>2026-04-19T09:37:52Z</time></trkpt><trkpt lat="42.315635792538565" lon="13.557295421672961"><ele>841.5</ele><time>2026-04-19T09:37:53Z</time></trkpt><trkpt lat="42.31575047648005" lon="13.55700489177862"><ele>838.0</ele><time>2026-04-19T09:37:54Z</time></trkpt><trkpt lat="42.31586288893688" lon="13.556721368119746"><ele>838.0</ele><time>2026-04-19T09:37:55Z</time></trkpt><trkpt lat="42.31597220020425" lon="13.556440479270897"><ele>838.0</ele><time>2026-04-19T09:37:56Z</time></trkpt><trkpt lat="42.316080114356524" lon="13.55617388367312"><ele>834.5</ele><time>2026-04-19T09:37:57Z</time></trkpt><trkpt lat="42.316197768710296" lon="13.555908733082445"><ele>831.0</ele><time>2026-04-19T09:37:58Z</time></trkpt><trkpt lat="42.316332983016764" lon="13.55564687271547"><ele>832.5</ele><time>2026-04-19T09:37:59Z</time></trkpt><trkpt lat="42.31647093061031" lon="13.555396314592503"><ele>834.0</ele><time>2026-04-19T09:38:00Z</time></trkpt><trkpt lat="42.31661410683663" lon="13.55516261647361"><ele>830.0</ele><time>2026-04-19T09:38:01Z</time></trkpt><trkpt lat="42.316775271294425" lon="13.55491165321984"><ele>826.0</ele><time>2026-04-19T09:38:02Z</time></trkpt><trkpt lat="42.316950129562606" lon="13.55466021456557"><ele>826.0</ele><time>2026-04-19T09:38:03Z</time></trkpt><trkpt lat="42.317146899906305" lon="13.554407340644737"><ele>826.0</ele><time>2026-04-19T09:38:04Z</time></trkpt><trkpt lat="42.31735457399741" lon="13.55415130266076"><ele>826.0</ele><time>2026-04-19T09:38:05Z</time></trkpt><trkpt lat="42.317562390590695" lon="13.553888065478457"><ele>826.0</ele><time>2026-04-19T09:38:06Z</time></trkpt><trkpt lat="42.31777384095923" lon="13.553622546311644"><ele>827.0</ele><time>2026-04-19T09:38:07Z</time></trkpt><trkpt lat="42.317986365129215" lon="13.553359500338344"><ele>828.0</ele><time>2026-04-19T09:38:08Z</time></trkpt><trkpt lat="42.31819297597203" lon="13.553099566560475"><ele>822.5</ele><time>2026-04-19T09:38:09Z</time></trkpt><trkpt lat="42.31839129742302" lon="13.552848160930319"><ele>817.0</ele><time>2026-04-19T09:38:10Z</time></trkpt><trkpt lat="42.31858407720202" lon="13.55260353163675"><ele>817.0</ele><time>2026-04-19T09:38:11Z</time></trkpt><trkpt lat="42.31877391631894" lon="13.552360103490976"><ele>817.0</ele><time>2026-04-19T09:38:12Z</time></trkpt><trkpt lat="42.31896920487606" lon="13.552118379172569"><ele>811.5</ele><time>2026-04-19T09:38:13Z</time></trkpt><trkpt lat="42.31916810325553" lon="13.551875673634035"><ele>806.0</ele><time>2026-04-19T09:38:14Z</time></trkpt><trkpt lat="42.319367010061264" lon="13.551630295929465"><ele>806.0</ele><time>2026-04-19T09:38:15Z</time></trkpt><trkpt lat="42.31956310435885" lon="13.551384212034229"><ele>806.0</ele><time>2026-04-19T09:38:16Z</time></trkpt><trkpt lat="42.3197553988299" lon="13.55113546520231"><ele>803.0</ele><time>2026-04-19T09:38:17Z</time></trkpt><trkpt lat="42.31994837158436" lon="13.550884147032423"><ele>800.0</ele><time>2026-04-19T09:38:18Z</time></trkpt><trkpt lat="42.32013901511808" lon="13.550632675302325"><ele>800.0</ele><time>2026-04-19T09:38:19Z</time></trkpt><trkpt lat="42.32032946852369" lon="13.550391116293723"><ele>800.0</ele><time>2026-04-19T09:38:20Z</time></trkpt><trkpt lat="42.32052224256918" lon="13.550153524587145"><ele>797.0</ele><time>2026-04-19T09:38:21Z</time></trkpt><trkpt lat="42.32071238154451" lon="13.549919528422707"><ele>794.0</ele><time>2026-04-19T09:38:22Z</time></trkpt><trkpt lat="42.32089464198467" lon="13.549692341536739"><ele>789.5</ele><time>2026-04-19T09:38:23Z</time></trkpt><trkpt lat="42.321068911403884" lon="13.549476703428851"><ele>785.0</ele><time>2026-04-19T09:38:24Z</time></trkpt><trkpt lat="42.32123722120683" lon="13.549268175898582"><ele>790.5</ele><time>2026-04-19T09:38:25Z</time></trkpt><trkpt lat="42.32140416978493" lon="13.549057690835363"><ele>796.0</ele><time>2026-04-19T09:38:26Z</time></trkpt><trkpt lat="42.321564708258" lon="13.54883765320511"><ele>788.0</ele><time>2026-04-19T09:38:27Z</time></trkpt><trkpt lat="42.32171200246302" lon="13.548597542922646"><ele>780.0</ele><time>2026-04-19T09:38:28Z</time></trkpt><trkpt lat="42.32184426247509" lon="13.548332443729809"><ele>780.0</ele><time>2026-04-19T09:38:29Z</time></trkpt><trkpt lat="42.32195819342559" lon="13.548047600262166"><ele>780.0</ele><time>2026-04-19T09:38:30Z</time></trkpt><trkpt lat="42.32206087995342" lon="13.547748815338974"><ele>774.5</ele><time>2026-04-19T09:38:31Z</time></trkpt><trkpt lat="42.32214602545116" lon="13.547437248124579"><ele>769.0</ele><time>2026-04-19T09:38:32Z</time></trkpt><trkpt lat="42.32221097053347" lon="13.54709946594886"><ele>769.0</ele><time>2026-04-19T09:38:33Z</time></trkpt><trkpt lat="42.322261716296076" lon="13.546755165931298"><ele>769.0</ele><time>2026-04-19T09:38:34Z</time></trkpt><trkpt lat="42.32231245568021" lon="13.546407400826423"><ele>769.0</ele><time>2026-04-19T09:38:35Z</time></trkpt><trkpt lat="42.32236286080489" lon="13.546071632824756"><ele>769.0</ele><time>2026-04-19T09:38:36Z</time></trkpt><trkpt lat="42.32242704959717" lon="13.545761526250166"><ele>769.0</ele><time>2026-04-19T09:38:37Z</time></trkpt><trkpt lat="42.322457863986486" lon="13.545463860864805"><ele>769.0</ele><time>2026-04-19T09:38:38Z</time></trkpt><trkpt lat="42.322516210065345" lon="13.545180180889972"><ele>769.0</ele><time>2026-04-19T09:38:39Z</time></trkpt><trkpt lat="42.322558067813155" lon="13.54490725938282"><ele>768.0</ele><time>2026-04-19T09:38:40Z</time></trkpt><trkpt lat="42.32259890555138" lon="13.54464110008002"><ele>767.0</ele><time>2026-04-19T09:38:41Z</time></trkpt><trkpt lat="42.32262579550914" lon="13.544385982048189"><ele>766.0</ele><time>2026-04-19T09:38:42Z</time></trkpt><trkpt lat="42.322666500959556" lon="13.544144630456675"><ele>765.0</ele><time>2026-04-19T09:38:43Z</time></trkpt><trkpt lat="42.322705118375666" lon="13.54390481275011"><ele>764.0</ele><time>2026-04-19T09:38:44Z</time></trkpt><trkpt lat="42.32274170752921" lon="13.543661229169482"><ele>763.0</ele><time>2026-04-19T09:38:45Z</time></trkpt><trkpt lat="42.32277665974096" lon="13.543423613134186"><ele>761.6666666666667</ele><time>2026-04-19T09:38:46Z</time></trkpt><trkpt lat="42.322809826539384" lon="13.54318530792518"><ele>760.3333333333334</ele><time>2026-04-19T09:38:47Z</time></trkpt><trkpt lat="42.32284215014415" lon="13.542951870021195"><ele>759.0</ele><time>2026-04-19T09:38:48Z</time></trkpt><trkpt lat="42.32287135262479" lon="13.542723678519593"><ele>757.6666666666666</ele><time>2026-04-19T09:38:49Z</time></trkpt><trkpt lat="42.32289423102448" lon="13.542489640233581"><ele>756.3333333333333</ele><time>2026-04-19T09:38:50Z</time></trkpt><trkpt lat="42.32290917469298" lon="13.54226120526855"><ele>755.0</ele><time>2026-04-19T09:38:51Z</time></trkpt><trkpt lat="42.32292324559464" lon="13.54203546037809"><ele>754.0</ele><time>2026-04-19T09:38:52Z</time></trkpt><trkpt lat="42.322926861399594" lon="13.541808508729424"><ele>753.0</ele><time>2026-04-19T09:38:53Z</time></trkpt><trkpt lat="42.3229279876769" lon="13.541581447179071"><ele>752.0</ele><time>2026-04-19T09:38:54Z</time></trkpt><trkpt lat="42.32292164146162" lon="13.54135059938496"><ele>753.3333333333333</ele><time>2026-04-19T09:38:55Z</time></trkpt><trkpt lat="42.322917068948485" lon="13.541117930940743"><ele>754.6666666666666</ele><time>2026-04-19T09:38:56Z</time></trkpt><trkpt lat="42.32290681155985" lon="13.540874790741409"><ele>756.0</ele><time>2026-04-19T09:38:57Z</time></trkpt><trkpt lat="42.322890033602995" lon="13.540635187350071"><ele>757.6666666666666</ele><time>2026-04-19T09:38:58Z</time></trkpt><trkpt lat="42.32287376157919" lon="13.54037996500185"><ele>759.3333333333333</ele><time>2026-04-19T09:38:59Z</time></trkpt><trkpt lat="42.322873643851224" lon="13.540122415937159"><ele>761.0</ele><time>2026-04-19T09:39:00Z</time></trkpt><trkpt lat="42.322857229762235" lon="13.539852164210835"><ele>761.0</ele><time>2026-04-19T09:39:01Z</time></trkpt><trkpt lat="42.32282845871256" lon="13.539579932226756"><ele>761.0</ele><time>2026-04-19T09:39:02Z</time></trkpt><trkpt lat="42.322814260534564" lon="13.53930504696231"><ele>761.0</ele><time>2026-04-19T09:39:03Z</time></trkpt><trkpt lat="42.32279965911311" lon="13.539035051441425"><ele>759.3333333333333</ele><time>2026-04-19T09:39:04Z</time></trkpt><trkpt lat="42.3227841438222" lon="13.538772659385447"><ele>757.6666666666666</ele><time>2026-04-19T09:39:05Z</time></trkpt><trkpt lat="42.322769462212335" lon="13.538523638571101"><ele>756.0</ele><time>2026-04-19T09:39:06Z</time></trkpt><trkpt lat="42.322760238437546" lon="13.538282779123477"><ele>754.0</ele><time>2026-04-19T09:39:07Z</time></trkpt><trkpt lat="42.322746220930405" lon="13.538050893875749"><ele>752.0</ele><time>2026-04-19T09:39:08Z</time></trkpt><trkpt lat="42.32273200556415" lon="13.537824859873417"><ele>750.0</ele><time>2026-04-19T09:39:09Z</time></trkpt><trkpt lat="42.32271853027682" lon="13.5375983996434"><ele>749.3333333333334</ele><time>2026-04-19T09:39:10.001Z</time></trkpt><trkpt lat="42.322708592866036" lon="13.537362147713075"><ele>748.6666666666667</ele><time>2026-04-19T09:39:11.001Z</time></trkpt><trkpt lat="42.322697279424595" lon="13.537119612044878"><ele>748.0</ele><time>2026-04-19T09:39:12.001Z</time></trkpt><trkpt lat="42.322683744501695" lon="13.536877170717466"><ele>746.0</ele><time>2026-04-19T09:39:13.001Z</time></trkpt><trkpt lat="42.322670120404716" lon="13.536624197013095"><ele>744.0</ele><time>2026-04-19T09:39:14.001Z</time></trkpt><trkpt lat="42.32265556714202" lon="13.536370683847489"><ele>742.0</ele><time>2026-04-19T09:39:15.001Z</time></trkpt><trkpt lat="42.32264421967552" lon="13.536103828582931"><ele>740.6666666666667</ele><time>2026-04-19T09:39:16.001Z</time></trkpt><trkpt lat="42.32263603739497" lon="13.5358307746015"><ele>739.3333333333334</ele><time>2026-04-19T09:39:17.001Z</time></trkpt><trkpt lat="42.32263840792127" lon="13.53554356984384"><ele>738.0</ele><time>2026-04-19T09:39:18.001Z</time></trkpt><trkpt lat="42.32267796370953" lon="13.535255217916786"><ele>736.6666666666666</ele><time>2026-04-19T09:39:19.001Z</time></trkpt><trkpt lat="42.32272508635314" lon="13.534965316291036"><ele>735.3333333333333</ele><time>2026-04-19T09:39:20.001Z</time></trkpt><trkpt lat="42.322785456305674" lon="13.534672893901496"><ele>734.0</ele><time>2026-04-19T09:39:21.001Z</time></trkpt><trkpt lat="42.322849766959344" lon="13.534374830909881"><ele>730.0</ele><time>2026-04-19T09:39:22.001Z</time></trkpt><trkpt lat="42.3229427833793" lon="13.53409296629928"><ele>726.0</ele><time>2026-04-19T09:39:23.001Z</time></trkpt><trkpt lat="42.323043812630374" lon="13.53381125560176"><ele>729.5</ele><time>2026-04-19T09:39:24.001Z</time></trkpt><trkpt lat="42.32315579777476" lon="13.533521735493816"><ele>733.0</ele><time>2026-04-19T09:39:25.001Z</time></trkpt><trkpt lat="42.32326943064761" lon="13.533238019031833"><ele>733.0</ele><time>2026-04-19T09:39:26Z</time></trkpt><trkpt lat="42.32338388211007" lon="13.532956722200264"><ele>733.0</ele><time>2026-04-19T09:39:27Z</time></trkpt><trkpt lat="42.32349586238809" lon="13.532672645950719"><ele>728.0</ele><time>2026-04-19T09:39:28Z</time></trkpt><trkpt lat="42.3236100057693" lon="13.53238817775856"><ele>723.0</ele><time>2026-04-19T09:39:29Z</time></trkpt><trkpt lat="42.323724442165464" lon="13.53210379361201"><ele>721.0</ele><time>2026-04-19T09:39:30Z</time></trkpt><trkpt lat="42.32383434400492" lon="13.531826354512312"><ele>719.0</ele><time>2026-04-19T09:39:31Z</time></trkpt><trkpt lat="42.32394277272957" lon="13.531544419626165"><ele>719.0</ele><time>2026-04-19T09:39:32Z</time></trkpt><trkpt lat="42.3240483717904" lon="13.531289557910736"><ele>719.0</ele><time>2026-04-19T09:39:33Z</time></trkpt><trkpt lat="42.324142935131746" lon="13.531031794824207"><ele>719.0</ele><time>2026-04-19T09:39:34Z</time></trkpt><trkpt lat="42.32425025327324" lon="13.530790399920587"><ele>717.0</ele><time>2026-04-19T09:39:35Z</time></trkpt><trkpt lat="42.32430886826893" lon="13.530536804233707"><ele>715.0</ele><time>2026-04-19T09:39:36Z</time></trkpt><trkpt lat="42.3243774591773" lon="13.53027956070233"><ele>713.0</ele><time>2026-04-19T09:39:37Z</time></trkpt><trkpt lat="42.32444626215201" lon="13.530016851365039"><ele>710.6666666666666</ele><time>2026-04-19T09:39:38Z</time></trkpt><trkpt lat="42.32446950918609" lon="13.529729911615732"><ele>708.3333333333334</ele><time>2026-04-19T09:39:39Z</time></trkpt><trkpt lat="42.32450016480939" lon="13.529437566175762"><ele>706.0</ele><time>2026-04-19T09:39:40Z</time></trkpt><trkpt lat="42.324501438560574" lon="13.529143776371615"><ele>704.5</ele><time>2026-04-19T09:39:41Z</time></trkpt><trkpt lat="42.32448549618277" lon="13.528834830847606"><ele>703.0</ele><time>2026-04-19T09:39:42Z</time></trkpt><trkpt lat="42.324456672285166" lon="13.528533145614494"><ele>702.3333333333334</ele><time>2026-04-19T09:39:43Z</time></trkpt><trkpt lat="42.324417545931254" lon="13.52823663527847"><ele>701.6666666666666</ele><time>2026-04-19T09:39:44Z</time></trkpt><trkpt lat="42.324387899877905" lon="13.527946733600963"><ele>701.0</ele><time>2026-04-19T09:39:45Z</time></trkpt><trkpt lat="42.324354224830216" lon="13.527663382354179"><ele>699.3333333333333</ele><time>2026-04-19T09:39:46Z</time></trkpt><trkpt lat="42.32432798719676" lon="13.527390031992077"><ele>697.6666666666666</ele><time>2026-04-19T09:39:47Z</time></trkpt><trkpt lat="42.32430925128081" lon="13.527103623144452"><ele>696.0</ele><time>2026-04-19T09:39:48Z</time></trkpt><trkpt lat="42.32425889932293" lon="13.5268366777746"><ele>695.3333333333334</ele><time>2026-04-19T09:39:49Z</time></trkpt><trkpt lat="42.324226245401" lon="13.52657302017333"><ele>694.6666666666667</ele><time>2026-04-19T09:39:50Z</time></trkpt><trkpt lat="42.32418867918246" lon="13.526315030128712"><ele>694.0</ele><time>2026-04-19T09:39:51Z</time></trkpt><trkpt lat="42.32414425822265" lon="13.526063505463316"><ele>693.3333333333334</ele><time>2026-04-19T09:39:52Z</time></trkpt><trkpt lat="42.32410026709143" lon="13.52581456433499"><ele>692.6666666666666</ele><time>2026-04-19T09:39:53Z</time></trkpt><trkpt lat="42.324057093226386" lon="13.525566099857205"><ele>692.0</ele><time>2026-04-19T09:39:54Z</time></trkpt><trkpt lat="42.32401737904535" lon="13.52532552277564"><ele>690.6666666666666</ele><time>2026-04-19T09:39:55Z</time></trkpt><trkpt lat="42.32397926978372" lon="13.525093018077996"><ele>689.3333333333334</ele><time>2026-04-19T09:39:56Z</time></trkpt><trkpt lat="42.3239556411032" lon="13.52485657646376"><ele>688.0</ele><time>2026-04-19T09:39:57Z</time></trkpt><trkpt lat="42.323918603131744" lon="13.524634015095716"><ele>684.3333333333334</ele><time>2026-04-19T09:39:58Z</time></trkpt><trkpt lat="42.323869046282134" lon="13.524413021560393"><ele>680.6666666666666</ele><time>2026-04-19T09:39:59Z</time></trkpt><trkpt lat="42.32383407967669" lon="13.524193631051316"><ele>677.0</ele><time>2026-04-19T09:40:00Z</time></trkpt><trkpt lat="42.323800437743365" lon="13.5239871853684"><ele>677.0</ele><time>2026-04-19T09:40:01Z</time></trkpt><trkpt lat="42.323764726931905" lon="13.523778570255308"><ele>677.0</ele><time>2026-04-19T09:40:02Z</time></trkpt><trkpt lat="42.32373197412463" lon="13.523577635053528"><ele>677.0</ele><time>2026-04-19T09:40:03Z</time></trkpt><trkpt lat="42.32369913485693" lon="13.5233705608075"><ele>675.6666666666666</ele><time>2026-04-19T09:40:04Z</time></trkpt><trkpt lat="42.32366111414738" lon="13.523151797006724"><ele>674.3333333333334</ele><time>2026-04-19T09:40:05Z</time></trkpt><trkpt lat="42.32362497932328" lon="13.522943505101376"><ele>673.0</ele><time>2026-04-19T09:40:06Z</time></trkpt><trkpt lat="42.323597955419125" lon="13.522736400323906"><ele>672.0</ele><time>2026-04-19T09:40:07Z</time></trkpt><trkpt lat="42.32357689315174" lon="13.522519125434302"><ele>671.0</ele><time>2026-04-19T09:40:08Z</time></trkpt><trkpt lat="42.32357580994289" lon="13.522305076249737"><ele>670.0</ele><time>2026-04-19T09:40:09Z</time></trkpt><trkpt lat="42.32358585938695" lon="13.522081576355795"><ele>668.6666666666667</ele><time>2026-04-19T09:40:10Z</time></trkpt><trkpt lat="42.3236077872801" lon="13.521868718983878"><ele>667.3333333333334</ele><time>2026-04-19T09:40:11Z</time></trkpt><trkpt lat="42.32362830791883" lon="13.52166252285968"><ele>666.0</ele><time>2026-04-19T09:40:12Z</time></trkpt><trkpt lat="42.32364549516197" lon="13.52145838015184"><ele>666.0</ele><time>2026-04-19T09:40:13Z</time></trkpt><trkpt lat="42.32366343096912" lon="13.521250955292368"><ele>666.0</ele><time>2026-04-19T09:40:14Z</time></trkpt><trkpt lat="42.32368336508554" lon="13.521043641201594"><ele>666.0</ele><time>2026-04-19T09:40:15Z</time></trkpt><trkpt lat="42.32369927460081" lon="13.520839451031994"><ele>665.75</ele><time>2026-04-19T09:40:16Z</time></trkpt><trkpt lat="42.32371772037127" lon="13.520658992484003"><ele>665.5</ele><time>2026-04-19T09:40:17Z</time></trkpt><trkpt lat="42.32372577428998" lon="13.520468344559587"><ele>665.25</ele><time>2026-04-19T09:40:18Z</time></trkpt><trkpt lat="42.323744992133705" lon="13.520272145532232"><ele>665.0</ele><time>2026-04-19T09:40:19Z</time></trkpt><trkpt lat="42.32376396650619" lon="13.5200784771041"><ele>664.5</ele><time>2026-04-19T09:40:20Z</time></trkpt><trkpt lat="42.32377878599822" lon="13.519882903913858"><ele>664.0</ele><time>2026-04-19T09:40:21Z</time></trkpt><trkpt lat="42.32379670220209" lon="13.519691642588182"><ele>663.5</ele><time>2026-04-19T09:40:22Z</time></trkpt><trkpt lat="42.323805896257674" lon="13.519500091291567"><ele>663.0</ele><time>2026-04-19T09:40:23Z</time></trkpt><trkpt lat="42.32382929541071" lon="13.519317709592602"><ele>662.25</ele><time>2026-04-19T09:40:24Z</time></trkpt><trkpt lat="42.32384283067324" lon="13.519149895196445"><ele>661.5</ele><time>2026-04-19T09:40:25Z</time></trkpt><trkpt lat="42.32385492839962" lon="13.518971267988235"><ele>660.75</ele><time>2026-04-19T09:40:26Z</time></trkpt><trkpt lat="42.32386664563945" lon="13.518803519939674"><ele>660.0</ele><time>2026-04-19T09:40:27Z</time></trkpt><trkpt lat="42.323879205245625" lon="13.518638749206952"><ele>660.25</ele><time>2026-04-19T09:40:28Z</time></trkpt><trkpt lat="42.32389261605229" lon="13.518474636532222"><ele>660.5</ele><time>2026-04-19T09:40:29Z</time></trkpt><trkpt lat="42.323905948736844" lon="13.518291316343156"><ele>660.75</ele><time>2026-04-19T09:40:30Z</time></trkpt><trkpt lat="42.32392247242506" lon="13.518115770388986"><ele>661.0</ele><time>2026-04-19T09:40:31Z</time></trkpt><trkpt lat="42.323938481333215" lon="13.517930883691733"><ele>659.75</ele><time>2026-04-19T09:40:32Z</time></trkpt><trkpt lat="42.32395719774859" lon="13.517752006063114"><ele>658.5</ele><time>2026-04-19T09:40:33Z</time></trkpt><trkpt lat="42.32397066819899" lon="13.51756237824151"><ele>657.25</ele><time>2026-04-19T09:40:34Z</time></trkpt><trkpt lat="42.323980723224985" lon="13.517390088314253"><ele>656.0</ele><time>2026-04-19T09:40:35Z</time></trkpt><trkpt lat="42.32398834087019" lon="13.517217510199014"><ele>654.75</ele><time>2026-04-19T09:40:36Z</time></trkpt><trkpt lat="42.324004184478014" lon="13.517049381913733"><ele>653.5</ele><time>2026-04-19T09:40:37Z</time></trkpt><trkpt lat="42.324021344354314" lon="13.51687916862351"><ele>652.25</ele><time>2026-04-19T09:40:38Z</time></trkpt><trkpt lat="42.32403720637641" lon="13.516706285120252"><ele>651.0</ele><time>2026-04-19T09:40:39Z</time></trkpt><trkpt lat="42.32405098465491" lon="13.51652614984497"><ele>651.0</ele><time>2026-04-19T09:40:40Z</time></trkpt><trkpt lat="42.32407763865343" lon="13.51634853198672"><ele>651.0</ele><time>2026-04-19T09:40:41Z</time></trkpt><trkpt lat="42.32410338302736" lon="13.516150043316397"><ele>651.0</ele><time>2026-04-19T09:40:42Z</time></trkpt><trkpt lat="42.32411197041526" lon="13.515958977190525"><ele>651.0</ele><time>2026-04-19T09:40:43Z</time></trkpt><trkpt lat="42.32412710293461" lon="13.515747603794507"><ele>650.0</ele><time>2026-04-19T09:40:44Z</time></trkpt><trkpt lat="42.32414316093199" lon="13.515535507294604"><ele>649.0</ele><time>2026-04-19T09:40:45Z</time></trkpt><trkpt lat="42.32415760886238" lon="13.515314881011836"><ele>648.0</ele><time>2026-04-19T09:40:46Z</time></trkpt><trkpt lat="42.324178150845626" lon="13.515105849070954"><ele>647.5</ele><time>2026-04-19T09:40:47Z</time></trkpt><trkpt lat="42.32419345616745" lon="13.514907714274587"><ele>647.0</ele><time>2026-04-19T09:40:48Z</time></trkpt><trkpt lat="42.32420762648006" lon="13.514715789358466"><ele>646.5</ele><time>2026-04-19T09:40:49Z</time></trkpt><trkpt lat="42.32422539731703" lon="13.514524069588715"><ele>646.0</ele><time>2026-04-19T09:40:50Z</time></trkpt><trkpt lat="42.3242427547251" lon="13.514325595774219"><ele>645.0</ele><time>2026-04-19T09:40:51Z</time></trkpt><trkpt lat="42.32425774595512" lon="13.514123998959288"><ele>644.0</ele><time>2026-04-19T09:40:52Z</time></trkpt><trkpt lat="42.32427402875009" lon="13.513930605279405"><ele>643.0</ele><time>2026-04-19T09:40:53Z</time></trkpt><trkpt lat="42.32429171987873" lon="13.513736726285083"><ele>642.0</ele><time>2026-04-19T09:40:54Z</time></trkpt><trkpt lat="42.324314857162506" lon="13.51354213756387"><ele>641.5</ele><time>2026-04-19T09:40:55Z</time></trkpt><trkpt lat="42.32432948433319" lon="13.51335312364627"><ele>641.0</ele><time>2026-04-19T09:40:56Z</time></trkpt><trkpt lat="42.324344066359785" lon="13.51316294486677"><ele>640.5</ele><time>2026-04-19T09:40:57Z</time></trkpt><trkpt lat="42.32435799015246" lon="13.5129842850566"><ele>640.0</ele><time>2026-04-19T09:40:58Z</time></trkpt><trkpt lat="42.32437372838857" lon="13.512812404946393"><ele>639.5</ele><time>2026-04-19T09:40:59Z</time></trkpt><trkpt lat="42.324390851185406" lon="13.512629633032525"><ele>639.0</ele><time>2026-04-19T09:41:00Z</time></trkpt><trkpt lat="42.32440831844575" lon="13.512444729873776"><ele>638.5</ele><time>2026-04-19T09:41:01Z</time></trkpt><trkpt lat="42.324423219751054" lon="13.512268703474493"><ele>638.0</ele><time>2026-04-19T09:41:02Z</time></trkpt><trkpt lat="42.32443919785121" lon="13.512093862083088"><ele>637.75</ele><time>2026-04-19T09:41:03Z</time></trkpt><trkpt lat="42.32445471429767" lon="13.511917043246122"><ele>637.5</ele><time>2026-04-19T09:41:04Z</time></trkpt><trkpt lat="42.32447095815593" lon="13.511748650150098"><ele>637.25</ele><time>2026-04-19T09:41:05Z</time></trkpt><trkpt lat="42.324487029096495" lon="13.511583264490733"><ele>637.0</ele><time>2026-04-19T09:41:06Z</time></trkpt><trkpt lat="42.324500774557436" lon="13.511415669317014"><ele>637.0</ele><time>2026-04-19T09:41:07Z</time></trkpt><trkpt lat="42.32451613359053" lon="13.51124323713252"><ele>637.0</ele><time>2026-04-19T09:41:08Z</time></trkpt><trkpt lat="42.32453206222373" lon="13.511068718933357"><ele>637.0</ele><time>2026-04-19T09:41:09Z</time></trkpt><trkpt lat="42.324547261132" lon="13.510892044648477"><ele>637.0</ele><time>2026-04-19T09:41:10Z</time></trkpt><trkpt lat="42.324570698141144" lon="13.510709819002965"><ele>636.2</ele><time>2026-04-19T09:41:11Z</time></trkpt><trkpt lat="42.32458272234369" lon="13.510533964963873"><ele>635.4000000000001</ele><time>2026-04-19T09:41:12Z</time></trkpt><trkpt lat="42.32459880164699" lon="13.510391187285977"><ele>634.5999999999999</ele><time>2026-04-19T09:41:13Z</time></trkpt><trkpt lat="42.32461244029291" lon="13.510289715759317"><ele>633.8</ele><time>2026-04-19T09:41:14Z</time></trkpt><trkpt lat="42.32463248380721" lon="13.510175502721582"><ele>633.0</ele><time>2026-04-19T09:41:16Z</time></trkpt><trkpt lat="42.324632725363806" lon="13.510053590420771"><ele>632.25</ele><time>2026-04-19T09:42:38Z</time></trkpt><trkpt lat="42.324635893607415" lon="13.509957987997051"><ele>631.5</ele><time>2026-04-19T09:42:39Z</time></trkpt><trkpt lat="42.32464330439583" lon="13.509824870171594"><ele>630.75</ele><time>2026-04-19T09:42:40Z</time></trkpt><trkpt lat="42.32466108888464" lon="13.509645971974097"><ele>630.0</ele><time>2026-04-19T09:42:41Z</time></trkpt><trkpt lat="42.32467951167106" lon="13.509444515448717"><ele>629.0</ele><time>2026-04-19T09:42:42Z</time></trkpt><trkpt lat="42.32469579106438" lon="13.509225627060985"><ele>628.0</ele><time>2026-04-19T09:42:43Z</time></trkpt><trkpt lat="42.32471708021615" lon="13.508959101969328"><ele>627.0</ele><time>2026-04-19T09:42:44Z</time></trkpt><trkpt lat="42.32474288319652" lon="13.508673208373136"><ele>627.0</ele><time>2026-04-19T09:42:45Z</time></trkpt><trkpt lat="42.32477323320179" lon="13.50839146736572"><ele>627.0</ele><time>2026-04-19T09:42:46Z</time></trkpt><trkpt lat="42.32480281202456" lon="13.508115509715648"><ele>627.0</ele><time>2026-04-19T09:42:47Z</time></trkpt><trkpt lat="42.32483011009544" lon="13.507838723078788"><ele>626.0</ele><time>2026-04-19T09:42:48Z</time></trkpt><trkpt lat="42.324856617585695" lon="13.507562385098414"><ele>625.0</ele><time>2026-04-19T09:42:49Z</time></trkpt><trkpt lat="42.324883700788135" lon="13.50728613747129"><ele>624.0</ele><time>2026-04-19T09:42:50Z</time></trkpt><trkpt lat="42.32490873678473" lon="13.507016284156359"><ele>622.6666666666666</ele><time>2026-04-19T09:42:51Z</time></trkpt><trkpt lat="42.3249347776069" lon="13.506758723767659"><ele>621.3333333333333</ele><time>2026-04-19T09:42:52Z</time></trkpt><trkpt lat="42.32496091557417" lon="13.506516707530533"><ele>620.0</ele><time>2026-04-19T09:42:53Z</time></trkpt><trkpt lat="42.32498416540804" lon="13.506269600455507"><ele>618.6666666666666</ele><time>2026-04-19T09:42:54Z</time></trkpt><trkpt lat="42.32500824847218" lon="13.50602558749429"><ele>617.3333333333334</ele><time>2026-04-19T09:42:55Z</time></trkpt><trkpt lat="42.325033116291706" lon="13.505785904399167"><ele>616.0</ele><time>2026-04-19T09:42:56Z</time></trkpt><trkpt lat="42.32505952201174" lon="13.50552994638135"><ele>614.6666666666667</ele><time>2026-04-19T09:42:57Z</time></trkpt><trkpt lat="42.32508563029925" lon="13.505273607518344"><ele>613.3333333333334</ele><time>2026-04-19T09:42:58Z</time></trkpt><trkpt lat="42.32511166432236" lon="13.505016963377638"><ele>612.0</ele><time>2026-04-19T09:42:59Z</time></trkpt><trkpt lat="42.32513822627934" lon="13.504755334326823"><ele>610.0</ele><time>2026-04-19T09:43:00Z</time></trkpt><trkpt lat="42.32516129892442" lon="13.504489670969924"><ele>608.0</ele><time>2026-04-19T09:43:01Z</time></trkpt><trkpt lat="42.325185525873486" lon="13.504221647719886"><ele>606.0</ele><time>2026-04-19T09:43:02Z</time></trkpt><trkpt lat="42.325205400028516" lon="13.503954937574"><ele>604.6666666666666</ele><time>2026-04-19T09:43:03Z</time></trkpt><trkpt lat="42.32523065074327" lon="13.503692540764495"><ele>603.3333333333333</ele><time>2026-04-19T09:43:04Z</time></trkpt><trkpt lat="42.325257130320175" lon="13.503436999450399"><ele>602.0</ele><time>2026-04-19T09:43:05Z</time></trkpt><trkpt lat="42.32528234034609" lon="13.50318259928298"><ele>602.0</ele><time>2026-04-19T09:43:06Z</time></trkpt><trkpt lat="42.32530668502232" lon="13.502926152815077"><ele>602.0</ele><time>2026-04-19T09:43:07Z</time></trkpt><trkpt lat="42.32533116032428" lon="13.50267711092128"><ele>602.0</ele><time>2026-04-19T09:43:08Z</time></trkpt><trkpt lat="42.32536042441697" lon="13.502430425383158"><ele>601.3333333333333</ele><time>2026-04-19T09:43:09Z</time></trkpt><trkpt lat="42.32538891459113" lon="13.502183755703916"><ele>600.6666666666666</ele><time>2026-04-19T09:43:10Z</time></trkpt><trkpt lat="42.325414720689" lon="13.501933248682167"><ele>600.0</ele><time>2026-04-19T09:43:11Z</time></trkpt><trkpt lat="42.325437419596646" lon="13.501685120243586"><ele>598.6666666666666</ele><time>2026-04-19T09:43:12Z</time></trkpt><trkpt lat="42.3254610553932" lon="13.501434376002873"><ele>597.3333333333333</ele><time>2026-04-19T09:43:13Z</time></trkpt><trkpt lat="42.325486517889786" lon="13.501179750425987"><ele>596.0</ele><time>2026-04-19T09:43:14Z</time></trkpt><trkpt lat="42.32551222944473" lon="13.500922297200733"><ele>596.3333333333333</ele><time>2026-04-19T09:43:15Z</time></trkpt><trkpt lat="42.325537017784185" lon="13.500664125615204"><ele>596.6666666666666</ele><time>2026-04-19T09:43:16Z</time></trkpt><trkpt lat="42.32556044545849" lon="13.500405738381367"><ele>597.0</ele><time>2026-04-19T09:43:17Z</time></trkpt><trkpt lat="42.32558326303068" lon="13.500162983332597"><ele>597.0</ele><time>2026-04-19T09:43:18Z</time></trkpt><trkpt lat="42.32560564331234" lon="13.499937338406548"><ele>597.0</ele><time>2026-04-19T09:43:19Z</time></trkpt><trkpt lat="42.325629035355064" lon="13.499715463501698"><ele>597.0</ele><time>2026-04-19T09:43:20Z</time></trkpt><trkpt lat="42.32565334831094" lon="13.499502021446595"><ele>596.3333333333334</ele><time>2026-04-19T09:43:21Z</time></trkpt><trkpt lat="42.32567456025716" lon="13.499281522773103"><ele>595.6666666666667</ele><time>2026-04-19T09:43:22Z</time></trkpt><trkpt lat="42.325697148841805" lon="13.499064056575156"><ele>595.0</ele><time>2026-04-19T09:43:23Z</time></trkpt><trkpt lat="42.3257187709427" lon="13.498861950832339"><ele>593.75</ele><time>2026-04-19T09:43:24Z</time></trkpt><trkpt lat="42.32573997191032" lon="13.498664915246348"><ele>592.5</ele><time>2026-04-19T09:43:25Z</time></trkpt><trkpt lat="42.3257610922718" lon="13.498473961429628"><ele>591.25</ele><time>2026-04-19T09:43:26Z</time></trkpt><trkpt lat="42.3257814136101" lon="13.498280174677461"><ele>590.0</ele><time>2026-04-19T09:43:27Z</time></trkpt><trkpt lat="42.325807382850435" lon="13.498081562432624"><ele>589.0</ele><time>2026-04-19T09:43:28Z</time></trkpt><trkpt lat="42.32582335075388" lon="13.497900050592088"><ele>588.0</ele><time>2026-04-19T09:43:29Z</time></trkpt><trkpt lat="42.32584474812061" lon="13.497710590169628"><ele>587.0</ele><time>2026-04-19T09:43:30Z</time></trkpt><trkpt lat="42.325860789593534" lon="13.497522005410634"><ele>586.0</ele><time>2026-04-19T09:43:31Z</time></trkpt><trkpt lat="42.32587508510478" lon="13.497335453913173"><ele>586.0</ele><time>2026-04-19T09:43:32Z</time></trkpt><trkpt lat="42.32589146934829" lon="13.49713877232125"><ele>586.0</ele><time>2026-04-19T09:43:33Z</time></trkpt><trkpt lat="42.32591044775481" lon="13.496934369719549"><ele>586.0</ele><time>2026-04-19T09:43:34Z</time></trkpt><trkpt lat="42.32594087597434" lon="13.496721325656086"><ele>584.0</ele><time>2026-04-19T09:43:35Z</time></trkpt><trkpt lat="42.32598051759023" lon="13.496518138794892"><ele>582.0</ele><time>2026-04-19T09:43:36Z</time></trkpt><trkpt lat="42.3260245986637" lon="13.496320944103783"><ele>580.0</ele><time>2026-04-19T09:43:37Z</time></trkpt><trkpt lat="42.326074136925115" lon="13.496123697668017"><ele>579.3333333333334</ele><time>2026-04-19T09:43:38Z</time></trkpt><trkpt lat="42.32612861477413" lon="13.495933482430155"><ele>578.6666666666666</ele><time>2026-04-19T09:43:39Z</time></trkpt><trkpt lat="42.326186365871656" lon="13.495748631803039"><ele>578.0</ele><time>2026-04-19T09:43:40Z</time></trkpt><trkpt lat="42.32624525958415" lon="13.49555948275591"><ele>577.0</ele><time>2026-04-19T09:43:41Z</time></trkpt><trkpt lat="42.32630124285134" lon="13.495367814492962"><ele>576.0</ele><time>2026-04-19T09:43:42Z</time></trkpt><trkpt lat="42.32635597091799" lon="13.495174947331186"><ele>575.0</ele><time>2026-04-19T09:43:43Z</time></trkpt><trkpt lat="42.3264096754032" lon="13.494982653242754"><ele>575.6666666666666</ele><time>2026-04-19T09:43:44Z</time></trkpt><trkpt lat="42.3264658345607" lon="13.49479006361569"><ele>576.3333333333334</ele><time>2026-04-19T09:43:45Z</time></trkpt><trkpt lat="42.3265225541252" lon="13.4945957298739"><ele>577.0</ele><time>2026-04-19T09:43:46Z</time></trkpt><trkpt lat="42.32658031276343" lon="13.494405073963941"><ele>577.0</ele><time>2026-04-19T09:43:47Z</time></trkpt><trkpt lat="42.32663513932845" lon="13.494213952042994"><ele>577.0</ele><time>2026-04-19T09:43:48Z</time></trkpt><trkpt lat="42.32668948793062" lon="13.494021699542134"><ele>577.0</ele><time>2026-04-19T09:43:49Z</time></trkpt><trkpt lat="42.32674457002035" lon="13.49383281558808"><ele>576.3333333333334</ele><time>2026-04-19T09:43:50Z</time></trkpt><trkpt lat="42.326802857405085" lon="13.493646381976404"><ele>575.6666666666666</ele><time>2026-04-19T09:43:51Z</time></trkpt><trkpt lat="42.326863227324225" lon="13.49345727429726"><ele>575.0</ele><time>2026-04-19T09:43:52Z</time></trkpt><trkpt lat="42.3269226176131" lon="13.4932661826384"><ele>575.0</ele><time>2026-04-19T09:43:53Z</time></trkpt><trkpt lat="42.32697724946467" lon="13.493070677959398"><ele>575.0</ele><time>2026-04-19T09:43:54Z</time></trkpt><trkpt lat="42.32703237565591" lon="13.492884283207186"><ele>575.0</ele><time>2026-04-19T09:43:55Z</time></trkpt><trkpt lat="42.32709042177541" lon="13.49268903126085"><ele>575.3333333333333</ele><time>2026-04-19T09:43:56Z</time></trkpt><trkpt lat="42.3271473573295" lon="13.492500455063366"><ele>575.6666666666666</ele><time>2026-04-19T09:43:57Z</time></trkpt><trkpt lat="42.32720701108365" lon="13.49231331858919"><ele>576.0</ele><time>2026-04-19T09:43:58Z</time></trkpt><trkpt lat="42.327266608025866" lon="13.492119264332294"><ele>576.3333333333334</ele><time>2026-04-19T09:43:59Z</time></trkpt><trkpt lat="42.32732273516583" lon="13.491926849902972"><ele>576.6666666666667</ele><time>2026-04-19T09:44:00Z</time></trkpt><trkpt lat="42.32737951602128" lon="13.491735262280232"><ele>577.0</ele><time>2026-04-19T09:44:01Z</time></trkpt><trkpt lat="42.32743032692231" lon="13.49154368443117"><ele>577.0</ele><time>2026-04-19T09:44:02Z</time></trkpt><trkpt lat="42.32748772623655" lon="13.491360385819641"><ele>577.0</ele><time>2026-04-19T09:44:03Z</time></trkpt><trkpt lat="42.32754099506474" lon="13.491173579258442"><ele>577.0</ele><time>2026-04-19T09:44:04Z</time></trkpt><trkpt lat="42.32759270028637" lon="13.491007739295174"><ele>577.0</ele><time>2026-04-19T09:44:05Z</time></trkpt><trkpt lat="42.32764477802218" lon="13.490840043692085"><ele>577.0</ele><time>2026-04-19T09:44:06Z</time></trkpt><trkpt lat="42.327696628404304" lon="13.490668696482272"><ele>577.0</ele><time>2026-04-19T09:44:07Z</time></trkpt><trkpt lat="42.32774503871647" lon="13.490497647439291"><ele>577.0</ele><time>2026-04-19T09:44:08Z</time></trkpt><trkpt lat="42.32779357324217" lon="13.490336109172587"><ele>577.0</ele><time>2026-04-19T09:44:09Z</time></trkpt><trkpt lat="42.327849133679486" lon="13.490191050643592"><ele>576.75</ele><time>2026-04-19T09:44:10Z</time></trkpt><trkpt lat="42.32788930816414" lon="13.490009475801365"><ele>576.5</ele><time>2026-04-19T09:44:11Z</time></trkpt><trkpt lat="42.327943085457875" lon="13.489825997177999"><ele>576.25</ele><time>2026-04-19T09:44:12Z</time></trkpt><trkpt lat="42.327994406796016" lon="13.489654470657875"><ele>576.0</ele><time>2026-04-19T09:44:13Z</time></trkpt><trkpt lat="42.32804714477309" lon="13.489483407808246"><ele>576.25</ele><time>2026-04-19T09:44:14Z</time></trkpt><trkpt lat="42.32810328346878" lon="13.489306591469573"><ele>576.5</ele><time>2026-04-19T09:44:15Z</time></trkpt><trkpt lat="42.328152863344734" lon="13.489138666542217"><ele>576.75</ele><time>2026-04-19T09:44:16Z</time></trkpt><trkpt lat="42.32820351221861" lon="13.488966074074714"><ele>577.0</ele><time>2026-04-19T09:44:17Z</time></trkpt><trkpt lat="42.32825521551695" lon="13.488792662336376"><ele>577.25</ele><time>2026-04-19T09:44:18Z</time></trkpt><trkpt lat="42.32830597694768" lon="13.488622758001325"><ele>577.5</ele><time>2026-04-19T09:44:19Z</time></trkpt><trkpt lat="42.32835875009769" lon="13.488450201129746"><ele>577.75</ele><time>2026-04-19T09:44:20Z</time></trkpt><trkpt lat="42.32840988623911" lon="13.488278869254314"><ele>578.0</ele><time>2026-04-19T09:44:21Z</time></trkpt><trkpt lat="42.328462337692535" lon="13.488106492809154"><ele>578.0</ele><time>2026-04-19T09:44:22Z</time></trkpt><trkpt lat="42.32851474017295" lon="13.487930782392642"><ele>578.0</ele><time>2026-04-19T09:44:23Z</time></trkpt><trkpt lat="42.32857077552933" lon="13.487741199293692"><ele>578.0</ele><time>2026-04-19T09:44:24Z</time></trkpt><trkpt lat="42.32863102929812" lon="13.487539832086238"><ele>578.0</ele><time>2026-04-19T09:44:25Z</time></trkpt><trkpt lat="42.3286899786112" lon="13.487335729672889"><ele>578.0</ele><time>2026-04-19T09:44:26Z</time></trkpt><trkpt lat="42.32874674950987" lon="13.487135602063368"><ele>578.0</ele><time>2026-04-19T09:44:27Z</time></trkpt><trkpt lat="42.328801464439636" lon="13.486937794994637"><ele>578.3333333333333</ele><time>2026-04-19T09:44:28Z</time></trkpt><trkpt lat="42.32887644525189" lon="13.486742078844992"><ele>578.6666666666666</ele><time>2026-04-19T09:44:29Z</time></trkpt><trkpt lat="42.32893657823942" lon="13.486539678048056"><ele>579.0</ele><time>2026-04-19T09:44:30Z</time></trkpt><trkpt lat="42.3289940212887" lon="13.48634633127559"><ele>579.6666666666666</ele><time>2026-04-19T09:44:31Z</time></trkpt><trkpt lat="42.32903725565034" lon="13.486142007724286"><ele>580.3333333333333</ele><time>2026-04-19T09:44:32Z</time></trkpt><trkpt lat="42.32911211923333" lon="13.485948827077484"><ele>581.0</ele><time>2026-04-19T09:44:33Z</time></trkpt><trkpt lat="42.329156579413" lon="13.485741839006343"><ele>581.0</ele><time>2026-04-19T09:44:34Z</time></trkpt><trkpt lat="42.32921601729868" lon="13.485542992346504"><ele>581.0</ele><time>2026-04-19T09:44:35Z</time></trkpt><trkpt lat="42.329270911484905" lon="13.485359410148778"><ele>581.0</ele><time>2026-04-19T09:44:36Z</time></trkpt><trkpt lat="42.32934172101572" lon="13.485183226657806"><ele>581.0</ele><time>2026-04-19T09:44:37Z</time></trkpt><trkpt lat="42.32939605994884" lon="13.485002505754554"><ele>581.0</ele><time>2026-04-19T09:44:38Z</time></trkpt><trkpt lat="42.329448725012426" lon="13.484827302364554"><ele>581.0</ele><time>2026-04-19T09:44:39Z</time></trkpt><trkpt lat="42.32948741201925" lon="13.484639272062138"><ele>581.0</ele><time>2026-04-19T09:44:40Z</time></trkpt><trkpt lat="42.32955241565073" lon="13.484482276543776"><ele>581.0</ele><time>2026-04-19T09:44:41Z</time></trkpt><trkpt lat="42.32959956730387" lon="13.484325381598103"><ele>581.0</ele><time>2026-04-19T09:44:42Z</time></trkpt><trkpt lat="42.32964334657938" lon="13.484179708031283"><ele>581.0</ele><time>2026-04-19T09:44:43Z</time></trkpt><trkpt lat="42.329686047973865" lon="13.484037621777635"><ele>581.0</ele><time>2026-04-19T09:44:44Z</time></trkpt><trkpt lat="42.32972819810167" lon="13.483895298722915"><ele>581.5</ele><time>2026-04-19T09:44:45Z</time></trkpt><trkpt lat="42.32975087733334" lon="13.483746682920748"><ele>582.0</ele><time>2026-04-19T09:44:46Z</time></trkpt><trkpt lat="42.32979196020818" lon="13.483610374999278"><ele>582.5</ele><time>2026-04-19T09:44:47Z</time></trkpt><trkpt lat="42.3298350823345" lon="13.48347140383832"><ele>583.0</ele><time>2026-04-19T09:44:48Z</time></trkpt><trkpt lat="42.329881798488756" lon="13.483319117325049"><ele>583.0</ele><time>2026-04-19T09:44:49Z</time></trkpt><trkpt lat="42.329947104534334" lon="13.483161938771746"><ele>583.0</ele><time>2026-04-19T09:44:50Z</time></trkpt><trkpt lat="42.33000066750679" lon="13.482981953527661"><ele>583.0</ele><time>2026-04-19T09:44:51Z</time></trkpt><trkpt lat="42.33006248758641" lon="13.482773943301439"><ele>583.0</ele><time>2026-04-19T09:44:52Z</time></trkpt><trkpt lat="42.330127303331224" lon="13.4825558537011"><ele>583.0</ele><time>2026-04-19T09:44:53Z</time></trkpt><trkpt lat="42.330190610063944" lon="13.48234255643425"><ele>583.0</ele><time>2026-04-19T09:44:54Z</time></trkpt><trkpt lat="42.330230099595866" lon="13.482150513313211"><ele>583.0</ele><time>2026-04-19T09:44:55Z</time></trkpt><trkpt lat="42.33028112815101" lon="13.481982441047833"><ele>583.0</ele><time>2026-04-19T09:44:56Z</time></trkpt><trkpt lat="42.33033016996041" lon="13.481820224308612"><ele>583.0</ele><time>2026-04-19T09:44:57Z</time></trkpt><trkpt lat="42.33036915643395" lon="13.481680896854257"><ele>583.0</ele><time>2026-04-19T09:44:58Z</time></trkpt><trkpt lat="42.33041049552381" lon="13.481539973366703"><ele>583.0</ele><time>2026-04-19T09:44:59Z</time></trkpt><trkpt lat="42.33045233430724" lon="13.481397546912323"><ele>583.4</ele><time>2026-04-19T09:45:00Z</time></trkpt><trkpt lat="42.330493457071384" lon="13.481259072800578"><ele>583.8</ele><time>2026-04-19T09:45:01Z</time></trkpt><trkpt lat="42.33054946544868" lon="13.481128005708461"><ele>584.2</ele><time>2026-04-19T09:45:02Z</time></trkpt><trkpt lat="42.33058995999451" lon="13.480990345629941"><ele>584.6</ele><time>2026-04-19T09:45:03Z</time></trkpt><trkpt lat="42.33063044311571" lon="13.480852724226837"><ele>585.0</ele><time>2026-04-19T09:45:04Z</time></trkpt><trkpt lat="42.33066960215662" lon="13.480719604238033"><ele>585.4</ele><time>2026-04-19T09:45:05Z</time></trkpt><trkpt lat="42.330709946574565" lon="13.48058245430501"><ele>585.8</ele><time>2026-04-19T09:45:06Z</time></trkpt><trkpt lat="42.33073709965115" lon="13.480433372079753"><ele>586.2</ele><time>2026-04-19T09:45:07Z</time></trkpt><trkpt lat="42.330778020981484" lon="13.480301303900557"><ele>586.6</ele><time>2026-04-19T09:45:08Z</time></trkpt><trkpt lat="42.33081520550485" lon="13.480173901106316"><ele>587.0</ele><time>2026-04-19T09:45:09Z</time></trkpt><trkpt lat="42.33086703131169" lon="13.48005172775103"><ele>587.1666666666666</ele><time>2026-04-19T09:45:10Z</time></trkpt><trkpt lat="42.33090400381131" lon="13.479928274544326"><ele>587.3333333333333</ele><time>2026-04-19T09:45:11Z</time></trkpt><trkpt lat="42.33093694228779" lon="13.479818284831511"><ele>587.5</ele><time>2026-04-19T09:45:12Z</time></trkpt><trkpt lat="42.33096721087532" lon="13.479717151149856"><ele>587.6666666666666</ele><time>2026-04-19T09:45:13Z</time></trkpt><trkpt lat="42.33099684666994" lon="13.479618167231923"><ele>587.8333333333334</ele><time>2026-04-19T09:45:14Z</time></trkpt><trkpt lat="42.331027896274506" lon="13.479514477056302"><ele>588.0</ele><time>2026-04-19T09:45:15Z</time></trkpt><trkpt lat="42.33106141761533" lon="13.47940253225388"><ele>588.1666666666666</ele><time>2026-04-19T09:45:16Z</time></trkpt><trkpt lat="42.33109181365719" lon="13.479301023241003"><ele>588.3333333333334</ele><time>2026-04-19T09:45:17Z</time></trkpt><trkpt lat="42.33110235980745" lon="13.479208850019802"><ele>588.5</ele><time>2026-04-19T09:45:18Z</time></trkpt><trkpt lat="42.331129835085996" lon="13.479126930316424"><ele>588.6666666666667</ele><time>2026-04-19T09:45:19Z</time></trkpt><trkpt lat="42.33118691301535" lon="13.478981389197369"><ele>588.8333333333334</ele><time>2026-04-19T09:45:21Z</time></trkpt><trkpt lat="42.33121460178518" lon="13.478891902675855"><ele>589.0</ele><time>2026-04-19T09:45:22Z</time></trkpt><trkpt lat="42.33124269881515" lon="13.478788980505511"><ele>588.8</ele><time>2026-04-19T09:45:23Z</time></trkpt><trkpt lat="42.33127107448936" lon="13.478681695755641"><ele>588.5999999999999</ele><time>2026-04-19T09:45:24Z</time></trkpt><trkpt lat="42.331303740122245" lon="13.478563134979854"><ele>588.4</ele><time>2026-04-19T09:45:25Z</time></trkpt><trkpt lat="42.33134234102954" lon="13.478430096781352"><ele>588.1999999999999</ele><time>2026-04-19T09:45:26Z</time></trkpt><trkpt lat="42.33138224765501" lon="13.478289880658714"><ele>588.0</ele><time>2026-04-19T09:45:27Z</time></trkpt><trkpt lat="42.33142454737155" lon="13.478138770250975"><ele>588.5</ele><time>2026-04-19T09:45:28Z</time></trkpt><trkpt lat="42.331481493174586" lon="13.477992602257782"><ele>589.0</ele><time>2026-04-19T09:45:29Z</time></trkpt><trkpt lat="42.331528406871456" lon="13.477836068430042"><ele>589.5</ele><time>2026-04-19T09:45:30Z</time></trkpt><trkpt lat="42.331577043689684" lon="13.477673786136217"><ele>590.0</ele><time>2026-04-19T09:45:31Z</time></trkpt><trkpt lat="42.331624532305" lon="13.477510941089628"><ele>590.5</ele><time>2026-04-19T09:45:32Z</time></trkpt><trkpt lat="42.33167128904779" lon="13.477351573666363"><ele>591.0</ele><time>2026-04-19T09:45:33Z</time></trkpt><trkpt lat="42.33171436425192" lon="13.477204754507794"><ele>591.5</ele><time>2026-04-19T09:45:34Z</time></trkpt><trkpt lat="42.33175849967893" lon="13.477054260257047"><ele>592.0</ele><time>2026-04-19T09:45:35Z</time></trkpt><trkpt lat="42.33180280729309" lon="13.476899265352428"><ele>592.0</ele><time>2026-04-19T09:45:36Z</time></trkpt><trkpt lat="42.33183132280379" lon="13.476738441622176"><ele>592.0</ele><time>2026-04-19T09:45:37Z</time></trkpt><trkpt lat="42.33187165150573" lon="13.476586571454273"><ele>592.0</ele><time>2026-04-19T09:45:38Z</time></trkpt><trkpt lat="42.33191490721444" lon="13.476428827049444"><ele>592.0</ele><time>2026-04-19T09:45:39Z</time></trkpt><trkpt lat="42.3319596955704" lon="13.476257965730582"><ele>592.0</ele><time>2026-04-19T09:45:40Z</time></trkpt><trkpt lat="42.33200551387645" lon="13.476084069285871"><ele>592.0</ele><time>2026-04-19T09:45:41Z</time></trkpt><trkpt lat="42.33207080667308" lon="13.475918070979546"><ele>592.0</ele><time>2026-04-19T09:45:42Z</time></trkpt><trkpt lat="42.33209686908821" lon="13.475735201437338"><ele>592.0</ele><time>2026-04-19T09:45:43Z</time></trkpt><trkpt lat="42.332139686724744" lon="13.475560067460943"><ele>592.0</ele><time>2026-04-19T09:45:44Z</time></trkpt><trkpt lat="42.33218596355614" lon="13.475388392846943"><ele>592.0</ele><time>2026-04-19T09:45:45Z</time></trkpt><trkpt lat="42.332232142237274" lon="13.475216651697167"><ele>592.0</ele><time>2026-04-19T09:45:46Z</time></trkpt><trkpt lat="42.332295233291134" lon="13.475051822698607"><ele>592.0</ele><time>2026-04-19T09:45:47Z</time></trkpt><trkpt lat="42.33233956970514" lon="13.474880620538219"><ele>592.0</ele><time>2026-04-19T09:45:48Z</time></trkpt><trkpt lat="42.33238394169162" lon="13.47470928123132"><ele>592.0</ele><time>2026-04-19T09:45:49Z</time></trkpt><trkpt lat="42.33242896479372" lon="13.474538096263933"><ele>592.0</ele><time>2026-04-19T09:45:50Z</time></trkpt><trkpt lat="42.33247408360857" lon="13.474365160670919"><ele>592.0</ele><time>2026-04-19T09:45:51Z</time></trkpt><trkpt lat="42.332518579969204" lon="13.474194795888067"><ele>592.25</ele><time>2026-04-19T09:45:52Z</time></trkpt><trkpt lat="42.332563259445294" lon="13.474023730427232"><ele>592.5</ele><time>2026-04-19T09:45:53Z</time></trkpt><trkpt lat="42.33260759399143" lon="13.473851715465239"><ele>592.75</ele><time>2026-04-19T09:45:54Z</time></trkpt><trkpt lat="42.3326516433644" lon="13.473681041604468"><ele>593.0</ele><time>2026-04-19T09:45:55Z</time></trkpt><trkpt lat="42.33268209209271" lon="13.473504424077463"><ele>593.0</ele><time>2026-04-19T09:45:56Z</time></trkpt><trkpt lat="42.33272688080538" lon="13.473336959734004"><ele>593.0</ele><time>2026-04-19T09:45:57Z</time></trkpt><trkpt lat="42.3327651905882" lon="13.473187050914731"><ele>593.0</ele><time>2026-04-19T09:45:58Z</time></trkpt><trkpt lat="42.332801310590575" lon="13.47304634144776"><ele>593.0</ele><time>2026-04-19T09:45:59Z</time></trkpt><trkpt lat="42.332835190983886" lon="13.472915607791181"><ele>592.6</ele><time>2026-04-19T09:46:00Z</time></trkpt><trkpt lat="42.33286606913259" lon="13.472795108233639"><ele>592.1999999999999</ele><time>2026-04-19T09:46:01Z</time></trkpt><trkpt lat="42.33289554062186" lon="13.472682554223491"><ele>591.8</ele><time>2026-04-19T09:46:02Z</time></trkpt><trkpt lat="42.33292384312107" lon="13.472571444189033"><ele>591.4</ele><time>2026-04-19T09:46:03Z</time></trkpt><trkpt lat="42.33295844770452" lon="13.472440206006853"><ele>591.0</ele><time>2026-04-19T09:46:04Z</time></trkpt><trkpt lat="42.33299344384782" lon="13.472313221005367"><ele>591.0</ele><time>2026-04-19T09:46:05Z</time></trkpt><trkpt lat="42.33302674807528" lon="13.47218878301318"><ele>591.0</ele><time>2026-04-19T09:46:06Z</time></trkpt><trkpt lat="42.333056792622735" lon="13.472077626942413"><ele>591.0</ele><time>2026-04-19T09:46:07Z</time></trkpt><trkpt lat="42.333085546634905" lon="13.471977148191174"><ele>591.0</ele><time>2026-04-19T09:46:08Z</time></trkpt><trkpt lat="42.333112415209285" lon="13.4718896529929"><ele>591.0</ele><time>2026-04-19T09:46:09Z</time></trkpt><trkpt lat="42.33314083737322" lon="13.471799122430252"><ele>591.0</ele><time>2026-04-19T09:46:10Z</time></trkpt><trkpt lat="42.333176837881396" lon="13.471703276346952"><ele>591.2</ele><time>2026-04-19T09:46:11Z</time></trkpt><trkpt lat="42.33322628414326" lon="13.471583017472494"><ele>591.4000000000001</ele><time>2026-04-19T09:46:13Z</time></trkpt><trkpt lat="42.333280079886066" lon="13.471474442669201"><ele>591.6</ele><time>2026-04-19T09:46:15Z</time></trkpt><trkpt lat="42.3333369917169" lon="13.471394287118049"><ele>591.8000000000001</ele><time>2026-04-19T09:46:17Z</time></trkpt><trkpt lat="42.33341886450924" lon="13.471337625559833"><ele>592.0</ele><time>2026-04-19T09:46:19Z</time></trkpt><trkpt lat="42.33353691847508" lon="13.471257598244167"><ele>592.0</ele><time>2026-04-19T09:46:21Z</time></trkpt><trkpt lat="42.333595600407996" lon="13.471202091181306"><ele>592.0</ele><time>2026-04-19T09:46:22Z</time></trkpt><trkpt lat="42.3336300160967" lon="13.471120467482187"><ele>592.0</ele><time>2026-04-19T09:46:23Z</time></trkpt><trkpt lat="42.33362818849002" lon="13.47103332888336"><ele>592.0</ele><time>2026-04-19T09:46:24Z</time></trkpt><trkpt lat="42.33359969965147" lon="13.470938370387666"><ele>592.0</ele><time>2026-04-19T09:46:25Z</time></trkpt><trkpt lat="42.33356323077621" lon="13.470862431071746"><ele>592.0</ele><time>2026-04-19T09:46:26Z</time></trkpt><trkpt lat="42.333496692425406" lon="13.470744694417712"><ele>592.0</ele><time>2026-04-19T09:46:28Z</time></trkpt><trkpt lat="42.333490168219605" lon="13.47064235762548"><ele>592.0</ele><time>2026-04-19T09:46:29Z</time></trkpt><trkpt lat="42.333508807112224" lon="13.470542591211997"><ele>592.0</ele><time>2026-04-19T09:46:30Z</time></trkpt><trkpt lat="42.333515673046904" lon="13.470442112541887"><ele>592.0</ele><time>2026-04-19T09:46:31Z</time></trkpt><trkpt lat="42.33353168282973" lon="13.470328329074393"><ele>592.0</ele><time>2026-04-19T09:46:32Z</time></trkpt><trkpt lat="42.333550083828" lon="13.470209051936552"><ele>592.0</ele><time>2026-04-19T09:46:33Z</time></trkpt><trkpt lat="42.33357678045874" lon="13.470090583289645"><ele>591.8333333333334</ele><time>2026-04-19T09:46:34Z</time></trkpt><trkpt lat="42.333602558084834" lon="13.469988167182802"><ele>591.6666666666667</ele><time>2026-04-19T09:46:35Z</time></trkpt><trkpt lat="42.33362857855364" lon="13.469891501639463"><ele>591.5</ele><time>2026-04-19T09:46:36Z</time></trkpt><trkpt lat="42.3336437451103" lon="13.469775315513322"><ele>591.3333333333334</ele><time>2026-04-19T09:46:37Z</time></trkpt><trkpt lat="42.33368867802878" lon="13.469674872391659"><ele>591.1666666666666</ele><time>2026-04-19T09:46:38Z</time></trkpt><trkpt lat="42.333721038100016" lon="13.469558230080684"><ele>591.0</ele><time>2026-04-19T09:46:39Z</time></trkpt><trkpt lat="42.3337542691467" lon="13.469438448364045"><ele>591.0</ele><time>2026-04-19T09:46:40Z</time></trkpt><trkpt lat="42.33378690934093" lon="13.469320188040331"><ele>591.0</ele><time>2026-04-19T09:46:41Z</time></trkpt><trkpt lat="42.333821492065205" lon="13.46919699744474"><ele>591.0</ele><time>2026-04-19T09:46:42Z</time></trkpt><trkpt lat="42.33385847079785" lon="13.46906512875986"><ele>591.0</ele><time>2026-04-19T09:46:43Z</time></trkpt><trkpt lat="42.33389700459334" lon="13.46892685252462"><ele>591.0</ele><time>2026-04-19T09:46:44Z</time></trkpt><trkpt lat="42.33394030518702" lon="13.468770887929546"><ele>591.5</ele><time>2026-04-19T09:46:45Z</time></trkpt><trkpt lat="42.3339860350753" lon="13.468607321901796"><ele>592.0</ele><time>2026-04-19T09:46:46Z</time></trkpt><trkpt lat="42.33402746705755" lon="13.468459428101864"><ele>592.5</ele><time>2026-04-19T09:46:47Z</time></trkpt><trkpt lat="42.33406857206903" lon="13.468312004894731"><ele>593.0</ele><time>2026-04-19T09:46:48Z</time></trkpt><trkpt lat="42.33410986448257" lon="13.468162945890509"><ele>593.0</ele><time>2026-04-19T09:46:49Z</time></trkpt><trkpt lat="42.33415353865831" lon="13.468007827526803"><ele>593.0</ele><time>2026-04-19T09:46:50Z</time></trkpt><trkpt lat="42.334198433627144" lon="13.467850061526818"><ele>593.0</ele><time>2026-04-19T09:46:51Z</time></trkpt><trkpt lat="42.33424440784734" lon="13.467683221505338"><ele>593.0</ele><time>2026-04-19T09:46:52Z</time></trkpt><trkpt lat="42.33428809432905" lon="13.467527056397763"><ele>592.75</ele><time>2026-04-19T09:46:53Z</time></trkpt><trkpt lat="42.33433119280749" lon="13.467371046096844"><ele>592.5</ele><time>2026-04-19T09:46:54Z</time></trkpt><trkpt lat="42.33437305751003" lon="13.46722037943245"><ele>592.25</ele><time>2026-04-19T09:46:55Z</time></trkpt><trkpt lat="42.33441652838179" lon="13.467063932220896"><ele>592.0</ele><time>2026-04-19T09:46:56Z</time></trkpt><trkpt lat="42.33446022742477" lon="13.466906663873633"><ele>592.0</ele><time>2026-04-19T09:46:57Z</time></trkpt><trkpt lat="42.334503684439156" lon="13.466750266549328"><ele>592.0</ele><time>2026-04-19T09:46:58Z</time></trkpt><trkpt lat="42.334525544850564" lon="13.46658160740486"><ele>592.0</ele><time>2026-04-19T09:46:59Z</time></trkpt><trkpt lat="42.33456975201397" lon="13.466426693729987"><ele>592.0</ele><time>2026-04-19T09:47:00Z</time></trkpt><trkpt lat="42.334612197932046" lon="13.466279378030464"><ele>591.5</ele><time>2026-04-19T09:47:01Z</time></trkpt><trkpt lat="42.33465333501063" lon="13.466130073228625"><ele>591.0</ele><time>2026-04-19T09:47:02Z</time></trkpt><trkpt lat="42.33469425488362" lon="13.465978769346632"><ele>590.5</ele><time>2026-04-19T09:47:03Z</time></trkpt><trkpt lat="42.33475732038332" lon="13.465836217391207"><ele>590.0</ele><time>2026-04-19T09:47:04Z</time></trkpt><trkpt lat="42.33480034972465" lon="13.465682259415855"><ele>591.0</ele><time>2026-04-19T09:47:05Z</time></trkpt><trkpt lat="42.33484401231909" lon="13.465525205552671"><ele>592.0</ele><time>2026-04-19T09:47:06Z</time></trkpt><trkpt lat="42.334887938926784" lon="13.465367336707821"><ele>593.0</ele><time>2026-04-19T09:47:07Z</time></trkpt><trkpt lat="42.33493192505326" lon="13.465209254518852"><ele>594.0</ele><time>2026-04-19T09:47:08Z</time></trkpt><trkpt lat="42.33496973319418" lon="13.465070555177029"><ele>594.0</ele><time>2026-04-19T09:47:09Z</time></trkpt><trkpt lat="42.33500616111338" lon="13.464937998376739"><ele>594.0</ele><time>2026-04-19T09:47:10Z</time></trkpt><trkpt lat="42.335025384463044" lon="13.464808265537071"><ele>594.0</ele><time>2026-04-19T09:47:11Z</time></trkpt><trkpt lat="42.33506529089493" lon="13.464676120737396"><ele>594.0</ele><time>2026-04-19T09:47:12Z</time></trkpt><trkpt lat="42.33510202350295" lon="13.464539563912117"><ele>594.0</ele><time>2026-04-19T09:47:13Z</time></trkpt><trkpt lat="42.335140587313084" lon="13.464395506416547"><ele>594.0</ele><time>2026-04-19T09:47:14Z</time></trkpt><trkpt lat="42.335181995811936" lon="13.464244721616103"><ele>594.0</ele><time>2026-04-19T09:47:15Z</time></trkpt><trkpt lat="42.33522395630046" lon="13.464092660826907"><ele>594.0</ele><time>2026-04-19T09:47:16Z</time></trkpt><trkpt lat="42.33526924437556" lon="13.463936458199163"><ele>594.0</ele><time>2026-04-19T09:47:17Z</time></trkpt><trkpt lat="42.33531360080157" lon="13.46377872242779"><ele>594.0</ele><time>2026-04-19T09:47:18Z</time></trkpt><trkpt lat="42.335370489846696" lon="13.463621582776485"><ele>594.0</ele><time>2026-04-19T09:47:19Z</time></trkpt><trkpt lat="42.335414845988524" lon="13.463461058538732"><ele>594.0</ele><time>2026-04-19T09:47:20Z</time></trkpt><trkpt lat="42.33545331025701" lon="13.463323520476937"><ele>594.0</ele><time>2026-04-19T09:47:21Z</time></trkpt><trkpt lat="42.33548948936226" lon="13.463193730482624"><ele>594.0</ele><time>2026-04-19T09:47:22Z</time></trkpt><trkpt lat="42.33553103527643" lon="13.463044687673074"><ele>594.0</ele><time>2026-04-19T09:47:23Z</time></trkpt><trkpt lat="42.33555813946912" lon="13.462893983206671"><ele>594.0</ele><time>2026-04-19T09:47:24Z</time></trkpt><trkpt lat="42.335602221676766" lon="13.462747982325057"><ele>594.0</ele><time>2026-04-19T09:47:25Z</time></trkpt><trkpt lat="42.335638841139335" lon="13.46261859201816"><ele>594.0</ele><time>2026-04-19T09:47:26Z</time></trkpt><trkpt lat="42.33567170421596" lon="13.462492998619457"><ele>594.0</ele><time>2026-04-19T09:47:27Z</time></trkpt><trkpt lat="42.33570920534583" lon="13.462344782491385"><ele>594.0</ele><time>2026-04-19T09:47:28Z</time></trkpt><trkpt lat="42.335749712533335" lon="13.462195141825562"><ele>594.0</ele><time>2026-04-19T09:47:29Z</time></trkpt><trkpt lat="42.33579014032012" lon="13.46204869117969"><ele>594.0</ele><time>2026-04-19T09:47:30Z</time></trkpt><trkpt lat="42.33583888469079" lon="13.461935541615837"><ele>594.0</ele><time>2026-04-19T09:47:31Z</time></trkpt><trkpt lat="42.33586962240658" lon="13.461825177207311"><ele>594.0</ele><time>2026-04-19T09:47:32Z</time></trkpt><trkpt lat="42.335883690768405" lon="13.46171485256993"><ele>594.0</ele><time>2026-04-19T09:47:33Z</time></trkpt><trkpt lat="42.33591388428198" lon="13.461614429009211"><ele>594.0</ele><time>2026-04-19T09:47:34Z</time></trkpt><trkpt lat="42.33594292101703" lon="13.461505185144045"><ele>594.0</ele><time>2026-04-19T09:47:35Z</time></trkpt><trkpt lat="42.335974998012624" lon="13.4613900013289"><ele>594.0</ele><time>2026-04-19T09:47:36Z</time></trkpt><trkpt lat="42.33600684629729" lon="13.461271315970022"><ele>594.0</ele><time>2026-04-19T09:47:37Z</time></trkpt><trkpt lat="42.33605473566157" lon="13.461160796232628"><ele>594.0</ele><time>2026-04-19T09:47:38Z</time></trkpt><trkpt lat="42.33608881295452" lon="13.461038680382524"><ele>594.0</ele><time>2026-04-19T09:47:39Z</time></trkpt><trkpt lat="42.33612467234368" lon="13.460910178415757"><ele>594.0</ele><time>2026-04-19T09:47:40Z</time></trkpt><trkpt lat="42.33616139586399" lon="13.460778579621987"><ele>594.0</ele><time>2026-04-19T09:47:41Z</time></trkpt><trkpt lat="42.33619944730797" lon="13.460641790439709"><ele>594.0</ele><time>2026-04-19T09:47:42Z</time></trkpt><trkpt lat="42.33623920049642" lon="13.460498787541788"><ele>594.0</ele><time>2026-04-19T09:47:43Z</time></trkpt><trkpt lat="42.33627913568056" lon="13.460355129358138"><ele>594.0</ele><time>2026-04-19T09:47:44Z</time></trkpt><trkpt lat="42.33631833287458" lon="13.460213511627412"><ele>594.0</ele><time>2026-04-19T09:47:45Z</time></trkpt><trkpt lat="42.33635558288281" lon="13.46007894374852"><ele>594.0</ele><time>2026-04-19T09:47:46Z</time></trkpt><trkpt lat="42.33638644238445" lon="13.459967461878742"><ele>594.1666666666666</ele><time>2026-04-19T09:47:47Z</time></trkpt><trkpt lat="42.33641815779152" lon="13.459852888066813"><ele>594.3333333333334</ele><time>2026-04-19T09:47:48Z</time></trkpt><trkpt lat="42.33644660868262" lon="13.459750107443918"><ele>594.5</ele><time>2026-04-19T09:47:49Z</time></trkpt><trkpt lat="42.33647587205332" lon="13.459644391740241"><ele>594.6666666666667</ele><time>2026-04-19T09:47:50Z</time></trkpt><trkpt lat="42.336500935681194" lon="13.459553847800052"><ele>594.8333333333334</ele><time>2026-04-19T09:47:51Z</time></trkpt><trkpt lat="42.336527658034456" lon="13.459459695670766"><ele>595.0</ele><time>2026-04-19T09:47:52Z</time></trkpt><trkpt lat="42.336560418707215" lon="13.45934163156377"><ele>595.0</ele><time>2026-04-19T09:47:53Z</time></trkpt><trkpt lat="42.33659600828265" lon="13.459212265574317"><ele>595.0</ele><time>2026-04-19T09:47:54Z</time></trkpt><trkpt lat="42.33663687400148" lon="13.459063722122552"><ele>595.0</ele><time>2026-04-19T09:47:55Z</time></trkpt><trkpt lat="42.33665006831028" lon="13.458851876531462"><ele>595.0</ele><time>2026-04-19T09:47:56Z</time></trkpt><trkpt lat="42.336710669896846" lon="13.458623611045041"><ele>595.0</ele><time>2026-04-19T09:47:57Z</time></trkpt><trkpt lat="42.33678072653491" lon="13.458394414535292"><ele>595.0</ele><time>2026-04-19T09:47:58Z</time></trkpt><trkpt lat="42.33683810171276" lon="13.458186224534826"><ele>595.0</ele><time>2026-04-19T09:47:59Z</time></trkpt><trkpt lat="42.33688900694117" lon="13.458033847887098"><ele>595.2</ele><time>2026-04-19T09:48:00Z</time></trkpt><trkpt lat="42.33695880909997" lon="13.457926196734073"><ele>595.4</ele><time>2026-04-19T09:48:01Z</time></trkpt><trkpt lat="42.336991033135774" lon="13.457834172951062"><ele>595.6</ele><time>2026-04-19T09:48:02Z</time></trkpt><trkpt lat="42.33703586030508" lon="13.457747069948507"><ele>595.8</ele><time>2026-04-19T09:48:04Z</time></trkpt><trkpt lat="42.33713236443696" lon="13.45764249980028"><ele>596.0</ele><time>2026-04-19T09:48:06Z</time></trkpt><trkpt lat="42.337195022580666" lon="13.457539353786602"><ele>596.0</ele><time>2026-04-19T09:48:08Z</time></trkpt><trkpt lat="42.33718415271523" lon="13.457363115365238"><ele>596.0</ele><time>2026-04-19T09:48:10Z</time></trkpt><trkpt lat="42.33715980528917" lon="13.457252424971333"><ele>596.0</ele><time>2026-04-19T09:48:11Z</time></trkpt><trkpt lat="42.33715561937963" lon="13.457133899300539"><ele>596.0</ele><time>2026-04-19T09:48:12Z</time></trkpt><trkpt lat="42.33717205308872" lon="13.457022347404386"><ele>596.0</ele><time>2026-04-19T09:48:13Z</time></trkpt><trkpt lat="42.33719972184546" lon="13.456926297915912"><ele>596.0</ele><time>2026-04-19T09:48:14Z</time></trkpt><trkpt lat="42.337228523277474" lon="13.456808500530103"><ele>596.0</ele><time>2026-04-19T09:48:15Z</time></trkpt><trkpt lat="42.337248865381156" lon="13.456686702007893"><ele>596.0</ele><time>2026-04-19T09:48:16Z</time></trkpt><trkpt lat="42.33726371089763" lon="13.456567182802967"><ele>596.0</ele><time>2026-04-19T09:48:17Z</time></trkpt><trkpt lat="42.33727700926225" lon="13.456445798274238"><ele>596.0</ele><time>2026-04-19T09:48:18Z</time></trkpt><trkpt lat="42.33729074187321" lon="13.456340156073406"><ele>596.0</ele><time>2026-04-19T09:48:19Z</time></trkpt><trkpt lat="42.33730471661177" lon="13.456234745930965"><ele>596.8</ele><time>2026-04-19T09:48:20Z</time></trkpt><trkpt lat="42.33731400890993" lon="13.456128355150488"><ele>597.6</ele><time>2026-04-19T09:48:21Z</time></trkpt><trkpt lat="42.33731332885379" lon="13.456018470585981"><ele>598.4</ele><time>2026-04-19T09:48:22Z</time></trkpt><trkpt lat="42.337314137891326" lon="13.455912812609318"><ele>599.2</ele><time>2026-04-19T09:48:23Z</time></trkpt><trkpt lat="42.33733119164266" lon="13.455779909459178"><ele>600.0</ele><time>2026-04-19T09:48:25Z</time></trkpt><trkpt lat="42.33731815312035" lon="13.455621903996969"><ele>600.0</ele><time>2026-04-19T09:48:27Z</time></trkpt><trkpt lat="42.337282653822776" lon="13.455462058389415"><ele>600.0</ele><time>2026-04-19T09:48:28Z</time></trkpt><trkpt lat="42.33723667413435" lon="13.455241429807495"><ele>600.0</ele><time>2026-04-19T09:48:29Z</time></trkpt><trkpt lat="42.337209838597246" lon="13.455019280063295"><ele>599.6666666666666</ele><time>2026-04-19T09:48:30Z</time></trkpt><trkpt lat="42.337164287132666" lon="13.454790716082883"><ele>599.3333333333333</ele><time>2026-04-19T09:48:31Z</time></trkpt><trkpt lat="42.33709587131921" lon="13.454536476559246"><ele>599.0</ele><time>2026-04-19T09:48:32Z</time></trkpt><trkpt lat="42.33704450771539" lon="13.454267385145943"><ele>599.0</ele><time>2026-04-19T09:48:33Z</time></trkpt><trkpt lat="42.33698957093483" lon="13.45400817535869"><ele>599.0</ele><time>2026-04-19T09:48:34Z</time></trkpt><trkpt lat="42.33693422513058" lon="13.453770534476623"><ele>599.0</ele><time>2026-04-19T09:48:35Z</time></trkpt><trkpt lat="42.336878627689124" lon="13.453555071558226"><ele>599.6666666666666</ele><time>2026-04-19T09:48:36Z</time></trkpt><trkpt lat="42.33682364988701" lon="13.45333152985628"><ele>600.3333333333334</ele><time>2026-04-19T09:48:37Z</time></trkpt><trkpt lat="42.3367714059378" lon="13.453104854271977"><ele>601.0</ele><time>2026-04-19T09:48:38Z</time></trkpt><trkpt lat="42.336725124530574" lon="13.452883063353502"><ele>601.6666666666667</ele><time>2026-04-19T09:48:39Z</time></trkpt><trkpt lat="42.33668446240729" lon="13.452667706982322"><ele>602.3333333333334</ele><time>2026-04-19T09:48:40Z</time></trkpt><trkpt lat="42.33664847857336" lon="13.452461710564489"><ele>603.0</ele><time>2026-04-19T09:48:41Z</time></trkpt><trkpt lat="42.33661462977012" lon="13.452277592275"><ele>603.0</ele><time>2026-04-19T09:48:42Z</time></trkpt><trkpt lat="42.33658129004778" lon="13.452102368245882"><ele>603.0</ele><time>2026-04-19T09:48:43Z</time></trkpt><trkpt lat="42.33654920094713" lon="13.451947042322761"><ele>603.0</ele><time>2026-04-19T09:48:44Z</time></trkpt><trkpt lat="42.336532527889666" lon="13.451800237222795"><ele>603.0</ele><time>2026-04-19T09:48:45Z</time></trkpt><trkpt lat="42.336537244661834" lon="13.451659402759544"><ele>603.0</ele><time>2026-04-19T09:48:46Z</time></trkpt><trkpt lat="42.336568009144116" lon="13.451516952100915"><ele>603.0</ele><time>2026-04-19T09:48:47Z</time></trkpt><trkpt lat="42.3366163081627" lon="13.451394778051343"><ele>603.0</ele><time>2026-04-19T09:48:48Z</time></trkpt><trkpt lat="42.336661559469945" lon="13.451257769203819"><ele>603.0</ele><time>2026-04-19T09:48:49Z</time></trkpt><trkpt lat="42.33669768155857" lon="13.451070519519195"><ele>603.6666666666666</ele><time>2026-04-19T09:48:50Z</time></trkpt><trkpt lat="42.33673308829748" lon="13.45084238266119"><ele>604.3333333333333</ele><time>2026-04-19T09:48:51Z</time></trkpt><trkpt lat="42.33678889260033" lon="13.450582054591962"><ele>605.0</ele><time>2026-04-19T09:48:52Z</time></trkpt><trkpt lat="42.3368537431849" lon="13.450308508007389"><ele>606.0</ele><time>2026-04-19T09:48:53Z</time></trkpt><trkpt lat="42.33691787347015" lon="13.450012130285064"><ele>607.0</ele><time>2026-04-19T09:48:54Z</time></trkpt><trkpt lat="42.33697754946233" lon="13.449716157145023"><ele>607.0</ele><time>2026-04-19T09:48:55Z</time></trkpt><trkpt lat="42.3370440364127" lon="13.449415435424198"><ele>607.0</ele><time>2026-04-19T09:48:56Z</time></trkpt><trkpt lat="42.337107077445744" lon="13.449126374312819"><ele>607.0</ele><time>2026-04-19T09:48:57Z</time></trkpt><trkpt lat="42.33716170023648" lon="13.44885531509036"><ele>607.0</ele><time>2026-04-19T09:48:58Z</time></trkpt><trkpt lat="42.33723058396543" lon="13.448613744191736"><ele>607.0</ele><time>2026-04-19T09:48:59Z</time></trkpt><trkpt lat="42.33727683210476" lon="13.448394880484813"><ele>611.0</ele><time>2026-04-19T09:49:00Z</time></trkpt><trkpt lat="42.33731509309303" lon="13.448199531832374"><ele>615.0</ele><time>2026-04-19T09:49:01Z</time></trkpt><trkpt lat="42.3373940832752" lon="13.448061331220297"><ele>619.0</ele><time>2026-04-19T09:49:02Z</time></trkpt><trkpt lat="42.33748191433995" lon="13.447947836163943"><ele>623.0</ele><time>2026-04-19T09:49:03Z</time></trkpt><trkpt lat="42.33755930522332" lon="13.44785715609521"><ele>623.0</ele><time>2026-04-19T09:49:04Z</time></trkpt><trkpt lat="42.337596546614456" lon="13.447705809788813"><ele>623.0</ele><time>2026-04-19T09:49:05Z</time></trkpt><trkpt lat="42.337606117781895" lon="13.44754447315241"><ele>623.0</ele><time>2026-04-19T09:49:06Z</time></trkpt><trkpt lat="42.33760123950285" lon="13.447350664155028"><ele>623.0</ele><time>2026-04-19T09:49:07Z</time></trkpt><trkpt lat="42.33762744582907" lon="13.447104103908545"><ele>623.0</ele><time>2026-04-19T09:49:08Z</time></trkpt><trkpt lat="42.33770128576634" lon="13.446826701891277"><ele>623.0</ele><time>2026-04-19T09:49:09Z</time></trkpt><trkpt lat="42.33777205333675" lon="13.446535801931583"><ele>623.0</ele><time>2026-04-19T09:49:10Z</time></trkpt><trkpt lat="42.337837941858076" lon="13.44621776216752"><ele>623.5</ele><time>2026-04-19T09:49:11Z</time></trkpt><trkpt lat="42.3378969295664" lon="13.445900623158218"><ele>624.0</ele><time>2026-04-19T09:49:12Z</time></trkpt><trkpt lat="42.33795644305432" lon="13.44557235927002"><ele>625.0</ele><time>2026-04-19T09:49:13Z</time></trkpt><trkpt lat="42.3380100664543" lon="13.445273966401476"><ele>626.0</ele><time>2026-04-19T09:49:14Z</time></trkpt><trkpt lat="42.338061027858274" lon="13.445002471509587"><ele>627.0</ele><time>2026-04-19T09:49:15Z</time></trkpt><trkpt lat="42.33811458901794" lon="13.444726170242332"><ele>634.0</ele><time>2026-04-19T09:49:16Z</time></trkpt><trkpt lat="42.33818713043519" lon="13.44442007580063"><ele>641.0</ele><time>2026-04-19T09:49:17Z</time></trkpt><trkpt lat="42.33827468872517" lon="13.444119885804614"><ele>641.0</ele><time>2026-04-19T09:49:18Z</time></trkpt><trkpt lat="42.33837141598484" lon="13.44381632166443"><ele>641.0</ele><time>2026-04-19T09:49:19Z</time></trkpt><trkpt lat="42.338464834602256" lon="13.443503493608857"><ele>639.0</ele><time>2026-04-19T09:49:20Z</time></trkpt><trkpt lat="42.33856108138023" lon="13.443185662835845"><ele>637.0</ele><time>2026-04-19T09:49:21Z</time></trkpt><trkpt lat="42.33865544004755" lon="13.442863151580118"><ele>637.0</ele><time>2026-04-19T09:49:22Z</time></trkpt><trkpt lat="42.338748499336525" lon="13.442540208124639"><ele>637.0</ele><time>2026-04-19T09:49:23Z</time></trkpt><trkpt lat="42.33884315345215" lon="13.44221431380922"><ele>643.5</ele><time>2026-04-19T09:49:24Z</time></trkpt><trkpt lat="42.33893753273633" lon="13.441879807701925"><ele>650.0</ele><time>2026-04-19T09:49:25Z</time></trkpt><trkpt lat="42.339030357615314" lon="13.441547963867672"><ele>652.0</ele><time>2026-04-19T09:49:26Z</time></trkpt><trkpt lat="42.33912406070335" lon="13.441206240606252"><ele>654.0</ele><time>2026-04-19T09:49:27Z</time></trkpt><trkpt lat="42.3392201914753" lon="13.440871109957763"><ele>654.0</ele><time>2026-04-19T09:49:28Z</time></trkpt><trkpt lat="42.33932567442984" lon="13.440551609506908"><ele>654.0</ele><time>2026-04-19T09:49:29Z</time></trkpt><trkpt lat="42.33945989680732" lon="13.440253210541725"><ele>651.0</ele><time>2026-04-19T09:49:30Z</time></trkpt><trkpt lat="42.33962279609244" lon="13.43996560870409"><ele>648.0</ele><time>2026-04-19T09:49:31Z</time></trkpt><trkpt lat="42.33979611921802" lon="13.439704959951266"><ele>651.5</ele><time>2026-04-19T09:49:32Z</time></trkpt><trkpt lat="42.34000026386336" lon="13.439479038658648"><ele>655.0</ele><time>2026-04-19T09:49:33Z</time></trkpt><trkpt lat="42.340220292773346" lon="13.439270628779107"><ele>655.0</ele><time>2026-04-19T09:49:34Z</time></trkpt><trkpt lat="42.34045862450749" lon="13.439093062079285"><ele>655.0</ele><time>2026-04-19T09:49:35Z</time></trkpt><trkpt lat="42.34070757795207" lon="13.438950988090005"><ele>655.0</ele><time>2026-04-19T09:49:36Z</time></trkpt><trkpt lat="42.34096136596619" lon="13.4388522259293"><ele>655.0</ele><time>2026-04-19T09:49:37Z</time></trkpt><trkpt lat="42.34122086558576" lon="13.43875455502645"><ele>660.0</ele><time>2026-04-19T09:49:38Z</time></trkpt><trkpt lat="42.341479991286455" lon="13.43868556345226"><ele>665.0</ele><time>2026-04-19T09:49:39Z</time></trkpt><trkpt lat="42.3417440549715" lon="13.438609580348281"><ele>665.0</ele><time>2026-04-19T09:49:40Z</time></trkpt><trkpt lat="42.34200972950558" lon="13.438530238356513"><ele>665.0</ele><time>2026-04-19T09:49:41Z</time></trkpt><trkpt lat="42.34227507964636" lon="13.438449913443558"><ele>668.5</ele><time>2026-04-19T09:49:42Z</time></trkpt><trkpt lat="42.34252974492854" lon="13.43838332438357"><ele>672.0</ele><time>2026-04-19T09:49:43Z</time></trkpt><trkpt lat="42.34277704018169" lon="13.438306267607471"><ele>672.0</ele><time>2026-04-19T09:49:44Z</time></trkpt><trkpt lat="42.34302435095292" lon="13.43822073225988"><ele>672.0</ele><time>2026-04-19T09:49:45Z</time></trkpt><trkpt lat="42.34321495464844" lon="13.437861461088042"><ele>673.5</ele><time>2026-04-19T09:49:46Z</time></trkpt><trkpt lat="42.34341225833024" lon="13.437617038424591"><ele>675.0</ele><time>2026-04-19T09:49:47Z</time></trkpt><trkpt lat="42.34358963538532" lon="13.437331115617246"><ele>673.0</ele><time>2026-04-19T09:49:48Z</time></trkpt><trkpt lat="42.34374054997905" lon="13.43700873944519"><ele>671.0</ele><time>2026-04-19T09:49:49Z</time></trkpt><trkpt lat="42.34386103678144" lon="13.436683019517213"><ele>683.5</ele><time>2026-04-19T09:49:50Z</time></trkpt><trkpt lat="42.343948960918524" lon="13.436355028506858"><ele>696.0</ele><time>2026-04-19T09:49:51Z</time></trkpt><trkpt lat="42.344007867317984" lon="13.436015833950375"><ele>696.5</ele><time>2026-04-19T09:49:52Z</time></trkpt><trkpt lat="42.344037677724295" lon="13.43567775273714"><ele>697.0</ele><time>2026-04-19T09:49:53Z</time></trkpt><trkpt lat="42.34405682060729" lon="13.435341818617308"><ele>695.5</ele><time>2026-04-19T09:49:54Z</time></trkpt><trkpt lat="42.34408991084076" lon="13.434992616106875"><ele>694.0</ele><time>2026-04-19T09:49:55Z</time></trkpt><trkpt lat="42.34414351552022" lon="13.434642201301795"><ele>693.0</ele><time>2026-04-19T09:49:56Z</time></trkpt><trkpt lat="42.34421227333241" lon="13.434313895373027"><ele>692.0</ele><time>2026-04-19T09:49:57Z</time></trkpt><trkpt lat="42.34430732083205" lon="13.434009029489719"><ele>692.0</ele><time>2026-04-19T09:49:58Z</time></trkpt><trkpt lat="42.34442889126765" lon="13.433717867991284"><ele>692.0</ele><time>2026-04-19T09:49:59Z</time></trkpt><trkpt lat="42.344572502364386" lon="13.433438507876811"><ele>695.5</ele><time>2026-04-19T09:50:00Z</time></trkpt><trkpt lat="42.344738411954005" lon="13.433186792887104"><ele>699.0</ele><time>2026-04-19T09:50:01Z</time></trkpt><trkpt lat="42.34493202169344" lon="13.432957170723006"><ele>699.0</ele><time>2026-04-19T09:50:02Z</time></trkpt><trkpt lat="42.34514523522121" lon="13.432751973099531"><ele>699.0</ele><time>2026-04-19T09:50:03Z</time></trkpt><trkpt lat="42.3453748311321" lon="13.432579463094685"><ele>703.5</ele><time>2026-04-19T09:50:04Z</time></trkpt><trkpt lat="42.3456235285474" lon="13.432440856820412"><ele>708.0</ele><time>2026-04-19T09:50:05Z</time></trkpt><trkpt lat="42.34588042962679" lon="13.432334739025924"><ele>708.0</ele><time>2026-04-19T09:50:06Z</time></trkpt><trkpt lat="42.346141623991876" lon="13.4322338124415"><ele>708.0</ele><time>2026-04-19T09:50:07Z</time></trkpt><trkpt lat="42.346398206290615" lon="13.432120143609136"><ele>706.0</ele><time>2026-04-19T09:50:08Z</time></trkpt><trkpt lat="42.34666942621493" lon="13.431993513159867"><ele>704.0</ele><time>2026-04-19T09:50:09Z</time></trkpt><trkpt lat="42.34694993797471" lon="13.43187170190259"><ele>707.5</ele><time>2026-04-19T09:50:10Z</time></trkpt><trkpt lat="42.34722402388739" lon="13.431756231741034"><ele>711.0</ele><time>2026-04-19T09:50:11Z</time></trkpt><trkpt lat="42.34749365892574" lon="13.43164568038761"><ele>711.0</ele><time>2026-04-19T09:50:12Z</time></trkpt><trkpt lat="42.34775344414897" lon="13.43153698547915"><ele>711.0</ele><time>2026-04-19T09:50:13Z</time></trkpt><trkpt lat="42.34800938284169" lon="13.431432226472655"><ele>712.0</ele><time>2026-04-19T09:50:14Z</time></trkpt><trkpt lat="42.348265225521175" lon="13.43132240224853"><ele>713.0</ele><time>2026-04-19T09:50:15Z</time></trkpt><trkpt lat="42.3485201034753" lon="13.431211615646255"><ele>713.0</ele><time>2026-04-19T09:50:16Z</time></trkpt><trkpt lat="42.348772023930785" lon="13.431102029717332"><ele>713.0</ele><time>2026-04-19T09:50:17Z</time></trkpt><trkpt lat="42.34903853689248" lon="13.43098189777567"><ele>717.0</ele><time>2026-04-19T09:50:18Z</time></trkpt><trkpt lat="42.34931666396562" lon="13.430859022622883"><ele>721.0</ele><time>2026-04-19T09:50:19Z</time></trkpt><trkpt lat="42.3495958298602" lon="13.430722454541486"><ele>720.0</ele><time>2026-04-19T09:50:20Z</time></trkpt><trkpt lat="42.34987410318229" lon="13.430558523193337"><ele>719.0</ele><time>2026-04-19T09:50:21Z</time></trkpt><trkpt lat="42.35014893395511" lon="13.430356375000677"><ele>719.0</ele><time>2026-04-19T09:50:22Z</time></trkpt><trkpt lat="42.35041586111027" lon="13.430130782092526"><ele>719.0</ele><time>2026-04-19T09:50:23Z</time></trkpt><trkpt lat="42.350678193405734" lon="13.429907514191287"><ele>723.5</ele><time>2026-04-19T09:50:24Z</time></trkpt><trkpt lat="42.35092799054773" lon="13.429714607600713"><ele>728.0</ele><time>2026-04-19T09:50:25Z</time></trkpt><trkpt lat="42.35117644724389" lon="13.42952950959615"><ele>735.0</ele><time>2026-04-19T09:50:26Z</time></trkpt><trkpt lat="42.35141211474524" lon="13.429347958642905"><ele>742.0</ele><time>2026-04-19T09:50:27Z</time></trkpt><trkpt lat="42.35162152806167" lon="13.429170231265704"><ele>742.0</ele><time>2026-04-19T09:50:28Z</time></trkpt><trkpt lat="42.351820939039776" lon="13.42899899871586"><ele>742.0</ele><time>2026-04-19T09:50:29Z</time></trkpt><trkpt lat="42.352016338106885" lon="13.42881542553547"><ele>742.0</ele><time>2026-04-19T09:50:30Z</time></trkpt><trkpt lat="42.352203675685075" lon="13.428629353270571"><ele>742.0</ele><time>2026-04-19T09:50:31Z</time></trkpt><trkpt lat="42.35239578539385" lon="13.428462090021421"><ele>742.0</ele><time>2026-04-19T09:50:32Z</time></trkpt><trkpt lat="42.35257510657068" lon="13.428298547901885"><ele>742.0</ele><time>2026-04-19T09:50:33Z</time></trkpt><trkpt lat="42.35275087268975" lon="13.428113963556711"><ele>742.0</ele><time>2026-04-19T09:50:34Z</time></trkpt><trkpt lat="42.352912637682934" lon="13.427910420781718"><ele>734.5</ele><time>2026-04-19T09:50:35Z</time></trkpt><trkpt lat="42.35305840537246" lon="13.427676351914219"><ele>727.0</ele><time>2026-04-19T09:50:36Z</time></trkpt><trkpt lat="42.353187323723304" lon="13.427415979197335"><ele>727.5</ele><time>2026-04-19T09:50:37Z</time></trkpt><trkpt lat="42.35329577291034" lon="13.427139385201794"><ele>728.0</ele><time>2026-04-19T09:50:38Z</time></trkpt><trkpt lat="42.353389257926636" lon="13.426842245902135"><ele>728.0</ele><time>2026-04-19T09:50:39Z</time></trkpt><trkpt lat="42.35347143779367" lon="13.426520575536246"><ele>728.0</ele><time>2026-04-19T09:50:40Z</time></trkpt><trkpt lat="42.35353211573166" lon="13.42619574159575"><ele>729.5</ele><time>2026-04-19T09:50:41Z</time></trkpt><trkpt lat="42.3535677720009" lon="13.425870568505745"><ele>731.0</ele><time>2026-04-19T09:50:42Z</time></trkpt><trkpt lat="42.35357660203906" lon="13.425535948003589"><ele>732.5</ele><time>2026-04-19T09:50:43Z</time></trkpt><trkpt lat="42.35355799028656" lon="13.425186596797351"><ele>734.0</ele><time>2026-04-19T09:50:44Z</time></trkpt><trkpt lat="42.35351223516759" lon="13.424831365835752"><ele>737.0</ele><time>2026-04-19T09:50:45Z</time></trkpt><trkpt lat="42.35343807996457" lon="13.424486217122869"><ele>740.0</ele><time>2026-04-19T09:50:46Z</time></trkpt><trkpt lat="42.3533378963552" lon="13.424132343647058"><ele>744.0</ele><time>2026-04-19T09:50:47Z</time></trkpt><trkpt lat="42.35323215279482" lon="13.423784222498538"><ele>748.0</ele><time>2026-04-19T09:50:48Z</time></trkpt><trkpt lat="42.3531336382222" lon="13.42343475468021"><ele>748.0</ele><time>2026-04-19T09:50:49Z</time></trkpt><trkpt lat="42.353050724921744" lon="13.42311633908691"><ele>748.0</ele><time>2026-04-19T09:50:50Z</time></trkpt><trkpt lat="42.35297698425895" lon="13.422843961654774"><ele>746.6666666666667</ele><time>2026-04-19T09:50:51Z</time></trkpt><trkpt lat="42.35290399166708" lon="13.422596991471384"><ele>745.3333333333334</ele><time>2026-04-19T09:50:52Z</time></trkpt><trkpt lat="42.35283682747226" lon="13.422351016135593"><ele>744.0</ele><time>2026-04-19T09:50:53Z</time></trkpt><trkpt lat="42.352773006744094" lon="13.422115676026191"><ele>744.0</ele><time>2026-04-19T09:50:54Z</time></trkpt><trkpt lat="42.352714536670305" lon="13.421890153050123"><ele>744.0</ele><time>2026-04-19T09:50:55Z</time></trkpt><trkpt lat="42.352656672893126" lon="13.421668037853845"><ele>744.0</ele><time>2026-04-19T09:50:56Z</time></trkpt><trkpt lat="42.35260458327866" lon="13.421463171682609"><ele>743.25</ele><time>2026-04-19T09:50:57Z</time></trkpt><trkpt lat="42.35257167405736" lon="13.42129141343499"><ele>742.5</ele><time>2026-04-19T09:50:58Z</time></trkpt><trkpt lat="42.35255268138368" lon="13.42113269707313"><ele>741.75</ele><time>2026-04-19T09:50:59Z</time></trkpt><trkpt lat="42.35255004964818" lon="13.420979213960186"><ele>741.0</ele><time>2026-04-19T09:51:00Z</time></trkpt><trkpt lat="42.35256102990071" lon="13.420831631575368"><ele>741.0</ele><time>2026-04-19T09:51:01Z</time></trkpt><trkpt lat="42.35258118083574" lon="13.420690450371024"><ele>741.0</ele><time>2026-04-19T09:51:02Z</time></trkpt><trkpt lat="42.35259840409607" lon="13.4205420235397"><ele>741.0</ele><time>2026-04-19T09:51:03Z</time></trkpt><trkpt lat="42.35260700041104" lon="13.420400134985899"><ele>741.0</ele><time>2026-04-19T09:51:04Z</time></trkpt><trkpt lat="42.352595564925586" lon="13.420287061107498"><ele>741.0</ele><time>2026-04-19T09:51:05Z</time></trkpt><trkpt lat="42.352590932158" lon="13.42014362020889"><ele>741.0</ele><time>2026-04-19T09:51:06Z</time></trkpt><trkpt lat="42.35256444973313" lon="13.420022746628664"><ele>741.0</ele><time>2026-04-19T09:51:07Z</time></trkpt><trkpt lat="42.35252236019986" lon="13.419924579695788"><ele>741.0</ele><time>2026-04-19T09:51:08Z</time></trkpt><trkpt lat="42.35247270393343" lon="13.4198332945305"><ele>741.0</ele><time>2026-04-19T09:51:09Z</time></trkpt><trkpt lat="42.352423393213854" lon="13.419748032497546"><ele>741.0</ele><time>2026-04-19T09:51:10Z</time></trkpt><trkpt lat="42.35238252905009" lon="13.419664851424582"><ele>741.0</ele><time>2026-04-19T09:51:11Z</time></trkpt><trkpt lat="42.35234102461831" lon="13.419574295068347"><ele>741.0</ele><time>2026-04-19T09:51:12Z</time></trkpt><trkpt lat="42.35230805813933" lon="13.419484441794037"><ele>741.0</ele><time>2026-04-19T09:51:13Z</time></trkpt><trkpt lat="42.35228288334171" lon="13.419387942222077"><ele>741.0</ele><time>2026-04-19T09:51:14Z</time></trkpt><trkpt lat="42.35227026621987" lon="13.419292096355566"><ele>741.0</ele><time>2026-04-19T09:51:15Z</time></trkpt><trkpt lat="42.352277095479" lon="13.419179924195268"><ele>741.0</ele><time>2026-04-19T09:51:17Z</time></trkpt><trkpt lat="42.35228243395995" lon="13.419063776632118"><ele>741.0</ele><time>2026-04-19T09:51:19Z</time></trkpt><trkpt lat="42.35225723781977" lon="13.418920837685663"><ele>738.8</ele><time>2026-04-19T09:51:21Z</time></trkpt><trkpt lat="42.35218567675738" lon="13.4187941867338"><ele>736.5999999999999</ele><time>2026-04-19T09:51:23Z</time></trkpt><trkpt lat="42.35213206488365" lon="13.41874853574152"><ele>734.4</ele><time>2026-04-19T09:51:24Z</time></trkpt><trkpt lat="42.352073356711706" lon="13.418712417699131"><ele>732.2</ele><time>2026-04-19T09:51:25Z</time></trkpt><trkpt lat="42.35196726968793" lon="13.418662151895722"><ele>730.0</ele><time>2026-04-19T09:51:27Z</time></trkpt><trkpt lat="42.35186932663653" lon="13.418574385093676"><ele>730.0</ele><time>2026-04-19T09:51:29Z</time></trkpt><trkpt lat="42.35182490609403" lon="13.418511371629164"><ele>730.0</ele><time>2026-04-19T09:51:30Z</time></trkpt><trkpt lat="42.351754833215864" lon="13.418365316554224"><ele>730.0</ele><time>2026-04-19T09:51:32Z</time></trkpt><trkpt lat="42.35173106229863" lon="13.4182828795837"><ele>730.0</ele><time>2026-04-19T09:51:33Z</time></trkpt><trkpt lat="42.351715275564935" lon="13.418198989868857"><ele>730.0</ele><time>2026-04-19T09:51:34Z</time></trkpt><trkpt lat="42.351704147505984" lon="13.418102595460292"><ele>730.0</ele><time>2026-04-19T09:51:35Z</time></trkpt><trkpt lat="42.35169703574103" lon="13.417988034219986"><ele>730.0</ele><time>2026-04-19T09:51:36Z</time></trkpt><trkpt lat="42.3516956273366" lon="13.417859354451208"><ele>730.0</ele><time>2026-04-19T09:51:37Z</time></trkpt><trkpt lat="42.35169767033717" lon="13.417726478691241"><ele>730.0</ele><time>2026-04-19T09:51:38Z</time></trkpt><trkpt lat="42.35169929386405" lon="13.417581079669604"><ele>730.0</ele><time>2026-04-19T09:51:39Z</time></trkpt><trkpt lat="42.351698051235466" lon="13.417431435533125"><ele>730.0</ele><time>2026-04-19T09:51:40Z</time></trkpt><trkpt lat="42.35170211884913" lon="13.417274938203851"><ele>729.25</ele><time>2026-04-19T09:51:41Z</time></trkpt><trkpt lat="42.35170885421406" lon="13.417119719339103"><ele>728.5</ele><time>2026-04-19T09:51:42Z</time></trkpt><trkpt lat="42.35171577101923" lon="13.416975014159501"><ele>727.75</ele><time>2026-04-19T09:51:43Z</time></trkpt><trkpt lat="42.351720917841035" lon="13.416831824105447"><ele>727.0</ele><time>2026-04-19T09:51:44Z</time></trkpt><trkpt lat="42.35172736493228" lon="13.41666274601975"><ele>727.0</ele><time>2026-04-19T09:51:45Z</time></trkpt><trkpt lat="42.35174714361346" lon="13.416477354859774"><ele>727.0</ele><time>2026-04-19T09:51:46Z</time></trkpt><trkpt lat="42.35179040087084" lon="13.416286171972258"><ele>727.0</ele><time>2026-04-19T09:51:47Z</time></trkpt><trkpt lat="42.35186204651014" lon="13.416099450280818"><ele>727.0</ele><time>2026-04-19T09:51:48Z</time></trkpt><trkpt lat="42.35195173956255" lon="13.415918423029426"><ele>726.25</ele><time>2026-04-19T09:51:49Z</time></trkpt><trkpt lat="42.35204557068102" lon="13.415764657446529"><ele>725.5</ele><time>2026-04-19T09:51:50Z</time></trkpt><trkpt lat="42.352134869629495" lon="13.415620659218773"><ele>724.75</ele><time>2026-04-19T09:51:51Z</time></trkpt><trkpt lat="42.352213861080855" lon="13.415478421798428"><ele>724.0</ele><time>2026-04-19T09:51:52Z</time></trkpt><trkpt lat="42.35228880666085" lon="13.415335653949755"><ele>723.25</ele><time>2026-04-19T09:51:53Z</time></trkpt><trkpt lat="42.35235380401928" lon="13.415195164945303"><ele>722.5</ele><time>2026-04-19T09:51:54Z</time></trkpt><trkpt lat="42.35240531131693" lon="13.415054798435712"><ele>721.75</ele><time>2026-04-19T09:51:55Z</time></trkpt><trkpt lat="42.35244576473232" lon="13.414914149860367"><ele>721.0</ele><time>2026-04-19T09:51:56Z</time></trkpt><trkpt lat="42.352474520678356" lon="13.41477074243785"><ele>720.8</ele><time>2026-04-19T09:51:57Z</time></trkpt><trkpt lat="42.35249579340321" lon="13.414624093262987"><ele>720.5999999999999</ele><time>2026-04-19T09:51:58Z</time></trkpt><trkpt lat="42.35251340899142" lon="13.414467098352576"><ele>720.4</ele><time>2026-04-19T09:51:59Z</time></trkpt><trkpt lat="42.35251908088961" lon="13.414315181923016"><ele>720.2</ele><time>2026-04-19T09:52:00Z</time></trkpt><trkpt lat="42.35251459652557" lon="13.41417252067573"><ele>720.0</ele><time>2026-04-19T09:52:01Z</time></trkpt><trkpt lat="42.352499861055456" lon="13.414036050817606"><ele>720.0</ele><time>2026-04-19T09:52:02Z</time></trkpt><trkpt lat="42.35247733802838" lon="13.413910945573337"><ele>720.0</ele><time>2026-04-19T09:52:03Z</time></trkpt><trkpt lat="42.352451865187504" lon="13.413796277568506"><ele>720.0</ele><time>2026-04-19T09:52:04Z</time></trkpt><trkpt lat="42.352427103537174" lon="13.413672551194903"><ele>720.0</ele><time>2026-04-19T09:52:05Z</time></trkpt><trkpt lat="42.35238691713936" lon="13.413545380328973"><ele>720.0</ele><time>2026-04-19T09:52:06Z</time></trkpt><trkpt lat="42.35234052258872" lon="13.413425297525347"><ele>719.5</ele><time>2026-04-19T09:52:07Z</time></trkpt><trkpt lat="42.35229307986946" lon="13.413321733518023"><ele>719.0</ele><time>2026-04-19T09:52:08Z</time></trkpt><trkpt lat="42.35224560266286" lon="13.413224154229324"><ele>718.5</ele><time>2026-04-19T09:52:09Z</time></trkpt><trkpt lat="42.35219780346858" lon="13.41313399585062"><ele>718.0</ele><time>2026-04-19T09:52:10Z</time></trkpt><trkpt lat="42.352159483674725" lon="13.413041496907587"><ele>717.5</ele><time>2026-04-19T09:52:11Z</time></trkpt><trkpt lat="42.352124372432975" lon="13.412946082095722"><ele>717.0</ele><time>2026-04-19T09:52:12Z</time></trkpt><trkpt lat="42.35210021489715" lon="13.412854769216104"><ele>716.6666666666666</ele><time>2026-04-19T09:52:13Z</time></trkpt><trkpt lat="42.352082136790905" lon="13.412760102455225"><ele>716.3333333333334</ele><time>2026-04-19T09:52:14Z</time></trkpt><trkpt lat="42.35207626707641" lon="13.412665269643364"><ele>716.0</ele><time>2026-04-19T09:52:15Z</time></trkpt><trkpt lat="42.352079212161456" lon="13.41256085413576"><ele>715.6666666666667</ele><time>2026-04-19T09:52:16Z</time></trkpt><trkpt lat="42.35209103795686" lon="13.412454675877365"><ele>715.3333333333334</ele><time>2026-04-19T09:52:17Z</time></trkpt><trkpt lat="42.3521104497682" lon="13.412341974309575"><ele>715.0</ele><time>2026-04-19T09:52:18Z</time></trkpt><trkpt lat="42.35211544409651" lon="13.412231910775"><ele>715.1666666666667</ele><time>2026-04-19T09:52:19Z</time></trkpt><trkpt lat="42.35217752107241" lon="13.412133986095522"><ele>715.3333333333334</ele><time>2026-04-19T09:52:20Z</time></trkpt><trkpt lat="42.35222376523518" lon="13.41205168953352"><ele>715.5</ele><time>2026-04-19T09:52:21Z</time></trkpt><trkpt lat="42.35228509271742" lon="13.411984457716509"><ele>715.6666666666666</ele><time>2026-04-19T09:52:22Z</time></trkpt><trkpt lat="42.352315192000525" lon="13.411902758079597"><ele>715.8333333333333</ele><time>2026-04-19T09:52:23Z</time></trkpt><trkpt lat="42.35239246912883" lon="13.41179939333773"><ele>716.0</ele><time>2026-04-19T09:52:25Z</time></trkpt><trkpt lat="42.352455950785874" lon="13.4116987869981"><ele>716.0</ele><time>2026-04-19T09:52:27Z</time></trkpt><trkpt lat="42.35251890531781" lon="13.411621194276966"><ele>716.0</ele><time>2026-04-19T09:52:29Z</time></trkpt><trkpt lat="42.35260996729847" lon="13.41148275887603"><ele>716.0</ele><time>2026-04-19T09:52:31Z</time></trkpt><trkpt lat="42.35265861469" lon="13.411407926343731"><ele>716.0</ele><time>2026-04-19T09:52:32Z</time></trkpt><trkpt lat="42.35271960269685" lon="13.411327488406931"><ele>716.0</ele><time>2026-04-19T09:52:33Z</time></trkpt><trkpt lat="42.352771207644345" lon="13.411244660227872"><ele>716.0</ele><time>2026-04-19T09:52:34Z</time></trkpt><trkpt lat="42.352817616634646" lon="13.411171973791"><ele>716.0</ele><time>2026-04-19T09:52:35Z</time></trkpt><trkpt lat="42.35287653197316" lon="13.411117392960472"><ele>716.0</ele><time>2026-04-19T09:52:36Z</time></trkpt><trkpt lat="42.352930530947624" lon="13.411039403539931"><ele>716.0</ele><time>2026-04-19T09:52:37Z</time></trkpt><trkpt lat="42.35298155354149" lon="13.410965286034207"><ele>716.0</ele><time>2026-04-19T09:52:38Z</time></trkpt><trkpt lat="42.35303397927621" lon="13.410889140687944"><ele>716.0</ele><time>2026-04-19T09:52:39Z</time></trkpt><trkpt lat="42.35308929566397" lon="13.410808796833646"><ele>716.0</ele><time>2026-04-19T09:52:40Z</time></trkpt><trkpt lat="42.353145753842476" lon="13.41072679459565"><ele>716.0</ele><time>2026-04-19T09:52:41Z</time></trkpt><trkpt lat="42.35320254266428" lon="13.410644312116153"><ele>716.0</ele><time>2026-04-19T09:52:42Z</time></trkpt><trkpt lat="42.35325614850636" lon="13.410566452724918"><ele>716.0</ele><time>2026-04-19T09:52:43Z</time></trkpt><trkpt lat="42.35330814967894" lon="13.410491003556098"><ele>716.0</ele><time>2026-04-19T09:52:44Z</time></trkpt><trkpt lat="42.35335614210769" lon="13.410421353745173"><ele>716.0</ele><time>2026-04-19T09:52:45Z</time></trkpt><trkpt lat="42.353402948788805" lon="13.410353424772014"><ele>715.5714285714287</ele><time>2026-04-19T09:52:46Z</time></trkpt><trkpt lat="42.35343740335474" lon="13.41027145824263"><ele>715.1428571428571</ele><time>2026-04-19T09:52:47Z</time></trkpt><trkpt lat="42.35348332374916" lon="13.410204326686095"><ele>714.7142857142858</ele><time>2026-04-19T09:52:48Z</time></trkpt><trkpt lat="42.35354147993356" lon="13.410152731824954"><ele>714.2857142857143</ele><time>2026-04-19T09:52:49Z</time></trkpt><trkpt lat="42.35358870117695" lon="13.41008444443201"><ele>713.8571428571429</ele><time>2026-04-19T09:52:50Z</time></trkpt><trkpt lat="42.35363854629227" lon="13.410012145747482"><ele>713.4285714285714</ele><time>2026-04-19T09:52:51Z</time></trkpt><trkpt lat="42.353692410653785" lon="13.409934017279198"><ele>713.0</ele><time>2026-04-19T09:52:52Z</time></trkpt><trkpt lat="42.353746998890536" lon="13.409854838854516"><ele>713.0</ele><time>2026-04-19T09:52:53Z</time></trkpt><trkpt lat="42.35379946872266" lon="13.409778733104208"><ele>713.0</ele><time>2026-04-19T09:52:54Z</time></trkpt><trkpt lat="42.35385305903546" lon="13.409701002135906"><ele>713.0</ele><time>2026-04-19T09:52:55Z</time></trkpt><trkpt lat="42.353904200987564" lon="13.409626822433879"><ele>713.0</ele><time>2026-04-19T09:52:56Z</time></trkpt><trkpt lat="42.35394806476055" lon="13.409563199489307"><ele>713.0</ele><time>2026-04-19T09:52:57Z</time></trkpt><trkpt lat="42.3539979213066" lon="13.409490884252763"><ele>713.0</ele><time>2026-04-19T09:52:58Z</time></trkpt><trkpt lat="42.354053497770636" lon="13.40941132732187"><ele>713.0</ele><time>2026-04-19T09:52:59Z</time></trkpt><trkpt lat="42.35411123949895" lon="13.40932737587101"><ele>713.1666666666666</ele><time>2026-04-19T09:53:00Z</time></trkpt><trkpt lat="42.354159606595154" lon="13.409257054321914"><ele>713.3333333333333</ele><time>2026-04-19T09:53:01Z</time></trkpt><trkpt lat="42.354245944592385" lon="13.409131277828713"><ele>713.5</ele><time>2026-04-19T09:53:03Z</time></trkpt><trkpt lat="42.35429448387684" lon="13.409060500838502"><ele>713.6666666666666</ele><time>2026-04-19T09:53:04Z</time></trkpt><trkpt lat="42.354340660201814" lon="13.408993169372945"><ele>713.8333333333334</ele><time>2026-04-19T09:53:05Z</time></trkpt><trkpt lat="42.354384427439314" lon="13.408929350693159"><ele>714.0</ele><time>2026-04-19T09:53:06Z</time></trkpt><trkpt lat="42.35442820898653" lon="13.408861805754519"><ele>713.5</ele><time>2026-04-19T09:53:07Z</time></trkpt><trkpt lat="42.35448049949265" lon="13.4087788173988"><ele>713.0</ele><time>2026-04-19T09:53:08Z</time></trkpt><trkpt lat="42.354531285162935" lon="13.408686367818005"><ele>712.5</ele><time>2026-04-19T09:53:09Z</time></trkpt><trkpt lat="42.35457990871584" lon="13.408590265006588"><ele>712.0</ele><time>2026-04-19T09:53:10Z</time></trkpt><trkpt lat="42.35462722486191" lon="13.408493294567908"><ele>711.5</ele><time>2026-04-19T09:53:11Z</time></trkpt><trkpt lat="42.3546621101684" lon="13.408381346596881"><ele>711.0</ele><time>2026-04-19T09:53:12Z</time></trkpt><trkpt lat="42.35472576051392" lon="13.40828993637718"><ele>711.0</ele><time>2026-04-19T09:53:13Z</time></trkpt><trkpt lat="42.354773606117604" lon="13.408191192469541"><ele>711.0</ele><time>2026-04-19T09:53:14Z</time></trkpt><trkpt lat="42.35481865139289" lon="13.408098227887235"><ele>711.0</ele><time>2026-04-19T09:53:15Z</time></trkpt><trkpt lat="42.35486240726168" lon="13.408007924391775"><ele>711.0</ele><time>2026-04-19T09:53:16Z</time></trkpt><trkpt lat="42.35490558251295" lon="13.407911470598322"><ele>711.0</ele><time>2026-04-19T09:53:17Z</time></trkpt><trkpt lat="42.35494968286459" lon="13.40781956861501"><ele>711.0</ele><time>2026-04-19T09:53:18Z</time></trkpt><trkpt lat="42.354993194793586" lon="13.407728892862538"><ele>711.1666666666666</ele><time>2026-04-19T09:53:19Z</time></trkpt><trkpt lat="42.35503553762699" lon="13.407640653420987"><ele>711.3333333333334</ele><time>2026-04-19T09:53:20Z</time></trkpt><trkpt lat="42.355074565512794" lon="13.407559322094059"><ele>711.5</ele><time>2026-04-19T09:53:21Z</time></trkpt><trkpt lat="42.355110568392874" lon="13.407484294663654"><ele>711.6666666666667</ele><time>2026-04-19T09:53:22Z</time></trkpt><trkpt lat="42.3551334313903" lon="13.40739711099168"><ele>711.8333333333334</ele><time>2026-04-19T09:53:23Z</time></trkpt><trkpt lat="42.35523226826218" lon="13.407303089880102"><ele>712.0</ele><time>2026-04-19T09:53:25Z</time></trkpt><trkpt lat="42.35533300350603" lon="13.407280151155602"><ele>712.0</ele><time>2026-04-19T09:53:27Z</time></trkpt><trkpt lat="42.35543814648742" lon="13.407271317928787"><ele>712.0</ele><time>2026-04-19T09:53:29Z</time></trkpt><trkpt lat="42.355546243047435" lon="13.407228021035758"><ele>712.0</ele><time>2026-04-19T09:53:31Z</time></trkpt><trkpt lat="42.35558725735669" lon="13.407145956974777"><ele>712.0</ele><time>2026-04-19T09:53:32Z</time></trkpt><trkpt lat="42.35559116545825" lon="13.407036955912929"><ele>712.0</ele><time>2026-04-19T09:53:33Z</time></trkpt><trkpt lat="42.355597878302014" lon="13.406940427745253"><ele>712.0</ele><time>2026-04-19T09:53:34Z</time></trkpt><trkpt lat="42.355601057878076" lon="13.406855317346427"><ele>712.0</ele><time>2026-04-19T09:53:35Z</time></trkpt><trkpt lat="42.35566612772922" lon="13.406729205342756"><ele>712.0</ele><time>2026-04-19T09:53:37Z</time></trkpt><trkpt lat="42.35571477161101" lon="13.40661359136692"><ele>712.0</ele><time>2026-04-19T09:53:39Z</time></trkpt><trkpt lat="42.355761870086525" lon="13.406526010837277"><ele>712.0</ele><time>2026-04-19T09:53:41Z</time></trkpt><trkpt lat="42.355804879133515" lon="13.406411896619787"><ele>712.0</ele><time>2026-04-19T09:53:43Z</time></trkpt><trkpt lat="42.35586842562608" lon="13.406296908345169"><ele>712.0</ele><time>2026-04-19T09:53:45Z</time></trkpt><trkpt lat="42.355892353433546" lon="13.406213264913575"><ele>712.0</ele><time>2026-04-19T09:53:48Z</time></trkpt><trkpt lat="42.35593792663502" lon="13.40611019638325"><ele>712.0</ele><time>2026-04-19T09:53:52Z</time></trkpt><trkpt lat="42.356006215274114" lon="13.405986988255743"><ele>712.0</ele><time>2026-04-19T09:53:54Z</time></trkpt><trkpt lat="42.356024277067824" lon="13.405895291003997"><ele>712.0</ele><time>2026-04-19T09:53:55Z</time></trkpt><trkpt lat="42.356030926658825" lon="13.405783003651734"><ele>712.0</ele><time>2026-04-19T09:53:56Z</time></trkpt><trkpt lat="42.35607178601362" lon="13.405689781254633"><ele>712.0</ele><time>2026-04-19T09:53:57Z</time></trkpt><trkpt lat="42.35614812069026" lon="13.405595190988587"><ele>712.0</ele><time>2026-04-19T09:53:58Z</time></trkpt><trkpt lat="42.35625107688336" lon="13.405527532744502"><ele>712.0</ele><time>2026-04-19T09:53:59Z</time></trkpt><trkpt lat="42.35632454954652" lon="13.405426457221303"><ele>712.0</ele><time>2026-04-19T09:54:00Z</time></trkpt><trkpt lat="42.35640221807838" lon="13.405359699506997"><ele>712.0</ele><time>2026-04-19T09:54:01Z</time></trkpt><trkpt lat="42.35647268903559" lon="13.40529631679363"><ele>711.3333333333334</ele><time>2026-04-19T09:54:02Z</time></trkpt><trkpt lat="42.35653939746859" lon="13.405236875247734"><ele>710.6666666666667</ele><time>2026-04-19T09:54:03Z</time></trkpt><trkpt lat="42.356599565064876" lon="13.405181442216582"><ele>710.0</ele><time>2026-04-19T09:54:04Z</time></trkpt><trkpt lat="42.35666994930063" lon="13.405148892013223"><ele>709.3333333333334</ele><time>2026-04-19T09:54:05Z</time></trkpt><trkpt lat="42.3567399335566" lon="13.40510215973124"><ele>708.6666666666666</ele><time>2026-04-19T09:54:06Z</time></trkpt><trkpt lat="42.35681547954623" lon="13.40506603533262"><ele>708.0</ele><time>2026-04-19T09:54:07Z</time></trkpt><trkpt lat="42.35687924979933" lon="13.405023812458762"><ele>708.0</ele><time>2026-04-19T09:54:08Z</time></trkpt><trkpt lat="42.35694844043938" lon="13.405013489326732"><ele>708.0</ele><time>2026-04-19T09:54:09Z</time></trkpt><trkpt lat="42.35701341042702" lon="13.405007388096985"><ele>708.0</ele><time>2026-04-19T09:54:10Z</time></trkpt><trkpt lat="42.35708934535115" lon="13.405000512744738"><ele>708.0</ele><time>2026-04-19T09:54:11Z</time></trkpt><trkpt lat="42.357173754732045" lon="13.404992532501305"><ele>708.0</ele><time>2026-04-19T09:54:12Z</time></trkpt><trkpt lat="42.357255707137035" lon="13.404979839897207"><ele>708.0</ele><time>2026-04-19T09:54:13Z</time></trkpt><trkpt lat="42.35733189120585" lon="13.404974526858796"><ele>708.4</ele><time>2026-04-19T09:54:14Z</time></trkpt><trkpt lat="42.35739783268417" lon="13.404955041327927"><ele>708.8</ele><time>2026-04-19T09:54:15Z</time></trkpt><trkpt lat="42.3574628399942" lon="13.404916286330993"><ele>709.2</ele><time>2026-04-19T09:54:16Z</time></trkpt><trkpt lat="42.35751880819999" lon="13.404867695855383"><ele>709.6</ele><time>2026-04-19T09:54:17Z</time></trkpt><trkpt lat="42.357607054387465" lon="13.404752148824308"><ele>710.0</ele><time>2026-04-19T09:54:19Z</time></trkpt><trkpt lat="42.35767109743391" lon="13.404607489922808"><ele>708.8571428571429</ele><time>2026-04-19T09:54:21Z</time></trkpt><trkpt lat="42.35767406913315" lon="13.404491208482584"><ele>707.7142857142858</ele><time>2026-04-19T09:54:22Z</time></trkpt><trkpt lat="42.35766523577024" lon="13.40438487403737"><ele>706.5714285714287</ele><time>2026-04-19T09:54:23Z</time></trkpt><trkpt lat="42.35763569000464" lon="13.404290715653666"><ele>705.4285714285714</ele><time>2026-04-19T09:54:24Z</time></trkpt><trkpt lat="42.357604189938556" lon="13.404211779790849"><ele>704.2857142857143</ele><time>2026-04-19T09:54:25Z</time></trkpt><trkpt lat="42.35757408067791" lon="13.404130164372571"><ele>703.1428571428572</ele><time>2026-04-19T09:54:26Z</time></trkpt><trkpt lat="42.35754257873857" lon="13.404040799438675"><ele>702.0</ele><time>2026-04-19T09:54:27Z</time></trkpt><trkpt lat="42.35751884578603" lon="13.403937105426497"><ele>702.0</ele><time>2026-04-19T09:54:28Z</time></trkpt><trkpt lat="42.3574666278658" lon="13.403840254913034"><ele>702.0</ele><time>2026-04-19T09:54:29Z</time></trkpt><trkpt lat="42.35741961775298" lon="13.403720639333233"><ele>702.0</ele><time>2026-04-19T09:54:30Z</time></trkpt><trkpt lat="42.35738647543731" lon="13.403590484755387"><ele>702.0</ele><time>2026-04-19T09:54:31Z</time></trkpt><trkpt lat="42.3573409414253" lon="13.403471250905449"><ele>702.0</ele><time>2026-04-19T09:54:32Z</time></trkpt><trkpt lat="42.35728332764764" lon="13.40335821900084"><ele>702.2</ele><time>2026-04-19T09:54:33Z</time></trkpt><trkpt lat="42.357238622518025" lon="13.403235432643887"><ele>702.4000000000001</ele><time>2026-04-19T09:54:34Z</time></trkpt><trkpt lat="42.35719554165941" lon="13.403113138088216"><ele>702.5999999999999</ele><time>2026-04-19T09:54:35Z</time></trkpt><trkpt lat="42.357153460916535" lon="13.40299480758073"><ele>702.8</ele><time>2026-04-19T09:54:36Z</time></trkpt><trkpt lat="42.357119845435314" lon="13.40286391858747"><ele>703.0</ele><time>2026-04-19T09:54:37Z</time></trkpt><trkpt lat="42.35709570171303" lon="13.402722250060823"><ele>703.0</ele><time>2026-04-19T09:54:38Z</time></trkpt><trkpt lat="42.357080003474785" lon="13.402591538115011"><ele>703.0</ele><time>2026-04-19T09:54:39Z</time></trkpt><trkpt lat="42.35706935233663" lon="13.402465748258532"><ele>703.0</ele><time>2026-04-19T09:54:40Z</time></trkpt><trkpt lat="42.357064332446605" lon="13.402348720040218"><ele>703.0</ele><time>2026-04-19T09:54:41Z</time></trkpt><trkpt lat="42.35706582726782" lon="13.402237605116113"><ele>703.0</ele><time>2026-04-19T09:54:42Z</time></trkpt><trkpt lat="42.357066696774964" lon="13.402121547248255"><ele>703.0</ele><time>2026-04-19T09:54:43Z</time></trkpt><trkpt lat="42.357067311572955" lon="13.40199709030419"><ele>703.0</ele><time>2026-04-19T09:54:44Z</time></trkpt><trkpt lat="42.35706491067643" lon="13.401862287924699"><ele>703.0</ele><time>2026-04-19T09:54:45Z</time></trkpt><trkpt lat="42.35706381950285" lon="13.401731438737231"><ele>703.0</ele><time>2026-04-19T09:54:46Z</time></trkpt><trkpt lat="42.35706471147924" lon="13.401601766726115"><ele>703.0</ele><time>2026-04-19T09:54:47Z</time></trkpt><trkpt lat="42.35706314355604" lon="13.401479185212821"><ele>703.0</ele><time>2026-04-19T09:54:48Z</time></trkpt><trkpt lat="42.35705790823237" lon="13.401378700665912"><ele>703.2</ele><time>2026-04-19T09:54:49Z</time></trkpt><trkpt lat="42.357053203178666" lon="13.401290157199645"><ele>703.4</ele><time>2026-04-19T09:54:50Z</time></trkpt><trkpt lat="42.357053878605626" lon="13.401201267605538"><ele>703.6</ele><time>2026-04-19T09:54:51Z</time></trkpt><trkpt lat="42.357052962162214" lon="13.401021666851827"><ele>703.8000000000001</ele><time>2026-04-19T09:54:53Z</time></trkpt><trkpt lat="42.357053161431416" lon="13.400928360478817"><ele>704.0</ele><time>2026-04-19T09:54:54Z</time></trkpt><trkpt lat="42.357047461561585" lon="13.400752522165016"><ele>704.0</ele><time>2026-04-19T09:54:56Z</time></trkpt><trkpt lat="42.35704641454155" lon="13.400652488766003"><ele>704.0</ele><time>2026-04-19T09:54:57Z</time></trkpt><trkpt lat="42.35704631120641" lon="13.400557695647986"><ele>704.0</ele><time>2026-04-19T09:54:58Z</time></trkpt><trkpt lat="42.35704178722111" lon="13.400451537804269"><ele>704.0</ele><time>2026-04-19T09:54:59Z</time></trkpt><trkpt lat="42.35705656167426" lon="13.400326248716947"><ele>704.0</ele><time>2026-04-19T09:55:00Z</time></trkpt><trkpt lat="42.35705504099478" lon="13.400173661001315"><ele>704.0</ele><time>2026-04-19T09:55:01Z</time></trkpt><trkpt lat="42.357053564543854" lon="13.400003055768025"><ele>703.0</ele><time>2026-04-19T09:55:02Z</time></trkpt><trkpt lat="42.35705205540274" lon="13.39982883575808"><ele>702.0</ele><time>2026-04-19T09:55:03Z</time></trkpt><trkpt lat="42.35705049692274" lon="13.399648920054622"><ele>701.0</ele><time>2026-04-19T09:55:04Z</time></trkpt><trkpt lat="42.35703376536117" lon="13.399476871354437"><ele>700.0</ele><time>2026-04-19T09:55:05Z</time></trkpt><trkpt lat="42.35703763901189" lon="13.399318491928721"><ele>698.8</ele><time>2026-04-19T09:55:06Z</time></trkpt><trkpt lat="42.3570363278072" lon="13.399169432534604"><ele>697.6</ele><time>2026-04-19T09:55:07Z</time></trkpt><trkpt lat="42.35702648027751" lon="13.399026961134666"><ele>696.4000000000001</ele><time>2026-04-19T09:55:08Z</time></trkpt><trkpt lat="42.35700742370115" lon="13.398886085588343"><ele>695.2</ele><time>2026-04-19T09:55:09Z</time></trkpt><trkpt lat="42.356972255684894" lon="13.39875091187367"><ele>694.0</ele><time>2026-04-19T09:55:10Z</time></trkpt><trkpt lat="42.356930086308566" lon="13.398627040640031"><ele>693.0</ele><time>2026-04-19T09:55:11Z</time></trkpt><trkpt lat="42.35688525736918" lon="13.398516241392842"><ele>692.0</ele><time>2026-04-19T09:55:12Z</time></trkpt><trkpt lat="42.356835358470214" lon="13.398406682015784"><ele>691.0</ele><time>2026-04-19T09:55:13Z</time></trkpt><trkpt lat="42.35677691580553" lon="13.398281993128267"><ele>690.0</ele><time>2026-04-19T09:55:14Z</time></trkpt><trkpt lat="42.35671365798671" lon="13.398149160372455"><ele>689.0</ele><time>2026-04-19T09:55:15Z</time></trkpt><trkpt lat="42.35665965683924" lon="13.398024065305307"><ele>688.8000000000001</ele><time>2026-04-19T09:55:16Z</time></trkpt><trkpt lat="42.3566107065978" lon="13.397908458151829"><ele>688.6</ele><time>2026-04-19T09:55:17Z</time></trkpt><trkpt lat="42.35656843253344" lon="13.397794411576532"><ele>688.4</ele><time>2026-04-19T09:55:18Z</time></trkpt><trkpt lat="42.35653610501797" lon="13.397674403479707"><ele>688.2</ele><time>2026-04-19T09:55:19Z</time></trkpt><trkpt lat="42.35652089004233" lon="13.39755510201159"><ele>688.0</ele><time>2026-04-19T09:55:20Z</time></trkpt><trkpt lat="42.35651604667868" lon="13.397420189922165"><ele>688.0</ele><time>2026-04-19T09:55:21Z</time></trkpt><trkpt lat="42.356546552861495" lon="13.397262305924679"><ele>688.0</ele><time>2026-04-19T09:55:22Z</time></trkpt><trkpt lat="42.35655282415743" lon="13.397093672932803"><ele>688.0</ele><time>2026-04-19T09:55:23Z</time></trkpt><trkpt lat="42.35656128016098" lon="13.396921231515595"><ele>688.0</ele><time>2026-04-19T09:55:24Z</time></trkpt><trkpt lat="42.35655219674534" lon="13.396759020354544"><ele>686.2</ele><time>2026-04-19T09:55:25Z</time></trkpt><trkpt lat="42.35655937072822" lon="13.396608642908511"><ele>684.4</ele><time>2026-04-19T09:55:26Z</time></trkpt><trkpt lat="42.356566013783706" lon="13.396466094738981"><ele>682.6</ele><time>2026-04-19T09:55:27Z</time></trkpt><trkpt lat="42.35657078066941" lon="13.396327239835633"><ele>680.8000000000001</ele><time>2026-04-19T09:55:28Z</time></trkpt><trkpt lat="42.35657268327573" lon="13.396194862725967"><ele>679.0</ele><time>2026-04-19T09:55:29Z</time></trkpt><trkpt lat="42.35657486178128" lon="13.39606228214463"><ele>678.4000000000001</ele><time>2026-04-19T09:55:30Z</time></trkpt><trkpt lat="42.356577596535416" lon="13.395941082263176"><ele>677.8</ele><time>2026-04-19T09:55:31Z</time></trkpt><trkpt lat="42.356582399560146" lon="13.395821140377919"><ele>677.2</ele><time>2026-04-19T09:55:32Z</time></trkpt><trkpt lat="42.35658510217849" lon="13.395685497612362"><ele>676.5999999999999</ele><time>2026-04-19T09:55:33Z</time></trkpt><trkpt lat="42.35658814344936" lon="13.395549361327962"><ele>676.0</ele><time>2026-04-19T09:55:34Z</time></trkpt><trkpt lat="42.35659097763319" lon="13.395422087739826"><ele>676.0</ele><time>2026-04-19T09:55:35Z</time></trkpt><trkpt lat="42.356591358864826" lon="13.39530098317164"><ele>676.0</ele><time>2026-04-19T09:55:36Z</time></trkpt><trkpt lat="42.35659354939444" lon="13.395175297631752"><ele>676.0</ele><time>2026-04-19T09:55:37Z</time></trkpt><trkpt lat="42.35659451215365" lon="13.395047186884904"><ele>676.0</ele><time>2026-04-19T09:55:38Z</time></trkpt><trkpt lat="42.35659652721749" lon="13.394916400608816"><ele>676.0</ele><time>2026-04-19T09:55:39Z</time></trkpt><trkpt lat="42.356599057899516" lon="13.394774294879761"><ele>675.8</ele><time>2026-04-19T09:55:40Z</time></trkpt><trkpt lat="42.35660327358165" lon="13.394646716538954"><ele>675.5999999999999</ele><time>2026-04-19T09:55:41Z</time></trkpt><trkpt lat="42.356606272777604" lon="13.394507275505887"><ele>675.4</ele><time>2026-04-19T09:55:42Z</time></trkpt><trkpt lat="42.356609411062905" lon="13.394367052892001"><ele>675.2</ele><time>2026-04-19T09:55:43Z</time></trkpt><trkpt lat="42.356610690798234" lon="13.394229092671882"><ele>675.0</ele><time>2026-04-19T09:55:44Z</time></trkpt><trkpt lat="42.356615972561194" lon="13.394097038321815"><ele>675.0</ele><time>2026-04-19T09:55:45Z</time></trkpt><trkpt lat="42.35661702462568" lon="13.393973464811763"><ele>675.0</ele><time>2026-04-19T09:55:46Z</time></trkpt><trkpt lat="42.3566206868758" lon="13.393860741183076"><ele>675.0</ele><time>2026-04-19T09:55:47Z</time></trkpt><trkpt lat="42.35662792470975" lon="13.393758951886195"><ele>675.0</ele><time>2026-04-19T09:55:48Z</time></trkpt><trkpt lat="42.3566273930379" lon="13.393664347309272"><ele>675.0</ele><time>2026-04-19T09:55:49Z</time></trkpt><trkpt lat="42.35662874492388" lon="13.393512288928273"><ele>675.0</ele><time>2026-04-19T09:55:51Z</time></trkpt><trkpt lat="42.35663269960552" lon="13.393351609355836"><ele>674.0</ele><time>2026-04-19T09:55:53Z</time></trkpt><trkpt lat="42.35663398592799" lon="13.393252784108006"><ele>673.0</ele><time>2026-04-19T09:55:54Z</time></trkpt><trkpt lat="42.35663427809037" lon="13.393141249445772"><ele>672.0</ele><time>2026-04-19T09:55:55Z</time></trkpt><trkpt lat="42.35663339827196" lon="13.393015650651153"><ele>671.0</ele><time>2026-04-19T09:55:56Z</time></trkpt><trkpt lat="42.35662989293574" lon="13.392887149566972"><ele>670.0</ele><time>2026-04-19T09:55:57Z</time></trkpt><trkpt lat="42.35663053499058" lon="13.392745958740194"><ele>669.0</ele><time>2026-04-19T09:55:57.998Z</time></trkpt><trkpt lat="42.35666161219493" lon="13.392601663466577"><ele>668.2</ele><time>2026-04-19T09:55:58.998Z</time></trkpt><trkpt lat="42.356664823677775" lon="13.392454671904167"><ele>667.4000000000001</ele><time>2026-04-19T09:55:59.998Z</time></trkpt><trkpt lat="42.356667695454824" lon="13.39232360733687"><ele>666.6</ele><time>2026-04-19T09:56:00.998Z</time></trkpt><trkpt lat="42.356670690409935" lon="13.392191059178877"><ele>665.8</ele><time>2026-04-19T09:56:01.998Z</time></trkpt><trkpt lat="42.35667364014973" lon="13.392060512159386"><ele>665.0</ele><time>2026-04-19T09:56:02.999Z</time></trkpt><trkpt lat="42.356659958197646" lon="13.391940860361045"><ele>663.5</ele><time>2026-04-19T09:56:03.999Z</time></trkpt><trkpt lat="42.35667951814419" lon="13.391819560592358"><ele>662.0</ele><time>2026-04-19T09:56:04.999Z</time></trkpt><trkpt lat="42.35668534938673" lon="13.391670636049389"><ele>660.5</ele><time>2026-04-19T09:56:05.999Z</time></trkpt><trkpt lat="42.35669485523274" lon="13.391503877625574"><ele>659.0</ele><time>2026-04-19T09:56:06.999Z</time></trkpt><trkpt lat="42.35671325934822" lon="13.391332986886226"><ele>658.0</ele><time>2026-04-19T09:56:07.999Z</time></trkpt><trkpt lat="42.356741338119456" lon="13.391177366847378"><ele>657.0</ele><time>2026-04-19T09:56:08.999Z</time></trkpt><trkpt lat="42.35676967203728" lon="13.391036248585726"><ele>656.0</ele><time>2026-04-19T09:56:09.999Z</time></trkpt><trkpt lat="42.356800189418976" lon="13.390906974126196"><ele>655.0</ele><time>2026-04-19T09:56:10.999Z</time></trkpt><trkpt lat="42.356812791412295" lon="13.390780171603609"><ele>654.0</ele><time>2026-04-19T09:56:11.999Z</time></trkpt><trkpt lat="42.35684458531474" lon="13.390665784804975"><ele>654.0</ele><time>2026-04-19T09:56:12.999Z</time></trkpt><trkpt lat="42.356871335413906" lon="13.390545716538478"><ele>654.0</ele><time>2026-04-19T09:56:13.999Z</time></trkpt><trkpt lat="42.356896761391354" lon="13.390433401364508"><ele>654.0</ele><time>2026-04-19T09:56:14.999Z</time></trkpt><trkpt lat="42.35691766370003" lon="13.39032352007704"><ele>654.0</ele><time>2026-04-19T09:56:15.999Z</time></trkpt><trkpt lat="42.356937801831194" lon="13.390217968447624"><ele>654.0</ele><time>2026-04-19T09:56:16.999Z</time></trkpt><trkpt lat="42.35695602752684" lon="13.390097989614008"><ele>654.0</ele><time>2026-04-19T09:56:17.999Z</time></trkpt><trkpt lat="42.35697566776913" lon="13.389970994581258"><ele>653.8333333333334</ele><time>2026-04-19T09:56:18.999Z</time></trkpt><trkpt lat="42.35699213865588" lon="13.389854931546605"><ele>653.6666666666666</ele><time>2026-04-19T09:56:19.999Z</time></trkpt><trkpt lat="42.35700348491122" lon="13.389733155690822"><ele>653.5</ele><time>2026-04-19T09:56:20.999Z</time></trkpt><trkpt lat="42.35701150503045" lon="13.389613115161724"><ele>653.3333333333333</ele><time>2026-04-19T09:56:21.999Z</time></trkpt><trkpt lat="42.357013831062446" lon="13.389497811546791"><ele>653.1666666666666</ele><time>2026-04-19T09:56:22.999Z</time></trkpt><trkpt lat="42.35701216317636" lon="13.389388762291052"><ele>653.0</ele><time>2026-04-19T09:56:23.999Z</time></trkpt><trkpt lat="42.35699917896883" lon="13.389259546431163"><ele>652.8</ele><time>2026-04-19T09:56:24.999Z</time></trkpt><trkpt lat="42.35698181916573" lon="13.389132600301902"><ele>652.5999999999999</ele><time>2026-04-19T09:56:25.999Z</time></trkpt><trkpt lat="42.35696296598365" lon="13.389007099578793"><ele>652.4000000000001</ele><time>2026-04-19T09:56:26.999Z</time></trkpt><trkpt lat="42.356942485725" lon="13.388885290531569"><ele>652.2</ele><time>2026-04-19T09:56:27.999Z</time></trkpt><trkpt lat="42.356918346791566" lon="13.38875751709609"><ele>652.0</ele><time>2026-04-19T09:56:28.999Z</time></trkpt><trkpt lat="42.35688945025459" lon="13.388625972849983"><ele>652.0</ele><time>2026-04-19T09:56:29.999Z</time></trkpt><trkpt lat="42.35685622109853" lon="13.388503979466142"><ele>652.0</ele><time>2026-04-19T09:56:30.999Z</time></trkpt><trkpt lat="42.35682215919594" lon="13.388379456440191"><ele>652.0</ele><time>2026-04-19T09:56:31.999Z</time></trkpt><trkpt lat="42.356793171592784" lon="13.388249963873783"><ele>652.0</ele><time>2026-04-19T09:56:32.999Z</time></trkpt><trkpt lat="42.35676773459833" lon="13.388120355780755"><ele>652.0</ele><time>2026-04-19T09:56:33.999Z</time></trkpt><trkpt lat="42.35674692925722" lon="13.387992593783512"><ele>651.8333333333334</ele><time>2026-04-19T09:56:34.999Z</time></trkpt><trkpt lat="42.35674002613809" lon="13.387877161676627"><ele>651.6666666666667</ele><time>2026-04-19T09:56:35.999Z</time></trkpt><trkpt lat="42.35674126636935" lon="13.387764863495763"><ele>651.5</ele><time>2026-04-19T09:56:36.999Z</time></trkpt><trkpt lat="42.35674502666975" lon="13.387642965116461"><ele>651.3333333333334</ele><time>2026-04-19T09:56:37.999Z</time></trkpt><trkpt lat="42.35675129512998" lon="13.387515263212602"><ele>651.1666666666666</ele><time>2026-04-19T09:56:38.999Z</time></trkpt><trkpt lat="42.35675772487882" lon="13.387390535708194"><ele>651.0</ele><time>2026-04-19T09:56:39.999Z</time></trkpt><trkpt lat="42.35676751721785" lon="13.387274004701872"><ele>650.5</ele><time>2026-04-19T09:56:40.999Z</time></trkpt><trkpt lat="42.356782144972875" lon="13.38716910360265"><ele>650.0</ele><time>2026-04-19T09:56:41.999Z</time></trkpt><trkpt lat="42.35679936762969" lon="13.387072101087762"><ele>649.5</ele><time>2026-04-19T09:56:42.999Z</time></trkpt><trkpt lat="42.356818362078876" lon="13.386977232175914"><ele>649.0</ele><time>2026-04-19T09:56:43.999Z</time></trkpt><trkpt lat="42.35683752359335" lon="13.386885843913745"><ele>648.5</ele><time>2026-04-19T09:56:44.999Z</time></trkpt><trkpt lat="42.35685819538019" lon="13.386787281533538"><ele>648.0</ele><time>2026-04-19T09:56:45.999Z</time></trkpt><trkpt lat="42.35688569563667" lon="13.38668299671806"><ele>648.0</ele><time>2026-04-19T09:56:46.999Z</time></trkpt><trkpt lat="42.356919485744676" lon="13.386587612734637"><ele>648.0</ele><time>2026-04-19T09:56:47.999Z</time></trkpt><trkpt lat="42.35693082049721" lon="13.386475028687867"><ele>648.0</ele><time>2026-04-19T09:56:48.999Z</time></trkpt><trkpt lat="42.35701008207403" lon="13.386389354136831"><ele>648.0</ele><time>2026-04-19T09:56:49.999Z</time></trkpt><trkpt lat="42.357061935370865" lon="13.386284635357352"><ele>648.0</ele><time>2026-04-19T09:56:50.999Z</time></trkpt><trkpt lat="42.35712109000142" lon="13.386186394413667"><ele>648.2</ele><time>2026-04-19T09:56:51.999Z</time></trkpt><trkpt lat="42.35719352066463" lon="13.386092553760003"><ele>648.4</ele><time>2026-04-19T09:56:52.999Z</time></trkpt><trkpt lat="42.35727111076446" lon="13.386012062500274"><ele>648.6</ele><time>2026-04-19T09:56:53.999Z</time></trkpt><trkpt lat="42.35735415991192" lon="13.385942170150505"><ele>648.8000000000001</ele><time>2026-04-19T09:56:54.999Z</time></trkpt><trkpt lat="42.357442723539116" lon="13.385872583215365"><ele>649.0</ele><time>2026-04-19T09:56:55.999Z</time></trkpt><trkpt lat="42.35753246587895" lon="13.385823173214305"><ele>648.9999999999999</ele><time>2026-04-19T09:56:56.999Z</time></trkpt><trkpt lat="42.3576130839261" lon="13.38580016016012"><ele>649.0</ele><time>2026-04-19T09:56:57.999Z</time></trkpt><trkpt lat="42.35768606750585" lon="13.385801772184577"><ele>649.0</ele><time>2026-04-19T09:56:58.999Z</time></trkpt><trkpt lat="42.357754924070235" lon="13.385796045603552"><ele>649.0</ele><time>2026-04-19T09:56:59.999Z</time></trkpt><trkpt lat="42.3578254691523" lon="13.385764137092785"><ele>649.0</ele><time>2026-04-19T09:57:00.999Z</time></trkpt><trkpt lat="42.35787646435207" lon="13.385704142313655"><ele>648.9999999999999</ele><time>2026-04-19T09:57:01.999Z</time></trkpt><trkpt lat="42.35790254162988" lon="13.385622620860374"><ele>649.0</ele><time>2026-04-19T09:57:02.999Z</time></trkpt><trkpt lat="42.35791097193007" lon="13.38551989986798"><ele>649.0</ele><time>2026-04-19T09:57:03.999Z</time></trkpt><trkpt lat="42.35789912362512" lon="13.385404138360324"><ele>649.0</ele><time>2026-04-19T09:57:04.999Z</time></trkpt><trkpt lat="42.357874999630496" lon="13.385284919465025"><ele>649.0</ele><time>2026-04-19T09:57:05.999Z</time></trkpt><trkpt lat="42.35786252412249" lon="13.385176204093995"><ele>649.0</ele><time>2026-04-19T09:57:06.999Z</time></trkpt><trkpt lat="42.35786701417728" lon="13.385076465290753"><ele>649.0</ele><time>2026-04-19T09:57:07.999Z</time></trkpt><trkpt lat="42.35787670755342" lon="13.384949932221097"><ele>649.0</ele><time>2026-04-19T09:57:08.999Z</time></trkpt><trkpt lat="42.35789937842734" lon="13.384800604735856"><ele>648.75</ele><time>2026-04-19T09:57:09.999Z</time></trkpt><trkpt lat="42.35793664971856" lon="13.384647087682431"><ele>648.5</ele><time>2026-04-19T09:57:10.999Z</time></trkpt><trkpt lat="42.35799127215908" lon="13.3844858307595"><ele>648.25</ele><time>2026-04-19T09:57:11.999Z</time></trkpt><trkpt lat="42.35805466712212" lon="13.38432683600555"><ele>648.0</ele><time>2026-04-19T09:57:12.999Z</time></trkpt><trkpt lat="42.358124009508" lon="13.38416122758534"><ele>648.25</ele><time>2026-04-19T09:57:13.999Z</time></trkpt><trkpt lat="42.35819807470143" lon="13.383995202130892"><ele>648.5</ele><time>2026-04-19T09:57:14.999Z</time></trkpt><trkpt lat="42.358274528585355" lon="13.383826254055732"><ele>648.75</ele><time>2026-04-19T09:57:15.999Z</time></trkpt><trkpt lat="42.35835259888486" lon="13.383656098702197"><ele>649.0</ele><time>2026-04-19T09:57:16.999Z</time></trkpt><trkpt lat="42.35843686182034" lon="13.383475857679759"><ele>649.0</ele><time>2026-04-19T09:57:17.999Z</time></trkpt><trkpt lat="42.35852093672467" lon="13.383296326302451"><ele>649.0</ele><time>2026-04-19T09:57:18.999Z</time></trkpt><trkpt lat="42.35860480784128" lon="13.383113419921298"><ele>649.0</ele><time>2026-04-19T09:57:19.999Z</time></trkpt><trkpt lat="42.35868630943027" lon="13.382927396002431"><ele>649.6666666666667</ele><time>2026-04-19T09:57:20.999Z</time></trkpt><trkpt lat="42.35876913881893" lon="13.38274282409616"><ele>650.3333333333334</ele><time>2026-04-19T09:57:21.999Z</time></trkpt><trkpt lat="42.35885509592255" lon="13.382555013761857"><ele>651.0</ele><time>2026-04-19T09:57:22.999Z</time></trkpt><trkpt lat="42.35893802589621" lon="13.382370048242736"><ele>651.0</ele><time>2026-04-19T09:57:23.999Z</time></trkpt><trkpt lat="42.3590181344387" lon="13.382188692982849"><ele>651.0</ele><time>2026-04-19T09:57:24.999Z</time></trkpt><trkpt lat="42.35909421206579" lon="13.382023291789835"><ele>651.0</ele><time>2026-04-19T09:57:25.999Z</time></trkpt><trkpt lat="42.35916722406998" lon="13.381861364981017"><ele>651.0</ele><time>2026-04-19T09:57:26.999Z</time></trkpt><trkpt lat="42.35924376455315" lon="13.381701313957123"><ele>650.6666666666666</ele><time>2026-04-19T09:57:27.999Z</time></trkpt><trkpt lat="42.359321847952444" lon="13.381555583144214"><ele>650.3333333333333</ele><time>2026-04-19T09:57:28.999Z</time></trkpt><trkpt lat="42.35940898325379" lon="13.381393463572483"><ele>650.0</ele><time>2026-04-19T09:57:29.999Z</time></trkpt><trkpt lat="42.35950823434893" lon="13.381183425690772"><ele>650.0</ele><time>2026-04-19T09:57:30.999Z</time></trkpt><trkpt lat="42.35961438110127" lon="13.380949912251909"><ele>650.0</ele><time>2026-04-19T09:57:31.999Z</time></trkpt><trkpt lat="42.359711604661854" lon="13.380727393230316"><ele>650.0</ele><time>2026-04-19T09:57:32.999Z</time></trkpt><trkpt lat="42.359797313922215" lon="13.380519355151119"><ele>650.25</ele><time>2026-04-19T09:57:33.999Z</time></trkpt><trkpt lat="42.35987031298231" lon="13.380341828681386"><ele>650.5</ele><time>2026-04-19T09:57:34.999Z</time></trkpt><trkpt lat="42.359929186103045" lon="13.380213204680095"><ele>650.75</ele><time>2026-04-19T09:57:35.999Z</time></trkpt><trkpt lat="42.35998490635003" lon="13.380098387201524"><ele>651.0</ele><time>2026-04-19T09:57:36.999Z</time></trkpt><trkpt lat="42.36003805598171" lon="13.379986765171083"><ele>651.0</ele><time>2026-04-19T09:57:37.999Z</time></trkpt><trkpt lat="42.36010651911214" lon="13.37991626374319"><ele>651.0</ele><time>2026-04-19T09:57:38.999Z</time></trkpt><trkpt lat="42.360129482725554" lon="13.379783473519469"><ele>651.0</ele><time>2026-04-19T09:57:39.999Z</time></trkpt><trkpt lat="42.36014085742281" lon="13.37965914112653"><ele>651.0</ele><time>2026-04-19T09:57:40.999Z</time></trkpt><trkpt lat="42.36012746408013" lon="13.379523836426253"><ele>651.0</ele><time>2026-04-19T09:57:41.999Z</time></trkpt><trkpt lat="42.36013714572968" lon="13.379339804350941"><ele>651.0</ele><time>2026-04-19T09:57:42.999Z</time></trkpt><trkpt lat="42.36021223484568" lon="13.379135717454929"><ele>651.0</ele><time>2026-04-19T09:57:43.999Z</time></trkpt><trkpt lat="42.360267195780885" lon="13.378914729023165"><ele>651.0</ele><time>2026-04-19T09:57:44.999Z</time></trkpt><trkpt lat="42.360337636128875" lon="13.378719418580978"><ele>651.0</ele><time>2026-04-19T09:57:45.999Z</time></trkpt><trkpt lat="42.360402622538054" lon="13.378534586439725"><ele>651.0</ele><time>2026-04-19T09:57:46.999Z</time></trkpt><trkpt lat="42.36046150134949" lon="13.378368238710367"><ele>651.0</ele><time>2026-04-19T09:57:47.999Z</time></trkpt><trkpt lat="42.360518909001314" lon="13.378206029934407"><ele>651.0</ele><time>2026-04-19T09:57:48.999Z</time></trkpt><trkpt lat="42.360571035431384" lon="13.378053413808344"><ele>651.4</ele><time>2026-04-19T09:57:49.999Z</time></trkpt><trkpt lat="42.36061812488066" lon="13.377909007133786"><ele>651.8</ele><time>2026-04-19T09:57:50.999Z</time></trkpt><trkpt lat="42.360665000022905" lon="13.37777466969839"><ele>652.1999999999999</ele><time>2026-04-19T09:57:51.999Z</time></trkpt><trkpt lat="42.36070692679745" lon="13.3776466888915"><ele>652.5999999999999</ele><time>2026-04-19T09:57:52.999Z</time></trkpt><trkpt lat="42.36074790576652" lon="13.377513792033271"><ele>653.0</ele><time>2026-04-19T09:57:53.999Z</time></trkpt><trkpt lat="42.36079397021177" lon="13.377374254549723"><ele>653.0</ele><time>2026-04-19T09:57:54.999Z</time></trkpt><trkpt lat="42.36083715629178" lon="13.377250211435829"><ele>653.0</ele><time>2026-04-19T09:57:55.999Z</time></trkpt><trkpt lat="42.36087558262459" lon="13.377142793336278"><ele>653.0</ele><time>2026-04-19T09:57:56.999Z</time></trkpt><trkpt lat="42.36091944905157" lon="13.37701787616707"><ele>653.0</ele><time>2026-04-19T09:57:57.999Z</time></trkpt><trkpt lat="42.360980809738166" lon="13.376832806203295"><ele>653.0</ele><time>2026-04-19T09:57:58.999Z</time></trkpt><trkpt lat="42.361055014043714" lon="13.376604624713556"><ele>652.25</ele><time>2026-04-19T09:57:59.999Z</time></trkpt><trkpt lat="42.36111725406669" lon="13.376408211744288"><ele>651.5</ele><time>2026-04-19T09:58:00.999Z</time></trkpt><trkpt lat="42.36117007314796" lon="13.376250159287482"><ele>650.75</ele><time>2026-04-19T09:58:01.999Z</time></trkpt><trkpt lat="42.36121593541458" lon="13.376120068455117"><ele>650.0</ele><time>2026-04-19T09:58:02.999Z</time></trkpt><trkpt lat="42.361256225948104" lon="13.375999824213356"><ele>649.5</ele><time>2026-04-19T09:58:03.999Z</time></trkpt><trkpt lat="42.36130234446833" lon="13.375850668949779"><ele>649.0</ele><time>2026-04-19T09:58:04.999Z</time></trkpt><trkpt lat="42.36136456503518" lon="13.37566798758918"><ele>648.5</ele><time>2026-04-19T09:58:05.999Z</time></trkpt><trkpt lat="42.36143413175522" lon="13.375481731497812"><ele>648.0</ele><time>2026-04-19T09:58:06.999Z</time></trkpt><trkpt lat="42.36149838881103" lon="13.37531360005433"><ele>648.0</ele><time>2026-04-19T09:58:07.999Z</time></trkpt><trkpt lat="42.36155214869258" lon="13.37515909671655"><ele>648.0</ele><time>2026-04-19T09:58:08.999Z</time></trkpt><trkpt lat="42.36160876627831" lon="13.374996265962132"><ele>648.0</ele><time>2026-04-19T09:58:09.999Z</time></trkpt><trkpt lat="42.361668104950105" lon="13.374819208340375"><ele>648.0</ele><time>2026-04-19T09:58:10.999Z</time></trkpt><trkpt lat="42.36172998258578" lon="13.374635257468082"><ele>648.0</ele><time>2026-04-19T09:58:11.999Z</time></trkpt><trkpt lat="42.36179324655013" lon="13.374454598357604"><ele>648.0</ele><time>2026-04-19T09:58:12.999Z</time></trkpt><trkpt lat="42.36185577318074" lon="13.374274464020047"><ele>648.0</ele><time>2026-04-19T09:58:13.999Z</time></trkpt><trkpt lat="42.36192092267579" lon="13.37407689510425"><ele>648.0</ele><time>2026-04-19T09:58:14.999Z</time></trkpt><trkpt lat="42.361988429516224" lon="13.373888191048746"><ele>648.0</ele><time>2026-04-19T09:58:15.999Z</time></trkpt><trkpt lat="42.36205858250881" lon="13.373721199915606"><ele>648.0</ele><time>2026-04-19T09:58:16.999Z</time></trkpt><trkpt lat="42.362118926120786" lon="13.373566338414843"><ele>648.0</ele><time>2026-04-19T09:58:17.999Z</time></trkpt><trkpt lat="42.36217233516374" lon="13.373415077554876"><ele>647.5</ele><time>2026-04-19T09:58:18.999Z</time></trkpt><trkpt lat="42.36222295256633" lon="13.373271878769502"><ele>647.0</ele><time>2026-04-19T09:58:19.999Z</time></trkpt><trkpt lat="42.362275489348384" lon="13.373123520001657"><ele>646.5</ele><time>2026-04-19T09:58:20.999Z</time></trkpt><trkpt lat="42.3623292871119" lon="13.3729614960147"><ele>646.0</ele><time>2026-04-19T09:58:21.999Z</time></trkpt><trkpt lat="42.36238228480431" lon="13.372794438346315"><ele>645.0</ele><time>2026-04-19T09:58:22.999Z</time></trkpt><trkpt lat="42.36243703131706" lon="13.372622809504438"><ele>644.0</ele><time>2026-04-19T09:58:24Z</time></trkpt><trkpt lat="42.36250218747861" lon="13.37242794049816"><ele>643.0</ele><time>2026-04-19T09:58:25Z</time></trkpt><trkpt lat="42.36257406461477" lon="13.372221936447213"><ele>643.6666666666667</ele><time>2026-04-19T09:58:26Z</time></trkpt><trkpt lat="42.362648282237046" lon="13.37201959897141"><ele>644.3333333333334</ele><time>2026-04-19T09:58:27Z</time></trkpt><trkpt lat="42.36273228945036" lon="13.37179560518678"><ele>645.0</ele><time>2026-04-19T09:58:28Z</time></trkpt><trkpt lat="42.362808860447196" lon="13.371579861572412"><ele>645.0</ele><time>2026-04-19T09:58:29Z</time></trkpt><trkpt lat="42.36289044393131" lon="13.371391352509217"><ele>645.0</ele><time>2026-04-19T09:58:30Z</time></trkpt><trkpt lat="42.36295539028326" lon="13.371202490837733"><ele>645.0</ele><time>2026-04-19T09:58:31Z</time></trkpt><trkpt lat="42.36301146770188" lon="13.37103916366701"><ele>645.0</ele><time>2026-04-19T09:58:32Z</time></trkpt><trkpt lat="42.363062565529894" lon="13.370889308758606"><ele>644.75</ele><time>2026-04-19T09:58:33Z</time></trkpt><trkpt lat="42.3630824041044" lon="13.3707460657351"><ele>644.5</ele><time>2026-04-19T09:58:34Z</time></trkpt><trkpt lat="42.363125832913155" lon="13.370610682640896"><ele>644.25</ele><time>2026-04-19T09:58:35Z</time></trkpt><trkpt lat="42.36318693801133" lon="13.370427762614055"><ele>644.0</ele><time>2026-04-19T09:58:36Z</time></trkpt><trkpt lat="42.36327033371716" lon="13.370193384100643"><ele>643.3333333333333</ele><time>2026-04-19T09:58:37Z</time></trkpt><trkpt lat="42.36336347160024" lon="13.369930832248713"><ele>642.6666666666666</ele><time>2026-04-19T09:58:38Z</time></trkpt><trkpt lat="42.363476303497855" lon="13.369688670810193"><ele>642.0</ele><time>2026-04-19T09:58:39Z</time></trkpt><trkpt lat="42.363536757300345" lon="13.369443214699157"><ele>641.6666666666666</ele><time>2026-04-19T09:58:40Z</time></trkpt><trkpt lat="42.36361045756963" lon="13.369225534527448"><ele>641.3333333333333</ele><time>2026-04-19T09:58:41Z</time></trkpt><trkpt lat="42.36368904879884" lon="13.36899947761367"><ele>641.0</ele><time>2026-04-19T09:58:42Z</time></trkpt><trkpt lat="42.3637687536313" lon="13.368782479708898"><ele>641.0</ele><time>2026-04-19T09:58:43Z</time></trkpt><trkpt lat="42.36384241274921" lon="13.368583381799116"><ele>641.0</ele><time>2026-04-19T09:58:44Z</time></trkpt><trkpt lat="42.36390684507409" lon="13.368396207883986"><ele>641.0</ele><time>2026-04-19T09:58:45Z</time></trkpt><trkpt lat="42.36398730941496" lon="13.368213871663801"><ele>642.0</ele><time>2026-04-19T09:58:46Z</time></trkpt><trkpt lat="42.364051235787095" lon="13.368029133107639"><ele>643.0</ele><time>2026-04-19T09:58:47Z</time></trkpt><trkpt lat="42.364113305879144" lon="13.367850059082699"><ele>644.0</ele><time>2026-04-19T09:58:48Z</time></trkpt><trkpt lat="42.36415987227267" lon="13.367665213543585"><ele>645.0</ele><time>2026-04-19T09:58:49Z</time></trkpt><trkpt lat="42.36423145591364" lon="13.36750899415381"><ele>645.0</ele><time>2026-04-19T09:58:50Z</time></trkpt><trkpt lat="42.364275168798834" lon="13.367319850300069"><ele>645.0</ele><time>2026-04-19T09:58:51Z</time></trkpt><trkpt lat="42.36434590453586" lon="13.367114463917824"><ele>645.0</ele><time>2026-04-19T09:58:52Z</time></trkpt><trkpt lat="42.36441902364664" lon="13.366909930432682"><ele>645.0</ele><time>2026-04-19T09:58:53Z</time></trkpt><trkpt lat="42.364493324293285" lon="13.36670255140304"><ele>645.0</ele><time>2026-04-19T09:58:54Z</time></trkpt><trkpt lat="42.36455185581833" lon="13.366530974507855"><ele>645.0</ele><time>2026-04-19T09:58:55Z</time></trkpt><trkpt lat="42.364605043119326" lon="13.366379179044749"><ele>645.0</ele><time>2026-04-19T09:58:56Z</time></trkpt><trkpt lat="42.36466325064247" lon="13.366272700490411"><ele>645.6666666666666</ele><time>2026-04-19T09:58:57Z</time></trkpt><trkpt lat="42.364702414064844" lon="13.366164941484826"><ele>646.3333333333334</ele><time>2026-04-19T09:58:58Z</time></trkpt><trkpt lat="42.364737628412314" lon="13.366067515128673"><ele>647.0</ele><time>2026-04-19T09:58:59Z</time></trkpt><trkpt lat="42.364769057621054" lon="13.365980561102967"><ele>647.6666666666667</ele><time>2026-04-19T09:59:00Z</time></trkpt><trkpt lat="42.36479934167432" lon="13.36590434686806"><ele>648.3333333333334</ele><time>2026-04-19T09:59:01Z</time></trkpt><trkpt lat="42.364839733446104" lon="13.36577396940018"><ele>649.0</ele><time>2026-04-19T09:59:03Z</time></trkpt><trkpt lat="42.36483797954662" lon="13.365685515591784"><ele>649.0</ele><time>2026-04-19T09:59:08Z</time></trkpt><trkpt lat="42.364882981418404" lon="13.365604621765124"><ele>649.0</ele><time>2026-04-19T09:59:10Z</time></trkpt><trkpt lat="42.364937761177806" lon="13.365512151766772"><ele>649.0</ele><time>2026-04-19T09:59:12Z</time></trkpt><trkpt lat="42.364993255079" lon="13.365368841255851"><ele>649.0</ele><time>2026-04-19T09:59:14Z</time></trkpt><trkpt lat="42.3650291625793" lon="13.365275845701758"><ele>649.0</ele><time>2026-04-19T09:59:15Z</time></trkpt><trkpt lat="42.36508142583455" lon="13.36517450195827"><ele>649.0</ele><time>2026-04-19T09:59:16Z</time></trkpt><trkpt lat="42.36513352804683" lon="13.365069484696"><ele>649.0</ele><time>2026-04-19T09:59:17Z</time></trkpt><trkpt lat="42.3651971539321" lon="13.364938235342324"><ele>649.0</ele><time>2026-04-19T09:59:18Z</time></trkpt><trkpt lat="42.36528771832682" lon="13.364774273534906"><ele>649.0</ele><time>2026-04-19T09:59:19Z</time></trkpt><trkpt lat="42.36539270234551" lon="13.364618257751662"><ele>650.0</ele><time>2026-04-19T09:59:20Z</time></trkpt><trkpt lat="42.36550717232365" lon="13.36446254285387"><ele>651.0</ele><time>2026-04-19T09:59:21Z</time></trkpt><trkpt lat="42.36561477857766" lon="13.3642933011825"><ele>652.0</ele><time>2026-04-19T09:59:22Z</time></trkpt><trkpt lat="42.365717697188394" lon="13.364116009976517"><ele>652.0</ele><time>2026-04-19T09:59:23Z</time></trkpt><trkpt lat="42.365820345170185" lon="13.363930835615685"><ele>652.0</ele><time>2026-04-19T09:59:24Z</time></trkpt><trkpt lat="42.36594699462751" lon="13.363742097260026"><ele>652.0</ele><time>2026-04-19T09:59:25Z</time></trkpt><trkpt lat="42.36606529011309" lon="13.36353129012539"><ele>651.0</ele><time>2026-04-19T09:59:26Z</time></trkpt><trkpt lat="42.36617182383511" lon="13.363341442914669"><ele>650.0</ele><time>2026-04-19T09:59:27Z</time></trkpt><trkpt lat="42.36626669471943" lon="13.363172380087113"><ele>649.0</ele><time>2026-04-19T09:59:28Z</time></trkpt><trkpt lat="42.36634988773098" lon="13.362988078504197"><ele>650.3333333333334</ele><time>2026-04-19T09:59:29Z</time></trkpt><trkpt lat="42.36645371781285" lon="13.362838692800636"><ele>651.6666666666666</ele><time>2026-04-19T09:59:30Z</time></trkpt><trkpt lat="42.36654393783359" lon="13.362678306720923"><ele>653.0</ele><time>2026-04-19T09:59:31Z</time></trkpt><trkpt lat="42.366623365609044" lon="13.362501055992336"><ele>653.0</ele><time>2026-04-19T09:59:32Z</time></trkpt><trkpt lat="42.36672013994006" lon="13.362329825909885"><ele>653.0</ele><time>2026-04-19T09:59:33Z</time></trkpt><trkpt lat="42.36683147745655" lon="13.362168250976048"><ele>653.0</ele><time>2026-04-19T09:59:34Z</time></trkpt><trkpt lat="42.366916743238214" lon="13.3619824710668"><ele>653.0</ele><time>2026-04-19T09:59:35Z</time></trkpt><trkpt lat="42.36701487819896" lon="13.361807191814723"><ele>653.0</ele><time>2026-04-19T09:59:36Z</time></trkpt><trkpt lat="42.36710465914936" lon="13.361657207034506"><ele>653.0</ele><time>2026-04-19T09:59:37Z</time></trkpt><trkpt lat="42.36718956400152" lon="13.361505154167945"><ele>653.0</ele><time>2026-04-19T09:59:38Z</time></trkpt><trkpt lat="42.36727429267211" lon="13.361351204128324"><ele>652.5</ele><time>2026-04-19T09:59:39Z</time></trkpt><trkpt lat="42.36735942524085" lon="13.3611998718411"><ele>652.0</ele><time>2026-04-19T09:59:40Z</time></trkpt><trkpt lat="42.36743818648181" lon="13.36105711238797"><ele>651.5</ele><time>2026-04-19T09:59:41Z</time></trkpt><trkpt lat="42.367523183258825" lon="13.360904717914446"><ele>651.0</ele><time>2026-04-19T09:59:42Z</time></trkpt><trkpt lat="42.367602669490886" lon="13.360761352276302"><ele>651.0</ele><time>2026-04-19T09:59:43Z</time></trkpt><trkpt lat="42.36767675836745" lon="13.360616120505739"><ele>651.0</ele><time>2026-04-19T09:59:44Z</time></trkpt><trkpt lat="42.367754776175175" lon="13.360489620854237"><ele>651.0</ele><time>2026-04-19T09:59:45Z</time></trkpt><trkpt lat="42.36783174487606" lon="13.360355671848499"><ele>651.0</ele><time>2026-04-19T09:59:46Z</time></trkpt><trkpt lat="42.367926067966806" lon="13.36022407821052"><ele>650.75</ele><time>2026-04-19T09:59:47Z</time></trkpt><trkpt lat="42.36799665955097" lon="13.360062756545116"><ele>650.5</ele><time>2026-04-19T09:59:48Z</time></trkpt><trkpt lat="42.36808192310252" lon="13.359910533984305"><ele>650.25</ele><time>2026-04-19T09:59:49Z</time></trkpt><trkpt lat="42.36816945309726" lon="13.359759421988281"><ele>650.0</ele><time>2026-04-19T09:59:50Z</time></trkpt><trkpt lat="42.368258533331144" lon="13.359609808702551"><ele>650.0</ele><time>2026-04-19T09:59:51Z</time></trkpt><trkpt lat="42.368340944031736" lon="13.359449962011539"><ele>650.0</ele><time>2026-04-19T09:59:52Z</time></trkpt><trkpt lat="42.368421913374725" lon="13.359312523907796"><ele>650.0</ele><time>2026-04-19T09:59:53Z</time></trkpt><trkpt lat="42.36850129037064" lon="13.359175201873443"><ele>650.0</ele><time>2026-04-19T09:59:54Z</time></trkpt><trkpt lat="42.36857735116055" lon="13.35904531646679"><ele>650.0</ele><time>2026-04-19T09:59:55Z</time></trkpt><trkpt lat="42.368660829357516" lon="13.358926772601807"><ele>650.0</ele><time>2026-04-19T09:59:56Z</time></trkpt><trkpt lat="42.3687204061505" lon="13.3587845529426"><ele>650.0</ele><time>2026-04-19T09:59:57Z</time></trkpt><trkpt lat="42.368792858242784" lon="13.358654313125971"><ele>650.0</ele><time>2026-04-19T09:59:58Z</time></trkpt><trkpt lat="42.36887385019051" lon="13.358551056739497"><ele>650.6</ele><time>2026-04-19T09:59:59Z</time></trkpt><trkpt lat="42.368914124529425" lon="13.358418395551883"><ele>651.2</ele><time>2026-04-19T10:00:00Z</time></trkpt><trkpt lat="42.36896843525296" lon="13.358309318439169"><ele>651.8</ele><time>2026-04-19T10:00:01Z</time></trkpt><trkpt lat="42.3690321360351" lon="13.35821331977566"><ele>652.4</ele><time>2026-04-19T10:00:02Z</time></trkpt><trkpt lat="42.369114138218876" lon="13.358146084444154"><ele>653.0</ele><time>2026-04-19T10:00:03Z</time></trkpt><trkpt lat="42.36919895852904" lon="13.358088298725741"><ele>652.5999999999999</ele><time>2026-04-19T10:00:04Z</time></trkpt><trkpt lat="42.369273621481895" lon="13.357997259247096"><ele>652.1999999999999</ele><time>2026-04-19T10:00:05Z</time></trkpt><trkpt lat="42.36931636487979" lon="13.357875602644722"><ele>651.8</ele><time>2026-04-19T10:00:06Z</time></trkpt><trkpt lat="42.36933926271357" lon="13.357744679147853"><ele>651.4</ele><time>2026-04-19T10:00:07Z</time></trkpt><trkpt lat="42.36934671545496" lon="13.357621785795907"><ele>651.0</ele><time>2026-04-19T10:00:08Z</time></trkpt><trkpt lat="42.36943587129866" lon="13.357506296309127"><ele>651.0</ele><time>2026-04-19T10:00:09Z</time></trkpt><trkpt lat="42.36952391256919" lon="13.357400541153574"><ele>651.0</ele><time>2026-04-19T10:00:10Z</time></trkpt><trkpt lat="42.369584442214006" lon="13.357264153919543"><ele>651.0</ele><time>2026-04-19T10:00:11Z</time></trkpt><trkpt lat="42.369655818256945" lon="13.357140414367219"><ele>651.0</ele><time>2026-04-19T10:00:12Z</time></trkpt><trkpt lat="42.369735553830495" lon="13.357029709855686"><ele>651.25</ele><time>2026-04-19T10:00:13Z</time></trkpt><trkpt lat="42.36981284690823" lon="13.356892627436734"><ele>651.5</ele><time>2026-04-19T10:00:14Z</time></trkpt><trkpt lat="42.36986958660647" lon="13.356739309313166"><ele>651.75</ele><time>2026-04-19T10:00:15Z</time></trkpt><trkpt lat="42.36994673974802" lon="13.356603506223433"><ele>652.0</ele><time>2026-04-19T10:00:16Z</time></trkpt><trkpt lat="42.37002679424373" lon="13.356461532315336"><ele>651.25</ele><time>2026-04-19T10:00:17Z</time></trkpt><trkpt lat="42.370110438827204" lon="13.356316083133645"><ele>650.5</ele><time>2026-04-19T10:00:18Z</time></trkpt><trkpt lat="42.370193857422876" lon="13.356170732709323"><ele>649.75</ele><time>2026-04-19T10:00:19Z</time></trkpt><trkpt lat="42.370278466414945" lon="13.356023262737569"><ele>649.0</ele><time>2026-04-19T10:00:20Z</time></trkpt><trkpt lat="42.370361123732856" lon="13.355872847323845"><ele>649.0</ele><time>2026-04-19T10:00:21Z</time></trkpt><trkpt lat="42.37044415335087" lon="13.355720292311467"><ele>649.0</ele><time>2026-04-19T10:00:22Z</time></trkpt><trkpt lat="42.37053028225498" lon="13.355565347731629"><ele>649.0</ele><time>2026-04-19T10:00:23Z</time></trkpt><trkpt lat="42.37061752010578" lon="13.35541178298492"><ele>649.0</ele><time>2026-04-19T10:00:24Z</time></trkpt><trkpt lat="42.370708685958576" lon="13.355252864475256"><ele>649.3333333333334</ele><time>2026-04-19T10:00:25Z</time></trkpt><trkpt lat="42.37080325032085" lon="13.35508884495175"><ele>649.6666666666666</ele><time>2026-04-19T10:00:26Z</time></trkpt><trkpt lat="42.37089787887529" lon="13.354920697033744"><ele>650.0</ele><time>2026-04-19T10:00:27Z</time></trkpt><trkpt lat="42.37099113079939" lon="13.354749764516631"><ele>650.0</ele><time>2026-04-19T10:00:28Z</time></trkpt><trkpt lat="42.37108533376539" lon="13.354573341524128"><ele>650.0</ele><time>2026-04-19T10:00:29Z</time></trkpt><trkpt lat="42.3711757787744" lon="13.3543936835801"><ele>650.0</ele><time>2026-04-19T10:00:30Z</time></trkpt><trkpt lat="42.37125526196896" lon="13.354227310251911"><ele>650.0</ele><time>2026-04-19T10:00:31Z</time></trkpt><trkpt lat="42.37133012091809" lon="13.354066746922921"><ele>650.0</ele><time>2026-04-19T10:00:32Z</time></trkpt><trkpt lat="42.3714039040342" lon="13.353913671254"><ele>650.0</ele><time>2026-04-19T10:00:33Z</time></trkpt><trkpt lat="42.37147569052834" lon="13.353761029353615"><ele>650.0</ele><time>2026-04-19T10:00:34Z</time></trkpt><trkpt lat="42.371546222555644" lon="13.353610499063235"><ele>649.75</ele><time>2026-04-19T10:00:35Z</time></trkpt><trkpt lat="42.37161714172844" lon="13.35345805765646"><ele>649.5</ele><time>2026-04-19T10:00:36Z</time></trkpt><trkpt lat="42.37168493859259" lon="13.353310515336982"><ele>649.25</ele><time>2026-04-19T10:00:37Z</time></trkpt><trkpt lat="42.371757500766854" lon="13.353156596956703"><ele>649.0</ele><time>2026-04-19T10:00:38Z</time></trkpt><trkpt lat="42.37183555124675" lon="13.352997319165562"><ele>648.75</ele><time>2026-04-19T10:00:39Z</time></trkpt><trkpt lat="42.37191122498521" lon="13.352831393245513"><ele>648.5</ele><time>2026-04-19T10:00:40Z</time></trkpt><trkpt lat="42.37198845196857" lon="13.352662032630413"><ele>648.25</ele><time>2026-04-19T10:00:41Z</time></trkpt><trkpt lat="42.37207297049567" lon="13.352485186091146"><ele>648.0</ele><time>2026-04-19T10:00:42Z</time></trkpt><trkpt lat="42.37215855258508" lon="13.352306476284587"><ele>648.0</ele><time>2026-04-19T10:00:43Z</time></trkpt><trkpt lat="42.372236886924725" lon="13.352144054972884"><ele>648.0</ele><time>2026-04-19T10:00:44Z</time></trkpt><trkpt lat="42.3723115751497" lon="13.3519857286952"><ele>648.0</ele><time>2026-04-19T10:00:45Z</time></trkpt><trkpt lat="42.37238505828366" lon="13.351826927235608"><ele>648.0</ele><time>2026-04-19T10:00:46Z</time></trkpt><trkpt lat="42.37245570815948" lon="13.35167071632764"><ele>648.0</ele><time>2026-04-19T10:00:47Z</time></trkpt><trkpt lat="42.37254351218021" lon="13.351522492406133"><ele>648.0</ele><time>2026-04-19T10:00:48Z</time></trkpt><trkpt lat="42.37260292993578" lon="13.351357387985999"><ele>648.0</ele><time>2026-04-19T10:00:49Z</time></trkpt><trkpt lat="42.37267058070609" lon="13.35121623387964"><ele>648.0</ele><time>2026-04-19T10:00:50Z</time></trkpt><trkpt lat="42.37273524234775" lon="13.351087318295553"><ele>648.0</ele><time>2026-04-19T10:00:51Z</time></trkpt><trkpt lat="42.3728030761174" lon="13.350954888200446"><ele>648.0</ele><time>2026-04-19T10:00:52Z</time></trkpt><trkpt lat="42.37288260602875" lon="13.350848986856015"><ele>648.0</ele><time>2026-04-19T10:00:53Z</time></trkpt><trkpt lat="42.37293565593186" lon="13.350730946735009"><ele>648.0</ele><time>2026-04-19T10:00:54Z</time></trkpt><trkpt lat="42.373002126724074" lon="13.350639412480994"><ele>648.0</ele><time>2026-04-19T10:00:55Z</time></trkpt><trkpt lat="42.37307403201606" lon="13.350564082023505"><ele>647.6666666666666</ele><time>2026-04-19T10:00:56Z</time></trkpt><trkpt lat="42.37315141847296" lon="13.350512600990212"><ele>647.3333333333334</ele><time>2026-04-19T10:00:57Z</time></trkpt><trkpt lat="42.37322992860403" lon="13.350488678816467"><ele>647.0</ele><time>2026-04-19T10:00:58Z</time></trkpt><trkpt lat="42.37331011761943" lon="13.350465351189145"><ele>646.6666666666667</ele><time>2026-04-19T10:00:59Z</time></trkpt><trkpt lat="42.37338775319958" lon="13.35041576162168"><ele>646.3333333333334</ele><time>2026-04-19T10:01:00Z</time></trkpt><trkpt lat="42.37345029779887" lon="13.35033411480416"><ele>646.0</ele><time>2026-04-19T10:01:01Z</time></trkpt><trkpt lat="42.37348050758087" lon="13.350237887169062"><ele>646.0</ele><time>2026-04-19T10:01:02Z</time></trkpt><trkpt lat="42.373483756224424" lon="13.35012950565759"><ele>646.0</ele><time>2026-04-19T10:01:03Z</time></trkpt><trkpt lat="42.37350770286449" lon="13.349987040485033"><ele>646.0</ele><time>2026-04-19T10:01:04Z</time></trkpt><trkpt lat="42.37355701996807" lon="13.349914457215103"><ele>646.0</ele><time>2026-04-19T10:01:05Z</time></trkpt><trkpt lat="42.373623687400496" lon="13.349802716712889"><ele>646.0</ele><time>2026-04-19T10:01:06Z</time></trkpt><trkpt lat="42.37371421269859" lon="13.349701863970244"><ele>646.0</ele><time>2026-04-19T10:01:07Z</time></trkpt><trkpt lat="42.37380338642479" lon="13.349590727987204"><ele>646.0</ele><time>2026-04-19T10:01:08Z</time></trkpt><trkpt lat="42.3738963343134" lon="13.349473137324495"><ele>646.0</ele><time>2026-04-19T10:01:09Z</time></trkpt><trkpt lat="42.37399572172593" lon="13.349349970360567"><ele>646.0</ele><time>2026-04-19T10:01:10Z</time></trkpt><trkpt lat="42.37411186592954" lon="13.34923791838438"><ele>645.6666666666667</ele><time>2026-04-19T10:01:11Z</time></trkpt><trkpt lat="42.374226934384346" lon="13.349104755637464"><ele>645.3333333333334</ele><time>2026-04-19T10:01:12Z</time></trkpt><trkpt lat="42.37434703504116" lon="13.348971699040867"><ele>645.0</ele><time>2026-04-19T10:01:13Z</time></trkpt><trkpt lat="42.374476783406344" lon="13.348838710499727"><ele>644.3333333333334</ele><time>2026-04-19T10:01:14Z</time></trkpt><trkpt lat="42.37460560898216" lon="13.348686051146872"><ele>643.6666666666667</ele><time>2026-04-19T10:01:15Z</time></trkpt><trkpt lat="42.37473934038793" lon="13.348548102843054"><ele>643.0</ele><time>2026-04-19T10:01:16Z</time></trkpt><trkpt lat="42.374879846994844" lon="13.348406390695136"><ele>643.0</ele><time>2026-04-19T10:01:17Z</time></trkpt><trkpt lat="42.37503092336066" lon="13.348286376571245"><ele>643.0</ele><time>2026-04-19T10:01:18Z</time></trkpt><trkpt lat="42.37517524692478" lon="13.348154816682055"><ele>643.0</ele><time>2026-04-19T10:01:19Z</time></trkpt><trkpt lat="42.375325364192754" lon="13.348002059620065"><ele>643.5</ele><time>2026-04-19T10:01:20Z</time></trkpt><trkpt lat="42.37551817393134" lon="13.347873311550652"><ele>644.0</ele><time>2026-04-19T10:01:21Z</time></trkpt><trkpt lat="42.37573203707624" lon="13.347712984464689"><ele>644.0</ele><time>2026-04-19T10:01:22Z</time></trkpt><trkpt lat="42.375953563501604" lon="13.347526873858223"><ele>644.0</ele><time>2026-04-19T10:01:23Z</time></trkpt><trkpt lat="42.376165557802" lon="13.347381617864023"><ele>643.6666666666666</ele><time>2026-04-19T10:01:24Z</time></trkpt><trkpt lat="42.37635565441901" lon="13.34724125298235"><ele>643.3333333333334</ele><time>2026-04-19T10:01:25Z</time></trkpt><trkpt lat="42.37653295013757" lon="13.34711152749076"><ele>643.0</ele><time>2026-04-19T10:01:26Z</time></trkpt><trkpt lat="42.37670921534747" lon="13.346982593203354"><ele>643.0</ele><time>2026-04-19T10:01:27Z</time></trkpt><trkpt lat="42.37688447275435" lon="13.34685193610146"><ele>643.0</ele><time>2026-04-19T10:01:28Z</time></trkpt><trkpt lat="42.377071595714845" lon="13.346716045511657"><ele>643.0</ele><time>2026-04-19T10:01:29Z</time></trkpt><trkpt lat="42.37728098944771" lon="13.346594317847313"><ele>643.0</ele><time>2026-04-19T10:01:30Z</time></trkpt><trkpt lat="42.377477180421536" lon="13.346458625165718"><ele>643.0</ele><time>2026-04-19T10:01:31Z</time></trkpt><trkpt lat="42.377678960000026" lon="13.346401632072245"><ele>643.0</ele><time>2026-04-19T10:01:32Z</time></trkpt><trkpt lat="42.37786640374133" lon="13.3463329794894"><ele>643.3333333333334</ele><time>2026-04-19T10:01:33Z</time></trkpt><trkpt lat="42.37805673301566" lon="13.346306149520018"><ele>643.6666666666666</ele><time>2026-04-19T10:01:34Z</time></trkpt><trkpt lat="42.37825810715145" lon="13.346294310305415"><ele>644.0</ele><time>2026-04-19T10:01:35Z</time></trkpt><trkpt lat="42.378472607517644" lon="13.346286816692402"><ele>644.0</ele><time>2026-04-19T10:01:36Z</time></trkpt><trkpt lat="42.378690841509346" lon="13.346262696192902"><ele>644.0</ele><time>2026-04-19T10:01:37Z</time></trkpt><trkpt lat="42.378901192833986" lon="13.346205994154266"><ele>644.0</ele><time>2026-04-19T10:01:38Z</time></trkpt><trkpt lat="42.37910657619588" lon="13.346106121289838"><ele>645.5</ele><time>2026-04-19T10:01:39Z</time></trkpt><trkpt lat="42.37930837954884" lon="13.345951877283657"><ele>647.0</ele><time>2026-04-19T10:01:40Z</time></trkpt><trkpt lat="42.37950624549438" lon="13.345746317960998"><ele>646.0</ele><time>2026-04-19T10:01:41Z</time></trkpt><trkpt lat="42.37969301679911" lon="13.345534186344466"><ele>645.0</ele><time>2026-04-19T10:01:42Z</time></trkpt><trkpt lat="42.3798679531357" lon="13.345330529527871"><ele>645.0</ele><time>2026-04-19T10:01:43Z</time></trkpt><trkpt lat="42.38003635825325" lon="13.345146990362402"><ele>645.0</ele><time>2026-04-19T10:01:44Z</time></trkpt><trkpt lat="42.380195285774604" lon="13.344969354302172"><ele>645.0</ele><time>2026-04-19T10:01:45Z</time></trkpt><trkpt lat="42.3803504749809" lon="13.344797887960302"><ele>644.0</ele><time>2026-04-19T10:01:46Z</time></trkpt><trkpt lat="42.38050811817813" lon="13.344626909690856"><ele>643.0</ele><time>2026-04-19T10:01:47Z</time></trkpt><trkpt lat="42.38067315984396" lon="13.344443120852084"><ele>642.0</ele><time>2026-04-19T10:01:48Z</time></trkpt><trkpt lat="42.38083743833149" lon="13.344260250722868"><ele>643.0</ele><time>2026-04-19T10:01:49Z</time></trkpt><trkpt lat="42.380998771094895" lon="13.344090361808341"><ele>644.0</ele><time>2026-04-19T10:01:50Z</time></trkpt><trkpt lat="42.38115990477869" lon="13.343949903163976"><ele>645.0</ele><time>2026-04-19T10:01:51Z</time></trkpt><trkpt lat="42.38133036276779" lon="13.343828365731886"><ele>646.0</ele><time>2026-04-19T10:01:52Z</time></trkpt><trkpt lat="42.381496295342636" lon="13.343694082997745"><ele>647.0</ele><time>2026-04-19T10:01:53Z</time></trkpt><trkpt lat="42.38165358059009" lon="13.343522185276042"><ele>648.0</ele><time>2026-04-19T10:01:54Z</time></trkpt><trkpt lat="42.38180119292289" lon="13.3433147091354"><ele>648.0</ele><time>2026-04-19T10:01:55Z</time></trkpt><trkpt lat="42.38193417169617" lon="13.34307818109495"><ele>648.0</ele><time>2026-04-19T10:01:56Z</time></trkpt><trkpt lat="42.38207459074723" lon="13.342851341533056"><ele>648.0</ele><time>2026-04-19T10:01:57Z</time></trkpt><trkpt lat="42.382199928293225" lon="13.342633699366608"><ele>647.0</ele><time>2026-04-19T10:01:58Z</time></trkpt><trkpt lat="42.38232070998951" lon="13.342419196890985"><ele>646.0</ele><time>2026-04-19T10:01:59Z</time></trkpt><trkpt lat="42.382482627813275" lon="13.342233617395026"><ele>645.0</ele><time>2026-04-19T10:02:00Z</time></trkpt><trkpt lat="42.38266082303173" lon="13.342064604759006"><ele>645.0</ele><time>2026-04-19T10:02:01Z</time></trkpt><trkpt lat="42.38283130084842" lon="13.341924555380078"><ele>645.0</ele><time>2026-04-19T10:02:02Z</time></trkpt><trkpt lat="42.38297026468151" lon="13.341801785897294"><ele>645.0</ele><time>2026-04-19T10:02:03Z</time></trkpt><trkpt lat="42.383086609549295" lon="13.341711323213957"><ele>645.6666666666666</ele><time>2026-04-19T10:02:04Z</time></trkpt><trkpt lat="42.38319194375073" lon="13.341662694114497"><ele>646.3333333333334</ele><time>2026-04-19T10:02:05Z</time></trkpt><trkpt lat="42.38325662788658" lon="13.341647368448708"><ele>647.0</ele><time>2026-04-19T10:02:06Z</time></trkpt><trkpt lat="42.383350530933214" lon="13.341652451935081"><ele>647.6666666666667</ele><time>2026-04-19T10:02:09Z</time></trkpt><trkpt lat="42.38342222119196" lon="13.341638251595244"><ele>648.3333333333334</ele><time>2026-04-19T10:02:10Z</time></trkpt><trkpt lat="42.38348824176112" lon="13.341574907549484"><ele>649.0</ele><time>2026-04-19T10:02:11Z</time></trkpt><trkpt lat="42.38353088951383" lon="13.341460924834374"><ele>648.0</ele><time>2026-04-19T10:02:12Z</time></trkpt><trkpt lat="42.3835527197618" lon="13.34129667377133"><ele>647.0</ele><time>2026-04-19T10:02:13Z</time></trkpt><trkpt lat="42.38359248817767" lon="13.34108965194405"><ele>646.0</ele><time>2026-04-19T10:02:14Z</time></trkpt><trkpt lat="42.3836855922694" lon="13.340865295009673"><ele>646.0</ele><time>2026-04-19T10:02:15Z</time></trkpt><trkpt lat="42.38380636920678" lon="13.340625393651745"><ele>646.0</ele><time>2026-04-19T10:02:16Z</time></trkpt><trkpt lat="42.38393448566449" lon="13.340366331934842"><ele>646.0</ele><time>2026-04-19T10:02:17Z</time></trkpt><trkpt lat="42.38404843639573" lon="13.340124043003826"><ele>646.6666666666667</ele><time>2026-04-19T10:02:18Z</time></trkpt><trkpt lat="42.38415709638266" lon="13.339896437413099"><ele>647.3333333333334</ele><time>2026-04-19T10:02:19Z</time></trkpt><trkpt lat="42.384268581798246" lon="13.339656418732101"><ele>648.0</ele><time>2026-04-19T10:02:20Z</time></trkpt><trkpt lat="42.38438070648788" lon="13.339415083765477"><ele>648.0</ele><time>2026-04-19T10:02:21Z</time></trkpt><trkpt lat="42.384491119254236" lon="13.339178330186716"><ele>648.0</ele><time>2026-04-19T10:02:22Z</time></trkpt><trkpt lat="42.38460203032673" lon="13.338940706336434"><ele>648.0</ele><time>2026-04-19T10:02:23Z</time></trkpt><trkpt lat="42.38470484458262" lon="13.338717152246856"><ele>648.6666666666666</ele><time>2026-04-19T10:02:24Z</time></trkpt><trkpt lat="42.38480986687988" lon="13.338491967276813"><ele>649.3333333333333</ele><time>2026-04-19T10:02:25Z</time></trkpt><trkpt lat="42.38491358624169" lon="13.338262320372467"><ele>650.0</ele><time>2026-04-19T10:02:26Z</time></trkpt><trkpt lat="42.385019229794004" lon="13.338039048657897"><ele>650.0</ele><time>2026-04-19T10:02:27Z</time></trkpt><trkpt lat="42.38512212181195" lon="13.337810254237903"><ele>650.0</ele><time>2026-04-19T10:02:28Z</time></trkpt><trkpt lat="42.38522802381952" lon="13.33757804274518"><ele>650.0</ele><time>2026-04-19T10:02:29Z</time></trkpt><trkpt lat="42.3853409223339" lon="13.337325743289519"><ele>651.0</ele><time>2026-04-19T10:02:30Z</time></trkpt><trkpt lat="42.385464665551254" lon="13.337056971344913"><ele>652.0</ele><time>2026-04-19T10:02:31Z</time></trkpt><trkpt lat="42.38559623820872" lon="13.33677703276965"><ele>652.5</ele><time>2026-04-19T10:02:32Z</time></trkpt><trkpt lat="42.385727140046285" lon="13.336503393927483"><ele>653.0</ele><time>2026-04-19T10:02:33Z</time></trkpt><trkpt lat="42.38585866345874" lon="13.33623024326948"><ele>652.3333333333333</ele><time>2026-04-19T10:02:34Z</time></trkpt><trkpt lat="42.38598360244061" lon="13.335969618368619"><ele>651.6666666666666</ele><time>2026-04-19T10:02:35Z</time></trkpt><trkpt lat="42.38610511104351" lon="13.335728604220453"><ele>651.0</ele><time>2026-04-19T10:02:36Z</time></trkpt><trkpt lat="42.386231509605935" lon="13.335500255519962"><ele>651.6666666666666</ele><time>2026-04-19T10:02:37Z</time></trkpt><trkpt lat="42.38636127488542" lon="13.335284249136672"><ele>652.3333333333333</ele><time>2026-04-19T10:02:38Z</time></trkpt><trkpt lat="42.38649024796658" lon="13.335074114316148"><ele>653.0</ele><time>2026-04-19T10:02:39Z</time></trkpt><trkpt lat="42.3866189389472" lon="13.334856744190157"><ele>652.0</ele><time>2026-04-19T10:02:40Z</time></trkpt><trkpt lat="42.386749357003076" lon="13.334646823526622"><ele>651.0</ele><time>2026-04-19T10:02:41Z</time></trkpt><trkpt lat="42.386881466998915" lon="13.334459587486968"><ele>650.0</ele><time>2026-04-19T10:02:42Z</time></trkpt><trkpt lat="42.387015830933535" lon="13.33429264532018"><ele>650.0</ele><time>2026-04-19T10:02:43Z</time></trkpt><trkpt lat="42.38715449459131" lon="13.334128900273702"><ele>650.0</ele><time>2026-04-19T10:02:44Z</time></trkpt><trkpt lat="42.38728660998843" lon="13.333965233370147"><ele>650.0</ele><time>2026-04-19T10:02:45Z</time></trkpt><trkpt lat="42.38741985195083" lon="13.333790866212423"><ele>651.3333333333333</ele><time>2026-04-19T10:02:46Z</time></trkpt><trkpt lat="42.38754277074073" lon="13.333634196909326"><ele>652.6666666666666</ele><time>2026-04-19T10:02:47Z</time></trkpt><trkpt lat="42.387666700425996" lon="13.333485669760224"><ele>654.0</ele><time>2026-04-19T10:02:48Z</time></trkpt><trkpt lat="42.387798035183835" lon="13.333338113551523"><ele>654.0</ele><time>2026-04-19T10:02:49Z</time></trkpt><trkpt lat="42.38794381547083" lon="13.333177480181696"><ele>654.0</ele><time>2026-04-19T10:02:50Z</time></trkpt><trkpt lat="42.38809522468075" lon="13.333009615787573"><ele>654.0</ele><time>2026-04-19T10:02:51Z</time></trkpt><trkpt lat="42.38824485016197" lon="13.332842281979703"><ele>655.0</ele><time>2026-04-19T10:02:52Z</time></trkpt><trkpt lat="42.3884062840502" lon="13.33266191023897"><ele>656.0</ele><time>2026-04-19T10:02:53Z</time></trkpt><trkpt lat="42.38857729145276" lon="13.332467357860128"><ele>657.0</ele><time>2026-04-19T10:02:54Z</time></trkpt><trkpt lat="42.38875287750569" lon="13.332278922357544"><ele>656.6666666666666</ele><time>2026-04-19T10:02:55Z</time></trkpt><trkpt lat="42.388918938518714" lon="13.332103355144138"><ele>656.3333333333333</ele><time>2026-04-19T10:02:56Z</time></trkpt><trkpt lat="42.38907472214172" lon="13.331939203087785"><ele>656.0</ele><time>2026-04-19T10:02:57Z</time></trkpt><trkpt lat="42.389236035860854" lon="13.331763255059474"><ele>656.0</ele><time>2026-04-19T10:02:58Z</time></trkpt><trkpt lat="42.38941910888713" lon="13.331566682431774"><ele>656.0</ele><time>2026-04-19T10:02:59Z</time></trkpt><trkpt lat="42.389623129422844" lon="13.331355408419919"><ele>657.5</ele><time>2026-04-19T10:03:00Z</time></trkpt><trkpt lat="42.38983763377747" lon="13.331136575774806"><ele>659.0</ele><time>2026-04-19T10:03:01Z</time></trkpt><trkpt lat="42.39005180634209" lon="13.330925580591165"><ele>659.0</ele><time>2026-04-19T10:03:02Z</time></trkpt><trkpt lat="42.390258182227406" lon="13.33072194888361"><ele>659.0</ele><time>2026-04-19T10:03:03Z</time></trkpt><trkpt lat="42.390478431157504" lon="13.330540175827894"><ele>659.5</ele><time>2026-04-19T10:03:04Z</time></trkpt><trkpt lat="42.39067522813313" lon="13.330340781415176"><ele>660.0</ele><time>2026-04-19T10:03:05Z</time></trkpt><trkpt lat="42.3908606682907" lon="13.330152893660172"><ele>660.0</ele><time>2026-04-19T10:03:06Z</time></trkpt><trkpt lat="42.391025736841954" lon="13.329958842940757"><ele>660.0</ele><time>2026-04-19T10:03:07Z</time></trkpt><trkpt lat="42.39119380115812" lon="13.329791195845493"><ele>660.0</ele><time>2026-04-19T10:03:08Z</time></trkpt><trkpt lat="42.39135731989154" lon="13.329628287156016"><ele>660.0</ele><time>2026-04-19T10:03:09Z</time></trkpt><trkpt lat="42.39151895656396" lon="13.329463571503927"><ele>660.0</ele><time>2026-04-19T10:03:10Z</time></trkpt><trkpt lat="42.39167591704337" lon="13.329287128520827"><ele>660.0</ele><time>2026-04-19T10:03:11Z</time></trkpt><trkpt lat="42.39182378169683" lon="13.329096913414679"><ele>660.0</ele><time>2026-04-19T10:03:12Z</time></trkpt><trkpt lat="42.39196392581967" lon="13.328899435237899"><ele>660.0</ele><time>2026-04-19T10:03:13Z</time></trkpt><trkpt lat="42.392093836354206" lon="13.328705397149783"><ele>660.0</ele><time>2026-04-19T10:03:14Z</time></trkpt><trkpt lat="42.392219339260365" lon="13.328499804856852"><ele>660.6666666666666</ele><time>2026-04-19T10:03:15Z</time></trkpt><trkpt lat="42.3923351568018" lon="13.328272633434723"><ele>661.3333333333333</ele><time>2026-04-19T10:03:16Z</time></trkpt><trkpt lat="42.39243140922136" lon="13.32803962411888"><ele>662.0</ele><time>2026-04-19T10:03:17Z</time></trkpt><trkpt lat="42.39251516701905" lon="13.327812675680837"><ele>662.0</ele><time>2026-04-19T10:03:18Z</time></trkpt><trkpt lat="42.39261826563303" lon="13.32761278398079"><ele>662.0</ele><time>2026-04-19T10:03:19Z</time></trkpt><trkpt lat="42.39271149198683" lon="13.3273967702537"><ele>662.0</ele><time>2026-04-19T10:03:20Z</time></trkpt><trkpt lat="42.39278716261694" lon="13.327190642513262"><ele>661.0</ele><time>2026-04-19T10:03:21Z</time></trkpt><trkpt lat="42.39287128057744" lon="13.327000752390834"><ele>660.0</ele><time>2026-04-19T10:03:22Z</time></trkpt><trkpt lat="42.39295016361558" lon="13.326806197262007"><ele>659.0</ele><time>2026-04-19T10:03:23Z</time></trkpt><trkpt lat="42.39301770868004" lon="13.32659742660824"><ele>662.6666666666666</ele><time>2026-04-19T10:03:24Z</time></trkpt><trkpt lat="42.39307076293035" lon="13.326356943502043"><ele>666.3333333333334</ele><time>2026-04-19T10:03:25Z</time></trkpt><trkpt lat="42.39312554121112" lon="13.326091876374473"><ele>670.0</ele><time>2026-04-19T10:03:26Z</time></trkpt><trkpt lat="42.39317830261714" lon="13.325794026776913"><ele>668.5</ele><time>2026-04-19T10:03:27Z</time></trkpt><trkpt lat="42.39323446103312" lon="13.325478585048575"><ele>667.0</ele><time>2026-04-19T10:03:28Z</time></trkpt><trkpt lat="42.393290568429954" lon="13.325163302653609"><ele>667.0</ele><time>2026-04-19T10:03:29Z</time></trkpt><trkpt lat="42.393350461859654" lon="13.324825367360829"><ele>667.0</ele><time>2026-04-19T10:03:30Z</time></trkpt><trkpt lat="42.39340987901189" lon="13.32448971667795"><ele>665.5</ele><time>2026-04-19T10:03:31Z</time></trkpt><trkpt lat="42.39347181670789" lon="13.324140153508402"><ele>664.0</ele><time>2026-04-19T10:03:32Z</time></trkpt><trkpt lat="42.39353450525594" lon="13.323786523510305"><ele>664.0</ele><time>2026-04-19T10:03:33Z</time></trkpt><trkpt lat="42.39359829120005" lon="13.323426703028593"><ele>664.0</ele><time>2026-04-19T10:03:34Z</time></trkpt><trkpt lat="42.39366399715741" lon="13.323055275045894"><ele>663.5</ele><time>2026-04-19T10:03:35Z</time></trkpt><trkpt lat="42.39372708322916" lon="13.322700198609413"><ele>663.0</ele><time>2026-04-19T10:03:36Z</time></trkpt><trkpt lat="42.39378632175582" lon="13.322351641095539"><ele>662.5</ele><time>2026-04-19T10:03:37Z</time></trkpt><trkpt lat="42.39382240909381" lon="13.321983714662146"><ele>662.0</ele><time>2026-04-19T10:03:38Z</time></trkpt><trkpt lat="42.39387216727609" lon="13.32162685972257"><ele>666.0</ele><time>2026-04-19T10:03:39Z</time></trkpt><trkpt lat="42.393915062429684" lon="13.321280811435342"><ele>670.0</ele><time>2026-04-19T10:03:40Z</time></trkpt><trkpt lat="42.393954097263354" lon="13.32094849238064"><ele>670.0</ele><time>2026-04-19T10:03:41Z</time></trkpt><trkpt lat="42.39399622772249" lon="13.320622896180215"><ele>670.0</ele><time>2026-04-19T10:03:42Z</time></trkpt><trkpt lat="42.39403282179739" lon="13.320286771644943"><ele>667.0</ele><time>2026-04-19T10:03:43Z</time></trkpt><trkpt lat="42.394083798268234" lon="13.31993019904444"><ele>664.0</ele><time>2026-04-19T10:03:44Z</time></trkpt><trkpt lat="42.39412722635298" lon="13.31956237944061"><ele>663.5</ele><time>2026-04-19T10:03:45Z</time></trkpt><trkpt lat="42.39417278714347" lon="13.319179830063417"><ele>663.0</ele><time>2026-04-19T10:03:46Z</time></trkpt><trkpt lat="42.39421912059168" lon="13.318790884780967"><ele>663.0</ele><time>2026-04-19T10:03:47Z</time></trkpt><trkpt lat="42.39426226310816" lon="13.31842894393906"><ele>663.0</ele><time>2026-04-19T10:03:48Z</time></trkpt><trkpt lat="42.394304045423546" lon="13.318078414355638"><ele>663.0</ele><time>2026-04-19T10:03:49Z</time></trkpt><trkpt lat="42.39434481455394" lon="13.317736384928834"><ele>663.0</ele><time>2026-04-19T10:03:50Z</time></trkpt><trkpt lat="42.394385582331545" lon="13.317394366770468"><ele>662.0</ele><time>2026-04-19T10:03:51Z</time></trkpt><trkpt lat="42.39442512356008" lon="13.317055184162292"><ele>661.0</ele><time>2026-04-19T10:03:52Z</time></trkpt><trkpt lat="42.39446354532114" lon="13.316724442754957"><ele>661.0</ele><time>2026-04-19T10:03:53Z</time></trkpt><trkpt lat="42.39450049538987" lon="13.316406369922747"><ele>661.0</ele><time>2026-04-19T10:03:54Z</time></trkpt><trkpt lat="42.39452243125807" lon="13.316092101778569"><ele>661.0</ele><time>2026-04-19T10:03:55Z</time></trkpt><trkpt lat="42.39455927734513" lon="13.315784316046889"><ele>661.0</ele><time>2026-04-19T10:03:56Z</time></trkpt><trkpt lat="42.394593919374415" lon="13.315478138917944"><ele>661.0</ele><time>2026-04-19T10:03:57Z</time></trkpt><trkpt lat="42.394629927393616" lon="13.315178054010335"><ele>661.0</ele><time>2026-04-19T10:03:58Z</time></trkpt><trkpt lat="42.39466353253416" lon="13.314898506072767"><ele>661.0</ele><time>2026-04-19T10:03:59Z</time></trkpt><trkpt lat="42.39469224871574" lon="13.314634679074128"><ele>664.6666666666667</ele><time>2026-04-19T10:04:00Z</time></trkpt><trkpt lat="42.39471897351405" lon="13.314386960197021"><ele>668.3333333333334</ele><time>2026-04-19T10:04:01Z</time></trkpt><trkpt lat="42.39474199234124" lon="13.314149513340686"><ele>672.0</ele><time>2026-04-19T10:04:02Z</time></trkpt><trkpt lat="42.39475437398495" lon="13.31392980282787"><ele>671.6666666666666</ele><time>2026-04-19T10:04:03Z</time></trkpt><trkpt lat="42.39476143351821" lon="13.31370787116959"><ele>671.3333333333333</ele><time>2026-04-19T10:04:04Z</time></trkpt><trkpt lat="42.39476536219633" lon="13.31349506854691"><ele>671.0</ele><time>2026-04-19T10:04:05Z</time></trkpt><trkpt lat="42.39477444288303" lon="13.313295611339196"><ele>671.0</ele><time>2026-04-19T10:04:06Z</time></trkpt><trkpt lat="42.39479703016539" lon="13.31310691433997"><ele>671.0</ele><time>2026-04-19T10:04:07Z</time></trkpt><trkpt lat="42.394848295583564" lon="13.31293149722448"><ele>671.0</ele><time>2026-04-19T10:04:08Z</time></trkpt><trkpt lat="42.39494133520141" lon="13.312757243038744"><ele>671.0</ele><time>2026-04-19T10:04:09Z</time></trkpt><trkpt lat="42.39506431121203" lon="13.31257782739676"><ele>670.0</ele><time>2026-04-19T10:04:10Z</time></trkpt><trkpt lat="42.39520542195393" lon="13.312399532422834"><ele>669.0</ele><time>2026-04-19T10:04:11Z</time></trkpt><trkpt lat="42.39535755534708" lon="13.312252716292907"><ele>668.0</ele><time>2026-04-19T10:04:12Z</time></trkpt><trkpt lat="42.39552189498317" lon="13.312106628345918"><ele>667.3333333333333</ele><time>2026-04-19T10:04:13Z</time></trkpt><trkpt lat="42.39570493516842" lon="13.31197197853683"><ele>666.6666666666666</ele><time>2026-04-19T10:04:14Z</time></trkpt><trkpt lat="42.395895010895316" lon="13.31188135498449"><ele>666.0</ele><time>2026-04-19T10:04:15Z</time></trkpt><trkpt lat="42.396077356465035" lon="13.311845342421694"><ele>666.0</ele><time>2026-04-19T10:04:16Z</time></trkpt><trkpt lat="42.39625840782631" lon="13.311861377155008"><ele>666.0</ele><time>2026-04-19T10:04:17Z</time></trkpt><trkpt lat="42.39644393649175" lon="13.31191495661128"><ele>666.0</ele><time>2026-04-19T10:04:18Z</time></trkpt><trkpt lat="42.3966353657253" lon="13.311995904478604"><ele>666.6666666666666</ele><time>2026-04-19T10:04:19Z</time></trkpt><trkpt lat="42.396828817427895" lon="13.312106493137179"><ele>667.3333333333333</ele><time>2026-04-19T10:04:20Z</time></trkpt><trkpt lat="42.397029728426645" lon="13.3122609010243"><ele>668.0</ele><time>2026-04-19T10:04:21Z</time></trkpt><trkpt lat="42.39721426379017" lon="13.312407047667254"><ele>669.3333333333333</ele><time>2026-04-19T10:04:22Z</time></trkpt><trkpt lat="42.39738172325871" lon="13.312512547316706"><ele>670.6666666666666</ele><time>2026-04-19T10:04:23Z</time></trkpt><trkpt lat="42.39755777406962" lon="13.312558892552218"><ele>672.0</ele><time>2026-04-19T10:04:24Z</time></trkpt><trkpt lat="42.3977523381409" lon="13.312554929534786"><ele>672.0</ele><time>2026-04-19T10:04:25Z</time></trkpt><trkpt lat="42.397962283290504" lon="13.312484817059769"><ele>672.0</ele><time>2026-04-19T10:04:26Z</time></trkpt><trkpt lat="42.3981855554685" lon="13.312360996422937"><ele>671.0</ele><time>2026-04-19T10:04:27Z</time></trkpt><trkpt lat="42.39842787277747" lon="13.312222947223253"><ele>670.0</ele><time>2026-04-19T10:04:28Z</time></trkpt><trkpt lat="42.39868706138263" lon="13.312090042431784"><ele>669.5</ele><time>2026-04-19T10:04:29Z</time></trkpt><trkpt lat="42.398925925097565" lon="13.311973332402978"><ele>669.0</ele><time>2026-04-19T10:04:30Z</time></trkpt><trkpt lat="42.39914234011265" lon="13.311864428332395"><ele>669.0</ele><time>2026-04-19T10:04:31Z</time></trkpt><trkpt lat="42.39934589783367" lon="13.311759639516431"><ele>669.0</ele><time>2026-04-19T10:04:32Z</time></trkpt><trkpt lat="42.39953879863282" lon="13.311660844512854"><ele>669.0</ele><time>2026-04-19T10:04:33Z</time></trkpt><trkpt lat="42.39972109743529" lon="13.311568557198568"><ele>669.0</ele><time>2026-04-19T10:04:34Z</time></trkpt><trkpt lat="42.399887205687826" lon="13.311483691455889"><ele>669.0</ele><time>2026-04-19T10:04:35Z</time></trkpt><trkpt lat="42.40003931480076" lon="13.31140471330356"><ele>669.0</ele><time>2026-04-19T10:04:36Z</time></trkpt><trkpt lat="42.400154588411596" lon="13.31134864139284"><ele>668.75</ele><time>2026-04-19T10:04:37Z</time></trkpt><trkpt lat="42.40026656295098" lon="13.311304423620133"><ele>668.5</ele><time>2026-04-19T10:04:38Z</time></trkpt><trkpt lat="42.40039396168683" lon="13.311267037130573"><ele>668.25</ele><time>2026-04-19T10:04:39Z</time></trkpt><trkpt lat="42.40050860530089" lon="13.311193609544171"><ele>668.0</ele><time>2026-04-19T10:04:40Z</time></trkpt><trkpt lat="42.400608271887364" lon="13.31106826521061"><ele>668.0</ele><time>2026-04-19T10:04:41Z</time></trkpt><trkpt lat="42.400699250299915" lon="13.310893408850108"><ele>668.0</ele><time>2026-04-19T10:04:42Z</time></trkpt><trkpt lat="42.400823494185644" lon="13.310699805541969"><ele>668.0</ele><time>2026-04-19T10:04:43Z</time></trkpt><trkpt lat="42.40099534058905" lon="13.310520026318514"><ele>668.5</ele><time>2026-04-19T10:04:44Z</time></trkpt><trkpt lat="42.40119926529293" lon="13.310343774080973"><ele>669.0</ele><time>2026-04-19T10:04:45Z</time></trkpt><trkpt lat="42.40141562620654" lon="13.310148546102536"><ele>669.0</ele><time>2026-04-19T10:04:46Z</time></trkpt><trkpt lat="42.40165963025012" lon="13.309932653464362"><ele>669.0</ele><time>2026-04-19T10:04:47Z</time></trkpt><trkpt lat="42.40190667787503" lon="13.30972273143979"><ele>670.5</ele><time>2026-04-19T10:04:48Z</time></trkpt><trkpt lat="42.40216753117075" lon="13.309499931763744"><ele>672.0</ele><time>2026-04-19T10:04:49Z</time></trkpt><trkpt lat="42.402430632816795" lon="13.309268815599795"><ele>672.0</ele><time>2026-04-19T10:04:50Z</time></trkpt><trkpt lat="42.40269979439932" lon="13.309027395169126"><ele>672.0</ele><time>2026-04-19T10:04:51Z</time></trkpt><trkpt lat="42.4029774186275" lon="13.308778946867333"><ele>673.5</ele><time>2026-04-19T10:04:52Z</time></trkpt><trkpt lat="42.403266286460365" lon="13.308525366770455"><ele>675.0</ele><time>2026-04-19T10:04:53Z</time></trkpt><trkpt lat="42.40354897511298" lon="13.308276057008474"><ele>674.5</ele><time>2026-04-19T10:04:54Z</time></trkpt><trkpt lat="42.40380449601805" lon="13.308052469659629"><ele>674.0</ele><time>2026-04-19T10:04:55Z</time></trkpt><trkpt lat="42.40404543820927" lon="13.307843036769977"><ele>674.0</ele><time>2026-04-19T10:04:56Z</time></trkpt><trkpt lat="42.40428281137013" lon="13.307634117970649"><ele>674.0</ele><time>2026-04-19T10:04:57Z</time></trkpt><trkpt lat="42.404513543961926" lon="13.307426901393615"><ele>675.0</ele><time>2026-04-19T10:04:58Z</time></trkpt><trkpt lat="42.4047280902918" lon="13.307230896772898"><ele>676.0</ele><time>2026-04-19T10:04:59Z</time></trkpt><trkpt lat="42.404927656690774" lon="13.307050231761615"><ele>676.0</ele><time>2026-04-19T10:05:00Z</time></trkpt><trkpt lat="42.40512042404764" lon="13.306877928987442"><ele>676.0</ele><time>2026-04-19T10:05:01Z</time></trkpt><trkpt lat="42.405295918014666" lon="13.30671981693189"><ele>676.0</ele><time>2026-04-19T10:05:02Z</time></trkpt><trkpt lat="42.40546425153563" lon="13.306568773548312"><ele>676.6666666666667</ele><time>2026-04-19T10:05:03Z</time></trkpt><trkpt lat="42.405610158033745" lon="13.306424511904972"><ele>677.3333333333334</ele><time>2026-04-19T10:05:04Z</time></trkpt><trkpt lat="42.40574499356499" lon="13.30628491877234"><ele>678.0</ele><time>2026-04-19T10:05:05Z</time></trkpt><trkpt lat="42.4058625366825" lon="13.306168245349536"><ele>678.0</ele><time>2026-04-19T10:05:06Z</time></trkpt><trkpt lat="42.405942608913165" lon="13.306097328120414"><ele>678.0</ele><time>2026-04-19T10:05:07Z</time></trkpt><trkpt lat="42.40605581803744" lon="13.3060663455114"><ele>678.0</ele><time>2026-04-19T10:05:09Z</time></trkpt><trkpt lat="42.40613793156046" lon="13.306052026185775"><ele>678.0</ele><time>2026-04-19T10:05:10Z</time></trkpt><trkpt lat="42.406236124018285" lon="13.306043231461631"><ele>678.0</ele><time>2026-04-19T10:05:11Z</time></trkpt><trkpt lat="42.40631873682037" lon="13.306023026521151"><ele>678.0</ele><time>2026-04-19T10:05:12Z</time></trkpt><trkpt lat="42.406429987387746" lon="13.306040809852876"><ele>678.0</ele><time>2026-04-19T10:05:14Z</time></trkpt><trkpt lat="42.406543691228634" lon="13.306072285318056"><ele>678.0</ele><time>2026-04-19T10:05:16Z</time></trkpt><trkpt lat="42.4066308285917" lon="13.30608116502774"><ele>678.0</ele><time>2026-04-19T10:05:17Z</time></trkpt><trkpt lat="42.406726039291414" lon="13.306098998591523"><ele>678.0</ele><time>2026-04-19T10:05:18Z</time></trkpt><trkpt lat="42.40684447032795" lon="13.306113968824365"><ele>678.0</ele><time>2026-04-19T10:05:19Z</time></trkpt><trkpt lat="42.40698283126979" lon="13.306134371114405"><ele>678.0</ele><time>2026-04-19T10:05:20Z</time></trkpt><trkpt lat="42.40713809433785" lon="13.30615726572745"><ele>678.0</ele><time>2026-04-19T10:05:21Z</time></trkpt><trkpt lat="42.40726549263571" lon="13.306176756832246"><ele>678.0</ele><time>2026-04-19T10:05:22Z</time></trkpt><trkpt lat="42.40738223550687" lon="13.30617277617723"><ele>678.0</ele><time>2026-04-19T10:05:23Z</time></trkpt><trkpt lat="42.40749686097549" lon="13.306194488489433"><ele>678.0</ele><time>2026-04-19T10:05:24Z</time></trkpt><trkpt lat="42.40759990652136" lon="13.306213077410817"><ele>678.0</ele><time>2026-04-19T10:05:25Z</time></trkpt><trkpt lat="42.4076873366756" lon="13.306229588294547"><ele>678.0</ele><time>2026-04-19T10:05:26Z</time></trkpt><trkpt lat="42.407756763744544" lon="13.306244915671467"><ele>678.0</ele><time>2026-04-19T10:05:27Z</time></trkpt><trkpt lat="42.40783415752096" lon="13.306261168120834"><ele>678.0</ele><time>2026-04-19T10:05:28Z</time></trkpt><trkpt lat="42.407916663580004" lon="13.30627527626822"><ele>678.0</ele><time>2026-04-19T10:05:29Z</time></trkpt><trkpt lat="42.408003866345645" lon="13.306288319890253"><ele>678.0</ele><time>2026-04-19T10:05:30Z</time></trkpt><trkpt lat="42.40809413363816" lon="13.306306201912593"><ele>678.0</ele><time>2026-04-19T10:05:31Z</time></trkpt><trkpt lat="42.40819017370167" lon="13.306332534791201"><ele>678.0</ele><time>2026-04-19T10:05:32Z</time></trkpt><trkpt lat="42.40827682181638" lon="13.306354783420668"><ele>678.0</ele><time>2026-04-19T10:05:33Z</time></trkpt><trkpt lat="42.40834840974475" lon="13.306381593668572"><ele>677.8333333333334</ele><time>2026-04-19T10:05:34Z</time></trkpt><trkpt lat="42.4084095583224" lon="13.3064064182029"><ele>677.6666666666666</ele><time>2026-04-19T10:05:35Z</time></trkpt><trkpt lat="42.40847603135248" lon="13.306432897123525"><ele>677.5</ele><time>2026-04-19T10:05:36Z</time></trkpt><trkpt lat="42.40858157932704" lon="13.306471123080465"><ele>677.3333333333333</ele><time>2026-04-19T10:05:38Z</time></trkpt><trkpt lat="42.40867272354774" lon="13.306532028325616"><ele>677.1666666666666</ele><time>2026-04-19T10:05:40Z</time></trkpt><trkpt lat="42.40874304008101" lon="13.306573258366097"><ele>677.0</ele><time>2026-04-19T10:05:42Z</time></trkpt><trkpt lat="42.40879961243732" lon="13.306611532595005"><ele>679.0</ele><time>2026-04-19T10:05:44Z</time></trkpt><trkpt lat="42.408873109847214" lon="13.306662778446483"><ele>681.0</ele><time>2026-04-19T10:05:47Z</time></trkpt><trkpt lat="42.408969380350854" lon="13.30655382396378"><ele>683.0</ele><time>2026-04-19T10:05:50Z</time></trkpt><trkpt lat="42.409036465432166" lon="13.306479419402836"><ele>685.0</ele><time>2026-04-19T10:05:52Z</time></trkpt><trkpt lat="42.40913232343669" lon="13.306430865104804"><ele>687.0</ele><time>2026-04-19T10:05:54Z</time></trkpt><trkpt lat="42.40926488923791" lon="13.306429586959364"><ele>685.5</ele><time>2026-04-19T10:05:56Z</time></trkpt><trkpt lat="42.40937172609334" lon="13.306405730996607"><ele>684.0</ele><time>2026-04-19T10:05:57Z</time></trkpt><trkpt lat="42.40951710636716" lon="13.306371830965176"><ele>682.5</ele><time>2026-04-19T10:05:58Z</time></trkpt><trkpt lat="42.40969503764371" lon="13.30630905322949"><ele>681.0</ele><time>2026-04-19T10:05:59Z</time></trkpt><trkpt lat="42.409884684898316" lon="13.306270293926776"><ele>681.0</ele><time>2026-04-19T10:06:00Z</time></trkpt><trkpt lat="42.41009946312993" lon="13.306228084198153"><ele>681.0</ele><time>2026-04-19T10:06:01Z</time></trkpt><trkpt lat="42.41034773888333" lon="13.30617820690078"><ele>682.5</ele><time>2026-04-19T10:06:02Z</time></trkpt><trkpt lat="42.41061286073477" lon="13.306139098079422"><ele>684.0</ele><time>2026-04-19T10:06:03Z</time></trkpt><trkpt lat="42.41087562000875" lon="13.30610837560072"><ele>684.0</ele><time>2026-04-19T10:06:04Z</time></trkpt><trkpt lat="42.41113249370181" lon="13.306081257551211"><ele>684.0</ele><time>2026-04-19T10:06:05Z</time></trkpt><trkpt lat="42.41137960263576" lon="13.306045729628682"><ele>685.0</ele><time>2026-04-19T10:06:06Z</time></trkpt><trkpt lat="42.41163758721764" lon="13.305982839183612"><ele>686.0</ele><time>2026-04-19T10:06:07Z</time></trkpt><trkpt lat="42.41189768818268" lon="13.305892856605295"><ele>686.0</ele><time>2026-04-19T10:06:08Z</time></trkpt><trkpt lat="42.41215111986929" lon="13.305792923018682"><ele>686.0</ele><time>2026-04-19T10:06:09Z</time></trkpt><trkpt lat="42.41241260694043" lon="13.305691181899471"><ele>685.0</ele><time>2026-04-19T10:06:10Z</time></trkpt><trkpt lat="42.41267207328684" lon="13.305587025752143"><ele>684.0</ele><time>2026-04-19T10:06:11Z</time></trkpt><trkpt lat="42.41291722524045" lon="13.305487814173809"><ele>685.5</ele><time>2026-04-19T10:06:12Z</time></trkpt><trkpt lat="42.41315501070821" lon="13.305391072633029"><ele>687.0</ele><time>2026-04-19T10:06:13Z</time></trkpt><trkpt lat="42.41339277789698" lon="13.305298748971788"><ele>687.0</ele><time>2026-04-19T10:06:14Z</time></trkpt><trkpt lat="42.413635815020484" lon="13.305231581502927"><ele>687.0</ele><time>2026-04-19T10:06:15Z</time></trkpt><trkpt lat="42.41387873296258" lon="13.305122966711346"><ele>688.0</ele><time>2026-04-19T10:06:16Z</time></trkpt><trkpt lat="42.41413362441264" lon="13.305037774054188"><ele>689.0</ele><time>2026-04-19T10:06:17Z</time></trkpt><trkpt lat="42.41438291571211" lon="13.30494006880019"><ele>689.0</ele><time>2026-04-19T10:06:18Z</time></trkpt><trkpt lat="42.4146160103206" lon="13.304827691725338"><ele>689.0</ele><time>2026-04-19T10:06:19Z</time></trkpt><trkpt lat="42.414830069154235" lon="13.30471026829067"><ele>689.0</ele><time>2026-04-19T10:06:20Z</time></trkpt><trkpt lat="42.41502282704618" lon="13.304597751634955"><ele>689.0</ele><time>2026-04-19T10:06:21Z</time></trkpt><trkpt lat="42.41519183611637" lon="13.304493907015374"><ele>689.0</ele><time>2026-04-19T10:06:22Z</time></trkpt><trkpt lat="42.415355269637566" lon="13.304389830381"><ele>691.6666666666666</ele><time>2026-04-19T10:06:23Z</time></trkpt><trkpt lat="42.415503444354925" lon="13.304292376428537"><ele>694.3333333333334</ele><time>2026-04-19T10:06:24Z</time></trkpt><trkpt lat="42.41564336783227" lon="13.304186233361062"><ele>697.0</ele><time>2026-04-19T10:06:25Z</time></trkpt><trkpt lat="42.415782880150644" lon="13.304076870402618"><ele>697.0</ele><time>2026-04-19T10:06:26Z</time></trkpt><trkpt lat="42.415917294323954" lon="13.303961301078061"><ele>697.0</ele><time>2026-04-19T10:06:27Z</time></trkpt><trkpt lat="42.41606483610298" lon="13.303829548068686"><ele>697.0</ele><time>2026-04-19T10:06:28Z</time></trkpt><trkpt lat="42.416226518861315" lon="13.30367752287062"><ele>696.0</ele><time>2026-04-19T10:06:29Z</time></trkpt><trkpt lat="42.41640801696248" lon="13.303518639018806"><ele>695.0</ele><time>2026-04-19T10:06:30Z</time></trkpt><trkpt lat="42.41660210953858" lon="13.30333509705278"><ele>695.0</ele><time>2026-04-19T10:06:31Z</time></trkpt><trkpt lat="42.41681124937117" lon="13.303139997159345"><ele>695.0</ele><time>2026-04-19T10:06:32Z</time></trkpt><trkpt lat="42.4170299299361" lon="13.302926795228604"><ele>691.5</ele><time>2026-04-19T10:06:33Z</time></trkpt><trkpt lat="42.417262322087424" lon="13.302727973994386"><ele>688.0</ele><time>2026-04-19T10:06:34Z</time></trkpt><trkpt lat="42.417485330543705" lon="13.302496554096368"><ele>688.0</ele><time>2026-04-19T10:06:35Z</time></trkpt><trkpt lat="42.41772477332964" lon="13.302292942783344"><ele>688.0</ele><time>2026-04-19T10:06:36Z</time></trkpt><trkpt lat="42.41797375776615" lon="13.302104239251765"><ele>687.5</ele><time>2026-04-19T10:06:37Z</time></trkpt><trkpt lat="42.41823650201697" lon="13.301923319072438"><ele>687.0</ele><time>2026-04-19T10:06:38Z</time></trkpt><trkpt lat="42.418511506703034" lon="13.301761341048538"><ele>687.0</ele><time>2026-04-19T10:06:39Z</time></trkpt><trkpt lat="42.41878355217798" lon="13.301612105012122"><ele>687.0</ele><time>2026-04-19T10:06:40Z</time></trkpt><trkpt lat="42.41905537832364" lon="13.301464053176504"><ele>687.0</ele><time>2026-04-19T10:06:41Z</time></trkpt><trkpt lat="42.41932429744792" lon="13.301319499790582"><ele>687.0</ele><time>2026-04-19T10:06:42Z</time></trkpt><trkpt lat="42.419592699548765" lon="13.301174520092404"><ele>687.5</ele><time>2026-04-19T10:06:43Z</time></trkpt><trkpt lat="42.419850754069174" lon="13.301033048204363"><ele>688.0</ele><time>2026-04-19T10:06:44Z</time></trkpt><trkpt lat="42.420101077202474" lon="13.300893306459958"><ele>688.0</ele><time>2026-04-19T10:06:45Z</time></trkpt><trkpt lat="42.42035537572708" lon="13.30075697566041"><ele>688.0</ele><time>2026-04-19T10:06:46Z</time></trkpt><trkpt lat="42.42059963715881" lon="13.300620459062982"><ele>688.0</ele><time>2026-04-19T10:06:47Z</time></trkpt><trkpt lat="42.42084641705875" lon="13.300511044768013"><ele>688.0</ele><time>2026-04-19T10:06:48Z</time></trkpt><trkpt lat="42.42108537731654" lon="13.30038032890629"><ele>688.0</ele><time>2026-04-19T10:06:49Z</time></trkpt><trkpt lat="42.4213126886839" lon="13.300230881659784"><ele>688.0</ele><time>2026-04-19T10:06:50Z</time></trkpt><trkpt lat="42.42153632611" lon="13.300109861812091"><ele>689.5</ele><time>2026-04-19T10:06:51Z</time></trkpt><trkpt lat="42.421755883331066" lon="13.299999421811977"><ele>691.0</ele><time>2026-04-19T10:06:52Z</time></trkpt><trkpt lat="42.421969209672916" lon="13.299906026060016"><ele>691.0</ele><time>2026-04-19T10:06:53Z</time></trkpt><trkpt lat="42.4221940405066" lon="13.299830718731803"><ele>691.0</ele><time>2026-04-19T10:06:54Z</time></trkpt><trkpt lat="42.422423838852346" lon="13.299780991330644"><ele>689.5</ele><time>2026-04-19T10:06:55Z</time></trkpt><trkpt lat="42.422650443586804" lon="13.299746741672433"><ele>688.0</ele><time>2026-04-19T10:06:56Z</time></trkpt><trkpt lat="42.422871424505054" lon="13.299723049657551"><ele>689.0</ele><time>2026-04-19T10:06:57Z</time></trkpt><trkpt lat="42.423076101354326" lon="13.299702398744003"><ele>690.0</ele><time>2026-04-19T10:06:58Z</time></trkpt><trkpt lat="42.42326757870695" lon="13.299677982186541"><ele>691.0</ele><time>2026-04-19T10:06:59Z</time></trkpt><trkpt lat="42.4234455237374" lon="13.299642345845863"><ele>691.0</ele><time>2026-04-19T10:07:00Z</time></trkpt><trkpt lat="42.42361180128904" lon="13.299602088327928"><ele>691.0</ele><time>2026-04-19T10:07:01Z</time></trkpt><trkpt lat="42.42377161436371" lon="13.299553004764256"><ele>691.0</ele><time>2026-04-19T10:07:02Z</time></trkpt><trkpt lat="42.42392233193936" lon="13.299525763188242"><ele>690.6666666666667</ele><time>2026-04-19T10:07:03Z</time></trkpt><trkpt lat="42.42409944751946" lon="13.29951793556232"><ele>690.3333333333334</ele><time>2026-04-19T10:07:04Z</time></trkpt><trkpt lat="42.42428991494838" lon="13.29949930896315"><ele>690.0</ele><time>2026-04-19T10:07:05Z</time></trkpt><trkpt lat="42.42448669710176" lon="13.299490434455244"><ele>691.0</ele><time>2026-04-19T10:07:06Z</time></trkpt><trkpt lat="42.42468329697555" lon="13.299495234634927"><ele>692.0</ele><time>2026-04-19T10:07:07Z</time></trkpt><trkpt lat="42.42487842785239" lon="13.29948873110012"><ele>693.0</ele><time>2026-04-19T10:07:08Z</time></trkpt><trkpt lat="42.425089293017805" lon="13.299456158473909"><ele>693.0</ele><time>2026-04-19T10:07:09Z</time></trkpt><trkpt lat="42.42531462140139" lon="13.299412338033338"><ele>693.0</ele><time>2026-04-19T10:07:10Z</time></trkpt><trkpt lat="42.42555917018066" lon="13.299381245273123"><ele>694.0</ele><time>2026-04-19T10:07:11Z</time></trkpt><trkpt lat="42.425821526044075" lon="13.299372438360622"><ele>695.0</ele><time>2026-04-19T10:07:12Z</time></trkpt><trkpt lat="42.42609698512705" lon="13.29935706452813"><ele>696.5</ele><time>2026-04-19T10:07:13Z</time></trkpt><trkpt lat="42.42637089305009" lon="13.299312680460174"><ele>698.0</ele><time>2026-04-19T10:07:14Z</time></trkpt><trkpt lat="42.426636565576516" lon="13.299243456973453"><ele>698.0</ele><time>2026-04-19T10:07:15Z</time></trkpt><trkpt lat="42.42688180963521" lon="13.299161524994837"><ele>698.0</ele><time>2026-04-19T10:07:16Z</time></trkpt><trkpt lat="42.427128483324324" lon="13.299061535927208"><ele>699.0</ele><time>2026-04-19T10:07:17Z</time></trkpt><trkpt lat="42.42737821408974" lon="13.29894715825028"><ele>700.0</ele><time>2026-04-19T10:07:18Z</time></trkpt><trkpt lat="42.427630034966924" lon="13.298822227010852"><ele>700.0</ele><time>2026-04-19T10:07:19Z</time></trkpt><trkpt lat="42.427883978130424" lon="13.298697598700272"><ele>700.0</ele><time>2026-04-19T10:07:20Z</time></trkpt><trkpt lat="42.428130785851145" lon="13.298576414490775"><ele>701.0</ele><time>2026-04-19T10:07:21Z</time></trkpt><trkpt lat="42.4283668131441" lon="13.29845570489828"><ele>702.0</ele><time>2026-04-19T10:07:22Z</time></trkpt><trkpt lat="42.428611864851135" lon="13.298332866169083"><ele>702.0</ele><time>2026-04-19T10:07:23Z</time></trkpt><trkpt lat="42.42886242520856" lon="13.298215455280948"><ele>702.0</ele><time>2026-04-19T10:07:24Z</time></trkpt><trkpt lat="42.4291172199332" lon="13.298101528253355"><ele>701.0</ele><time>2026-04-19T10:07:25Z</time></trkpt><trkpt lat="42.42937346366396" lon="13.297983307702722"><ele>700.0</ele><time>2026-04-19T10:07:26Z</time></trkpt><trkpt lat="42.429630691874884" lon="13.297865042936053"><ele>700.5</ele><time>2026-04-19T10:07:27Z</time></trkpt><trkpt lat="42.4298932473642" lon="13.29774477849768"><ele>701.0</ele><time>2026-04-19T10:07:28Z</time></trkpt><trkpt lat="42.430167182698426" lon="13.297621286038202"><ele>701.0</ele><time>2026-04-19T10:07:29Z</time></trkpt><trkpt lat="42.43044403490512" lon="13.297492897662183"><ele>701.0</ele><time>2026-04-19T10:07:30Z</time></trkpt><trkpt lat="42.43072828183844" lon="13.29736173681478"><ele>701.5</ele><time>2026-04-19T10:07:31Z</time></trkpt><trkpt lat="42.43101720503521" lon="13.29722630430518"><ele>702.0</ele><time>2026-04-19T10:07:32Z</time></trkpt><trkpt lat="42.431293943423746" lon="13.29709364959703"><ele>702.0</ele><time>2026-04-19T10:07:33Z</time></trkpt><trkpt lat="42.43155953142756" lon="13.296968171182156"><ele>702.0</ele><time>2026-04-19T10:07:34Z</time></trkpt><trkpt lat="42.43181987545762" lon="13.296846898032276"><ele>702.0</ele><time>2026-04-19T10:07:35Z</time></trkpt><trkpt lat="42.432074382683126" lon="13.296729258403946"><ele>702.0</ele><time>2026-04-19T10:07:36Z</time></trkpt><trkpt lat="42.43232236943969" lon="13.296602081903671"><ele>701.5</ele><time>2026-04-19T10:07:37Z</time></trkpt><trkpt lat="42.43256129545913" lon="13.296449501449073"><ele>701.0</ele><time>2026-04-19T10:07:38Z</time></trkpt><trkpt lat="42.43278435237978" lon="13.296260389544466"><ele>703.5</ele><time>2026-04-19T10:07:39Z</time></trkpt><trkpt lat="42.43299673742877" lon="13.296032833846617"><ele>706.0</ele><time>2026-04-19T10:07:40Z</time></trkpt><trkpt lat="42.4331950654821" lon="13.295768712580898"><ele>705.5</ele><time>2026-04-19T10:07:41Z</time></trkpt><trkpt lat="42.433372119824256" lon="13.295482880659723"><ele>705.0</ele><time>2026-04-19T10:07:42Z</time></trkpt><trkpt lat="42.43353264989846" lon="13.295176958352897"><ele>705.0</ele><time>2026-04-19T10:07:43Z</time></trkpt><trkpt lat="42.43367883132452" lon="13.294850456629302"><ele>705.0</ele><time>2026-04-19T10:07:44Z</time></trkpt><trkpt lat="42.433807414984216" lon="13.29450208029634"><ele>708.5</ele><time>2026-04-19T10:07:45Z</time></trkpt><trkpt lat="42.43392086009807" lon="13.294138897730994"><ele>712.0</ele><time>2026-04-19T10:07:46Z</time></trkpt><trkpt lat="42.43402744812912" lon="13.293775346048088"><ele>712.0</ele><time>2026-04-19T10:07:47Z</time></trkpt><trkpt lat="42.43413987846365" lon="13.293417292061733"><ele>712.0</ele><time>2026-04-19T10:07:48Z</time></trkpt><trkpt lat="42.43425783985464" lon="13.29305383848309"><ele>711.0</ele><time>2026-04-19T10:07:49Z</time></trkpt><trkpt lat="42.43437513762349" lon="13.292688469089768"><ele>710.0</ele><time>2026-04-19T10:07:50Z</time></trkpt><trkpt lat="42.43449311663777" lon="13.29232145458521"><ele>708.5</ele><time>2026-04-19T10:07:51Z</time></trkpt><trkpt lat="42.434611004995276" lon="13.291949285798344"><ele>707.0</ele><time>2026-04-19T10:07:52Z</time></trkpt><trkpt lat="42.434720969511126" lon="13.291597728526853"><ele>709.5</ele><time>2026-04-19T10:07:53Z</time></trkpt><trkpt lat="42.43482494296849" lon="13.29126588324255"><ele>712.0</ele><time>2026-04-19T10:07:54Z</time></trkpt><trkpt lat="42.43493219920558" lon="13.290926960520151"><ele>711.0</ele><time>2026-04-19T10:07:55Z</time></trkpt><trkpt lat="42.43504009433187" lon="13.290588879165774"><ele>710.0</ele><time>2026-04-19T10:07:56Z</time></trkpt><trkpt lat="42.435147477570496" lon="13.290257476770403"><ele>710.0</ele><time>2026-04-19T10:07:57Z</time></trkpt><trkpt lat="42.43525773070119" lon="13.289916646119812"><ele>710.0</ele><time>2026-04-19T10:07:58Z</time></trkpt><trkpt lat="42.43536399558973" lon="13.28958365999391"><ele>710.5</ele><time>2026-04-19T10:07:59Z</time></trkpt><trkpt lat="42.435466611940754" lon="13.28926077625447"><ele>711.0</ele><time>2026-04-19T10:08:00Z</time></trkpt><trkpt lat="42.43556603150784" lon="13.288962581313497"><ele>711.5</ele><time>2026-04-19T10:08:01Z</time></trkpt><trkpt lat="42.435669204424904" lon="13.288683472509156"><ele>712.0</ele><time>2026-04-19T10:08:02Z</time></trkpt><trkpt lat="42.43578104297079" lon="13.288419752517369"><ele>712.0</ele><time>2026-04-19T10:08:03Z</time></trkpt><trkpt lat="42.43590308244305" lon="13.288167870325895"><ele>712.0</ele><time>2026-04-19T10:08:04Z</time></trkpt><trkpt lat="42.43603406326423" lon="13.287926546959234"><ele>712.0</ele><time>2026-04-19T10:08:05Z</time></trkpt><trkpt lat="42.43617827681356" lon="13.287691644258244"><ele>712.0</ele><time>2026-04-19T10:08:06Z</time></trkpt><trkpt lat="42.4363414565742" lon="13.287453658607664"><ele>712.0</ele><time>2026-04-19T10:08:07Z</time></trkpt><trkpt lat="42.436525060774805" lon="13.287206891642194"><ele>709.5</ele><time>2026-04-19T10:08:08Z</time></trkpt><trkpt lat="42.436721833063125" lon="13.286953759324128"><ele>707.0</ele><time>2026-04-19T10:08:09Z</time></trkpt><trkpt lat="42.436931936407845" lon="13.286684691805739"><ele>707.5</ele><time>2026-04-19T10:08:10Z</time></trkpt><trkpt lat="42.43714849950809" lon="13.286402937712715"><ele>708.0</ele><time>2026-04-19T10:08:11Z</time></trkpt><trkpt lat="42.437373758890296" lon="13.286106314250068"><ele>708.0</ele><time>2026-04-19T10:08:12Z</time></trkpt><trkpt lat="42.4376222514938" lon="13.285815892182136"><ele>708.0</ele><time>2026-04-19T10:08:13Z</time></trkpt><trkpt lat="42.43785480022608" lon="13.285504532274357"><ele>710.0</ele><time>2026-04-19T10:08:14Z</time></trkpt><trkpt lat="42.43806926159477" lon="13.28518545023146"><ele>712.0</ele><time>2026-04-19T10:08:15Z</time></trkpt><trkpt lat="42.43829978798439" lon="13.284908162690119"><ele>710.5</ele><time>2026-04-19T10:08:16Z</time></trkpt><trkpt lat="42.43851660480118" lon="13.284618348411957"><ele>709.0</ele><time>2026-04-19T10:08:17Z</time></trkpt><trkpt lat="42.43872794128971" lon="13.284335859573197"><ele>709.0</ele><time>2026-04-19T10:08:18Z</time></trkpt><trkpt lat="42.43893537775031" lon="13.284058583812586"><ele>709.0</ele><time>2026-04-19T10:08:19Z</time></trkpt><trkpt lat="42.439135538276105" lon="13.28376279315933"><ele>709.0</ele><time>2026-04-19T10:08:20Z</time></trkpt><trkpt lat="42.439350102842475" lon="13.283479897548576"><ele>709.0</ele><time>2026-04-19T10:08:21Z</time></trkpt><trkpt lat="42.43956518322431" lon="13.283192330470042"><ele>709.0</ele><time>2026-04-19T10:08:22Z</time></trkpt><trkpt lat="42.439784583142234" lon="13.282897131774481"><ele>709.0</ele><time>2026-04-19T10:08:23Z</time></trkpt><trkpt lat="42.44000402045818" lon="13.282601696922763"><ele>709.0</ele><time>2026-04-19T10:08:24Z</time></trkpt><trkpt lat="42.440247796788995" lon="13.282307536561301"><ele>709.0</ele><time>2026-04-19T10:08:25Z</time></trkpt><trkpt lat="42.440479731857984" lon="13.28199579967749"><ele>709.5</ele><time>2026-04-19T10:08:26Z</time></trkpt><trkpt lat="42.44069952113836" lon="13.281673607213879"><ele>710.0</ele><time>2026-04-19T10:08:27Z</time></trkpt><trkpt lat="42.44093191047311" lon="13.281367741120418"><ele>710.0</ele><time>2026-04-19T10:08:28Z</time></trkpt><trkpt lat="42.441165653335794" lon="13.281059333063482"><ele>710.0</ele><time>2026-04-19T10:08:29Z</time></trkpt><trkpt lat="42.441403928762796" lon="13.280743159997138"><ele>710.0</ele><time>2026-04-19T10:08:30Z</time></trkpt><trkpt lat="42.44163582163623" lon="13.280438722244211"><ele>710.0</ele><time>2026-04-19T10:08:31Z</time></trkpt><trkpt lat="42.44187511269458" lon="13.280122821911784"><ele>710.0</ele><time>2026-04-19T10:08:32Z</time></trkpt><trkpt lat="42.44211866265729" lon="13.279803011325342"><ele>710.0</ele><time>2026-04-19T10:08:33Z</time></trkpt><trkpt lat="42.44236572639577" lon="13.279480441607657"><ele>711.5</ele><time>2026-04-19T10:08:34Z</time></trkpt><trkpt lat="42.442618092560764" lon="13.27915655225233"><ele>713.0</ele><time>2026-04-19T10:08:35Z</time></trkpt><trkpt lat="42.44287583635523" lon="13.27883005015889"><ele>715.5</ele><time>2026-04-19T10:08:36Z</time></trkpt><trkpt lat="42.44312245756535" lon="13.278520186973243"><ele>718.0</ele><time>2026-04-19T10:08:37Z</time></trkpt><trkpt lat="42.44337419551413" lon="13.278213088520891"><ele>718.0</ele><time>2026-04-19T10:08:38Z</time></trkpt><trkpt lat="42.44362740496446" lon="13.277907700327717"><ele>718.0</ele><time>2026-04-19T10:08:39Z</time></trkpt><trkpt lat="42.4438789693385" lon="13.277601651496166"><ele>718.0</ele><time>2026-04-19T10:08:40Z</time></trkpt><trkpt lat="42.44412442597158" lon="13.277304163876064"><ele>718.0</ele><time>2026-04-19T10:08:41Z</time></trkpt><trkpt lat="42.4443571142648" lon="13.27701652033546"><ele>718.5</ele><time>2026-04-19T10:08:42Z</time></trkpt><trkpt lat="42.444569836718216" lon="13.276746255708002"><ele>719.0</ele><time>2026-04-19T10:08:43Z</time></trkpt><trkpt lat="42.44478000788042" lon="13.276465474295357"><ele>716.0</ele><time>2026-04-19T10:08:44Z</time></trkpt><trkpt lat="42.44496154439695" lon="13.276178852725565"><ele>713.0</ele><time>2026-04-19T10:08:45Z</time></trkpt><trkpt lat="42.44512638567664" lon="13.275871944007731"><ele>713.0</ele><time>2026-04-19T10:08:46Z</time></trkpt><trkpt lat="42.445261491862475" lon="13.275538581217004"><ele>713.0</ele><time>2026-04-19T10:08:47Z</time></trkpt><trkpt lat="42.445352924654834" lon="13.275177492740537"><ele>713.0</ele><time>2026-04-19T10:08:48Z</time></trkpt><trkpt lat="42.4454374481613" lon="13.274800474946941"><ele>713.0</ele><time>2026-04-19T10:08:49Z</time></trkpt><trkpt lat="42.44550534571831" lon="13.274390926171817"><ele>713.0</ele><time>2026-04-19T10:08:50Z</time></trkpt><trkpt lat="42.44553751930015" lon="13.27397553164619"><ele>713.0</ele><time>2026-04-19T10:08:51Z</time></trkpt><trkpt lat="42.445588903733174" lon="13.273584871278093"><ele>715.0</ele><time>2026-04-19T10:08:52Z</time></trkpt><trkpt lat="42.4454310500116" lon="13.273236335136481"><ele>717.0</ele><time>2026-04-19T10:08:53Z</time></trkpt><trkpt lat="42.445609374966004" lon="13.27287853387876"><ele>716.5</ele><time>2026-04-19T10:08:54Z</time></trkpt><trkpt lat="42.44565443577484" lon="13.272537145048592"><ele>716.0</ele><time>2026-04-19T10:08:55Z</time></trkpt><trkpt lat="42.44572587487231" lon="13.27218610246659"><ele>716.0</ele><time>2026-04-19T10:08:56Z</time></trkpt><trkpt lat="42.4458180833448" lon="13.271854499015708"><ele>716.0</ele><time>2026-04-19T10:08:57Z</time></trkpt><trkpt lat="42.445939950626595" lon="13.271536585092754"><ele>718.5</ele><time>2026-04-19T10:08:58Z</time></trkpt><trkpt lat="42.44609490997024" lon="13.27122326915882"><ele>721.0</ele><time>2026-04-19T10:08:59Z</time></trkpt><trkpt lat="42.44627400786353" lon="13.270924495753698"><ele>720.0</ele><time>2026-04-19T10:09:00Z</time></trkpt><trkpt lat="42.44648089560747" lon="13.270643274942698"><ele>719.0</ele><time>2026-04-19T10:09:01Z</time></trkpt><trkpt lat="42.44671816799873" lon="13.270371769021514"><ele>721.5</ele><time>2026-04-19T10:09:02Z</time></trkpt><trkpt lat="42.44697857849997" lon="13.270119513109194"><ele>724.0</ele><time>2026-04-19T10:09:03Z</time></trkpt><trkpt lat="42.447244149659326" lon="13.269869508500577"><ele>732.5</ele><time>2026-04-19T10:09:04Z</time></trkpt><trkpt lat="42.44749275299487" lon="13.269629857610063"><ele>741.0</ele><time>2026-04-19T10:09:05Z</time></trkpt><trkpt lat="42.44772173973845" lon="13.26940860307806"><ele>741.0</ele><time>2026-04-19T10:09:06Z</time></trkpt><trkpt lat="42.44794444267063" lon="13.269201129200482"><ele>741.0</ele><time>2026-04-19T10:09:07Z</time></trkpt><trkpt lat="42.44818907713832" lon="13.269015575011496"><ele>739.5</ele><time>2026-04-19T10:09:08Z</time></trkpt><trkpt lat="42.44845242866532" lon="13.268850970931794"><ele>738.0</ele><time>2026-04-19T10:09:09Z</time></trkpt><trkpt lat="42.44872323006683" lon="13.268705614080028"><ele>731.5</ele><time>2026-04-19T10:09:10Z</time></trkpt><trkpt lat="42.448993724135484" lon="13.26858478789855"><ele>725.0</ele><time>2026-04-19T10:09:11Z</time></trkpt><trkpt lat="42.44926944692516" lon="13.268501016386875"><ele>725.0</ele><time>2026-04-19T10:09:12Z</time></trkpt><trkpt lat="42.449559870379716" lon="13.268451948406613"><ele>725.0</ele><time>2026-04-19T10:09:13Z</time></trkpt><trkpt lat="42.44986317824295" lon="13.268433776367528"><ele>724.0</ele><time>2026-04-19T10:09:14Z</time></trkpt><trkpt lat="42.45017096327968" lon="13.268443018979493"><ele>723.0</ele><time>2026-04-19T10:09:15Z</time></trkpt><trkpt lat="42.45047603183898" lon="13.268476090395856"><ele>722.5</ele><time>2026-04-19T10:09:16Z</time></trkpt><trkpt lat="42.4507869952375" lon="13.268544281085958"><ele>722.0</ele><time>2026-04-19T10:09:17Z</time></trkpt><trkpt lat="42.451124863969405" lon="13.268652922422872"><ele>722.0</ele><time>2026-04-19T10:09:18Z</time></trkpt><trkpt lat="42.451444846190135" lon="13.268772207628045"><ele>722.0</ele><time>2026-04-19T10:09:19Z</time></trkpt><trkpt lat="42.45177483747747" lon="13.268886123960158"><ele>722.0</ele><time>2026-04-19T10:09:20Z</time></trkpt><trkpt lat="42.452089900019736" lon="13.268976677771647"><ele>722.0</ele><time>2026-04-19T10:09:21Z</time></trkpt><trkpt lat="42.452388770133865" lon="13.269048439407078"><ele>723.5</ele><time>2026-04-19T10:09:22Z</time></trkpt><trkpt lat="42.4526693661833" lon="13.269097145522183"><ele>725.0</ele><time>2026-04-19T10:09:23Z</time></trkpt><trkpt lat="42.452947372705985" lon="13.269113221202716"><ele>727.0</ele><time>2026-04-19T10:09:24Z</time></trkpt><trkpt lat="42.45322727690382" lon="13.269107905268344"><ele>729.0</ele><time>2026-04-19T10:09:25Z</time></trkpt><trkpt lat="42.45350464626566" lon="13.26906801816806"><ele>729.0</ele><time>2026-04-19T10:09:26Z</time></trkpt><trkpt lat="42.453782406645345" lon="13.269025691604009"><ele>729.0</ele><time>2026-04-19T10:09:27Z</time></trkpt><trkpt lat="42.454064860827316" lon="13.268957814323288"><ele>729.5</ele><time>2026-04-19T10:09:28Z</time></trkpt><trkpt lat="42.454344996013624" lon="13.268854973426615"><ele>730.0</ele><time>2026-04-19T10:09:29Z</time></trkpt><trkpt lat="42.454609546344" lon="13.268731243682083"><ele>736.0</ele><time>2026-04-19T10:09:30Z</time></trkpt><trkpt lat="42.454875067426656" lon="13.268585183665857"><ele>742.0</ele><time>2026-04-19T10:09:31Z</time></trkpt><trkpt lat="42.45513200959405" lon="13.268418311362781"><ele>742.0</ele><time>2026-04-19T10:09:32Z</time></trkpt><trkpt lat="42.45538180232123" lon="13.268224347701338"><ele>742.0</ele><time>2026-04-19T10:09:33Z</time></trkpt><trkpt lat="42.45563194461605" lon="13.268002595949818"><ele>740.0</ele><time>2026-04-19T10:09:34Z</time></trkpt><trkpt lat="42.45588767913519" lon="13.267766009951421"><ele>738.0</ele><time>2026-04-19T10:09:35Z</time></trkpt><trkpt lat="42.45615057556156" lon="13.267529116338203"><ele>742.0</ele><time>2026-04-19T10:09:36Z</time></trkpt><trkpt lat="42.456431169006024" lon="13.267301574410299"><ele>746.0</ele><time>2026-04-19T10:09:37Z</time></trkpt><trkpt lat="42.45671587397038" lon="13.267078636216983"><ele>746.0</ele><time>2026-04-19T10:09:38Z</time></trkpt><trkpt lat="42.45699687467329" lon="13.266842016119492"><ele>746.0</ele><time>2026-04-19T10:09:39Z</time></trkpt><trkpt lat="42.45727142469296" lon="13.266602999562666"><ele>749.0</ele><time>2026-04-19T10:09:40Z</time></trkpt><trkpt lat="42.45753268177489" lon="13.266367094014486"><ele>752.0</ele><time>2026-04-19T10:09:41Z</time></trkpt><trkpt lat="42.45777701324698" lon="13.266153622887712"><ele>758.5</ele><time>2026-04-19T10:09:42Z</time></trkpt><trkpt lat="42.45802283612117" lon="13.265944761212989"><ele>765.0</ele><time>2026-04-19T10:09:43Z</time></trkpt><trkpt lat="42.45827698006927" lon="13.26573067569888"><ele>759.5</ele><time>2026-04-19T10:09:44Z</time></trkpt><trkpt lat="42.458544236097595" lon="13.265521617010783"><ele>754.0</ele><time>2026-04-19T10:09:45Z</time></trkpt><trkpt lat="42.45883184713074" lon="13.265336734252022"><ele>754.0</ele><time>2026-04-19T10:09:46Z</time></trkpt><trkpt lat="42.45912715029027" lon="13.265185202967876"><ele>754.0</ele><time>2026-04-19T10:09:47Z</time></trkpt><trkpt lat="42.45941596347107" lon="13.265067830015898"><ele>757.5</ele><time>2026-04-19T10:09:48Z</time></trkpt><trkpt lat="42.45970151361934" lon="13.264955936665553"><ele>761.0</ele><time>2026-04-19T10:09:49Z</time></trkpt><trkpt lat="42.45998959165706" lon="13.26485247728389"><ele>755.0</ele><time>2026-04-19T10:09:50Z</time></trkpt><trkpt lat="42.460271510400084" lon="13.264754909333835"><ele>749.0</ele><time>2026-04-19T10:09:51Z</time></trkpt><trkpt lat="42.460551939748065" lon="13.264681560742277"><ele>749.0</ele><time>2026-04-19T10:09:52Z</time></trkpt><trkpt lat="42.46084556594804" lon="13.264633589704985"><ele>749.0</ele><time>2026-04-19T10:09:53Z</time></trkpt><trkpt lat="42.46114210384968" lon="13.26462227960858"><ele>747.0</ele><time>2026-04-19T10:09:54Z</time></trkpt><trkpt lat="42.461425339963746" lon="13.264652017239293"><ele>745.0</ele><time>2026-04-19T10:09:55Z</time></trkpt><trkpt lat="42.46172514747524" lon="13.26471782589722"><ele>754.0</ele><time>2026-04-19T10:09:56Z</time></trkpt><trkpt lat="42.4620254290348" lon="13.264792176577826"><ele>763.0</ele><time>2026-04-19T10:09:57Z</time></trkpt><trkpt lat="42.462302443925154" lon="13.264869120226459"><ele>763.5</ele><time>2026-04-19T10:09:58Z</time></trkpt><trkpt lat="42.46256150240317" lon="13.264939059129361"><ele>764.0</ele><time>2026-04-19T10:09:59Z</time></trkpt><trkpt lat="42.462797778867156" lon="13.265005842069899"><ele>762.3333333333333</ele><time>2026-04-19T10:10:00Z</time></trkpt><trkpt lat="42.46302111987979" lon="13.265066130312393"><ele>760.6666666666666</ele><time>2026-04-19T10:10:01Z</time></trkpt><trkpt lat="42.46321478744981" lon="13.265118000141452"><ele>759.0</ele><time>2026-04-19T10:10:02Z</time></trkpt><trkpt lat="42.463367787199154" lon="13.265159351946656"><ele>759.0</ele><time>2026-04-19T10:10:03Z</time></trkpt><trkpt lat="42.46349827028686" lon="13.265206521547727"><ele>759.0</ele><time>2026-04-19T10:10:04Z</time></trkpt><trkpt lat="42.46360327976967" lon="13.265271768999163"><ele>759.0</ele><time>2026-04-19T10:10:05Z</time></trkpt><trkpt lat="42.4636951286734" lon="13.265362526582164"><ele>759.0</ele><time>2026-04-19T10:10:06Z</time></trkpt><trkpt lat="42.46377131068597" lon="13.265422989329732"><ele>758.0</ele><time>2026-04-19T10:10:07Z</time></trkpt><trkpt lat="42.4638545765142" lon="13.265417419050742"><ele>757.0</ele><time>2026-04-19T10:10:08Z</time></trkpt><trkpt lat="42.46395405327439" lon="13.265360626037971"><ele>756.0</ele><time>2026-04-19T10:10:09Z</time></trkpt><trkpt lat="42.46411219621596" lon="13.265295960867045"><ele>755.0</ele><time>2026-04-19T10:10:10Z</time></trkpt><trkpt lat="42.46430768774857" lon="13.265332353155848"><ele>755.0</ele><time>2026-04-19T10:10:11Z</time></trkpt><trkpt lat="42.464528746261735" lon="13.265351008875106"><ele>755.0</ele><time>2026-04-19T10:10:12Z</time></trkpt><trkpt lat="42.4647486046116" lon="13.265466853700659"><ele>752.5</ele><time>2026-04-19T10:10:13Z</time></trkpt><trkpt lat="42.46499033202695" lon="13.265525947627989"><ele>750.0</ele><time>2026-04-19T10:10:14Z</time></trkpt><trkpt lat="42.46524707302081" lon="13.265546555259537"><ele>753.0</ele><time>2026-04-19T10:10:15Z</time></trkpt><trkpt lat="42.46552394770809" lon="13.265499425849994"><ele>756.0</ele><time>2026-04-19T10:10:16Z</time></trkpt><trkpt lat="42.465800230803865" lon="13.265383314739683"><ele>756.0</ele><time>2026-04-19T10:10:17Z</time></trkpt><trkpt lat="42.46607209030624" lon="13.265246956936844"><ele>756.0</ele><time>2026-04-19T10:10:18Z</time></trkpt><trkpt lat="42.46633519011448" lon="13.265118291008639"><ele>764.5</ele><time>2026-04-19T10:10:19Z</time></trkpt><trkpt lat="42.466591148971155" lon="13.265038340266083"><ele>773.0</ele><time>2026-04-19T10:10:20Z</time></trkpt><trkpt lat="42.46683203342753" lon="13.265002795293961"><ele>773.0</ele><time>2026-04-19T10:10:21Z</time></trkpt><trkpt lat="42.46707099737084" lon="13.265009758973633"><ele>773.0</ele><time>2026-04-19T10:10:22Z</time></trkpt><trkpt lat="42.4673406840023" lon="13.26504065842181"><ele>776.0</ele><time>2026-04-19T10:10:23Z</time></trkpt><trkpt lat="42.467629812794556" lon="13.265099974264771"><ele>779.0</ele><time>2026-04-19T10:10:24Z</time></trkpt><trkpt lat="42.467899815167094" lon="13.265187208102674"><ele>775.0</ele><time>2026-04-19T10:10:25Z</time></trkpt><trkpt lat="42.46816021874021" lon="13.265278115229377"><ele>771.0</ele><time>2026-04-19T10:10:26Z</time></trkpt><trkpt lat="42.4684267297629" lon="13.26530410108004"><ele>771.0</ele><time>2026-04-19T10:10:27Z</time></trkpt><trkpt lat="42.46865232515079" lon="13.26522485269178"><ele>771.0</ele><time>2026-04-19T10:10:28Z</time></trkpt><trkpt lat="42.46877790912543" lon="13.265169514949564"><ele>771.0</ele><time>2026-04-19T10:10:29Z</time></trkpt><trkpt lat="42.468928136267124" lon="13.265077151946276"><ele>766.0</ele><time>2026-04-19T10:10:30Z</time></trkpt><trkpt lat="42.469211147494065" lon="13.264651699060138"><ele>761.0</ele><time>2026-04-19T10:10:31Z</time></trkpt><trkpt lat="42.46941803577553" lon="13.264378932085354"><ele>761.0</ele><time>2026-04-19T10:10:32Z</time></trkpt><trkpt lat="42.46959829190584" lon="13.264078675101803"><ele>761.0</ele><time>2026-04-19T10:10:33Z</time></trkpt><trkpt lat="42.46981850041472" lon="13.263792015345047"><ele>761.0</ele><time>2026-04-19T10:10:34Z</time></trkpt><trkpt lat="42.470007577502976" lon="13.263534067691499"><ele>761.0</ele><time>2026-04-19T10:10:35Z</time></trkpt><trkpt lat="42.470205344535096" lon="13.263291273115946"><ele>759.5</ele><time>2026-04-19T10:10:36Z</time></trkpt><trkpt lat="42.470412035542324" lon="13.263100985854141"><ele>758.0</ele><time>2026-04-19T10:10:37Z</time></trkpt><trkpt lat="42.47064884821382" lon="13.262944915324672"><ele>758.0</ele><time>2026-04-19T10:10:38Z</time></trkpt><trkpt lat="42.47090027105003" lon="13.262845675731105"><ele>758.0</ele><time>2026-04-19T10:10:39.001Z</time></trkpt><trkpt lat="42.47116166502313" lon="13.262806600522401"><ele>760.0</ele><time>2026-04-19T10:10:40.001Z</time></trkpt><trkpt lat="42.47145115809768" lon="13.262764774591062"><ele>762.0</ele><time>2026-04-19T10:10:41.001Z</time></trkpt><trkpt lat="42.47175591537756" lon="13.262782425659932"><ele>762.0</ele><time>2026-04-19T10:10:42.001Z</time></trkpt><trkpt lat="42.47205410344142" lon="13.262765496395364"><ele>762.0</ele><time>2026-04-19T10:10:43.001Z</time></trkpt><trkpt lat="42.472344610388404" lon="13.262690696871475"><ele>766.5</ele><time>2026-04-19T10:10:44.001Z</time></trkpt><trkpt lat="42.47262023139199" lon="13.262568738627868"><ele>771.0</ele><time>2026-04-19T10:10:45.001Z</time></trkpt><trkpt lat="42.47289508233998" lon="13.26241105863911"><ele>768.0</ele><time>2026-04-19T10:10:46.001Z</time></trkpt><trkpt lat="42.47317857462695" lon="13.262194974950107"><ele>765.0</ele><time>2026-04-19T10:10:47.001Z</time></trkpt><trkpt lat="42.47347710049223" lon="13.262000839027767"><ele>770.5</ele><time>2026-04-19T10:10:48.001Z</time></trkpt><trkpt lat="42.473775365789635" lon="13.261811172299726"><ele>776.0</ele><time>2026-04-19T10:10:49.001Z</time></trkpt><trkpt lat="42.47407086075245" lon="13.261611227224915"><ele>776.0</ele><time>2026-04-19T10:10:50.001Z</time></trkpt><trkpt lat="42.47440068781885" lon="13.261454772638034"><ele>776.0</ele><time>2026-04-19T10:10:51.001Z</time></trkpt><trkpt lat="42.47468661726778" lon="13.261327389061833"><ele>772.5</ele><time>2026-04-19T10:10:52Z</time></trkpt><trkpt lat="42.474968292711814" lon="13.261189307495979"><ele>769.0</ele><time>2026-04-19T10:10:53Z</time></trkpt><trkpt lat="42.47524876544774" lon="13.261055294010013"><ele>779.0</ele><time>2026-04-19T10:10:54Z</time></trkpt><trkpt lat="42.47550387468576" lon="13.260894506967624"><ele>789.0</ele><time>2026-04-19T10:10:55Z</time></trkpt><trkpt lat="42.47573674963181" lon="13.260679553638443"><ele>782.5</ele><time>2026-04-19T10:10:56Z</time></trkpt><trkpt lat="42.4759292212466" lon="13.260412563737622"><ele>776.0</ele><time>2026-04-19T10:10:57Z</time></trkpt><trkpt lat="42.47609790839125" lon="13.260089779398509"><ele>772.5</ele><time>2026-04-19T10:10:58Z</time></trkpt><trkpt lat="42.47625758711735" lon="13.25973177954019"><ele>769.0</ele><time>2026-04-19T10:10:59Z</time></trkpt><trkpt lat="42.47641166634322" lon="13.25937372296999"><ele>773.0</ele><time>2026-04-19T10:11:00Z</time></trkpt><trkpt lat="42.47656836991286" lon="13.259062543241091"><ele>777.0</ele><time>2026-04-19T10:11:01Z</time></trkpt><trkpt lat="42.47671724256354" lon="13.258767115490532"><ele>777.0</ele><time>2026-04-19T10:11:02Z</time></trkpt><trkpt lat="42.47688406831644" lon="13.258368402064521"><ele>777.0</ele><time>2026-04-19T10:11:03Z</time></trkpt><trkpt lat="42.47698205812333" lon="13.258017724430578"><ele>774.0</ele><time>2026-04-19T10:11:04Z</time></trkpt><trkpt lat="42.47704735847837" lon="13.257594274454007"><ele>771.0</ele><time>2026-04-19T10:11:05Z</time></trkpt><trkpt lat="42.47711100358833" lon="13.257168163081486"><ele>776.0</ele><time>2026-04-19T10:11:06Z</time></trkpt><trkpt lat="42.47716612489333" lon="13.256764004876953"><ele>781.0</ele><time>2026-04-19T10:11:07Z</time></trkpt><trkpt lat="42.47724741067581" lon="13.256376850085363"><ele>781.0</ele><time>2026-04-19T10:11:08Z</time></trkpt><trkpt lat="42.47734651712961" lon="13.256022083657493"><ele>781.0</ele><time>2026-04-19T10:11:09Z</time></trkpt><trkpt lat="42.47747464764378" lon="13.255664342710531"><ele>774.5</ele><time>2026-04-19T10:11:10Z</time></trkpt><trkpt lat="42.477650696607" lon="13.255331350559873"><ele>768.0</ele><time>2026-04-19T10:11:11Z</time></trkpt><trkpt lat="42.47783812136793" lon="13.255028365995875"><ele>769.0</ele><time>2026-04-19T10:11:12Z</time></trkpt><trkpt lat="42.47804179058785" lon="13.254781084946686"><ele>770.0</ele><time>2026-04-19T10:11:13Z</time></trkpt><trkpt lat="42.478283335253444" lon="13.254602490583029"><ele>770.0</ele><time>2026-04-19T10:11:14Z</time></trkpt><trkpt lat="42.47855679269617" lon="13.254410147498092"><ele>770.0</ele><time>2026-04-19T10:11:15Z</time></trkpt><trkpt lat="42.478857092605146" lon="13.25424649672272"><ele>770.5</ele><time>2026-04-19T10:11:16Z</time></trkpt><trkpt lat="42.479139940448576" lon="13.254062485435167"><ele>771.0</ele><time>2026-04-19T10:11:17Z</time></trkpt><trkpt lat="42.47939673526027" lon="13.253842995589793"><ele>779.0</ele><time>2026-04-19T10:11:18Z</time></trkpt><trkpt lat="42.479628822529754" lon="13.253566740702134"><ele>787.0</ele><time>2026-04-19T10:11:19Z</time></trkpt><trkpt lat="42.479836411865605" lon="13.253228391355513"><ele>778.5</ele><time>2026-04-19T10:11:20Z</time></trkpt><trkpt lat="42.480037490912245" lon="13.25285576380597"><ele>770.0</ele><time>2026-04-19T10:11:21Z</time></trkpt><trkpt lat="42.48021838687174" lon="13.252508796162244"><ele>771.5</ele><time>2026-04-19T10:11:22Z</time></trkpt><trkpt lat="42.48038180581495" lon="13.25220718872961"><ele>773.0</ele><time>2026-04-19T10:11:23Z</time></trkpt><trkpt lat="42.48053587869058" lon="13.251910630235301"><ele>774.0</ele><time>2026-04-19T10:11:24Z</time></trkpt><trkpt lat="42.480671993995394" lon="13.251575208292696"><ele>775.0</ele><time>2026-04-19T10:11:25Z</time></trkpt><trkpt lat="42.480779202828344" lon="13.25119745979852"><ele>775.0</ele><time>2026-04-19T10:11:26Z</time></trkpt><trkpt lat="42.48084774191868" lon="13.250775201529574"><ele>775.0</ele><time>2026-04-19T10:11:27Z</time></trkpt><trkpt lat="42.48088004574609" lon="13.250331275722036"><ele>775.0</ele><time>2026-04-19T10:11:28Z</time></trkpt><trkpt lat="42.48089980451281" lon="13.249868798566073"><ele>775.0</ele><time>2026-04-19T10:11:29Z</time></trkpt><trkpt lat="42.48092495583526" lon="13.24940093935417"><ele>777.5</ele><time>2026-04-19T10:11:30Z</time></trkpt><trkpt lat="42.48094401870449" lon="13.248916650748944"><ele>780.0</ele><time>2026-04-19T10:11:31Z</time></trkpt><trkpt lat="42.48094706914319" lon="13.24842878200596"><ele>780.5</ele><time>2026-04-19T10:11:32Z</time></trkpt><trkpt lat="42.480943863585054" lon="13.247962005791848"><ele>781.0</ele><time>2026-04-19T10:11:33Z</time></trkpt><trkpt lat="42.48094183102399" lon="13.247506534962403"><ele>781.5</ele><time>2026-04-19T10:11:34Z</time></trkpt><trkpt lat="42.480941678477805" lon="13.247089620192746"><ele>782.0</ele><time>2026-04-19T10:11:35Z</time></trkpt><trkpt lat="42.480939970617776" lon="13.246711635491833"><ele>781.0</ele><time>2026-04-19T10:11:36Z</time></trkpt><trkpt lat="42.48094481241245" lon="13.246355162271753"><ele>780.0</ele><time>2026-04-19T10:11:37Z</time></trkpt><trkpt lat="42.48096431215262" lon="13.246017741742557"><ele>780.0</ele><time>2026-04-19T10:11:38Z</time></trkpt><trkpt lat="42.48100847058225" lon="13.245703192441006"><ele>780.0</ele><time>2026-04-19T10:11:39Z</time></trkpt><trkpt lat="42.48109359388935" lon="13.245391791902431"><ele>778.5</ele><time>2026-04-19T10:11:40Z</time></trkpt><trkpt lat="42.48121809248671" lon="13.245087382170079"><ele>777.0</ele><time>2026-04-19T10:11:41Z</time></trkpt><trkpt lat="42.481371914097615" lon="13.244792530267013"><ele>777.0</ele><time>2026-04-19T10:11:42Z</time></trkpt><trkpt lat="42.48155098245753" lon="13.244524243540184"><ele>777.0</ele><time>2026-04-19T10:11:43Z</time></trkpt><trkpt lat="42.48176803488306" lon="13.24428257456264"><ele>777.0</ele><time>2026-04-19T10:11:44Z</time></trkpt><trkpt lat="42.48202042780208" lon="13.244061850851837"><ele>777.0</ele><time>2026-04-19T10:11:45Z</time></trkpt><trkpt lat="42.482287010898936" lon="13.24384963229277"><ele>777.5</ele><time>2026-04-19T10:11:46Z</time></trkpt><trkpt lat="42.4825578162139" lon="13.243634650003141"><ele>778.0</ele><time>2026-04-19T10:11:47Z</time></trkpt><trkpt lat="42.48284430523426" lon="13.243407682102086"><ele>779.0</ele><time>2026-04-19T10:11:48Z</time></trkpt><trkpt lat="42.48312666752138" lon="13.243180254274641"><ele>780.0</ele><time>2026-04-19T10:11:49Z</time></trkpt><trkpt lat="42.48341274234639" lon="13.242965357115361"><ele>778.0</ele><time>2026-04-19T10:11:50Z</time></trkpt><trkpt lat="42.48369599564478" lon="13.242753017931202"><ele>776.0</ele><time>2026-04-19T10:11:51Z</time></trkpt><trkpt lat="42.483972618562014" lon="13.242538032874137"><ele>776.0</ele><time>2026-04-19T10:11:52Z</time></trkpt><trkpt lat="42.48423272735499" lon="13.24232412503747"><ele>776.0</ele><time>2026-04-19T10:11:53Z</time></trkpt><trkpt lat="42.48448355449182" lon="13.242095151882651"><ele>778.5</ele><time>2026-04-19T10:11:54Z</time></trkpt><trkpt lat="42.4847234517293" lon="13.241824847823601"><ele>781.0</ele><time>2026-04-19T10:11:55Z</time></trkpt><trkpt lat="42.48493295759075" lon="13.241521338728429"><ele>779.0</ele><time>2026-04-19T10:11:56Z</time></trkpt><trkpt lat="42.485126894636174" lon="13.241207465792732"><ele>777.0</ele><time>2026-04-19T10:11:57Z</time></trkpt><trkpt lat="42.485322091631616" lon="13.24088630636559"><ele>781.5</ele><time>2026-04-19T10:11:58Z</time></trkpt><trkpt lat="42.4855129134565" lon="13.240578318126461"><ele>786.0</ele><time>2026-04-19T10:11:59Z</time></trkpt><trkpt lat="42.48568684457828" lon="13.240268930657328"><ele>786.0</ele><time>2026-04-19T10:12:00Z</time></trkpt><trkpt lat="42.48583534764853" lon="13.239931729172183"><ele>786.0</ele><time>2026-04-19T10:12:01Z</time></trkpt><trkpt lat="42.4859512580725" lon="13.23956631725618"><ele>784.5</ele><time>2026-04-19T10:12:02Z</time></trkpt><trkpt lat="42.48602833848462" lon="13.239183875632241"><ele>783.0</ele><time>2026-04-19T10:12:03Z</time></trkpt><trkpt lat="42.48606330519126" lon="13.2387834943237"><ele>783.0</ele><time>2026-04-19T10:12:04Z</time></trkpt><trkpt lat="42.48606018113945" lon="13.238358076256846"><ele>783.0</ele><time>2026-04-19T10:12:05Z</time></trkpt><trkpt lat="42.486031353327476" lon="13.237915647386906"><ele>785.5</ele><time>2026-04-19T10:12:06Z</time></trkpt><trkpt lat="42.48597978448658" lon="13.237502406552192"><ele>788.0</ele><time>2026-04-19T10:12:07Z</time></trkpt><trkpt lat="42.48592721579101" lon="13.237122564766953"><ele>788.0</ele><time>2026-04-19T10:12:08Z</time></trkpt><trkpt lat="42.48589210885426" lon="13.236739785801545"><ele>788.0</ele><time>2026-04-19T10:12:09Z</time></trkpt><trkpt lat="42.48589917642134" lon="13.236352875565927"><ele>788.5</ele><time>2026-04-19T10:12:10Z</time></trkpt><trkpt lat="42.4859423760692" lon="13.235989264765363"><ele>789.0</ele><time>2026-04-19T10:12:11Z</time></trkpt><trkpt lat="42.486016518486906" lon="13.235639193008648"><ele>786.5</ele><time>2026-04-19T10:12:12Z</time></trkpt><trkpt lat="42.4861082505809" lon="13.235317195722285"><ele>784.0</ele><time>2026-04-19T10:12:13Z</time></trkpt><trkpt lat="42.48621773537094" lon="13.235017546245608"><ele>783.0</ele><time>2026-04-19T10:12:14Z</time></trkpt><trkpt lat="42.48636105874952" lon="13.234702458822518"><ele>782.0</ele><time>2026-04-19T10:12:15Z</time></trkpt><trkpt lat="42.486530231847176" lon="13.234377431010065"><ele>782.0</ele><time>2026-04-19T10:12:16Z</time></trkpt><trkpt lat="42.4867138053488" lon="13.234046493458326"><ele>782.0</ele><time>2026-04-19T10:12:17Z</time></trkpt><trkpt lat="42.486898470494154" lon="13.233696284366648"><ele>783.0</ele><time>2026-04-19T10:12:18Z</time></trkpt><trkpt lat="42.48707881677484" lon="13.233328209203178"><ele>784.0</ele><time>2026-04-19T10:12:19Z</time></trkpt><trkpt lat="42.487259522574575" lon="13.232965095250837"><ele>787.0</ele><time>2026-04-19T10:12:20Z</time></trkpt><trkpt lat="42.48743364439058" lon="13.232636175042026"><ele>790.0</ele><time>2026-04-19T10:12:21Z</time></trkpt><trkpt lat="42.48760500741394" lon="13.232349061007545"><ele>790.0</ele><time>2026-04-19T10:12:22Z</time></trkpt><trkpt lat="42.48779183895435" lon="13.232100054489807"><ele>790.0</ele><time>2026-04-19T10:12:23Z</time></trkpt><trkpt lat="42.488007481361514" lon="13.231876094886475"><ele>790.0</ele><time>2026-04-19T10:12:24Z</time></trkpt><trkpt lat="42.48824391959101" lon="13.231688831416584"><ele>790.0</ele><time>2026-04-19T10:12:25Z</time></trkpt><trkpt lat="42.488504285422124" lon="13.231528067401708"><ele>787.5</ele><time>2026-04-19T10:12:26Z</time></trkpt><trkpt lat="42.48875877933459" lon="13.23139406205721"><ele>785.0</ele><time>2026-04-19T10:12:27Z</time></trkpt><trkpt lat="42.48898780914127" lon="13.231280054251295"><ele>785.0</ele><time>2026-04-19T10:12:28Z</time></trkpt><trkpt lat="42.48919336635009" lon="13.231193496658914"><ele>785.0</ele><time>2026-04-19T10:12:29Z</time></trkpt><trkpt lat="42.489370064539294" lon="13.231100653854828"><ele>785.0</ele><time>2026-04-19T10:12:30Z</time></trkpt><trkpt lat="42.489524106642364" lon="13.23101913938118"><ele>786.25</ele><time>2026-04-19T10:12:31Z</time></trkpt><trkpt lat="42.48965091577597" lon="13.230957498105129"><ele>787.5</ele><time>2026-04-19T10:12:32Z</time></trkpt><trkpt lat="42.48976765438633" lon="13.230967656378368"><ele>788.75</ele><time>2026-04-19T10:12:33Z</time></trkpt><trkpt lat="42.48987153738112" lon="13.23101499539129"><ele>790.0</ele><time>2026-04-19T10:12:34Z</time></trkpt><trkpt lat="42.489966648730196" lon="13.231051169773522"><ele>790.0</ele><time>2026-04-19T10:12:35Z</time></trkpt><trkpt lat="42.49004657549297" lon="13.231028058131455"><ele>790.0</ele><time>2026-04-19T10:12:36Z</time></trkpt><trkpt lat="42.490115761622924" lon="13.230943549432276"><ele>790.0</ele><time>2026-04-19T10:12:37Z</time></trkpt><trkpt lat="42.49016331330658" lon="13.230815491264382"><ele>790.0</ele><time>2026-04-19T10:12:38Z</time></trkpt><trkpt lat="42.49022053175256" lon="13.230667345533284"><ele>790.0</ele><time>2026-04-19T10:12:39Z</time></trkpt><trkpt lat="42.490333578848514" lon="13.230541558607838"><ele>790.6666666666666</ele><time>2026-04-19T10:12:40Z</time></trkpt><trkpt lat="42.490510437904184" lon="13.230446918532538"><ele>791.3333333333333</ele><time>2026-04-19T10:12:41Z</time></trkpt><trkpt lat="42.49073109970787" lon="13.23040374272888"><ele>792.0</ele><time>2026-04-19T10:12:42Z</time></trkpt><trkpt lat="42.49096758794514" lon="13.230348507544589"><ele>792.0</ele><time>2026-04-19T10:12:43Z</time></trkpt><trkpt lat="42.49123078463552" lon="13.23032555441094"><ele>792.0</ele><time>2026-04-19T10:12:44Z</time></trkpt><trkpt lat="42.491487545235316" lon="13.230313554432797"><ele>796.0</ele><time>2026-04-19T10:12:45.001Z</time></trkpt><trkpt lat="42.491719314663825" lon="13.230341439474174"><ele>800.0</ele><time>2026-04-19T10:12:46.001Z</time></trkpt><trkpt lat="42.49197562598204" lon="13.230334482938485"><ele>809.0</ele><time>2026-04-19T10:12:47.001Z</time></trkpt><trkpt lat="42.49224621028649" lon="13.230287729574965"><ele>818.0</ele><time>2026-04-19T10:12:48.001Z</time></trkpt><trkpt lat="42.49252358890098" lon="13.230247272082444"><ele>818.0</ele><time>2026-04-19T10:12:49.001Z</time></trkpt><trkpt lat="42.492791339620055" lon="13.230176178944237"><ele>818.0</ele><time>2026-04-19T10:12:50.001Z</time></trkpt><trkpt lat="42.49305296721832" lon="13.23009018239735"><ele>836.5</ele><time>2026-04-19T10:12:51.001Z</time></trkpt><trkpt lat="42.49331814929373" lon="13.230023018618297"><ele>855.0</ele><time>2026-04-19T10:12:52.001Z</time></trkpt><trkpt lat="42.4935881125664" lon="13.229902324150181"><ele>863.0</ele><time>2026-04-19T10:12:53.071Z</time></trkpt><trkpt lat="42.493822613471934" lon="13.229764762077725"><ele>871.0</ele><time>2026-04-19T10:12:54.069Z</time></trkpt><trkpt lat="42.49523870564324" lon="13.228435655689706"><ele>941.0</ele><time>2026-04-19T10:12:57.877Z</time></trkpt><trkpt lat="42.49679078582902" lon="13.2289145472227"><ele>941.0</ele><time>2026-04-19T10:13:09.281Z</time></trkpt><trkpt lat="42.496984934705225" lon="13.228856968308529"><ele>941.0</ele><time>2026-04-19T10:13:10.668Z</time></trkpt><trkpt lat="42.501185057229115" lon="13.22446718869049"><ele>875.0</ele><time>2026-04-19T10:13:26Z</time></trkpt><trkpt lat="42.50143797522211" lon="13.224329429814949"><ele>809.0</ele><time>2026-04-19T10:13:27Z</time></trkpt><trkpt lat="42.501720379165754" lon="13.224282120937811"><ele>809.0</ele><time>2026-04-19T10:13:28Z</time></trkpt><trkpt lat="42.501994037479726" lon="13.224256817846141"><ele>809.0</ele><time>2026-04-19T10:13:29Z</time></trkpt><trkpt lat="42.502270345576655" lon="13.224254352850354"><ele>812.5</ele><time>2026-04-19T10:13:30Z</time></trkpt><trkpt lat="42.502543881153144" lon="13.224283866690946"><ele>816.0</ele><time>2026-04-19T10:13:31Z</time></trkpt><trkpt lat="42.50283252334101" lon="13.224275322599372"><ele>816.5</ele><time>2026-04-19T10:13:32Z</time></trkpt><trkpt lat="42.5031184737802" lon="13.224244542514622"><ele>817.0</ele><time>2026-04-19T10:13:33Z</time></trkpt><trkpt lat="42.503404238178526" lon="13.22427235985858"><ele>817.0</ele><time>2026-04-19T10:13:34Z</time></trkpt><trkpt lat="42.503700006419656" lon="13.22430934838918"><ele>817.0</ele><time>2026-04-19T10:13:35Z</time></trkpt><trkpt lat="42.503997834291475" lon="13.224381085024419"><ele>817.0</ele><time>2026-04-19T10:13:36Z</time></trkpt><trkpt lat="42.5043010445268" lon="13.224536951026124"><ele>817.0</ele><time>2026-04-19T10:13:37Z</time></trkpt><trkpt lat="42.50459722868622" lon="13.22473793263388"><ele>817.0</ele><time>2026-04-19T10:13:38Z</time></trkpt><trkpt lat="42.50487597829915" lon="13.224970927361527"><ele>817.0</ele><time>2026-04-19T10:13:39Z</time></trkpt><trkpt lat="42.50510660367512" lon="13.225227837058748"><ele>817.0</ele><time>2026-04-19T10:13:40Z</time></trkpt><trkpt lat="42.50531205475824" lon="13.225529091470257"><ele>817.0</ele><time>2026-04-19T10:13:41Z</time></trkpt><trkpt lat="42.505506248231995" lon="13.225881339975139"><ele>815.5</ele><time>2026-04-19T10:13:42Z</time></trkpt><trkpt lat="42.50567509383609" lon="13.226272760979683"><ele>814.0</ele><time>2026-04-19T10:13:43Z</time></trkpt><trkpt lat="42.505825261893555" lon="13.226685398803552"><ele>814.0</ele><time>2026-04-19T10:13:44Z</time></trkpt><trkpt lat="42.5059707370652" lon="13.227060839739325"><ele>814.0</ele><time>2026-04-19T10:13:45Z</time></trkpt><trkpt lat="42.506131588040134" lon="13.227364775697591"><ele>818.0</ele><time>2026-04-19T10:13:46Z</time></trkpt><trkpt lat="42.50630201377804" lon="13.22765651226266"><ele>822.0</ele><time>2026-04-19T10:13:47Z</time></trkpt><trkpt lat="42.50652272697494" lon="13.227921607015366"><ele>824.5</ele><time>2026-04-19T10:13:48Z</time></trkpt><trkpt lat="42.50678906329185" lon="13.228172007521815"><ele>827.0</ele><time>2026-04-19T10:13:49Z</time></trkpt><trkpt lat="42.50708296015355" lon="13.228391844703857"><ele>827.0</ele><time>2026-04-19T10:13:50Z</time></trkpt><trkpt lat="42.50739339143613" lon="13.228594627114287"><ele>827.0</ele><time>2026-04-19T10:13:51Z</time></trkpt><trkpt lat="42.50770549758513" lon="13.22882067135196"><ele>821.0</ele><time>2026-04-19T10:13:52Z</time></trkpt><trkpt lat="42.50801432499132" lon="13.229037408541604"><ele>815.0</ele><time>2026-04-19T10:13:53Z</time></trkpt><trkpt lat="42.50828789308099" lon="13.22927770416921"><ele>815.0</ele><time>2026-04-19T10:13:54Z</time></trkpt><trkpt lat="42.50854978068291" lon="13.229482360265997"><ele>815.0</ele><time>2026-04-19T10:13:55Z</time></trkpt><trkpt lat="42.508802037679935" lon="13.229680496122086"><ele>815.5</ele><time>2026-04-19T10:13:56Z</time></trkpt><trkpt lat="42.509038621633685" lon="13.22995104166328"><ele>816.0</ele><time>2026-04-19T10:13:57Z</time></trkpt><trkpt lat="42.509237451089994" lon="13.230228029636322"><ele>816.0</ele><time>2026-04-19T10:13:58Z</time></trkpt><trkpt lat="42.5094135914935" lon="13.230517821121765"><ele>816.0</ele><time>2026-04-19T10:13:59Z</time></trkpt><trkpt lat="42.50958538116143" lon="13.230841014209679"><ele>815.0</ele><time>2026-04-19T10:14:00Z</time></trkpt><trkpt lat="42.509763431938794" lon="13.231197871810828"><ele>814.0</ele><time>2026-04-19T10:14:01Z</time></trkpt><trkpt lat="42.50995163779093" lon="13.2315615892908"><ele>814.0</ele><time>2026-04-19T10:14:02Z</time></trkpt><trkpt lat="42.51014862050784" lon="13.231931417334666"><ele>814.0</ele><time>2026-04-19T10:14:03Z</time></trkpt><trkpt lat="42.51035319283757" lon="13.232317522343939"><ele>819.0</ele><time>2026-04-19T10:14:04Z</time></trkpt><trkpt lat="42.51056100559353" lon="13.232708918665297"><ele>824.0</ele><time>2026-04-19T10:14:05Z</time></trkpt><trkpt lat="42.5107763576622" lon="13.233122810811874"><ele>819.0</ele><time>2026-04-19T10:14:06Z</time></trkpt><trkpt lat="42.510993748659466" lon="13.233547582533358"><ele>814.0</ele><time>2026-04-19T10:14:07Z</time></trkpt><trkpt lat="42.511212338908344" lon="13.233967671874439"><ele>819.5</ele><time>2026-04-19T10:14:08Z</time></trkpt><trkpt lat="42.511417743882916" lon="13.234357586653358"><ele>825.0</ele><time>2026-04-19T10:14:09Z</time></trkpt><trkpt lat="42.51160881727295" lon="13.234699353730797"><ele>821.5</ele><time>2026-04-19T10:14:10Z</time></trkpt><trkpt lat="42.51180560169554" lon="13.235005660771026"><ele>818.0</ele><time>2026-04-19T10:14:11Z</time></trkpt><trkpt lat="42.51202804319922" lon="13.235288894227681"><ele>817.5</ele><time>2026-04-19T10:14:12Z</time></trkpt><trkpt lat="42.51226205798929" lon="13.235536372775826"><ele>817.0</ele><time>2026-04-19T10:14:13Z</time></trkpt><trkpt lat="42.51244320496487" lon="13.235905780461866"><ele>817.0</ele><time>2026-04-19T10:14:14Z</time></trkpt><trkpt lat="42.51269235026946" lon="13.236125122517405"><ele>817.0</ele><time>2026-04-19T10:14:15Z</time></trkpt><trkpt lat="42.51289493928444" lon="13.236303182318393"><ele>815.6666666666666</ele><time>2026-04-19T10:14:16Z</time></trkpt><trkpt lat="42.51306008757007" lon="13.2364220313767"><ele>814.3333333333333</ele><time>2026-04-19T10:14:17Z</time></trkpt><trkpt lat="42.5132085894771" lon="13.236515600733648"><ele>813.0</ele><time>2026-04-19T10:14:18Z</time></trkpt><trkpt lat="42.51355042733377" lon="13.23617083879494"><ele>813.4</ele><time>2026-04-19T10:14:19Z</time></trkpt><trkpt lat="42.51365870827926" lon="13.236240146205082"><ele>813.8</ele><time>2026-04-19T10:14:20Z</time></trkpt><trkpt lat="42.5137336168994" lon="13.236326891744392"><ele>814.2</ele><time>2026-04-19T10:14:21Z</time></trkpt><trkpt lat="42.51380296876354" lon="13.236442311205934"><ele>814.6</ele><time>2026-04-19T10:14:22Z</time></trkpt><trkpt lat="42.513885952401615" lon="13.23653214609724"><ele>815.0</ele><time>2026-04-19T10:14:23Z</time></trkpt><trkpt lat="42.513993290823144" lon="13.236556996399393"><ele>815.0</ele><time>2026-04-19T10:14:24Z</time></trkpt><trkpt lat="42.514114206581404" lon="13.236532348147671"><ele>815.0</ele><time>2026-04-19T10:14:25Z</time></trkpt><trkpt lat="42.51425148756533" lon="13.236537427586962"><ele>815.0</ele><time>2026-04-19T10:14:26Z</time></trkpt><trkpt lat="42.51441199185334" lon="13.236623707093106"><ele>815.0</ele><time>2026-04-19T10:14:27Z</time></trkpt><trkpt lat="42.514590625560814" lon="13.236767141535971"><ele>815.0</ele><time>2026-04-19T10:14:28Z</time></trkpt><trkpt lat="42.51477715502845" lon="13.236936083900565"><ele>815.0</ele><time>2026-04-19T10:14:29Z</time></trkpt><trkpt lat="42.514957228816186" lon="13.237135588140427"><ele>814.0</ele><time>2026-04-19T10:14:30Z</time></trkpt><trkpt lat="42.515126688125314" lon="13.237386116142385"><ele>813.0</ele><time>2026-04-19T10:14:31Z</time></trkpt><trkpt lat="42.51526929626387" lon="13.237666458633452"><ele>813.0</ele><time>2026-04-19T10:14:32Z</time></trkpt><trkpt lat="42.51537856078756" lon="13.23796337229903"><ele>813.0</ele><time>2026-04-19T10:14:33Z</time></trkpt><trkpt lat="42.51546735686147" lon="13.23830282571997"><ele>813.5</ele><time>2026-04-19T10:14:34Z</time></trkpt><trkpt lat="42.51553322297008" lon="13.23868181039493"><ele>814.0</ele><time>2026-04-19T10:14:35Z</time></trkpt><trkpt lat="42.51558707799594" lon="13.239075266760922"><ele>814.0</ele><time>2026-04-19T10:14:36Z</time></trkpt><trkpt lat="42.51566127613214" lon="13.239445870912965"><ele>814.0</ele><time>2026-04-19T10:14:37Z</time></trkpt><trkpt lat="42.51576960492893" lon="13.239807425462422"><ele>814.0</ele><time>2026-04-19T10:14:38Z</time></trkpt><trkpt lat="42.51592583009727" lon="13.240161173532746"><ele>814.0</ele><time>2026-04-19T10:14:39Z</time></trkpt><trkpt lat="42.51611167140081" lon="13.24049247224467"><ele>818.0</ele><time>2026-04-19T10:14:40Z</time></trkpt><trkpt lat="42.51628347431335" lon="13.240778996915546"><ele>822.0</ele><time>2026-04-19T10:14:41Z</time></trkpt><trkpt lat="42.51643915280365" lon="13.241071649656327"><ele>822.0</ele><time>2026-04-19T10:14:42Z</time></trkpt><trkpt lat="42.51657304442251" lon="13.241395502359703"><ele>822.0</ele><time>2026-04-19T10:14:43Z</time></trkpt><trkpt lat="42.516700188083426" lon="13.24174371388166"><ele>823.0</ele><time>2026-04-19T10:14:44Z</time></trkpt><trkpt lat="42.51682914447909" lon="13.242085877984263"><ele>824.0</ele><time>2026-04-19T10:14:45Z</time></trkpt><trkpt lat="42.51694195669077" lon="13.242415250198016"><ele>820.5</ele><time>2026-04-19T10:14:46Z</time></trkpt><trkpt lat="42.51703992438469" lon="13.242751093335167"><ele>817.0</ele><time>2026-04-19T10:14:47Z</time></trkpt><trkpt lat="42.51711123646003" lon="13.243135797911547"><ele>825.0</ele><time>2026-04-19T10:14:48Z</time></trkpt><trkpt lat="42.51715705895968" lon="13.243531926086863"><ele>833.0</ele><time>2026-04-19T10:14:49Z</time></trkpt><trkpt lat="42.51719725050305" lon="13.24388828888276"><ele>830.0</ele><time>2026-04-19T10:14:50Z</time></trkpt><trkpt lat="42.51723300607459" lon="13.244226167630796"><ele>827.0</ele><time>2026-04-19T10:14:51.001Z</time></trkpt><trkpt lat="42.5172880689131" lon="13.244556883474225"><ele>822.5</ele><time>2026-04-19T10:14:52.001Z</time></trkpt><trkpt lat="42.5173780392696" lon="13.24490208465188"><ele>818.0</ele><time>2026-04-19T10:14:53.001Z</time></trkpt><trkpt lat="42.5175027642648" lon="13.245258773206436"><ele>817.0</ele><time>2026-04-19T10:14:54.001Z</time></trkpt><trkpt lat="42.51764353947292" lon="13.245630316933722"><ele>816.0</ele><time>2026-04-19T10:14:55.001Z</time></trkpt><trkpt lat="42.517781763607715" lon="13.24600552186098"><ele>822.0</ele><time>2026-04-19T10:14:56.001Z</time></trkpt><trkpt lat="42.51791643117064" lon="13.246349094662683"><ele>828.0</ele><time>2026-04-19T10:14:57.001Z</time></trkpt><trkpt lat="42.51805521200688" lon="13.246669650493157"><ele>828.0</ele><time>2026-04-19T10:14:58.001Z</time></trkpt><trkpt lat="42.51818731782977" lon="13.246971695561603"><ele>828.0</ele><time>2026-04-19T10:14:59.001Z</time></trkpt><trkpt lat="42.51830951902612" lon="13.247256617990104"><ele>825.0</ele><time>2026-04-19T10:15:00.001Z</time></trkpt><trkpt lat="42.51842416683536" lon="13.247520906312742"><ele>822.0</ele><time>2026-04-19T10:15:01.001Z</time></trkpt><trkpt lat="42.51852990454129" lon="13.247775929063682"><ele>819.0</ele><time>2026-04-19T10:15:02.001Z</time></trkpt><trkpt lat="42.51861353295192" lon="13.248026479119783"><ele>818.0</ele><time>2026-04-19T10:15:03.001Z</time></trkpt><trkpt lat="42.51867203791852" lon="13.248261926213692"><ele>817.0</ele><time>2026-04-19T10:15:04.001Z</time></trkpt><trkpt lat="42.51870688852712" lon="13.248474308925548"><ele>816.0</ele><time>2026-04-19T10:15:05Z</time></trkpt><trkpt lat="42.5187103926448" lon="13.248646904382126"><ele>816.0</ele><time>2026-04-19T10:15:06Z</time></trkpt><trkpt lat="42.51868652285677" lon="13.248794184503211"><ele>816.0</ele><time>2026-04-19T10:15:07Z</time></trkpt><trkpt lat="42.51864443228023" lon="13.248923358427424"><ele>816.0</ele><time>2026-04-19T10:15:08Z</time></trkpt><trkpt lat="42.51861699015147" lon="13.249034520554387"><ele>816.0</ele><time>2026-04-19T10:15:09Z</time></trkpt><trkpt lat="42.51862971516122" lon="13.249131506503801"><ele>816.0</ele><time>2026-04-19T10:15:10Z</time></trkpt><trkpt lat="42.51872217868844" lon="13.24922660543317"><ele>816.0</ele><time>2026-04-19T10:15:12Z</time></trkpt><trkpt lat="42.518785084479894" lon="13.249221488078181"><ele>816.0</ele><time>2026-04-19T10:15:13Z</time></trkpt><trkpt lat="42.51886269980899" lon="13.249180450963307"><ele>816.0</ele><time>2026-04-19T10:15:14Z</time></trkpt><trkpt lat="42.518947793895826" lon="13.249143363068983"><ele>816.0</ele><time>2026-04-19T10:15:15Z</time></trkpt><trkpt lat="42.51903755027444" lon="13.249157684457076"><ele>816.0</ele><time>2026-04-19T10:15:16Z</time></trkpt><trkpt lat="42.519109499230396" lon="13.249218666039281"><ele>816.0</ele><time>2026-04-19T10:15:17Z</time></trkpt><trkpt lat="42.5191657020449" lon="13.249314433729664"><ele>816.0</ele><time>2026-04-19T10:15:18Z</time></trkpt><trkpt lat="42.51920458632729" lon="13.249417343072999"><ele>816.0</ele><time>2026-04-19T10:15:19Z</time></trkpt><trkpt lat="42.51923591780105" lon="13.249547789096853"><ele>816.0</ele><time>2026-04-19T10:15:20Z</time></trkpt><trkpt lat="42.519267197244226" lon="13.249715701344758"><ele>816.0</ele><time>2026-04-19T10:15:21Z</time></trkpt><trkpt lat="42.51931318537726" lon="13.249896464238365"><ele>816.25</ele><time>2026-04-19T10:15:22Z</time></trkpt><trkpt lat="42.51935967347122" lon="13.250074473785135"><ele>816.5</ele><time>2026-04-19T10:15:23Z</time></trkpt><trkpt lat="42.51940481423618" lon="13.25023720448264"><ele>816.75</ele><time>2026-04-19T10:15:24Z</time></trkpt><trkpt lat="42.519444996132115" lon="13.25038235560057"><ele>817.0</ele><time>2026-04-19T10:15:25Z</time></trkpt><trkpt lat="42.51947979004228" lon="13.250524712023589"><ele>817.0</ele><time>2026-04-19T10:15:26Z</time></trkpt><trkpt lat="42.51951621894064" lon="13.250667887483148"><ele>817.0</ele><time>2026-04-19T10:15:27Z</time></trkpt><trkpt lat="42.51955478081146" lon="13.25080829749761"><ele>817.0</ele><time>2026-04-19T10:15:28Z</time></trkpt><trkpt lat="42.51959340147267" lon="13.250949562847024"><ele>817.0</ele><time>2026-04-19T10:15:29Z</time></trkpt><trkpt lat="42.519627599595985" lon="13.251090987526952"><ele>817.0</ele><time>2026-04-19T10:15:30Z</time></trkpt><trkpt lat="42.519664347271856" lon="13.251233396813134"><ele>818.4000000000001</ele><time>2026-04-19T10:15:31Z</time></trkpt><trkpt lat="42.519697786528276" lon="13.2513727558078"><ele>819.8000000000001</ele><time>2026-04-19T10:15:32Z</time></trkpt><trkpt lat="42.5197379610091" lon="13.251512336390435"><ele>821.2</ele><time>2026-04-19T10:15:33Z</time></trkpt><trkpt lat="42.51977623149621" lon="13.251654464994651"><ele>822.6</ele><time>2026-04-19T10:15:34Z</time></trkpt><trkpt lat="42.51981626506707" lon="13.251795611393769"><ele>824.0</ele><time>2026-04-19T10:15:35Z</time></trkpt><trkpt lat="42.519854265879914" lon="13.251934251389885"><ele>824.0</ele><time>2026-04-19T10:15:36Z</time></trkpt><trkpt lat="42.51989148225597" lon="13.25206554904652"><ele>824.0</ele><time>2026-04-19T10:15:37Z</time></trkpt><trkpt lat="42.51992591585896" lon="13.252202965474867"><ele>824.0</ele><time>2026-04-19T10:15:38Z</time></trkpt><trkpt lat="42.519964624764484" lon="13.25233480547367"><ele>824.0</ele><time>2026-04-19T10:15:39Z</time></trkpt><trkpt lat="42.519997890335" lon="13.252461753805504"><ele>824.0</ele><time>2026-04-19T10:15:40Z</time></trkpt><trkpt lat="42.5200332086592" lon="13.252574685433977"><ele>823.8000000000001</ele><time>2026-04-19T10:15:41Z</time></trkpt><trkpt lat="42.52007511352974" lon="13.25267730257435"><ele>823.6</ele><time>2026-04-19T10:15:42Z</time></trkpt><trkpt lat="42.520132131361606" lon="13.252784780219251"><ele>823.4</ele><time>2026-04-19T10:15:43Z</time></trkpt><trkpt lat="42.520190985476994" lon="13.252886108327674"><ele>823.2</ele><time>2026-04-19T10:15:44Z</time></trkpt><trkpt lat="42.52026763630065" lon="13.25298371768573"><ele>823.0</ele><time>2026-04-19T10:15:45Z</time></trkpt><trkpt lat="42.52030464428818" lon="13.253097680074141"><ele>822.3333333333333</ele><time>2026-04-19T10:15:46Z</time></trkpt><trkpt lat="42.52034329600916" lon="13.253184458496253"><ele>821.6666666666666</ele><time>2026-04-19T10:15:47Z</time></trkpt><trkpt lat="42.520344109056204" lon="13.253277936829996"><ele>821.0</ele><time>2026-04-19T10:15:48Z</time></trkpt><trkpt lat="42.52036829876866" lon="13.253398288466148"><ele>820.3333333333333</ele><time>2026-04-19T10:15:50Z</time></trkpt><trkpt lat="42.52046449375434" lon="13.253405824660595"><ele>819.6666666666666</ele><time>2026-04-19T10:18:57.999Z</time></trkpt><trkpt lat="42.52052474512045" lon="13.253377444523883"><ele>819.0</ele><time>2026-04-19T10:18:58.999Z</time></trkpt><trkpt lat="42.52059566178257" lon="13.25334276853577"><ele>819.0</ele><time>2026-04-19T10:18:59.999Z</time></trkpt><trkpt lat="42.52067207007508" lon="13.253300303127244"><ele>819.0</ele><time>2026-04-19T10:19:00.999Z</time></trkpt><trkpt lat="42.52075206649181" lon="13.253246908416804"><ele>819.0</ele><time>2026-04-19T10:19:01.999Z</time></trkpt><trkpt lat="42.520830491023425" lon="13.25319121653194"><ele>819.0</ele><time>2026-04-19T10:19:02.999Z</time></trkpt><trkpt lat="42.520907355161704" lon="13.25313804603436"><ele>819.0</ele><time>2026-04-19T10:19:03.999Z</time></trkpt><trkpt lat="42.52099179424911" lon="13.25307891716652"><ele>819.0</ele><time>2026-04-19T10:19:04.999Z</time></trkpt><trkpt lat="42.52107466588257" lon="13.253000454959816"><ele>818.8000000000001</ele><time>2026-04-19T10:19:05.999Z</time></trkpt><trkpt lat="42.52115994304911" lon="13.25292690602287"><ele>818.6</ele><time>2026-04-19T10:19:06.999Z</time></trkpt><trkpt lat="42.52123671002914" lon="13.252853243329858"><ele>818.4</ele><time>2026-04-19T10:19:07.999Z</time></trkpt><trkpt lat="42.521313828360945" lon="13.252788430307735"><ele>818.2</ele><time>2026-04-19T10:19:08.999Z</time></trkpt><trkpt lat="42.52138773284981" lon="13.252712039181016"><ele>818.0</ele><time>2026-04-19T10:19:09.999Z</time></trkpt><trkpt lat="42.52145354300072" lon="13.252639397414328"><ele>818.0</ele><time>2026-04-19T10:19:10.999Z</time></trkpt><trkpt lat="42.521528447738305" lon="13.25256571268301"><ele>818.0</ele><time>2026-04-19T10:19:11.999Z</time></trkpt><trkpt lat="42.52160337724199" lon="13.252484758878655"><ele>818.0</ele><time>2026-04-19T10:19:12.999Z</time></trkpt><trkpt lat="42.521685235689255" lon="13.252405152657728"><ele>818.0</ele><time>2026-04-19T10:19:13.999Z</time></trkpt><trkpt lat="42.52176915284625" lon="13.252325704391442"><ele>818.0</ele><time>2026-04-19T10:19:14.999Z</time></trkpt><trkpt lat="42.521855647245744" lon="13.252247660661649"><ele>818.4</ele><time>2026-04-19T10:19:15.999Z</time></trkpt><trkpt lat="42.521934045646034" lon="13.25217406145008"><ele>818.8</ele><time>2026-04-19T10:19:16.999Z</time></trkpt><trkpt lat="42.5220250662882" lon="13.252089749933043"><ele>819.2</ele><time>2026-04-19T10:19:17.999Z</time></trkpt><trkpt lat="42.52211252581374" lon="13.252010411539896"><ele>819.6</ele><time>2026-04-19T10:19:18.999Z</time></trkpt><trkpt lat="42.522199489214756" lon="13.251941607167376"><ele>820.0</ele><time>2026-04-19T10:19:19.999Z</time></trkpt><trkpt lat="42.52229035442615" lon="13.251867179344401"><ele>820.0</ele><time>2026-04-19T10:19:20.999Z</time></trkpt><trkpt lat="42.522380968018446" lon="13.251790234763591"><ele>820.0</ele><time>2026-04-19T10:19:21.999Z</time></trkpt><trkpt lat="42.5224759554888" lon="13.251715771359123"><ele>820.0</ele><time>2026-04-19T10:19:22.999Z</time></trkpt><trkpt lat="42.52256679046539" lon="13.251643282230368"><ele>820.0</ele><time>2026-04-19T10:19:23.999Z</time></trkpt><trkpt lat="42.5226617401375" lon="13.251567674507628"><ele>820.0</ele><time>2026-04-19T10:19:24.999Z</time></trkpt><trkpt lat="42.52275366906781" lon="13.251495958372471"><ele>819.8</ele><time>2026-04-19T10:19:25.999Z</time></trkpt><trkpt lat="42.52284541022955" lon="13.251426921576986"><ele>819.6</ele><time>2026-04-19T10:19:26.999Z</time></trkpt><trkpt lat="42.52293562053107" lon="13.251362958353301"><ele>819.4000000000001</ele><time>2026-04-19T10:19:27.999Z</time></trkpt><trkpt lat="42.523018053660685" lon="13.251304175140943"><ele>819.2</ele><time>2026-04-19T10:19:28.999Z</time></trkpt><trkpt lat="42.523094747891854" lon="13.251245859073482"><ele>819.0</ele><time>2026-04-19T10:19:29.999Z</time></trkpt><trkpt lat="42.52316957703892" lon="13.251193466932376"><ele>819.0</ele><time>2026-04-19T10:19:30.999Z</time></trkpt><trkpt lat="42.52325056081675" lon="13.251131507249797"><ele>819.0</ele><time>2026-04-19T10:19:31.999Z</time></trkpt><trkpt lat="42.523346348345434" lon="13.251076452770908"><ele>819.0</ele><time>2026-04-19T10:19:32.999Z</time></trkpt><trkpt lat="42.523420890094975" lon="13.25101094289431"><ele>819.0</ele><time>2026-04-19T10:19:33.999Z</time></trkpt><trkpt lat="42.5235004087113" lon="13.25095411263073"><ele>819.0</ele><time>2026-04-19T10:19:34.999Z</time></trkpt><trkpt lat="42.52357995041836" lon="13.250896651654484"><ele>819.0</ele><time>2026-04-19T10:19:35.999Z</time></trkpt><trkpt lat="42.523665436753866" lon="13.250840531049759"><ele>819.0</ele><time>2026-04-19T10:19:36.999Z</time></trkpt><trkpt lat="42.52375389942471" lon="13.250781723885591"><ele>819.0</ele><time>2026-04-19T10:19:37.999Z</time></trkpt><trkpt lat="42.52384388809052" lon="13.250717807725108"><ele>819.0</ele><time>2026-04-19T10:19:38.999Z</time></trkpt><trkpt lat="42.52393483626391" lon="13.250651453820078"><ele>819.0</ele><time>2026-04-19T10:19:39.999Z</time></trkpt><trkpt lat="42.524025727535374" lon="13.250583452838914"><ele>819.2</ele><time>2026-04-19T10:19:40.999Z</time></trkpt><trkpt lat="42.52411610943665" lon="13.250511582881035"><ele>819.4000000000001</ele><time>2026-04-19T10:19:41.999Z</time></trkpt><trkpt lat="42.52420873122107" lon="13.250444652605529"><ele>819.6</ele><time>2026-04-19T10:19:42.999Z</time></trkpt><trkpt lat="42.524294935302095" lon="13.250376565991274"><ele>819.8</ele><time>2026-04-19T10:19:43.999Z</time></trkpt><trkpt lat="42.524376378978694" lon="13.250313145200689"><ele>820.0</ele><time>2026-04-19T10:19:44.999Z</time></trkpt><trkpt lat="42.524450873370675" lon="13.250253251715288"><ele>819.9999999999999</ele><time>2026-04-19T10:19:45.999Z</time></trkpt><trkpt lat="42.52452159764413" lon="13.250198755919824"><ele>820.0</ele><time>2026-04-19T10:19:46.999Z</time></trkpt><trkpt lat="42.52458769419624" lon="13.250153278142431"><ele>820.0</ele><time>2026-04-19T10:19:47.999Z</time></trkpt><trkpt lat="42.524659895011" lon="13.25010642989733"><ele>820.0</ele><time>2026-04-19T10:19:48.999Z</time></trkpt><trkpt lat="42.524734030222504" lon="13.25005001388135"><ele>819.9999999999999</ele><time>2026-04-19T10:19:49.999Z</time></trkpt><trkpt lat="42.524810878468195" lon="13.24998374455947"><ele>820.0</ele><time>2026-04-19T10:19:50.999Z</time></trkpt><trkpt lat="42.52489151661624" lon="13.249913462418013"><ele>819.8</ele><time>2026-04-19T10:19:51.999Z</time></trkpt><trkpt lat="42.52497524946309" lon="13.249845721919336"><ele>819.6</ele><time>2026-04-19T10:19:52.999Z</time></trkpt><trkpt lat="42.52506287971383" lon="13.24977770421362"><ele>819.4000000000001</ele><time>2026-04-19T10:19:53.999Z</time></trkpt><trkpt lat="42.52515367629084" lon="13.249706305892618"><ele>819.2</ele><time>2026-04-19T10:19:54.999Z</time></trkpt><trkpt lat="42.525244096739904" lon="13.24962963966029"><ele>819.0</ele><time>2026-04-19T10:19:55.999Z</time></trkpt><trkpt lat="42.525333881262846" lon="13.249549306856547"><ele>818.8000000000001</ele><time>2026-04-19T10:19:56.999Z</time></trkpt><trkpt lat="42.52542473657131" lon="13.249464544515101"><ele>818.6</ele><time>2026-04-19T10:19:57.999Z</time></trkpt><trkpt lat="42.52551555128527" lon="13.249381746932674"><ele>818.4</ele><time>2026-04-19T10:19:58.999Z</time></trkpt><trkpt lat="42.52560561115676" lon="13.249299023844662"><ele>818.2</ele><time>2026-04-19T10:19:59.999Z</time></trkpt><trkpt lat="42.52569497202663" lon="13.249215071938092"><ele>818.0</ele><time>2026-04-19T10:20:00.999Z</time></trkpt><trkpt lat="42.52579548040768" lon="13.249151949940236"><ele>818.0</ele><time>2026-04-19T10:20:01.999Z</time></trkpt><trkpt lat="42.52588680742391" lon="13.249071113981003"><ele>818.0</ele><time>2026-04-19T10:20:02.999Z</time></trkpt><trkpt lat="42.525971566534544" lon="13.248973642316141"><ele>818.0</ele><time>2026-04-19T10:20:03.999Z</time></trkpt><trkpt lat="42.5260682719996" lon="13.248892285956813"><ele>818.0</ele><time>2026-04-19T10:20:04.999Z</time></trkpt><trkpt lat="42.52616730656252" lon="13.24880859374704"><ele>818.5</ele><time>2026-04-19T10:20:05.999Z</time></trkpt><trkpt lat="42.52626579454828" lon="13.24872559125583"><ele>819.0</ele><time>2026-04-19T10:20:06.999Z</time></trkpt><trkpt lat="42.52636628169932" lon="13.248634821128698"><ele>819.5</ele><time>2026-04-19T10:20:07.999Z</time></trkpt><trkpt lat="42.526470152944455" lon="13.24854614561658"><ele>820.0</ele><time>2026-04-19T10:20:08.999Z</time></trkpt><trkpt lat="42.526573148998494" lon="13.248453517017868"><ele>820.0</ele><time>2026-04-19T10:20:09.999Z</time></trkpt><trkpt lat="42.52667434420459" lon="13.248357036284364"><ele>820.0</ele><time>2026-04-19T10:20:10.999Z</time></trkpt><trkpt lat="42.52677983929114" lon="13.248262650485055"><ele>820.0</ele><time>2026-04-19T10:20:11.999Z</time></trkpt><trkpt lat="42.52688715122919" lon="13.248168696265761"><ele>820.0</ele><time>2026-04-19T10:20:12.999Z</time></trkpt><trkpt lat="42.52699533416904" lon="13.248077110377045"><ele>819.75</ele><time>2026-04-19T10:20:13.999Z</time></trkpt><trkpt lat="42.5270989213601" lon="13.247990793245062"><ele>819.5</ele><time>2026-04-19T10:20:14.999Z</time></trkpt><trkpt lat="42.52719762862866" lon="13.247898812862369"><ele>819.25</ele><time>2026-04-19T10:20:15.999Z</time></trkpt><trkpt lat="42.52729244067092" lon="13.247808009302158"><ele>819.0</ele><time>2026-04-19T10:20:16.999Z</time></trkpt><trkpt lat="42.52738851872779" lon="13.247722197762117"><ele>819.0</ele><time>2026-04-19T10:20:17.999Z</time></trkpt><trkpt lat="42.52757620769575" lon="13.247554670055724"><ele>819.0</ele><time>2026-04-19T10:20:19.999Z</time></trkpt><trkpt lat="42.527669510247705" lon="13.247469987295375"><ele>819.0</ele><time>2026-04-19T10:20:20.999Z</time></trkpt><trkpt lat="42.52776444471208" lon="13.247387373826543"><ele>819.0</ele><time>2026-04-19T10:20:21.999Z</time></trkpt><trkpt lat="42.52786060985468" lon="13.2473071904291"><ele>819.0</ele><time>2026-04-19T10:20:22.999Z</time></trkpt><trkpt lat="42.52795704689957" lon="13.247226619862774"><ele>819.0</ele><time>2026-04-19T10:20:23.999Z</time></trkpt><trkpt lat="42.52805238979387" lon="13.247147305862617"><ele>819.0</ele><time>2026-04-19T10:20:24.999Z</time></trkpt><trkpt lat="42.52814740343278" lon="13.247061166662915"><ele>819.25</ele><time>2026-04-19T10:20:25.999Z</time></trkpt><trkpt lat="42.528240429482786" lon="13.246974602860151"><ele>819.5</ele><time>2026-04-19T10:20:26.999Z</time></trkpt><trkpt lat="42.528334216240665" lon="13.246888922038169"><ele>819.75</ele><time>2026-04-19T10:20:27.999Z</time></trkpt><trkpt lat="42.528429293280595" lon="13.246802289246613"><ele>820.0</ele><time>2026-04-19T10:20:28.999Z</time></trkpt><trkpt lat="42.528524974938" lon="13.246718153371022"><ele>820.0</ele><time>2026-04-19T10:20:29.999Z</time></trkpt><trkpt lat="42.528620744208006" lon="13.246636555152044"><ele>820.0</ele><time>2026-04-19T10:20:30.999Z</time></trkpt><trkpt lat="42.528718190987256" lon="13.246554326000656"><ele>820.0</ele><time>2026-04-19T10:20:31.999Z</time></trkpt><trkpt lat="42.528819436259326" lon="13.24646721219386"><ele>820.0</ele><time>2026-04-19T10:20:32.999Z</time></trkpt><trkpt lat="42.52892522767243" lon="13.246379836965193"><ele>820.75</ele><time>2026-04-19T10:20:33.999Z</time></trkpt><trkpt lat="42.529037325250954" lon="13.24630033234547"><ele>821.5</ele><time>2026-04-19T10:20:34.999Z</time></trkpt><trkpt lat="42.52915366044041" lon="13.24622959197611"><ele>822.25</ele><time>2026-04-19T10:20:35.999Z</time></trkpt><trkpt lat="42.52926923686828" lon="13.246168961378357"><ele>823.0</ele><time>2026-04-19T10:20:36.999Z</time></trkpt><trkpt lat="42.529382778981365" lon="13.246115196964093"><ele>823.0</ele><time>2026-04-19T10:20:37.999Z</time></trkpt><trkpt lat="42.5294942885622" lon="13.246072560279638"><ele>823.0</ele><time>2026-04-19T10:20:38.999Z</time></trkpt><trkpt lat="42.52972712210461" lon="13.24600048600603"><ele>823.0</ele><time>2026-04-19T10:20:40.999Z</time></trkpt><trkpt lat="42.52984731198569" lon="13.245975053245173"><ele>823.0</ele><time>2026-04-19T10:20:41.999Z</time></trkpt><trkpt lat="42.52997076503721" lon="13.245956365094893"><ele>823.0</ele><time>2026-04-19T10:20:42.999Z</time></trkpt><trkpt lat="42.53009810157598" lon="13.245948369319704"><ele>823.0</ele><time>2026-04-19T10:20:43.999Z</time></trkpt><trkpt lat="42.53022734230879" lon="13.245955992719436"><ele>823.0</ele><time>2026-04-19T10:20:44.999Z</time></trkpt><trkpt lat="42.53036084293034" lon="13.2459702351373"><ele>823.5</ele><time>2026-04-19T10:20:45.999Z</time></trkpt><trkpt lat="42.5304979921398" lon="13.245999363799793"><ele>824.0</ele><time>2026-04-19T10:20:46.999Z</time></trkpt><trkpt lat="42.53063446089092" lon="13.24602821305287"><ele>824.5</ele><time>2026-04-19T10:20:47.999Z</time></trkpt><trkpt lat="42.530766121189146" lon="13.246060072893348"><ele>825.0</ele><time>2026-04-19T10:20:48.999Z</time></trkpt><trkpt lat="42.530894120946186" lon="13.24609296499511"><ele>825.0</ele><time>2026-04-19T10:20:49.999Z</time></trkpt><trkpt lat="42.5310156552232" lon="13.246126177301496"><ele>825.0</ele><time>2026-04-19T10:20:50.999Z</time></trkpt><trkpt lat="42.531137897765284" lon="13.24615831142319"><ele>825.0</ele><time>2026-04-19T10:20:51.999Z</time></trkpt><trkpt lat="42.53126943855665" lon="13.246193209537186"><ele>825.0</ele><time>2026-04-19T10:20:52.999Z</time></trkpt><trkpt lat="42.53141747669229" lon="13.246233833024867"><ele>825.5</ele><time>2026-04-19T10:20:53.999Z</time></trkpt><trkpt lat="42.53157661365769" lon="13.246274486378462"><ele>826.0</ele><time>2026-04-19T10:20:54.999Z</time></trkpt><trkpt lat="42.531719723334916" lon="13.246312791169109"><ele>826.5</ele><time>2026-04-19T10:20:55.999Z</time></trkpt><trkpt lat="42.53184797117069" lon="13.246346658664832"><ele>827.0</ele><time>2026-04-19T10:20:56.999Z</time></trkpt><trkpt lat="42.53196662416461" lon="13.24637659005703"><ele>827.6</ele><time>2026-04-19T10:20:57.999Z</time></trkpt><trkpt lat="42.53207534180974" lon="13.246407673856906"><ele>828.2</ele><time>2026-04-19T10:20:58.999Z</time></trkpt><trkpt lat="42.53215380937101" lon="13.246437521571341"><ele>828.8</ele><time>2026-04-19T10:20:59.999Z</time></trkpt><trkpt lat="42.53221698670413" lon="13.246484044702521"><ele>829.4</ele><time>2026-04-19T10:21:01.999Z</time></trkpt><trkpt lat="42.53226274813212" lon="13.246545723279885"><ele>830.0</ele><time>2026-04-19T10:21:03.999Z</time></trkpt><trkpt lat="42.532312432580824" lon="13.246740325903662"><ele>830.0</ele><time>2026-04-19T10:21:05.999Z</time></trkpt><trkpt lat="42.532342013529764" lon="13.246842426980304"><ele>830.0</ele><time>2026-04-19T10:21:06.999Z</time></trkpt><trkpt lat="42.53237628016044" lon="13.246944499297069"><ele>830.0</ele><time>2026-04-19T10:21:07.999Z</time></trkpt><trkpt lat="42.53242442461709" lon="13.247041884242034"><ele>830.0</ele><time>2026-04-19T10:21:08.998Z</time></trkpt><trkpt lat="42.53249622087226" lon="13.247145072525038"><ele>830.0</ele><time>2026-04-19T10:21:09.998Z</time></trkpt><trkpt lat="42.532591098377075" lon="13.247260721771864"><ele>830.25</ele><time>2026-04-19T10:21:10.998Z</time></trkpt><trkpt lat="42.53269129361748" lon="13.247378885571363"><ele>830.5</ele><time>2026-04-19T10:21:11.998Z</time></trkpt><trkpt lat="42.53279017055246" lon="13.24749231795489"><ele>830.75</ele><time>2026-04-19T10:21:12.998Z</time></trkpt><trkpt lat="42.53289484781528" lon="13.247613309251742"><ele>831.0</ele><time>2026-04-19T10:21:13.998Z</time></trkpt><trkpt lat="42.532998407070906" lon="13.247740242291721"><ele>831.0</ele><time>2026-04-19T10:21:14.998Z</time></trkpt><trkpt lat="42.53309731467332" lon="13.247869389163808"><ele>831.0</ele><time>2026-04-19T10:21:15.998Z</time></trkpt><trkpt lat="42.533202764773826" lon="13.248004159869376"><ele>831.0</ele><time>2026-04-19T10:21:16.998Z</time></trkpt><trkpt lat="42.53330448329991" lon="13.248131932279957"><ele>831.0</ele><time>2026-04-19T10:21:17.998Z</time></trkpt><trkpt lat="42.53340498651974" lon="13.248256735072479"><ele>830.0</ele><time>2026-04-19T10:21:18.998Z</time></trkpt><trkpt lat="42.533510345653774" lon="13.248378634728972"><ele>829.0</ele><time>2026-04-19T10:21:19.998Z</time></trkpt><trkpt lat="42.53361481765725" lon="13.248503877893128"><ele>828.0</ele><time>2026-04-19T10:21:20.998Z</time></trkpt><trkpt lat="42.53371641092498" lon="13.248630853701119"><ele>827.0</ele><time>2026-04-19T10:21:21.998Z</time></trkpt><trkpt lat="42.53381379606801" lon="13.248754303050617"><ele>827.0</ele><time>2026-04-19T10:21:22.998Z</time></trkpt><trkpt lat="42.53391276828879" lon="13.248878840902604"><ele>827.0</ele><time>2026-04-19T10:21:23.998Z</time></trkpt><trkpt lat="42.53401324446525" lon="13.24900280040284"><ele>827.0</ele><time>2026-04-19T10:21:24.998Z</time></trkpt><trkpt lat="42.53410456942005" lon="13.2491200368893"><ele>827.0</ele><time>2026-04-19T10:21:25.998Z</time></trkpt><trkpt lat="42.53420615550193" lon="13.24923611446652"><ele>827.0</ele><time>2026-04-19T10:21:26.998Z</time></trkpt><trkpt lat="42.534306847044675" lon="13.249359330275098"><ele>827.0</ele><time>2026-04-19T10:21:27.998Z</time></trkpt><trkpt lat="42.53440842252808" lon="13.249488422160617"><ele>827.0</ele><time>2026-04-19T10:21:28.998Z</time></trkpt><trkpt lat="42.534512271195744" lon="13.249620240240555"><ele>827.0</ele><time>2026-04-19T10:21:29.998Z</time></trkpt><trkpt lat="42.53461736345545" lon="13.24975036077725"><ele>827.75</ele><time>2026-04-19T10:21:30.998Z</time></trkpt><trkpt lat="42.53472521867627" lon="13.249882062318074"><ele>828.5</ele><time>2026-04-19T10:21:31.998Z</time></trkpt><trkpt lat="42.53483485840783" lon="13.250017348943699"><ele>829.25</ele><time>2026-04-19T10:21:32.998Z</time></trkpt><trkpt lat="42.53494815732098" lon="13.250151174207637"><ele>830.0</ele><time>2026-04-19T10:21:33.998Z</time></trkpt><trkpt lat="42.53505721235535" lon="13.250283473087627"><ele>830.0</ele><time>2026-04-19T10:21:34.998Z</time></trkpt><trkpt lat="42.535166766095436" lon="13.250413109699057"><ele>830.0</ele><time>2026-04-19T10:21:35.998Z</time></trkpt><trkpt lat="42.53527158214786" lon="13.250539456177405"><ele>830.0</ele><time>2026-04-19T10:21:36.998Z</time></trkpt><trkpt lat="42.535371383947165" lon="13.25066239885221"><ele>830.0</ele><time>2026-04-19T10:21:37.998Z</time></trkpt><trkpt lat="42.5354662826127" lon="13.250776638069377"><ele>831.0</ele><time>2026-04-19T10:21:38.998Z</time></trkpt><trkpt lat="42.53555889839023" lon="13.250892617797595"><ele>832.0</ele><time>2026-04-19T10:21:39.998Z</time></trkpt><trkpt lat="42.535656619280275" lon="13.251016052783912"><ele>833.0</ele><time>2026-04-19T10:21:40.998Z</time></trkpt><trkpt lat="42.5357562948276" lon="13.251142840825315"><ele>834.0</ele><time>2026-04-19T10:21:41.999Z</time></trkpt><trkpt lat="42.53585371577175" lon="13.251282642110578"><ele>834.0</ele><time>2026-04-19T10:21:42.999Z</time></trkpt><trkpt lat="42.53594262609763" lon="13.251435926904328"><ele>834.0</ele><time>2026-04-19T10:21:43.999Z</time></trkpt><trkpt lat="42.53602102517363" lon="13.25160011771598"><ele>834.0</ele><time>2026-04-19T10:21:44.999Z</time></trkpt><trkpt lat="42.53609124221803" lon="13.251771988099975"><ele>834.0</ele><time>2026-04-19T10:21:45.999Z</time></trkpt><trkpt lat="42.53614319422275" lon="13.251936650705701"><ele>834.25</ele><time>2026-04-19T10:21:46.999Z</time></trkpt><trkpt lat="42.536175083313765" lon="13.252103341707695"><ele>834.5</ele><time>2026-04-19T10:21:47.999Z</time></trkpt><trkpt lat="42.53619409416593" lon="13.252272305760489"><ele>834.75</ele><time>2026-04-19T10:21:48.999Z</time></trkpt><trkpt lat="42.536213960724346" lon="13.252450580905357"><ele>835.0</ele><time>2026-04-19T10:21:49.999Z</time></trkpt><trkpt lat="42.53624100529357" lon="13.252630798029005"><ele>835.0</ele><time>2026-04-19T10:21:50.999Z</time></trkpt><trkpt lat="42.5362682998267" lon="13.252808716685237"><ele>835.0</ele><time>2026-04-19T10:21:51.999Z</time></trkpt><trkpt lat="42.53629146217495" lon="13.252976460410839"><ele>835.0</ele><time>2026-04-19T10:21:52.999Z</time></trkpt><trkpt lat="42.53630621157596" lon="13.25312073285319"><ele>835.0</ele><time>2026-04-19T10:21:53.999Z</time></trkpt><trkpt lat="42.53632280638164" lon="13.253251381772818"><ele>835.2</ele><time>2026-04-19T10:21:54.999Z</time></trkpt><trkpt lat="42.536337304690925" lon="13.253378821824679"><ele>835.4</ele><time>2026-04-19T10:21:55.999Z</time></trkpt><trkpt lat="42.53635715414763" lon="13.253510315987038"><ele>835.5999999999999</ele><time>2026-04-19T10:21:56.999Z</time></trkpt><trkpt lat="42.53639069407816" lon="13.253638489931728"><ele>835.8</ele><time>2026-04-19T10:21:57.999Z</time></trkpt><trkpt lat="42.53644519720675" lon="13.253758537095381"><ele>836.0</ele><time>2026-04-19T10:21:58.999Z</time></trkpt><trkpt lat="42.53651294934381" lon="13.253867934019798"><ele>837.0</ele><time>2026-04-19T10:21:59.999Z</time></trkpt><trkpt lat="42.53658990505087" lon="13.2539736889144"><ele>838.0</ele><time>2026-04-19T10:22:00.999Z</time></trkpt><trkpt lat="42.53667542823757" lon="13.254070232281324"><ele>839.0</ele><time>2026-04-19T10:22:01.999Z</time></trkpt><trkpt lat="42.536764825836066" lon="13.254189676243064"><ele>840.0</ele><time>2026-04-19T10:22:02.999Z</time></trkpt><trkpt lat="42.53685978330354" lon="13.254318684425073"><ele>840.0</ele><time>2026-04-19T10:22:03.999Z</time></trkpt><trkpt lat="42.53696930396708" lon="13.254456196018866"><ele>840.0</ele><time>2026-04-19T10:22:04.999Z</time></trkpt><trkpt lat="42.53710284499447" lon="13.254601375734417"><ele>840.0</ele><time>2026-04-19T10:22:05.999Z</time></trkpt><trkpt lat="42.53724627714435" lon="13.254734957749104"><ele>842.6666666666667</ele><time>2026-04-19T10:22:06.999Z</time></trkpt><trkpt lat="42.53738346212875" lon="13.254858822100799"><ele>845.3333333333334</ele><time>2026-04-19T10:22:07.999Z</time></trkpt><trkpt lat="42.53753075799381" lon="13.254977119096289"><ele>848.0</ele><time>2026-04-19T10:22:08.999Z</time></trkpt><trkpt lat="42.53768376628048" lon="13.255079907486003"><ele>848.0</ele><time>2026-04-19T10:22:09.999Z</time></trkpt><trkpt lat="42.53783461785639" lon="13.25518454114102"><ele>848.0</ele><time>2026-04-19T10:22:10.999Z</time></trkpt><trkpt lat="42.53796498810993" lon="13.25528733482032"><ele>848.0</ele><time>2026-04-19T10:22:11.999Z</time></trkpt><trkpt lat="42.53809157986576" lon="13.255394988225"><ele>848.25</ele><time>2026-04-19T10:22:12.999Z</time></trkpt><trkpt lat="42.53821409845472" lon="13.25548996679291"><ele>848.5</ele><time>2026-04-19T10:22:13.999Z</time></trkpt><trkpt lat="42.53833720290147" lon="13.255580534294687"><ele>848.75</ele><time>2026-04-19T10:22:14.999Z</time></trkpt><trkpt lat="42.53844941552828" lon="13.25566527406198"><ele>849.0</ele><time>2026-04-19T10:22:15.999Z</time></trkpt><trkpt lat="42.538554254451725" lon="13.255764128679955"><ele>849.0</ele><time>2026-04-19T10:22:16.999Z</time></trkpt><trkpt lat="42.53866830335483" lon="13.255865521206832"><ele>849.0</ele><time>2026-04-19T10:22:17.999Z</time></trkpt><trkpt lat="42.53878101791372" lon="13.255972795048176"><ele>849.0</ele><time>2026-04-19T10:22:18.999Z</time></trkpt><trkpt lat="42.53890938558656" lon="13.256095254694115"><ele>849.0</ele><time>2026-04-19T10:22:19.999Z</time></trkpt><trkpt lat="42.53904364174292" lon="13.25623156792145"><ele>849.6666666666667</ele><time>2026-04-19T10:22:20.999Z</time></trkpt><trkpt lat="42.5391837637347" lon="13.256368091811067"><ele>850.3333333333334</ele><time>2026-04-19T10:22:21.999Z</time></trkpt><trkpt lat="42.53931722496791" lon="13.256502322271464"><ele>851.0</ele><time>2026-04-19T10:22:22.999Z</time></trkpt><trkpt lat="42.539429213278936" lon="13.256611085122797"><ele>851.0</ele><time>2026-04-19T10:22:23.999Z</time></trkpt><trkpt lat="42.53952636201621" lon="13.256708817785256"><ele>851.0</ele><time>2026-04-19T10:22:24.999Z</time></trkpt><trkpt lat="42.53960934325648" lon="13.256804597233076"><ele>851.0</ele><time>2026-04-19T10:22:25.999Z</time></trkpt><trkpt lat="42.5396873877366" lon="13.256890559133847"><ele>851.0</ele><time>2026-04-19T10:22:26.999Z</time></trkpt><trkpt lat="42.53975657486945" lon="13.256969393896952"><ele>851.0</ele><time>2026-04-19T10:22:27.999Z</time></trkpt><trkpt lat="42.53982128411793" lon="13.257032752205697"><ele>852.1666666666667</ele><time>2026-04-19T10:22:28.999Z</time></trkpt><trkpt lat="42.53988076046864" lon="13.257089925214162"><ele>853.3333333333334</ele><time>2026-04-19T10:22:29.999Z</time></trkpt><trkpt lat="42.53993731627276" lon="13.257144272283858"><ele>854.5</ele><time>2026-04-19T10:22:30.999Z</time></trkpt><trkpt lat="42.540028587826235" lon="13.257236753576265"><ele>855.6666666666667</ele><time>2026-04-19T10:22:32.999Z</time></trkpt><trkpt lat="42.540102511248264" lon="13.257322146192354"><ele>856.8333333333334</ele><time>2026-04-19T10:22:34.999Z</time></trkpt><trkpt lat="42.540150160923176" lon="13.257380684559259"><ele>858.0</ele><time>2026-04-19T10:22:36.999Z</time></trkpt><trkpt lat="42.540215184263246" lon="13.257449513511247"><ele>858.0</ele><time>2026-04-19T10:22:38.999Z</time></trkpt><trkpt lat="42.54029906788588" lon="13.257508671547113"><ele>858.0</ele><time>2026-04-19T10:22:40.999Z</time></trkpt><trkpt lat="42.54035274006912" lon="13.257563857018344"><ele>858.0</ele><time>2026-04-19T10:23:43.999Z</time></trkpt><trkpt lat="42.54042788855207" lon="13.257660132516014"><ele>858.0</ele><time>2026-04-19T10:23:46.999Z</time></trkpt><trkpt lat="42.540514265705944" lon="13.257748455955268"><ele>858.0</ele><time>2026-04-19T10:23:48.999Z</time></trkpt><trkpt lat="42.540565917589866" lon="13.257800475369335"><ele>858.0</ele><time>2026-04-19T10:23:49.999Z</time></trkpt><trkpt lat="42.54062021665469" lon="13.25785516059805"><ele>859.5999999999999</ele><time>2026-04-19T10:23:50.999Z</time></trkpt><trkpt lat="42.540674547147496" lon="13.257912132187736"><ele>861.1999999999999</ele><time>2026-04-19T10:23:51.999Z</time></trkpt><trkpt lat="42.54073167621843" lon="13.257980596907355"><ele>862.8</ele><time>2026-04-19T10:23:52.999Z</time></trkpt><trkpt lat="42.540788735203165" lon="13.258077983127526"><ele>864.4</ele><time>2026-04-19T10:23:53.999Z</time></trkpt><trkpt lat="42.540845121828674" lon="13.258221326774738"><ele>866.0</ele><time>2026-04-19T10:23:54.999Z</time></trkpt><trkpt lat="42.540905315063306" lon="13.25837015234738"><ele>866.0</ele><time>2026-04-19T10:23:55.999Z</time></trkpt><trkpt lat="42.54103869004189" lon="13.25867602172919"><ele>866.0</ele><time>2026-04-19T10:23:57.999Z</time></trkpt><trkpt lat="42.541101261382536" lon="13.258828574070886"><ele>866.0</ele><time>2026-04-19T10:23:58.999Z</time></trkpt><trkpt lat="42.54118031032939" lon="13.25897069256865"><ele>869.0</ele><time>2026-04-19T10:23:59.999Z</time></trkpt><trkpt lat="42.54127641420873" lon="13.259099989691864"><ele>872.0</ele><time>2026-04-19T10:24:00.999Z</time></trkpt><trkpt lat="42.54138937684596" lon="13.2591981273903"><ele>875.0</ele><time>2026-04-19T10:24:01.999Z</time></trkpt><trkpt lat="42.54151784970278" lon="13.25927403842619"><ele>878.0</ele><time>2026-04-19T10:24:02.999Z</time></trkpt><trkpt lat="42.54162963683403" lon="13.259371752872763"><ele>878.0</ele><time>2026-04-19T10:24:03.999Z</time></trkpt><trkpt lat="42.54174112943912" lon="13.259473547064855"><ele>878.0</ele><time>2026-04-19T10:24:04.999Z</time></trkpt><trkpt lat="42.541830325259966" lon="13.259601901261261"><ele>878.0</ele><time>2026-04-19T10:24:05.999Z</time></trkpt><trkpt lat="42.541887800575985" lon="13.259763452194598"><ele>878.0</ele><time>2026-04-19T10:24:06.999Z</time></trkpt><trkpt lat="42.54192166412377" lon="13.259941980275824"><ele>876.75</ele><time>2026-04-19T10:24:07.999Z</time></trkpt><trkpt lat="42.5419847475323" lon="13.260112393640377"><ele>875.5</ele><time>2026-04-19T10:24:08.999Z</time></trkpt><trkpt lat="42.54204161495444" lon="13.260283151757553"><ele>874.25</ele><time>2026-04-19T10:24:09.999Z</time></trkpt><trkpt lat="42.542112830628135" lon="13.260424103067788"><ele>873.0</ele><time>2026-04-19T10:24:10.999Z</time></trkpt><trkpt lat="42.54220585537923" lon="13.26053128203842"><ele>873.0</ele><time>2026-04-19T10:24:11.999Z</time></trkpt><trkpt lat="42.54233665648724" lon="13.260607248938237"><ele>873.0</ele><time>2026-04-19T10:24:12.999Z</time></trkpt><trkpt lat="42.542479602885024" lon="13.260668856105633"><ele>873.0</ele><time>2026-04-19T10:24:13.999Z</time></trkpt><trkpt lat="42.54260134649166" lon="13.26073538452307"><ele>873.0</ele><time>2026-04-19T10:24:14.999Z</time></trkpt><trkpt lat="42.542664479572515" lon="13.260858498493514"><ele>873.0</ele><time>2026-04-19T10:24:15.999Z</time></trkpt><trkpt lat="42.54270356312386" lon="13.26098891569922"><ele>873.0</ele><time>2026-04-19T10:24:16.999Z</time></trkpt><trkpt lat="42.54269838606793" lon="13.261146161453489"><ele>873.0</ele><time>2026-04-19T10:24:17.999Z</time></trkpt><trkpt lat="42.542667283552625" lon="13.261303037210865"><ele>873.0</ele><time>2026-04-19T10:24:18.999Z</time></trkpt><trkpt lat="42.54264957764813" lon="13.261481922630452"><ele>872.3333333333333</ele><time>2026-04-19T10:24:19.999Z</time></trkpt><trkpt lat="42.54261353536525" lon="13.261665504041927"><ele>871.6666666666666</ele><time>2026-04-19T10:24:20.999Z</time></trkpt><trkpt lat="42.54260727785665" lon="13.261886527932397"><ele>871.0</ele><time>2026-04-19T10:24:21.999Z</time></trkpt><trkpt lat="42.542637386038905" lon="13.262104595297043"><ele>870.5</ele><time>2026-04-19T10:24:22.999Z</time></trkpt><trkpt lat="42.54267566570421" lon="13.262295891439603"><ele>870.0</ele><time>2026-04-19T10:24:23.999Z</time></trkpt><trkpt lat="42.54272022822971" lon="13.26246412314585"><ele>869.5</ele><time>2026-04-19T10:24:24.999Z</time></trkpt><trkpt lat="42.54276498374699" lon="13.26260804325135"><ele>869.0</ele><time>2026-04-19T10:24:25.999Z</time></trkpt><trkpt lat="42.542816301148754" lon="13.262741159252595"><ele>871.0</ele><time>2026-04-19T10:24:26.999Z</time></trkpt><trkpt lat="42.54288262232551" lon="13.26291870958745"><ele>873.0</ele><time>2026-04-19T10:24:27.999Z</time></trkpt><trkpt lat="42.54296795609642" lon="13.263079247454582"><ele>875.0</ele><time>2026-04-19T10:24:28.999Z</time></trkpt><trkpt lat="42.54306795938464" lon="13.263198758134429"><ele>877.0</ele><time>2026-04-19T10:24:29.999Z</time></trkpt><trkpt lat="42.54319794943881" lon="13.263281101959706"><ele>877.0</ele><time>2026-04-19T10:24:30.999Z</time></trkpt><trkpt lat="42.543352070225446" lon="13.2633237400294"><ele>877.0</ele><time>2026-04-19T10:24:31.999Z</time></trkpt><trkpt lat="42.54352914154949" lon="13.26335539706764"><ele>877.0</ele><time>2026-04-19T10:24:32.999Z</time></trkpt><trkpt lat="42.543719846373214" lon="13.26340219282203"><ele>883.0</ele><time>2026-04-19T10:24:33.999Z</time></trkpt><trkpt lat="42.54391971201687" lon="13.263499091574683"><ele>889.0</ele><time>2026-04-19T10:24:34.999Z</time></trkpt><trkpt lat="42.544092327708505" lon="13.263659340286248"><ele>895.0</ele><time>2026-04-19T10:24:35.999Z</time></trkpt><trkpt lat="42.5442539393607" lon="13.263788285912629"><ele>893.6666666666666</ele><time>2026-04-19T10:24:36.999Z</time></trkpt><trkpt lat="42.544381022670294" lon="13.26399751233875"><ele>892.3333333333333</ele><time>2026-04-19T10:24:37.999Z</time></trkpt><trkpt lat="42.54451560170507" lon="13.264187296557022"><ele>891.0</ele><time>2026-04-19T10:24:38.999Z</time></trkpt><trkpt lat="42.544622273112644" lon="13.264345857296743"><ele>891.0</ele><time>2026-04-19T10:24:39.999Z</time></trkpt><trkpt lat="42.54474032202648" lon="13.264415567119663"><ele>891.0</ele><time>2026-04-19T10:24:40.999Z</time></trkpt><trkpt lat="42.54486493291937" lon="13.26440566205772"><ele>891.0</ele><time>2026-04-19T10:24:41.999Z</time></trkpt><trkpt lat="42.54499583488527" lon="13.264334236589606"><ele>891.0</ele><time>2026-04-19T10:24:42.999Z</time></trkpt><trkpt lat="42.54513865659352" lon="13.264228929960934"><ele>891.0</ele><time>2026-04-19T10:24:43.999Z</time></trkpt><trkpt lat="42.54527415566749" lon="13.264151044704725"><ele>891.0</ele><time>2026-04-19T10:24:44.999Z</time></trkpt><trkpt lat="42.545367628581815" lon="13.264118416948012"><ele>891.0</ele><time>2026-04-19T10:24:45.999Z</time></trkpt><trkpt lat="42.54547207149428" lon="13.26416660420993"><ele>891.0</ele><time>2026-04-19T10:24:46.999Z</time></trkpt><trkpt lat="42.54556184976743" lon="13.264282147943963"><ele>893.6666666666667</ele><time>2026-04-19T10:24:47.999Z</time></trkpt><trkpt lat="42.54568625482017" lon="13.264389618565533"><ele>896.3333333333334</ele><time>2026-04-19T10:24:48.999Z</time></trkpt><trkpt lat="42.54584141368862" lon="13.264472643131413"><ele>899.0</ele><time>2026-04-19T10:24:49.999Z</time></trkpt><trkpt lat="42.54603494351123" lon="13.264543284497396"><ele>906.3333333333334</ele><time>2026-04-19T10:24:50.999Z</time></trkpt><trkpt lat="42.54623733026249" lon="13.264607915769249"><ele>913.6666666666667</ele><time>2026-04-19T10:24:51.999Z</time></trkpt><trkpt lat="42.54641554077665" lon="13.26465933328036"><ele>921.0</ele><time>2026-04-19T10:24:52.999Z</time></trkpt><trkpt lat="42.54656098328809" lon="13.264736778477742"><ele>915.5999999999999</ele><time>2026-04-19T10:24:53.999Z</time></trkpt><trkpt lat="42.546678320583396" lon="13.264784588750711"><ele>910.1999999999999</ele><time>2026-04-19T10:24:54.999Z</time></trkpt><trkpt lat="42.54676229802912" lon="13.264826959930376"><ele>904.8000000000001</ele><time>2026-04-19T10:24:55.999Z</time></trkpt><trkpt lat="42.54680420445386" lon="13.264927813722915"><ele>899.4000000000001</ele><time>2026-04-19T10:24:56.999Z</time></trkpt><trkpt lat="42.54679619921033" lon="13.265051770450986"><ele>894.0</ele><time>2026-04-19T10:24:57.999Z</time></trkpt><trkpt lat="42.54674277379699" lon="13.265163907065524"><ele>894.0</ele><time>2026-04-19T10:24:58.999Z</time></trkpt><trkpt lat="42.546640962434715" lon="13.265236290544093"><ele>894.0</ele><time>2026-04-19T10:24:59.999Z</time></trkpt><trkpt lat="42.54649205539538" lon="13.265218747497551"><ele>894.0</ele><time>2026-04-19T10:25:00.999Z</time></trkpt><trkpt lat="42.54632965849243" lon="13.265226512093783"><ele>894.0</ele><time>2026-04-19T10:25:01.999Z</time></trkpt><trkpt lat="42.54617312089889" lon="13.265235267039612"><ele>893.0</ele><time>2026-04-19T10:25:02.999Z</time></trkpt><trkpt lat="42.546020940658444" lon="13.265311037257813"><ele>892.0</ele><time>2026-04-19T10:25:03.999Z</time></trkpt><trkpt lat="42.545902406012075" lon="13.265433060228943"><ele>891.0</ele><time>2026-04-19T10:25:04.999Z</time></trkpt><trkpt lat="42.54583547145088" lon="13.265574043147014"><ele>890.0</ele><time>2026-04-19T10:25:05.999Z</time></trkpt><trkpt lat="42.54581538463679" lon="13.265726038010655"><ele>890.0</ele><time>2026-04-19T10:25:06.999Z</time></trkpt><trkpt lat="42.54584096198329" lon="13.265906694564565"><ele>890.0</ele><time>2026-04-19T10:25:07.999Z</time></trkpt><trkpt lat="42.545907007485575" lon="13.266090067039823"><ele>890.0</ele><time>2026-04-19T10:25:08.999Z</time></trkpt><trkpt lat="42.54601831007625" lon="13.266268495254947"><ele>888.0</ele><time>2026-04-19T10:25:09.999Z</time></trkpt><trkpt lat="42.5461372190921" lon="13.266449607481594"><ele>886.0</ele><time>2026-04-19T10:25:10.999Z</time></trkpt><trkpt lat="42.54623777924828" lon="13.266605460305168"><ele>884.0</ele><time>2026-04-19T10:25:11.999Z</time></trkpt><trkpt lat="42.546347965697784" lon="13.266691732235495"><ele>890.0</ele><time>2026-04-19T10:25:12.999Z</time></trkpt><trkpt lat="42.546494728681814" lon="13.266740114100275"><ele>896.0</ele><time>2026-04-19T10:25:13.999Z</time></trkpt><trkpt lat="42.54663033053688" lon="13.266839577979104"><ele>902.0</ele><time>2026-04-19T10:25:14.999Z</time></trkpt><trkpt lat="42.5467170664394" lon="13.266974420069552"><ele>908.0</ele><time>2026-04-19T10:25:15.999Z</time></trkpt><trkpt lat="42.54682564767932" lon="13.267114901350675"><ele>908.0</ele><time>2026-04-19T10:25:16.999Z</time></trkpt><trkpt lat="42.54696993277394" lon="13.267172487124183"><ele>908.0</ele><time>2026-04-19T10:25:17.999Z</time></trkpt><trkpt lat="42.54708157645513" lon="13.26723932663446"><ele>908.0</ele><time>2026-04-19T10:25:18.999Z</time></trkpt><trkpt lat="42.547149581643886" lon="13.267309691582927"><ele>908.0</ele><time>2026-04-19T10:25:19.999Z</time></trkpt><trkpt lat="42.54718051434977" lon="13.267433626392263"><ele>911.0</ele><time>2026-04-19T10:25:20.999Z</time></trkpt><trkpt lat="42.54717454372579" lon="13.26760664817556"><ele>914.0</ele><time>2026-04-19T10:25:21.999Z</time></trkpt><trkpt lat="42.547210899476354" lon="13.267812112333635"><ele>917.0</ele><time>2026-04-19T10:25:22.999Z</time></trkpt><trkpt lat="42.54731648644393" lon="13.267988155300078"><ele>911.0</ele><time>2026-04-19T10:25:23.999Z</time></trkpt><trkpt lat="42.54746530044761" lon="13.268126357347912"><ele>905.0</ele><time>2026-04-19T10:25:24.999Z</time></trkpt><trkpt lat="42.54758924475216" lon="13.268224005805088"><ele>899.0</ele><time>2026-04-19T10:25:25.999Z</time></trkpt><trkpt lat="42.54773044409203" lon="13.268244982459654"><ele>904.5</ele><time>2026-04-19T10:25:26.999Z</time></trkpt><trkpt lat="42.54789750581194" lon="13.268258150528352"><ele>910.0</ele><time>2026-04-19T10:25:27.999Z</time></trkpt><trkpt lat="42.548050294947636" lon="13.268272869396812"><ele>915.5</ele><time>2026-04-19T10:25:28.999Z</time></trkpt><trkpt lat="42.548157639266236" lon="13.268301249743823"><ele>921.0</ele><time>2026-04-19T10:25:29.999Z</time></trkpt><trkpt lat="42.548215484374595" lon="13.268383676983607"><ele>921.0</ele><time>2026-04-19T10:25:30.999Z</time></trkpt><trkpt lat="42.548272530600045" lon="13.26846271562902"><ele>921.0</ele><time>2026-04-19T10:25:31.999Z</time></trkpt><trkpt lat="42.548254270650986" lon="13.268635566192945"><ele>921.0</ele><time>2026-04-19T10:25:32.999Z</time></trkpt><trkpt lat="42.54829044447446" lon="13.268836705162704"><ele>921.0</ele><time>2026-04-19T10:25:33.999Z</time></trkpt><trkpt lat="42.548356600504185" lon="13.269034929127136"><ele>917.3333333333333</ele><time>2026-04-19T10:25:34.999Z</time></trkpt><trkpt lat="42.54846701298369" lon="13.269232313935595"><ele>913.6666666666666</ele><time>2026-04-19T10:25:35.999Z</time></trkpt><trkpt lat="42.548590304935075" lon="13.26942410751002"><ele>910.0</ele><time>2026-04-19T10:25:36.999Z</time></trkpt><trkpt lat="42.54869810058459" lon="13.269582313877379"><ele>919.6666666666666</ele><time>2026-04-19T10:25:37.999Z</time></trkpt><trkpt lat="42.54881939648463" lon="13.269693272509299"><ele>929.3333333333333</ele><time>2026-04-19T10:25:38.999Z</time></trkpt><trkpt lat="42.54896693804477" lon="13.269738311863897"><ele>939.0</ele><time>2026-04-19T10:25:39.999Z</time></trkpt><trkpt lat="42.54913210695118" lon="13.26973930372081"><ele>939.75</ele><time>2026-04-19T10:25:40.999Z</time></trkpt><trkpt lat="42.54928998552381" lon="13.269777951429027"><ele>940.5</ele><time>2026-04-19T10:25:41.999Z</time></trkpt><trkpt lat="42.54941850073172" lon="13.269842235832277"><ele>941.25</ele><time>2026-04-19T10:25:42.999Z</time></trkpt><trkpt lat="42.54950052124198" lon="13.269955007372523"><ele>942.0</ele><time>2026-04-19T10:25:43.999Z</time></trkpt><trkpt lat="42.549587157744504" lon="13.270106597311832"><ele>942.0</ele><time>2026-04-19T10:25:44.999Z</time></trkpt><trkpt lat="42.54967311939069" lon="13.27026584171345"><ele>942.0</ele><time>2026-04-19T10:25:45.999Z</time></trkpt><trkpt lat="42.54973151118222" lon="13.270412374837633"><ele>942.0</ele><time>2026-04-19T10:25:46.999Z</time></trkpt><trkpt lat="42.54972216768104" lon="13.270568671507766"><ele>942.0</ele><time>2026-04-19T10:25:47.999Z</time></trkpt><trkpt lat="42.54967900531943" lon="13.270745490582838"><ele>940.0</ele><time>2026-04-19T10:25:48.999Z</time></trkpt><trkpt lat="42.54963672179871" lon="13.270926788363269"><ele>938.0</ele><time>2026-04-19T10:25:49.999Z</time></trkpt><trkpt lat="42.549667881678104" lon="13.271078635260016"><ele>936.0</ele><time>2026-04-19T10:25:50.999Z</time></trkpt><trkpt lat="42.54975183216023" lon="13.271199216886307"><ele>934.0</ele><time>2026-04-19T10:25:51.999Z</time></trkpt><trkpt lat="42.549889525272775" lon="13.27131259679241"><ele>934.0</ele><time>2026-04-19T10:25:52.999Z</time></trkpt><trkpt lat="42.55005728925291" lon="13.271425832413412"><ele>934.0</ele><time>2026-04-19T10:25:53.999Z</time></trkpt><trkpt lat="42.55025808353594" lon="13.271494521858935"><ele>934.0</ele><time>2026-04-19T10:25:54.999Z</time></trkpt><trkpt lat="42.55047600196773" lon="13.271562390343695"><ele>935.0</ele><time>2026-04-19T10:25:55.999Z</time></trkpt><trkpt lat="42.55071770399407" lon="13.271618139782255"><ele>936.0</ele><time>2026-04-19T10:25:56.999Z</time></trkpt><trkpt lat="42.55095213685575" lon="13.27170161915601"><ele>938.0</ele><time>2026-04-19T10:25:57.999Z</time></trkpt><trkpt lat="42.55120749481791" lon="13.271762809324914"><ele>940.0</ele><time>2026-04-19T10:25:58.999Z</time></trkpt><trkpt lat="42.55145846547582" lon="13.271797834038583"><ele>940.0</ele><time>2026-04-19T10:25:59.999Z</time></trkpt><trkpt lat="42.55163389191448" lon="13.271854179541432"><ele>940.0</ele><time>2026-04-19T10:26:00.999Z</time></trkpt><trkpt lat="42.55176948763568" lon="13.271845345804465"><ele>940.0</ele><time>2026-04-19T10:26:01.999Z</time></trkpt><trkpt lat="42.55188152943909" lon="13.27180531689234"><ele>940.0</ele><time>2026-04-19T10:26:02.999Z</time></trkpt><trkpt lat="42.55199574707441" lon="13.271704466583396"><ele>939.5</ele><time>2026-04-19T10:26:03.999Z</time></trkpt><trkpt lat="42.5521224231159" lon="13.271621812486018"><ele>939.0</ele><time>2026-04-19T10:26:04.999Z</time></trkpt><trkpt lat="42.552242979224935" lon="13.271647129518783"><ele>938.5</ele><time>2026-04-19T10:26:05.999Z</time></trkpt><trkpt lat="42.55235708774895" lon="13.271629098626883"><ele>938.0</ele><time>2026-04-19T10:26:06.999Z</time></trkpt><trkpt lat="42.55246479514294" lon="13.271584371324016"><ele>938.0</ele><time>2026-04-19T10:26:07.999Z</time></trkpt><trkpt lat="42.55252431356533" lon="13.271444589111432"><ele>938.0</ele><time>2026-04-19T10:26:08.999Z</time></trkpt><trkpt lat="42.55255417927594" lon="13.271278085152009"><ele>938.0</ele><time>2026-04-19T10:26:09.999Z</time></trkpt><trkpt lat="42.55256600803133" lon="13.271076987699056"><ele>938.0</ele><time>2026-04-19T10:26:10.999Z</time></trkpt><trkpt lat="42.552620989756264" lon="13.270913963765599"><ele>940.8</ele><time>2026-04-19T10:26:11.999Z</time></trkpt><trkpt lat="42.552676274372" lon="13.270793571729149"><ele>943.5999999999999</ele><time>2026-04-19T10:26:12.999Z</time></trkpt><trkpt lat="42.552736441894695" lon="13.270704911984371"><ele>946.4000000000001</ele><time>2026-04-19T10:26:13.999Z</time></trkpt><trkpt lat="42.55284395053032" lon="13.270721163234958"><ele>949.2</ele><time>2026-04-19T10:26:14.999Z</time></trkpt><trkpt lat="42.5529332896146" lon="13.27076364580008"><ele>952.0</ele><time>2026-04-19T10:26:15.999Z</time></trkpt><trkpt lat="42.55302915346331" lon="13.270832797976844"><ele>950.3333333333333</ele><time>2026-04-19T10:26:16.999Z</time></trkpt><trkpt lat="42.55308101172975" lon="13.270992864506455"><ele>948.6666666666667</ele><time>2026-04-19T10:26:17.999Z</time></trkpt><trkpt lat="42.553112765364645" lon="13.27121779064886"><ele>947.0</ele><time>2026-04-19T10:26:18.999Z</time></trkpt><trkpt lat="42.553154467789284" lon="13.271475916792117"><ele>947.0</ele><time>2026-04-19T10:26:19.999Z</time></trkpt><trkpt lat="42.55320212462986" lon="13.271688007312239"><ele>947.0</ele><time>2026-04-19T10:26:20.999Z</time></trkpt><trkpt lat="42.5532603536428" lon="13.27181199967323"><ele>947.0</ele><time>2026-04-19T10:26:21.999Z</time></trkpt><trkpt lat="42.55334530432064" lon="13.271881594995312"><ele>947.0</ele><time>2026-04-19T10:26:23Z</time></trkpt><trkpt lat="42.55346454281547" lon="13.271902138499035"><ele>947.0</ele><time>2026-04-19T10:26:24Z</time></trkpt><trkpt lat="42.55358050302461" lon="13.271867757576912"><ele>947.0</ele><time>2026-04-19T10:26:25Z</time></trkpt><trkpt lat="42.553699701689034" lon="13.271761514621389"><ele>947.0</ele><time>2026-04-19T10:26:26Z</time></trkpt><trkpt lat="42.55382850463117" lon="13.271624890015614"><ele>947.0</ele><time>2026-04-19T10:26:27Z</time></trkpt><trkpt lat="42.553952069848506" lon="13.271507739172758"><ele>950.6666666666667</ele><time>2026-04-19T10:26:28Z</time></trkpt><trkpt lat="42.55407126837119" lon="13.271380607066675"><ele>954.3333333333333</ele><time>2026-04-19T10:26:29Z</time></trkpt><trkpt lat="42.55416482251773" lon="13.271177899330697"><ele>958.0</ele><time>2026-04-19T10:26:30Z</time></trkpt><trkpt lat="42.55424306048283" lon="13.270935777875762"><ele>958.0</ele><time>2026-04-19T10:26:31Z</time></trkpt><trkpt lat="42.554314349046784" lon="13.2707441168833"><ele>958.0</ele><time>2026-04-19T10:26:32Z</time></trkpt><trkpt lat="42.55439097931188" lon="13.270612096854158"><ele>958.0</ele><time>2026-04-19T10:26:33Z</time></trkpt><trkpt lat="42.55448804772181" lon="13.270529722016411"><ele>958.0</ele><time>2026-04-19T10:26:34Z</time></trkpt><trkpt lat="42.55463466192935" lon="13.270510455987866"><ele>961.6666666666666</ele><time>2026-04-19T10:26:35Z</time></trkpt><trkpt lat="42.55479129215878" lon="13.270452164394614"><ele>965.3333333333333</ele><time>2026-04-19T10:26:36Z</time></trkpt><trkpt lat="42.55493634930177" lon="13.270360067415263"><ele>969.0</ele><time>2026-04-19T10:26:37Z</time></trkpt><trkpt lat="42.55502619599265" lon="13.270219077928962"><ele>969.0</ele><time>2026-04-19T10:26:38Z</time></trkpt><trkpt lat="42.55513022771204" lon="13.270135888124297"><ele>969.0</ele><time>2026-04-19T10:26:39Z</time></trkpt><trkpt lat="42.55524589987431" lon="13.270187647915026"><ele>969.0</ele><time>2026-04-19T10:26:40Z</time></trkpt><trkpt lat="42.55535179940128" lon="13.27020959156098"><ele>969.0</ele><time>2026-04-19T10:26:41Z</time></trkpt><trkpt lat="42.55545609993552" lon="13.270216422841552"><ele>969.75</ele><time>2026-04-19T10:26:42Z</time></trkpt><trkpt lat="42.555535947327456" lon="13.270130580811905"><ele>970.5</ele><time>2026-04-19T10:26:43Z</time></trkpt><trkpt lat="42.555556184331465" lon="13.269978217988584"><ele>971.25</ele><time>2026-04-19T10:26:44Z</time></trkpt><trkpt lat="42.555534232832315" lon="13.269782073838645"><ele>972.0</ele><time>2026-04-19T10:26:45Z</time></trkpt><trkpt lat="42.55548387929144" lon="13.269575323509702"><ele>972.0</ele><time>2026-04-19T10:26:46Z</time></trkpt><trkpt lat="42.55543491544957" lon="13.269351718385469"><ele>972.0</ele><time>2026-04-19T10:26:47Z</time></trkpt><trkpt lat="42.555375334612584" lon="13.269155209434588"><ele>972.0</ele><time>2026-04-19T10:26:48Z</time></trkpt><trkpt lat="42.55526414930799" lon="13.268998989775804"><ele>972.75</ele><time>2026-04-19T10:26:49Z</time></trkpt><trkpt lat="42.55513556561219" lon="13.268881428337906"><ele>973.5</ele><time>2026-04-19T10:26:50Z</time></trkpt><trkpt lat="42.55502054508593" lon="13.268834332171624"><ele>974.25</ele><time>2026-04-19T10:26:51Z</time></trkpt><trkpt lat="42.55490265973274" lon="13.268860593791274"><ele>975.0</ele><time>2026-04-19T10:26:52Z</time></trkpt><trkpt lat="42.55478879907922" lon="13.268945227193532"><ele>975.0</ele><time>2026-04-19T10:26:53Z</time></trkpt><trkpt lat="42.55466661475636" lon="13.26905897180417"><ele>975.0</ele><time>2026-04-19T10:26:54Z</time></trkpt><trkpt lat="42.55454966381533" lon="13.269128872753923"><ele>975.0</ele><time>2026-04-19T10:26:55Z</time></trkpt><trkpt lat="42.55445422862799" lon="13.269159861571366"><ele>975.0</ele><time>2026-04-19T10:26:56Z</time></trkpt><trkpt lat="42.55437361316537" lon="13.26911978912769"><ele>975.8</ele><time>2026-04-19T10:26:57Z</time></trkpt><trkpt lat="42.5542941281819" lon="13.269055933569142"><ele>976.6</ele><time>2026-04-19T10:26:58Z</time></trkpt><trkpt lat="42.55421651459406" lon="13.26892962754222"><ele>977.4000000000001</ele><time>2026-04-19T10:26:59Z</time></trkpt><trkpt lat="42.554166369439706" lon="13.268775189387144"><ele>978.2</ele><time>2026-04-19T10:27:00Z</time></trkpt><trkpt lat="42.554168734115024" lon="13.268634888842204"><ele>979.0</ele><time>2026-04-19T10:27:01Z</time></trkpt><trkpt lat="42.55420878185123" lon="13.268507856078513"><ele>979.0</ele><time>2026-04-19T10:27:02Z</time></trkpt><trkpt lat="42.554302163019386" lon="13.268408025597088"><ele>979.0000000000001</ele><time>2026-04-19T10:27:03Z</time></trkpt><trkpt lat="42.55436572674103" lon="13.268295088681832"><ele>979.0000000000001</ele><time>2026-04-19T10:27:04Z</time></trkpt><trkpt lat="42.554458237641576" lon="13.268205288656688"><ele>979.0</ele><time>2026-04-19T10:27:05Z</time></trkpt><trkpt lat="42.55453931752656" lon="13.268108852751658"><ele>979.0</ele><time>2026-04-19T10:27:06Z</time></trkpt><trkpt lat="42.55464398748743" lon="13.268027611830982"><ele>979.6</ele><time>2026-04-19T10:27:07Z</time></trkpt><trkpt lat="42.554727992564395" lon="13.267951152378075"><ele>980.2</ele><time>2026-04-19T10:27:08Z</time></trkpt><trkpt lat="42.554822809321166" lon="13.267866197808855"><ele>980.8000000000001</ele><time>2026-04-19T10:27:09Z</time></trkpt><trkpt lat="42.55489941622795" lon="13.26776673808327"><ele>981.4000000000001</ele><time>2026-04-19T10:27:10Z</time></trkpt><trkpt lat="42.554966706619325" lon="13.267682576669134"><ele>982.0</ele><time>2026-04-19T10:27:11Z</time></trkpt><trkpt lat="42.55502316630821" lon="13.267600328174183"><ele>981.9999999999999</ele><time>2026-04-19T10:27:12Z</time></trkpt><trkpt lat="42.55506425728933" lon="13.267520287110084"><ele>982.0</ele><time>2026-04-19T10:27:13Z</time></trkpt><trkpt lat="42.55511457455539" lon="13.267421392015672"><ele>982.0</ele><time>2026-04-19T10:27:14Z</time></trkpt><trkpt lat="42.55516948011613" lon="13.26732644163477"><ele>982.0</ele><time>2026-04-19T10:27:15Z</time></trkpt><trkpt lat="42.55523080556676" lon="13.267234320708269"><ele>981.9999999999999</ele><time>2026-04-19T10:27:16Z</time></trkpt><trkpt lat="42.55529719866372" lon="13.267144294310757"><ele>982.0</ele><time>2026-04-19T10:27:17Z</time></trkpt><trkpt lat="42.55536274371312" lon="13.267069198972559"><ele>982.8</ele><time>2026-04-19T10:27:18Z</time></trkpt><trkpt lat="42.555421185998064" lon="13.267013196327396"><ele>983.6</ele><time>2026-04-19T10:27:19Z</time></trkpt><trkpt lat="42.55551897429401" lon="13.266931810348703"><ele>984.3999999999999</ele><time>2026-04-19T10:27:21Z</time></trkpt><trkpt lat="42.55559605705573" lon="13.266860820686594"><ele>985.1999999999999</ele><time>2026-04-19T10:27:23Z</time></trkpt><trkpt lat="42.55567148628133" lon="13.266778406757556"><ele>986.0</ele><time>2026-04-19T10:27:25Z</time></trkpt><trkpt lat="42.555766911201054" lon="13.266666349560007"><ele>986.0000000000001</ele><time>2026-04-19T10:27:27Z</time></trkpt><trkpt lat="42.55581978802907" lon="13.266600274603745"><ele>986.0</ele><time>2026-04-19T10:27:28Z</time></trkpt><trkpt lat="42.55587001515691" lon="13.26653576135276"><ele>986.0</ele><time>2026-04-19T10:27:29Z</time></trkpt><trkpt lat="42.55592006678175" lon="13.26646899687135"><ele>986.0</ele><time>2026-04-19T10:27:30Z</time></trkpt><trkpt lat="42.556008300603" lon="13.266288383202454"><ele>986.0000000000001</ele><time>2026-04-19T10:27:32Z</time></trkpt><trkpt lat="42.556046367064894" lon="13.266209339896175"><ele>986.0</ele><time>2026-04-19T10:27:33Z</time></trkpt><trkpt lat="42.55611314946374" lon="13.266097473896503"><ele>985.5999999999999</ele><time>2026-04-19T10:27:35Z</time></trkpt><trkpt lat="42.55618701481888" lon="13.265953333979862"><ele>985.1999999999999</ele><time>2026-04-19T10:27:37Z</time></trkpt><trkpt lat="42.556227448860504" lon="13.26586054035116"><ele>984.8000000000001</ele><time>2026-04-19T10:27:38Z</time></trkpt><trkpt lat="42.556267788326885" lon="13.265752193328742"><ele>984.4000000000001</ele><time>2026-04-19T10:27:39Z</time></trkpt><trkpt lat="42.55630532110515" lon="13.265630908967154"><ele>984.0</ele><time>2026-04-19T10:27:40Z</time></trkpt><trkpt lat="42.55634666171648" lon="13.265504635164923"><ele>986.75</ele><time>2026-04-19T10:27:41Z</time></trkpt><trkpt lat="42.556401254696915" lon="13.265350999874705"><ele>989.5</ele><time>2026-04-19T10:27:42Z</time></trkpt><trkpt lat="42.5564687520271" lon="13.265165425584833"><ele>992.25</ele><time>2026-04-19T10:27:43Z</time></trkpt><trkpt lat="42.55653907655936" lon="13.264978143184111"><ele>995.0</ele><time>2026-04-19T10:27:44Z</time></trkpt><trkpt lat="42.556583498635526" lon="13.264814858978784"><ele>995.0</ele><time>2026-04-19T10:27:45Z</time></trkpt><trkpt lat="42.55659038083419" lon="13.264648159796712"><ele>995.0</ele><time>2026-04-19T10:27:46Z</time></trkpt><trkpt lat="42.55654535907718" lon="13.264499397314559"><ele>995.0</ele><time>2026-04-19T10:27:47Z</time></trkpt><trkpt lat="42.55650018275234" lon="13.264380596893018"><ele>995.0</ele><time>2026-04-19T10:27:48Z</time></trkpt><trkpt lat="42.55645348018884" lon="13.264269649034267"><ele>995.0</ele><time>2026-04-19T10:27:49Z</time></trkpt><trkpt lat="42.55642300633934" lon="13.264143573340824"><ele>995.0</ele><time>2026-04-19T10:27:50Z</time></trkpt><trkpt lat="42.55636459703887" lon="13.264035244313403"><ele>995.0</ele><time>2026-04-19T10:27:51Z</time></trkpt><trkpt lat="42.5563161228487" lon="13.26392453395994"><ele>995.0</ele><time>2026-04-19T10:27:52Z</time></trkpt><trkpt lat="42.55623548654424" lon="13.26382974018349"><ele>995.0</ele><time>2026-04-19T10:27:53Z</time></trkpt><trkpt lat="42.556126783616094" lon="13.263763131803529"><ele>995.0</ele><time>2026-04-19T10:27:54Z</time></trkpt><trkpt lat="42.556015483762394" lon="13.263723872401737"><ele>996.5000000000001</ele><time>2026-04-19T10:27:55Z</time></trkpt><trkpt lat="42.55592844196475" lon="13.263669221064482"><ele>998.0</ele><time>2026-04-19T10:27:56Z</time></trkpt><trkpt lat="42.555883535806196" lon="13.263591860578638"><ele>999.5</ele><time>2026-04-19T10:27:57Z</time></trkpt><trkpt lat="42.555872540638326" lon="13.263505221934095"><ele>1001.0</ele><time>2026-04-19T10:27:58Z</time></trkpt><trkpt lat="42.55591578972543" lon="13.26340391533611"><ele>1002.5000000000001</ele><time>2026-04-19T10:27:59Z</time></trkpt><trkpt lat="42.55595457716733" lon="13.263325810050953"><ele>1004.0</ele><time>2026-04-19T10:28:00Z</time></trkpt><trkpt lat="42.55604478551097" lon="13.263286218435768"><ele>1004.0</ele><time>2026-04-19T10:28:01Z</time></trkpt><trkpt lat="42.55613889010946" lon="13.263235747734246"><ele>1004.0000000000001</ele><time>2026-04-19T10:28:02Z</time></trkpt><trkpt lat="42.556239778493634" lon="13.263191304727837"><ele>1004.0000000000001</ele><time>2026-04-19T10:28:03Z</time></trkpt><trkpt lat="42.55633583779733" lon="13.263142349856201"><ele>1004.0</ele><time>2026-04-19T10:28:04Z</time></trkpt><trkpt lat="42.556428306327206" lon="13.263096527409083"><ele>1004.0</ele><time>2026-04-19T10:28:05Z</time></trkpt><trkpt lat="42.55650878397237" lon="13.263043020087999"><ele>1005.8000000000001</ele><time>2026-04-19T10:28:06Z</time></trkpt><trkpt lat="42.55658353923387" lon="13.26290871749482"><ele>1007.6000000000001</ele><time>2026-04-19T10:28:08Z</time></trkpt><trkpt lat="42.55661630010986" lon="13.262834546947524"><ele>1009.4</ele><time>2026-04-19T10:28:09Z</time></trkpt><trkpt lat="42.55664084802173" lon="13.262729981358016"><ele>1011.2</ele><time>2026-04-19T10:28:11Z</time></trkpt><trkpt lat="42.556662058381875" lon="13.262630928966797"><ele>1013.0</ele><time>2026-04-19T10:28:13Z</time></trkpt><trkpt lat="42.55671439512998" lon="13.262486175836887"><ele>1013.0000000000001</ele><time>2026-04-19T10:28:15Z</time></trkpt><trkpt lat="42.556757251939025" lon="13.262406858399125"><ele>1013.0</ele><time>2026-04-19T10:28:16Z</time></trkpt><trkpt lat="42.55681161409182" lon="13.26232709596299"><ele>1013.0</ele><time>2026-04-19T10:28:17Z</time></trkpt><trkpt lat="42.55687794984099" lon="13.262245782113736"><ele>1013.0</ele><time>2026-04-19T10:28:18Z</time></trkpt><trkpt lat="42.556936751061336" lon="13.262138701111152"><ele>1013.0000000000001</ele><time>2026-04-19T10:28:19Z</time></trkpt><trkpt lat="42.55701763119081" lon="13.262063112000305"><ele>1013.0</ele><time>2026-04-19T10:28:20Z</time></trkpt><trkpt lat="42.55710353731331" lon="13.261951780146786"><ele>1013.5</ele><time>2026-04-19T10:28:21Z</time></trkpt><trkpt lat="42.55719449887297" lon="13.261834272852752"><ele>1014.0</ele><time>2026-04-19T10:28:22Z</time></trkpt><trkpt lat="42.55727944551135" lon="13.261724535833318"><ele>1014.5</ele><time>2026-04-19T10:28:23Z</time></trkpt><trkpt lat="42.557365115084465" lon="13.261613864784616"><ele>1015.0</ele><time>2026-04-19T10:28:24Z</time></trkpt><trkpt lat="42.55744738636346" lon="13.261484548018542"><ele>1015.75</ele><time>2026-04-19T10:28:25Z</time></trkpt><trkpt lat="42.55754063473334" lon="13.261362851350452"><ele>1016.5</ele><time>2026-04-19T10:28:26Z</time></trkpt><trkpt lat="42.55764227552178" lon="13.26124385452132"><ele>1017.25</ele><time>2026-04-19T10:28:27Z</time></trkpt><trkpt lat="42.55774872523068" lon="13.261119409389517"><ele>1018.0</ele><time>2026-04-19T10:28:28Z</time></trkpt><trkpt lat="42.55795227891081" lon="13.260916181315766"><ele>1018.8</ele><time>2026-04-19T10:28:30Z</time></trkpt><trkpt lat="42.55803548525695" lon="13.260824019899113"><ele>1019.5999999999999</ele><time>2026-04-19T10:28:31Z</time></trkpt><trkpt lat="42.558112327085546" lon="13.260736787980838"><ele>1020.4000000000001</ele><time>2026-04-19T10:28:32Z</time></trkpt><trkpt lat="42.55818566272742" lon="13.26065843056404"><ele>1021.2</ele><time>2026-04-19T10:28:33Z</time></trkpt><trkpt lat="42.55825461018114" lon="13.260590004133045"><ele>1022.0</ele><time>2026-04-19T10:28:34Z</time></trkpt><trkpt lat="42.55831783759227" lon="13.260521248115811"><ele>1021.6666666666667</ele><time>2026-04-19T10:28:35Z</time></trkpt><trkpt lat="42.558380172352514" lon="13.260454167976045"><ele>1021.3333333333334</ele><time>2026-04-19T10:28:36Z</time></trkpt><trkpt lat="42.558445631825506" lon="13.260388724933083"><ele>1021.0</ele><time>2026-04-19T10:28:37Z</time></trkpt><trkpt lat="42.558516614082166" lon="13.260318701975832"><ele>1020.6666666666667</ele><time>2026-04-19T10:28:38Z</time></trkpt><trkpt lat="42.558586130450806" lon="13.26024450349128"><ele>1020.3333333333334</ele><time>2026-04-19T10:28:39Z</time></trkpt><trkpt lat="42.558657721413695" lon="13.260169553528604"><ele>1020.0</ele><time>2026-04-19T10:28:40Z</time></trkpt><trkpt lat="42.55872862520121" lon="13.260089784521025"><ele>1020.0</ele><time>2026-04-19T10:28:41Z</time></trkpt><trkpt lat="42.558787163712275" lon="13.259998862017246"><ele>1020.0</ele><time>2026-04-19T10:28:42Z</time></trkpt><trkpt lat="42.55884463462193" lon="13.259896034500802"><ele>1020.0</ele><time>2026-04-19T10:28:43Z</time></trkpt><trkpt lat="42.55889639994343" lon="13.259783284909759"><ele>1020.0</ele><time>2026-04-19T10:28:44Z</time></trkpt><trkpt lat="42.55894494259868" lon="13.259669448173826"><ele>1020.0</ele><time>2026-04-19T10:28:45Z</time></trkpt><trkpt lat="42.55900010203765" lon="13.259546191655359"><ele>1018.2</ele><time>2026-04-19T10:28:46Z</time></trkpt><trkpt lat="42.559068680335606" lon="13.259432215593574"><ele>1016.4</ele><time>2026-04-19T10:28:47Z</time></trkpt><trkpt lat="42.55912704703222" lon="13.259303733522286"><ele>1014.5999999999999</ele><time>2026-04-19T10:28:48Z</time></trkpt><trkpt lat="42.559175931049744" lon="13.259164973505486"><ele>1012.8</ele><time>2026-04-19T10:28:49Z</time></trkpt><trkpt lat="42.55924122221114" lon="13.259042605061587"><ele>1011.0</ele><time>2026-04-19T10:28:50Z</time></trkpt><trkpt lat="42.55930656659621" lon="13.25893269074657"><ele>1010.4</ele><time>2026-04-19T10:28:51Z</time></trkpt><trkpt lat="42.55937747974978" lon="13.258842703897761"><ele>1009.8</ele><time>2026-04-19T10:28:52Z</time></trkpt><trkpt lat="42.55944790131356" lon="13.258752110914276"><ele>1009.1999999999999</ele><time>2026-04-19T10:28:53Z</time></trkpt><trkpt lat="42.55951569525816" lon="13.258660073356179"><ele>1008.5999999999999</ele><time>2026-04-19T10:28:54Z</time></trkpt><trkpt lat="42.55957347358252" lon="13.258552552248716"><ele>1008.0</ele><time>2026-04-19T10:28:55Z</time></trkpt><trkpt lat="42.559609752277254" lon="13.258428881364747"><ele>1008.2</ele><time>2026-04-19T10:28:56Z</time></trkpt><trkpt lat="42.55964818625303" lon="13.258303668526901"><ele>1008.4</ele><time>2026-04-19T10:28:57Z</time></trkpt><trkpt lat="42.559668562551" lon="13.258171971544886"><ele>1008.6000000000001</ele><time>2026-04-19T10:28:58Z</time></trkpt><trkpt lat="42.55969019183022" lon="13.258028244637476"><ele>1008.8000000000001</ele><time>2026-04-19T10:28:59Z</time></trkpt><trkpt lat="42.55971155469566" lon="13.257886287781625"><ele>1009.0</ele><time>2026-04-19T10:29:00Z</time></trkpt><trkpt lat="42.559731568936705" lon="13.257752419212165"><ele>1009.0</ele><time>2026-04-19T10:29:01Z</time></trkpt><trkpt lat="42.55974976918118" lon="13.257630088919598"><ele>1009.0000000000001</ele><time>2026-04-19T10:29:02Z</time></trkpt><trkpt lat="42.559767182152925" lon="13.257513049788676"><ele>1009.0000000000001</ele><time>2026-04-19T10:29:03Z</time></trkpt><trkpt lat="42.55979549280618" lon="13.25739380367146"><ele>1009.0</ele><time>2026-04-19T10:29:04Z</time></trkpt><trkpt lat="42.559836323773446" lon="13.257272612456564"><ele>1009.0</ele><time>2026-04-19T10:29:05Z</time></trkpt><trkpt lat="42.55989428403298" lon="13.257160943086319"><ele>1008.4000000000001</ele><time>2026-04-19T10:29:06Z</time></trkpt><trkpt lat="42.55995190750869" lon="13.257042785490846"><ele>1007.8000000000001</ele><time>2026-04-19T10:29:07Z</time></trkpt><trkpt lat="42.56000973116507" lon="13.256926470925233"><ele>1007.1999999999999</ele><time>2026-04-19T10:29:08Z</time></trkpt><trkpt lat="42.56006866371697" lon="13.256814943881295"><ele>1006.5999999999999</ele><time>2026-04-19T10:29:09Z</time></trkpt><trkpt lat="42.560121763996435" lon="13.256694437328909"><ele>1006.0</ele><time>2026-04-19T10:29:10Z</time></trkpt><trkpt lat="42.560197998700374" lon="13.256612396132887"><ele>1006.0</ele><time>2026-04-19T10:29:11Z</time></trkpt><trkpt lat="42.56028110628339" lon="13.256563304282977"><ele>1005.9999999999999</ele><time>2026-04-19T10:29:12Z</time></trkpt><trkpt lat="42.56037211623208" lon="13.256545880520106"><ele>1005.9999999999999</ele><time>2026-04-19T10:29:13Z</time></trkpt><trkpt lat="42.56047028977705" lon="13.256574402838648"><ele>1006.0</ele><time>2026-04-19T10:29:14Z</time></trkpt><trkpt lat="42.560573004848166" lon="13.256618411567322"><ele>1006.0</ele><time>2026-04-19T10:29:15Z</time></trkpt><trkpt lat="42.5606682450096" lon="13.256675009370253"><ele>1004.8</ele><time>2026-04-19T10:29:16Z</time></trkpt><trkpt lat="42.56075281354717" lon="13.256728379511946"><ele>1003.5999999999999</ele><time>2026-04-19T10:29:17Z</time></trkpt><trkpt lat="42.56083741316216" lon="13.25679110437319"><ele>1002.4</ele><time>2026-04-19T10:29:18Z</time></trkpt><trkpt lat="42.56094373313192" lon="13.256858665835333"><ele>1001.2</ele><time>2026-04-19T10:29:19Z</time></trkpt><trkpt lat="42.561042322405356" lon="13.256910633709456"><ele>1000.0</ele><time>2026-04-19T10:29:20Z</time></trkpt><trkpt lat="42.5611351595223" lon="13.256972813795329"><ele>1000.6</ele><time>2026-04-19T10:29:21Z</time></trkpt><trkpt lat="42.561224913147015" lon="13.257026686383668"><ele>1001.2</ele><time>2026-04-19T10:29:22Z</time></trkpt><trkpt lat="42.56131206324227" lon="13.257069161849293"><ele>1001.8</ele><time>2026-04-19T10:29:23Z</time></trkpt><trkpt lat="42.56140387557458" lon="13.2571086317299"><ele>1002.4</ele><time>2026-04-19T10:29:24Z</time></trkpt><trkpt lat="42.5614935821268" lon="13.257142958818497"><ele>1003.0</ele><time>2026-04-19T10:29:25Z</time></trkpt><trkpt lat="42.56158400247808" lon="13.257176729867632"><ele>1003.0</ele><time>2026-04-19T10:29:26Z</time></trkpt><trkpt lat="42.56167545114003" lon="13.257210593894406"><ele>1003.0</ele><time>2026-04-19T10:29:27Z</time></trkpt><trkpt lat="42.56176664966852" lon="13.257244152936764"><ele>1003.0</ele><time>2026-04-19T10:29:28Z</time></trkpt><trkpt lat="42.56185938233414" lon="13.257284276570212"><ele>1003.0</ele><time>2026-04-19T10:29:29Z</time></trkpt><trkpt lat="42.56195595590825" lon="13.257331208108893"><ele>1003.0</ele><time>2026-04-19T10:29:30Z</time></trkpt><trkpt lat="42.56205340439651" lon="13.257385056323418"><ele>1001.5999999999999</ele><time>2026-04-19T10:29:31Z</time></trkpt><trkpt lat="42.562150052471" lon="13.257446689591143"><ele>1000.1999999999999</ele><time>2026-04-19T10:29:32Z</time></trkpt><trkpt lat="42.56224838229058" lon="13.257500598784548"><ele>998.8</ele><time>2026-04-19T10:29:32.999Z</time></trkpt><trkpt lat="42.56234950563065" lon="13.257557279062203"><ele>997.4</ele><time>2026-04-19T10:29:33.999Z</time></trkpt><trkpt lat="42.562447982165516" lon="13.257610863015687"><ele>996.0</ele><time>2026-04-19T10:29:34.999Z</time></trkpt><trkpt lat="42.562545912698404" lon="13.257666749493325"><ele>996.0</ele><time>2026-04-19T10:29:35.999Z</time></trkpt><trkpt lat="42.5626433837049" lon="13.257727600454125"><ele>995.9999999999999</ele><time>2026-04-19T10:29:36.999Z</time></trkpt><trkpt lat="42.562740898589524" lon="13.257781581953473"><ele>995.9999999999999</ele><time>2026-04-19T10:29:37.999Z</time></trkpt><trkpt lat="42.56283869233662" lon="13.257839954499788"><ele>996.0</ele><time>2026-04-19T10:29:38.999Z</time></trkpt><trkpt lat="42.562936428021466" lon="13.257889558592"><ele>996.0</ele><time>2026-04-19T10:29:39.999Z</time></trkpt><trkpt lat="42.56304619928266" lon="13.257939375911157"><ele>994.5</ele><time>2026-04-19T10:29:40.999Z</time></trkpt><trkpt lat="42.56316616483511" lon="13.258023450896301"><ele>993.0</ele><time>2026-04-19T10:29:41.999Z</time></trkpt><trkpt lat="42.56331270390793" lon="13.258051290030457"><ele>991.5</ele><time>2026-04-19T10:29:42.999Z</time></trkpt><trkpt lat="42.56346492935972" lon="13.25799908429575"><ele>990.0</ele><time>2026-04-19T10:29:43.999Z</time></trkpt><trkpt lat="42.5636016627712" lon="13.257968673009824"><ele>989.5</ele><time>2026-04-19T10:29:44.999Z</time></trkpt><trkpt lat="42.56372964437872" lon="13.257992104291883"><ele>989.0</ele><time>2026-04-19T10:29:45.999Z</time></trkpt><trkpt lat="42.56385556968358" lon="13.25806132270598"><ele>988.5</ele><time>2026-04-19T10:29:46.999Z</time></trkpt><trkpt lat="42.56399437889695" lon="13.258182269748614"><ele>988.0</ele><time>2026-04-19T10:29:47.999Z</time></trkpt><trkpt lat="42.56412916849048" lon="13.25830372205942"><ele>988.5</ele><time>2026-04-19T10:29:48.999Z</time></trkpt><trkpt lat="42.56425607285743" lon="13.258380115438309"><ele>989.0</ele><time>2026-04-19T10:29:49.999Z</time></trkpt><trkpt lat="42.5643731597602" lon="13.258458300960742"><ele>989.5</ele><time>2026-04-19T10:29:50.999Z</time></trkpt><trkpt lat="42.56449977169729" lon="13.258523524064247"><ele>990.0</ele><time>2026-04-19T10:29:51.999Z</time></trkpt><trkpt lat="42.56463384669147" lon="13.258585488958179"><ele>990.0</ele><time>2026-04-19T10:29:52.999Z</time></trkpt><trkpt lat="42.56476533270824" lon="13.258649457239093"><ele>990.0</ele><time>2026-04-19T10:29:53.999Z</time></trkpt><trkpt lat="42.56489512868714" lon="13.258711290046351"><ele>990.0</ele><time>2026-04-19T10:29:54.999Z</time></trkpt><trkpt lat="42.56502122038193" lon="13.258772303931991"><ele>990.0</ele><time>2026-04-19T10:29:55.999Z</time></trkpt><trkpt lat="42.565148579513114" lon="13.258828748706105"><ele>990.0</ele><time>2026-04-19T10:29:56.999Z</time></trkpt><trkpt lat="42.56527549389972" lon="13.258878306431406"><ele>990.0</ele><time>2026-04-19T10:29:57.999Z</time></trkpt><trkpt lat="42.565401020678735" lon="13.258936349306927"><ele>990.0</ele><time>2026-04-19T10:29:58.999Z</time></trkpt><trkpt lat="42.56553052450143" lon="13.258989097664552"><ele>990.0</ele><time>2026-04-19T10:29:59.999Z</time></trkpt><trkpt lat="42.56565724038446" lon="13.259037823382064"><ele>990.75</ele><time>2026-04-19T10:30:00.999Z</time></trkpt><trkpt lat="42.565780477629765" lon="13.25909475686549"><ele>991.5</ele><time>2026-04-19T10:30:01.999Z</time></trkpt><trkpt lat="42.5659037617367" lon="13.259149753814897"><ele>992.25</ele><time>2026-04-19T10:30:02.999Z</time></trkpt><trkpt lat="42.566025175650566" lon="13.259207047052493"><ele>993.0</ele><time>2026-04-19T10:30:03.999Z</time></trkpt><trkpt lat="42.566145560481566" lon="13.2592604190996"><ele>990.0</ele><time>2026-04-19T10:30:04.999Z</time></trkpt><trkpt lat="42.56626655348243" lon="13.259304984443885"><ele>987.0</ele><time>2026-04-19T10:30:05.999Z</time></trkpt><trkpt lat="42.566381998323315" lon="13.259342663960728"><ele>984.0</ele><time>2026-04-19T10:30:06.999Z</time></trkpt><trkpt lat="42.566485831749695" lon="13.259382279393519"><ele>981.0</ele><time>2026-04-19T10:30:07.999Z</time></trkpt><trkpt lat="42.56658218521632" lon="13.259425598352665"><ele>981.0</ele><time>2026-04-19T10:30:08.999Z</time></trkpt><trkpt lat="42.56668239618658" lon="13.259462729934688"><ele>980.9999999999999</ele><time>2026-04-19T10:30:09.999Z</time></trkpt><trkpt lat="42.56678495250237" lon="13.259474633735786"><ele>980.9999999999999</ele><time>2026-04-19T10:30:10.999Z</time></trkpt><trkpt lat="42.56688561347672" lon="13.259435036999708"><ele>981.0</ele><time>2026-04-19T10:30:11.999Z</time></trkpt><trkpt lat="42.566977226730494" lon="13.259356186867697"><ele>981.0</ele><time>2026-04-19T10:30:12.999Z</time></trkpt><trkpt lat="42.56707015546572" lon="13.259272353952548"><ele>981.5</ele><time>2026-04-19T10:30:13.999Z</time></trkpt><trkpt lat="42.567172772523456" lon="13.259206063963529"><ele>982.0</ele><time>2026-04-19T10:30:14.999Z</time></trkpt><trkpt lat="42.56729837327616" lon="13.259183574092312"><ele>982.5</ele><time>2026-04-19T10:30:15.999Z</time></trkpt><trkpt lat="42.56743576686847" lon="13.259162664485892"><ele>983.0</ele><time>2026-04-19T10:30:16.999Z</time></trkpt><trkpt lat="42.56758154928552" lon="13.259125401183978"><ele>983.0</ele><time>2026-04-19T10:30:17.999Z</time></trkpt><trkpt lat="42.5677395004278" lon="13.259114388137126"><ele>983.0</ele><time>2026-04-19T10:30:18.999Z</time></trkpt><trkpt lat="42.56788695610888" lon="13.259098603146144"><ele>983.0</ele><time>2026-04-19T10:30:19.999Z</time></trkpt><trkpt lat="42.56801692346711" lon="13.25908222823854"><ele>983.0</ele><time>2026-04-19T10:30:20.999Z</time></trkpt><trkpt lat="42.568142494362164" lon="13.259067476937021"><ele>983.5</ele><time>2026-04-19T10:30:21.999Z</time></trkpt><trkpt lat="42.56825793958138" lon="13.259040221400147"><ele>984.0</ele><time>2026-04-19T10:30:22.999Z</time></trkpt><trkpt lat="42.56837930348993" lon="13.259006036994137"><ele>984.5</ele><time>2026-04-19T10:30:23.999Z</time></trkpt><trkpt lat="42.568510344040966" lon="13.258967463474066"><ele>985.0</ele><time>2026-04-19T10:30:24.999Z</time></trkpt><trkpt lat="42.56864573936498" lon="13.258922101227782"><ele>981.5</ele><time>2026-04-19T10:30:25.999Z</time></trkpt><trkpt lat="42.56876902690084" lon="13.258881411608758"><ele>978.0</ele><time>2026-04-19T10:30:26.999Z</time></trkpt><trkpt lat="42.56888550803337" lon="13.258853051055395"><ele>974.5</ele><time>2026-04-19T10:30:27.999Z</time></trkpt><trkpt lat="42.56899728545987" lon="13.258822008566959"><ele>971.0</ele><time>2026-04-19T10:30:28.999Z</time></trkpt><trkpt lat="42.56910397969508" lon="13.25879375812074"><ele>971.0</ele><time>2026-04-19T10:30:29.999Z</time></trkpt><trkpt lat="42.569213632387786" lon="13.258764850368483"><ele>971.0</ele><time>2026-04-19T10:30:30.999Z</time></trkpt><trkpt lat="42.56932768889849" lon="13.258725904346884"><ele>971.0</ele><time>2026-04-19T10:30:31.999Z</time></trkpt><trkpt lat="42.56944577440246" lon="13.258682112896008"><ele>971.0</ele><time>2026-04-19T10:30:32.999Z</time></trkpt><trkpt lat="42.56956963358425" lon="13.258635595950865"><ele>970.5</ele><time>2026-04-19T10:30:33.999Z</time></trkpt><trkpt lat="42.56969684852293" lon="13.258586037165772"><ele>970.0</ele><time>2026-04-19T10:30:34.999Z</time></trkpt><trkpt lat="42.56982620562869" lon="13.25853243691758"><ele>969.5</ele><time>2026-04-19T10:30:35.999Z</time></trkpt><trkpt lat="42.56994873019025" lon="13.258484032559043"><ele>969.0</ele><time>2026-04-19T10:30:36.999Z</time></trkpt><trkpt lat="42.57006530792997" lon="13.25843784192728"><ele>969.0</ele><time>2026-04-19T10:30:37.999Z</time></trkpt><trkpt lat="42.57017562670351" lon="13.258392939670497"><ele>969.0000000000001</ele><time>2026-04-19T10:30:38.999Z</time></trkpt><trkpt lat="42.57028410623504" lon="13.25834689971404"><ele>969.0000000000001</ele><time>2026-04-19T10:30:39.999Z</time></trkpt><trkpt lat="42.57038486066621" lon="13.258296258564194"><ele>969.0</ele><time>2026-04-19T10:30:40.999Z</time></trkpt><trkpt lat="42.570484582331254" lon="13.258234714969257"><ele>969.0</ele><time>2026-04-19T10:30:41.999Z</time></trkpt><trkpt lat="42.570576556050504" lon="13.258149745762282"><ele>968.0</ele><time>2026-04-19T10:30:42.999Z</time></trkpt><trkpt lat="42.57066422011893" lon="13.258039480921402"><ele>967.0</ele><time>2026-04-19T10:30:43.999Z</time></trkpt><trkpt lat="42.5707423467263" lon="13.257904102672137"><ele>966.0</ele><time>2026-04-19T10:30:44.999Z</time></trkpt><trkpt lat="42.57081367185379" lon="13.257769521758524"><ele>965.0</ele><time>2026-04-19T10:30:45.999Z</time></trkpt><trkpt lat="42.57087986511968" lon="13.257633375221973"><ele>965.0</ele><time>2026-04-19T10:30:46.999Z</time></trkpt><trkpt lat="42.57094061706637" lon="13.257511860003397"><ele>965.0</ele><time>2026-04-19T10:30:47.999Z</time></trkpt><trkpt lat="42.57100220919879" lon="13.25738873476873"><ele>965.0</ele><time>2026-04-19T10:30:48.999Z</time></trkpt><trkpt lat="42.57107004595445" lon="13.257264510356322"><ele>965.0</ele><time>2026-04-19T10:30:49.999Z</time></trkpt><trkpt lat="42.57113413712497" lon="13.2571296157436"><ele>967.0</ele><time>2026-04-19T10:30:50.999Z</time></trkpt><trkpt lat="42.57120580679818" lon="13.25700038397661"><ele>969.0</ele><time>2026-04-19T10:30:51.999Z</time></trkpt><trkpt lat="42.57127462585867" lon="13.256867043253104"><ele>971.0</ele><time>2026-04-19T10:30:52.999Z</time></trkpt><trkpt lat="42.57134383858881" lon="13.256741813403039"><ele>973.0</ele><time>2026-04-19T10:30:53.999Z</time></trkpt><trkpt lat="42.571412067371355" lon="13.256620383859245"><ele>973.0</ele><time>2026-04-19T10:30:54.999Z</time></trkpt><trkpt lat="42.571485751771405" lon="13.256494201906019"><ele>973.0</ele><time>2026-04-19T10:30:55.999Z</time></trkpt><trkpt lat="42.571570105574175" lon="13.256372250206587"><ele>973.0</ele><time>2026-04-19T10:30:56.999Z</time></trkpt><trkpt lat="42.57166701702952" lon="13.256263662541093"><ele>973.0</ele><time>2026-04-19T10:30:57.999Z</time></trkpt><trkpt lat="42.57176814845315" lon="13.256161054915976"><ele>971.5</ele><time>2026-04-19T10:30:58.999Z</time></trkpt><trkpt lat="42.57186152839598" lon="13.256062387563553"><ele>970.0</ele><time>2026-04-19T10:30:59.999Z</time></trkpt><trkpt lat="42.57195380599914" lon="13.255955607916967"><ele>968.5</ele><time>2026-04-19T10:31:00.999Z</time></trkpt><trkpt lat="42.57204664804222" lon="13.255848441309121"><ele>967.0</ele><time>2026-04-19T10:31:01.999Z</time></trkpt><trkpt lat="42.572132449955866" lon="13.25575270698739"><ele>967.0</ele><time>2026-04-19T10:31:03Z</time></trkpt><trkpt lat="42.57221306103962" lon="13.25566068269874"><ele>967.0</ele><time>2026-04-19T10:31:04Z</time></trkpt><trkpt lat="42.57230077733087" lon="13.255563499972682"><ele>967.0</ele><time>2026-04-19T10:31:05Z</time></trkpt><trkpt lat="42.572392914952324" lon="13.255461577357053"><ele>967.0</ele><time>2026-04-19T10:31:06Z</time></trkpt><trkpt lat="42.57247963449313" lon="13.255361632236612"><ele>964.25</ele><time>2026-04-19T10:31:07Z</time></trkpt><trkpt lat="42.57257123984032" lon="13.255261318830177"><ele>961.5</ele><time>2026-04-19T10:31:08Z</time></trkpt><trkpt lat="42.572663271940854" lon="13.255152136208226"><ele>958.75</ele><time>2026-04-19T10:31:09Z</time></trkpt><trkpt lat="42.57275680601934" lon="13.255041080029425"><ele>956.0</ele><time>2026-04-19T10:31:10Z</time></trkpt><trkpt lat="42.57285065435781" lon="13.25492714635725"><ele>955.75</ele><time>2026-04-19T10:31:11Z</time></trkpt><trkpt lat="42.57294780569895" lon="13.25480863252397"><ele>955.5</ele><time>2026-04-19T10:31:12Z</time></trkpt><trkpt lat="42.57304775893271" lon="13.25469757786771"><ele>955.25</ele><time>2026-04-19T10:31:13Z</time></trkpt><trkpt lat="42.57313933312959" lon="13.254595553300062"><ele>955.0</ele><time>2026-04-19T10:31:14Z</time></trkpt><trkpt lat="42.57322691002791" lon="13.25449669860991"><ele>955.0</ele><time>2026-04-19T10:31:15Z</time></trkpt><trkpt lat="42.57331937175254" lon="13.254390724691785"><ele>955.0</ele><time>2026-04-19T10:31:16Z</time></trkpt><trkpt lat="42.57342414215151" lon="13.254274880498542"><ele>955.0</ele><time>2026-04-19T10:31:17Z</time></trkpt><trkpt lat="42.573531193369774" lon="13.254156930527595"><ele>955.0</ele><time>2026-04-19T10:31:18Z</time></trkpt><trkpt lat="42.57364219118371" lon="13.254050825423171"><ele>953.25</ele><time>2026-04-19T10:31:19Z</time></trkpt><trkpt lat="42.57374851613651" lon="13.253969824248713"><ele>951.5</ele><time>2026-04-19T10:31:20Z</time></trkpt><trkpt lat="42.57386077418932" lon="13.253896111504973"><ele>949.75</ele><time>2026-04-19T10:31:21Z</time></trkpt><trkpt lat="42.57397959398263" lon="13.253833980669473"><ele>948.0</ele><time>2026-04-19T10:31:22Z</time></trkpt><trkpt lat="42.57410325356246" lon="13.253777481852767"><ele>948.0</ele><time>2026-04-19T10:31:23Z</time></trkpt><trkpt lat="42.574225044094405" lon="13.253721467626615"><ele>948.0</ele><time>2026-04-19T10:31:24Z</time></trkpt><trkpt lat="42.574348856051515" lon="13.253668502834833"><ele>948.0</ele><time>2026-04-19T10:31:25Z</time></trkpt><trkpt lat="42.57446323492517" lon="13.253618639678917"><ele>948.0</ele><time>2026-04-19T10:31:26Z</time></trkpt><trkpt lat="42.57456484678769" lon="13.253568735194367"><ele>949.5</ele><time>2026-04-19T10:31:27Z</time></trkpt><trkpt lat="42.574670123740155" lon="13.253521044057974"><ele>951.0</ele><time>2026-04-19T10:31:28Z</time></trkpt><trkpt lat="42.57478441537437" lon="13.253472622188813"><ele>952.5</ele><time>2026-04-19T10:31:29Z</time></trkpt><trkpt lat="42.57490094505012" lon="13.253422728506964"><ele>954.0</ele><time>2026-04-19T10:31:30Z</time></trkpt><trkpt lat="42.57501871697726" lon="13.253363536805022"><ele>954.0</ele><time>2026-04-19T10:31:31Z</time></trkpt><trkpt lat="42.575151938226995" lon="13.253303320525715"><ele>954.0</ele><time>2026-04-19T10:31:32Z</time></trkpt><trkpt lat="42.575284476359116" lon="13.253240251681236"><ele>954.0</ele><time>2026-04-19T10:31:33Z</time></trkpt><trkpt lat="42.57540129172026" lon="13.25318257920011"><ele>954.0</ele><time>2026-04-19T10:31:34Z</time></trkpt><trkpt lat="42.57549827152134" lon="13.253103642503879"><ele>954.4000000000001</ele><time>2026-04-19T10:31:35Z</time></trkpt><trkpt lat="42.57557829885237" lon="13.253007900228924"><ele>954.8000000000001</ele><time>2026-04-19T10:31:36Z</time></trkpt><trkpt lat="42.575639313019295" lon="13.252910685503021"><ele>955.1999999999999</ele><time>2026-04-19T10:31:37Z</time></trkpt><trkpt lat="42.57569327477034" lon="13.252813831505241"><ele>955.5999999999999</ele><time>2026-04-19T10:31:38Z</time></trkpt><trkpt lat="42.575745792688565" lon="13.252727873774766"><ele>956.0</ele><time>2026-04-19T10:31:38.999Z</time></trkpt><trkpt lat="42.57580422068913" lon="13.252645184366932"><ele>956.0000000000001</ele><time>2026-04-19T10:31:39.999Z</time></trkpt><trkpt lat="42.575863898072015" lon="13.252567637088616"><ele>956.0</ele><time>2026-04-19T10:31:40.999Z</time></trkpt><trkpt lat="42.57591761590545" lon="13.25250350342825"><ele>956.0</ele><time>2026-04-19T10:31:41.999Z</time></trkpt><trkpt lat="42.57597297781674" lon="13.252442967656357"><ele>956.0</ele><time>2026-04-19T10:31:42.999Z</time></trkpt><trkpt lat="42.57603564895541" lon="13.252383811478827"><ele>956.0000000000001</ele><time>2026-04-19T10:31:43.999Z</time></trkpt><trkpt lat="42.57611003057791" lon="13.252323525333324"><ele>956.0</ele><time>2026-04-19T10:31:44.999Z</time></trkpt><trkpt lat="42.57619317150125" lon="13.252260565787854"><ele>954.4</ele><time>2026-04-19T10:31:45.999Z</time></trkpt><trkpt lat="42.57627708399003" lon="13.252186215236899"><ele>952.8</ele><time>2026-04-19T10:31:46.999Z</time></trkpt><trkpt lat="42.57635431122564" lon="13.252089639026044"><ele>951.1999999999999</ele><time>2026-04-19T10:31:47.999Z</time></trkpt><trkpt lat="42.57642240245904" lon="13.251975436276215"><ele>949.5999999999999</ele><time>2026-04-19T10:31:48.999Z</time></trkpt><trkpt lat="42.57647061098051" lon="13.251839947223132"><ele>948.0</ele><time>2026-04-19T10:31:49.999Z</time></trkpt><trkpt lat="42.57651069343825" lon="13.251699973342301"><ele>948.0</ele><time>2026-04-19T10:31:50.999Z</time></trkpt><trkpt lat="42.57655518546808" lon="13.251579946785034"><ele>948.0</ele><time>2026-04-19T10:31:51.999Z</time></trkpt><trkpt lat="42.5766371395409" lon="13.25148365742112"><ele>948.0</ele><time>2026-04-19T10:31:52.999Z</time></trkpt><trkpt lat="42.57674692843307" lon="13.251421919788518"><ele>948.0</ele><time>2026-04-19T10:31:53.999Z</time></trkpt><trkpt lat="42.57686434420948" lon="13.251381605589238"><ele>948.0</ele><time>2026-04-19T10:31:54.999Z</time></trkpt><trkpt lat="42.5769793171948" lon="13.251345398152903"><ele>945.75</ele><time>2026-04-19T10:31:55.999Z</time></trkpt><trkpt lat="42.577089199216225" lon="13.251297701502043"><ele>943.5</ele><time>2026-04-19T10:31:56.999Z</time></trkpt><trkpt lat="42.57719949991108" lon="13.251240855160049"><ele>941.25</ele><time>2026-04-19T10:31:57.999Z</time></trkpt><trkpt lat="42.57731395806243" lon="13.251174848455204"><ele>939.0</ele><time>2026-04-19T10:31:58.999Z</time></trkpt><trkpt lat="42.57743272942807" lon="13.251104455726761"><ele>939.0</ele><time>2026-04-19T10:31:59.999Z</time></trkpt><trkpt lat="42.57754031661471" lon="13.251027533919506"><ele>939.0</ele><time>2026-04-19T10:32:00.999Z</time></trkpt><trkpt lat="42.57763722299184" lon="13.250952830751302"><ele>939.0</ele><time>2026-04-19T10:32:02Z</time></trkpt><trkpt lat="42.57773570262601" lon="13.250897823381528"><ele>939.0</ele><time>2026-04-19T10:32:03Z</time></trkpt><trkpt lat="42.57784135512394" lon="13.250848310459956"><ele>938.5</ele><time>2026-04-19T10:32:04Z</time></trkpt><trkpt lat="42.57796495901007" lon="13.25082421595388"><ele>938.0</ele><time>2026-04-19T10:32:05Z</time></trkpt><trkpt lat="42.5780804537887" lon="13.250846254831172"><ele>937.5</ele><time>2026-04-19T10:32:06Z</time></trkpt><trkpt lat="42.578174926130885" lon="13.250893094217373"><ele>937.0</ele><time>2026-04-19T10:32:07Z</time></trkpt><trkpt lat="42.57825893833901" lon="13.25098551964637"><ele>937.0</ele><time>2026-04-19T10:32:08Z</time></trkpt><trkpt lat="42.578330209983726" lon="13.2510985461342"><ele>937.0</ele><time>2026-04-19T10:32:09Z</time></trkpt><trkpt lat="42.57839906917753" lon="13.251215759031405"><ele>937.0</ele><time>2026-04-19T10:32:10Z</time></trkpt><trkpt lat="42.578493619176115" lon="13.251288112235477"><ele>937.0</ele><time>2026-04-19T10:32:11Z</time></trkpt><trkpt lat="42.57860050177195" lon="13.251286373278644"><ele>937.0</ele><time>2026-04-19T10:32:12Z</time></trkpt><trkpt lat="42.57871112709043" lon="13.251216032627767"><ele>939.3333333333333</ele><time>2026-04-19T10:32:13Z</time></trkpt><trkpt lat="42.57883118634214" lon="13.25108586019315"><ele>941.6666666666667</ele><time>2026-04-19T10:32:14Z</time></trkpt><trkpt lat="42.57896699270535" lon="13.250927380576087"><ele>944.0</ele><time>2026-04-19T10:32:15Z</time></trkpt><trkpt lat="42.57912138064238" lon="13.250775900454492"><ele>944.0</ele><time>2026-04-19T10:32:16Z</time></trkpt><trkpt lat="42.5792857931497" lon="13.250637189937564"><ele>944.0</ele><time>2026-04-19T10:32:17Z</time></trkpt><trkpt lat="42.57944719778928" lon="13.250510632361717"><ele>944.0</ele><time>2026-04-19T10:32:18Z</time></trkpt><trkpt lat="42.57959197033309" lon="13.250398000149056"><ele>943.75</ele><time>2026-04-19T10:32:19Z</time></trkpt><trkpt lat="42.57970288875861" lon="13.250259343304647"><ele>943.5</ele><time>2026-04-19T10:32:20Z</time></trkpt><trkpt lat="42.57979588264356" lon="13.250113495682584"><ele>943.25</ele><time>2026-04-19T10:32:21Z</time></trkpt><trkpt lat="42.579899633096744" lon="13.250001603920715"><ele>943.0</ele><time>2026-04-19T10:32:22Z</time></trkpt><trkpt lat="42.580033574833394" lon="13.249944198588642"><ele>943.0</ele><time>2026-04-19T10:32:23Z</time></trkpt><trkpt lat="42.580203489312304" lon="13.249908774198827"><ele>943.0</ele><time>2026-04-19T10:32:24Z</time></trkpt><trkpt lat="42.58037426136413" lon="13.249844216998195"><ele>943.0</ele><time>2026-04-19T10:32:25Z</time></trkpt><trkpt lat="42.58053007499691" lon="13.249713241813302"><ele>940.3333333333333</ele><time>2026-04-19T10:32:26Z</time></trkpt><trkpt lat="42.58067767344562" lon="13.249553583603427"><ele>937.6666666666667</ele><time>2026-04-19T10:32:27Z</time></trkpt><trkpt lat="42.58082311123538" lon="13.249436297314816"><ele>935.0</ele><time>2026-04-19T10:32:28Z</time></trkpt><trkpt lat="42.58097823202974" lon="13.24936950283696"><ele>935.0</ele><time>2026-04-19T10:32:29Z</time></trkpt><trkpt lat="42.58113505760074" lon="13.249327688019465"><ele>935.0</ele><time>2026-04-19T10:32:30Z</time></trkpt><trkpt lat="42.581318126019866" lon="13.249309127742956"><ele>935.0</ele><time>2026-04-19T10:32:31Z</time></trkpt><trkpt lat="42.58150891808249" lon="13.249333415085546"><ele>936.3333333333334</ele><time>2026-04-19T10:32:32Z</time></trkpt><trkpt lat="42.581690957189075" lon="13.249352401714209"><ele>937.6666666666667</ele><time>2026-04-19T10:32:33Z</time></trkpt><trkpt lat="42.5818540611642" lon="13.249352617567958"><ele>939.0</ele><time>2026-04-19T10:32:34Z</time></trkpt><trkpt lat="42.58200606017954" lon="13.249307422283598"><ele>937.6666666666667</ele><time>2026-04-19T10:32:35Z</time></trkpt><trkpt lat="42.5821287300955" lon="13.24920202444934"><ele>936.3333333333334</ele><time>2026-04-19T10:32:36Z</time></trkpt><trkpt lat="42.58223068697385" lon="13.249045670570185"><ele>935.0</ele><time>2026-04-19T10:32:37Z</time></trkpt><trkpt lat="42.58230219251656" lon="13.248836892537742"><ele>935.0</ele><time>2026-04-19T10:32:38Z</time></trkpt><trkpt lat="42.58234762741941" lon="13.248608508346587"><ele>935.0</ele><time>2026-04-19T10:32:39Z</time></trkpt><trkpt lat="42.582406483319126" lon="13.248419342809976"><ele>935.0</ele><time>2026-04-19T10:32:40Z</time></trkpt><trkpt lat="42.58249848529779" lon="13.248304937755238"><ele>935.0</ele><time>2026-04-19T10:32:41Z</time></trkpt><trkpt lat="42.58262920288989" lon="13.248242912389493"><ele>935.0</ele><time>2026-04-19T10:32:42Z</time></trkpt><trkpt lat="42.58279654393208" lon="13.248196670445894"><ele>935.0</ele><time>2026-04-19T10:32:43Z</time></trkpt><trkpt lat="42.582978698137524" lon="13.248150538574123"><ele>936.25</ele><time>2026-04-19T10:32:44Z</time></trkpt><trkpt lat="42.583149341228264" lon="13.248104984484781"><ele>937.5</ele><time>2026-04-19T10:32:45Z</time></trkpt><trkpt lat="42.58329023535945" lon="13.24807762507413"><ele>938.75</ele><time>2026-04-19T10:32:46Z</time></trkpt><trkpt lat="42.583416701471386" lon="13.248119137984459"><ele>940.0</ele><time>2026-04-19T10:32:47.001Z</time></trkpt><trkpt lat="42.5835694680946" lon="13.248224740773649"><ele>936.3333333333333</ele><time>2026-04-19T10:32:48.001Z</time></trkpt><trkpt lat="42.58372746831823" lon="13.248362301496757"><ele>932.6666666666667</ele><time>2026-04-19T10:32:49.001Z</time></trkpt><trkpt lat="42.583903985281346" lon="13.248506822803115"><ele>929.0</ele><time>2026-04-19T10:32:50.001Z</time></trkpt><trkpt lat="42.58409672611168" lon="13.248679404764598"><ele>929.0</ele><time>2026-04-19T10:32:51.001Z</time></trkpt><trkpt lat="42.584298336869544" lon="13.248849221206005"><ele>929.0</ele><time>2026-04-19T10:32:52.001Z</time></trkpt><trkpt lat="42.584486076014116" lon="13.249009236152201"><ele>930.0</ele><time>2026-04-19T10:32:53.001Z</time></trkpt><trkpt lat="42.58465769315035" lon="13.249153203501251"><ele>931.0</ele><time>2026-04-19T10:32:54.001Z</time></trkpt><trkpt lat="42.58481320939631" lon="13.249292249628795"><ele>932.0</ele><time>2026-04-19T10:32:55.001Z</time></trkpt><trkpt lat="42.58495014437674" lon="13.249448887883117"><ele>932.0</ele><time>2026-04-19T10:32:56.001Z</time></trkpt><trkpt lat="42.58507511873616" lon="13.249628845846756"><ele>932.0</ele><time>2026-04-19T10:32:57.001Z</time></trkpt><trkpt lat="42.58517964665572" lon="13.249819767983842"><ele>932.0</ele><time>2026-04-19T10:32:58.001Z</time></trkpt><trkpt lat="42.58526071739652" lon="13.25000980031228"><ele>931.25</ele><time>2026-04-19T10:32:59.001Z</time></trkpt><trkpt lat="42.58535245207836" lon="13.250174021401921"><ele>930.5</ele><time>2026-04-19T10:33:00.001Z</time></trkpt><trkpt lat="42.58547426902224" lon="13.250278283991197"><ele>929.75</ele><time>2026-04-19T10:33:01.001Z</time></trkpt><trkpt lat="42.585623311340534" lon="13.250324207073392"><ele>929.0</ele><time>2026-04-19T10:33:02.001Z</time></trkpt><trkpt lat="42.58581208073232" lon="13.250367068781665"><ele>929.0</ele><time>2026-04-19T10:33:03.001Z</time></trkpt><trkpt lat="42.58601960029351" lon="13.250487193614035"><ele>929.0</ele><time>2026-04-19T10:33:04.001Z</time></trkpt><trkpt lat="42.586221079462746" lon="13.250643158779548"><ele>931.5</ele><time>2026-04-19T10:33:05.001Z</time></trkpt><trkpt lat="42.58643398359343" lon="13.250798437043871"><ele>934.0</ele><time>2026-04-19T10:33:06.001Z</time></trkpt><trkpt lat="42.58666231028626" lon="13.25094972034823"><ele>934.0</ele><time>2026-04-19T10:33:07.001Z</time></trkpt><trkpt lat="42.58690686090346" lon="13.251097652502072"><ele>934.0</ele><time>2026-04-19T10:33:08.001Z</time></trkpt><trkpt lat="42.58714168964945" lon="13.251222458503726"><ele>926.0</ele><time>2026-04-19T10:33:09.001Z</time></trkpt><trkpt lat="42.58736011872643" lon="13.251331965662544"><ele>918.0</ele><time>2026-04-19T10:33:10.001Z</time></trkpt><trkpt lat="42.58756830040519" lon="13.251444864426105"><ele>919.0</ele><time>2026-04-19T10:33:11.001Z</time></trkpt><trkpt lat="42.58775661870541" lon="13.25156469710997"><ele>920.0</ele><time>2026-04-19T10:33:12.001Z</time></trkpt><trkpt lat="42.58791533024148" lon="13.251699693622617"><ele>921.0</ele><time>2026-04-19T10:33:13.001Z</time></trkpt><trkpt lat="42.58804444854855" lon="13.251856574593015"><ele>921.0</ele><time>2026-04-19T10:33:14.001Z</time></trkpt><trkpt lat="42.58812826539198" lon="13.252007808641347"><ele>921.0</ele><time>2026-04-19T10:33:15.001Z</time></trkpt><trkpt lat="42.588185403557716" lon="13.252188764945886"><ele>921.0</ele><time>2026-04-19T10:33:16.001Z</time></trkpt><trkpt lat="42.58822866318537" lon="13.252417426349094"><ele>922.3333333333333</ele><time>2026-04-19T10:33:17.001Z</time></trkpt><trkpt lat="42.588283765250715" lon="13.252674055982927"><ele>923.6666666666666</ele><time>2026-04-19T10:33:18.001Z</time></trkpt><trkpt lat="42.588364623154746" lon="13.252935956838886"><ele>925.0</ele><time>2026-04-19T10:33:19.001Z</time></trkpt><trkpt lat="42.58847461086996" lon="13.253191725620116"><ele>926.6666666666666</ele><time>2026-04-19T10:33:20.001Z</time></trkpt><trkpt lat="42.58859413161394" lon="13.25341805505345"><ele>928.3333333333333</ele><time>2026-04-19T10:33:21.001Z</time></trkpt><trkpt lat="42.58871724895107" lon="13.253609458737845"><ele>930.0</ele><time>2026-04-19T10:33:22.001Z</time></trkpt><trkpt lat="42.58885269807231" lon="13.25377243579294"><ele>930.0</ele><time>2026-04-19T10:33:23.001Z</time></trkpt><trkpt lat="42.58901175715345" lon="13.253896857273237"><ele>930.0</ele><time>2026-04-19T10:33:24.001Z</time></trkpt><trkpt lat="42.589194723894856" lon="13.253988755991054"><ele>930.0</ele><time>2026-04-19T10:33:25.001Z</time></trkpt><trkpt lat="42.58939150057369" lon="13.254062923490881"><ele>926.6666666666667</ele><time>2026-04-19T10:33:26.001Z</time></trkpt><trkpt lat="42.58959470828706" lon="13.254141169834845"><ele>923.3333333333334</ele><time>2026-04-19T10:33:27.001Z</time></trkpt><trkpt lat="42.589802644647456" lon="13.25423313312721"><ele>920.0</ele><time>2026-04-19T10:33:28.001Z</time></trkpt><trkpt lat="42.590007276948775" lon="13.254319620572483"><ele>920.0</ele><time>2026-04-19T10:33:29.001Z</time></trkpt><trkpt lat="42.59021045792913" lon="13.254400535579787"><ele>920.0</ele><time>2026-04-19T10:33:30.001Z</time></trkpt><trkpt lat="42.59040845033415" lon="13.254480210717931"><ele>920.0</ele><time>2026-04-19T10:33:31.001Z</time></trkpt><trkpt lat="42.590592862272956" lon="13.254558547020624"><ele>918.0</ele><time>2026-04-19T10:33:32.001Z</time></trkpt><trkpt lat="42.59078026138075" lon="13.254644127933874"><ele>916.0</ele><time>2026-04-19T10:33:33.001Z</time></trkpt><trkpt lat="42.59096401960525" lon="13.254739784788617"><ele>914.0</ele><time>2026-04-19T10:33:34.001Z</time></trkpt><trkpt lat="42.59114672943728" lon="13.25485121568143"><ele>914.0</ele><time>2026-04-19T10:33:35.001Z</time></trkpt><trkpt lat="42.59132689504768" lon="13.254971324449341"><ele>914.0</ele><time>2026-04-19T10:33:36.001Z</time></trkpt><trkpt lat="42.59150608382165" lon="13.255087243542386"><ele>914.0</ele><time>2026-04-19T10:33:37.001Z</time></trkpt><trkpt lat="42.59167788001759" lon="13.255187289718668"><ele>914.0</ele><time>2026-04-19T10:33:38.001Z</time></trkpt><trkpt lat="42.591848872242" lon="13.255265512520696"><ele>914.0</ele><time>2026-04-19T10:33:39.001Z</time></trkpt><trkpt lat="42.592014529640984" lon="13.255312866841491"><ele>914.0</ele><time>2026-04-19T10:33:40.001Z</time></trkpt><trkpt lat="42.59217467373163" lon="13.255339682648437"><ele>913.0</ele><time>2026-04-19T10:33:41.001Z</time></trkpt><trkpt lat="42.5923220051993" lon="13.25539531274648"><ele>912.0</ele><time>2026-04-19T10:33:42.001Z</time></trkpt><trkpt lat="42.5924755740512" lon="13.25549871067161"><ele>911.0</ele><time>2026-04-19T10:33:43.001Z</time></trkpt><trkpt lat="42.592634381749484" lon="13.255659564175605"><ele>913.5</ele><time>2026-04-19T10:33:44.001Z</time></trkpt><trkpt lat="42.592801969451706" lon="13.255854435743705"><ele>916.0</ele><time>2026-04-19T10:33:45.001Z</time></trkpt><trkpt lat="42.59298873207455" lon="13.256034795867377"><ele>916.0</ele><time>2026-04-19T10:33:46.001Z</time></trkpt><trkpt lat="42.59317947719556" lon="13.256172667287922"><ele>916.0</ele><time>2026-04-19T10:33:47.001Z</time></trkpt><trkpt lat="42.593351092653336" lon="13.25628211124563"><ele>916.0</ele><time>2026-04-19T10:33:48.001Z</time></trkpt><trkpt lat="42.59348063923718" lon="13.256365856585354"><ele>916.0</ele><time>2026-04-19T10:33:49.001Z</time></trkpt><trkpt lat="42.59358747855608" lon="13.256443115815962"><ele>916.0</ele><time>2026-04-19T10:33:50.001Z</time></trkpt><trkpt lat="42.59369692494594" lon="13.256490444352503"><ele>916.0</ele><time>2026-04-19T10:33:51.001Z</time></trkpt><trkpt lat="42.59381520522818" lon="13.256485650544025"><ele>916.0</ele><time>2026-04-19T10:33:52.001Z</time></trkpt><trkpt lat="42.593943348544464" lon="13.256424250439222"><ele>915.3333333333333</ele><time>2026-04-19T10:33:53.001Z</time></trkpt><trkpt lat="42.594087805894496" lon="13.256346705385115"><ele>914.6666666666667</ele><time>2026-04-19T10:33:54.001Z</time></trkpt><trkpt lat="42.59425450182913" lon="13.256296849957035"><ele>914.0</ele><time>2026-04-19T10:33:55.001Z</time></trkpt><trkpt lat="42.59442994429681" lon="13.256294578262109"><ele>916.0</ele><time>2026-04-19T10:33:56.001Z</time></trkpt><trkpt lat="42.594576511793" lon="13.256311824757152"><ele>918.0</ele><time>2026-04-19T10:33:57.001Z</time></trkpt><trkpt lat="42.5947124059969" lon="13.256283292464111"><ele>920.0</ele><time>2026-04-19T10:33:58.001Z</time></trkpt><trkpt lat="42.59486528198916" lon="13.256178605254446"><ele>920.0</ele><time>2026-04-19T10:33:59.001Z</time></trkpt><trkpt lat="42.59501150766163" lon="13.25604950667452"><ele>920.0</ele><time>2026-04-19T10:34:00.001Z</time></trkpt><trkpt lat="42.59517579411538" lon="13.2559501714859"><ele>920.0</ele><time>2026-04-19T10:34:01.001Z</time></trkpt><trkpt lat="42.595336275562445" lon="13.255902699940664"><ele>921.3333333333334</ele><time>2026-04-19T10:34:02.001Z</time></trkpt><trkpt lat="42.5955209218006" lon="13.255895615481842"><ele>922.6666666666667</ele><time>2026-04-19T10:34:03.001Z</time></trkpt><trkpt lat="42.595743740239236" lon="13.255918691721464"><ele>924.0</ele><time>2026-04-19T10:34:04.001Z</time></trkpt><trkpt lat="42.59598210153222" lon="13.255919784222638"><ele>922.5</ele><time>2026-04-19T10:34:05.001Z</time></trkpt><trkpt lat="42.59621518610749" lon="13.255903826685845"><ele>921.0</ele><time>2026-04-19T10:34:06.001Z</time></trkpt><trkpt lat="42.596436452049076" lon="13.255912173384697"><ele>921.0</ele><time>2026-04-19T10:34:07.001Z</time></trkpt><trkpt lat="42.596658866954655" lon="13.255959544295198"><ele>921.0</ele><time>2026-04-19T10:34:08.001Z</time></trkpt><trkpt lat="42.596888435904276" lon="13.256041857230407"><ele>917.0</ele><time>2026-04-19T10:34:09.001Z</time></trkpt><trkpt lat="42.597118230847876" lon="13.25613378517649"><ele>913.0</ele><time>2026-04-19T10:34:10.001Z</time></trkpt><trkpt lat="42.59733299528048" lon="13.256217784014796"><ele>913.0</ele><time>2026-04-19T10:34:11.001Z</time></trkpt><trkpt lat="42.59753768927932" lon="13.25626566191942"><ele>913.0</ele><time>2026-04-19T10:34:12.001Z</time></trkpt><trkpt lat="42.597731384433246" lon="13.25628044487094"><ele>913.0</ele><time>2026-04-19T10:34:13.001Z</time></trkpt><trkpt lat="42.597923384236005" lon="13.25629651947621"><ele>910.3333333333333</ele><time>2026-04-19T10:34:14.001Z</time></trkpt><trkpt lat="42.59811419146652" lon="13.25632903204991"><ele>907.6666666666667</ele><time>2026-04-19T10:34:15.001Z</time></trkpt><trkpt lat="42.59830648155845" lon="13.256406437255507"><ele>905.0</ele><time>2026-04-19T10:34:16.001Z</time></trkpt><trkpt lat="42.59851939120088" lon="13.256544075712265"><ele>912.0</ele><time>2026-04-19T10:34:17.001Z</time></trkpt><trkpt lat="42.598735485579404" lon="13.256690166628339"><ele>919.0</ele><time>2026-04-19T10:34:18.001Z</time></trkpt><trkpt lat="42.59896988038845" lon="13.256814598922185"><ele>919.0</ele><time>2026-04-19T10:34:19.001Z</time></trkpt><trkpt lat="42.59919642041969" lon="13.256881813679708"><ele>919.0</ele><time>2026-04-19T10:34:20.001Z</time></trkpt><trkpt lat="42.599409920539266" lon="13.256927438234834"><ele>919.0</ele><time>2026-04-19T10:34:21.001Z</time></trkpt><trkpt lat="42.59959976526954" lon="13.256958977296819"><ele>915.3333333333333</ele><time>2026-04-19T10:34:22.001Z</time></trkpt><trkpt lat="42.599758704555505" lon="13.256983095493116"><ele>911.6666666666667</ele><time>2026-04-19T10:34:23.001Z</time></trkpt><trkpt lat="42.599911686214504" lon="13.257014745396962"><ele>908.0</ele><time>2026-04-19T10:34:24.001Z</time></trkpt><trkpt lat="42.60004995407253" lon="13.257078652762424"><ele>908.0</ele><time>2026-04-19T10:34:25.001Z</time></trkpt><trkpt lat="42.60019082879694" lon="13.25718642581682"><ele>908.0</ele><time>2026-04-19T10:34:26.001Z</time></trkpt><trkpt lat="42.600321465516124" lon="13.257341438989977"><ele>908.0</ele><time>2026-04-19T10:34:27.001Z</time></trkpt><trkpt lat="42.60044440426456" lon="13.257545350035956"><ele>910.3333333333334</ele><time>2026-04-19T10:34:28.001Z</time></trkpt><trkpt lat="42.600573769683386" lon="13.257764953797237"><ele>912.6666666666667</ele><time>2026-04-19T10:34:29.001Z</time></trkpt><trkpt lat="42.600695516754044" lon="13.257968331200663"><ele>915.0</ele><time>2026-04-19T10:34:30.001Z</time></trkpt><trkpt lat="42.60079556964181" lon="13.258155725839156"><ele>917.75</ele><time>2026-04-19T10:34:31.001Z</time></trkpt><trkpt lat="42.60088311673524" lon="13.258302994312222"><ele>920.5</ele><time>2026-04-19T10:34:32.001Z</time></trkpt><trkpt lat="42.6009829714159" lon="13.258392745155087"><ele>923.25</ele><time>2026-04-19T10:34:33.001Z</time></trkpt><trkpt lat="42.60108787039722" lon="13.258419254967876"><ele>926.0</ele><time>2026-04-19T10:34:34.001Z</time></trkpt><trkpt lat="42.60120182984616" lon="13.2583821720351"><ele>926.0</ele><time>2026-04-19T10:34:35.001Z</time></trkpt><trkpt lat="42.60132006180065" lon="13.258298045225349"><ele>926.0</ele><time>2026-04-19T10:34:36.001Z</time></trkpt><trkpt lat="42.60140079445933" lon="13.258190566523709"><ele>926.0</ele><time>2026-04-19T10:34:37.001Z</time></trkpt><trkpt lat="42.601431505599464" lon="13.25805441760638"><ele>926.0</ele><time>2026-04-19T10:34:38.001Z</time></trkpt><trkpt lat="42.60141668600773" lon="13.257894439219667"><ele>924.3333333333334</ele><time>2026-04-19T10:34:39.001Z</time></trkpt><trkpt lat="42.601365718838714" lon="13.25768647575376"><ele>922.6666666666667</ele><time>2026-04-19T10:34:40.001Z</time></trkpt><trkpt lat="42.6013278473203" lon="13.257443237836952"><ele>921.0</ele><time>2026-04-19T10:34:41.001Z</time></trkpt><trkpt lat="42.60129374057968" lon="13.25720238976795"><ele>921.0</ele><time>2026-04-19T10:34:42.001Z</time></trkpt><trkpt lat="42.60126490680077" lon="13.257000061922454"><ele>921.0</ele><time>2026-04-19T10:34:43.001Z</time></trkpt><trkpt lat="42.601259451512355" lon="13.256852711945477"><ele>921.0</ele><time>2026-04-19T10:34:44.001Z</time></trkpt><trkpt lat="42.601277785882885" lon="13.25673726229181"><ele>921.0</ele><time>2026-04-19T10:34:45.001Z</time></trkpt><trkpt lat="42.60133458234008" lon="13.25661084424909"><ele>921.0</ele><time>2026-04-19T10:34:46.001Z</time></trkpt><trkpt lat="42.6014520579945" lon="13.256579077374155"><ele>921.0</ele><time>2026-04-19T10:34:47.001Z</time></trkpt><trkpt lat="42.601592255261544" lon="13.256567480766485"><ele>921.0</ele><time>2026-04-19T10:34:48.001Z</time></trkpt><trkpt lat="42.60177216006261" lon="13.256582965317655"><ele>921.0</ele><time>2026-04-19T10:34:49.001Z</time></trkpt><trkpt lat="42.60195632163739" lon="13.256661076807069"><ele>919.0</ele><time>2026-04-19T10:34:50.001Z</time></trkpt><trkpt lat="42.60216127884381" lon="13.256749975729496"><ele>917.0</ele><time>2026-04-19T10:34:51.001Z</time></trkpt><trkpt lat="42.602354641908455" lon="13.256871103850772"><ele>915.0</ele><time>2026-04-19T10:34:52.001Z</time></trkpt><trkpt lat="42.60253648347616" lon="13.256967438727282"><ele>915.0</ele><time>2026-04-19T10:34:53.001Z</time></trkpt><trkpt lat="42.60268115272664" lon="13.25706600697596"><ele>915.0</ele><time>2026-04-19T10:34:54.001Z</time></trkpt><trkpt lat="42.60280321037562" lon="13.257188201947725"><ele>915.0</ele><time>2026-04-19T10:34:55.001Z</time></trkpt><trkpt lat="42.60289896296318" lon="13.257326619192373"><ele>918.0</ele><time>2026-04-19T10:34:56.001Z</time></trkpt><trkpt lat="42.602979033374595" lon="13.25753843702722"><ele>921.0</ele><time>2026-04-19T10:34:57.001Z</time></trkpt><trkpt lat="42.603062583939916" lon="13.257784328099415"><ele>924.0</ele><time>2026-04-19T10:34:58.001Z</time></trkpt><trkpt lat="42.60316877012225" lon="13.258039072286692"><ele>927.6666666666667</ele><time>2026-04-19T10:34:59.001Z</time></trkpt><trkpt lat="42.60326848491679" lon="13.258286979283602"><ele>931.3333333333334</ele><time>2026-04-19T10:35:00.001Z</time></trkpt><trkpt lat="42.60336053716915" lon="13.258501704023638"><ele>935.0</ele><time>2026-04-19T10:35:01.001Z</time></trkpt><trkpt lat="42.60346936335394" lon="13.258698531697771"><ele>935.0</ele><time>2026-04-19T10:35:02.001Z</time></trkpt><trkpt lat="42.603616249459805" lon="13.258875671136428"><ele>935.0</ele><time>2026-04-19T10:35:03.001Z</time></trkpt><trkpt lat="42.60376269441233" lon="13.259035664593158"><ele>935.0</ele><time>2026-04-19T10:35:04.001Z</time></trkpt><trkpt lat="42.6038647053725" lon="13.259203597218864"><ele>935.0</ele><time>2026-04-19T10:35:05.001Z</time></trkpt><trkpt lat="42.60393362791057" lon="13.259393398140707"><ele>935.0</ele><time>2026-04-19T10:35:06.001Z</time></trkpt><trkpt lat="42.60402626215979" lon="13.259635113755582"><ele>935.0</ele><time>2026-04-19T10:35:07.001Z</time></trkpt><trkpt lat="42.60411469303557" lon="13.259862393499954"><ele>939.0</ele><time>2026-04-19T10:35:08.001Z</time></trkpt><trkpt lat="42.60422063560153" lon="13.260016244281676"><ele>943.0</ele><time>2026-04-19T10:35:09.001Z</time></trkpt><trkpt lat="42.60432333103492" lon="13.260105664131054"><ele>947.0</ele><time>2026-04-19T10:35:10.001Z</time></trkpt><trkpt lat="42.60440647777022" lon="13.260121758804024"><ele>951.0</ele><time>2026-04-19T10:35:11.001Z</time></trkpt><trkpt lat="42.604492598864496" lon="13.260075762505402"><ele>952.0</ele><time>2026-04-19T10:35:12.001Z</time></trkpt><trkpt lat="42.60458190304594" lon="13.259975086103074"><ele>953.0</ele><time>2026-04-19T10:35:13.001Z</time></trkpt><trkpt lat="42.604626251435505" lon="13.259836599633198"><ele>954.0</ele><time>2026-04-19T10:35:14.001Z</time></trkpt><trkpt lat="42.604612211742605" lon="13.25965629600037"><ele>955.0</ele><time>2026-04-19T10:35:15.001Z</time></trkpt><trkpt lat="42.604568367428264" lon="13.25942568248"><ele>955.0</ele><time>2026-04-19T10:35:16.001Z</time></trkpt><trkpt lat="42.60456070793082" lon="13.259148667314879"><ele>955.0</ele><time>2026-04-19T10:35:17.001Z</time></trkpt><trkpt lat="42.604549501217804" lon="13.25886332928708"><ele>955.0</ele><time>2026-04-19T10:35:18.001Z</time></trkpt><trkpt lat="42.60454535373391" lon="13.258587068195638"><ele>955.6666666666666</ele><time>2026-04-19T10:35:19.001Z</time></trkpt><trkpt lat="42.60452319992236" lon="13.25829154125916"><ele>956.3333333333333</ele><time>2026-04-19T10:35:20.001Z</time></trkpt><trkpt lat="42.60451363668767" lon="13.258004602270713"><ele>957.0</ele><time>2026-04-19T10:35:21.001Z</time></trkpt><trkpt lat="42.60448967392197" lon="13.257774756710797"><ele>951.25</ele><time>2026-04-19T10:35:22.001Z</time></trkpt><trkpt lat="42.60445038494868" lon="13.257558622009439"><ele>945.5</ele><time>2026-04-19T10:35:23.001Z</time></trkpt><trkpt lat="42.60439516065813" lon="13.25738129924446"><ele>939.75</ele><time>2026-04-19T10:35:24.001Z</time></trkpt><trkpt lat="42.604351199697696" lon="13.257216064574296"><ele>934.0</ele><time>2026-04-19T10:35:25.001Z</time></trkpt><trkpt lat="42.6043349732875" lon="13.257101026478502"><ele>931.75</ele><time>2026-04-19T10:35:26.001Z</time></trkpt><trkpt lat="42.60436037084328" lon="13.256975527007306"><ele>929.5</ele><time>2026-04-19T10:35:27.001Z</time></trkpt><trkpt lat="42.60444612211541" lon="13.256891602061431"><ele>927.25</ele><time>2026-04-19T10:35:28.001Z</time></trkpt><trkpt lat="42.60456064179462" lon="13.25682416565899"><ele>925.0</ele><time>2026-04-19T10:35:29.001Z</time></trkpt><trkpt lat="42.60471195378127" lon="13.25674003692595"><ele>932.6666666666666</ele><time>2026-04-19T10:35:30.001Z</time></trkpt><trkpt lat="42.604870245537015" lon="13.256636165980858"><ele>940.3333333333333</ele><time>2026-04-19T10:35:31.001Z</time></trkpt><trkpt lat="42.60504853790033" lon="13.25655471076779"><ele>948.0</ele><time>2026-04-19T10:35:32.001Z</time></trkpt><trkpt lat="42.605229778924745" lon="13.256462496642497"><ele>943.3333333333333</ele><time>2026-04-19T10:35:33.001Z</time></trkpt><trkpt lat="42.60540785952658" lon="13.25635648495531"><ele>938.6666666666666</ele><time>2026-04-19T10:35:34.001Z</time></trkpt><trkpt lat="42.60560020125636" lon="13.256280603703413"><ele>934.0</ele><time>2026-04-19T10:35:35.001Z</time></trkpt><trkpt lat="42.6057926707006" lon="13.256221162443133"><ele>934.0</ele><time>2026-04-19T10:35:36.001Z</time></trkpt><trkpt lat="42.60599251823113" lon="13.256205246604729"><ele>934.0</ele><time>2026-04-19T10:35:37.001Z</time></trkpt><trkpt lat="42.60621639729019" lon="13.256176968013017"><ele>934.0</ele><time>2026-04-19T10:35:38.001Z</time></trkpt><trkpt lat="42.60644322758327" lon="13.256126934713206"><ele>936.0</ele><time>2026-04-19T10:35:39.001Z</time></trkpt><trkpt lat="42.606654836060024" lon="13.256095211079254"><ele>938.0</ele><time>2026-04-19T10:35:40.001Z</time></trkpt><trkpt lat="42.60684255268847" lon="13.256079335988735"><ele>940.0</ele><time>2026-04-19T10:35:41.001Z</time></trkpt><trkpt lat="42.60700465465557" lon="13.25605581406675"><ele>940.75</ele><time>2026-04-19T10:35:42.001Z</time></trkpt><trkpt lat="42.60712762392189" lon="13.256019738053793"><ele>941.5</ele><time>2026-04-19T10:35:43.001Z</time></trkpt><trkpt lat="42.607235593966145" lon="13.256040159132711"><ele>942.25</ele><time>2026-04-19T10:35:44.001Z</time></trkpt><trkpt lat="42.607340078778115" lon="13.256112852527695"><ele>943.0</ele><time>2026-04-19T10:35:45.001Z</time></trkpt><trkpt lat="42.607443050137356" lon="13.2562489850996"><ele>943.0</ele><time>2026-04-19T10:35:46.001Z</time></trkpt><trkpt lat="42.60754527138925" lon="13.256399808854402"><ele>943.0</ele><time>2026-04-19T10:35:47.001Z</time></trkpt><trkpt lat="42.60769462001918" lon="13.256483596548655"><ele>943.0</ele><time>2026-04-19T10:35:48.001Z</time></trkpt><trkpt lat="42.60786018537834" lon="13.256518676141937"><ele>944.0</ele><time>2026-04-19T10:35:49.001Z</time></trkpt><trkpt lat="42.60799962847068" lon="13.256537462031577"><ele>945.0</ele><time>2026-04-19T10:35:50.001Z</time></trkpt><trkpt lat="42.60810766336355" lon="13.256506041165059"><ele>946.0</ele><time>2026-04-19T10:35:51.001Z</time></trkpt><trkpt lat="42.60820927971655" lon="13.256414924472509"><ele>947.0</ele><time>2026-04-19T10:35:52.001Z</time></trkpt><trkpt lat="42.60831994280014" lon="13.256265365387062"><ele>947.0</ele><time>2026-04-19T10:35:53.001Z</time></trkpt><trkpt lat="42.608449070679555" lon="13.256143872333135"><ele>947.0</ele><time>2026-04-19T10:35:54.001Z</time></trkpt><trkpt lat="42.60860435440053" lon="13.256059068706032"><ele>947.0</ele><time>2026-04-19T10:35:55.001Z</time></trkpt><trkpt lat="42.60879371367468" lon="13.256021869703588"><ele>950.6666666666667</ele><time>2026-04-19T10:35:56.001Z</time></trkpt><trkpt lat="42.60900922144111" lon="13.255992791477523"><ele>954.3333333333333</ele><time>2026-04-19T10:35:57.001Z</time></trkpt><trkpt lat="42.609199715927524" lon="13.255954770642933"><ele>958.0</ele><time>2026-04-19T10:35:58.001Z</time></trkpt><trkpt lat="42.60940902997751" lon="13.255989881421431"><ele>957.0</ele><time>2026-04-19T10:35:59.001Z</time></trkpt><trkpt lat="42.6096281927896" lon="13.2560164298451"><ele>956.0</ele><time>2026-04-19T10:36:00.001Z</time></trkpt><trkpt lat="42.60984064503236" lon="13.256033627987012"><ele>955.0</ele><time>2026-04-19T10:36:01.001Z</time></trkpt><trkpt lat="42.61003572332839" lon="13.256079736507445"><ele>955.0</ele><time>2026-04-19T10:36:02.001Z</time></trkpt><trkpt lat="42.610196708127084" lon="13.256128537287193"><ele>955.0</ele><time>2026-04-19T10:36:03.001Z</time></trkpt><trkpt lat="42.61032491594963" lon="13.25618516735464"><ele>955.0</ele><time>2026-04-19T10:36:04.001Z</time></trkpt><trkpt lat="42.61040968754191" lon="13.2562541739226"><ele>955.0</ele><time>2026-04-19T10:36:05.001Z</time></trkpt><trkpt lat="42.61046188093037" lon="13.256363872245993"><ele>957.0</ele><time>2026-04-19T10:36:06.001Z</time></trkpt><trkpt lat="42.610477426628286" lon="13.256510222643456"><ele>959.0</ele><time>2026-04-19T10:36:07.001Z</time></trkpt><trkpt lat="42.61045059254766" lon="13.256688392451963"><ele>961.0</ele><time>2026-04-19T10:36:08.001Z</time></trkpt><trkpt lat="42.610379415273144" lon="13.25686742808713"><ele>963.0</ele><time>2026-04-19T10:36:09.001Z</time></trkpt><trkpt lat="42.61028762799098" lon="13.25705193778068"><ele>968.0</ele><time>2026-04-19T10:36:10.001Z</time></trkpt><trkpt lat="42.61019873504207" lon="13.25723771176214"><ele>973.0</ele><time>2026-04-19T10:36:11.001Z</time></trkpt><trkpt lat="42.610099358286085" lon="13.257418963015294"><ele>978.0</ele><time>2026-04-19T10:36:12.001Z</time></trkpt><trkpt lat="42.61001483164387" lon="13.25756863932934"><ele>978.4</ele><time>2026-04-19T10:36:13.001Z</time></trkpt><trkpt lat="42.609948772995686" lon="13.257696216851082"><ele>978.8</ele><time>2026-04-19T10:36:14.001Z</time></trkpt><trkpt lat="42.609930916639264" lon="13.257831485448163"><ele>979.2</ele><time>2026-04-19T10:36:15.001Z</time></trkpt><trkpt lat="42.60996034422588" lon="13.257970029646977"><ele>979.6</ele><time>2026-04-19T10:36:16.001Z</time></trkpt><trkpt lat="42.610038369341154" lon="13.258090259848467"><ele>980.0</ele><time>2026-04-19T10:36:17.001Z</time></trkpt><trkpt lat="42.61016197170424" lon="13.258179315052745"><ele>979.6666666666667</ele><time>2026-04-19T10:36:18.001Z</time></trkpt><trkpt lat="42.61034347887248" lon="13.258225214544165"><ele>979.3333333333333</ele><time>2026-04-19T10:36:19.001Z</time></trkpt><trkpt lat="42.610540971142264" lon="13.258309211203631"><ele>979.0</ele><time>2026-04-19T10:36:20.001Z</time></trkpt><trkpt lat="42.610732564692626" lon="13.258384466673064"><ele>979.0</ele><time>2026-04-19T10:36:21.001Z</time></trkpt><trkpt lat="42.610920899144055" lon="13.258456195480116"><ele>979.0</ele><time>2026-04-19T10:36:22.001Z</time></trkpt><trkpt lat="42.61109916941628" lon="13.25852342818206"><ele>979.0</ele><time>2026-04-19T10:36:23.001Z</time></trkpt><trkpt lat="42.61124288272004" lon="13.258586995055234"><ele>980.25</ele><time>2026-04-19T10:36:24.001Z</time></trkpt><trkpt lat="42.61135815270235" lon="13.258648268469614"><ele>981.5</ele><time>2026-04-19T10:36:25.001Z</time></trkpt><trkpt lat="42.61145451996902" lon="13.258707457722966"><ele>982.75</ele><time>2026-04-19T10:36:26.001Z</time></trkpt><trkpt lat="42.61150877700495" lon="13.25885039599464"><ele>984.0</ele><time>2026-04-19T10:36:27.001Z</time></trkpt><trkpt lat="42.61153224348995" lon="13.259014618701913"><ele>984.0</ele><time>2026-04-19T10:36:28.001Z</time></trkpt><trkpt lat="42.61152694640107" lon="13.259180119009265"><ele>984.0</ele><time>2026-04-19T10:36:29.001Z</time></trkpt><trkpt lat="42.611496039399434" lon="13.259372602578924"><ele>984.0</ele><time>2026-04-19T10:36:30.001Z</time></trkpt><trkpt lat="42.61147237045901" lon="13.259578823304523"><ele>984.0</ele><time>2026-04-19T10:36:31.001Z</time></trkpt><trkpt lat="42.611429977040615" lon="13.25976533492302"><ele>985.8000000000001</ele><time>2026-04-19T10:36:32.001Z</time></trkpt><trkpt lat="42.61140627566232" lon="13.259928979182241"><ele>987.6000000000001</ele><time>2026-04-19T10:36:33.001Z</time></trkpt><trkpt lat="42.61141025069934" lon="13.260075341024223"><ele>989.4</ele><time>2026-04-19T10:36:34.001Z</time></trkpt><trkpt lat="42.61145017955705" lon="13.260196346675926"><ele>991.2</ele><time>2026-04-19T10:36:35.001Z</time></trkpt><trkpt lat="42.61153194174049" lon="13.260271052744868"><ele>993.0</ele><time>2026-04-19T10:36:36.001Z</time></trkpt><trkpt lat="42.611632681140875" lon="13.260286779550222"><ele>993.0</ele><time>2026-04-19T10:36:37.001Z</time></trkpt><trkpt lat="42.61174993904745" lon="13.260244914518426"><ele>993.0</ele><time>2026-04-19T10:36:38.001Z</time></trkpt><trkpt lat="42.6118849296518" lon="13.260151667560148"><ele>993.0</ele><time>2026-04-19T10:36:39.001Z</time></trkpt><trkpt lat="42.61203057172841" lon="13.260010844018574"><ele>995.3333333333333</ele><time>2026-04-19T10:36:40.001Z</time></trkpt><trkpt lat="42.6121767489297" lon="13.259881444221795"><ele>997.6666666666666</ele><time>2026-04-19T10:36:41.001Z</time></trkpt><trkpt lat="42.61232571773241" lon="13.259751850727431"><ele>1000.0</ele><time>2026-04-19T10:36:42.001Z</time></trkpt><trkpt lat="42.612476798694345" lon="13.259626040658965"><ele>999.6666666666666</ele><time>2026-04-19T10:36:43.001Z</time></trkpt><trkpt lat="42.61262336489804" lon="13.259476054636863"><ele>999.3333333333333</ele><time>2026-04-19T10:36:44.001Z</time></trkpt><trkpt lat="42.61274908728617" lon="13.259282372786021"><ele>999.0</ele><time>2026-04-19T10:36:45.001Z</time></trkpt><trkpt lat="42.61284504950251" lon="13.25907888908816"><ele>995.5</ele><time>2026-04-19T10:36:46.001Z</time></trkpt><trkpt lat="42.612927803583936" lon="13.258904922433072"><ele>992.0</ele><time>2026-04-19T10:36:47.001Z</time></trkpt><trkpt lat="42.61302181799414" lon="13.25877824108006"><ele>988.5</ele><time>2026-04-19T10:36:48.001Z</time></trkpt><trkpt lat="42.613103820428954" lon="13.258698799119264"><ele>985.0</ele><time>2026-04-19T10:36:49.001Z</time></trkpt><trkpt lat="42.61318472411681" lon="13.25863588450565"><ele>985.0</ele><time>2026-04-19T10:36:50.001Z</time></trkpt><trkpt lat="42.61330101121044" lon="13.258682772070427"><ele>985.0</ele><time>2026-04-19T10:36:51.001Z</time></trkpt><trkpt lat="42.61340218246431" lon="13.258770962813902"><ele>985.0</ele><time>2026-04-19T10:36:52.001Z</time></trkpt><trkpt lat="42.61351626301068" lon="13.258887975796428"><ele>985.0</ele><time>2026-04-19T10:36:53.001Z</time></trkpt><trkpt lat="42.61362116825676" lon="13.259023821128359"><ele>984.75</ele><time>2026-04-19T10:36:54.001Z</time></trkpt><trkpt lat="42.613733422527524" lon="13.259190911774763"><ele>984.5</ele><time>2026-04-19T10:36:55.001Z</time></trkpt><trkpt lat="42.61380345885049" lon="13.259387254959528"><ele>984.25</ele><time>2026-04-19T10:36:56.001Z</time></trkpt><trkpt lat="42.613871468892704" lon="13.259524463121426"><ele>984.0</ele><time>2026-04-19T10:36:57.001Z</time></trkpt><trkpt lat="42.61389587584448" lon="13.259676030537754"><ele>988.0</ele><time>2026-04-19T10:36:58.001Z</time></trkpt><trkpt lat="42.61388484948228" lon="13.25986401138949"><ele>992.0</ele><time>2026-04-19T10:36:59.001Z</time></trkpt><trkpt lat="42.613861058874306" lon="13.260090728500733"><ele>996.0</ele><time>2026-04-19T10:37:00.001Z</time></trkpt><trkpt lat="42.61384142573027" lon="13.260343092023222"><ele>996.0</ele><time>2026-04-19T10:37:01.001Z</time></trkpt><trkpt lat="42.613823832658504" lon="13.26060725154196"><ele>996.0</ele><time>2026-04-19T10:37:02.001Z</time></trkpt><trkpt lat="42.61380497440128" lon="13.260877017277268"><ele>996.0</ele><time>2026-04-19T10:37:03.001Z</time></trkpt><trkpt lat="42.613785307191414" lon="13.2611322043439"><ele>998.0</ele><time>2026-04-19T10:37:04.001Z</time></trkpt><trkpt lat="42.61376378665434" lon="13.261357475774771"><ele>1000.0</ele><time>2026-04-19T10:37:05.001Z</time></trkpt><trkpt lat="42.6137476213621" lon="13.26156225608462"><ele>1002.0</ele><time>2026-04-19T10:37:06.001Z</time></trkpt><trkpt lat="42.61373876733845" lon="13.26176067827313"><ele>1003.25</ele><time>2026-04-19T10:37:07.001Z</time></trkpt><trkpt lat="42.61372854772652" lon="13.261936103726429"><ele>1004.5</ele><time>2026-04-19T10:37:08.001Z</time></trkpt><trkpt lat="42.61372035288732" lon="13.262104041586387"><ele>1005.75</ele><time>2026-04-19T10:37:09.001Z</time></trkpt><trkpt lat="42.613747774642796" lon="13.262247513921125"><ele>1007.0</ele><time>2026-04-19T10:37:10.001Z</time></trkpt><trkpt lat="42.61381346609931" lon="13.262358391341934"><ele>1007.0</ele><time>2026-04-19T10:37:11.001Z</time></trkpt><trkpt lat="42.61390932335275" lon="13.262421882230628"><ele>1007.0</ele><time>2026-04-19T10:37:12.001Z</time></trkpt><trkpt lat="42.614028983259914" lon="13.262404920939224"><ele>1007.0</ele><time>2026-04-19T10:37:13.001Z</time></trkpt><trkpt lat="42.61414685693447" lon="13.262334806407816"><ele>1007.0</ele><time>2026-04-19T10:37:14.001Z</time></trkpt><trkpt lat="42.61426446601708" lon="13.262235487983373"><ele>1007.0</ele><time>2026-04-19T10:37:15.001Z</time></trkpt><trkpt lat="42.61439686306956" lon="13.262159768890191"><ele>1007.0</ele><time>2026-04-19T10:37:16.001Z</time></trkpt><trkpt lat="42.61450996132529" lon="13.262085820168775"><ele>1007.0</ele><time>2026-04-19T10:37:17.001Z</time></trkpt><trkpt lat="42.61462478149488" lon="13.262087045667913"><ele>1007.0</ele><time>2026-04-19T10:37:18.001Z</time></trkpt><trkpt lat="42.61471213755826" lon="13.26217442416756"><ele>1007.5</ele><time>2026-04-19T10:37:19.001Z</time></trkpt><trkpt lat="42.61480058166628" lon="13.26227858886362"><ele>1008.0</ele><time>2026-04-19T10:37:20.001Z</time></trkpt><trkpt lat="42.61489203510729" lon="13.262418961236316"><ele>1008.5</ele><time>2026-04-19T10:37:21.001Z</time></trkpt><trkpt lat="42.61499135494133" lon="13.262563910185355"><ele>1009.0</ele><time>2026-04-19T10:37:22.001Z</time></trkpt><trkpt lat="42.61508283136561" lon="13.262716183227802"><ele>1010.0</ele><time>2026-04-19T10:37:23.001Z</time></trkpt><trkpt lat="42.61518784401517" lon="13.262872414155872"><ele>1011.0</ele><time>2026-04-19T10:37:24.001Z</time></trkpt><trkpt lat="42.61528291488018" lon="13.263011645968891"><ele>1012.0</ele><time>2026-04-19T10:37:25.001Z</time></trkpt><trkpt lat="42.61535713605478" lon="13.263155649444991"><ele>1013.0</ele><time>2026-04-19T10:37:26.001Z</time></trkpt><trkpt lat="42.61540080375297" lon="13.263321973927281"><ele>1013.25</ele><time>2026-04-19T10:37:27.001Z</time></trkpt><trkpt lat="42.615400158398586" lon="13.263494038260143"><ele>1013.5</ele><time>2026-04-19T10:37:28.001Z</time></trkpt><trkpt lat="42.61534037238286" lon="13.263657010063447"><ele>1013.75</ele><time>2026-04-19T10:37:29.001Z</time></trkpt><trkpt lat="42.61529651642467" lon="13.263833749344322"><ele>1014.0</ele><time>2026-04-19T10:37:30.001Z</time></trkpt><trkpt lat="42.61524466691953" lon="13.263962648125252"><ele>1014.0</ele><time>2026-04-19T10:37:31.001Z</time></trkpt><trkpt lat="42.6152173426345" lon="13.264066403741568"><ele>1014.0000000000001</ele><time>2026-04-19T10:37:32.001Z</time></trkpt><trkpt lat="42.61517579461801" lon="13.264183689824042"><ele>1014.0000000000001</ele><time>2026-04-19T10:37:33.001Z</time></trkpt><trkpt lat="42.61514350761545" lon="13.264310118100752"><ele>1014.0</ele><time>2026-04-19T10:37:34.001Z</time></trkpt><trkpt lat="42.6151148399848" lon="13.264424718381145"><ele>1014.0</ele><time>2026-04-19T10:37:35.001Z</time></trkpt><trkpt lat="42.615091322835276" lon="13.26453643865125"><ele>1014.0</ele><time>2026-04-19T10:37:36.001Z</time></trkpt><trkpt lat="42.61504283221397" lon="13.264651655110969"><ele>1014.0000000000001</ele><time>2026-04-19T10:37:37.001Z</time></trkpt><trkpt lat="42.61500952023441" lon="13.264787380531672"><ele>1014.0000000000001</ele><time>2026-04-19T10:37:38.001Z</time></trkpt><trkpt lat="42.61496436026526" lon="13.264903025600882"><ele>1014.0</ele><time>2026-04-19T10:37:39.001Z</time></trkpt><trkpt lat="42.61494810506561" lon="13.265024497715599"><ele>1014.0</ele><time>2026-04-19T10:37:40.001Z</time></trkpt><trkpt lat="42.61496397445399" lon="13.26515861449619"><ele>1013.8333333333334</ele><time>2026-04-19T10:37:41.001Z</time></trkpt><trkpt lat="42.61500794800776" lon="13.26526896998921"><ele>1013.6666666666667</ele><time>2026-04-19T10:37:42.001Z</time></trkpt><trkpt lat="42.61507948759134" lon="13.265346600266867"><ele>1013.5</ele><time>2026-04-19T10:37:43.001Z</time></trkpt><trkpt lat="42.6151478642413" lon="13.265400680529169"><ele>1013.3333333333334</ele><time>2026-04-19T10:37:44.001Z</time></trkpt><trkpt lat="42.61520580230972" lon="13.265463317067514"><ele>1013.1666666666667</ele><time>2026-04-19T10:37:45.001Z</time></trkpt><trkpt lat="42.61523944386852" lon="13.265548104565422"><ele>1013.0</ele><time>2026-04-19T10:37:46.001Z</time></trkpt><trkpt lat="42.61524339420425" lon="13.265646351469318"><ele>1013.0000000000001</ele><time>2026-04-19T10:37:47.001Z</time></trkpt><trkpt lat="42.615220900227804" lon="13.265749517212594"><ele>1013.0</ele><time>2026-04-19T10:37:48.001Z</time></trkpt><trkpt lat="42.61516976445286" lon="13.265844971646585"><ele>1013.0</ele><time>2026-04-19T10:37:49.001Z</time></trkpt><trkpt lat="42.61509306967636" lon="13.265928146916837"><ele>1013.0</ele><time>2026-04-19T10:37:50.001Z</time></trkpt><trkpt lat="42.6150296419454" lon="13.266002660042101"><ele>1013.0000000000001</ele><time>2026-04-19T10:37:51.001Z</time></trkpt><trkpt lat="42.61499342302976" lon="13.266090949191913"><ele>1013.0</ele><time>2026-04-19T10:37:52.001Z</time></trkpt><trkpt lat="42.61498703885723" lon="13.266181037562488"><ele>1013.0</ele><time>2026-04-19T10:37:53.001Z</time></trkpt><trkpt lat="42.61500652508034" lon="13.266282811253145"><ele>1013.0</ele><time>2026-04-19T10:37:54.001Z</time></trkpt><trkpt lat="42.61505249900363" lon="13.266360582664412"><ele>1013.0</ele><time>2026-04-19T10:37:55.001Z</time></trkpt><trkpt lat="42.615129601471345" lon="13.266410134460182"><ele>1013.0</ele><time>2026-04-19T10:37:56.001Z</time></trkpt><trkpt lat="42.61523044197765" lon="13.26642329076582"><ele>1013.0</ele><time>2026-04-19T10:37:57.002Z</time></trkpt><trkpt lat="42.61535135717765" lon="13.266409684258289"><ele>1009.25</ele><time>2026-04-19T10:37:58.002Z</time></trkpt><trkpt lat="42.61547994266024" lon="13.266387763199889"><ele>1005.5</ele><time>2026-04-19T10:37:59.002Z</time></trkpt><trkpt lat="42.615597144895005" lon="13.266395136595058"><ele>1001.75</ele><time>2026-04-19T10:38:00.002Z</time></trkpt><trkpt lat="42.615696692888335" lon="13.266355373260968"><ele>998.0</ele><time>2026-04-19T10:38:01.002Z</time></trkpt><trkpt lat="42.61579708771666" lon="13.266340786251932"><ele>998.0</ele><time>2026-04-19T10:38:02.002Z</time></trkpt><trkpt lat="42.615903118831355" lon="13.266352714421403"><ele>998.0</ele><time>2026-04-19T10:38:03.002Z</time></trkpt><trkpt lat="42.61600436253052" lon="13.26635268675054"><ele>998.0</ele><time>2026-04-19T10:38:04.002Z</time></trkpt><trkpt lat="42.61608861777635" lon="13.266356162356791"><ele>998.0</ele><time>2026-04-19T10:38:05.002Z</time></trkpt><trkpt lat="42.61615997280401" lon="13.266433892109058"><ele>998.0</ele><time>2026-04-19T10:38:06.002Z</time></trkpt><trkpt lat="42.61621140338198" lon="13.266555075573201"><ele>996.5999999999999</ele><time>2026-04-19T10:38:07.002Z</time></trkpt><trkpt lat="42.61623201859315" lon="13.266720951994005"><ele>995.1999999999999</ele><time>2026-04-19T10:38:08.002Z</time></trkpt><trkpt lat="42.61626992381363" lon="13.266867127438205"><ele>993.8</ele><time>2026-04-19T10:38:09.002Z</time></trkpt><trkpt lat="42.616284266712654" lon="13.266980904559166"><ele>992.4</ele><time>2026-04-19T10:38:10.002Z</time></trkpt><trkpt lat="42.61629076263827" lon="13.267096691149693"><ele>991.0</ele><time>2026-04-19T10:38:11.002Z</time></trkpt><trkpt lat="42.61622869973517" lon="13.267215589409584"><ele>994.8</ele><time>2026-04-19T10:38:12.001Z</time></trkpt><trkpt lat="42.61613268860805" lon="13.267283200226155"><ele>998.5999999999999</ele><time>2026-04-19T10:38:13.001Z</time></trkpt><trkpt lat="42.61603399053515" lon="13.267332976148529"><ele>1002.4</ele><time>2026-04-19T10:38:14.001Z</time></trkpt><trkpt lat="42.615930074342394" lon="13.267401614706898"><ele>1006.2</ele><time>2026-04-19T10:38:15.001Z</time></trkpt><trkpt lat="42.61582525149899" lon="13.267439702696059"><ele>1010.0</ele><time>2026-04-19T10:38:16.001Z</time></trkpt><trkpt lat="42.61572880481981" lon="13.267494190799743"><ele>1010.0000000000001</ele><time>2026-04-19T10:38:17.001Z</time></trkpt><trkpt lat="42.61566193660065" lon="13.267559077840202"><ele>1010.0</ele><time>2026-04-19T10:38:18.001Z</time></trkpt><trkpt lat="42.61560827334956" lon="13.26763528125127"><ele>1010.0</ele><time>2026-04-19T10:38:19.001Z</time></trkpt><trkpt lat="42.61556714252104" lon="13.267721547708897"><ele>1010.0</ele><time>2026-04-19T10:38:20.001Z</time></trkpt><trkpt lat="42.615546032693004" lon="13.267812191982507"><ele>1010.0000000000001</ele><time>2026-04-19T10:38:21.001Z</time></trkpt><trkpt lat="42.61554303942377" lon="13.267908047490112"><ele>1010.0</ele><time>2026-04-19T10:38:22.001Z</time></trkpt><trkpt lat="42.61555110168804" lon="13.268022419793168"><ele>1008.0000000000001</ele><time>2026-04-19T10:38:23.001Z</time></trkpt><trkpt lat="42.61559005192184" lon="13.268132318969919"><ele>1006.0</ele><time>2026-04-19T10:38:24.001Z</time></trkpt><trkpt lat="42.61565044948129" lon="13.26823263684021"><ele>1004.0</ele><time>2026-04-19T10:38:25.001Z</time></trkpt><trkpt lat="42.61569844776377" lon="13.26832131944848"><ele>1002.0</ele><time>2026-04-19T10:38:26.001Z</time></trkpt><trkpt lat="42.61572182511112" lon="13.268419277871011"><ele>1000.0000000000001</ele><time>2026-04-19T10:38:27.001Z</time></trkpt><trkpt lat="42.61572116636175" lon="13.268517674984475"><ele>998.0</ele><time>2026-04-19T10:38:28.001Z</time></trkpt><trkpt lat="42.615703355297725" lon="13.26863091679968"><ele>998.0000000000001</ele><time>2026-04-19T10:38:29.001Z</time></trkpt><trkpt lat="42.6156729602309" lon="13.26874406859937"><ele>998.0</ele><time>2026-04-19T10:38:30.001Z</time></trkpt><trkpt lat="42.615634184845526" lon="13.2688495165676"><ele>998.0</ele><time>2026-04-19T10:38:31.001Z</time></trkpt><trkpt lat="42.61559904817626" lon="13.268952750699361"><ele>998.0</ele><time>2026-04-19T10:38:32.001Z</time></trkpt><trkpt lat="42.61556782319566" lon="13.269042587214527"><ele>998.0000000000001</ele><time>2026-04-19T10:38:33.001Z</time></trkpt><trkpt lat="42.6155291154516" lon="13.269122263139039"><ele>998.0</ele><time>2026-04-19T10:38:34.001Z</time></trkpt><trkpt lat="42.6154768555981" lon="13.269184249311952"><ele>998.5999999999999</ele><time>2026-04-19T10:38:35.001Z</time></trkpt><trkpt lat="42.61540179396669" lon="13.269237850208532"><ele>999.1999999999999</ele><time>2026-04-19T10:38:36.001Z</time></trkpt><trkpt lat="42.615316567794366" lon="13.269261067467692"><ele>999.8</ele><time>2026-04-19T10:38:37.001Z</time></trkpt><trkpt lat="42.61522292849627" lon="13.26926494203403"><ele>1000.4</ele><time>2026-04-19T10:38:38.001Z</time></trkpt><trkpt lat="42.61512266627592" lon="13.269203079851625"><ele>1001.0</ele><time>2026-04-19T10:38:39.001Z</time></trkpt><trkpt lat="42.61502049912707" lon="13.269105849761969"><ele>1001.0</ele><time>2026-04-19T10:38:40.001Z</time></trkpt><trkpt lat="42.61490422137654" lon="13.269001175239985"><ele>1001.0</ele><time>2026-04-19T10:38:41.001Z</time></trkpt><trkpt lat="42.614779016439684" lon="13.268918142611072"><ele>1001.0</ele><time>2026-04-19T10:38:42.001Z</time></trkpt><trkpt lat="42.614662187281006" lon="13.2688720238788"><ele>1001.0</ele><time>2026-04-19T10:38:43.001Z</time></trkpt><trkpt lat="42.614544613110105" lon="13.268853057136537"><ele>1002.0</ele><time>2026-04-19T10:38:44.001Z</time></trkpt><trkpt lat="42.61439776131797" lon="13.268934860991745"><ele>1003.0</ele><time>2026-04-19T10:38:45.001Z</time></trkpt><trkpt lat="42.614258567520636" lon="13.26903286582708"><ele>1004.0</ele><time>2026-04-19T10:38:46.001Z</time></trkpt><trkpt lat="42.61413238932064" lon="13.26917155184481"><ele>1004.0</ele><time>2026-04-19T10:38:47.001Z</time></trkpt><trkpt lat="42.613992995191985" lon="13.269292527289734"><ele>1004.0</ele><time>2026-04-19T10:38:48.001Z</time></trkpt><trkpt lat="42.61387738265035" lon="13.26941867930055"><ele>1004.0</ele><time>2026-04-19T10:38:49.001Z</time></trkpt><trkpt lat="42.613768117211045" lon="13.269526211760597"><ele>1004.0</ele><time>2026-04-19T10:38:50.001Z</time></trkpt><trkpt lat="42.61368241194391" lon="13.269648114105822"><ele>1003.6</ele><time>2026-04-19T10:38:51.001Z</time></trkpt><trkpt lat="42.613631952750346" lon="13.269790915518293"><ele>1003.2</ele><time>2026-04-19T10:38:52.001Z</time></trkpt><trkpt lat="42.61362360555899" lon="13.269950170177026"><ele>1002.8000000000001</ele><time>2026-04-19T10:38:53.001Z</time></trkpt><trkpt lat="42.6136452167082" lon="13.270093216278255"><ele>1002.4000000000001</ele><time>2026-04-19T10:38:54.001Z</time></trkpt><trkpt lat="42.61369136935761" lon="13.27018421523245"><ele>1002.0</ele><time>2026-04-19T10:38:55.001Z</time></trkpt><trkpt lat="42.613763130630474" lon="13.270271125292386"><ele>1000.2</ele><time>2026-04-19T10:38:56.001Z</time></trkpt><trkpt lat="42.61384399062282" lon="13.270352439205471"><ele>998.4000000000001</ele><time>2026-04-19T10:38:57.001Z</time></trkpt><trkpt lat="42.61393793340809" lon="13.270417307933611"><ele>996.5999999999999</ele><time>2026-04-19T10:38:58.001Z</time></trkpt><trkpt lat="42.61403914782013" lon="13.270468160556456"><ele>994.8</ele><time>2026-04-19T10:38:59.001Z</time></trkpt><trkpt lat="42.61413796940472" lon="13.270514969477055"><ele>993.0</ele><time>2026-04-19T10:39:00.001Z</time></trkpt><trkpt lat="42.61423912678684" lon="13.270563529066624"><ele>993.8</ele><time>2026-04-19T10:39:01.001Z</time></trkpt><trkpt lat="42.61434027315167" lon="13.270611021578546"><ele>994.5999999999999</ele><time>2026-04-19T10:39:02.001Z</time></trkpt><trkpt lat="42.61443329206383" lon="13.270665861389057"><ele>995.4000000000001</ele><time>2026-04-19T10:39:03.001Z</time></trkpt><trkpt lat="42.61449862249831" lon="13.270727257749442"><ele>996.2</ele><time>2026-04-19T10:39:04.001Z</time></trkpt><trkpt lat="42.61451520047097" lon="13.270888810850293"><ele>997.0</ele><time>2026-04-19T10:39:06.001Z</time></trkpt><trkpt lat="42.614465836423534" lon="13.270970298538822"><ele>996.9999999999999</ele><time>2026-04-19T10:39:07.001Z</time></trkpt><trkpt lat="42.614385897984015" lon="13.271014945011096"><ele>997.0</ele><time>2026-04-19T10:39:08.001Z</time></trkpt><trkpt lat="42.61429248975298" lon="13.271018359028258"><ele>997.0</ele><time>2026-04-19T10:39:09.001Z</time></trkpt><trkpt lat="42.61420272400184" lon="13.270975225972515"><ele>997.0</ele><time>2026-04-19T10:39:10.001Z</time></trkpt><trkpt lat="42.61412085439946" lon="13.27095420900065"><ele>996.9999999999999</ele><time>2026-04-19T10:39:11.001Z</time></trkpt><trkpt lat="42.614042949494156" lon="13.27098514789689"><ele>997.0</ele><time>2026-04-19T10:39:12.001Z</time></trkpt><trkpt lat="42.61396493476904" lon="13.271060918124915"><ele>997.0</ele><time>2026-04-19T10:39:13.001Z</time></trkpt><trkpt lat="42.61388918287159" lon="13.271164291152632"><ele>997.0</ele><time>2026-04-19T10:39:14.001Z</time></trkpt><trkpt lat="42.61381650080298" lon="13.271279702870746"><ele>997.0</ele><time>2026-04-19T10:39:15.001Z</time></trkpt><trkpt lat="42.61374410206552" lon="13.271400038301632"><ele>997.0</ele><time>2026-04-19T10:39:16.001Z</time></trkpt><trkpt lat="42.61367123625908" lon="13.27151998999405"><ele>997.0</ele><time>2026-04-19T10:39:17.001Z</time></trkpt><trkpt lat="42.61359889765961" lon="13.2716509076373"><ele>999.0</ele><time>2026-04-19T10:39:18.001Z</time></trkpt><trkpt lat="42.613524814781975" lon="13.271790870408534"><ele>1001.0</ele><time>2026-04-19T10:39:19.001Z</time></trkpt><trkpt lat="42.61343575395516" lon="13.27190703413483"><ele>1003.0</ele><time>2026-04-19T10:39:20.001Z</time></trkpt><trkpt lat="42.61335674247927" lon="13.272015048904997"><ele>1005.0</ele><time>2026-04-19T10:39:21.001Z</time></trkpt><trkpt lat="42.61328492473853" lon="13.272116247298753"><ele>1005.0</ele><time>2026-04-19T10:39:22.001Z</time></trkpt><trkpt lat="42.61322107080536" lon="13.272210823412447"><ele>1005.0</ele><time>2026-04-19T10:39:23.001Z</time></trkpt><trkpt lat="42.61316012709028" lon="13.272303933620334"><ele>1005.0</ele><time>2026-04-19T10:39:24.001Z</time></trkpt><trkpt lat="42.61310001979811" lon="13.272409147921598"><ele>1005.0</ele><time>2026-04-19T10:39:25.001Z</time></trkpt><trkpt lat="42.61305167845335" lon="13.272531409525495"><ele>1005.0</ele><time>2026-04-19T10:39:26.001Z</time></trkpt><trkpt lat="42.61302362614891" lon="13.272677126746789"><ele>1002.0</ele><time>2026-04-19T10:39:27.001Z</time></trkpt><trkpt lat="42.61301409875738" lon="13.272855499726584"><ele>999.0</ele><time>2026-04-19T10:39:28.001Z</time></trkpt><trkpt lat="42.613030251150654" lon="13.273064270935931"><ele>996.0</ele><time>2026-04-19T10:39:29.001Z</time></trkpt><trkpt lat="42.61306250771027" lon="13.273277254626"><ele>993.0</ele><time>2026-04-19T10:39:30.001Z</time></trkpt><trkpt lat="42.6131035422879" lon="13.2734578655501"><ele>993.0</ele><time>2026-04-19T10:39:31.001Z</time></trkpt><trkpt lat="42.61316332123134" lon="13.27359780656914"><ele>993.0</ele><time>2026-04-19T10:39:32.001Z</time></trkpt><trkpt lat="42.613243962703315" lon="13.273675178427435"><ele>993.0</ele><time>2026-04-19T10:39:33.001Z</time></trkpt><trkpt lat="42.61334749404542" lon="13.273694671351755"><ele>993.0</ele><time>2026-04-19T10:39:34.001Z</time></trkpt><trkpt lat="42.61347774771779" lon="13.273668929353246"><ele>993.0</ele><time>2026-04-19T10:39:35.001Z</time></trkpt><trkpt lat="42.613638628154945" lon="13.273588722084677"><ele>993.0</ele><time>2026-04-19T10:39:36.001Z</time></trkpt><trkpt lat="42.613813727347924" lon="13.273484245674101"><ele>993.0</ele><time>2026-04-19T10:39:37.001Z</time></trkpt><trkpt lat="42.614002346259326" lon="13.273376101932502"><ele>993.0</ele><time>2026-04-19T10:39:38.001Z</time></trkpt><trkpt lat="42.61418626976071" lon="13.273276877835425"><ele>993.0</ele><time>2026-04-19T10:39:39.001Z</time></trkpt><trkpt lat="42.61436472790293" lon="13.273180464121937"><ele>993.0</ele><time>2026-04-19T10:39:40.001Z</time></trkpt><trkpt lat="42.61454041421181" lon="13.273090685022082"><ele>990.6666666666667</ele><time>2026-04-19T10:39:41.001Z</time></trkpt><trkpt lat="42.61469828778633" lon="13.273006211513374"><ele>988.3333333333334</ele><time>2026-04-19T10:39:42.001Z</time></trkpt><trkpt lat="42.614843744717014" lon="13.27292862982091"><ele>986.0</ele><time>2026-04-19T10:39:43.001Z</time></trkpt><trkpt lat="42.614980375383816" lon="13.272862466562668"><ele>986.0</ele><time>2026-04-19T10:39:44.001Z</time></trkpt><trkpt lat="42.61510542551586" lon="13.272799228723933"><ele>985.9999999999999</ele><time>2026-04-19T10:39:45.001Z</time></trkpt><trkpt lat="42.61522052061001" lon="13.27277737520643"><ele>985.9999999999999</ele><time>2026-04-19T10:39:46.001Z</time></trkpt><trkpt lat="42.61531596380104" lon="13.272767519606491"><ele>986.0</ele><time>2026-04-19T10:39:47.001Z</time></trkpt><trkpt lat="42.615404559803736" lon="13.272795351263147"><ele>986.0</ele><time>2026-04-19T10:39:48.001Z</time></trkpt><trkpt lat="42.615480648557245" lon="13.272859216802146"><ele>985.1999999999999</ele><time>2026-04-19T10:39:49.001Z</time></trkpt><trkpt lat="42.615547977307386" lon="13.272938720624825"><ele>984.3999999999999</ele><time>2026-04-19T10:39:50.001Z</time></trkpt><trkpt lat="42.615599721209094" lon="13.273059548897818"><ele>983.6</ele><time>2026-04-19T10:39:51.001Z</time></trkpt><trkpt lat="42.615628744921786" lon="13.273200927183757"><ele>982.8</ele><time>2026-04-19T10:39:52.001Z</time></trkpt><trkpt lat="42.615657960750674" lon="13.273342381978898"><ele>982.0</ele><time>2026-04-19T10:39:53.001Z</time></trkpt><trkpt lat="42.615686501553384" lon="13.273480057626319"><ele>984.2</ele><time>2026-04-19T10:39:54.001Z</time></trkpt><trkpt lat="42.6157230780301" lon="13.2736029449569"><ele>986.4000000000001</ele><time>2026-04-19T10:39:55.001Z</time></trkpt><trkpt lat="42.61576944880686" lon="13.273696534879749"><ele>988.5999999999999</ele><time>2026-04-19T10:39:56.001Z</time></trkpt><trkpt lat="42.615848765668936" lon="13.273755950434294"><ele>990.8</ele><time>2026-04-19T10:39:57.001Z</time></trkpt><trkpt lat="42.61593752537964" lon="13.27377773840677"><ele>993.0</ele><time>2026-04-19T10:39:58.001Z</time></trkpt><trkpt lat="42.61602549710935" lon="13.273763256676064"><ele>993.0</ele><time>2026-04-19T10:39:59.001Z</time></trkpt><trkpt lat="42.616098172342205" lon="13.273714166225796"><ele>993.0</ele><time>2026-04-19T10:40:00.001Z</time></trkpt><trkpt lat="42.61616233663361" lon="13.273638621309752"><ele>993.0</ele><time>2026-04-19T10:40:01.001Z</time></trkpt><trkpt lat="42.61620833200258" lon="13.27354506080632"><ele>993.0</ele><time>2026-04-19T10:40:02.001Z</time></trkpt><trkpt lat="42.61624891768633" lon="13.27344221033445"><ele>993.0</ele><time>2026-04-19T10:40:03.002Z</time></trkpt><trkpt lat="42.616280085040316" lon="13.273337791319673"><ele>993.0</ele><time>2026-04-19T10:40:04.002Z</time></trkpt><trkpt lat="42.61631030686898" lon="13.273222895215499"><ele>993.0</ele><time>2026-04-19T10:40:05.002Z</time></trkpt><trkpt lat="42.616355244135754" lon="13.273116091267164"><ele>993.0</ele><time>2026-04-19T10:40:06.002Z</time></trkpt><trkpt lat="42.616387081848984" lon="13.273002097581456"><ele>993.0</ele><time>2026-04-19T10:40:07.002Z</time></trkpt><trkpt lat="42.6164208582108" lon="13.272881696226708"><ele>993.0</ele><time>2026-04-19T10:40:08.002Z</time></trkpt><trkpt lat="42.616453967557554" lon="13.272759354547272"><ele>993.0</ele><time>2026-04-19T10:40:09.002Z</time></trkpt><trkpt lat="42.61648766451737" lon="13.272634346699665"><ele>992.0</ele><time>2026-04-19T10:40:10.002Z</time></trkpt><trkpt lat="42.61651925663959" lon="13.27251714713549"><ele>991.0</ele><time>2026-04-19T10:40:11.002Z</time></trkpt><trkpt lat="42.61654643928297" lon="13.272416305845596"><ele>990.0</ele><time>2026-04-19T10:40:12.002Z</time></trkpt><trkpt lat="42.6165766694309" lon="13.272311262923072"><ele>989.0</ele><time>2026-04-19T10:40:13.002Z</time></trkpt><trkpt lat="42.61661354839193" lon="13.27221254356596"><ele>988.0</ele><time>2026-04-19T10:40:14.002Z</time></trkpt><trkpt lat="42.61666113428917" lon="13.272119954826014"><ele>987.0</ele><time>2026-04-19T10:40:15.002Z</time></trkpt><trkpt lat="42.616726987628404" lon="13.272054179512695"><ele>986.0</ele><time>2026-04-19T10:40:16.001Z</time></trkpt><trkpt lat="42.61680284725937" lon="13.272019637709944"><ele>985.0</ele><time>2026-04-19T10:40:17.001Z</time></trkpt><trkpt lat="42.61687729752231" lon="13.272028357814111"><ele>984.0</ele><time>2026-04-19T10:40:18.001Z</time></trkpt><trkpt lat="42.61695701683461" lon="13.272034363656202"><ele>983.0</ele><time>2026-04-19T10:40:19.001Z</time></trkpt><trkpt lat="42.617024288833576" lon="13.272099659625619"><ele>982.0</ele><time>2026-04-19T10:40:20.001Z</time></trkpt><trkpt lat="42.617079228435614" lon="13.272187642010234"><ele>981.0</ele><time>2026-04-19T10:40:21.001Z</time></trkpt><trkpt lat="42.61712355744244" lon="13.27228399616786"><ele>980.0</ele><time>2026-04-19T10:40:22.001Z</time></trkpt><trkpt lat="42.6171661728658" lon="13.27239270426957"><ele>978.9999999999999</ele><time>2026-04-19T10:40:23.001Z</time></trkpt><trkpt lat="42.617216985699585" lon="13.272504165433226"><ele>977.9999999999999</ele><time>2026-04-19T10:40:24.001Z</time></trkpt><trkpt lat="42.617276512641475" lon="13.27260717881973"><ele>977.0</ele><time>2026-04-19T10:40:25.001Z</time></trkpt><trkpt lat="42.61733668694058" lon="13.272703924969798"><ele>976.0</ele><time>2026-04-19T10:40:26.001Z</time></trkpt><trkpt lat="42.61739098853233" lon="13.27279539029308"><ele>975.9999999999999</ele><time>2026-04-19T10:40:27.001Z</time></trkpt><trkpt lat="42.617438964628654" lon="13.272879439456464"><ele>976.0</ele><time>2026-04-19T10:40:28.001Z</time></trkpt><trkpt lat="42.61748096985425" lon="13.272956415623842"><ele>976.0</ele><time>2026-04-19T10:40:29.001Z</time></trkpt><trkpt lat="42.61752760542033" lon="13.273046495786868"><ele>976.0</ele><time>2026-04-19T10:40:30.001Z</time></trkpt><trkpt lat="42.617577836322454" lon="13.273145459175371"><ele>975.9999999999999</ele><time>2026-04-19T10:40:31.001Z</time></trkpt><trkpt lat="42.617628002661256" lon="13.27325885857764"><ele>976.0</ele><time>2026-04-19T10:40:32.001Z</time></trkpt><trkpt lat="42.617661921611464" lon="13.2733893454333"><ele>978.0</ele><time>2026-04-19T10:40:33.001Z</time></trkpt><trkpt lat="42.617680951983566" lon="13.273531672964916"><ele>979.9999999999999</ele><time>2026-04-19T10:40:34.001Z</time></trkpt><trkpt lat="42.61768817906822" lon="13.273680961041185"><ele>981.9999999999999</ele><time>2026-04-19T10:40:35.001Z</time></trkpt><trkpt lat="42.617698786429045" lon="13.273828606159007"><ele>984.0</ele><time>2026-04-19T10:40:36.001Z</time></trkpt><trkpt lat="42.617706169007846" lon="13.273963835566349"><ele>986.0</ele><time>2026-04-19T10:40:37.001Z</time></trkpt><trkpt lat="42.617712181519764" lon="13.274085661787879"><ele>985.3333333333334</ele><time>2026-04-19T10:40:38.001Z</time></trkpt><trkpt lat="42.617720769618344" lon="13.274198227542305"><ele>984.6666666666667</ele><time>2026-04-19T10:40:39.001Z</time></trkpt><trkpt lat="42.61774129068761" lon="13.274315712149516"><ele>984.0</ele><time>2026-04-19T10:40:40.001Z</time></trkpt><trkpt lat="42.617773038264886" lon="13.27443665677908"><ele>983.3333333333333</ele><time>2026-04-19T10:40:41.001Z</time></trkpt><trkpt lat="42.61781844783348" lon="13.27454699270426"><ele>982.6666666666666</ele><time>2026-04-19T10:40:42.001Z</time></trkpt><trkpt lat="42.61787804957037" lon="13.274635351221752"><ele>982.0</ele><time>2026-04-19T10:40:43.001Z</time></trkpt><trkpt lat="42.61793654887527" lon="13.274713086823441"><ele>983.3333333333333</ele><time>2026-04-19T10:40:44.001Z</time></trkpt><trkpt lat="42.618002821255665" lon="13.274783699668507"><ele>984.6666666666666</ele><time>2026-04-19T10:40:45.001Z</time></trkpt><trkpt lat="42.618077588114645" lon="13.274848126969818"><ele>986.0</ele><time>2026-04-19T10:40:46.001Z</time></trkpt><trkpt lat="42.61815958801575" lon="13.274886285816214"><ele>987.3333333333333</ele><time>2026-04-19T10:40:47.001Z</time></trkpt><trkpt lat="42.618236239108604" lon="13.27489004071107"><ele>988.6666666666666</ele><time>2026-04-19T10:40:48.001Z</time></trkpt><trkpt lat="42.618308318810094" lon="13.274860796185108"><ele>990.0</ele><time>2026-04-19T10:40:49.001Z</time></trkpt><trkpt lat="42.61838063144115" lon="13.274796651908591"><ele>988.6666666666666</ele><time>2026-04-19T10:40:50.001Z</time></trkpt><trkpt lat="42.618435758205955" lon="13.274701411788971"><ele>987.3333333333333</ele><time>2026-04-19T10:40:51.001Z</time></trkpt><trkpt lat="42.618474053992486" lon="13.274586354769605"><ele>986.0</ele><time>2026-04-19T10:40:52.001Z</time></trkpt><trkpt lat="42.618495184111595" lon="13.274473246186146"><ele>984.6666666666666</ele><time>2026-04-19T10:40:53.001Z</time></trkpt><trkpt lat="42.61851633670928" lon="13.274362990219721"><ele>983.3333333333333</ele><time>2026-04-19T10:40:54.001Z</time></trkpt><trkpt lat="42.618570958067075" lon="13.274273150964387"><ele>982.0</ele><time>2026-04-19T10:40:55.001Z</time></trkpt><trkpt lat="42.61863429753889" lon="13.27417529457547"><ele>980.6</ele><time>2026-04-19T10:40:56.001Z</time></trkpt><trkpt lat="42.618711435451296" lon="13.274104513999626"><ele>979.2</ele><time>2026-04-19T10:40:57.001Z</time></trkpt><trkpt lat="42.61879712373955" lon="13.274042388676401"><ele>977.8</ele><time>2026-04-19T10:40:58.001Z</time></trkpt><trkpt lat="42.61888198887937" lon="13.27396810196724"><ele>976.4</ele><time>2026-04-19T10:40:59.001Z</time></trkpt><trkpt lat="42.61896699823042" lon="13.273907546197231"><ele>975.0</ele><time>2026-04-19T10:41:00.001Z</time></trkpt><trkpt lat="42.61905412554328" lon="13.273849156501734"><ele>975.0</ele><time>2026-04-19T10:41:01.001Z</time></trkpt><trkpt lat="42.61914253895569" lon="13.273794900056057"><ele>975.0</ele><time>2026-04-19T10:41:02.001Z</time></trkpt><trkpt lat="42.619234255080286" lon="13.273746301285547"><ele>975.0</ele><time>2026-04-19T10:41:03.001Z</time></trkpt><trkpt lat="42.61933139315995" lon="13.273710443602077"><ele>975.0</ele><time>2026-04-19T10:41:04.001Z</time></trkpt><trkpt lat="42.619441561171364" lon="13.273704859124834"><ele>975.0</ele><time>2026-04-19T10:41:05.001Z</time></trkpt><trkpt lat="42.61956325328905" lon="13.273748160420864"><ele>974.8</ele><time>2026-04-19T10:41:06.001Z</time></trkpt><trkpt lat="42.619684545379855" lon="13.27379740409075"><ele>974.6</ele><time>2026-04-19T10:41:07.001Z</time></trkpt><trkpt lat="42.61979121381096" lon="13.273845957964543"><ele>974.4000000000001</ele><time>2026-04-19T10:41:08.001Z</time></trkpt><trkpt lat="42.61989628915334" lon="13.273876971296046"><ele>974.2</ele><time>2026-04-19T10:41:09.001Z</time></trkpt><trkpt lat="42.619970831440504" lon="13.273958154905259"><ele>974.0</ele><time>2026-04-19T10:41:10.001Z</time></trkpt><trkpt lat="42.62001716299388" lon="13.27408228381473"><ele>976.75</ele><time>2026-04-19T10:41:11.001Z</time></trkpt><trkpt lat="42.620029705314174" lon="13.27423811510348"><ele>979.5</ele><time>2026-04-19T10:41:12.001Z</time></trkpt><trkpt lat="42.619989100810876" lon="13.274404765210065"><ele>982.25</ele><time>2026-04-19T10:41:13.001Z</time></trkpt><trkpt lat="42.619964702514324" lon="13.274591505063121"><ele>985.0</ele><time>2026-04-19T10:41:14.001Z</time></trkpt><trkpt lat="42.61993872796272" lon="13.27475136415372"><ele>984.2</ele><time>2026-04-19T10:41:15.001Z</time></trkpt><trkpt lat="42.61991408137716" lon="13.27489746067911"><ele>983.4</ele><time>2026-04-19T10:41:16.001Z</time></trkpt><trkpt lat="42.6198927331145" lon="13.275034921386453"><ele>982.5999999999999</ele><time>2026-04-19T10:41:17.001Z</time></trkpt><trkpt lat="42.6198781504661" lon="13.275153449743751"><ele>981.8</ele><time>2026-04-19T10:41:18.001Z</time></trkpt><trkpt lat="42.61986049834755" lon="13.275284625867501"><ele>981.0</ele><time>2026-04-19T10:41:19.001Z</time></trkpt><trkpt lat="42.619835807639255" lon="13.275400826478853"><ele>981.0</ele><time>2026-04-19T10:41:20.001Z</time></trkpt><trkpt lat="42.6197838689534" lon="13.275516396318595"><ele>980.9999999999999</ele><time>2026-04-19T10:41:21.001Z</time></trkpt><trkpt lat="42.61969771689286" lon="13.275591243087778"><ele>980.9999999999999</ele><time>2026-04-19T10:41:22.001Z</time></trkpt><trkpt lat="42.61962119588066" lon="13.275682759446596"><ele>981.0</ele><time>2026-04-19T10:41:23.001Z</time></trkpt><trkpt lat="42.61953953339692" lon="13.275744767128"><ele>981.0</ele><time>2026-04-19T10:41:24.001Z</time></trkpt><trkpt lat="42.61949430605794" lon="13.275838836087665"><ele>979.8</ele><time>2026-04-19T10:41:25.001Z</time></trkpt><trkpt lat="42.6194738345281" lon="13.275971019923276"><ele>978.5999999999999</ele><time>2026-04-19T10:41:26.001Z</time></trkpt><trkpt lat="42.61948003308289" lon="13.276110159286226"><ele>977.4</ele><time>2026-04-19T10:41:27.001Z</time></trkpt><trkpt lat="42.61949971061327" lon="13.276239125743402"><ele>976.2</ele><time>2026-04-19T10:41:28.001Z</time></trkpt><trkpt lat="42.61952776637973" lon="13.276365344490724"><ele>975.0</ele><time>2026-04-19T10:41:29.001Z</time></trkpt><trkpt lat="42.6195576806611" lon="13.276493223640308"><ele>974.6</ele><time>2026-04-19T10:41:30.001Z</time></trkpt><trkpt lat="42.61959114551011" lon="13.276629539420194"><ele>974.2</ele><time>2026-04-19T10:41:31.001Z</time></trkpt><trkpt lat="42.619622835917774" lon="13.276765504231664"><ele>973.8</ele><time>2026-04-19T10:41:32.001Z</time></trkpt><trkpt lat="42.61964860616763" lon="13.276908774845003"><ele>973.4</ele><time>2026-04-19T10:41:33.001Z</time></trkpt><trkpt lat="42.61967693275239" lon="13.277046137616534"><ele>973.0</ele><time>2026-04-19T10:41:34.001Z</time></trkpt><trkpt lat="42.619704982122734" lon="13.277190092178499"><ele>974.5999999999999</ele><time>2026-04-19T10:41:35.001Z</time></trkpt><trkpt lat="42.61973087558784" lon="13.277335182432521"><ele>976.1999999999999</ele><time>2026-04-19T10:41:36.001Z</time></trkpt><trkpt lat="42.61976209030835" lon="13.277481718527588"><ele>977.8</ele><time>2026-04-19T10:41:37.001Z</time></trkpt><trkpt lat="42.61980825856948" lon="13.277612702757047"><ele>979.4</ele><time>2026-04-19T10:41:38.001Z</time></trkpt><trkpt lat="42.61987891770793" lon="13.277703904853734"><ele>981.0</ele><time>2026-04-19T10:41:39.001Z</time></trkpt><trkpt lat="42.61997465684621" lon="13.277772387117505"><ele>981.0</ele><time>2026-04-19T10:41:40.001Z</time></trkpt><trkpt lat="42.620104768091416" lon="13.27776039488255"><ele>980.9999999999999</ele><time>2026-04-19T10:41:41.001Z</time></trkpt><trkpt lat="42.62020539532955" lon="13.277780087389615"><ele>980.9999999999999</ele><time>2026-04-19T10:41:42.001Z</time></trkpt><trkpt lat="42.62028564258244" lon="13.27785519409303"><ele>981.0</ele><time>2026-04-19T10:41:43.001Z</time></trkpt><trkpt lat="42.620342654694774" lon="13.277983768331685"><ele>981.0</ele><time>2026-04-19T10:41:44.001Z</time></trkpt><trkpt lat="42.62035000332722" lon="13.278138785224938"><ele>978.6666666666666</ele><time>2026-04-19T10:41:45.001Z</time></trkpt><trkpt lat="42.6203648654662" lon="13.278275029663888"><ele>976.3333333333333</ele><time>2026-04-19T10:41:46.001Z</time></trkpt><trkpt lat="42.62039036652783" lon="13.278400840409114"><ele>974.0</ele><time>2026-04-19T10:41:47.001Z</time></trkpt><trkpt lat="42.62040217567597" lon="13.278516421723763"><ele>971.6666666666666</ele><time>2026-04-19T10:41:48.001Z</time></trkpt><trkpt lat="42.62041432921218" lon="13.278624380796721"><ele>969.3333333333333</ele><time>2026-04-19T10:41:49.001Z</time></trkpt><trkpt lat="42.620425025880316" lon="13.278718621683998"><ele>967.0</ele><time>2026-04-19T10:41:50.001Z</time></trkpt><trkpt lat="42.62043277099844" lon="13.278809261816042"><ele>966.9999999999999</ele><time>2026-04-19T10:41:51.001Z</time></trkpt><trkpt lat="42.62043540041618" lon="13.278905688619284"><ele>967.0</ele><time>2026-04-19T10:41:52.001Z</time></trkpt><trkpt lat="42.620441451187055" lon="13.279010608573238"><ele>967.0</ele><time>2026-04-19T10:41:53.001Z</time></trkpt><trkpt lat="42.620448395157986" lon="13.279117489492583"><ele>967.0</ele><time>2026-04-19T10:41:54.001Z</time></trkpt><trkpt lat="42.62046017436851" lon="13.279213685575725"><ele>966.9999999999999</ele><time>2026-04-19T10:41:55.001Z</time></trkpt><trkpt lat="42.620481525794425" lon="13.279383640380091"><ele>967.0</ele><time>2026-04-19T10:41:57.001Z</time></trkpt><trkpt lat="42.6204612616438" lon="13.279543050521104"><ele>967.6666666666666</ele><time>2026-04-19T10:41:59.001Z</time></trkpt><trkpt lat="42.620431819660574" lon="13.279621185956069"><ele>968.3333333333333</ele><time>2026-04-19T10:42:00.001Z</time></trkpt><trkpt lat="42.620385838916356" lon="13.279705695416503"><ele>969.0</ele><time>2026-04-19T10:42:01.001Z</time></trkpt><trkpt lat="42.62032375694493" lon="13.279783433874274"><ele>969.6666666666667</ele><time>2026-04-19T10:42:02.001Z</time></trkpt><trkpt lat="42.6202470680258" lon="13.279863719323183"><ele>970.3333333333334</ele><time>2026-04-19T10:42:03.001Z</time></trkpt><trkpt lat="42.62017942584997" lon="13.27996147529819"><ele>971.0</ele><time>2026-04-19T10:42:04.001Z</time></trkpt><trkpt lat="42.62013018595398" lon="13.280100915971131"><ele>971.75</ele><time>2026-04-19T10:42:05.001Z</time></trkpt><trkpt lat="42.6201147281744" lon="13.28027338748389"><ele>972.5</ele><time>2026-04-19T10:42:06.001Z</time></trkpt><trkpt lat="42.62011413390933" lon="13.280461967984339"><ele>973.25</ele><time>2026-04-19T10:42:07.001Z</time></trkpt><trkpt lat="42.62011940074948" lon="13.280648926152796"><ele>974.0</ele><time>2026-04-19T10:42:08.001Z</time></trkpt><trkpt lat="42.62012986766762" lon="13.280826980323168"><ele>974.0</ele><time>2026-04-19T10:42:09.001Z</time></trkpt><trkpt lat="42.6201387016014" lon="13.280989263999595"><ele>974.0000000000001</ele><time>2026-04-19T10:42:10.001Z</time></trkpt><trkpt lat="42.620148395515585" lon="13.281136004277368"><ele>974.0000000000001</ele><time>2026-04-19T10:42:11.001Z</time></trkpt><trkpt lat="42.62013776419757" lon="13.281258132368437"><ele>974.0</ele><time>2026-04-19T10:42:12.001Z</time></trkpt><trkpt lat="42.62009315761456" lon="13.281347104512534"><ele>974.0</ele><time>2026-04-19T10:42:13.001Z</time></trkpt><trkpt lat="42.620014265242844" lon="13.28139996371451"><ele>974.0</ele><time>2026-04-19T10:42:14.001Z</time></trkpt><trkpt lat="42.61991531551814" lon="13.281398595544339"><ele>974.0000000000001</ele><time>2026-04-19T10:42:15.001Z</time></trkpt><trkpt lat="42.61982906061966" lon="13.281336324585434"><ele>974.0000000000001</ele><time>2026-04-19T10:42:16.001Z</time></trkpt><trkpt lat="42.6197885586733" lon="13.281194603401284"><ele>974.0</ele><time>2026-04-19T10:42:17.001Z</time></trkpt><trkpt lat="42.61971550929348" lon="13.281048531472583"><ele>974.0</ele><time>2026-04-19T10:42:18.001Z</time></trkpt><trkpt lat="42.61962838408015" lon="13.280912933934236"><ele>974.0</ele><time>2026-04-19T10:42:19.001Z</time></trkpt><trkpt lat="42.61954282938715" lon="13.280831150160042"><ele>974.0000000000001</ele><time>2026-04-19T10:42:20.001Z</time></trkpt><trkpt lat="42.61945842258363" lon="13.280805509069852"><ele>974.0000000000001</ele><time>2026-04-19T10:42:21.001Z</time></trkpt><trkpt lat="42.61936433601128" lon="13.280888600934842"><ele>974.0</ele><time>2026-04-19T10:42:22.001Z</time></trkpt><trkpt lat="42.61931980324047" lon="13.280997702810154"><ele>974.0</ele><time>2026-04-19T10:42:23.001Z</time></trkpt><trkpt lat="42.61930670285488" lon="13.281144194896081"><ele>975.0</ele><time>2026-04-19T10:42:24.001Z</time></trkpt><trkpt lat="42.619325536279256" lon="13.28132656936225"><ele>976.0</ele><time>2026-04-19T10:42:25.001Z</time></trkpt><trkpt lat="42.61936185560159" lon="13.28153964300356"><ele>977.0</ele><time>2026-04-19T10:42:26.001Z</time></trkpt><trkpt lat="42.61937039936593" lon="13.281734931320225"><ele>978.0</ele><time>2026-04-19T10:42:27.001Z</time></trkpt><trkpt lat="42.61937795567242" lon="13.281957658677982"><ele>978.0</ele><time>2026-04-19T10:42:28.001Z</time></trkpt><trkpt lat="42.61940189241212" lon="13.282195605805025"><ele>978.0</ele><time>2026-04-19T10:42:29.001Z</time></trkpt><trkpt lat="42.6194186617515" lon="13.282446170252122"><ele>978.0</ele><time>2026-04-19T10:42:30.001Z</time></trkpt><trkpt lat="42.619438535100905" lon="13.282703357020731"><ele>980.0</ele><time>2026-04-19T10:42:31.001Z</time></trkpt><trkpt lat="42.61945834728079" lon="13.282949289687034"><ele>982.0</ele><time>2026-04-19T10:42:32.001Z</time></trkpt><trkpt lat="42.61949292398615" lon="13.283166967499376"><ele>984.0</ele><time>2026-04-19T10:42:33.001Z</time></trkpt><trkpt lat="42.619531191155" lon="13.283342420990058"><ele>977.25</ele><time>2026-04-19T10:42:34.001Z</time></trkpt><trkpt lat="42.619586674976766" lon="13.283551448677262"><ele>970.5</ele><time>2026-04-19T10:42:35.001Z</time></trkpt><trkpt lat="42.619631841327944" lon="13.283732883321939"><ele>963.75</ele><time>2026-04-19T10:42:36.001Z</time></trkpt><trkpt lat="42.61967782439176" lon="13.283916232796173"><ele>957.0</ele><time>2026-04-19T10:42:37.001Z</time></trkpt><trkpt lat="42.61972520563812" lon="13.284081713408263"><ele>957.0</ele><time>2026-04-19T10:42:38.001Z</time></trkpt><trkpt lat="42.619774114317345" lon="13.28424230225693"><ele>957.0</ele><time>2026-04-19T10:42:39.001Z</time></trkpt><trkpt lat="42.61982098565501" lon="13.28439844791741"><ele>957.0</ele><time>2026-04-19T10:42:40.001Z</time></trkpt><trkpt lat="42.619862854813036" lon="13.28454953734571"><ele>957.0</ele><time>2026-04-19T10:42:41.001Z</time></trkpt><trkpt lat="42.61988860711786" lon="13.284701935974928"><ele>956.75</ele><time>2026-04-19T10:42:42.001Z</time></trkpt><trkpt lat="42.61988980288587" lon="13.284860670366351"><ele>956.5</ele><time>2026-04-19T10:42:43.001Z</time></trkpt><trkpt lat="42.61986354328055" lon="13.285016994779177"><ele>956.25</ele><time>2026-04-19T10:42:44.001Z</time></trkpt><trkpt lat="42.619811169450045" lon="13.285157306109255"><ele>956.0</ele><time>2026-04-19T10:42:45.001Z</time></trkpt><trkpt lat="42.619738600401845" lon="13.285272903180882"><ele>956.0</ele><time>2026-04-19T10:42:46.001Z</time></trkpt><trkpt lat="42.619657400280325" lon="13.285364644809917"><ele>955.9999999999999</ele><time>2026-04-19T10:42:47.001Z</time></trkpt><trkpt lat="42.619573808049225" lon="13.28544060129321"><ele>955.9999999999999</ele><time>2026-04-19T10:42:48.001Z</time></trkpt><trkpt lat="42.61948489005107" lon="13.285494654866646"><ele>956.0</ele><time>2026-04-19T10:42:49.001Z</time></trkpt><trkpt lat="42.61939170714346" lon="13.28551736244866"><ele>956.0</ele><time>2026-04-19T10:42:50.001Z</time></trkpt><trkpt lat="42.61929782057101" lon="13.28550669569376"><ele>957.8</ele><time>2026-04-19T10:42:51.001Z</time></trkpt><trkpt lat="42.619208380379604" lon="13.285473093976249"><ele>959.5999999999999</ele><time>2026-04-19T10:42:52.001Z</time></trkpt><trkpt lat="42.61911202710631" lon="13.285437671228005"><ele>961.4</ele><time>2026-04-19T10:42:53.001Z</time></trkpt><trkpt lat="42.619002081778525" lon="13.285405183789615"><ele>963.2</ele><time>2026-04-19T10:42:54.001Z</time></trkpt><trkpt lat="42.618887626142666" lon="13.285395975969815"><ele>965.0</ele><time>2026-04-19T10:42:55.001Z</time></trkpt><trkpt lat="42.61877766448803" lon="13.285424451868824"><ele>965.0</ele><time>2026-04-19T10:42:56.001Z</time></trkpt><trkpt lat="42.61868374921607" lon="13.285491990639857"><ele>965.0</ele><time>2026-04-19T10:42:57.001Z</time></trkpt><trkpt lat="42.61860600542356" lon="13.285588371254658"><ele>965.0</ele><time>2026-04-19T10:42:58.001Z</time></trkpt><trkpt lat="42.6185467000846" lon="13.28569665704504"><ele>965.0</ele><time>2026-04-19T10:42:59.001Z</time></trkpt><trkpt lat="42.61849632377946" lon="13.285826191161433"><ele>965.0</ele><time>2026-04-19T10:43:00.001Z</time></trkpt><trkpt lat="42.61847008639278" lon="13.285965074665672"><ele>964.0</ele><time>2026-04-19T10:43:01.001Z</time></trkpt><trkpt lat="42.61848542288666" lon="13.286092020306494"><ele>963.0</ele><time>2026-04-19T10:43:02.001Z</time></trkpt><trkpt lat="42.61854653118373" lon="13.286207378924624"><ele>962.0</ele><time>2026-04-19T10:43:03.001Z</time></trkpt><trkpt lat="42.61865476241407" lon="13.286327982371915"><ele>961.0</ele><time>2026-04-19T10:43:04.001Z</time></trkpt><trkpt lat="42.61880181961026" lon="13.286462795703892"><ele>958.6666666666666</ele><time>2026-04-19T10:43:05.001Z</time></trkpt><trkpt lat="42.618961621244765" lon="13.286622309118405"><ele>956.3333333333333</ele><time>2026-04-19T10:43:06.001Z</time></trkpt><trkpt lat="42.61912722615709" lon="13.286794693750965"><ele>954.0</ele><time>2026-04-19T10:43:07.001Z</time></trkpt><trkpt lat="42.61930509311597" lon="13.286984251915094"><ele>954.0</ele><time>2026-04-19T10:43:08.001Z</time></trkpt><trkpt lat="42.61947763872303" lon="13.287159367251961"><ele>954.0</ele><time>2026-04-19T10:43:09.001Z</time></trkpt><trkpt lat="42.61962514508022" lon="13.287296082587655"><ele>954.0</ele><time>2026-04-19T10:43:10.001Z</time></trkpt><trkpt lat="42.619740897725045" lon="13.28740675352947"><ele>951.8000000000001</ele><time>2026-04-19T10:43:11.001Z</time></trkpt><trkpt lat="42.619826706572205" lon="13.287496826461167"><ele>949.6000000000001</ele><time>2026-04-19T10:43:12.001Z</time></trkpt><trkpt lat="42.619895711557675" lon="13.287577274751772"><ele>947.4</ele><time>2026-04-19T10:43:13.001Z</time></trkpt><trkpt lat="42.619958591412214" lon="13.287662479894404"><ele>945.2</ele><time>2026-04-19T10:43:14.001Z</time></trkpt><trkpt lat="42.61999357679061" lon="13.287761812166746"><ele>943.0</ele><time>2026-04-19T10:43:15.001Z</time></trkpt><trkpt lat="42.619991887332986" lon="13.287898273320462"><ele>943.0</ele><time>2026-04-19T10:43:16.001Z</time></trkpt><trkpt lat="42.61995805659608" lon="13.288040096239286"><ele>943.0</ele><time>2026-04-19T10:43:17.001Z</time></trkpt><trkpt lat="42.61986828251497" lon="13.28813255801269"><ele>943.0</ele><time>2026-04-19T10:43:18.001Z</time></trkpt><trkpt lat="42.61976726209348" lon="13.288269148444096"><ele>943.0</ele><time>2026-04-19T10:43:19.001Z</time></trkpt><trkpt lat="42.619627798485084" lon="13.288395372583775"><ele>944.6666666666666</ele><time>2026-04-19T10:43:20.001Z</time></trkpt><trkpt lat="42.61948096667368" lon="13.288547065716665"><ele>946.3333333333333</ele><time>2026-04-19T10:43:21.001Z</time></trkpt><trkpt lat="42.619355195505406" lon="13.288686828086782"><ele>948.0</ele><time>2026-04-19T10:43:22.001Z</time></trkpt><trkpt lat="42.619230962650995" lon="13.288793322457279"><ele>948.0</ele><time>2026-04-19T10:43:23.001Z</time></trkpt><trkpt lat="42.6190687873189" lon="13.28886810817671"><ele>948.0</ele><time>2026-04-19T10:43:24.001Z</time></trkpt><trkpt lat="42.618897958389304" lon="13.28885585881104"><ele>948.0</ele><time>2026-04-19T10:43:25.001Z</time></trkpt><trkpt lat="42.61871720572162" lon="13.288828857549644"><ele>947.6666666666667</ele><time>2026-04-19T10:43:26.001Z</time></trkpt><trkpt lat="42.61850903907876" lon="13.288797405249637"><ele>947.3333333333334</ele><time>2026-04-19T10:43:27.001Z</time></trkpt><trkpt lat="42.61829438302757" lon="13.288775692512628"><ele>947.0</ele><time>2026-04-19T10:43:28.001Z</time></trkpt><trkpt lat="42.61810193176224" lon="13.288741502780189"><ele>947.0</ele><time>2026-04-19T10:43:29.001Z</time></trkpt><trkpt lat="42.617929965138494" lon="13.28872302675454"><ele>947.0</ele><time>2026-04-19T10:43:30.001Z</time></trkpt><trkpt lat="42.61777230348685" lon="13.288699356138144"><ele>947.0</ele><time>2026-04-19T10:43:31.001Z</time></trkpt><trkpt lat="42.617627310690644" lon="13.288647924984142"><ele>944.0</ele><time>2026-04-19T10:43:32.001Z</time></trkpt><trkpt lat="42.617495834828944" lon="13.288554884221648"><ele>941.0</ele><time>2026-04-19T10:43:33.001Z</time></trkpt><trkpt lat="42.617393279116726" lon="13.288385256686128"><ele>938.0</ele><time>2026-04-19T10:43:34.001Z</time></trkpt><trkpt lat="42.61727087584935" lon="13.288216034258681"><ele>938.0</ele><time>2026-04-19T10:43:35.001Z</time></trkpt><trkpt lat="42.617144030054796" lon="13.288095589977862"><ele>938.0</ele><time>2026-04-19T10:43:36.001Z</time></trkpt><trkpt lat="42.617030412919" lon="13.288034206617908"><ele>938.0</ele><time>2026-04-19T10:43:37.001Z</time></trkpt><trkpt lat="42.61690511740632" lon="13.28803048639639"><ele>938.0</ele><time>2026-04-19T10:43:38.001Z</time></trkpt><trkpt lat="42.61676857580179" lon="13.288068785353275"><ele>941.0</ele><time>2026-04-19T10:43:39.001Z</time></trkpt><trkpt lat="42.616631658517825" lon="13.288043772539337"><ele>944.0</ele><time>2026-04-19T10:43:40.001Z</time></trkpt><trkpt lat="42.61650417679743" lon="13.287934517350074"><ele>947.0</ele><time>2026-04-19T10:43:41.001Z</time></trkpt><trkpt lat="42.61633747691442" lon="13.287811549257755"><ele>941.3333333333334</ele><time>2026-04-19T10:43:42.001Z</time></trkpt><trkpt lat="42.61614460260855" lon="13.287686639196853"><ele>935.6666666666667</ele><time>2026-04-19T10:43:43.001Z</time></trkpt><trkpt lat="42.61598379939933" lon="13.28755817732602"><ele>930.0</ele><time>2026-04-19T10:43:44.001Z</time></trkpt><trkpt lat="42.615840020426994" lon="13.287446089386906"><ele>930.0</ele><time>2026-04-19T10:43:45.001Z</time></trkpt><trkpt lat="42.61570213080175" lon="13.287342141292736"><ele>930.0</ele><time>2026-04-19T10:43:46.001Z</time></trkpt><trkpt lat="42.61557349978149" lon="13.287242629145055"><ele>930.0</ele><time>2026-04-19T10:43:47.001Z</time></trkpt><trkpt lat="42.61546343702714" lon="13.287113915578933"><ele>930.4</ele><time>2026-04-19T10:43:48.001Z</time></trkpt><trkpt lat="42.61534630709567" lon="13.287028022043655"><ele>930.8</ele><time>2026-04-19T10:43:49.001Z</time></trkpt><trkpt lat="42.615254819769" lon="13.286940796846578"><ele>931.2</ele><time>2026-04-19T10:43:50.001Z</time></trkpt><trkpt lat="42.61517069971636" lon="13.286897497919185"><ele>931.6</ele><time>2026-04-19T10:43:51.001Z</time></trkpt><trkpt lat="42.61508980929416" lon="13.286880861719903"><ele>932.0</ele><time>2026-04-19T10:43:52.001Z</time></trkpt><trkpt lat="42.61500946130874" lon="13.286966435381501"><ele>932.0</ele><time>2026-04-19T10:43:53.001Z</time></trkpt><trkpt lat="42.61496462848732" lon="13.287059193167016"><ele>932.0</ele><time>2026-04-19T10:43:54.001Z</time></trkpt><trkpt lat="42.614942553590566" lon="13.287175464772197"><ele>932.0</ele><time>2026-04-19T10:43:55.001Z</time></trkpt><trkpt lat="42.61495471801663" lon="13.287294526289248"><ele>932.0</ele><time>2026-04-19T10:43:56.001Z</time></trkpt><trkpt lat="42.61500583343267" lon="13.287420934807258"><ele>932.0</ele><time>2026-04-19T10:43:57.001Z</time></trkpt><trkpt lat="42.61508906357367" lon="13.287561669187742"><ele>932.0</ele><time>2026-04-19T10:43:58.001Z</time></trkpt><trkpt lat="42.615181417750804" lon="13.287685091596549"><ele>932.0</ele><time>2026-04-19T10:43:59.001Z</time></trkpt><trkpt lat="42.61525433873723" lon="13.287785447543177"><ele>932.0</ele><time>2026-04-19T10:44:00.001Z</time></trkpt><trkpt lat="42.61533220421946" lon="13.287862437496067"><ele>932.0</ele><time>2026-04-19T10:44:01.001Z</time></trkpt><trkpt lat="42.615399683686874" lon="13.287918652219831"><ele>932.0</ele><time>2026-04-19T10:44:02.001Z</time></trkpt><trkpt lat="42.615464633104494" lon="13.288075439954898"><ele>931.5000000000001</ele><time>2026-04-19T10:44:04.001Z</time></trkpt><trkpt lat="42.61545747797313" lon="13.288175435457747"><ele>931.0</ele><time>2026-04-19T10:44:05.001Z</time></trkpt><trkpt lat="42.615422924426966" lon="13.288264221944699"><ele>930.5</ele><time>2026-04-19T10:44:06.001Z</time></trkpt><trkpt lat="42.61534578369266" lon="13.28832588926585"><ele>930.0</ele><time>2026-04-19T10:44:07.001Z</time></trkpt><trkpt lat="42.61529665742962" lon="13.288417515721259"><ele>929.5000000000001</ele><time>2026-04-19T10:44:08.001Z</time></trkpt><trkpt lat="42.6152375167149" lon="13.288480123952098"><ele>929.0</ele><time>2026-04-19T10:44:09.001Z</time></trkpt><trkpt lat="42.61521392764845" lon="13.288560747068283"><ele>929.0000000000001</ele><time>2026-04-19T10:44:10.001Z</time></trkpt><trkpt lat="42.615215083983934" lon="13.288665769169146"><ele>929.0</ele><time>2026-04-19T10:44:11.001Z</time></trkpt><trkpt lat="42.61523273717862" lon="13.2887739793704"><ele>929.0</ele><time>2026-04-19T10:44:12.001Z</time></trkpt><trkpt lat="42.61527882121536" lon="13.288881694325871"><ele>929.0</ele><time>2026-04-19T10:44:13.001Z</time></trkpt><trkpt lat="42.615359220997334" lon="13.288960326575069"><ele>929.0000000000001</ele><time>2026-04-19T10:44:14.001Z</time></trkpt><trkpt lat="42.615450916036245" lon="13.288990491020957"><ele>929.0</ele><time>2026-04-19T10:44:15.001Z</time></trkpt><trkpt lat="42.61555806696346" lon="13.288977295513384"><ele>926.6</ele><time>2026-04-19T10:44:16.001Z</time></trkpt><trkpt lat="42.615671443668006" lon="13.288937705572861"><ele>924.2</ele><time>2026-04-19T10:44:17.001Z</time></trkpt><trkpt lat="42.61578216330741" lon="13.288899226047267"><ele>921.8000000000001</ele><time>2026-04-19T10:44:18.001Z</time></trkpt><trkpt lat="42.615886454058" lon="13.288864142103407"><ele>919.4000000000001</ele><time>2026-04-19T10:44:19.001Z</time></trkpt><trkpt lat="42.61599067579325" lon="13.288855422831649"><ele>917.0</ele><time>2026-04-19T10:44:20.001Z</time></trkpt><trkpt lat="42.61609311380842" lon="13.288829281980632"><ele>916.0</ele><time>2026-04-19T10:44:21.001Z</time></trkpt><trkpt lat="42.61620317435235" lon="13.288792503082535"><ele>915.0</ele><time>2026-04-19T10:44:22.001Z</time></trkpt><trkpt lat="42.61633310474801" lon="13.28880881939458"><ele>914.0</ele><time>2026-04-19T10:44:23.001Z</time></trkpt><trkpt lat="42.61657177667278" lon="13.288928567926245"><ele>914.0</ele><time>2026-04-19T10:44:25.001Z</time></trkpt><trkpt lat="42.616678725812456" lon="13.288964080033308"><ele>914.0000000000001</ele><time>2026-04-19T10:44:26.001Z</time></trkpt><trkpt lat="42.616757328272115" lon="13.289034123790076"><ele>914.0000000000001</ele><time>2026-04-19T10:44:27.001Z</time></trkpt><trkpt lat="42.61682156323371" lon="13.289085820377544"><ele>914.0</ele><time>2026-04-19T10:44:28.001Z</time></trkpt><trkpt lat="42.61687819773941" lon="13.289207796995917"><ele>914.0</ele><time>2026-04-19T10:44:30.001Z</time></trkpt><trkpt lat="42.61678303802546" lon="13.289317279359746"><ele>914.0</ele><time>2026-04-19T10:44:32.001Z</time></trkpt><trkpt lat="42.6167495065452" lon="13.28939624895043"><ele>914.0000000000001</ele><time>2026-04-19T10:44:33.001Z</time></trkpt><trkpt lat="42.61672483810847" lon="13.289513499539648"><ele>914.0000000000001</ele><time>2026-04-19T10:44:35.001Z</time></trkpt><trkpt lat="42.616787895191216" lon="13.289568210102608"><ele>914.0</ele><time>2026-04-19T10:44:36.001Z</time></trkpt><trkpt lat="42.61686899734919" lon="13.289652174406276"><ele>914.0</ele><time>2026-04-19T10:44:37.001Z</time></trkpt><trkpt lat="42.61697650547188" lon="13.289769295868075"><ele>912.3333333333334</ele><time>2026-04-19T10:44:38.001Z</time></trkpt><trkpt lat="42.617108050305454" lon="13.289875967882862"><ele>910.6666666666667</ele><time>2026-04-19T10:44:39.001Z</time></trkpt><trkpt lat="42.61725782493164" lon="13.289988967724513"><ele>909.0</ele><time>2026-04-19T10:44:40.001Z</time></trkpt><trkpt lat="42.617407056100355" lon="13.29012126409606"><ele>909.0</ele><time>2026-04-19T10:44:41.001Z</time></trkpt><trkpt lat="42.61753015252523" lon="13.290261423418409"><ele>909.0</ele><time>2026-04-19T10:44:42.001Z</time></trkpt><trkpt lat="42.617637054852814" lon="13.290406872688408"><ele>909.0</ele><time>2026-04-19T10:44:43.001Z</time></trkpt><trkpt lat="42.61773526205607" lon="13.29055614574243"><ele>908.25</ele><time>2026-04-19T10:44:44.001Z</time></trkpt><trkpt lat="42.617806458954604" lon="13.290736067933503"><ele>907.5</ele><time>2026-04-19T10:44:45.001Z</time></trkpt><trkpt lat="42.61789249590334" lon="13.29088445682617"><ele>906.75</ele><time>2026-04-19T10:44:46.001Z</time></trkpt><trkpt lat="42.61795719369507" lon="13.291027745730268"><ele>906.0</ele><time>2026-04-19T10:44:47.001Z</time></trkpt><trkpt lat="42.61800215978536" lon="13.291147941166036"><ele>906.0</ele><time>2026-04-19T10:44:48.001Z</time></trkpt><trkpt lat="42.61803223922114" lon="13.29125249624443"><ele>906.0</ele><time>2026-04-19T10:44:49.001Z</time></trkpt><trkpt lat="42.61804239973099" lon="13.291351006041895"><ele>906.0</ele><time>2026-04-19T10:44:50.001Z</time></trkpt><trkpt lat="42.61803076596269" lon="13.291456432761612"><ele>906.0</ele><time>2026-04-19T10:44:51.001Z</time></trkpt><trkpt lat="42.61796636322075" lon="13.291538551386626"><ele>906.0</ele><time>2026-04-19T10:44:52.001Z</time></trkpt><trkpt lat="42.6178960155705" lon="13.291592554877035"><ele>906.0</ele><time>2026-04-19T10:44:53.001Z</time></trkpt><trkpt lat="42.61782928692866" lon="13.291673621634171"><ele>907.5999999999999</ele><time>2026-04-19T10:44:54.001Z</time></trkpt><trkpt lat="42.61774933473551" lon="13.291733845275369"><ele>909.1999999999999</ele><time>2026-04-19T10:44:55.001Z</time></trkpt><trkpt lat="42.61766242111785" lon="13.291817681901877"><ele>910.8000000000001</ele><time>2026-04-19T10:44:56.001Z</time></trkpt><trkpt lat="42.61758135980827" lon="13.291913800881415"><ele>912.4000000000001</ele><time>2026-04-19T10:44:57.001Z</time></trkpt><trkpt lat="42.617509342582885" lon="13.292035345933112"><ele>914.0</ele><time>2026-04-19T10:44:58.001Z</time></trkpt><trkpt lat="42.617422444932224" lon="13.292196528243636"><ele>914.2</ele><time>2026-04-19T10:44:59.001Z</time></trkpt><trkpt lat="42.61733610220091" lon="13.292352973880426"><ele>914.4000000000001</ele><time>2026-04-19T10:45:00.001Z</time></trkpt><trkpt lat="42.61727884289977" lon="13.292476707941008"><ele>914.6</ele><time>2026-04-19T10:45:01.001Z</time></trkpt><trkpt lat="42.61724340162516" lon="13.292583772839727"><ele>914.8</ele><time>2026-04-19T10:45:02.001Z</time></trkpt><trkpt lat="42.61724066463671" lon="13.29267811984831"><ele>915.0</ele><time>2026-04-19T10:45:03.001Z</time></trkpt><trkpt lat="42.61727513956067" lon="13.292751726230408"><ele>915.0</ele><time>2026-04-19T10:45:04.001Z</time></trkpt><trkpt lat="42.61734321582586" lon="13.292798733964048"><ele>915.0</ele><time>2026-04-19T10:45:05.001Z</time></trkpt><trkpt lat="42.61744448025305" lon="13.2928219602729"><ele>915.0</ele><time>2026-04-19T10:45:06.001Z</time></trkpt><trkpt lat="42.61756268256687" lon="13.292806913611"><ele>915.0</ele><time>2026-04-19T10:45:07.001Z</time></trkpt><trkpt lat="42.61768408142141" lon="13.292771250430595"><ele>915.0</ele><time>2026-04-19T10:45:08.001Z</time></trkpt><trkpt lat="42.617796784727" lon="13.29273205751093"><ele>914.6666666666667</ele><time>2026-04-19T10:45:09.001Z</time></trkpt><trkpt lat="42.617919796695546" lon="13.292687920033817"><ele>914.3333333333334</ele><time>2026-04-19T10:45:10.001Z</time></trkpt><trkpt lat="42.61807764591607" lon="13.292617912929542"><ele>914.0</ele><time>2026-04-19T10:45:11.001Z</time></trkpt><trkpt lat="42.618256408637365" lon="13.292502241343122"><ele>914.0</ele><time>2026-04-19T10:45:12.001Z</time></trkpt><trkpt lat="42.61845090884252" lon="13.292372442952676"><ele>914.0</ele><time>2026-04-19T10:45:13.001Z</time></trkpt><trkpt lat="42.61862227569211" lon="13.292257134295479"><ele>914.0</ele><time>2026-04-19T10:45:14.001Z</time></trkpt><trkpt lat="42.61878191608143" lon="13.292169826245294"><ele>911.6666666666667</ele><time>2026-04-19T10:45:15.001Z</time></trkpt><trkpt lat="42.61896730551988" lon="13.29211255219959"><ele>909.3333333333333</ele><time>2026-04-19T10:45:16.001Z</time></trkpt><trkpt lat="42.6191697872959" lon="13.292069995015554"><ele>907.0</ele><time>2026-04-19T10:45:17.001Z</time></trkpt><trkpt lat="42.6193475496381" lon="13.292011447861414"><ele>909.3333333333333</ele><time>2026-04-19T10:45:18.001Z</time></trkpt><trkpt lat="42.61951567661801" lon="13.29193820229858"><ele>911.6666666666667</ele><time>2026-04-19T10:45:19.001Z</time></trkpt><trkpt lat="42.61966598852718" lon="13.291857093737777"><ele>914.0</ele><time>2026-04-19T10:45:20.001Z</time></trkpt><trkpt lat="42.619801673017854" lon="13.291760046895458"><ele>914.0</ele><time>2026-04-19T10:45:21.001Z</time></trkpt><trkpt lat="42.61990775441934" lon="13.291635749729112"><ele>914.0</ele><time>2026-04-19T10:45:22.001Z</time></trkpt><trkpt lat="42.61999647799103" lon="13.291471715065025"><ele>914.0</ele><time>2026-04-19T10:45:23.001Z</time></trkpt><trkpt lat="42.62006070075561" lon="13.291305328990441"><ele>914.0</ele><time>2026-04-19T10:45:24.001Z</time></trkpt><trkpt lat="42.62013947869039" lon="13.291173470956947"><ele>913.0</ele><time>2026-04-19T10:45:25.001Z</time></trkpt><trkpt lat="42.62020220424662" lon="13.291048394941697"><ele>912.0</ele><time>2026-04-19T10:45:26Z</time></trkpt><trkpt lat="42.62029631467217" lon="13.290975755416964"><ele>911.0</ele><time>2026-04-19T10:45:27Z</time></trkpt><trkpt lat="42.620402071885" lon="13.290902343449284"><ele>910.0</ele><time>2026-04-19T10:45:28Z</time></trkpt><trkpt lat="42.620509498046296" lon="13.290848175219441"><ele>910.0</ele><time>2026-04-19T10:45:29Z</time></trkpt><trkpt lat="42.620622304615104" lon="13.290795983745953"><ele>910.0</ele><time>2026-04-19T10:45:30Z</time></trkpt><trkpt lat="42.62072557794092" lon="13.290745510453188"><ele>910.0</ele><time>2026-04-19T10:45:31Z</time></trkpt><trkpt lat="42.620855384053584" lon="13.290745732701327"><ele>910.0</ele><time>2026-04-19T10:45:32Z</time></trkpt><trkpt lat="42.620997983561956" lon="13.29078266934457"><ele>910.0</ele><time>2026-04-19T10:45:33Z</time></trkpt><trkpt lat="42.62114811793624" lon="13.290767498210736"><ele>910.0</ele><time>2026-04-19T10:45:34Z</time></trkpt><trkpt lat="42.621299028494775" lon="13.290775732063473"><ele>910.0</ele><time>2026-04-19T10:45:35Z</time></trkpt><trkpt lat="42.62145032954626" lon="13.290775606947989"><ele>911.3333333333333</ele><time>2026-04-19T10:45:36Z</time></trkpt><trkpt lat="42.62160577244855" lon="13.290757119337936"><ele>912.6666666666667</ele><time>2026-04-19T10:45:37Z</time></trkpt><trkpt lat="42.62176105650785" lon="13.290751013859818"><ele>914.0</ele><time>2026-04-19T10:45:38Z</time></trkpt><trkpt lat="42.621901904739" lon="13.290702073816586"><ele>914.75</ele><time>2026-04-19T10:45:39Z</time></trkpt><trkpt lat="42.62201594047211" lon="13.290639281673615"><ele>915.5</ele><time>2026-04-19T10:45:40Z</time></trkpt><trkpt lat="42.62214519113814" lon="13.290634080241137"><ele>916.25</ele><time>2026-04-19T10:45:41Z</time></trkpt><trkpt lat="42.622292366754955" lon="13.290639432577784"><ele>917.0</ele><time>2026-04-19T10:45:42Z</time></trkpt><trkpt lat="42.622451982592665" lon="13.29067196431489"><ele>917.0</ele><time>2026-04-19T10:45:43Z</time></trkpt><trkpt lat="42.6226203328733" lon="13.290691747381782"><ele>917.0</ele><time>2026-04-19T10:45:44Z</time></trkpt><trkpt lat="42.62278285507086" lon="13.290731210697357"><ele>917.0</ele><time>2026-04-19T10:45:45Z</time></trkpt><trkpt lat="42.622942223473366" lon="13.290754307906658"><ele>917.5</ele><time>2026-04-19T10:45:46Z</time></trkpt><trkpt lat="42.623085411597074" lon="13.290778832177942"><ele>918.0</ele><time>2026-04-19T10:45:47Z</time></trkpt><trkpt lat="42.62320543704654" lon="13.290816470515978"><ele>918.5</ele><time>2026-04-19T10:45:48Z</time></trkpt><trkpt lat="42.62330805605966" lon="13.290883054075584"><ele>919.0</ele><time>2026-04-19T10:45:49Z</time></trkpt><trkpt lat="42.623396356099384" lon="13.291000783142989"><ele>919.0</ele><time>2026-04-19T10:45:50Z</time></trkpt><trkpt lat="42.62345361711488" lon="13.291164971357437"><ele>919.0</ele><time>2026-04-19T10:45:51Z</time></trkpt><trkpt lat="42.62347335022868" lon="13.291345968561254"><ele>919.0</ele><time>2026-04-19T10:45:52Z</time></trkpt><trkpt lat="42.623450765696255" lon="13.291534920803263"><ele>919.0</ele><time>2026-04-19T10:45:53Z</time></trkpt><trkpt lat="42.6233935787743" lon="13.291753589785802"><ele>922.3333333333333</ele><time>2026-04-19T10:45:54Z</time></trkpt><trkpt lat="42.62332920920319" lon="13.291995007997533"><ele>925.6666666666667</ele><time>2026-04-19T10:45:55Z</time></trkpt><trkpt lat="42.6232712304236" lon="13.292238410626302"><ele>929.0</ele><time>2026-04-19T10:45:56Z</time></trkpt><trkpt lat="42.623215553569906" lon="13.29250379467227"><ele>929.0</ele><time>2026-04-19T10:45:57Z</time></trkpt><trkpt lat="42.62317491586493" lon="13.292790501683003"><ele>929.0</ele><time>2026-04-19T10:45:58Z</time></trkpt><trkpt lat="42.62316742285993" lon="13.293071548205127"><ele>929.0</ele><time>2026-04-19T10:45:59Z</time></trkpt><trkpt lat="42.62318878506858" lon="13.29334389987256"><ele>930.6666666666667</ele><time>2026-04-19T10:46:00Z</time></trkpt><trkpt lat="42.62322516879114" lon="13.293626007943388"><ele>932.3333333333333</ele><time>2026-04-19T10:46:01Z</time></trkpt><trkpt lat="42.62329198803645" lon="13.293913590621772"><ele>934.0</ele><time>2026-04-19T10:46:02Z</time></trkpt><trkpt lat="42.62338255191245" lon="13.2942385642199"><ele>937.0</ele><time>2026-04-19T10:46:03Z</time></trkpt><trkpt lat="42.62347438524306" lon="13.294544435876675"><ele>940.0</ele><time>2026-04-19T10:46:04Z</time></trkpt><trkpt lat="42.623558842484364" lon="13.294808902200185"><ele>939.3333333333333</ele><time>2026-04-19T10:46:05Z</time></trkpt><trkpt lat="42.623629339150206" lon="13.295040468959703"><ele>938.6666666666667</ele><time>2026-04-19T10:46:06Z</time></trkpt><trkpt lat="42.62367507445678" lon="13.295232280439736"><ele>938.0</ele><time>2026-04-19T10:46:07Z</time></trkpt><trkpt lat="42.62371843089523" lon="13.295386693276296"><ele>938.0</ele><time>2026-04-19T10:46:08Z</time></trkpt><trkpt lat="42.623773664607754" lon="13.295492083056939"><ele>938.0</ele><time>2026-04-19T10:46:09Z</time></trkpt><trkpt lat="42.623854258195884" lon="13.295535388826432"><ele>938.0</ele><time>2026-04-19T10:46:10Z</time></trkpt><trkpt lat="42.62394716308091" lon="13.295517890883703"><ele>938.0</ele><time>2026-04-19T10:46:11Z</time></trkpt><trkpt lat="42.62402575094724" lon="13.295437047848104"><ele>938.0</ele><time>2026-04-19T10:46:12Z</time></trkpt><trkpt lat="42.62410584648992" lon="13.29529976472292"><ele>938.0</ele><time>2026-04-19T10:46:13Z</time></trkpt><trkpt lat="42.624197598203224" lon="13.29513893741504"><ele>938.0</ele><time>2026-04-19T10:46:14Z</time></trkpt><trkpt lat="42.62431349928893" lon="13.294979893012654"><ele>938.0</ele><time>2026-04-19T10:46:15Z</time></trkpt><trkpt lat="42.62423262355925" lon="13.294723164529243"><ele>937.25</ele><time>2026-04-19T10:46:16Z</time></trkpt><trkpt lat="42.62422723174389" lon="13.294528973619963"><ele>936.5</ele><time>2026-04-19T10:46:17Z</time></trkpt><trkpt lat="42.6242297256258" lon="13.294342513630275"><ele>935.75</ele><time>2026-04-19T10:46:18Z</time></trkpt><trkpt lat="42.6242344296791" lon="13.294171193677066"><ele>935.0</ele><time>2026-04-19T10:46:19Z</time></trkpt><trkpt lat="42.62427348344373" lon="13.294023421821375"><ele>937.25</ele><time>2026-04-19T10:46:20Z</time></trkpt><trkpt lat="42.62431616388413" lon="13.293867182245052"><ele>939.5</ele><time>2026-04-19T10:46:21.001Z</time></trkpt><trkpt lat="42.62436589707368" lon="13.293666088628378"><ele>941.75</ele><time>2026-04-19T10:46:22.001Z</time></trkpt><trkpt lat="42.624441311758126" lon="13.293460784870494"><ele>944.0</ele><time>2026-04-19T10:46:23.001Z</time></trkpt><trkpt lat="42.62451135813326" lon="13.293246782961583"><ele>943.25</ele><time>2026-04-19T10:46:24.001Z</time></trkpt><trkpt lat="42.62457499397563" lon="13.293047176239561"><ele>942.5</ele><time>2026-04-19T10:46:25.001Z</time></trkpt><trkpt lat="42.62464895001262" lon="13.292882218507856"><ele>941.75</ele><time>2026-04-19T10:46:26.001Z</time></trkpt><trkpt lat="42.6247154419888" lon="13.292737969188"><ele>941.0</ele><time>2026-04-19T10:46:27.001Z</time></trkpt><trkpt lat="42.62479868449219" lon="13.292625892704528"><ele>941.0</ele><time>2026-04-19T10:46:28.001Z</time></trkpt><trkpt lat="42.62490144621091" lon="13.29252938872507"><ele>941.0</ele><time>2026-04-19T10:46:29.001Z</time></trkpt><trkpt lat="42.625025519527696" lon="13.292521605522117"><ele>941.0</ele><time>2026-04-19T10:46:30.001Z</time></trkpt><trkpt lat="42.62513861224634" lon="13.292517847891562"><ele>941.0</ele><time>2026-04-19T10:46:31.001Z</time></trkpt><trkpt lat="42.62525399186505" lon="13.292520322623446"><ele>943.0</ele><time>2026-04-19T10:46:32.001Z</time></trkpt><trkpt lat="42.62536740969576" lon="13.292513472828347"><ele>944.9999999999999</ele><time>2026-04-19T10:46:33.001Z</time></trkpt><trkpt lat="42.625475013454626" lon="13.29253235450657"><ele>946.9999999999999</ele><time>2026-04-19T10:46:34.001Z</time></trkpt><trkpt lat="42.625588813304475" lon="13.292535850851936"><ele>949.0</ele><time>2026-04-19T10:46:35.001Z</time></trkpt><trkpt lat="42.62569400010482" lon="13.292532452853504"><ele>951.0</ele><time>2026-04-19T10:46:36.001Z</time></trkpt><trkpt lat="42.62580449919916" lon="13.292534002557597"><ele>951.0</ele><time>2026-04-19T10:46:37.001Z</time></trkpt><trkpt lat="42.625901756878214" lon="13.292535033828216"><ele>951.0</ele><time>2026-04-19T10:46:38.001Z</time></trkpt><trkpt lat="42.625967805578284" lon="13.29253279818007"><ele>951.0</ele><time>2026-04-19T10:46:39.001Z</time></trkpt><trkpt lat="42.62604564751095" lon="13.292539060333695"><ele>951.0</ele><time>2026-04-19T10:46:42.001Z</time></trkpt><trkpt lat="42.626112859688135" lon="13.292530543669933"><ele>951.0</ele><time>2026-04-19T10:46:45.001Z</time></trkpt><trkpt lat="42.62624105893238" lon="13.292530461539151"><ele>951.0</ele><time>2026-04-19T10:46:47.001Z</time></trkpt><trkpt lat="42.626337858450384" lon="13.292532978431426"><ele>951.5</ele><time>2026-04-19T10:46:48.001Z</time></trkpt><trkpt lat="42.626443150755115" lon="13.292538696595265"><ele>952.0</ele><time>2026-04-19T10:46:49.001Z</time></trkpt><trkpt lat="42.62655525696018" lon="13.292542678484118"><ele>952.5</ele><time>2026-04-19T10:46:50.001Z</time></trkpt><trkpt lat="42.62668231325103" lon="13.292539971976366"><ele>953.0</ele><time>2026-04-19T10:46:51.001Z</time></trkpt><trkpt lat="42.62681131783183" lon="13.29256625545529"><ele>953.0</ele><time>2026-04-19T10:46:52.001Z</time></trkpt><trkpt lat="42.6269412507449" lon="13.292570749933603"><ele>953.0</ele><time>2026-04-19T10:46:53.001Z</time></trkpt><trkpt lat="42.62705839374573" lon="13.292553673812503"><ele>953.0</ele><time>2026-04-19T10:46:54.001Z</time></trkpt><trkpt lat="42.627155184660566" lon="13.292559772323054"><ele>953.0</ele><time>2026-04-19T10:46:55.001Z</time></trkpt><trkpt lat="42.6272493483018" lon="13.29256190151287"><ele>953.0</ele><time>2026-04-19T10:46:56.001Z</time></trkpt><trkpt lat="42.62734470747623" lon="13.292562513992687"><ele>953.0</ele><time>2026-04-19T10:46:57.001Z</time></trkpt><trkpt lat="42.62743039307587" lon="13.29256517721898"><ele>953.0</ele><time>2026-04-19T10:46:58.001Z</time></trkpt><trkpt lat="42.62750518173033" lon="13.29258819582823"><ele>953.0</ele><time>2026-04-19T10:46:59.001Z</time></trkpt><trkpt lat="42.62757605998039" lon="13.292589388283124"><ele>953.0</ele><time>2026-04-19T10:47:00.001Z</time></trkpt><trkpt lat="42.62769450746917" lon="13.292594117822365"><ele>953.0</ele><time>2026-04-19T10:47:02.001Z</time></trkpt><trkpt lat="42.627791488733465" lon="13.292557150916563"><ele>952.4285714285714</ele><time>2026-04-19T10:47:04.001Z</time></trkpt><trkpt lat="42.62785639431343" lon="13.292595687470206"><ele>951.8571428571429</ele><time>2026-04-19T10:47:07.001Z</time></trkpt><trkpt lat="42.62784266976837" lon="13.292685106258439"><ele>951.2857142857143</ele><time>2026-04-19T10:47:14.001Z</time></trkpt><trkpt lat="42.627906841830715" lon="13.292680841461888"><ele>950.7142857142858</ele><time>2026-04-19T10:48:10Z</time></trkpt><trkpt lat="42.6279441846584" lon="13.29259447556932"><ele>950.1428571428571</ele><time>2026-04-19T10:48:51.001Z</time></trkpt><trkpt lat="42.628012372868334" lon="13.292601184293918"><ele>949.5714285714287</ele><time>2026-04-19T10:49:02.001Z</time></trkpt><trkpt lat="42.628001217045075" lon="13.29270049028798"><ele>949.0000000000001</ele><time>2026-04-19T10:49:12.068Z</time></trkpt><trkpt lat="42.62790467368179" lon="13.292557222929746"><ele>948.9999999999999</ele><time>2026-04-19T10:50:18.484Z</time></trkpt><trkpt lat="42.627965898426574" lon="13.292530217577802"><ele>949.0</ele><time>2026-04-19T10:50:37.027Z</time></trkpt><trkpt lat="42.62795208695981" lon="13.292620465084935"><ele>949.0</ele><time>2026-04-19T10:52:42Z</time></trkpt><trkpt lat="42.62797711221869" lon="13.29254179624392"><ele>949.0</ele><time>2026-04-19T10:53:03Z</time></trkpt><trkpt lat="42.62792778443348" lon="13.29247243475125"><ele>948.9999999999999</ele><time>2026-04-19T10:55:24Z</time></trkpt><trkpt lat="42.62798796160249" lon="13.292579109827024"><ele>949.0</ele><time>2026-04-19T10:55:31Z</time></trkpt><trkpt lat="42.62802579359416" lon="13.292694368113978"><ele>948.9999999999999</ele><time>2026-04-19T10:55:54Z</time></trkpt><trkpt lat="42.628091180779265" lon="13.292616523567718"><ele>949.0</ele><time>2026-04-19T10:56:27Z</time></trkpt><trkpt lat="42.62804576316876" lon="13.292686540010878"><ele>949.0</ele><time>2026-04-19T10:56:30Z</time></trkpt><trkpt lat="42.62803530947376" lon="13.292596299881362"><ele>949.0</ele><time>2026-04-19T10:56:35Z</time></trkpt><trkpt lat="42.62802793373505" lon="13.292684433075035"><ele>948.9999999999999</ele><time>2026-04-19T10:57:10.999Z</time></trkpt><trkpt lat="42.62799523076831" lon="13.292509600586971"><ele>949.0</ele><time>2026-04-19T10:57:38Z</time></trkpt><trkpt lat="42.62803904600908" lon="13.292581426798371"><ele>949.0000000000001</ele><time>2026-04-19T10:58:09Z</time></trkpt><trkpt lat="42.627979693279414" lon="13.292526446203176"><ele>949.0</ele><time>2026-04-19T10:58:14Z</time></trkpt><trkpt lat="42.62802155615199" lon="13.292592351055601"><ele>949.0000000000001</ele><time>2026-04-19T10:58:25Z</time></trkpt><trkpt lat="42.6279682768016" lon="13.292504441187774"><ele>949.0000000000001</ele><time>2026-04-19T10:59:07.999Z</time></trkpt><trkpt lat="42.62804420658257" lon="13.292559233635798"><ele>949.0</ele><time>2026-04-19T11:02:50Z</time></trkpt><trkpt lat="42.627981397640326" lon="13.292550766920952"><ele>949.0000000000001</ele><time>2026-04-19T11:02:54Z</time></trkpt><trkpt lat="42.62804570344054" lon="13.292600433161544"><ele>949.0000000000001</ele><time>2026-04-19T11:04:06Z</time></trkpt><trkpt lat="42.628066948510785" lon="13.292518128025186"><ele>948.9999999999999</ele><time>2026-04-19T11:04:37Z</time></trkpt><trkpt lat="42.627973069382406" lon="13.292579567718183"><ele>949.0</ele><time>2026-04-19T11:04:39Z</time></trkpt><trkpt lat="42.62800597832518" lon="13.292654863178681"><ele>949.0</ele><time>2026-04-19T11:06:30Z</time></trkpt><trkpt lat="42.62807012308257" lon="13.29271463661226"><ele>949.0</ele><time>2026-04-19T11:06:34Z</time></trkpt><trkpt lat="42.6281180669461" lon="13.292774508896269"><ele>948.9999999999999</ele><time>2026-04-19T11:06:35Z</time></trkpt><trkpt lat="42.62803297882837" lon="13.29276629629963"><ele>949.0</ele><time>2026-04-19T11:06:40Z</time></trkpt><trkpt lat="42.62809894864728" lon="13.292810462414392"><ele>948.9999999999999</ele><time>2026-04-19T11:06:47Z</time></trkpt><trkpt lat="42.62803489242711" lon="13.292767245870682"><ele>949.0</ele><time>2026-04-19T11:06:51Z</time></trkpt><trkpt lat="42.62798203576278" lon="13.292707890937345"><ele>949.0</ele><time>2026-04-19T11:07:06Z</time></trkpt><trkpt lat="42.627936972715425" lon="13.292770813686388"><ele>949.0</ele><time>2026-04-19T11:07:42Z</time></trkpt><trkpt lat="42.62799397398818" lon="13.292819755052198"><ele>948.9999999999999</ele><time>2026-04-19T11:07:44Z</time></trkpt><trkpt lat="42.62793513640869" lon="13.292624842750852"><ele>949.0</ele><time>2026-04-19T11:08:08Z</time></trkpt><trkpt lat="42.62798702286636" lon="13.292541878105064"><ele>948.9999999999999</ele><time>2026-04-19T11:08:19Z</time></trkpt><trkpt lat="42.62794864110105" lon="13.292612654931935"><ele>949.0</ele><time>2026-04-19T11:08:30Z</time></trkpt><trkpt lat="42.62796225215633" lon="13.292497209327093"><ele>949.0</ele><time>2026-04-19T11:09:21Z</time></trkpt><trkpt lat="42.62790986405275" lon="13.292405704643729"><ele>949.0</ele><time>2026-04-19T11:09:46.999Z</time></trkpt><trkpt lat="42.62795897523705" lon="13.292531832076467"><ele>948.9999999999999</ele><time>2026-04-19T11:10:36Z</time></trkpt><trkpt lat="42.62801007475537" lon="13.292582396137146"><ele>949.0</ele><time>2026-04-19T11:10:44Z</time></trkpt><trkpt lat="42.62797691278634" lon="13.29268136957775"><ele>949.0</ele><time>2026-04-19T11:11:03Z</time></trkpt><trkpt lat="42.62801368669499" lon="13.292593697521779"><ele>949.0000000000001</ele><time>2026-04-19T11:11:56Z</time></trkpt><trkpt lat="42.627955794077856" lon="13.292515913214066"><ele>949.0000000000001</ele><time>2026-04-19T11:13:32Z</time></trkpt><trkpt lat="42.627942867625535" lon="13.292608796408027"><ele>949.0</ele><time>2026-04-19T11:15:36Z</time></trkpt><trkpt lat="42.627875889983926" lon="13.292544433198026"><ele>949.0</ele><time>2026-04-19T11:15:38Z</time></trkpt><trkpt lat="42.627879666443334" lon="13.29279157104883"><ele>948.9999999999999</ele><time>2026-04-19T11:15:47Z</time></trkpt><trkpt lat="42.62789448576576" lon="13.292654551691484"><ele>949.0</ele><time>2026-04-19T11:15:58Z</time></trkpt><trkpt lat="42.62798935639089" lon="13.29256041080579"><ele>949.0</ele><time>2026-04-19T11:16:31Z</time></trkpt><trkpt lat="42.627965855067075" lon="13.292464816623113"><ele>949.0</ele><time>2026-04-19T11:16:47Z</time></trkpt><trkpt lat="42.6279575788904" lon="13.292379150626852"><ele>948.9999999999999</ele><time>2026-04-19T11:16:51Z</time></trkpt><trkpt lat="42.62791684839097" lon="13.292454832200743"><ele>949.0</ele><time>2026-04-19T11:17:07Z</time></trkpt><trkpt lat="42.628087332753225" lon="13.2926500473157"><ele>949.0</ele><time>2026-04-19T11:17:24Z</time></trkpt><trkpt lat="42.628045881526916" lon="13.29257626359559"><ele>949.0000000000001</ele><time>2026-04-19T11:17:32Z</time></trkpt><trkpt lat="42.628002818521225" lon="13.29250917850855"><ele>949.0000000000001</ele><time>2026-04-19T11:17:43Z</time></trkpt><trkpt lat="42.628079979517544" lon="13.292509165960931"><ele>949.0</ele><time>2026-04-19T11:17:49.999Z</time></trkpt><trkpt lat="42.62795692382773" lon="13.292465989492177"><ele>949.0</ele><time>2026-04-19T11:18:10.999Z</time></trkpt><trkpt lat="42.628066114065625" lon="13.292587790211547"><ele>948.9999999999999</ele><time>2026-04-19T11:18:33.999Z</time></trkpt><trkpt lat="42.62800678094532" lon="13.292528462266793"><ele>949.0</ele><time>2026-04-19T11:18:47Z</time></trkpt><trkpt lat="42.62794675489264" lon="13.29246317689311"><ele>949.0</ele><time>2026-04-19T11:18:49Z</time></trkpt><trkpt lat="42.628019947602915" lon="13.292525263900815"><ele>949.0</ele><time>2026-04-19T11:18:53Z</time></trkpt><trkpt lat="42.6280469711255" lon="13.292430429907192"><ele>948.9999999999999</ele><time>2026-04-19T11:19:46.999Z</time></trkpt><trkpt lat="42.627992763661574" lon="13.292314196939378"><ele>949.0</ele><time>2026-04-19T11:19:55.999Z</time></trkpt><trkpt lat="42.6279740568651" lon="13.292415535671125"><ele>948.9999999999999</ele><time>2026-04-19T11:19:56.999Z</time></trkpt><trkpt lat="42.627998483147834" lon="13.292527027383361"><ele>949.0</ele><time>2026-04-19T11:20:05.999Z</time></trkpt><trkpt lat="42.628049616646926" lon="13.292608185638827"><ele>949.0</ele><time>2026-04-19T11:20:37.999Z</time></trkpt><trkpt lat="42.62812052352944" lon="13.292672554554427"><ele>949.0</ele><time>2026-04-19T11:20:40Z</time></trkpt><trkpt lat="42.628096756816056" lon="13.292576505950818"><ele>948.9999999999999</ele><time>2026-04-19T11:20:49Z</time></trkpt><trkpt lat="42.62814426436918" lon="13.292648556410244"><ele>949.0</ele><time>2026-04-19T11:21:38.021Z</time></trkpt><trkpt lat="42.6281694029982" lon="13.292737246314845"><ele>949.0</ele><time>2026-04-19T11:21:49.019Z</time></trkpt><trkpt lat="42.62820039798218" lon="13.292860515779196"><ele>949.0000000000001</ele><time>2026-04-19T11:21:55.018Z</time></trkpt><trkpt lat="42.62811190243803" lon="13.29269440660412"><ele>949.0000000000001</ele><time>2026-04-19T11:22:03.016Z</time></trkpt><trkpt lat="42.62803606879528" lon="13.292641103232922"><ele>949.0</ele><time>2026-04-19T11:22:13.015Z</time></trkpt><trkpt lat="42.6280159963432" lon="13.292723567197331"><ele>949.0</ele><time>2026-04-19T11:22:22.014Z</time></trkpt><trkpt lat="42.62797999057652" lon="13.292628787390735"><ele>949.0</ele><time>2026-04-19T11:22:28.018Z</time></trkpt><trkpt lat="42.62793223718482" lon="13.292558610877588"><ele>949.0000000000001</ele><time>2026-04-19T11:22:36.019Z</time></trkpt><trkpt lat="42.62798062486527" lon="13.292438918489415"><ele>949.0000000000001</ele><time>2026-04-19T11:22:41.017Z</time></trkpt><trkpt lat="42.62795791462351" lon="13.292523433812887"><ele>949.0</ele><time>2026-04-19T11:22:56.016Z</time></trkpt><trkpt lat="42.62800548245912" lon="13.292600534440739"><ele>949.0</ele><time>2026-04-19T11:23:26.018Z</time></trkpt><trkpt lat="42.62793291902061" lon="13.292434815372225"><ele>948.9999999999999</ele><time>2026-04-19T11:23:49.016Z</time></trkpt><trkpt lat="42.6279964396627" lon="13.292452236002909"><ele>949.0</ele><time>2026-04-19T11:24:12.015Z</time></trkpt><trkpt lat="42.627979247123584" lon="13.292554600492412"><ele>949.0</ele><time>2026-04-19T11:24:27.013Z</time></trkpt><trkpt lat="42.62794719639504" lon="13.292630139431079"><ele>949.0</ele><time>2026-04-19T11:29:34.999Z</time></trkpt><trkpt lat="42.62797020472734" lon="13.292532398109012"><ele>948.9999999999999</ele><time>2026-04-19T11:29:58.999Z</time></trkpt><trkpt lat="42.62793280423569" lon="13.292445644140896"><ele>949.0</ele><time>2026-04-19T11:30:01.999Z</time></trkpt><trkpt lat="42.627896991779416" lon="13.292317020844301"><ele>949.0</ele><time>2026-04-19T11:30:03.999Z</time></trkpt><trkpt lat="42.62787702053015" lon="13.292180706565574"><ele>949.0</ele><time>2026-04-19T11:30:07.999Z</time></trkpt><trkpt lat="42.62781472728911" lon="13.29207866195615"><ele>949.0</ele><time>2026-04-19T11:30:12.999Z</time></trkpt><trkpt lat="42.62790802830053" lon="13.292297864580645"><ele>949.0</ele><time>2026-04-19T11:30:27.023Z</time></trkpt><trkpt lat="42.62781884513887" lon="13.292536435720258"><ele>949.0000000000001</ele><time>2026-04-19T11:32:22.008Z</time></trkpt><trkpt lat="42.62782634773468" lon="13.292416108535077"><ele>949.0</ele><time>2026-04-19T11:33:47.009Z</time></trkpt><trkpt lat="42.6278907608406" lon="13.292439611413535"><ele>949.0000000000001</ele><time>2026-04-19T11:34:10.007Z</time></trkpt><trkpt lat="42.62796058078946" lon="13.292451697069191"><ele>949.0000000000001</ele><time>2026-04-19T11:34:34.008Z</time></trkpt><trkpt lat="42.627900421440636" lon="13.2924040070184"><ele>949.0</ele><time>2026-04-19T11:35:13.01Z</time></trkpt><trkpt lat="42.62782572913454" lon="13.292431310311768"><ele>949.0000000000001</ele><time>2026-04-19T11:36:37.008Z</time></trkpt><trkpt lat="42.62776033876165" lon="13.292449980162006"><ele>949.0000000000001</ele><time>2026-04-19T11:37:24.008Z</time></trkpt><trkpt lat="42.62779862721692" lon="13.292527149873738"><ele>949.0</ele><time>2026-04-19T11:38:03.007Z</time></trkpt><trkpt lat="42.62812106186425" lon="13.292697155140981"><ele>949.0</ele><time>2026-04-19T11:38:06.009Z</time></trkpt><trkpt lat="42.62793775765982" lon="13.29259991083533"><ele>948.9999999999999</ele><time>2026-04-19T11:38:09.007Z</time></trkpt><trkpt lat="42.62795392376287" lon="13.292459225018664"><ele>949.0</ele><time>2026-04-19T11:38:36.009Z</time></trkpt><trkpt lat="42.62789524021575" lon="13.292423056143392"><ele>949.0</ele><time>2026-04-19T11:39:34.01Z</time></trkpt><trkpt lat="42.62784098478322" lon="13.29237748937001"><ele>949.0</ele><time>2026-04-19T11:40:10.006Z</time></trkpt><trkpt lat="42.62778806487122" lon="13.292276316853577"><ele>948.9999999999999</ele><time>2026-04-19T11:40:19.007Z</time></trkpt><trkpt lat="42.62774694395273" lon="13.292208930362335"><ele>949.0</ele><time>2026-04-19T11:40:45.008Z</time></trkpt><trkpt lat="42.6276905748214" lon="13.292157879877962"><ele>948.9999999999999</ele><time>2026-04-19T11:41:00.008Z</time></trkpt><trkpt lat="42.62773692435849" lon="13.292234415073423"><ele>949.0</ele><time>2026-04-19T11:41:11.01Z</time></trkpt><trkpt lat="42.627795640470445" lon="13.292306608752556"><ele>949.0</ele><time>2026-04-19T11:41:29.008Z</time></trkpt><trkpt lat="42.62789644390132" lon="13.29239752434172"><ele>949.0</ele><time>2026-04-19T11:41:55.997Z</time></trkpt><trkpt lat="42.627948673436556" lon="13.292477535478975"><ele>948.9999999999999</ele><time>2026-04-19T11:42:00.998Z</time></trkpt><trkpt lat="42.62791623231434" lon="13.292390477548498"><ele>949.0</ele><time>2026-04-19T11:42:22.999Z</time></trkpt><trkpt lat="42.627902293190346" lon="13.292305578860145"><ele>948.9999999999999</ele><time>2026-04-19T11:42:24.999Z</time></trkpt><trkpt lat="42.62791189568185" lon="13.292195968888613"><ele>949.0</ele><time>2026-04-19T11:42:29Z</time></trkpt><trkpt lat="42.62796804429489" lon="13.29232370692209"><ele>949.0</ele><time>2026-04-19T11:42:39Z</time></trkpt><trkpt lat="42.62797034239753" lon="13.2924193463088"><ele>949.0</ele><time>2026-04-19T11:42:43Z</time></trkpt><trkpt lat="42.627994812673016" lon="13.292504045953157"><ele>948.9999999999999</ele><time>2026-04-19T11:42:46Z</time></trkpt><trkpt lat="42.628018126388355" lon="13.29260058662605"><ele>949.0</ele><time>2026-04-19T11:42:51Z</time></trkpt><trkpt lat="42.62804138447751" lon="13.2926851290224"><ele>949.0000000000001</ele><time>2026-04-19T11:43:20Z</time></trkpt><trkpt lat="42.62809619880775" lon="13.292754512342144"><ele>949.0</ele><time>2026-04-19T11:43:24Z</time></trkpt><trkpt lat="42.62807435581908" lon="13.292629488061445"><ele>949.0000000000001</ele><time>2026-04-19T11:43:34Z</time></trkpt><trkpt lat="42.628041203923644" lon="13.292553424495878"><ele>949.0000000000001</ele><time>2026-04-19T11:43:38Z</time></trkpt><trkpt lat="42.627995877170875" lon="13.292618448845628"><ele>949.0</ele><time>2026-04-19T11:44:05Z</time></trkpt><trkpt lat="42.62799742359519" lon="13.292527329632309"><ele>949.0000000000001</ele><time>2026-04-19T11:46:23.001Z</time></trkpt><trkpt lat="42.6279349797393" lon="13.29250246861171"><ele>949.0000000000001</ele><time>2026-04-19T11:47:37.001Z</time></trkpt><trkpt lat="42.62798788913869" lon="13.292568560107332"><ele>948.9999999999999</ele><time>2026-04-19T11:47:44.001Z</time></trkpt><trkpt lat="42.62796084486492" lon="13.29264716762184"><ele>949.0</ele><time>2026-04-19T11:51:55Z</time></trkpt><trkpt lat="42.62792784996353" lon="13.292570343578364"><ele>949.0</ele><time>2026-04-19T11:57:50.999Z</time></trkpt><trkpt lat="42.62786079397382" lon="13.292518971388438"><ele>949.0</ele><time>2026-04-19T12:00:55.999Z</time></trkpt><trkpt lat="42.62778924647803" lon="13.29248758932376"><ele>948.9999999999999</ele><time>2026-04-19T12:01:00.065Z</time></trkpt><trkpt lat="42.627777207034164" lon="13.292671560128147"><ele>949.0</ele><time>2026-04-19T12:01:06.035Z</time></trkpt><trkpt lat="42.62773051630573" lon="13.29259229425901"><ele>949.0</ele><time>2026-04-19T12:01:08.035Z</time></trkpt><trkpt lat="42.627912103072205" lon="13.292384020254167"><ele>949.0</ele><time>2026-04-19T12:02:37Z</time></trkpt><trkpt lat="42.627889018205956" lon="13.292578180585775"><ele>949.0</ele><time>2026-04-19T12:02:44.999Z</time></trkpt><trkpt lat="42.627941166227785" lon="13.29265356335892"><ele>948.9999999999999</ele><time>2026-04-19T12:06:51Z</time></trkpt><trkpt lat="42.627885064658145" lon="13.292698571199546"><ele>949.0</ele><time>2026-04-19T12:11:34.001Z</time></trkpt><trkpt lat="42.6278213406766" lon="13.292730796820392"><ele>949.0</ele><time>2026-04-19T12:11:46.001Z</time></trkpt><trkpt lat="42.62790277124494" lon="13.29271488763569"><ele>949.0</ele><time>2026-04-19T12:13:45.001Z</time></trkpt><trkpt lat="42.62794568493168" lon="13.292565871460155"><ele>948.9999999999999</ele><time>2026-04-19T12:13:47.001Z</time></trkpt><trkpt lat="42.627990132491895" lon="13.292487393180682"><ele>949.0</ele><time>2026-04-19T12:13:48.001Z</time></trkpt><trkpt lat="42.62802662568536" lon="13.292405919824436"><ele>948.9999999999999</ele><time>2026-04-19T12:13:49.001Z</time></trkpt><trkpt lat="42.62806784919106" lon="13.292313851977328"><ele>949.0</ele><time>2026-04-19T12:13:50.001Z</time></trkpt><trkpt lat="42.628097288313725" lon="13.292212394085736"><ele>949.0</ele><time>2026-04-19T12:13:51.001Z</time></trkpt><trkpt lat="42.62812780729714" lon="13.29212008200661"><ele>949.0</ele><time>2026-04-19T12:13:52.001Z</time></trkpt><trkpt lat="42.62816162031742" lon="13.292030480972803"><ele>948.9999999999999</ele><time>2026-04-19T12:13:53.001Z</time></trkpt><trkpt lat="42.62822665480026" lon="13.291962513797273"><ele>949.0</ele><time>2026-04-19T12:13:54.001Z</time></trkpt><trkpt lat="42.628259963647906" lon="13.291872354927099"><ele>949.4999999999999</ele><time>2026-04-19T12:13:55.001Z</time></trkpt><trkpt lat="42.628296184572186" lon="13.291776698553376"><ele>950.0</ele><time>2026-04-19T12:13:56.001Z</time></trkpt><trkpt lat="42.628329309462295" lon="13.291689926750667"><ele>950.5</ele><time>2026-04-19T12:13:57.001Z</time></trkpt><trkpt lat="42.62836094396868" lon="13.291607059058796"><ele>951.0</ele><time>2026-04-19T12:13:58.001Z</time></trkpt><trkpt lat="42.62841555196316" lon="13.291458527828304"><ele>951.4999999999999</ele><time>2026-04-19T12:14:00.001Z</time></trkpt><trkpt lat="42.62844670566111" lon="13.2913716169375"><ele>952.0</ele><time>2026-04-19T12:14:01.001Z</time></trkpt><trkpt lat="42.62847808626824" lon="13.29128425703207"><ele>951.9999999999999</ele><time>2026-04-19T12:14:02.001Z</time></trkpt><trkpt lat="42.62852588140013" lon="13.291226716935617"><ele>952.0</ele><time>2026-04-19T12:14:03.001Z</time></trkpt><trkpt lat="42.62859275688351" lon="13.291205124073127"><ele>952.0</ele><time>2026-04-19T12:14:04.001Z</time></trkpt><trkpt lat="42.62862766700772" lon="13.291123692614905"><ele>952.0</ele><time>2026-04-19T12:14:06.001Z</time></trkpt><trkpt lat="42.62873277191262" lon="13.29114096930869"><ele>951.9999999999999</ele><time>2026-04-19T12:14:07.001Z</time></trkpt><trkpt lat="42.628853428184996" lon="13.29106294904837"><ele>952.0</ele><time>2026-04-19T12:14:09.001Z</time></trkpt><trkpt lat="42.628929044468556" lon="13.291047819924957"><ele>951.6666666666666</ele><time>2026-04-19T12:14:10.001Z</time></trkpt><trkpt lat="42.62899384435444" lon="13.291014825482712"><ele>951.3333333333333</ele><time>2026-04-19T12:14:11.002Z</time></trkpt><trkpt lat="42.62905522780191" lon="13.290971168146152"><ele>951.0</ele><time>2026-04-19T12:14:12.002Z</time></trkpt><trkpt lat="42.629147668924574" lon="13.290888455694244"><ele>950.6666666666667</ele><time>2026-04-19T12:14:14.002Z</time></trkpt><trkpt lat="42.62922521959516" lon="13.290820815183626"><ele>950.3333333333334</ele><time>2026-04-19T12:14:15.999Z</time></trkpt><trkpt lat="42.629314534935354" lon="13.290746598011012"><ele>950.0</ele><time>2026-04-19T12:14:17.999Z</time></trkpt><trkpt lat="42.62940373323987" lon="13.290611851093715"><ele>950.3333333333334</ele><time>2026-04-19T12:14:19.999Z</time></trkpt><trkpt lat="42.62944876131199" lon="13.290540295719024"><ele>950.6666666666667</ele><time>2026-04-19T12:14:20.999Z</time></trkpt><trkpt lat="42.629484346563" lon="13.29045834406047"><ele>951.0</ele><time>2026-04-19T12:14:21.999Z</time></trkpt><trkpt lat="42.629513347040515" lon="13.290381174829067"><ele>951.3333333333333</ele><time>2026-04-19T12:14:22.999Z</time></trkpt><trkpt lat="42.62956552716434" lon="13.29022355851784"><ele>951.6666666666666</ele><time>2026-04-19T12:14:24.999Z</time></trkpt><trkpt lat="42.629589614894414" lon="13.290138311501753"><ele>952.0</ele><time>2026-04-19T12:14:25.999Z</time></trkpt><trkpt lat="42.629615281480504" lon="13.290047417544137"><ele>950.1428571428571</ele><time>2026-04-19T12:14:26.999Z</time></trkpt><trkpt lat="42.629639650860724" lon="13.28996111744592"><ele>948.2857142857142</ele><time>2026-04-19T12:14:27.999Z</time></trkpt><trkpt lat="42.62966486524704" lon="13.28987182492477"><ele>946.4285714285714</ele><time>2026-04-19T12:14:28.999Z</time></trkpt><trkpt lat="42.62969169206423" lon="13.289776822216641"><ele>944.5714285714286</ele><time>2026-04-19T12:14:29.999Z</time></trkpt><trkpt lat="42.6297162635886" lon="13.289689806253838"><ele>942.7142857142857</ele><time>2026-04-19T12:14:30.999Z</time></trkpt><trkpt lat="42.629727390053205" lon="13.289588994392004"><ele>940.8571428571429</ele><time>2026-04-19T12:14:31.999Z</time></trkpt><trkpt lat="42.629753287647354" lon="13.289497916040483"><ele>939.0</ele><time>2026-04-19T12:14:32.999Z</time></trkpt><trkpt lat="42.6297814151101" lon="13.289410998652135"><ele>939.0</ele><time>2026-04-19T12:14:33.999Z</time></trkpt><trkpt lat="42.629810554183585" lon="13.289317010272937"><ele>939.0</ele><time>2026-04-19T12:14:34.999Z</time></trkpt><trkpt lat="42.62983669321391" lon="13.289223260760059"><ele>939.0</ele><time>2026-04-19T12:14:35.999Z</time></trkpt><trkpt lat="42.62988238201867" lon="13.289133072600949"><ele>939.0</ele><time>2026-04-19T12:14:36.999Z</time></trkpt><trkpt lat="42.62991435954772" lon="13.289035532477516"><ele>939.0</ele><time>2026-04-19T12:14:37.999Z</time></trkpt><trkpt lat="42.62994358739916" lon="13.288946379615542"><ele>939.0</ele><time>2026-04-19T12:14:38.999Z</time></trkpt><trkpt lat="42.62998862869409" lon="13.28880470023627"><ele>939.8000000000001</ele><time>2026-04-19T12:14:40.999Z</time></trkpt><trkpt lat="42.63000072945304" lon="13.288622250527652"><ele>940.6000000000001</ele><time>2026-04-19T12:14:43Z</time></trkpt><trkpt lat="42.629963469458914" lon="13.28851718233557"><ele>941.4</ele><time>2026-04-19T12:14:44Z</time></trkpt><trkpt lat="42.629919362544406" lon="13.288447302776586"><ele>942.2</ele><time>2026-04-19T12:14:45Z</time></trkpt><trkpt lat="42.62998510715691" lon="13.288371824269758"><ele>943.0</ele><time>2026-04-19T12:14:46Z</time></trkpt><trkpt lat="42.6300221400635" lon="13.288243351912552"><ele>943.0</ele><time>2026-04-19T12:14:47Z</time></trkpt><trkpt lat="42.63006320443197" lon="13.288100893867203"><ele>943.0</ele><time>2026-04-19T12:14:48Z</time></trkpt><trkpt lat="42.63010703326209" lon="13.287948845535853"><ele>943.0</ele><time>2026-04-19T12:14:49Z</time></trkpt><trkpt lat="42.63014586767816" lon="13.287814123508484"><ele>943.0</ele><time>2026-04-19T12:14:50Z</time></trkpt><trkpt lat="42.63017949158403" lon="13.2876974774646"><ele>943.0</ele><time>2026-04-19T12:14:51Z</time></trkpt><trkpt lat="42.63021455350693" lon="13.287575842741237"><ele>942.6666666666666</ele><time>2026-04-19T12:14:52Z</time></trkpt><trkpt lat="42.630246073492" lon="13.28746649540852"><ele>942.3333333333333</ele><time>2026-04-19T12:14:53Z</time></trkpt><trkpt lat="42.63027228911007" lon="13.28736004772782"><ele>942.0</ele><time>2026-04-19T12:14:54Z</time></trkpt><trkpt lat="42.630297787280504" lon="13.287261152736466"><ele>941.6666666666667</ele><time>2026-04-19T12:14:55Z</time></trkpt><trkpt lat="42.63032406112401" lon="13.28715924926625"><ele>941.3333333333334</ele><time>2026-04-19T12:14:56Z</time></trkpt><trkpt lat="42.63034991141261" lon="13.287058988422718"><ele>941.0</ele><time>2026-04-19T12:14:57Z</time></trkpt><trkpt lat="42.6303755331826" lon="13.286943268771196"><ele>938.8333333333334</ele><time>2026-04-19T12:14:58Z</time></trkpt><trkpt lat="42.630373551404844" lon="13.286823068954046"><ele>936.6666666666667</ele><time>2026-04-19T12:14:59Z</time></trkpt><trkpt lat="42.63034929877264" lon="13.286711438803426"><ele>934.5</ele><time>2026-04-19T12:15:00Z</time></trkpt><trkpt lat="42.6303032570556" lon="13.286616819469126"><ele>932.3333333333333</ele><time>2026-04-19T12:15:01Z</time></trkpt><trkpt lat="42.63021123980115" lon="13.28657002888359"><ele>930.1666666666666</ele><time>2026-04-19T12:15:02Z</time></trkpt><trkpt lat="42.630138428255336" lon="13.28653155554596"><ele>928.0</ele><time>2026-04-19T12:15:03Z</time></trkpt><trkpt lat="42.63006103103059" lon="13.286491373215414"><ele>927.9999999999999</ele><time>2026-04-19T12:15:04Z</time></trkpt><trkpt lat="42.629977897573625" lon="13.286451568877608"><ele>928.0</ele><time>2026-04-19T12:15:05Z</time></trkpt><trkpt lat="42.62989493109003" lon="13.286411844472557"><ele>928.0</ele><time>2026-04-19T12:15:06Z</time></trkpt><trkpt lat="42.62980606265239" lon="13.286392455995378"><ele>928.0</ele><time>2026-04-19T12:15:07Z</time></trkpt><trkpt lat="42.62971554620612" lon="13.286410418905692"><ele>927.9999999999999</ele><time>2026-04-19T12:15:08Z</time></trkpt><trkpt lat="42.62962820570998" lon="13.286419354537555"><ele>928.0</ele><time>2026-04-19T12:15:09Z</time></trkpt><trkpt lat="42.629534943557" lon="13.28644043054433"><ele>927.5999999999999</ele><time>2026-04-19T12:15:10Z</time></trkpt><trkpt lat="42.62944474334133" lon="13.286470206538178"><ele>927.1999999999999</ele><time>2026-04-19T12:15:11Z</time></trkpt><trkpt lat="42.62935055128968" lon="13.286506095321378"><ele>926.8</ele><time>2026-04-19T12:15:12Z</time></trkpt><trkpt lat="42.62925023737688" lon="13.286542621881745"><ele>926.4</ele><time>2026-04-19T12:15:13Z</time></trkpt><trkpt lat="42.629122662891234" lon="13.286553338273212"><ele>926.0</ele><time>2026-04-19T12:15:14Z</time></trkpt><trkpt lat="42.62897548973693" lon="13.28657150441947"><ele>926.0</ele><time>2026-04-19T12:15:15Z</time></trkpt><trkpt lat="42.628835729640144" lon="13.28657713001196"><ele>926.0</ele><time>2026-04-19T12:15:16Z</time></trkpt><trkpt lat="42.628711077954186" lon="13.286601931740249"><ele>926.0</ele><time>2026-04-19T12:15:17Z</time></trkpt><trkpt lat="42.62859233673911" lon="13.286610534083552"><ele>926.0</ele><time>2026-04-19T12:15:18Z</time></trkpt><trkpt lat="42.628477822863466" lon="13.28662148045155"><ele>924.8</ele><time>2026-04-19T12:15:19Z</time></trkpt><trkpt lat="42.62836724169903" lon="13.286639128718948"><ele>923.5999999999999</ele><time>2026-04-19T12:15:20Z</time></trkpt><trkpt lat="42.62825695269365" lon="13.28664043306414"><ele>922.4</ele><time>2026-04-19T12:15:21Z</time></trkpt><trkpt lat="42.62816205244649" lon="13.286702379630325"><ele>921.2</ele><time>2026-04-19T12:15:22Z</time></trkpt><trkpt lat="42.62806774903297" lon="13.286745937707403"><ele>920.0</ele><time>2026-04-19T12:15:23Z</time></trkpt><trkpt lat="42.627983151926706" lon="13.28679035398434"><ele>920.0000000000001</ele><time>2026-04-19T12:15:24Z</time></trkpt><trkpt lat="42.62790865571909" lon="13.286825809382304"><ele>920.0</ele><time>2026-04-19T12:15:25Z</time></trkpt><trkpt lat="42.62784385186873" lon="13.286865208170541"><ele>920.0</ele><time>2026-04-19T12:15:26Z</time></trkpt><trkpt lat="42.627772473105146" lon="13.28686862703059"><ele>920.0</ele><time>2026-04-19T12:15:27Z</time></trkpt><trkpt lat="42.627705752721255" lon="13.28687902708517"><ele>920.0000000000001</ele><time>2026-04-19T12:15:28Z</time></trkpt><trkpt lat="42.62759683608615" lon="13.28682100939323"><ele>920.0</ele><time>2026-04-19T12:15:30Z</time></trkpt><trkpt lat="42.6275484483621" lon="13.286760404373167"><ele>915.6</ele><time>2026-04-19T12:15:31Z</time></trkpt><trkpt lat="42.62750960236763" lon="13.286679728595237"><ele>911.2</ele><time>2026-04-19T12:15:32Z</time></trkpt><trkpt lat="42.627512547387" lon="13.286512231059648"><ele>906.8</ele><time>2026-04-19T12:15:34.001Z</time></trkpt><trkpt lat="42.62753611795751" lon="13.286424356701158"><ele>902.4</ele><time>2026-04-19T12:15:35.001Z</time></trkpt><trkpt lat="42.62760495824147" lon="13.286352768080135"><ele>898.0</ele><time>2026-04-19T12:15:36.001Z</time></trkpt><trkpt lat="42.62770603763209" lon="13.286324140140428"><ele>897.0</ele><time>2026-04-19T12:15:37.001Z</time></trkpt><trkpt lat="42.62781641114774" lon="13.286273011277371"><ele>896.0</ele><time>2026-04-19T12:15:38.001Z</time></trkpt><trkpt lat="42.62794732863769" lon="13.286215514191408"><ele>895.0</ele><time>2026-04-19T12:15:39.001Z</time></trkpt><trkpt lat="42.62809902013847" lon="13.28616646305401"><ele>894.0</ele><time>2026-04-19T12:15:40.001Z</time></trkpt><trkpt lat="42.628290590030815" lon="13.286156633428236"><ele>894.0</ele><time>2026-04-19T12:15:41.001Z</time></trkpt><trkpt lat="42.6284998565565" lon="13.286135249012492"><ele>894.0</ele><time>2026-04-19T12:15:42.001Z</time></trkpt><trkpt lat="42.628722475745825" lon="13.286076288887639"><ele>894.0</ele><time>2026-04-19T12:15:43.001Z</time></trkpt><trkpt lat="42.62894419057422" lon="13.285990454096174"><ele>894.6666666666667</ele><time>2026-04-19T12:15:44.001Z</time></trkpt><trkpt lat="42.62915041487071" lon="13.2859145600713"><ele>895.3333333333334</ele><time>2026-04-19T12:15:45.001Z</time></trkpt><trkpt lat="42.62934069084331" lon="13.285848764447767"><ele>896.0</ele><time>2026-04-19T12:15:46.001Z</time></trkpt><trkpt lat="42.62952588821896" lon="13.285781792161812"><ele>896.0</ele><time>2026-04-19T12:15:47.001Z</time></trkpt><trkpt lat="42.62970571360366" lon="13.285725932398746"><ele>896.0</ele><time>2026-04-19T12:15:48.001Z</time></trkpt><trkpt lat="42.62987552001505" lon="13.285678139325722"><ele>896.0</ele><time>2026-04-19T12:15:49.001Z</time></trkpt><trkpt lat="42.6300421135392" lon="13.285674860409694"><ele>896.0</ele><time>2026-04-19T12:15:50.001Z</time></trkpt><trkpt lat="42.63018654654642" lon="13.285703271899004"><ele>896.0</ele><time>2026-04-19T12:15:51.001Z</time></trkpt><trkpt lat="42.63030283773285" lon="13.285765544003253"><ele>896.0</ele><time>2026-04-19T12:15:52.001Z</time></trkpt><trkpt lat="42.630386140820455" lon="13.285861028457882"><ele>896.0</ele><time>2026-04-19T12:15:53.001Z</time></trkpt><trkpt lat="42.63044957868661" lon="13.285997237082361"><ele>898.75</ele><time>2026-04-19T12:15:54.001Z</time></trkpt><trkpt lat="42.630527380790284" lon="13.286170167980654"><ele>901.5</ele><time>2026-04-19T12:15:55.001Z</time></trkpt><trkpt lat="42.63062775264441" lon="13.28631216510952"><ele>904.25</ele><time>2026-04-19T12:15:56.001Z</time></trkpt><trkpt lat="42.630755102863006" lon="13.286403401843176"><ele>907.0</ele><time>2026-04-19T12:15:57.001Z</time></trkpt><trkpt lat="42.63088428374454" lon="13.286472853804936"><ele>907.0</ele><time>2026-04-19T12:15:58.001Z</time></trkpt><trkpt lat="42.63100469055598" lon="13.286535921992783"><ele>907.0</ele><time>2026-04-19T12:15:59.001Z</time></trkpt><trkpt lat="42.63111404061135" lon="13.286602289292487"><ele>907.0</ele><time>2026-04-19T12:16:00.001Z</time></trkpt><trkpt lat="42.63121864000826" lon="13.286669759723797"><ele>907.0</ele><time>2026-04-19T12:16:01.001Z</time></trkpt><trkpt lat="42.631321131371614" lon="13.286733122023104"><ele>901.6</ele><time>2026-04-19T12:16:02.001Z</time></trkpt><trkpt lat="42.6314202310681" lon="13.286796270257618"><ele>896.2</ele><time>2026-04-19T12:16:03.001Z</time></trkpt><trkpt lat="42.63151718069512" lon="13.286846655221801"><ele>890.8</ele><time>2026-04-19T12:16:04.001Z</time></trkpt><trkpt lat="42.631612501072404" lon="13.286876916893842"><ele>885.4</ele><time>2026-04-19T12:16:05.001Z</time></trkpt><trkpt lat="42.63170465037622" lon="13.286873237264825"><ele>880.0</ele><time>2026-04-19T12:16:06.001Z</time></trkpt><trkpt lat="42.63179300206139" lon="13.286835746025782"><ele>880.0</ele><time>2026-04-19T12:16:07.001Z</time></trkpt><trkpt lat="42.6318826312933" lon="13.28678878086741"><ele>880.0</ele><time>2026-04-19T12:16:08.001Z</time></trkpt><trkpt lat="42.63199020756363" lon="13.286738692325613"><ele>880.0</ele><time>2026-04-19T12:16:09.001Z</time></trkpt><trkpt lat="42.63209824519516" lon="13.286684629274552"><ele>880.0</ele><time>2026-04-19T12:16:10.001Z</time></trkpt><trkpt lat="42.63219760044388" lon="13.286627037398848"><ele>880.0</ele><time>2026-04-19T12:16:11.001Z</time></trkpt><trkpt lat="42.6322958928669" lon="13.286565803727914"><ele>879.5</ele><time>2026-04-19T12:16:12.001Z</time></trkpt><trkpt lat="42.63239972390415" lon="13.286477826619159"><ele>879.0</ele><time>2026-04-19T12:16:13.001Z</time></trkpt><trkpt lat="42.632501752439005" lon="13.286359425061946"><ele>878.5</ele><time>2026-04-19T12:16:14.001Z</time></trkpt><trkpt lat="42.63259614957256" lon="13.286218113140846"><ele>878.0</ele><time>2026-04-19T12:16:15.001Z</time></trkpt><trkpt lat="42.63267494968374" lon="13.286081625976149"><ele>876.25</ele><time>2026-04-19T12:16:16.001Z</time></trkpt><trkpt lat="42.63274400646527" lon="13.285926343772152"><ele>874.5</ele><time>2026-04-19T12:16:17.001Z</time></trkpt><trkpt lat="42.63280384585138" lon="13.285747087521386"><ele>872.75</ele><time>2026-04-19T12:16:18.001Z</time></trkpt><trkpt lat="42.63284718354485" lon="13.28556547482564"><ele>871.0</ele><time>2026-04-19T12:16:19.001Z</time></trkpt><trkpt lat="42.63287297434034" lon="13.285393293933723"><ele>871.0</ele><time>2026-04-19T12:16:20.001Z</time></trkpt><trkpt lat="42.6329156580498" lon="13.285231119850963"><ele>871.0</ele><time>2026-04-19T12:16:21Z</time></trkpt><trkpt lat="42.63292380561429" lon="13.285064164332473"><ele>871.0</ele><time>2026-04-19T12:16:22Z</time></trkpt><trkpt lat="42.632929278069135" lon="13.284904554529776"><ele>871.0</ele><time>2026-04-19T12:16:23Z</time></trkpt><trkpt lat="42.63293292622036" lon="13.28475448862803"><ele>871.1999999999999</ele><time>2026-04-19T12:16:24Z</time></trkpt><trkpt lat="42.63293840043014" lon="13.284605208833458"><ele>871.3999999999999</ele><time>2026-04-19T12:16:25Z</time></trkpt><trkpt lat="42.63294370492687" lon="13.284466000919904"><ele>871.6</ele><time>2026-04-19T12:16:26Z</time></trkpt><trkpt lat="42.632949492183215" lon="13.284320910369434"><ele>871.8</ele><time>2026-04-19T12:16:27Z</time></trkpt><trkpt lat="42.632954251655136" lon="13.284180768646845"><ele>872.0</ele><time>2026-04-19T12:16:28Z</time></trkpt><trkpt lat="42.63295963857319" lon="13.28400976155899"><ele>868.75</ele><time>2026-04-19T12:16:29Z</time></trkpt><trkpt lat="42.63297009960584" lon="13.283825681176623"><ele>865.5</ele><time>2026-04-19T12:16:30Z</time></trkpt><trkpt lat="42.632968248099885" lon="13.283640300335438"><ele>862.25</ele><time>2026-04-19T12:16:31Z</time></trkpt><trkpt lat="42.63302326161081" lon="13.283478660458826"><ele>859.0</ele><time>2026-04-19T12:16:32Z</time></trkpt><trkpt lat="42.6331007355196" lon="13.283339881410237"><ele>859.0</ele><time>2026-04-19T12:16:33Z</time></trkpt><trkpt lat="42.63320608013286" lon="13.283238782061657"><ele>859.0</ele><time>2026-04-19T12:16:34Z</time></trkpt><trkpt lat="42.63332899861982" lon="13.283148999014983"><ele>859.0</ele><time>2026-04-19T12:16:35Z</time></trkpt><trkpt lat="42.63346038485706" lon="13.283082935675445"><ele>859.0</ele><time>2026-04-19T12:16:36Z</time></trkpt><trkpt lat="42.63359344314563" lon="13.283026664446258"><ele>858.25</ele><time>2026-04-19T12:16:37Z</time></trkpt><trkpt lat="42.633724583859035" lon="13.282962606381597"><ele>857.5</ele><time>2026-04-19T12:16:38Z</time></trkpt><trkpt lat="42.63385835674724" lon="13.282894484976856"><ele>856.75</ele><time>2026-04-19T12:16:39Z</time></trkpt><trkpt lat="42.63399147101188" lon="13.28282145074214"><ele>856.0</ele><time>2026-04-19T12:16:40Z</time></trkpt><trkpt lat="42.63412379611728" lon="13.282750567389497"><ele>856.0</ele><time>2026-04-19T12:16:41Z</time></trkpt><trkpt lat="42.634257407015006" lon="13.282671228575419"><ele>856.0</ele><time>2026-04-19T12:16:42Z</time></trkpt><trkpt lat="42.634385997451474" lon="13.282577335914183"><ele>856.0</ele><time>2026-04-19T12:16:43Z</time></trkpt><trkpt lat="42.63449931844818" lon="13.28245750377956"><ele>856.0</ele><time>2026-04-19T12:16:44Z</time></trkpt><trkpt lat="42.63460350126018" lon="13.282314622359072"><ele>854.75</ele><time>2026-04-19T12:16:45Z</time></trkpt><trkpt lat="42.63469819528821" lon="13.282165304266954"><ele>853.5</ele><time>2026-04-19T12:16:46Z</time></trkpt><trkpt lat="42.634784151828434" lon="13.28200033079351"><ele>852.25</ele><time>2026-04-19T12:16:47Z</time></trkpt><trkpt lat="42.63485462729681" lon="13.281821608183469"><ele>851.0</ele><time>2026-04-19T12:16:48Z</time></trkpt><trkpt lat="42.634921750956565" lon="13.281645661059052"><ele>851.0</ele><time>2026-04-19T12:16:49Z</time></trkpt><trkpt lat="42.63500237450281" lon="13.281482554521215"><ele>851.0</ele><time>2026-04-19T12:16:50Z</time></trkpt><trkpt lat="42.63510101910091" lon="13.28133067889367"><ele>851.0</ele><time>2026-04-19T12:16:51Z</time></trkpt><trkpt lat="42.63522178595955" lon="13.281203003944706"><ele>851.0</ele><time>2026-04-19T12:16:52Z</time></trkpt><trkpt lat="42.63535914881198" lon="13.281070352737784"><ele>849.0</ele><time>2026-04-19T12:16:53Z</time></trkpt><trkpt lat="42.63550791043619" lon="13.280932916320253"><ele>847.0</ele><time>2026-04-19T12:16:54Z</time></trkpt><trkpt lat="42.635652358575854" lon="13.28079812994765"><ele>845.0</ele><time>2026-04-19T12:16:55Z</time></trkpt><trkpt lat="42.6358017834989" lon="13.280664113809697"><ele>847.6666666666667</ele><time>2026-04-19T12:16:56Z</time></trkpt><trkpt lat="42.63595371278339" lon="13.280527901022387"><ele>850.3333333333333</ele><time>2026-04-19T12:16:57Z</time></trkpt><trkpt lat="42.636112712726266" lon="13.28038914065133"><ele>853.0</ele><time>2026-04-19T12:16:58Z</time></trkpt><trkpt lat="42.63628318870804" lon="13.280245667762104"><ele>853.0</ele><time>2026-04-19T12:16:59Z</time></trkpt><trkpt lat="42.636479324507214" lon="13.280108257094751"><ele>853.0</ele><time>2026-04-19T12:17:00Z</time></trkpt><trkpt lat="42.63669856474211" lon="13.280002890813632"><ele>853.0</ele><time>2026-04-19T12:17:01Z</time></trkpt><trkpt lat="42.6369289429253" lon="13.279931959179304"><ele>853.0</ele><time>2026-04-19T12:17:02Z</time></trkpt><trkpt lat="42.63715452099446" lon="13.27989340661569"><ele>853.0</ele><time>2026-04-19T12:17:03Z</time></trkpt><trkpt lat="42.637377039077535" lon="13.279867145448437"><ele>853.0</ele><time>2026-04-19T12:17:04Z</time></trkpt><trkpt lat="42.63758760618623" lon="13.279852707097126"><ele>853.0</ele><time>2026-04-19T12:17:05Z</time></trkpt><trkpt lat="42.63778092764576" lon="13.279830445693154"><ele>852.3333333333333</ele><time>2026-04-19T12:17:06Z</time></trkpt><trkpt lat="42.6379624060132" lon="13.279808555716336"><ele>851.6666666666667</ele><time>2026-04-19T12:17:07Z</time></trkpt><trkpt lat="42.638138163484214" lon="13.279802238749275"><ele>851.0</ele><time>2026-04-19T12:17:08Z</time></trkpt><trkpt lat="42.63830036674739" lon="13.279818736447591"><ele>851.0</ele><time>2026-04-19T12:17:09Z</time></trkpt><trkpt lat="42.638454788592284" lon="13.279855619564561"><ele>851.0</ele><time>2026-04-19T12:17:10Z</time></trkpt><trkpt lat="42.638590035264286" lon="13.279899846484613"><ele>851.0</ele><time>2026-04-19T12:17:11Z</time></trkpt><trkpt lat="42.63872262244772" lon="13.279949289093018"><ele>851.0</ele><time>2026-04-19T12:17:12Z</time></trkpt><trkpt lat="42.638847274890054" lon="13.279979202446185"><ele>850.25</ele><time>2026-04-19T12:17:13Z</time></trkpt><trkpt lat="42.63897886108742" lon="13.279970183843911"><ele>849.5</ele><time>2026-04-19T12:17:14Z</time></trkpt><trkpt lat="42.63911497941537" lon="13.279914697562011"><ele>848.75</ele><time>2026-04-19T12:17:15Z</time></trkpt><trkpt lat="42.639255231002025" lon="13.279825005011702"><ele>848.0</ele><time>2026-04-19T12:17:16.001Z</time></trkpt><trkpt lat="42.63939819599231" lon="13.279720751851047"><ele>850.3333333333334</ele><time>2026-04-19T12:17:17.001Z</time></trkpt><trkpt lat="42.63954411726688" lon="13.27961851147626"><ele>852.6666666666667</ele><time>2026-04-19T12:17:18.001Z</time></trkpt><trkpt lat="42.63969130775039" lon="13.27951239168717"><ele>855.0</ele><time>2026-04-19T12:17:19.001Z</time></trkpt><trkpt lat="42.63984544908206" lon="13.279419883387968"><ele>855.0</ele><time>2026-04-19T12:17:20.001Z</time></trkpt><trkpt lat="42.640011936570815" lon="13.279332701273276"><ele>855.0</ele><time>2026-04-19T12:17:21.001Z</time></trkpt><trkpt lat="42.64017883554002" lon="13.279253588817452"><ele>855.0</ele><time>2026-04-19T12:17:22.001Z</time></trkpt><trkpt lat="42.640341000097436" lon="13.279170737688805"><ele>859.3333333333333</ele><time>2026-04-19T12:17:23.001Z</time></trkpt><trkpt lat="42.6404954971348" lon="13.279080875839924"><ele>863.6666666666666</ele><time>2026-04-19T12:17:24.001Z</time></trkpt><trkpt lat="42.640636112823586" lon="13.278993436777599"><ele>868.0</ele><time>2026-04-19T12:17:25.001Z</time></trkpt><trkpt lat="42.64076903212407" lon="13.278895375060086"><ele>868.0</ele><time>2026-04-19T12:17:26.001Z</time></trkpt><trkpt lat="42.64089566926514" lon="13.278803396573128"><ele>868.0</ele><time>2026-04-19T12:17:27.001Z</time></trkpt><trkpt lat="42.64102809770734" lon="13.278717744844721"><ele>868.0</ele><time>2026-04-19T12:17:28.001Z</time></trkpt><trkpt lat="42.64116057967351" lon="13.278632417560432"><ele>868.0</ele><time>2026-04-19T12:17:29.001Z</time></trkpt><trkpt lat="42.641297708188105" lon="13.278540569528678"><ele>860.3333333333333</ele><time>2026-04-19T12:17:30.001Z</time></trkpt><trkpt lat="42.64143493329095" lon="13.27844766330842"><ele>852.6666666666667</ele><time>2026-04-19T12:17:31.001Z</time></trkpt><trkpt lat="42.64156723673096" lon="13.278343287377318"><ele>845.0</ele><time>2026-04-19T12:17:32.001Z</time></trkpt><trkpt lat="42.64169422459321" lon="13.278219675671936"><ele>846.0</ele><time>2026-04-19T12:17:33.001Z</time></trkpt><trkpt lat="42.64181953992693" lon="13.278070769405216"><ele>847.0</ele><time>2026-04-19T12:17:34.001Z</time></trkpt><trkpt lat="42.64193561461553" lon="13.277934596276806"><ele>848.0</ele><time>2026-04-19T12:17:35.001Z</time></trkpt><trkpt lat="42.64205260535864" lon="13.27782214191232"><ele>848.0</ele><time>2026-04-19T12:17:36.001Z</time></trkpt><trkpt lat="42.642178459415135" lon="13.27774149257317"><ele>848.0</ele><time>2026-04-19T12:17:37.001Z</time></trkpt><trkpt lat="42.64232145405789" lon="13.277694398822508"><ele>848.0</ele><time>2026-04-19T12:17:38.001Z</time></trkpt><trkpt lat="42.6424677583655" lon="13.277654319396913"><ele>848.0</ele><time>2026-04-19T12:17:39.001Z</time></trkpt><trkpt lat="42.64261235247172" lon="13.277605229936922"><ele>848.0</ele><time>2026-04-19T12:17:40.001Z</time></trkpt><trkpt lat="42.642745979144095" lon="13.277536827353675"><ele>848.0</ele><time>2026-04-19T12:17:41.001Z</time></trkpt><trkpt lat="42.64288272434797" lon="13.277442699124405"><ele>848.0</ele><time>2026-04-19T12:17:42.001Z</time></trkpt><trkpt lat="42.643006105589336" lon="13.2773238733003"><ele>848.0</ele><time>2026-04-19T12:17:43.001Z</time></trkpt><trkpt lat="42.64313837210048" lon="13.27720139213482"><ele>851.0</ele><time>2026-04-19T12:17:44.001Z</time></trkpt><trkpt lat="42.64327916837001" lon="13.277086958625759"><ele>854.0</ele><time>2026-04-19T12:17:45.001Z</time></trkpt><trkpt lat="42.64342038308018" lon="13.276974921072728"><ele>857.0</ele><time>2026-04-19T12:17:46.001Z</time></trkpt><trkpt lat="42.643563439755624" lon="13.27685578519863"><ele>850.0</ele><time>2026-04-19T12:17:47.001Z</time></trkpt><trkpt lat="42.64370701902227" lon="13.276753834953057"><ele>843.0</ele><time>2026-04-19T12:17:48.001Z</time></trkpt><trkpt lat="42.643862963489205" lon="13.276659636836275"><ele>836.0</ele><time>2026-04-19T12:17:49.001Z</time></trkpt><trkpt lat="42.6440329309417" lon="13.276573325568643"><ele>836.0</ele><time>2026-04-19T12:17:50.001Z</time></trkpt><trkpt lat="42.64421710384051" lon="13.276488072905824"><ele>836.0</ele><time>2026-04-19T12:17:51.001Z</time></trkpt><trkpt lat="42.64441010620386" lon="13.276403715653316"><ele>836.0</ele><time>2026-04-19T12:17:52.001Z</time></trkpt><trkpt lat="42.64459721828158" lon="13.27631960009367"><ele>841.0</ele><time>2026-04-19T12:17:53.001Z</time></trkpt><trkpt lat="42.64478385132589" lon="13.276240396880173"><ele>846.0</ele><time>2026-04-19T12:17:54.001Z</time></trkpt><trkpt lat="42.64516212186134" lon="13.276120504941868"><ele>842.6666666666667</ele><time>2026-04-19T12:17:56.001Z</time></trkpt><trkpt lat="42.64534719615097" lon="13.276067108744249"><ele>839.3333333333334</ele><time>2026-04-19T12:17:57.001Z</time></trkpt><trkpt lat="42.64552326576838" lon="13.27601435538331"><ele>836.0</ele><time>2026-04-19T12:17:58.001Z</time></trkpt><trkpt lat="42.64569510033601" lon="13.275962426187109"><ele>836.0</ele><time>2026-04-19T12:17:59.001Z</time></trkpt><trkpt lat="42.64586611932128" lon="13.275909006341537"><ele>836.0</ele><time>2026-04-19T12:18:00.001Z</time></trkpt><trkpt lat="42.646045782045064" lon="13.275848486225588"><ele>836.0</ele><time>2026-04-19T12:18:01.001Z</time></trkpt><trkpt lat="42.6462281621175" lon="13.27579203483249"><ele>833.0</ele><time>2026-04-19T12:18:02.001Z</time></trkpt><trkpt lat="42.64642372614671" lon="13.275751130568706"><ele>830.0</ele><time>2026-04-19T12:18:03.001Z</time></trkpt><trkpt lat="42.646618007588174" lon="13.27574239986448"><ele>827.0</ele><time>2026-04-19T12:18:04.001Z</time></trkpt><trkpt lat="42.64681197305144" lon="13.275724929382257"><ele>824.6666666666667</ele><time>2026-04-19T12:18:05.001Z</time></trkpt><trkpt lat="42.64701938729733" lon="13.275641604664107"><ele>822.3333333333333</ele><time>2026-04-19T12:18:06.001Z</time></trkpt><trkpt lat="42.64721917226986" lon="13.275505947487375"><ele>820.0</ele><time>2026-04-19T12:18:07.001Z</time></trkpt><trkpt lat="42.6473904678159" lon="13.275356196562493"><ele>825.3333333333333</ele><time>2026-04-19T12:18:08.001Z</time></trkpt><trkpt lat="42.64753774533461" lon="13.275207203971286"><ele>830.6666666666667</ele><time>2026-04-19T12:18:09.001Z</time></trkpt><trkpt lat="42.64767347495674" lon="13.275056085900086"><ele>836.0</ele><time>2026-04-19T12:18:10.001Z</time></trkpt><trkpt lat="42.64779054727416" lon="13.274905622886154"><ele>830.6666666666667</ele><time>2026-04-19T12:18:11.001Z</time></trkpt><trkpt lat="42.64789212251187" lon="13.27474914834293"><ele>825.3333333333333</ele><time>2026-04-19T12:18:12.001Z</time></trkpt><trkpt lat="42.647983624493385" lon="13.274586427020864"><ele>820.0</ele><time>2026-04-19T12:18:13.002Z</time></trkpt><trkpt lat="42.64807374145731" lon="13.274421255897382"><ele>820.0</ele><time>2026-04-19T12:18:14.002Z</time></trkpt><trkpt lat="42.64817345059024" lon="13.274257693526923"><ele>820.0</ele><time>2026-04-19T12:18:15.002Z</time></trkpt><trkpt lat="42.648273061262636" lon="13.274096914672299"><ele>820.0</ele><time>2026-04-19T12:18:16.002Z</time></trkpt><trkpt lat="42.64836661381546" lon="13.273932479068034"><ele>818.25</ele><time>2026-04-19T12:18:17.002Z</time></trkpt><trkpt lat="42.6484579901609" lon="13.273761282480528"><ele>816.5</ele><time>2026-04-19T12:18:18.002Z</time></trkpt><trkpt lat="42.64854694571181" lon="13.273603747926785"><ele>814.75</ele><time>2026-04-19T12:18:19.002Z</time></trkpt><trkpt lat="42.64863440489886" lon="13.27346435993049"><ele>813.0</ele><time>2026-04-19T12:18:20.002Z</time></trkpt><trkpt lat="42.64871178425119" lon="13.273350422232074"><ele>813.0</ele><time>2026-04-19T12:18:21.002Z</time></trkpt><trkpt lat="42.64877464474551" lon="13.273242069430557"><ele>813.0</ele><time>2026-04-19T12:18:22.002Z</time></trkpt><trkpt lat="42.648817460446224" lon="13.273118133539942"><ele>813.0</ele><time>2026-04-19T12:18:23.002Z</time></trkpt><trkpt lat="42.64883938605625" lon="13.272983952455549"><ele>813.0</ele><time>2026-04-19T12:18:24.002Z</time></trkpt><trkpt lat="42.648853776581184" lon="13.272865729003083"><ele>813.0</ele><time>2026-04-19T12:18:25.002Z</time></trkpt><trkpt lat="42.64886271428385" lon="13.272765122788755"><ele>813.1666666666666</ele><time>2026-04-19T12:18:26.002Z</time></trkpt><trkpt lat="42.64887579232362" lon="13.272662560301919"><ele>813.3333333333333</ele><time>2026-04-19T12:18:27.001Z</time></trkpt><trkpt lat="42.648873474616984" lon="13.272572145191269"><ele>813.5</ele><time>2026-04-19T12:18:28.001Z</time></trkpt><trkpt lat="42.64882957855854" lon="13.27249559127815"><ele>813.6666666666666</ele><time>2026-04-19T12:18:29.001Z</time></trkpt><trkpt lat="42.64875005085016" lon="13.2724318820572"><ele>813.8333333333333</ele><time>2026-04-19T12:18:30.001Z</time></trkpt><trkpt lat="42.648649037924166" lon="13.272392478062558"><ele>814.0</ele><time>2026-04-19T12:18:31.001Z</time></trkpt><trkpt lat="42.64855412307316" lon="13.272363117076843"><ele>814.0</ele><time>2026-04-19T12:18:32.001Z</time></trkpt><trkpt lat="42.64846542945209" lon="13.27231444797949"><ele>814.0</ele><time>2026-04-19T12:18:33.001Z</time></trkpt><trkpt lat="42.64838092479198" lon="13.272224609170271"><ele>814.0</ele><time>2026-04-19T12:18:34.001Z</time></trkpt><trkpt lat="42.64830391298258" lon="13.272093568198356"><ele>814.0</ele><time>2026-04-19T12:18:35.001Z</time></trkpt><trkpt lat="42.64823191752624" lon="13.271958847826555"><ele>814.0</ele><time>2026-04-19T12:18:36.001Z</time></trkpt><trkpt lat="42.64814704078631" lon="13.271840644518646"><ele>817.5</ele><time>2026-04-19T12:18:37.001Z</time></trkpt><trkpt lat="42.64805126743431" lon="13.271742360194276"><ele>821.0</ele><time>2026-04-19T12:18:38.001Z</time></trkpt><trkpt lat="42.64794253216658" lon="13.27165424374216"><ele>824.5</ele><time>2026-04-19T12:18:39.001Z</time></trkpt><trkpt lat="42.64781478752057" lon="13.271566638143957"><ele>828.0</ele><time>2026-04-19T12:18:40.001Z</time></trkpt><trkpt lat="42.64767195967726" lon="13.271488934485948"><ele>828.0</ele><time>2026-04-19T12:18:41.001Z</time></trkpt><trkpt lat="42.64751829109562" lon="13.27144815122136"><ele>828.0</ele><time>2026-04-19T12:18:42.001Z</time></trkpt><trkpt lat="42.6473664737836" lon="13.271461645766992"><ele>828.0</ele><time>2026-04-19T12:18:43.001Z</time></trkpt><trkpt lat="42.64721239974702" lon="13.271512757045278"><ele>828.0</ele><time>2026-04-19T12:18:44.001Z</time></trkpt><trkpt lat="42.64705454417536" lon="13.271578839048685"><ele>828.0</ele><time>2026-04-19T12:18:45.001Z</time></trkpt><trkpt lat="42.64690555284135" lon="13.271631534589027"><ele>828.0</ele><time>2026-04-19T12:18:46.001Z</time></trkpt><trkpt lat="42.64676391806102" lon="13.271672924047817"><ele>830.5</ele><time>2026-04-19T12:18:47.001Z</time></trkpt><trkpt lat="42.64662887987128" lon="13.271710955468999"><ele>833.0</ele><time>2026-04-19T12:18:48.001Z</time></trkpt><trkpt lat="42.64649359239661" lon="13.271762760291672"><ele>835.5</ele><time>2026-04-19T12:18:49.001Z</time></trkpt><trkpt lat="42.646358558803406" lon="13.271824423441542"><ele>838.0</ele><time>2026-04-19T12:18:50.001Z</time></trkpt><trkpt lat="42.646223006788574" lon="13.271892666161467"><ele>841.0</ele><time>2026-04-19T12:18:51.001Z</time></trkpt><trkpt lat="42.64609469298498" lon="13.271964341647129"><ele>844.0</ele><time>2026-04-19T12:18:52.001Z</time></trkpt><trkpt lat="42.64597143414378" lon="13.272024124916854"><ele>847.0</ele><time>2026-04-19T12:18:53.001Z</time></trkpt><trkpt lat="42.645855869309756" lon="13.272075715302918"><ele>850.0</ele><time>2026-04-19T12:18:54.001Z</time></trkpt><trkpt lat="42.64574110671536" lon="13.272122813692848"><ele>850.0</ele><time>2026-04-19T12:18:55.001Z</time></trkpt><trkpt lat="42.64562976869654" lon="13.272169545175034"><ele>850.0</ele><time>2026-04-19T12:18:56.001Z</time></trkpt><trkpt lat="42.645521956778744" lon="13.272218969379578"><ele>850.0</ele><time>2026-04-19T12:18:57.001Z</time></trkpt><trkpt lat="42.64541646515412" lon="13.27226498095088"><ele>850.0</ele><time>2026-04-19T12:18:58.001Z</time></trkpt><trkpt lat="42.64531292865961" lon="13.27229756502892"><ele>850.0</ele><time>2026-04-19T12:18:59.001Z</time></trkpt><trkpt lat="42.64521953232216" lon="13.272295518431108"><ele>847.6</ele><time>2026-04-19T12:19:00.001Z</time></trkpt><trkpt lat="42.64512825549031" lon="13.27224725496391"><ele>845.2</ele><time>2026-04-19T12:19:01.001Z</time></trkpt><trkpt lat="42.64507547145353" lon="13.272156449717247"><ele>842.8</ele><time>2026-04-19T12:19:02.001Z</time></trkpt><trkpt lat="42.64506149723215" lon="13.272039887382341"><ele>840.4</ele><time>2026-04-19T12:19:03.001Z</time></trkpt><trkpt lat="42.64508425840054" lon="13.271902177406202"><ele>838.0</ele><time>2026-04-19T12:19:04.001Z</time></trkpt><trkpt lat="42.64513389908096" lon="13.271756527760239"><ele>838.0</ele><time>2026-04-19T12:19:05.001Z</time></trkpt><trkpt lat="42.645202183171016" lon="13.271620523923609"><ele>838.0</ele><time>2026-04-19T12:19:06.001Z</time></trkpt><trkpt lat="42.645270949395474" lon="13.271490660406808"><ele>838.0</ele><time>2026-04-19T12:19:07.001Z</time></trkpt><trkpt lat="42.645316793847655" lon="13.271369826092839"><ele>838.0</ele><time>2026-04-19T12:19:08.001Z</time></trkpt><trkpt lat="42.64533722328887" lon="13.271248583300165"><ele>838.0</ele><time>2026-04-19T12:19:09.001Z</time></trkpt><trkpt lat="42.645333815864" lon="13.271117314844487"><ele>841.5</ele><time>2026-04-19T12:19:10.001Z</time></trkpt><trkpt lat="42.645293949782875" lon="13.270986089000155"><ele>845.0</ele><time>2026-04-19T12:19:11.001Z</time></trkpt><trkpt lat="42.64519953330067" lon="13.27086470091953"><ele>848.5</ele><time>2026-04-19T12:19:12.001Z</time></trkpt><trkpt lat="42.645076501172866" lon="13.270767763425592"><ele>852.0</ele><time>2026-04-19T12:19:13.001Z</time></trkpt><trkpt lat="42.64495513934523" lon="13.270681222477597"><ele>861.0</ele><time>2026-04-19T12:19:14.001Z</time></trkpt><trkpt lat="42.64483992249329" lon="13.270594196396335"><ele>870.0</ele><time>2026-04-19T12:19:15.001Z</time></trkpt><trkpt lat="42.64472633454845" lon="13.270504083015593"><ele>879.0</ele><time>2026-04-19T12:19:16.001Z</time></trkpt><trkpt lat="42.64460619872235" lon="13.270426744051523"><ele>888.0</ele><time>2026-04-19T12:19:17.001Z</time></trkpt><trkpt lat="42.644477573751985" lon="13.270369476588373"><ele>885.75</ele><time>2026-04-19T12:19:18.001Z</time></trkpt><trkpt lat="42.64434040023994" lon="13.270339038270063"><ele>883.5</ele><time>2026-04-19T12:19:19.001Z</time></trkpt><trkpt lat="42.64420503926385" lon="13.270314767389507"><ele>881.25</ele><time>2026-04-19T12:19:20.001Z</time></trkpt><trkpt lat="42.644067627407885" lon="13.270303920476247"><ele>879.0</ele><time>2026-04-19T12:19:21.001Z</time></trkpt><trkpt lat="42.64392576208706" lon="13.270320364199648"><ele>879.0</ele><time>2026-04-19T12:19:22.001Z</time></trkpt><trkpt lat="42.643780977932074" lon="13.270370207804945"><ele>879.0</ele><time>2026-04-19T12:19:23.001Z</time></trkpt><trkpt lat="42.64363115266173" lon="13.270438394155915"><ele>879.0</ele><time>2026-04-19T12:19:24.001Z</time></trkpt><trkpt lat="42.643479488872565" lon="13.270510779162244"><ele>879.25</ele><time>2026-04-19T12:19:25.001Z</time></trkpt><trkpt lat="42.64332419568686" lon="13.270572424420068"><ele>879.5</ele><time>2026-04-19T12:19:26.001Z</time></trkpt><trkpt lat="42.643186785695576" lon="13.270606109894588"><ele>879.75</ele><time>2026-04-19T12:19:27.001Z</time></trkpt><trkpt lat="42.64307119006329" lon="13.270610011136844"><ele>880.0</ele><time>2026-04-19T12:19:28.001Z</time></trkpt><trkpt lat="42.64295614733204" lon="13.270566892941595"><ele>880.0</ele><time>2026-04-19T12:19:29.001Z</time></trkpt><trkpt lat="42.64283282825568" lon="13.27047758468549"><ele>880.0</ele><time>2026-04-19T12:19:30.001Z</time></trkpt><trkpt lat="42.64271445618452" lon="13.270364661071717"><ele>880.0</ele><time>2026-04-19T12:19:31.001Z</time></trkpt><trkpt lat="42.64260953965672" lon="13.27024482893051"><ele>880.0</ele><time>2026-04-19T12:19:32.001Z</time></trkpt><trkpt lat="42.642506096833415" lon="13.270141784363277"><ele>880.6</ele><time>2026-04-19T12:19:33.001Z</time></trkpt><trkpt lat="42.64240946605623" lon="13.270064301772972"><ele>881.2</ele><time>2026-04-19T12:19:34.001Z</time></trkpt><trkpt lat="42.64232397368166" lon="13.269995286082802"><ele>881.8</ele><time>2026-04-19T12:19:35.001Z</time></trkpt><trkpt lat="42.64224320014396" lon="13.26992582228689"><ele>882.4</ele><time>2026-04-19T12:19:36.001Z</time></trkpt><trkpt lat="42.64216838710169" lon="13.26984348383166"><ele>883.0</ele><time>2026-04-19T12:19:37.001Z</time></trkpt><trkpt lat="42.64210467974639" lon="13.269738597743434"><ele>883.0</ele><time>2026-04-19T12:19:38.001Z</time></trkpt><trkpt lat="42.64206666496445" lon="13.269597880045236"><ele>883.0</ele><time>2026-04-19T12:19:39.001Z</time></trkpt><trkpt lat="42.642044627914025" lon="13.26943180624386"><ele>883.0</ele><time>2026-04-19T12:19:40.001Z</time></trkpt><trkpt lat="42.642023931278686" lon="13.26925769255098"><ele>883.0</ele><time>2026-04-19T12:19:41.001Z</time></trkpt><trkpt lat="42.64200278581543" lon="13.269080004724335"><ele>881.75</ele><time>2026-04-19T12:19:42.001Z</time></trkpt><trkpt lat="42.64199740690042" lon="13.268920303638732"><ele>880.5</ele><time>2026-04-19T12:19:43.001Z</time></trkpt><trkpt lat="42.6420083883635" lon="13.26877431942221"><ele>879.25</ele><time>2026-04-19T12:19:44.001Z</time></trkpt><trkpt lat="42.64204155784489" lon="13.268624615173813"><ele>878.0</ele><time>2026-04-19T12:19:45.001Z</time></trkpt><trkpt lat="42.642085390897385" lon="13.26846608485988"><ele>878.0</ele><time>2026-04-19T12:19:46.001Z</time></trkpt><trkpt lat="42.642120493348735" lon="13.268319094756608"><ele>878.0</ele><time>2026-04-19T12:19:47.001Z</time></trkpt><trkpt lat="42.64213913145933" lon="13.268165292219543"><ele>878.0</ele><time>2026-04-19T12:19:48.001Z</time></trkpt><trkpt lat="42.64212616625281" lon="13.268006006183619"><ele>878.0</ele><time>2026-04-19T12:19:49.001Z</time></trkpt><trkpt lat="42.64207560477966" lon="13.267860420121291"><ele>878.75</ele><time>2026-04-19T12:19:50.001Z</time></trkpt><trkpt lat="42.64200216065444" lon="13.267724533986476"><ele>879.5</ele><time>2026-04-19T12:19:51.001Z</time></trkpt><trkpt lat="42.64191666152154" lon="13.267610488480328"><ele>880.25</ele><time>2026-04-19T12:19:52.001Z</time></trkpt><trkpt lat="42.64181043489624" lon="13.267526113174885"><ele>881.0</ele><time>2026-04-19T12:19:53.001Z</time></trkpt><trkpt lat="42.641693879369505" lon="13.267488900908766"><ele>881.0</ele><time>2026-04-19T12:19:54.001Z</time></trkpt><trkpt lat="42.64156164354736" lon="13.267495950020614"><ele>881.0</ele><time>2026-04-19T12:19:55.001Z</time></trkpt><trkpt lat="42.64142735200366" lon="13.267522111386793"><ele>881.0</ele><time>2026-04-19T12:19:56.001Z</time></trkpt><trkpt lat="42.641298715857765" lon="13.267537545631386"><ele>881.0</ele><time>2026-04-19T12:19:57.001Z</time></trkpt><trkpt lat="42.64118796639346" lon="13.267543253460627"><ele>881.0</ele><time>2026-04-19T12:19:58.001Z</time></trkpt><trkpt lat="42.64109072608097" lon="13.267538702041044"><ele>881.0</ele><time>2026-04-19T12:19:59.001Z</time></trkpt><trkpt lat="42.6409901827251" lon="13.26749671099829"><ele>881.0</ele><time>2026-04-19T12:20:00.001Z</time></trkpt><trkpt lat="42.64088919397698" lon="13.267395642265576"><ele>881.0</ele><time>2026-04-19T12:20:01.001Z</time></trkpt><trkpt lat="42.64080347588368" lon="13.267256918713713"><ele>881.0</ele><time>2026-04-19T12:20:02.002Z</time></trkpt><trkpt lat="42.64074810897997" lon="13.267103892701313"><ele>881.0</ele><time>2026-04-19T12:20:03.002Z</time></trkpt><trkpt lat="42.640721222794916" lon="13.2669372236253"><ele>881.0</ele><time>2026-04-19T12:20:04.002Z</time></trkpt><trkpt lat="42.64072942829141" lon="13.26676658293719"><ele>881.0</ele><time>2026-04-19T12:20:05.002Z</time></trkpt><trkpt lat="42.640775493174544" lon="13.266606219835884"><ele>880.0</ele><time>2026-04-19T12:20:06.002Z</time></trkpt><trkpt lat="42.64086253899564" lon="13.266436157803737"><ele>879.0</ele><time>2026-04-19T12:20:07.002Z</time></trkpt><trkpt lat="42.64096784791273" lon="13.266269003539577"><ele>878.0</ele><time>2026-04-19T12:20:08.002Z</time></trkpt><trkpt lat="42.64105788028077" lon="13.266130128745226"><ele>878.0</ele><time>2026-04-19T12:20:09.002Z</time></trkpt><trkpt lat="42.64113132798993" lon="13.265974642471067"><ele>878.0</ele><time>2026-04-19T12:20:10.002Z</time></trkpt><trkpt lat="42.64122612660811" lon="13.26579415647359"><ele>878.0</ele><time>2026-04-19T12:20:11.002Z</time></trkpt><trkpt lat="42.64132075554049" lon="13.2656463485775"><ele>878.0</ele><time>2026-04-19T12:20:12.002Z</time></trkpt><trkpt lat="42.64141905852565" lon="13.265502549182708"><ele>880.5</ele><time>2026-04-19T12:20:13.002Z</time></trkpt><trkpt lat="42.641521795635235" lon="13.26536095953707"><ele>883.0</ele><time>2026-04-19T12:20:14.002Z</time></trkpt><trkpt lat="42.641630873627214" lon="13.265225874289722"><ele>885.5</ele><time>2026-04-19T12:20:15.002Z</time></trkpt><trkpt lat="42.64175132288347" lon="13.265095819120612"><ele>888.0</ele><time>2026-04-19T12:20:16.002Z</time></trkpt><trkpt lat="42.64186574883398" lon="13.264963017063497"><ele>891.25</ele><time>2026-04-19T12:20:17.002Z</time></trkpt><trkpt lat="42.641976008688104" lon="13.264850786123661"><ele>894.5</ele><time>2026-04-19T12:20:18.002Z</time></trkpt><trkpt lat="42.6420792210339" lon="13.264757718653353"><ele>897.75</ele><time>2026-04-19T12:20:19.002Z</time></trkpt><trkpt lat="42.64217443083118" lon="13.264670109232673"><ele>901.0</ele><time>2026-04-19T12:20:20.002Z</time></trkpt><trkpt lat="42.64226048133822" lon="13.264558467897077"><ele>901.0</ele><time>2026-04-19T12:20:21.002Z</time></trkpt><trkpt lat="42.64233622144888" lon="13.264403783927895"><ele>901.0</ele><time>2026-04-19T12:20:22.002Z</time></trkpt><trkpt lat="42.64239587641216" lon="13.264227912998958"><ele>901.0</ele><time>2026-04-19T12:20:23.002Z</time></trkpt><trkpt lat="42.6424383535654" lon="13.264037443033924"><ele>901.0</ele><time>2026-04-19T12:20:24.002Z</time></trkpt><trkpt lat="42.64248890128051" lon="13.263844863227906"><ele>900.75</ele><time>2026-04-19T12:20:25.002Z</time></trkpt><trkpt lat="42.64254063902647" lon="13.263665639772558"><ele>900.5</ele><time>2026-04-19T12:20:26.002Z</time></trkpt><trkpt lat="42.64259140650504" lon="13.263502207546082"><ele>900.25</ele><time>2026-04-19T12:20:27.002Z</time></trkpt><trkpt lat="42.642658963982015" lon="13.263354147239788"><ele>900.0</ele><time>2026-04-19T12:20:28.002Z</time></trkpt><trkpt lat="42.64269553898503" lon="13.263192947090086"><ele>901.0</ele><time>2026-04-19T12:20:29.002Z</time></trkpt><trkpt lat="42.64270784691463" lon="13.2630194144924"><ele>902.0</ele><time>2026-04-19T12:20:30.002Z</time></trkpt><trkpt lat="42.642674513566035" lon="13.262819680853251"><ele>903.0</ele><time>2026-04-19T12:20:31.002Z</time></trkpt><trkpt lat="42.642611335633745" lon="13.262653160493212"><ele>904.0</ele><time>2026-04-19T12:20:32.002Z</time></trkpt><trkpt lat="42.64253318774301" lon="13.262493496438466"><ele>904.0</ele><time>2026-04-19T12:20:33.002Z</time></trkpt><trkpt lat="42.64242650880463" lon="13.262335656395008"><ele>904.0</ele><time>2026-04-19T12:20:34.002Z</time></trkpt><trkpt lat="42.64231670181511" lon="13.262203119909412"><ele>904.0</ele><time>2026-04-19T12:20:35.002Z</time></trkpt><trkpt lat="42.64221460397244" lon="13.262098895898331"><ele>904.0</ele><time>2026-04-19T12:20:36.002Z</time></trkpt><trkpt lat="42.64212532452764" lon="13.262010557766466"><ele>904.8333333333333</ele><time>2026-04-19T12:20:37.002Z</time></trkpt><trkpt lat="42.64205140401089" lon="13.261926489529229"><ele>905.6666666666666</ele><time>2026-04-19T12:20:38.002Z</time></trkpt><trkpt lat="42.64199275592773" lon="13.261837518974398"><ele>906.5</ele><time>2026-04-19T12:20:39.002Z</time></trkpt><trkpt lat="42.64195331864756" lon="13.26173517543304"><ele>907.3333333333333</ele><time>2026-04-19T12:20:40.002Z</time></trkpt><trkpt lat="42.641954546386884" lon="13.261632157598484"><ele>908.1666666666666</ele><time>2026-04-19T12:20:41.002Z</time></trkpt><trkpt lat="42.64197464070273" lon="13.261519987406235"><ele>909.0</ele><time>2026-04-19T12:20:42.002Z</time></trkpt><trkpt lat="42.64202312733355" lon="13.261425536466438"><ele>909.0</ele><time>2026-04-19T12:20:43.002Z</time></trkpt><trkpt lat="42.64208590543128" lon="13.261325986534278"><ele>909.0000000000001</ele><time>2026-04-19T12:20:44.001Z</time></trkpt><trkpt lat="42.64218290966642" lon="13.261280458605606"><ele>909.0000000000001</ele><time>2026-04-19T12:20:45.001Z</time></trkpt><trkpt lat="42.642276747538354" lon="13.261262839051447"><ele>909.0</ele><time>2026-04-19T12:20:46.001Z</time></trkpt><trkpt lat="42.64234738102135" lon="13.261259925298859"><ele>909.0</ele><time>2026-04-19T12:20:47.001Z</time></trkpt><trkpt lat="42.6424403405139" lon="13.261250592691454"><ele>909.0</ele><time>2026-04-19T12:20:49.001Z</time></trkpt><trkpt lat="42.6424970059532" lon="13.261125283009003"><ele>909.0000000000001</ele><time>2026-04-19T12:20:52.001Z</time></trkpt><trkpt lat="42.64252232012247" lon="13.260949530129336"><ele>909.0000000000001</ele><time>2026-04-19T12:20:54.001Z</time></trkpt><trkpt lat="42.642526462093755" lon="13.260833210759708"><ele>909.0</ele><time>2026-04-19T12:20:55.001Z</time></trkpt><trkpt lat="42.642525050203076" lon="13.260699207371985"><ele>909.0</ele><time>2026-04-19T12:20:56.001Z</time></trkpt><trkpt lat="42.64251897746891" lon="13.260565510739955"><ele>908.8000000000001</ele><time>2026-04-19T12:20:57.001Z</time></trkpt><trkpt lat="42.6425092143913" lon="13.260425392442711"><ele>908.6000000000001</ele><time>2026-04-19T12:20:58.001Z</time></trkpt><trkpt lat="42.64249473086599" lon="13.26029927342385"><ele>908.4</ele><time>2026-04-19T12:20:59.001Z</time></trkpt><trkpt lat="42.64247020482518" lon="13.260162213833222"><ele>908.2</ele><time>2026-04-19T12:21:00.001Z</time></trkpt><trkpt lat="42.64243779375171" lon="13.260030381308644"><ele>908.0</ele><time>2026-04-19T12:21:01.001Z</time></trkpt><trkpt lat="42.64240129838449" lon="13.259900677773373"><ele>908.8</ele><time>2026-04-19T12:21:02.001Z</time></trkpt><trkpt lat="42.64235512099209" lon="13.259775176416605"><ele>909.5999999999999</ele><time>2026-04-19T12:21:03.001Z</time></trkpt><trkpt lat="42.64230876637166" lon="13.259650948375642"><ele>910.4000000000001</ele><time>2026-04-19T12:21:04.001Z</time></trkpt><trkpt lat="42.64226492831646" lon="13.259525468967572"><ele>911.2</ele><time>2026-04-19T12:21:05.001Z</time></trkpt><trkpt lat="42.642237728097335" lon="13.259408111302676"><ele>912.0</ele><time>2026-04-19T12:21:06.001Z</time></trkpt><trkpt lat="42.64222748273372" lon="13.259308613167223"><ele>912.0</ele><time>2026-04-19T12:21:07.001Z</time></trkpt><trkpt lat="42.64227239172775" lon="13.259171358172207"><ele>912.0</ele><time>2026-04-19T12:21:09.001Z</time></trkpt><trkpt lat="42.64233483599666" lon="13.259152486879344"><ele>912.0</ele><time>2026-04-19T12:21:10.001Z</time></trkpt><trkpt lat="42.64240384092562" lon="13.259167396486935"><ele>912.0</ele><time>2026-04-19T12:21:11.001Z</time></trkpt><trkpt lat="42.64245870373358" lon="13.259221844923204"><ele>912.0</ele><time>2026-04-19T12:21:12.001Z</time></trkpt><trkpt lat="42.6425013413708" lon="13.259315014016877"><ele>912.0</ele><time>2026-04-19T12:21:13.001Z</time></trkpt><trkpt lat="42.64255194877929" lon="13.25943591056675"><ele>912.0</ele><time>2026-04-19T12:21:14.001Z</time></trkpt><trkpt lat="42.64262662765865" lon="13.259584529534822"><ele>912.0</ele><time>2026-04-19T12:21:15.001Z</time></trkpt><trkpt lat="42.64263633839528" lon="13.259819916504203"><ele>912.0</ele><time>2026-04-19T12:21:16.001Z</time></trkpt><trkpt lat="42.64268856188096" lon="13.260026641663487"><ele>911.0</ele><time>2026-04-19T12:21:17.001Z</time></trkpt><trkpt lat="42.64272911491326" lon="13.260244208910038"><ele>910.0</ele><time>2026-04-19T12:21:18.001Z</time></trkpt><trkpt lat="42.642756555182224" lon="13.260483349255653"><ele>909.0</ele><time>2026-04-19T12:21:19.001Z</time></trkpt><trkpt lat="42.642776799841194" lon="13.260738370590364"><ele>909.0</ele><time>2026-04-19T12:21:20.001Z</time></trkpt><trkpt lat="42.642796958493484" lon="13.261010579840116"><ele>909.0</ele><time>2026-04-19T12:21:21.001Z</time></trkpt><trkpt lat="42.64281994704272" lon="13.261307732641427"><ele>909.0</ele><time>2026-04-19T12:21:22.001Z</time></trkpt><trkpt lat="42.642838132013175" lon="13.261622322236954"><ele>913.5</ele><time>2026-04-19T12:21:23.001Z</time></trkpt><trkpt lat="42.64286162057089" lon="13.261950445895124"><ele>918.0</ele><time>2026-04-19T12:21:24.001Z</time></trkpt><trkpt lat="42.642885647475076" lon="13.2622793236584"><ele>917.0</ele><time>2026-04-19T12:21:25.001Z</time></trkpt><trkpt lat="42.64290863562016" lon="13.262639144400184"><ele>916.0</ele><time>2026-04-19T12:21:26.001Z</time></trkpt><trkpt lat="42.64293436441993" lon="13.262995094746769"><ele>916.5</ele><time>2026-04-19T12:21:27.001Z</time></trkpt><trkpt lat="42.64296262642511" lon="13.26336416056982"><ele>917.0</ele><time>2026-04-19T12:21:28.001Z</time></trkpt><trkpt lat="42.64299264267313" lon="13.26373842480297"><ele>917.0</ele><time>2026-04-19T12:21:29.001Z</time></trkpt><trkpt lat="42.643015620078806" lon="13.26410724859609"><ele>917.0</ele><time>2026-04-19T12:21:30.001Z</time></trkpt><trkpt lat="42.64303944790134" lon="13.264466060800396"><ele>916.5</ele><time>2026-04-19T12:21:31.001Z</time></trkpt><trkpt lat="42.643065378176175" lon="13.264823384696578"><ele>916.0</ele><time>2026-04-19T12:21:32.001Z</time></trkpt><trkpt lat="42.64309226573676" lon="13.265181747933317"><ele>916.0</ele><time>2026-04-19T12:21:33.001Z</time></trkpt><trkpt lat="42.64311847081854" lon="13.265535907856027"><ele>916.0</ele><time>2026-04-19T12:21:34.001Z</time></trkpt><trkpt lat="42.643142850344894" lon="13.265895738579712"><ele>911.5</ele><time>2026-04-19T12:21:35.001Z</time></trkpt><trkpt lat="42.64316849223236" lon="13.266251045021061"><ele>907.0</ele><time>2026-04-19T12:21:36.001Z</time></trkpt><trkpt lat="42.643207645375085" lon="13.266598883727488"><ele>901.5</ele><time>2026-04-19T12:21:37.001Z</time></trkpt><trkpt lat="42.643268183732644" lon="13.266936142722324"><ele>896.0</ele><time>2026-04-19T12:21:38.001Z</time></trkpt><trkpt lat="42.64335101623549" lon="13.267287197075978"><ele>895.5</ele><time>2026-04-19T12:21:39.001Z</time></trkpt><trkpt lat="42.64345856217358" lon="13.267644438717983"><ele>895.0</ele><time>2026-04-19T12:21:40.001Z</time></trkpt><trkpt lat="42.643583223474835" lon="13.267981393759467"><ele>905.0</ele><time>2026-04-19T12:21:41.001Z</time></trkpt><trkpt lat="42.64373904962857" lon="13.268297013939389"><ele>915.0</ele><time>2026-04-19T12:21:42.001Z</time></trkpt><trkpt lat="42.64391847652427" lon="13.26859773479701"><ele>915.0</ele><time>2026-04-19T12:21:43.001Z</time></trkpt><trkpt lat="42.64411517799882" lon="13.268886633109657"><ele>915.0</ele><time>2026-04-19T12:21:44.002Z</time></trkpt><trkpt lat="42.644335285871776" lon="13.269155243237543"><ele>917.5</ele><time>2026-04-19T12:21:45.002Z</time></trkpt><trkpt lat="42.64457586094737" lon="13.269400269792282"><ele>920.0</ele><time>2026-04-19T12:21:46.002Z</time></trkpt><trkpt lat="42.644828898433985" lon="13.269608708650363"><ele>920.0</ele><time>2026-04-19T12:21:47.002Z</time></trkpt><trkpt lat="42.645080230175594" lon="13.269768980272598"><ele>920.0</ele><time>2026-04-19T12:21:48.002Z</time></trkpt><trkpt lat="42.64533505267456" lon="13.269880793382088"><ele>908.5</ele><time>2026-04-19T12:21:49.002Z</time></trkpt><trkpt lat="42.64562299749384" lon="13.269971094945502"><ele>897.0</ele><time>2026-04-19T12:21:50.002Z</time></trkpt><trkpt lat="42.645919991356294" lon="13.270024360011693"><ele>896.0</ele><time>2026-04-19T12:21:51.002Z</time></trkpt><trkpt lat="42.646213174784336" lon="13.270040155526436"><ele>895.0</ele><time>2026-04-19T12:21:52.002Z</time></trkpt><trkpt lat="42.6465097388508" lon="13.27002392760683"><ele>895.0</ele><time>2026-04-19T12:21:53.002Z</time></trkpt><trkpt lat="42.64680910067999" lon="13.269980639431028"><ele>895.0</ele><time>2026-04-19T12:21:54.002Z</time></trkpt><trkpt lat="42.6471023396557" lon="13.269935789837776"><ele>894.0</ele><time>2026-04-19T12:21:55.002Z</time></trkpt><trkpt lat="42.6473895522001" lon="13.269900356190556"><ele>893.0</ele><time>2026-04-19T12:21:56.002Z</time></trkpt><trkpt lat="42.647678226998465" lon="13.269878975160783"><ele>892.5</ele><time>2026-04-19T12:21:57.002Z</time></trkpt><trkpt lat="42.6479714933859" lon="13.269872656699969"><ele>892.0</ele><time>2026-04-19T12:21:58.002Z</time></trkpt><trkpt lat="42.64824572710754" lon="13.269888180984715"><ele>892.0</ele><time>2026-04-19T12:21:59.002Z</time></trkpt><trkpt lat="42.64851580094784" lon="13.269932878478516"><ele>892.0</ele><time>2026-04-19T12:22:00.002Z</time></trkpt><trkpt lat="42.64879618798354" lon="13.269985144158447"><ele>892.0</ele><time>2026-04-19T12:22:01.002Z</time></trkpt><trkpt lat="42.649076547301746" lon="13.270022666387225"><ele>892.0</ele><time>2026-04-19T12:22:02.002Z</time></trkpt><trkpt lat="42.64936280183543" lon="13.270115168911332"><ele>887.5</ele><time>2026-04-19T12:22:03.002Z</time></trkpt><trkpt lat="42.64971043319319" lon="13.270171086128707"><ele>883.0</ele><time>2026-04-19T12:22:04.002Z</time></trkpt><trkpt lat="42.650032454040876" lon="13.27024209473313"><ele>881.0</ele><time>2026-04-19T12:22:05.002Z</time></trkpt><trkpt lat="42.65034059749475" lon="13.270308884660773"><ele>879.0</ele><time>2026-04-19T12:22:06.002Z</time></trkpt><trkpt lat="42.65063155775865" lon="13.270370092905432"><ele>879.0</ele><time>2026-04-19T12:22:07.002Z</time></trkpt><trkpt lat="42.650926015267316" lon="13.270432826430689"><ele>879.0</ele><time>2026-04-19T12:22:08.002Z</time></trkpt><trkpt lat="42.651216505540766" lon="13.270501279369729"><ele>880.0</ele><time>2026-04-19T12:22:09.002Z</time></trkpt><trkpt lat="42.6514995067468" lon="13.270563949822524"><ele>881.0</ele><time>2026-04-19T12:22:10.002Z</time></trkpt><trkpt lat="42.65179071093644" lon="13.270627091119927"><ele>871.5</ele><time>2026-04-19T12:22:11.002Z</time></trkpt><trkpt lat="42.652071946269196" lon="13.27069510263394"><ele>862.0</ele><time>2026-04-19T12:22:12.002Z</time></trkpt><trkpt lat="42.65236482531495" lon="13.27075095690855"><ele>862.0</ele><time>2026-04-19T12:22:13.002Z</time></trkpt><trkpt lat="42.652643133453" lon="13.270805978007974"><ele>862.0</ele><time>2026-04-19T12:22:14.002Z</time></trkpt><trkpt lat="42.652908858707946" lon="13.270864780689234"><ele>860.0</ele><time>2026-04-19T12:22:15.002Z</time></trkpt><trkpt lat="42.65316858268427" lon="13.270923259387015"><ele>858.0</ele><time>2026-04-19T12:22:16.002Z</time></trkpt><trkpt lat="42.65343107599823" lon="13.270965067813414"><ele>855.0</ele><time>2026-04-19T12:22:17.002Z</time></trkpt><trkpt lat="42.65370129516988" lon="13.270972120100058"><ele>852.0</ele><time>2026-04-19T12:22:18.002Z</time></trkpt><trkpt lat="42.653983516557155" lon="13.270940808485792"><ele>852.0</ele><time>2026-04-19T12:22:19.002Z</time></trkpt><trkpt lat="42.654277235556364" lon="13.270886307734802"><ele>852.0</ele><time>2026-04-19T12:22:20.002Z</time></trkpt><trkpt lat="42.65457060013448" lon="13.270802856644083"><ele>845.5</ele><time>2026-04-19T12:22:21.002Z</time></trkpt><trkpt lat="42.65486039998612" lon="13.270692975086764"><ele>839.0</ele><time>2026-04-19T12:22:22.002Z</time></trkpt><trkpt lat="42.65514983674906" lon="13.270577159835806"><ele>845.5</ele><time>2026-04-19T12:22:23.002Z</time></trkpt><trkpt lat="42.655426430764116" lon="13.270467591515507"><ele>852.0</ele><time>2026-04-19T12:22:24.002Z</time></trkpt><trkpt lat="42.6556957154926" lon="13.270367623255936"><ele>852.0</ele><time>2026-04-19T12:22:25.002Z</time></trkpt><trkpt lat="42.65595948303113" lon="13.270291565270796"><ele>852.0</ele><time>2026-04-19T12:22:26.002Z</time></trkpt><trkpt lat="42.656225023783634" lon="13.270251652665173"><ele>844.0</ele><time>2026-04-19T12:22:27.002Z</time></trkpt><trkpt lat="42.656495034796386" lon="13.270247545903969"><ele>836.0</ele><time>2026-04-19T12:22:28.002Z</time></trkpt><trkpt lat="42.65678038852163" lon="13.270263108027649"><ele>823.0</ele><time>2026-04-19T12:22:29.002Z</time></trkpt><trkpt lat="42.657074231235015" lon="13.270292366643137"><ele>810.0</ele><time>2026-04-19T12:22:30.002Z</time></trkpt><trkpt lat="42.65736568907927" lon="13.270332021370011"><ele>810.0</ele><time>2026-04-19T12:22:31.002Z</time></trkpt><trkpt lat="42.65766727660832" lon="13.270376947690846"><ele>810.0</ele><time>2026-04-19T12:22:32.002Z</time></trkpt><trkpt lat="42.65796693196483" lon="13.270426193850767"><ele>802.5</ele><time>2026-04-19T12:22:33.002Z</time></trkpt><trkpt lat="42.65826287084469" lon="13.270478519547837"><ele>795.0</ele><time>2026-04-19T12:22:34.002Z</time></trkpt><trkpt lat="42.6585535223188" lon="13.270528627514148"><ele>796.5</ele><time>2026-04-19T12:22:35.002Z</time></trkpt><trkpt lat="42.658841275009564" lon="13.270563720766555"><ele>798.0</ele><time>2026-04-19T12:22:36.002Z</time></trkpt><trkpt lat="42.65912844989824" lon="13.270570524889044"><ele>798.0</ele><time>2026-04-19T12:22:37.002Z</time></trkpt><trkpt lat="42.65942197260107" lon="13.270542100735643"><ele>798.0</ele><time>2026-04-19T12:22:38.002Z</time></trkpt><trkpt lat="42.65971457173887" lon="13.270478437588643"><ele>801.0</ele><time>2026-04-19T12:22:39.002Z</time></trkpt><trkpt lat="42.660003475884615" lon="13.270378454384451"><ele>804.0</ele><time>2026-04-19T12:22:40.002Z</time></trkpt><trkpt lat="42.66028701943929" lon="13.270246584125672"><ele>811.0</ele><time>2026-04-19T12:22:41.002Z</time></trkpt><trkpt lat="42.66056577582986" lon="13.270097857941291"><ele>818.0</ele><time>2026-04-19T12:22:42.002Z</time></trkpt><trkpt lat="42.66083726393573" lon="13.269936915794332"><ele>812.5</ele><time>2026-04-19T12:22:43.002Z</time></trkpt><trkpt lat="42.66110668838446" lon="13.269762014029729"><ele>807.0</ele><time>2026-04-19T12:22:44.002Z</time></trkpt><trkpt lat="42.66137836720183" lon="13.269579196196368"><ele>807.0</ele><time>2026-04-19T12:22:45.002Z</time></trkpt><trkpt lat="42.66163562176946" lon="13.269393517873517"><ele>807.0</ele><time>2026-04-19T12:22:46.002Z</time></trkpt><trkpt lat="42.66187990564023" lon="13.269212225203608"><ele>801.5</ele><time>2026-04-19T12:22:47.002Z</time></trkpt><trkpt lat="42.66212068653278" lon="13.269041427872201"><ele>796.0</ele><time>2026-04-19T12:22:48.002Z</time></trkpt><trkpt lat="42.66234744186442" lon="13.26887804235232"><ele>796.0</ele><time>2026-04-19T12:22:49.002Z</time></trkpt><trkpt lat="42.66257021909267" lon="13.268706907874192"><ele>796.0</ele><time>2026-04-19T12:22:50.002Z</time></trkpt><trkpt lat="42.662789072716215" lon="13.2684906778249"><ele>800.0</ele><time>2026-04-19T12:22:51.002Z</time></trkpt><trkpt lat="42.66298494523298" lon="13.268226357933898"><ele>804.0</ele><time>2026-04-19T12:22:52.002Z</time></trkpt><trkpt lat="42.66315724131676" lon="13.267918596816836"><ele>796.0</ele><time>2026-04-19T12:22:53.002Z</time></trkpt><trkpt lat="42.663308757290785" lon="13.267584195359364"><ele>788.0</ele><time>2026-04-19T12:22:54.002Z</time></trkpt><trkpt lat="42.663446294486384" lon="13.267237967117158"><ele>785.5</ele><time>2026-04-19T12:22:55.002Z</time></trkpt><trkpt lat="42.66358482836798" lon="13.266892733718539"><ele>783.0</ele><time>2026-04-19T12:22:56.001Z</time></trkpt><trkpt lat="42.66372928364766" lon="13.266569828394784"><ele>781.5</ele><time>2026-04-19T12:22:57.001Z</time></trkpt><trkpt lat="42.66388730087184" lon="13.266259567839048"><ele>780.0</ele><time>2026-04-19T12:22:58.001Z</time></trkpt><trkpt lat="42.66405778777628" lon="13.265958852018278"><ele>780.0</ele><time>2026-04-19T12:22:59.001Z</time></trkpt><trkpt lat="42.66423623519659" lon="13.265683321139427"><ele>780.0</ele><time>2026-04-19T12:23:00.001Z</time></trkpt><trkpt lat="42.66441795730418" lon="13.265449041568894"><ele>780.5</ele><time>2026-04-19T12:23:01.001Z</time></trkpt><trkpt lat="42.664626661701554" lon="13.265222321280596"><ele>781.0</ele><time>2026-04-19T12:23:02.001Z</time></trkpt><trkpt lat="42.664842135244285" lon="13.265021056173946"><ele>781.0</ele><time>2026-04-19T12:23:03.001Z</time></trkpt><trkpt lat="42.66507008985613" lon="13.264843792704374"><ele>781.0</ele><time>2026-04-19T12:23:04.001Z</time></trkpt><trkpt lat="42.66531108704518" lon="13.264689447129149"><ele>781.0</ele><time>2026-04-19T12:23:05.001Z</time></trkpt><trkpt lat="42.66556123183719" lon="13.264558136096786"><ele>781.0</ele><time>2026-04-19T12:23:06.001Z</time></trkpt><trkpt lat="42.665827231317564" lon="13.264453234907302"><ele>781.0</ele><time>2026-04-19T12:23:07.001Z</time></trkpt><trkpt lat="42.66610037263253" lon="13.264384394665472"><ele>781.0</ele><time>2026-04-19T12:23:08.001Z</time></trkpt><trkpt lat="42.66637742715638" lon="13.264355906916586"><ele>780.5</ele><time>2026-04-19T12:23:09.001Z</time></trkpt><trkpt lat="42.66665353266502" lon="13.264359747972492"><ele>780.0</ele><time>2026-04-19T12:23:10.001Z</time></trkpt><trkpt lat="42.666929695425495" lon="13.264392965052785"><ele>779.5</ele><time>2026-04-19T12:23:11.001Z</time></trkpt><trkpt lat="42.667198711114146" lon="13.264455505712684"><ele>779.0</ele><time>2026-04-19T12:23:12.001Z</time></trkpt><trkpt lat="42.66745620700113" lon="13.264547007755331"><ele>779.0</ele><time>2026-04-19T12:23:13.001Z</time></trkpt><trkpt lat="42.66771875665767" lon="13.26466237549943"><ele>779.0</ele><time>2026-04-19T12:23:14.001Z</time></trkpt><trkpt lat="42.66797654816447" lon="13.264807547872298"><ele>777.5</ele><time>2026-04-19T12:23:15.001Z</time></trkpt><trkpt lat="42.66823118191046" lon="13.264976931732946"><ele>776.0</ele><time>2026-04-19T12:23:16.001Z</time></trkpt><trkpt lat="42.668483889203756" lon="13.265170663759724"><ele>773.0</ele><time>2026-04-19T12:23:17.001Z</time></trkpt><trkpt lat="42.66873640323231" lon="13.265358263167732"><ele>770.0</ele><time>2026-04-19T12:23:18.001Z</time></trkpt><trkpt lat="42.66899699651052" lon="13.265526664657793"><ele>773.0</ele><time>2026-04-19T12:23:19.001Z</time></trkpt><trkpt lat="42.66926349500325" lon="13.265673634730213"><ele>776.0</ele><time>2026-04-19T12:23:20.001Z</time></trkpt><trkpt lat="42.669535764249666" lon="13.2657985064512"><ele>776.5</ele><time>2026-04-19T12:23:21.001Z</time></trkpt><trkpt lat="42.669801099330215" lon="13.265879680096198"><ele>777.0</ele><time>2026-04-19T12:23:22.001Z</time></trkpt><trkpt lat="42.67006304759706" lon="13.265905237311372"><ele>776.5</ele><time>2026-04-19T12:23:23.001Z</time></trkpt><trkpt lat="42.67034089639301" lon="13.265884775335305"><ele>776.0</ele><time>2026-04-19T12:23:24.001Z</time></trkpt><trkpt lat="42.67062562994462" lon="13.265835296367353"><ele>776.0</ele><time>2026-04-19T12:23:25.001Z</time></trkpt><trkpt lat="42.67090380418465" lon="13.265789880302368"><ele>776.0</ele><time>2026-04-19T12:23:26.001Z</time></trkpt><trkpt lat="42.671161902974355" lon="13.265755601648314"><ele>778.0</ele><time>2026-04-19T12:23:27.001Z</time></trkpt><trkpt lat="42.67141177592318" lon="13.265729686101102"><ele>780.0</ele><time>2026-04-19T12:23:28.001Z</time></trkpt><trkpt lat="42.67165498822955" lon="13.265715019849925"><ele>780.0</ele><time>2026-04-19T12:23:29.001Z</time></trkpt><trkpt lat="42.671900515728034" lon="13.265725928957494"><ele>780.0</ele><time>2026-04-19T12:23:30.001Z</time></trkpt><trkpt lat="42.67215804259119" lon="13.265769566874557"><ele>775.5</ele><time>2026-04-19T12:23:31.001Z</time></trkpt><trkpt lat="42.67241132187213" lon="13.265846840308496"><ele>771.0</ele><time>2026-04-19T12:23:32.001Z</time></trkpt><trkpt lat="42.672674057201796" lon="13.265956498444009"><ele>768.0</ele><time>2026-04-19T12:23:33.001Z</time></trkpt><trkpt lat="42.672930651266626" lon="13.266086652240197"><ele>765.0</ele><time>2026-04-19T12:23:34.001Z</time></trkpt><trkpt lat="42.67319428177907" lon="13.266222769045086"><ele>765.0</ele><time>2026-04-19T12:23:35.001Z</time></trkpt><trkpt lat="42.673467376720886" lon="13.266356281499363"><ele>765.0</ele><time>2026-04-19T12:23:36.001Z</time></trkpt><trkpt lat="42.67374407084119" lon="13.266492890250039"><ele>769.5</ele><time>2026-04-19T12:23:37.001Z</time></trkpt><trkpt lat="42.67402459030009" lon="13.266634269021454"><ele>774.0</ele><time>2026-04-19T12:23:38.001Z</time></trkpt><trkpt lat="42.67431084432243" lon="13.266778475045948"><ele>769.5</ele><time>2026-04-19T12:23:39.001Z</time></trkpt><trkpt lat="42.67458956438083" lon="13.26691383746563"><ele>765.0</ele><time>2026-04-19T12:23:40.001Z</time></trkpt><trkpt lat="42.67487462399366" lon="13.267056455843791"><ele>765.0</ele><time>2026-04-19T12:23:41.001Z</time></trkpt><trkpt lat="42.675160362900044" lon="13.267199704802408"><ele>765.0</ele><time>2026-04-19T12:23:42.001Z</time></trkpt><trkpt lat="42.675438034383205" lon="13.267337886270615"><ele>768.5</ele><time>2026-04-19T12:23:43.001Z</time></trkpt><trkpt lat="42.675711809837985" lon="13.26747158352544"><ele>772.0</ele><time>2026-04-19T12:23:44.001Z</time></trkpt><trkpt lat="42.67598235519281" lon="13.267606213299803"><ele>766.5</ele><time>2026-04-19T12:23:45.001Z</time></trkpt><trkpt lat="42.67623957818206" lon="13.267731811067954"><ele>761.0</ele><time>2026-04-19T12:23:46.001Z</time></trkpt><trkpt lat="42.67648790926443" lon="13.267855530407203"><ele>761.0</ele><time>2026-04-19T12:23:47.001Z</time></trkpt><trkpt lat="42.67673051116906" lon="13.267974368372446"><ele>761.0</ele><time>2026-04-19T12:23:48.001Z</time></trkpt><trkpt lat="42.67697140659445" lon="13.268093742061126"><ele>762.0</ele><time>2026-04-19T12:23:49.001Z</time></trkpt><trkpt lat="42.67722178461702" lon="13.268214964072818"><ele>763.0</ele><time>2026-04-19T12:23:50.001Z</time></trkpt><trkpt lat="42.677467559111186" lon="13.268331356711373"><ele>763.0</ele><time>2026-04-19T12:23:51.001Z</time></trkpt><trkpt lat="42.6777189909196" lon="13.268451443181153"><ele>763.0</ele><time>2026-04-19T12:23:52.001Z</time></trkpt><trkpt lat="42.67797766422427" lon="13.268569260821446"><ele>761.0</ele><time>2026-04-19T12:23:53.001Z</time></trkpt><trkpt lat="42.67823637730926" lon="13.268676959293384"><ele>759.0</ele><time>2026-04-19T12:23:54.001Z</time></trkpt><trkpt lat="42.678502407019316" lon="13.268775832973283"><ele>757.5</ele><time>2026-04-19T12:23:55.001Z</time></trkpt><trkpt lat="42.67876766340502" lon="13.268837962388817"><ele>756.0</ele><time>2026-04-19T12:23:56.001Z</time></trkpt><trkpt lat="42.67903378306967" lon="13.268863805289545"><ele>756.0</ele><time>2026-04-19T12:23:57.001Z</time></trkpt><trkpt lat="42.679302334938356" lon="13.26885665775129"><ele>756.0</ele><time>2026-04-19T12:23:58.001Z</time></trkpt><trkpt lat="42.679560682636584" lon="13.26881136727342"><ele>757.0</ele><time>2026-04-19T12:23:59.001Z</time></trkpt><trkpt lat="42.6798040841113" lon="13.268725346704931"><ele>758.0</ele><time>2026-04-19T12:24:00.001Z</time></trkpt><trkpt lat="42.68003014158818" lon="13.268604042829992"><ele>758.0</ele><time>2026-04-19T12:24:01.001Z</time></trkpt><trkpt lat="42.68025941439576" lon="13.268466561708836"><ele>758.0</ele><time>2026-04-19T12:24:02.001Z</time></trkpt><trkpt lat="42.680494556522504" lon="13.268332061184655"><ele>759.0</ele><time>2026-04-19T12:24:03.001Z</time></trkpt><trkpt lat="42.68071842708567" lon="13.268221731141843"><ele>760.0</ele><time>2026-04-19T12:24:04.001Z</time></trkpt><trkpt lat="42.68092939961071" lon="13.268120405857548"><ele>759.3333333333334</ele><time>2026-04-19T12:24:05.001Z</time></trkpt><trkpt lat="42.681128830752506" lon="13.26803553890055"><ele>758.6666666666666</ele><time>2026-04-19T12:24:06.001Z</time></trkpt><trkpt lat="42.68132053670862" lon="13.267964431609002"><ele>758.0</ele><time>2026-04-19T12:24:07.001Z</time></trkpt><trkpt lat="42.68151047746269" lon="13.267908785965057"><ele>758.0</ele><time>2026-04-19T12:24:08.001Z</time></trkpt><trkpt lat="42.681704668992545" lon="13.267883672489067"><ele>758.0</ele><time>2026-04-19T12:24:09.001Z</time></trkpt><trkpt lat="42.68189794541262" lon="13.267879898086173"><ele>758.0</ele><time>2026-04-19T12:24:10.002Z</time></trkpt><trkpt lat="42.68209308339906" lon="13.26789277733164"><ele>757.0</ele><time>2026-04-19T12:24:11.002Z</time></trkpt><trkpt lat="42.68228466597907" lon="13.267916470364066"><ele>756.0</ele><time>2026-04-19T12:24:12.002Z</time></trkpt><trkpt lat="42.682476142171936" lon="13.26794961205258"><ele>755.0</ele><time>2026-04-19T12:24:13.002Z</time></trkpt><trkpt lat="42.682666075621206" lon="13.267977234383258"><ele>753.6666666666666</ele><time>2026-04-19T12:24:14.002Z</time></trkpt><trkpt lat="42.682858883011626" lon="13.267994069283265"><ele>752.3333333333334</ele><time>2026-04-19T12:24:15.002Z</time></trkpt><trkpt lat="42.6830569850305" lon="13.268003625303953"><ele>751.0</ele><time>2026-04-19T12:24:16.002Z</time></trkpt><trkpt lat="42.683263103436715" lon="13.268006507512432"><ele>751.0</ele><time>2026-04-19T12:24:17.002Z</time></trkpt><trkpt lat="42.68348246606831" lon="13.26799748213761"><ele>751.0</ele><time>2026-04-19T12:24:18.002Z</time></trkpt><trkpt lat="42.68370891137145" lon="13.267965694743491"><ele>751.0</ele><time>2026-04-19T12:24:19.002Z</time></trkpt><trkpt lat="42.683935689996694" lon="13.26790943269512"><ele>750.5</ele><time>2026-04-19T12:24:20.002Z</time></trkpt><trkpt lat="42.68416346409456" lon="13.267827329861952"><ele>750.0</ele><time>2026-04-19T12:24:21.002Z</time></trkpt><trkpt lat="42.68439306845201" lon="13.267710245340512"><ele>755.0</ele><time>2026-04-19T12:24:22.002Z</time></trkpt><trkpt lat="42.6846356259478" lon="13.267554888433766"><ele>760.0</ele><time>2026-04-19T12:24:23.002Z</time></trkpt><trkpt lat="42.684883140080274" lon="13.267367733622198"><ele>760.5</ele><time>2026-04-19T12:24:24.002Z</time></trkpt><trkpt lat="42.685130797864424" lon="13.267142954671161"><ele>761.0</ele><time>2026-04-19T12:24:25.002Z</time></trkpt><trkpt lat="42.685363815168216" lon="13.266902739461695"><ele>761.0</ele><time>2026-04-19T12:24:26.002Z</time></trkpt><trkpt lat="42.685579671393405" lon="13.266653807367103"><ele>761.0</ele><time>2026-04-19T12:24:27.002Z</time></trkpt><trkpt lat="42.68579065312151" lon="13.266402759000945"><ele>755.5</ele><time>2026-04-19T12:24:28.002Z</time></trkpt><trkpt lat="42.686002009298704" lon="13.26615557699697"><ele>750.0</ele><time>2026-04-19T12:24:29.002Z</time></trkpt><trkpt lat="42.68621250718993" lon="13.265919604589865"><ele>749.5</ele><time>2026-04-19T12:24:30.002Z</time></trkpt><trkpt lat="42.68641199407709" lon="13.265690662177194"><ele>749.0</ele><time>2026-04-19T12:24:31.002Z</time></trkpt><trkpt lat="42.686609845416015" lon="13.265466457520851"><ele>750.5</ele><time>2026-04-19T12:24:32.002Z</time></trkpt><trkpt lat="42.68681850892157" lon="13.265238484597894"><ele>752.0</ele><time>2026-04-19T12:24:33.002Z</time></trkpt><trkpt lat="42.68702352020473" lon="13.26503582981067"><ele>752.0</ele><time>2026-04-19T12:24:34.002Z</time></trkpt><trkpt lat="42.68724349670256" lon="13.264857276851577"><ele>752.0</ele><time>2026-04-19T12:24:35.002Z</time></trkpt><trkpt lat="42.68748243279204" lon="13.264710405793354"><ele>757.0</ele><time>2026-04-19T12:24:36.002Z</time></trkpt><trkpt lat="42.68774600894426" lon="13.264581680741781"><ele>762.0</ele><time>2026-04-19T12:24:37.002Z</time></trkpt><trkpt lat="42.68802379252764" lon="13.264470710734232"><ele>762.0</ele><time>2026-04-19T12:24:38.002Z</time></trkpt><trkpt lat="42.688301447865534" lon="13.264379074055892"><ele>762.0</ele><time>2026-04-19T12:24:39.002Z</time></trkpt><trkpt lat="42.68857998144827" lon="13.264296607372938"><ele>756.0</ele><time>2026-04-19T12:24:40.002Z</time></trkpt><trkpt lat="42.688852024669366" lon="13.264215319490962"><ele>750.0</ele><time>2026-04-19T12:24:41.002Z</time></trkpt><trkpt lat="42.68911839028107" lon="13.264129612033493"><ele>750.0</ele><time>2026-04-19T12:24:42.002Z</time></trkpt><trkpt lat="42.68938679336181" lon="13.264039583016837"><ele>750.0</ele><time>2026-04-19T12:24:43.002Z</time></trkpt><trkpt lat="42.6896523262317" lon="13.263953927443499"><ele>750.5</ele><time>2026-04-19T12:24:44.002Z</time></trkpt><trkpt lat="42.689911905074354" lon="13.263867611801029"><ele>751.0</ele><time>2026-04-19T12:24:45.002Z</time></trkpt><trkpt lat="42.69017956510249" lon="13.263785041296945"><ele>744.5</ele><time>2026-04-19T12:24:46.002Z</time></trkpt><trkpt lat="42.69045695456736" lon="13.263716622809236"><ele>738.0</ele><time>2026-04-19T12:24:47.002Z</time></trkpt><trkpt lat="42.69073629606037" lon="13.26363169006698"><ele>738.0</ele><time>2026-04-19T12:24:48.002Z</time></trkpt><trkpt lat="42.69100750576116" lon="13.263516009395207"><ele>738.0</ele><time>2026-04-19T12:24:49.002Z</time></trkpt><trkpt lat="42.69127265872915" lon="13.263375099575498"><ele>739.5</ele><time>2026-04-19T12:24:50.002Z</time></trkpt><trkpt lat="42.69152679347803" lon="13.263209301240044"><ele>741.0</ele><time>2026-04-19T12:24:51.002Z</time></trkpt><trkpt lat="42.69177566368346" lon="13.26301368889409"><ele>742.5</ele><time>2026-04-19T12:24:52.002Z</time></trkpt><trkpt lat="42.69200386794343" lon="13.26279220734363"><ele>744.0</ele><time>2026-04-19T12:24:53.002Z</time></trkpt><trkpt lat="42.69222579538636" lon="13.262541410455894"><ele>741.5</ele><time>2026-04-19T12:24:54.001Z</time></trkpt><trkpt lat="42.69244504765525" lon="13.262256293887702"><ele>739.0</ele><time>2026-04-19T12:24:55.001Z</time></trkpt><trkpt lat="42.692650121324654" lon="13.261949866525233"><ele>738.5</ele><time>2026-04-19T12:24:56.001Z</time></trkpt><trkpt lat="42.69284366276123" lon="13.261621491345375"><ele>738.0</ele><time>2026-04-19T12:24:57.001Z</time></trkpt><trkpt lat="42.693028937239745" lon="13.261283426799"><ele>738.0</ele><time>2026-04-19T12:24:58.001Z</time></trkpt><trkpt lat="42.69320220963973" lon="13.26094234089532"><ele>738.0</ele><time>2026-04-19T12:24:59.001Z</time></trkpt><trkpt lat="42.69335853053714" lon="13.260618088431434"><ele>737.5</ele><time>2026-04-19T12:25:00.001Z</time></trkpt><trkpt lat="42.693509443749015" lon="13.260298364575867"><ele>737.0</ele><time>2026-04-19T12:25:01.001Z</time></trkpt><trkpt lat="42.69365919046101" lon="13.259997990438631"><ele>737.5</ele><time>2026-04-19T12:25:02.001Z</time></trkpt><trkpt lat="42.69381914129009" lon="13.25967730934933"><ele>738.0</ele><time>2026-04-19T12:25:03.001Z</time></trkpt><trkpt lat="42.69396980804728" lon="13.259361891397146"><ele>738.0</ele><time>2026-04-19T12:25:04.001Z</time></trkpt><trkpt lat="42.69412279660379" lon="13.25904668956992"><ele>738.0</ele><time>2026-04-19T12:25:05.001Z</time></trkpt><trkpt lat="42.69428004439083" lon="13.258727821533007"><ele>745.0</ele><time>2026-04-19T12:25:06.001Z</time></trkpt><trkpt lat="42.69443821750507" lon="13.258414992942166"><ele>752.0</ele><time>2026-04-19T12:25:07.001Z</time></trkpt><trkpt lat="42.694597241458204" lon="13.258098690304548"><ele>752.0</ele><time>2026-04-19T12:25:08.001Z</time></trkpt><trkpt lat="42.69475579822518" lon="13.257779083705952"><ele>752.0</ele><time>2026-04-19T12:25:09.001Z</time></trkpt><trkpt lat="42.69491537218194" lon="13.25746499858071"><ele>750.5</ele><time>2026-04-19T12:25:10.001Z</time></trkpt><trkpt lat="42.69507318455196" lon="13.25714664614015"><ele>749.0</ele><time>2026-04-19T12:25:11.001Z</time></trkpt><trkpt lat="42.695228780545506" lon="13.25683202060334"><ele>748.5</ele><time>2026-04-19T12:25:12.001Z</time></trkpt><trkpt lat="42.695388034226035" lon="13.256511937412387"><ele>748.0</ele><time>2026-04-19T12:25:13.001Z</time></trkpt><trkpt lat="42.695536169595904" lon="13.25619360065178"><ele>748.0</ele><time>2026-04-19T12:25:14.001Z</time></trkpt><trkpt lat="42.695692069101355" lon="13.25586932014099"><ele>748.0</ele><time>2026-04-19T12:25:15.001Z</time></trkpt><trkpt lat="42.69584863660974" lon="13.255546538610778"><ele>749.5</ele><time>2026-04-19T12:25:16.001Z</time></trkpt><trkpt lat="42.69599537745045" lon="13.255250939378776"><ele>751.0</ele><time>2026-04-19T12:25:17.001Z</time></trkpt><trkpt lat="42.696142323900666" lon="13.2549655048375"><ele>746.0</ele><time>2026-04-19T12:25:18.001Z</time></trkpt><trkpt lat="42.69628129838326" lon="13.254688129064439"><ele>741.0</ele><time>2026-04-19T12:25:19.001Z</time></trkpt><trkpt lat="42.69641797647808" lon="13.25440847393359"><ele>741.0</ele><time>2026-04-19T12:25:20.001Z</time></trkpt><trkpt lat="42.6965855835268" lon="13.254156389516481"><ele>741.0</ele><time>2026-04-19T12:25:21.001Z</time></trkpt><trkpt lat="42.69673099090493" lon="13.253884097238108"><ele>740.0</ele><time>2026-04-19T12:25:22.001Z</time></trkpt><trkpt lat="42.696873598368654" lon="13.25363113480638"><ele>739.0</ele><time>2026-04-19T12:25:23.001Z</time></trkpt><trkpt lat="42.697031377708285" lon="13.253413624318018"><ele>739.0</ele><time>2026-04-19T12:25:24.001Z</time></trkpt><trkpt lat="42.697215234552466" lon="13.253198208815093"><ele>739.0</ele><time>2026-04-19T12:25:25.001Z</time></trkpt><trkpt lat="42.69740931135728" lon="13.252987992153376"><ele>730.0</ele><time>2026-04-19T12:25:26.001Z</time></trkpt><trkpt lat="42.69761782575325" lon="13.252781070267561"><ele>721.0</ele><time>2026-04-19T12:25:27.001Z</time></trkpt><trkpt lat="42.697839255736554" lon="13.252602360581088"><ele>719.5</ele><time>2026-04-19T12:25:28.001Z</time></trkpt><trkpt lat="42.69806403360499" lon="13.252446586238243"><ele>718.0</ele><time>2026-04-19T12:25:29.001Z</time></trkpt><trkpt lat="42.698291933103114" lon="13.25231533930693"><ele>718.0</ele><time>2026-04-19T12:25:30.001Z</time></trkpt><trkpt lat="42.69852529317344" lon="13.252206752085282"><ele>718.0</ele><time>2026-04-19T12:25:31.001Z</time></trkpt><trkpt lat="42.698996339606744" lon="13.252030922582858"><ele>718.0</ele><time>2026-04-19T12:25:33.001Z</time></trkpt><trkpt lat="42.69923287543613" lon="13.251997223054236"><ele>718.0</ele><time>2026-04-19T12:25:34.001Z</time></trkpt><trkpt lat="42.6994744297838" lon="13.251982986477048"><ele>721.5</ele><time>2026-04-19T12:25:35.001Z</time></trkpt><trkpt lat="42.69971873540284" lon="13.251992278556179"><ele>725.0</ele><time>2026-04-19T12:25:36.001Z</time></trkpt><trkpt lat="42.69997383951271" lon="13.252029050453816"><ele>725.0</ele><time>2026-04-19T12:25:37.001Z</time></trkpt><trkpt lat="42.70023624042181" lon="13.252089858739913"><ele>725.0</ele><time>2026-04-19T12:25:38.001Z</time></trkpt><trkpt lat="42.700508245739" lon="13.252169959085505"><ele>723.0</ele><time>2026-04-19T12:25:39.001Z</time></trkpt><trkpt lat="42.70078095081156" lon="13.252276237256954"><ele>721.0</ele><time>2026-04-19T12:25:40.001Z</time></trkpt><trkpt lat="42.70106640459533" lon="13.252414119588938"><ele>726.0</ele><time>2026-04-19T12:25:41.001Z</time></trkpt><trkpt lat="42.70135308340967" lon="13.252590333415133"><ele>731.0</ele><time>2026-04-19T12:25:42.001Z</time></trkpt><trkpt lat="42.701634001501105" lon="13.252778192088325"><ele>731.0</ele><time>2026-04-19T12:25:43.001Z</time></trkpt><trkpt lat="42.70191307073647" lon="13.252963360459805"><ele>731.0</ele><time>2026-04-19T12:25:44.001Z</time></trkpt><trkpt lat="42.702196192986605" lon="13.25313539911166"><ele>729.5</ele><time>2026-04-19T12:25:45.001Z</time></trkpt><trkpt lat="42.702475961757024" lon="13.253298775506957"><ele>728.0</ele><time>2026-04-19T12:25:46.001Z</time></trkpt><trkpt lat="42.70274951952365" lon="13.253445850240542"><ele>732.5</ele><time>2026-04-19T12:25:47.001Z</time></trkpt><trkpt lat="42.70302939979489" lon="13.253577026139308"><ele>737.0</ele><time>2026-04-19T12:25:48.001Z</time></trkpt><trkpt lat="42.70330705805863" lon="13.25368985044144"><ele>738.5</ele><time>2026-04-19T12:25:49.001Z</time></trkpt><trkpt lat="42.70359315025656" lon="13.253781783693114"><ele>740.0</ele><time>2026-04-19T12:25:50.001Z</time></trkpt><trkpt lat="42.70388496734998" lon="13.253848734761476"><ele>740.0</ele><time>2026-04-19T12:25:51.001Z</time></trkpt><trkpt lat="42.70416825411213" lon="13.253904337701197"><ele>740.0</ele><time>2026-04-19T12:25:52.001Z</time></trkpt><trkpt lat="42.70444311274571" lon="13.2539628122919"><ele>731.5</ele><time>2026-04-19T12:25:53.001Z</time></trkpt><trkpt lat="42.70471466957159" lon="13.254027363074544"><ele>723.0</ele><time>2026-04-19T12:25:54.001Z</time></trkpt><trkpt lat="42.70499502096276" lon="13.254094991983129"><ele>723.5</ele><time>2026-04-19T12:25:55.001Z</time></trkpt><trkpt lat="42.70528673229351" lon="13.254168280930733"><ele>724.0</ele><time>2026-04-19T12:25:56.001Z</time></trkpt><trkpt lat="42.70558013191353" lon="13.254248472054602"><ele>724.0</ele><time>2026-04-19T12:25:57.001Z</time></trkpt><trkpt lat="42.705875017214886" lon="13.254352099962972"><ele>724.0</ele><time>2026-04-19T12:25:58.001Z</time></trkpt><trkpt lat="42.706175540827935" lon="13.254485243011274"><ele>727.0</ele><time>2026-04-19T12:25:59.001Z</time></trkpt><trkpt lat="42.706466470503116" lon="13.254623982706727"><ele>730.0</ele><time>2026-04-19T12:26:00.001Z</time></trkpt><trkpt lat="42.706753386959946" lon="13.254765610547107"><ele>722.5</ele><time>2026-04-19T12:26:01.001Z</time></trkpt><trkpt lat="42.70703484963946" lon="13.254898886601353"><ele>715.0</ele><time>2026-04-19T12:26:02.001Z</time></trkpt><trkpt lat="42.70732134565128" lon="13.255023027073904"><ele>715.0</ele><time>2026-04-19T12:26:03.001Z</time></trkpt><trkpt lat="42.70760590546129" lon="13.255147332011731"><ele>715.0</ele><time>2026-04-19T12:26:04.001Z</time></trkpt><trkpt lat="42.70787736699615" lon="13.255270733099"><ele>717.5</ele><time>2026-04-19T12:26:05.001Z</time></trkpt><trkpt lat="42.70813044268662" lon="13.255389921892135"><ele>720.0</ele><time>2026-04-19T12:26:06.001Z</time></trkpt><trkpt lat="42.70836987256572" lon="13.25549952452834"><ele>720.0</ele><time>2026-04-19T12:26:07.001Z</time></trkpt><trkpt lat="42.70859877642622" lon="13.255603416026553"><ele>720.0</ele><time>2026-04-19T12:26:08.001Z</time></trkpt><trkpt lat="42.7088083146525" lon="13.255708213519403"><ele>716.6666666666666</ele><time>2026-04-19T12:26:09.001Z</time></trkpt><trkpt lat="42.709007796944526" lon="13.25581625720021"><ele>713.3333333333333</ele><time>2026-04-19T12:26:10.001Z</time></trkpt><trkpt lat="42.7091988330773" lon="13.255921236831313"><ele>710.0</ele><time>2026-04-19T12:26:11.001Z</time></trkpt><trkpt lat="42.709386962716216" lon="13.256029781930202"><ele>711.0</ele><time>2026-04-19T12:26:12.001Z</time></trkpt><trkpt lat="42.709578477772226" lon="13.25614611037758"><ele>712.0</ele><time>2026-04-19T12:26:13.001Z</time></trkpt><trkpt lat="42.70977106830254" lon="13.256272553099521"><ele>713.0</ele><time>2026-04-19T12:26:14.001Z</time></trkpt><trkpt lat="42.70996172601863" lon="13.256399169299558"><ele>710.3333333333333</ele><time>2026-04-19T12:26:15.001Z</time></trkpt><trkpt lat="42.71015501896164" lon="13.256518075964948"><ele>707.6666666666666</ele><time>2026-04-19T12:26:16.001Z</time></trkpt><trkpt lat="42.710352475369604" lon="13.256631919816218"><ele>705.0</ele><time>2026-04-19T12:26:17.001Z</time></trkpt><trkpt lat="42.71054895995943" lon="13.25672650825497"><ele>704.6666666666666</ele><time>2026-04-19T12:26:18.001Z</time></trkpt><trkpt lat="42.71074908033146" lon="13.256838927723923"><ele>704.3333333333333</ele><time>2026-04-19T12:26:19.001Z</time></trkpt><trkpt lat="42.71094723561688" lon="13.256940265189987"><ele>704.0</ele><time>2026-04-19T12:26:20.001Z</time></trkpt><trkpt lat="42.71114850392503" lon="13.257035092596295"><ele>704.0</ele><time>2026-04-19T12:26:21.001Z</time></trkpt><trkpt lat="42.711349971434075" lon="13.257117049720987"><ele>704.0</ele><time>2026-04-19T12:26:22.001Z</time></trkpt><trkpt lat="42.71155606819236" lon="13.257199295509972"><ele>704.0</ele><time>2026-04-19T12:26:23.001Z</time></trkpt><trkpt lat="42.71176581365068" lon="13.2572680178312"><ele>704.6666666666666</ele><time>2026-04-19T12:26:24.001Z</time></trkpt><trkpt lat="42.71197310861056" lon="13.257334547654237"><ele>705.3333333333334</ele><time>2026-04-19T12:26:25.001Z</time></trkpt><trkpt lat="42.712184225202854" lon="13.257391791014996"><ele>706.0</ele><time>2026-04-19T12:26:26.001Z</time></trkpt><trkpt lat="42.712390666689934" lon="13.257452239834674"><ele>706.0</ele><time>2026-04-19T12:26:27.001Z</time></trkpt><trkpt lat="42.71259985707518" lon="13.257512803975548"><ele>706.0</ele><time>2026-04-19T12:26:28.001Z</time></trkpt><trkpt lat="42.712810384178866" lon="13.257566047081198"><ele>706.0</ele><time>2026-04-19T12:26:29.001Z</time></trkpt><trkpt lat="42.713017982365" lon="13.25761986610762"><ele>705.6666666666667</ele><time>2026-04-19T12:26:30.001Z</time></trkpt><trkpt lat="42.71322688468768" lon="13.257677415995047"><ele>705.3333333333334</ele><time>2026-04-19T12:26:31.001Z</time></trkpt><trkpt lat="42.71343602395215" lon="13.257740328132977"><ele>705.0</ele><time>2026-04-19T12:26:32.001Z</time></trkpt><trkpt lat="42.713643102261756" lon="13.257810195913693"><ele>705.0</ele><time>2026-04-19T12:26:33.001Z</time></trkpt><trkpt lat="42.71385217974961" lon="13.257881608679037"><ele>705.0</ele><time>2026-04-19T12:26:34.001Z</time></trkpt><trkpt lat="42.714057636630535" lon="13.257965255008653"><ele>705.0</ele><time>2026-04-19T12:26:35.001Z</time></trkpt><trkpt lat="42.714262279226475" lon="13.258054852317652"><ele>703.6666666666666</ele><time>2026-04-19T12:26:36.001Z</time></trkpt><trkpt lat="42.714462676347736" lon="13.258151608976512"><ele>702.3333333333333</ele><time>2026-04-19T12:26:37.001Z</time></trkpt><trkpt lat="42.71466333897295" lon="13.258255361549201"><ele>701.0</ele><time>2026-04-19T12:26:38.001Z</time></trkpt><trkpt lat="42.71486091457137" lon="13.258364568413624"><ele>701.0</ele><time>2026-04-19T12:26:39.001Z</time></trkpt><trkpt lat="42.71505762845518" lon="13.258476425087556"><ele>701.0</ele><time>2026-04-19T12:26:40.001Z</time></trkpt><trkpt lat="42.71525528947172" lon="13.258595698795983"><ele>701.0</ele><time>2026-04-19T12:26:41.001Z</time></trkpt><trkpt lat="42.71544997486096" lon="13.258721564255339"><ele>700.6666666666666</ele><time>2026-04-19T12:26:42.001Z</time></trkpt><trkpt lat="42.71564417047911" lon="13.258850256586493"><ele>700.3333333333334</ele><time>2026-04-19T12:26:43.001Z</time></trkpt><trkpt lat="42.715834446795526" lon="13.258983029015141"><ele>700.0</ele><time>2026-04-19T12:26:44.001Z</time></trkpt><trkpt lat="42.71602500907212" lon="13.259106183805065"><ele>702.0</ele><time>2026-04-19T12:26:45.001Z</time></trkpt><trkpt lat="42.71621808086883" lon="13.259237255820507"><ele>704.0</ele><time>2026-04-19T12:26:46.001Z</time></trkpt><trkpt lat="42.71640926273245" lon="13.259364216409917"><ele>706.0</ele><time>2026-04-19T12:26:47.001Z</time></trkpt><trkpt lat="42.716602612637104" lon="13.259487852571402"><ele>706.0</ele><time>2026-04-19T12:26:48.001Z</time></trkpt><trkpt lat="42.716795697454174" lon="13.259612650044534"><ele>706.0</ele><time>2026-04-19T12:26:49.001Z</time></trkpt><trkpt lat="42.716989346991255" lon="13.259737375721375"><ele>706.0</ele><time>2026-04-19T12:26:50.001Z</time></trkpt><trkpt lat="42.71718135945064" lon="13.259862891434619"><ele>707.0</ele><time>2026-04-19T12:26:51.001Z</time></trkpt><trkpt lat="42.71737384699837" lon="13.25999267049987"><ele>708.0</ele><time>2026-04-19T12:26:52.001Z</time></trkpt><trkpt lat="42.71756160702917" lon="13.260120596007766"><ele>709.0</ele><time>2026-04-19T12:26:53.001Z</time></trkpt><trkpt lat="42.71775133044946" lon="13.260251256048818"><ele>706.6666666666667</ele><time>2026-04-19T12:26:54.001Z</time></trkpt><trkpt lat="42.71794262838163" lon="13.260382768773976"><ele>704.3333333333334</ele><time>2026-04-19T12:26:55.001Z</time></trkpt><trkpt lat="42.718134052950994" lon="13.260512316203195"><ele>702.0</ele><time>2026-04-19T12:26:56.001Z</time></trkpt><trkpt lat="42.718327110426706" lon="13.260644243625118"><ele>702.0</ele><time>2026-04-19T12:26:57.001Z</time></trkpt><trkpt lat="42.718518909032205" lon="13.260771565893103"><ele>702.0</ele><time>2026-04-19T12:26:58.001Z</time></trkpt><trkpt lat="42.71871014063843" lon="13.260900441539002"><ele>702.0</ele><time>2026-04-19T12:26:59.001Z</time></trkpt><trkpt lat="42.718901073561845" lon="13.261030136534822"><ele>701.6666666666666</ele><time>2026-04-19T12:27:00.001Z</time></trkpt><trkpt lat="42.71909194005305" lon="13.261159172885788"><ele>701.3333333333333</ele><time>2026-04-19T12:27:01.001Z</time></trkpt><trkpt lat="42.71928281551985" lon="13.261290049401072"><ele>701.0</ele><time>2026-04-19T12:27:02.001Z</time></trkpt><trkpt lat="42.71947115130217" lon="13.261420378965896"><ele>700.6666666666666</ele><time>2026-04-19T12:27:03.001Z</time></trkpt><trkpt lat="42.71966149025733" lon="13.26154650179474"><ele>700.3333333333334</ele><time>2026-04-19T12:27:04.001Z</time></trkpt><trkpt lat="42.719851989083935" lon="13.261672008027027"><ele>700.0</ele><time>2026-04-19T12:27:05.001Z</time></trkpt><trkpt lat="42.72004766018819" lon="13.261791422860904"><ele>699.0</ele><time>2026-04-19T12:27:06.001Z</time></trkpt><trkpt lat="42.720239474458054" lon="13.261910814986663"><ele>698.0</ele><time>2026-04-19T12:27:07.001Z</time></trkpt><trkpt lat="42.72043157463593" lon="13.262036579456106"><ele>697.0</ele><time>2026-04-19T12:27:08.001Z</time></trkpt><trkpt lat="42.72062183391016" lon="13.262167319419566"><ele>698.6666666666667</ele><time>2026-04-19T12:27:09.001Z</time></trkpt><trkpt lat="42.72081072238451" lon="13.262301722155462"><ele>700.3333333333334</ele><time>2026-04-19T12:27:10.001Z</time></trkpt><trkpt lat="42.72100015180206" lon="13.262433399303458"><ele>702.0</ele><time>2026-04-19T12:27:11.001Z</time></trkpt><trkpt lat="42.72119067810602" lon="13.262565848722838"><ele>702.0</ele><time>2026-04-19T12:27:12.001Z</time></trkpt><trkpt lat="42.72138323363896" lon="13.262694990940556"><ele>702.0</ele><time>2026-04-19T12:27:13.001Z</time></trkpt><trkpt lat="42.72157455198153" lon="13.26282309584619"><ele>702.0</ele><time>2026-04-19T12:27:14.001Z</time></trkpt><trkpt lat="42.721768702418366" lon="13.262949429302484"><ele>702.3333333333334</ele><time>2026-04-19T12:27:15.001Z</time></trkpt><trkpt lat="42.721960007792184" lon="13.263077269382277"><ele>702.6666666666667</ele><time>2026-04-19T12:27:16.001Z</time></trkpt><trkpt lat="42.72214712595672" lon="13.263207035861523"><ele>703.0</ele><time>2026-04-19T12:27:17.001Z</time></trkpt><trkpt lat="42.72234000365638" lon="13.263335453799028"><ele>703.0</ele><time>2026-04-19T12:27:18.001Z</time></trkpt><trkpt lat="42.72253514900242" lon="13.263465344339725"><ele>703.0</ele><time>2026-04-19T12:27:19.001Z</time></trkpt><trkpt lat="42.72272732561706" lon="13.263589110436623"><ele>703.0</ele><time>2026-04-19T12:27:20.001Z</time></trkpt><trkpt lat="42.72291725507201" lon="13.263714052801106"><ele>703.0</ele><time>2026-04-19T12:27:21.001Z</time></trkpt><trkpt lat="42.72311069152748" lon="13.263840536173042"><ele>703.0</ele><time>2026-04-19T12:27:22.001Z</time></trkpt><trkpt lat="42.723302873163014" lon="13.26396721248949"><ele>703.0</ele><time>2026-04-19T12:27:23.001Z</time></trkpt><trkpt lat="42.7234938150038" lon="13.2640943388196"><ele>705.0</ele><time>2026-04-19T12:27:24.001Z</time></trkpt><trkpt lat="42.72368685263057" lon="13.264221488593789"><ele>707.0</ele><time>2026-04-19T12:27:25.001Z</time></trkpt><trkpt lat="42.72388021511934" lon="13.26434293383514"><ele>709.0</ele><time>2026-04-19T12:27:26.001Z</time></trkpt><trkpt lat="42.724077727854215" lon="13.264454711099875"><ele>709.0</ele><time>2026-04-19T12:27:27.001Z</time></trkpt><trkpt lat="42.7242744448951" lon="13.264549408904236"><ele>709.0</ele><time>2026-04-19T12:27:28.001Z</time></trkpt><trkpt lat="42.72448027721765" lon="13.264629655897618"><ele>709.0</ele><time>2026-04-19T12:27:29.001Z</time></trkpt><trkpt lat="42.72468674269147" lon="13.264691954657794"><ele>711.3333333333334</ele><time>2026-04-19T12:27:30.001Z</time></trkpt><trkpt lat="42.7248951633646" lon="13.26475391691855"><ele>713.6666666666666</ele><time>2026-04-19T12:27:31.001Z</time></trkpt><trkpt lat="42.72510507284663" lon="13.264816298061584"><ele>716.0</ele><time>2026-04-19T12:27:32.001Z</time></trkpt><trkpt lat="42.725314507045965" lon="13.264891043727111"><ele>708.0</ele><time>2026-04-19T12:27:33Z</time></trkpt><trkpt lat="42.72551357288867" lon="13.264982461778684"><ele>700.0</ele><time>2026-04-19T12:27:34Z</time></trkpt><trkpt lat="42.725711324628755" lon="13.265090178884543"><ele>692.0</ele><time>2026-04-19T12:27:35Z</time></trkpt><trkpt lat="42.72590787684358" lon="13.265203371148438"><ele>692.0</ele><time>2026-04-19T12:27:36Z</time></trkpt><trkpt lat="42.72609781263949" lon="13.265332856463928"><ele>692.0</ele><time>2026-04-19T12:27:37Z</time></trkpt><trkpt lat="42.72629090183601" lon="13.265471060971823"><ele>692.0</ele><time>2026-04-19T12:27:38Z</time></trkpt><trkpt lat="42.72646942904407" lon="13.265624817234219"><ele>692.0</ele><time>2026-04-19T12:27:39Z</time></trkpt><trkpt lat="42.726638798202" lon="13.265795333653768"><ele>692.0</ele><time>2026-04-19T12:27:40Z</time></trkpt><trkpt lat="42.72679939563731" lon="13.265989779237575"><ele>692.0</ele><time>2026-04-19T12:27:41Z</time></trkpt><trkpt lat="42.726941801167285" lon="13.26618197175681"><ele>692.3333333333333</ele><time>2026-04-19T12:27:42Z</time></trkpt><trkpt lat="42.72707195938646" lon="13.266380032003452"><ele>692.6666666666666</ele><time>2026-04-19T12:27:43Z</time></trkpt><trkpt lat="42.72720368090951" lon="13.266589340975653"><ele>693.0</ele><time>2026-04-19T12:27:44Z</time></trkpt><trkpt lat="42.72732954339923" lon="13.266807019862453"><ele>691.3333333333334</ele><time>2026-04-19T12:27:45Z</time></trkpt><trkpt lat="42.727450167578446" lon="13.267031304736523"><ele>689.6666666666667</ele><time>2026-04-19T12:27:46Z</time></trkpt><trkpt lat="42.72756074691917" lon="13.26724492953726"><ele>688.0</ele><time>2026-04-19T12:27:47Z</time></trkpt><trkpt lat="42.72766516978822" lon="13.26744161249601"><ele>688.0</ele><time>2026-04-19T12:27:48Z</time></trkpt><trkpt lat="42.72777141800759" lon="13.267625021163216"><ele>688.0</ele><time>2026-04-19T12:27:49Z</time></trkpt><trkpt lat="42.727879178088656" lon="13.267798069237665"><ele>688.0</ele><time>2026-04-19T12:27:50.001Z</time></trkpt><trkpt lat="42.72799495887534" lon="13.267965548606174"><ele>688.0</ele><time>2026-04-19T12:27:51.001Z</time></trkpt><trkpt lat="42.72811859385561" lon="13.26812302467299"><ele>688.0</ele><time>2026-04-19T12:27:52.001Z</time></trkpt><trkpt lat="42.728248871690745" lon="13.26827548289745"><ele>688.0</ele><time>2026-04-19T12:27:53.001Z</time></trkpt><trkpt lat="42.72838465927317" lon="13.26841970769723"><ele>688.0</ele><time>2026-04-19T12:27:54.001Z</time></trkpt><trkpt lat="42.72849907722238" lon="13.268591846167276"><ele>688.0</ele><time>2026-04-19T12:27:55.001Z</time></trkpt><trkpt lat="42.72862581207363" lon="13.268744747014507"><ele>688.0</ele><time>2026-04-19T12:27:56.001Z</time></trkpt><trkpt lat="42.7288201351069" lon="13.268791451495423"><ele>688.0</ele><time>2026-04-19T12:27:57.001Z</time></trkpt><trkpt lat="42.72897442387853" lon="13.268897947259358"><ele>688.0</ele><time>2026-04-19T12:27:58.001Z</time></trkpt><trkpt lat="42.72913141408869" lon="13.268994823514626"><ele>688.0</ele><time>2026-04-19T12:27:59.001Z</time></trkpt><trkpt lat="42.72929105338079" lon="13.269081247167087"><ele>687.6666666666667</ele><time>2026-04-19T12:28:00.001Z</time></trkpt><trkpt lat="42.72945517726413" lon="13.269157618375454"><ele>687.3333333333334</ele><time>2026-04-19T12:28:01.001Z</time></trkpt><trkpt lat="42.72962143733949" lon="13.269222115649429"><ele>687.0</ele><time>2026-04-19T12:28:02.001Z</time></trkpt><trkpt lat="42.72978783906094" lon="13.269275657823536"><ele>687.0</ele><time>2026-04-19T12:28:03.001Z</time></trkpt><trkpt lat="42.729955777212716" lon="13.269324859414633"><ele>687.0</ele><time>2026-04-19T12:28:04.001Z</time></trkpt><trkpt lat="42.73012543758283" lon="13.269361748606077"><ele>687.0</ele><time>2026-04-19T12:28:05.001Z</time></trkpt><trkpt lat="42.730297784438164" lon="13.269384353310619"><ele>686.3333333333334</ele><time>2026-04-19T12:28:06.001Z</time></trkpt><trkpt lat="42.730468457441106" lon="13.269390573173364"><ele>685.6666666666667</ele><time>2026-04-19T12:28:07.001Z</time></trkpt><trkpt lat="42.730640798742996" lon="13.269390882446338"><ele>685.0</ele><time>2026-04-19T12:28:08.001Z</time></trkpt><trkpt lat="42.73081333285363" lon="13.26938622254316"><ele>685.0</ele><time>2026-04-19T12:28:09.001Z</time></trkpt><trkpt lat="42.730985783784824" lon="13.26936156064819"><ele>685.0</ele><time>2026-04-19T12:28:10.001Z</time></trkpt><trkpt lat="42.731154231835426" lon="13.269325117084406"><ele>685.0</ele><time>2026-04-19T12:28:11.001Z</time></trkpt><trkpt lat="42.731320555433015" lon="13.269277839019303"><ele>685.3333333333334</ele><time>2026-04-19T12:28:12.001Z</time></trkpt><trkpt lat="42.731488380258334" lon="13.269222976847272"><ele>685.6666666666666</ele><time>2026-04-19T12:28:13.001Z</time></trkpt><trkpt lat="42.7316531687806" lon="13.269152021105532"><ele>686.0</ele><time>2026-04-19T12:28:14.001Z</time></trkpt><trkpt lat="42.73181602080383" lon="13.269070974666393"><ele>686.3333333333333</ele><time>2026-04-19T12:28:15.001Z</time></trkpt><trkpt lat="42.731974629134406" lon="13.268983520929847"><ele>686.6666666666666</ele><time>2026-04-19T12:28:16.001Z</time></trkpt><trkpt lat="42.732130344837614" lon="13.268886321999219"><ele>687.0</ele><time>2026-04-19T12:28:17.001Z</time></trkpt><trkpt lat="42.7322822029382" lon="13.268776126057059"><ele>685.6666666666666</ele><time>2026-04-19T12:28:18.001Z</time></trkpt><trkpt lat="42.73242611661182" lon="13.268656017444862"><ele>684.3333333333333</ele><time>2026-04-19T12:28:19.001Z</time></trkpt><trkpt lat="42.732564993038544" lon="13.268524810272428"><ele>683.0</ele><time>2026-04-19T12:28:20.001Z</time></trkpt><trkpt lat="42.73270277198506" lon="13.268389591140213"><ele>684.0</ele><time>2026-04-19T12:28:21.001Z</time></trkpt><trkpt lat="42.73283918820603" lon="13.268249823707597"><ele>685.0</ele><time>2026-04-19T12:28:22.001Z</time></trkpt><trkpt lat="42.73297487371076" lon="13.268101600741891"><ele>686.0</ele><time>2026-04-19T12:28:23.001Z</time></trkpt><trkpt lat="42.73310703542996" lon="13.26794692448849"><ele>686.0</ele><time>2026-04-19T12:28:24.001Z</time></trkpt><trkpt lat="42.733232725163845" lon="13.267788814922348"><ele>686.0</ele><time>2026-04-19T12:28:25.001Z</time></trkpt><trkpt lat="42.733359678671604" lon="13.267626328169655"><ele>686.0</ele><time>2026-04-19T12:28:26.001Z</time></trkpt><trkpt lat="42.733491892012545" lon="13.267478118763206"><ele>686.3333333333333</ele><time>2026-04-19T12:28:27.001Z</time></trkpt><trkpt lat="42.733626532896956" lon="13.267327857543943"><ele>686.6666666666666</ele><time>2026-04-19T12:28:28.001Z</time></trkpt><trkpt lat="42.73376422738641" lon="13.267181726880006"><ele>687.0</ele><time>2026-04-19T12:28:29.001Z</time></trkpt><trkpt lat="42.73389900106487" lon="13.267038175747816"><ele>686.3333333333334</ele><time>2026-04-19T12:28:30.001Z</time></trkpt><trkpt lat="42.73403616211216" lon="13.266892710269222"><ele>685.6666666666667</ele><time>2026-04-19T12:28:31.001Z</time></trkpt><trkpt lat="42.73417479614636" lon="13.266749436465451"><ele>685.0</ele><time>2026-04-19T12:28:32.001Z</time></trkpt><trkpt lat="42.734319343517505" lon="13.266612550922812"><ele>685.3333333333334</ele><time>2026-04-19T12:28:33.001Z</time></trkpt><trkpt lat="42.73446704067689" lon="13.266485427748657"><ele>685.6666666666666</ele><time>2026-04-19T12:28:34.001Z</time></trkpt><trkpt lat="42.73461458647679" lon="13.266365553133097"><ele>686.0</ele><time>2026-04-19T12:28:35.001Z</time></trkpt><trkpt lat="42.73476753349757" lon="13.266242856065332"><ele>685.0</ele><time>2026-04-19T12:28:36.001Z</time></trkpt><trkpt lat="42.73492398681782" lon="13.26610558136325"><ele>684.0</ele><time>2026-04-19T12:28:37.001Z</time></trkpt><trkpt lat="42.735100782752525" lon="13.265962840215634"><ele>683.0</ele><time>2026-04-19T12:28:38.001Z</time></trkpt><trkpt lat="42.73526982950971" lon="13.265838827721362"><ele>682.3333333333333</ele><time>2026-04-19T12:28:39.001Z</time></trkpt><trkpt lat="42.73543072926127" lon="13.265726596740532"><ele>681.6666666666666</ele><time>2026-04-19T12:28:40.001Z</time></trkpt><trkpt lat="42.73558382001421" lon="13.265635374980745"><ele>681.0</ele><time>2026-04-19T12:28:41.001Z</time></trkpt><trkpt lat="42.7357366328973" lon="13.265548267885775"><ele>680.6666666666666</ele><time>2026-04-19T12:28:42.001Z</time></trkpt><trkpt lat="42.735889110724145" lon="13.265458813040574"><ele>680.3333333333333</ele><time>2026-04-19T12:28:43.001Z</time></trkpt><trkpt lat="42.73604753511445" lon="13.265371313994716"><ele>680.0</ele><time>2026-04-19T12:28:44.001Z</time></trkpt><trkpt lat="42.73619626826831" lon="13.265299991095873"><ele>679.75</ele><time>2026-04-19T12:28:45.001Z</time></trkpt><trkpt lat="42.736328999118875" lon="13.265254791845582"><ele>679.5</ele><time>2026-04-19T12:28:46.001Z</time></trkpt><trkpt lat="42.73645836243099" lon="13.2652372187124"><ele>679.25</ele><time>2026-04-19T12:28:47.001Z</time></trkpt><trkpt lat="42.73658648597391" lon="13.265257626172938"><ele>679.0</ele><time>2026-04-19T12:28:48.001Z</time></trkpt><trkpt lat="42.73670487519673" lon="13.2652923990175"><ele>679.0</ele><time>2026-04-19T12:28:49.001Z</time></trkpt><trkpt lat="42.73679151533059" lon="13.265284731295496"><ele>679.0</ele><time>2026-04-19T12:28:50.001Z</time></trkpt><trkpt lat="42.736860661518854" lon="13.2652103204926"><ele>679.0</ele><time>2026-04-19T12:28:51.001Z</time></trkpt><trkpt lat="42.73694056041128" lon="13.265091987479543"><ele>679.0</ele><time>2026-04-19T12:28:52.001Z</time></trkpt><trkpt lat="42.73706910503676" lon="13.264985348226828"><ele>679.0</ele><time>2026-04-19T12:28:53.001Z</time></trkpt><trkpt lat="42.73724903265618" lon="13.264916565976442"><ele>677.6666666666667</ele><time>2026-04-19T12:28:54.001Z</time></trkpt><trkpt lat="42.73746069497521" lon="13.264861882743649"><ele>676.3333333333334</ele><time>2026-04-19T12:28:55.001Z</time></trkpt><trkpt lat="42.73767544045981" lon="13.264806996676006"><ele>675.0</ele><time>2026-04-19T12:28:56.001Z</time></trkpt><trkpt lat="42.737901694555745" lon="13.26475472162581"><ele>673.0</ele><time>2026-04-19T12:28:57.001Z</time></trkpt><trkpt lat="42.738144821681985" lon="13.264711544284976"><ele>671.0</ele><time>2026-04-19T12:28:58.001Z</time></trkpt><trkpt lat="42.73840077972499" lon="13.26467905829776"><ele>672.0</ele><time>2026-04-19T12:28:59.001Z</time></trkpt><trkpt lat="42.73865213749991" lon="13.264662280242968"><ele>673.0</ele><time>2026-04-19T12:29:00.001Z</time></trkpt><trkpt lat="42.7389012786963" lon="13.264659837061163"><ele>673.0</ele><time>2026-04-19T12:29:01.001Z</time></trkpt><trkpt lat="42.73914330637042" lon="13.264662935998603"><ele>673.0</ele><time>2026-04-19T12:29:02.001Z</time></trkpt><trkpt lat="42.7393787432198" lon="13.264672559372576"><ele>673.6666666666667</ele><time>2026-04-19T12:29:03.001Z</time></trkpt><trkpt lat="42.73959999329006" lon="13.264692082724673"><ele>674.3333333333334</ele><time>2026-04-19T12:29:04.001Z</time></trkpt><trkpt lat="42.739810722193155" lon="13.264719286891715"><ele>675.0</ele><time>2026-04-19T12:29:05.001Z</time></trkpt><trkpt lat="42.74001356977176" lon="13.264749374122365"><ele>673.6666666666666</ele><time>2026-04-19T12:29:06.001Z</time></trkpt><trkpt lat="42.74022090069558" lon="13.264773816546494"><ele>672.3333333333333</ele><time>2026-04-19T12:29:07.001Z</time></trkpt><trkpt lat="42.74042670542353" lon="13.264835656002983"><ele>671.0</ele><time>2026-04-19T12:29:08.001Z</time></trkpt><trkpt lat="42.74063049774607" lon="13.26488757532091"><ele>671.0</ele><time>2026-04-19T12:29:09.001Z</time></trkpt><trkpt lat="42.741042013836825" lon="13.265018049723318"><ele>671.0</ele><time>2026-04-19T12:29:11.001Z</time></trkpt><trkpt lat="42.74125251305072" lon="13.265098641950244"><ele>673.5</ele><time>2026-04-19T12:29:12.001Z</time></trkpt><trkpt lat="42.741471280118084" lon="13.265188556348429"><ele>676.0</ele><time>2026-04-19T12:29:13.001Z</time></trkpt><trkpt lat="42.74169345415666" lon="13.265290418841422"><ele>682.0</ele><time>2026-04-19T12:29:14Z</time></trkpt><trkpt lat="42.74192227858032" lon="13.265401537395919"><ele>688.0</ele><time>2026-04-19T12:29:15Z</time></trkpt><trkpt lat="42.74214216108366" lon="13.26551347123997"><ele>679.0</ele><time>2026-04-19T12:29:16Z</time></trkpt><trkpt lat="42.74235568027699" lon="13.265623938843348"><ele>670.0</ele><time>2026-04-19T12:29:17Z</time></trkpt><trkpt lat="42.74256583997973" lon="13.265736226104194"><ele>672.5</ele><time>2026-04-19T12:29:18Z</time></trkpt><trkpt lat="42.74277436323899" lon="13.265856074390374"><ele>675.0</ele><time>2026-04-19T12:29:19Z</time></trkpt><trkpt lat="42.74298201726092" lon="13.265985485712225"><ele>675.0</ele><time>2026-04-19T12:29:20Z</time></trkpt><trkpt lat="42.74318843559491" lon="13.266123288164927"><ele>675.0</ele><time>2026-04-19T12:29:21Z</time></trkpt><trkpt lat="42.74339082218324" lon="13.26626821482384"><ele>672.5</ele><time>2026-04-19T12:29:22Z</time></trkpt><trkpt lat="42.74359813674506" lon="13.266417154892643"><ele>670.0</ele><time>2026-04-19T12:29:23Z</time></trkpt><trkpt lat="42.74380526331079" lon="13.266567359501629"><ele>670.0</ele><time>2026-04-19T12:29:24Z</time></trkpt><trkpt lat="42.74401183086166" lon="13.266715793846007"><ele>670.0</ele><time>2026-04-19T12:29:25Z</time></trkpt><trkpt lat="42.7442181270095" lon="13.266876183807971"><ele>678.5</ele><time>2026-04-19T12:29:26Z</time></trkpt><trkpt lat="42.74442197098263" lon="13.267041333236484"><ele>687.0</ele><time>2026-04-19T12:29:27Z</time></trkpt><trkpt lat="42.744624926880036" lon="13.267216532297947"><ele>677.5</ele><time>2026-04-19T12:29:28Z</time></trkpt><trkpt lat="42.74481951013375" lon="13.267390074894774"><ele>668.0</ele><time>2026-04-19T12:29:29Z</time></trkpt><trkpt lat="42.74501167382643" lon="13.267569237107798"><ele>668.0</ele><time>2026-04-19T12:29:30Z</time></trkpt><trkpt lat="42.7452035326233" lon="13.267746900276405"><ele>668.0</ele><time>2026-04-19T12:29:31Z</time></trkpt><trkpt lat="42.74539421332488" lon="13.267920126590425"><ele>665.5</ele><time>2026-04-19T12:29:32Z</time></trkpt><trkpt lat="42.745581107459834" lon="13.268097303149354"><ele>663.0</ele><time>2026-04-19T12:29:33Z</time></trkpt><trkpt lat="42.74576313109762" lon="13.268282584437005"><ele>663.0</ele><time>2026-04-19T12:29:34Z</time></trkpt><trkpt lat="42.74594406777387" lon="13.268472510302042"><ele>663.0</ele><time>2026-04-19T12:29:35Z</time></trkpt><trkpt lat="42.74612414871228" lon="13.268666897065762"><ele>663.0</ele><time>2026-04-19T12:29:36Z</time></trkpt><trkpt lat="42.746300716965834" lon="13.268862605720955"><ele>663.0</ele><time>2026-04-19T12:29:37Z</time></trkpt><trkpt lat="42.74647846721527" lon="13.269060784872408"><ele>663.0</ele><time>2026-04-19T12:29:38Z</time></trkpt><trkpt lat="42.746657267449805" lon="13.269258671629647"><ele>663.0</ele><time>2026-04-19T12:29:39Z</time></trkpt><trkpt lat="42.74683231199356" lon="13.269452327250072"><ele>665.5</ele><time>2026-04-19T12:29:40Z</time></trkpt><trkpt lat="42.7470096018613" lon="13.26964376784201"><ele>668.0</ele><time>2026-04-19T12:29:41Z</time></trkpt><trkpt lat="42.74718915348815" lon="13.269832338782168"><ele>668.0</ele><time>2026-04-19T12:29:42Z</time></trkpt><trkpt lat="42.74737332232773" lon="13.27001307354211"><ele>668.0</ele><time>2026-04-19T12:29:43Z</time></trkpt><trkpt lat="42.747561247494254" lon="13.270182408841315"><ele>681.0</ele><time>2026-04-19T12:29:44Z</time></trkpt><trkpt lat="42.74775511185798" lon="13.270339298367638"><ele>694.0</ele><time>2026-04-19T12:29:45Z</time></trkpt><trkpt lat="42.747951489242816" lon="13.2704947197338"><ele>681.0</ele><time>2026-04-19T12:29:46Z</time></trkpt><trkpt lat="42.74815054402682" lon="13.270645541040446"><ele>668.0</ele><time>2026-04-19T12:29:47Z</time></trkpt><trkpt lat="42.748349596201884" lon="13.270788054451947"><ele>678.5</ele><time>2026-04-19T12:29:48Z</time></trkpt><trkpt lat="42.74855151567099" lon="13.27093349576692"><ele>689.0</ele><time>2026-04-19T12:29:49Z</time></trkpt><trkpt lat="42.7487534249931" lon="13.271077502330964"><ele>689.0</ele><time>2026-04-19T12:29:50Z</time></trkpt><trkpt lat="42.74895037258793" lon="13.271221276157736"><ele>689.0</ele><time>2026-04-19T12:29:51Z</time></trkpt><trkpt lat="42.74915064840858" lon="13.271371264497681"><ele>687.3333333333333</ele><time>2026-04-19T12:29:52Z</time></trkpt><trkpt lat="42.749342596630115" lon="13.271522885609055"><ele>685.6666666666666</ele><time>2026-04-19T12:29:53Z</time></trkpt><trkpt lat="42.74952771454898" lon="13.271667854223127"><ele>684.0</ele><time>2026-04-19T12:29:54Z</time></trkpt><trkpt lat="42.749708847475766" lon="13.271805631297562"><ele>684.0</ele><time>2026-04-19T12:29:55Z</time></trkpt><trkpt lat="42.74988685338582" lon="13.271940318442546"><ele>684.0</ele><time>2026-04-19T12:29:56Z</time></trkpt><trkpt lat="42.750046737996556" lon="13.272072230258603"><ele>684.0</ele><time>2026-04-19T12:29:57Z</time></trkpt><trkpt lat="42.75019128777261" lon="13.272208611346842"><ele>681.3333333333334</ele><time>2026-04-19T12:29:58Z</time></trkpt><trkpt lat="42.750323166279095" lon="13.272352212625119"><ele>678.6666666666667</ele><time>2026-04-19T12:29:59Z</time></trkpt><trkpt lat="42.7504423973064" lon="13.272503337397355"><ele>676.0</ele><time>2026-04-19T12:30:00Z</time></trkpt><trkpt lat="42.75055096504338" lon="13.272649056069683"><ele>676.0</ele><time>2026-04-19T12:30:01Z</time></trkpt><trkpt lat="42.75066465738185" lon="13.272810835553578"><ele>676.0</ele><time>2026-04-19T12:30:02Z</time></trkpt><trkpt lat="42.75076959181146" lon="13.272977268538714"><ele>676.0</ele><time>2026-04-19T12:30:03Z</time></trkpt><trkpt lat="42.75087449813853" lon="13.273158388313249"><ele>677.3333333333334</ele><time>2026-04-19T12:30:04Z</time></trkpt><trkpt lat="42.75097410099244" lon="13.273338044365419"><ele>678.6666666666666</ele><time>2026-04-19T12:30:05Z</time></trkpt><trkpt lat="42.75107553924575" lon="13.27353424481473"><ele>680.0</ele><time>2026-04-19T12:30:06Z</time></trkpt><trkpt lat="42.75117963292113" lon="13.273725192681088"><ele>680.0</ele><time>2026-04-19T12:30:07Z</time></trkpt><trkpt lat="42.75128568760197" lon="13.27391838264914"><ele>680.0</ele><time>2026-04-19T12:30:08Z</time></trkpt><trkpt lat="42.75139050408508" lon="13.27411331089942"><ele>680.0</ele><time>2026-04-19T12:30:09Z</time></trkpt><trkpt lat="42.75149580335051" lon="13.274320776123622"><ele>673.3333333333333</ele><time>2026-04-19T12:30:10Z</time></trkpt><trkpt lat="42.75160492914992" lon="13.274527653134452"><ele>666.6666666666666</ele><time>2026-04-19T12:30:11Z</time></trkpt><trkpt lat="42.75171391533687" lon="13.27473787398597"><ele>660.0</ele><time>2026-04-19T12:30:12Z</time></trkpt><trkpt lat="42.751820247382405" lon="13.274943072797178"><ele>666.3333333333334</ele><time>2026-04-19T12:30:13Z</time></trkpt><trkpt lat="42.75193518943162" lon="13.27515572066214"><ele>672.6666666666667</ele><time>2026-04-19T12:30:14Z</time></trkpt><trkpt lat="42.75204941314527" lon="13.275362384974393"><ele>679.0</ele><time>2026-04-19T12:30:15Z</time></trkpt><trkpt lat="42.752162990754165" lon="13.275565570490791"><ele>674.6666666666667</ele><time>2026-04-19T12:30:16Z</time></trkpt><trkpt lat="42.75227889873965" lon="13.275755046714549"><ele>670.3333333333334</ele><time>2026-04-19T12:30:17Z</time></trkpt><trkpt lat="42.752408232682875" lon="13.27593103102657"><ele>666.0</ele><time>2026-04-19T12:30:18Z</time></trkpt><trkpt lat="42.75254608884041" lon="13.276099820231494"><ele>666.0</ele><time>2026-04-19T12:30:19Z</time></trkpt><trkpt lat="42.75269076868203" lon="13.276262814537835"><ele>666.0</ele><time>2026-04-19T12:30:20Z</time></trkpt><trkpt lat="42.752842251243116" lon="13.276425512425092"><ele>666.0</ele><time>2026-04-19T12:30:21Z</time></trkpt><trkpt lat="42.75299973106697" lon="13.27658850144579"><ele>665.3333333333334</ele><time>2026-04-19T12:30:22Z</time></trkpt><trkpt lat="42.753160552931575" lon="13.276744744269156"><ele>664.6666666666667</ele><time>2026-04-19T12:30:23Z</time></trkpt><trkpt lat="42.75332586253274" lon="13.27689060144817"><ele>664.0</ele><time>2026-04-19T12:30:24Z</time></trkpt><trkpt lat="42.75349765769328" lon="13.27703599718519"><ele>664.3333333333334</ele><time>2026-04-19T12:30:25Z</time></trkpt><trkpt lat="42.75367812440831" lon="13.277187664839131"><ele>664.6666666666666</ele><time>2026-04-19T12:30:26Z</time></trkpt><trkpt lat="42.75387080679438" lon="13.27734971272689"><ele>665.0</ele><time>2026-04-19T12:30:27Z</time></trkpt><trkpt lat="42.75407303324352" lon="13.277531151168597"><ele>665.0</ele><time>2026-04-19T12:30:28Z</time></trkpt><trkpt lat="42.754275758003914" lon="13.277741366727904"><ele>665.0</ele><time>2026-04-19T12:30:29Z</time></trkpt><trkpt lat="42.754456951693726" lon="13.27799312927872"><ele>670.5</ele><time>2026-04-19T12:30:30Z</time></trkpt><trkpt lat="42.75461445658215" lon="13.278284741690923"><ele>676.0</ele><time>2026-04-19T12:30:31Z</time></trkpt><trkpt lat="42.75474873851633" lon="13.278598596882563"><ele>670.5</ele><time>2026-04-19T12:30:32Z</time></trkpt><trkpt lat="42.75487093484709" lon="13.278946459667916"><ele>665.0</ele><time>2026-04-19T12:30:33Z</time></trkpt><trkpt lat="42.75496948122984" lon="13.279318779261262"><ele>665.0</ele><time>2026-04-19T12:30:34Z</time></trkpt><trkpt lat="42.755037954258775" lon="13.279674900431251"><ele>665.0</ele><time>2026-04-19T12:30:35Z</time></trkpt><trkpt lat="42.755092511109844" lon="13.280002265725496"><ele>669.0</ele><time>2026-04-19T12:30:36Z</time></trkpt><trkpt lat="42.75515700665898" lon="13.280308336920745"><ele>673.0</ele><time>2026-04-19T12:30:37Z</time></trkpt><trkpt lat="42.75524116446574" lon="13.28060753609741"><ele>673.0</ele><time>2026-04-19T12:30:38Z</time></trkpt><trkpt lat="42.755355730458945" lon="13.280907294760908"><ele>673.0</ele><time>2026-04-19T12:30:39Z</time></trkpt><trkpt lat="42.755493544904105" lon="13.281192949789324"><ele>664.0</ele><time>2026-04-19T12:30:40Z</time></trkpt><trkpt lat="42.75565312559805" lon="13.281447971193545"><ele>655.0</ele><time>2026-04-19T12:30:41Z</time></trkpt><trkpt lat="42.75583450222109" lon="13.28167685520919"><ele>653.0</ele><time>2026-04-19T12:30:42Z</time></trkpt><trkpt lat="42.75603983344414" lon="13.281883299319485"><ele>651.0</ele><time>2026-04-19T12:30:43Z</time></trkpt><trkpt lat="42.75627476555393" lon="13.28207051543363"><ele>651.0</ele><time>2026-04-19T12:30:44Z</time></trkpt><trkpt lat="42.75653242676194" lon="13.282242792706464"><ele>651.0</ele><time>2026-04-19T12:30:45Z</time></trkpt><trkpt lat="42.75681626406047" lon="13.282403402655486"><ele>648.0</ele><time>2026-04-19T12:30:46Z</time></trkpt><trkpt lat="42.757104465740674" lon="13.282573557357727"><ele>645.0</ele><time>2026-04-19T12:30:47Z</time></trkpt><trkpt lat="42.75739289384795" lon="13.282784884002401"><ele>645.0</ele><time>2026-04-19T12:30:48Z</time></trkpt><trkpt lat="42.7576600627752" lon="13.283023300562403"><ele>645.0</ele><time>2026-04-19T12:30:49Z</time></trkpt><trkpt lat="42.75790652391754" lon="13.28327299915885"><ele>645.5</ele><time>2026-04-19T12:30:50Z</time></trkpt><trkpt lat="42.75813183917851" lon="13.283508069816158"><ele>646.0</ele><time>2026-04-19T12:30:51Z</time></trkpt><trkpt lat="42.758342320447866" lon="13.283732027723781"><ele>649.0</ele><time>2026-04-19T12:30:52Z</time></trkpt><trkpt lat="42.758539221924195" lon="13.283944708235092"><ele>652.0</ele><time>2026-04-19T12:30:53Z</time></trkpt><trkpt lat="42.75873357463941" lon="13.284142825340268"><ele>652.0</ele><time>2026-04-19T12:30:54Z</time></trkpt><trkpt lat="42.7589176210969" lon="13.284317528450785"><ele>652.0</ele><time>2026-04-19T12:30:55Z</time></trkpt><trkpt lat="42.759109892374276" lon="13.284481317370703"><ele>652.0</ele><time>2026-04-19T12:30:56Z</time></trkpt><trkpt lat="42.75930167206963" lon="13.284632482392757"><ele>652.0</ele><time>2026-04-19T12:30:57Z</time></trkpt><trkpt lat="42.75950627884452" lon="13.284772883746715"><ele>647.5</ele><time>2026-04-19T12:30:58Z</time></trkpt><trkpt lat="42.759716725929614" lon="13.284890647579818"><ele>643.0</ele><time>2026-04-19T12:30:59Z</time></trkpt><trkpt lat="42.75993044452404" lon="13.28499620967481"><ele>643.0</ele><time>2026-04-19T12:31:00Z</time></trkpt><trkpt lat="42.760144565915866" lon="13.285088259552818"><ele>643.0</ele><time>2026-04-19T12:31:01Z</time></trkpt><trkpt lat="42.76037205990387" lon="13.28517522056079"><ele>645.0</ele><time>2026-04-19T12:31:02Z</time></trkpt><trkpt lat="42.760616093891656" lon="13.285258377360133"><ele>647.0</ele><time>2026-04-19T12:31:03Z</time></trkpt><trkpt lat="42.760861195137025" lon="13.285335197062668"><ele>648.0</ele><time>2026-04-19T12:31:04Z</time></trkpt><trkpt lat="42.7611050204733" lon="13.285406789629771"><ele>649.0</ele><time>2026-04-19T12:31:05Z</time></trkpt><trkpt lat="42.76134878681746" lon="13.285477222011826"><ele>649.0</ele><time>2026-04-19T12:31:06Z</time></trkpt><trkpt lat="42.761590066978826" lon="13.285546880822958"><ele>649.0</ele><time>2026-04-19T12:31:07Z</time></trkpt><trkpt lat="42.76183044136705" lon="13.285619620906067"><ele>645.0</ele><time>2026-04-19T12:31:08Z</time></trkpt><trkpt lat="42.76206489771886" lon="13.28568840534271"><ele>641.0</ele><time>2026-04-19T12:31:09Z</time></trkpt><trkpt lat="42.76230278891274" lon="13.285762641481064"><ele>641.0</ele><time>2026-04-19T12:31:10Z</time></trkpt><trkpt lat="42.762535680630414" lon="13.285841953212824"><ele>641.0</ele><time>2026-04-19T12:31:11Z</time></trkpt><trkpt lat="42.76276611526152" lon="13.285932431473956"><ele>641.0</ele><time>2026-04-19T12:31:12Z</time></trkpt><trkpt lat="42.76299706419344" lon="13.286042013861723"><ele>641.0</ele><time>2026-04-19T12:31:13Z</time></trkpt><trkpt lat="42.763224874679665" lon="13.286173211872395"><ele>641.0</ele><time>2026-04-19T12:31:14Z</time></trkpt><trkpt lat="42.763449660492384" lon="13.286323238793877"><ele>641.0</ele><time>2026-04-19T12:31:15Z</time></trkpt><trkpt lat="42.763678095749846" lon="13.28649136706442"><ele>640.0</ele><time>2026-04-19T12:31:16Z</time></trkpt><trkpt lat="42.76389749144094" lon="13.286670861604767"><ele>639.0</ele><time>2026-04-19T12:31:17Z</time></trkpt><trkpt lat="42.764112476606435" lon="13.286863885709565"><ele>639.0</ele><time>2026-04-19T12:31:18Z</time></trkpt><trkpt lat="42.76432917612115" lon="13.28706715719693"><ele>639.0</ele><time>2026-04-19T12:31:19Z</time></trkpt><trkpt lat="42.76454193465284" lon="13.287271040862729"><ele>641.0</ele><time>2026-04-19T12:31:20Z</time></trkpt><trkpt lat="42.76475799522484" lon="13.287477821621552"><ele>643.0</ele><time>2026-04-19T12:31:21Z</time></trkpt><trkpt lat="42.764968581790015" lon="13.287676195352566"><ele>643.0</ele><time>2026-04-19T12:31:22Z</time></trkpt><trkpt lat="42.76517722196533" lon="13.287873182411001"><ele>643.0</ele><time>2026-04-19T12:31:23Z</time></trkpt><trkpt lat="42.76537326243459" lon="13.288060740591279"><ele>643.0</ele><time>2026-04-19T12:31:24Z</time></trkpt><trkpt lat="42.76557642290668" lon="13.288256191296654"><ele>643.0</ele><time>2026-04-19T12:31:25Z</time></trkpt><trkpt lat="42.76577414738958" lon="13.288454911332009"><ele>643.0</ele><time>2026-04-19T12:31:26Z</time></trkpt><trkpt lat="42.765970316012606" lon="13.28865648008441"><ele>643.0</ele><time>2026-04-19T12:31:27Z</time></trkpt><trkpt lat="42.76616832623111" lon="13.28887745362827"><ele>643.5</ele><time>2026-04-19T12:31:28Z</time></trkpt><trkpt lat="42.76635885472423" lon="13.289117170784674"><ele>644.0</ele><time>2026-04-19T12:31:29Z</time></trkpt><trkpt lat="42.7665535597325" lon="13.289386942593097"><ele>644.0</ele><time>2026-04-19T12:31:30Z</time></trkpt><trkpt lat="42.76674618851853" lon="13.289678064901235"><ele>644.0</ele><time>2026-04-19T12:31:31Z</time></trkpt><trkpt lat="42.766943631800004" lon="13.289994960676674"><ele>642.0</ele><time>2026-04-19T12:31:32Z</time></trkpt><trkpt lat="42.767143478604645" lon="13.290322579291878"><ele>640.0</ele><time>2026-04-19T12:31:33Z</time></trkpt><trkpt lat="42.76734591011463" lon="13.290651549220401"><ele>640.0</ele><time>2026-04-19T12:31:34Z</time></trkpt><trkpt lat="42.767544764171255" lon="13.290968074440116"><ele>640.0</ele><time>2026-04-19T12:31:35Z</time></trkpt><trkpt lat="42.76773374581339" lon="13.29126694864561"><ele>647.5</ele><time>2026-04-19T12:31:36Z</time></trkpt><trkpt lat="42.767907988485895" lon="13.291542661354521"><ele>655.0</ele><time>2026-04-19T12:31:37Z</time></trkpt><trkpt lat="42.768070192297124" lon="13.29180753894215"><ele>655.0</ele><time>2026-04-19T12:31:38Z</time></trkpt><trkpt lat="42.768225319270144" lon="13.292055825413671"><ele>655.0</ele><time>2026-04-19T12:31:39Z</time></trkpt><trkpt lat="42.76838315092336" lon="13.2923050269038"><ele>652.5</ele><time>2026-04-19T12:31:40Z</time></trkpt><trkpt lat="42.768537171521324" lon="13.292543658836728"><ele>650.0</ele><time>2026-04-19T12:31:41Z</time></trkpt><trkpt lat="42.76869313452365" lon="13.292783454396654"><ele>650.0</ele><time>2026-04-19T12:31:42Z</time></trkpt><trkpt lat="42.76884774685403" lon="13.293019885946391"><ele>650.0</ele><time>2026-04-19T12:31:43Z</time></trkpt><trkpt lat="42.76899979705683" lon="13.293260022897813"><ele>639.5</ele><time>2026-04-19T12:31:44Z</time></trkpt><trkpt lat="42.769150397925394" lon="13.29349827240012"><ele>629.0</ele><time>2026-04-19T12:31:45Z</time></trkpt><trkpt lat="42.76930031960429" lon="13.293732970749492"><ele>628.0</ele><time>2026-04-19T12:31:46Z</time></trkpt><trkpt lat="42.7694509452933" lon="13.293968116586612"><ele>627.0</ele><time>2026-04-19T12:31:47Z</time></trkpt><trkpt lat="42.7695945875712" lon="13.294204180203021"><ele>627.0</ele><time>2026-04-19T12:31:48Z</time></trkpt><trkpt lat="42.76973304193043" lon="13.29444376958254"><ele>627.0</ele><time>2026-04-19T12:31:49Z</time></trkpt><trkpt lat="42.7698655985116" lon="13.294690340190664"><ele>627.0</ele><time>2026-04-19T12:31:50Z</time></trkpt><trkpt lat="42.769995526524035" lon="13.294954807697247"><ele>629.5</ele><time>2026-04-19T12:31:51Z</time></trkpt><trkpt lat="42.7701249959509" lon="13.295236785833993"><ele>632.0</ele><time>2026-04-19T12:31:52Z</time></trkpt><trkpt lat="42.77024700765309" lon="13.29552939134199"><ele>638.0</ele><time>2026-04-19T12:31:53Z</time></trkpt><trkpt lat="42.77036512586455" lon="13.295833591941143"><ele>644.0</ele><time>2026-04-19T12:31:54Z</time></trkpt><trkpt lat="42.770481962701645" lon="13.29613408084742"><ele>643.0</ele><time>2026-04-19T12:31:55Z</time></trkpt><trkpt lat="42.77060141374057" lon="13.296424534934854"><ele>642.0</ele><time>2026-04-19T12:31:56Z</time></trkpt><trkpt lat="42.77073266408086" lon="13.296702517245196"><ele>642.0</ele><time>2026-04-19T12:31:57Z</time></trkpt><trkpt lat="42.77088255934014" lon="13.296960327243358"><ele>642.0</ele><time>2026-04-19T12:31:58Z</time></trkpt><trkpt lat="42.77104278435404" lon="13.297200792555147"><ele>646.5</ele><time>2026-04-19T12:31:59Z</time></trkpt><trkpt lat="42.77120742924891" lon="13.297428371509639"><ele>651.0</ele><time>2026-04-19T12:32:00Z</time></trkpt><trkpt lat="42.77137610454819" lon="13.297656922547432"><ele>651.0</ele><time>2026-04-19T12:32:01Z</time></trkpt><trkpt lat="42.77153459798041" lon="13.29787446356083"><ele>651.0</ele><time>2026-04-19T12:32:02Z</time></trkpt><trkpt lat="42.77168674020588" lon="13.298097903166939"><ele>651.0</ele><time>2026-04-19T12:32:03Z</time></trkpt><trkpt lat="42.77182976955562" lon="13.298339467918073"><ele>649.0</ele><time>2026-04-19T12:32:04Z</time></trkpt><trkpt lat="42.77195676575806" lon="13.298592763838307"><ele>647.0</ele><time>2026-04-19T12:32:05Z</time></trkpt><trkpt lat="42.77207206571009" lon="13.298873965726065"><ele>640.5</ele><time>2026-04-19T12:32:06Z</time></trkpt><trkpt lat="42.77216552834571" lon="13.29916825169814"><ele>634.0</ele><time>2026-04-19T12:32:07Z</time></trkpt><trkpt lat="42.77224311475348" lon="13.299479309384614"><ele>630.5</ele><time>2026-04-19T12:32:08Z</time></trkpt><trkpt lat="42.77229855387515" lon="13.299784687398615"><ele>627.0</ele><time>2026-04-19T12:32:09Z</time></trkpt><trkpt lat="42.772338088546626" lon="13.300093360346148"><ele>627.0</ele><time>2026-04-19T12:32:10Z</time></trkpt><trkpt lat="42.77236837529921" lon="13.300396893468466"><ele>627.0</ele><time>2026-04-19T12:32:11Z</time></trkpt><trkpt lat="42.77240658200485" lon="13.300699647922661"><ele>624.0</ele><time>2026-04-19T12:32:12Z</time></trkpt><trkpt lat="42.772466988446965" lon="13.30099724279199"><ele>621.0</ele><time>2026-04-19T12:32:13Z</time></trkpt><trkpt lat="42.77255011116879" lon="13.30131056074053"><ele>617.0</ele><time>2026-04-19T12:32:14Z</time></trkpt><trkpt lat="42.77265285032602" lon="13.301604983289382"><ele>613.0</ele><time>2026-04-19T12:32:15Z</time></trkpt><trkpt lat="42.77277861057472" lon="13.301902056014349"><ele>621.0</ele><time>2026-04-19T12:32:16Z</time></trkpt><trkpt lat="42.772920883086776" lon="13.302171573413842"><ele>629.0</ele><time>2026-04-19T12:32:17Z</time></trkpt><trkpt lat="42.77309112627421" lon="13.302445989721704"><ele>629.0</ele><time>2026-04-19T12:32:18Z</time></trkpt><trkpt lat="42.77327653541071" lon="13.302732841507568"><ele>629.0</ele><time>2026-04-19T12:32:19Z</time></trkpt><trkpt lat="42.7734670369674" lon="13.303036527914447"><ele>633.0</ele><time>2026-04-19T12:32:20Z</time></trkpt><trkpt lat="42.77365174610408" lon="13.303340597076982"><ele>637.0</ele><time>2026-04-19T12:32:21Z</time></trkpt><trkpt lat="42.7738136495792" lon="13.303615636315785"><ele>637.0</ele><time>2026-04-19T12:32:22Z</time></trkpt><trkpt lat="42.773961051854" lon="13.303881155608822"><ele>637.0</ele><time>2026-04-19T12:32:23Z</time></trkpt><trkpt lat="42.77408772420349" lon="13.304140490053225"><ele>626.5</ele><time>2026-04-19T12:32:24Z</time></trkpt><trkpt lat="42.77420863037786" lon="13.304414083424303"><ele>616.0</ele><time>2026-04-19T12:32:25Z</time></trkpt><trkpt lat="42.77431745116121" lon="13.304702433843396"><ele>630.0</ele><time>2026-04-19T12:32:26Z</time></trkpt><trkpt lat="42.774416278602864" lon="13.305019238295632"><ele>644.0</ele><time>2026-04-19T12:32:27Z</time></trkpt><trkpt lat="42.77449842304673" lon="13.305347995195168"><ele>637.0</ele><time>2026-04-19T12:32:28Z</time></trkpt><trkpt lat="42.774561447811564" lon="13.30565914686968"><ele>630.0</ele><time>2026-04-19T12:32:29Z</time></trkpt><trkpt lat="42.774609296121746" lon="13.30595648694758"><ele>630.0</ele><time>2026-04-19T12:32:30Z</time></trkpt><trkpt lat="42.7746568542027" lon="13.306257548164602"><ele>630.0</ele><time>2026-04-19T12:32:31Z</time></trkpt><trkpt lat="42.774705714733145" lon="13.306557424132135"><ele>624.6666666666666</ele><time>2026-04-19T12:32:32Z</time></trkpt><trkpt lat="42.77475615444171" lon="13.306853982258732"><ele>619.3333333333333</ele><time>2026-04-19T12:32:33Z</time></trkpt><trkpt lat="42.774806677073606" lon="13.307145463180623"><ele>614.0</ele><time>2026-04-19T12:32:34Z</time></trkpt><trkpt lat="42.77485637986138" lon="13.307435146209992"><ele>611.6666666666666</ele><time>2026-04-19T12:32:35Z</time></trkpt><trkpt lat="42.77490203274968" lon="13.307722840662082"><ele>609.3333333333334</ele><time>2026-04-19T12:32:36Z</time></trkpt><trkpt lat="42.77493690411483" lon="13.30798857949632"><ele>607.0</ele><time>2026-04-19T12:32:37Z</time></trkpt><trkpt lat="42.7749557951152" lon="13.308226628825388"><ele>606.0</ele><time>2026-04-19T12:32:38Z</time></trkpt><trkpt lat="42.77496524680805" lon="13.308451038067858"><ele>605.0</ele><time>2026-04-19T12:32:39Z</time></trkpt><trkpt lat="42.77497655095979" lon="13.308631593984314"><ele>604.0</ele><time>2026-04-19T12:32:40Z</time></trkpt><trkpt lat="42.77498738752057" lon="13.308782377048693"><ele>603.0</ele><time>2026-04-19T12:32:41Z</time></trkpt><trkpt lat="42.77500241896669" lon="13.30889523293808"><ele>603.25</ele><time>2026-04-19T12:32:42Z</time></trkpt><trkpt lat="42.77514775876592" lon="13.308929209989879"><ele>603.5</ele><time>2026-04-19T12:32:45Z</time></trkpt><trkpt lat="42.7752170507262" lon="13.308845275482327"><ele>603.75</ele><time>2026-04-19T12:32:46Z</time></trkpt><trkpt lat="42.77529393692378" lon="13.308714734580288"><ele>604.0</ele><time>2026-04-19T12:32:47Z</time></trkpt><trkpt lat="42.77537350504918" lon="13.308556521727972"><ele>608.6666666666667</ele><time>2026-04-19T12:32:48Z</time></trkpt><trkpt lat="42.775452838862414" lon="13.308389517724887"><ele>613.3333333333334</ele><time>2026-04-19T12:32:49Z</time></trkpt><trkpt lat="42.77551824027991" lon="13.308198954264322"><ele>618.0</ele><time>2026-04-19T12:32:50Z</time></trkpt><trkpt lat="42.7755536765319" lon="13.30798823087126"><ele>621.6666666666666</ele><time>2026-04-19T12:32:51Z</time></trkpt><trkpt lat="42.775536767326905" lon="13.307814163179954"><ele>625.3333333333333</ele><time>2026-04-19T12:32:52Z</time></trkpt><trkpt lat="42.77547250044332" lon="13.307627862682292"><ele>629.0</ele><time>2026-04-19T12:32:53Z</time></trkpt><trkpt lat="42.77537763276323" lon="13.307415725118513"><ele>624.0</ele><time>2026-04-19T12:32:54Z</time></trkpt><trkpt lat="42.77529376334545" lon="13.30717084463543"><ele>619.0</ele><time>2026-04-19T12:32:55Z</time></trkpt><trkpt lat="42.77522599614587" lon="13.306878930972939"><ele>614.0</ele><time>2026-04-19T12:32:56Z</time></trkpt><trkpt lat="42.775149534212325" lon="13.306567956606635"><ele>622.0</ele><time>2026-04-19T12:32:57Z</time></trkpt><trkpt lat="42.77506847147041" lon="13.30625918195127"><ele>630.0</ele><time>2026-04-19T12:32:58Z</time></trkpt><trkpt lat="42.774989366201616" lon="13.305963616602748"><ele>630.0</ele><time>2026-04-19T12:32:59Z</time></trkpt><trkpt lat="42.77494276575807" lon="13.30567933712296"><ele>630.0</ele><time>2026-04-19T12:33:00Z</time></trkpt><trkpt lat="42.77492141480585" lon="13.30536170279401"><ele>630.0</ele><time>2026-04-19T12:33:01Z</time></trkpt><trkpt lat="42.774875353314656" lon="13.30502424480024"><ele>647.0</ele><time>2026-04-19T12:33:02Z</time></trkpt><trkpt lat="42.77476001966833" lon="13.304688677979163"><ele>664.0</ele><time>2026-04-19T12:33:03Z</time></trkpt><trkpt lat="42.77469432889478" lon="13.304323912400344"><ele>664.0</ele><time>2026-04-19T12:33:04Z</time></trkpt><trkpt lat="42.77462349808921" lon="13.303988555081464"><ele>664.0</ele><time>2026-04-19T12:33:05Z</time></trkpt><trkpt lat="42.774533731800794" lon="13.303683049438636"><ele>650.5</ele><time>2026-04-19T12:33:06Z</time></trkpt><trkpt lat="42.7743909860955" lon="13.303414176782598"><ele>637.0</ele><time>2026-04-19T12:33:07Z</time></trkpt><trkpt lat="42.774219296123" lon="13.303142073982741"><ele>652.5</ele><time>2026-04-19T12:33:08Z</time></trkpt><trkpt lat="42.77404594462447" lon="13.302855227325301"><ele>668.0</ele><time>2026-04-19T12:33:09Z</time></trkpt><trkpt lat="42.77386781683476" lon="13.302577134535522"><ele>668.0</ele><time>2026-04-19T12:33:10Z</time></trkpt><trkpt lat="42.77371266861253" lon="13.302333952191965"><ele>668.0</ele><time>2026-04-19T12:33:11Z</time></trkpt><trkpt lat="42.773583955859785" lon="13.302126725361596"><ele>668.0</ele><time>2026-04-19T12:33:12Z</time></trkpt><trkpt lat="42.77347989637022" lon="13.301955517323508"><ele>661.5</ele><time>2026-04-19T12:33:13Z</time></trkpt><trkpt lat="42.773406672853405" lon="13.301817643480327"><ele>655.0</ele><time>2026-04-19T12:33:14Z</time></trkpt><trkpt lat="42.77336454384719" lon="13.30167979271129"><ele>648.5</ele><time>2026-04-19T12:33:15Z</time></trkpt><trkpt lat="42.77336725172258" lon="13.301546746793916"><ele>642.0</ele><time>2026-04-19T12:33:16Z</time></trkpt><trkpt lat="42.773416451846686" lon="13.301378780969436"><ele>640.6666666666666</ele><time>2026-04-19T12:33:17Z</time></trkpt><trkpt lat="42.77350886408484" lon="13.301201654935108"><ele>639.3333333333333</ele><time>2026-04-19T12:33:18Z</time></trkpt><trkpt lat="42.773631728268974" lon="13.301007126257177"><ele>638.0</ele><time>2026-04-19T12:33:19Z</time></trkpt><trkpt lat="42.77377364013511" lon="13.30081576266166"><ele>641.0</ele><time>2026-04-19T12:33:20Z</time></trkpt><trkpt lat="42.77392905193637" lon="13.300628895990673"><ele>644.0</ele><time>2026-04-19T12:33:21Z</time></trkpt><trkpt lat="42.77410376210679" lon="13.300458511891014"><ele>647.0</ele><time>2026-04-19T12:33:22Z</time></trkpt><trkpt lat="42.77425524208471" lon="13.300311642493924"><ele>651.3333333333333</ele><time>2026-04-19T12:33:23Z</time></trkpt><trkpt lat="42.774402460247465" lon="13.300204358863661"><ele>655.6666666666666</ele><time>2026-04-19T12:33:24Z</time></trkpt><trkpt lat="42.77453642340886" lon="13.300096675658546"><ele>660.0</ele><time>2026-04-19T12:33:25Z</time></trkpt><trkpt lat="42.774657651600265" lon="13.299996042926814"><ele>660.0</ele><time>2026-04-19T12:33:26Z</time></trkpt><trkpt lat="42.77477930474115" lon="13.299909802084034"><ele>660.0</ele><time>2026-04-19T12:33:27Z</time></trkpt><trkpt lat="42.77487956765778" lon="13.299786291229745"><ele>660.0</ele><time>2026-04-19T12:33:28Z</time></trkpt><trkpt lat="42.77495918542025" lon="13.299626049747442"><ele>660.0</ele><time>2026-04-19T12:33:29Z</time></trkpt><trkpt lat="42.77498253082946" lon="13.299428064630717"><ele>659.6666666666666</ele><time>2026-04-19T12:33:30Z</time></trkpt><trkpt lat="42.77499755943821" lon="13.299218934182383"><ele>659.3333333333333</ele><time>2026-04-19T12:33:31Z</time></trkpt><trkpt lat="42.77501532335899" lon="13.298997234207112"><ele>659.0</ele><time>2026-04-19T12:33:32Z</time></trkpt><trkpt lat="42.775021743812545" lon="13.298770750367115"><ele>661.6666666666666</ele><time>2026-04-19T12:33:33Z</time></trkpt><trkpt lat="42.77502750293979" lon="13.29854959581953"><ele>664.3333333333334</ele><time>2026-04-19T12:33:34Z</time></trkpt><trkpt lat="42.77503073105413" lon="13.29831687348426"><ele>667.0</ele><time>2026-04-19T12:33:35Z</time></trkpt><trkpt lat="42.77502863907055" lon="13.298097083833225"><ele>670.6666666666667</ele><time>2026-04-19T12:33:36Z</time></trkpt><trkpt lat="42.77500432904236" lon="13.297861191236633"><ele>674.3333333333334</ele><time>2026-04-19T12:33:37Z</time></trkpt><trkpt lat="42.7749344300073" lon="13.297650074635552"><ele>678.0</ele><time>2026-04-19T12:33:38Z</time></trkpt><trkpt lat="42.7748616244938" lon="13.297420067315215"><ele>678.5</ele><time>2026-04-19T12:33:39Z</time></trkpt><trkpt lat="42.77479112066629" lon="13.297231668275355"><ele>679.0</ele><time>2026-04-19T12:33:40Z</time></trkpt><trkpt lat="42.77473298898789" lon="13.297068087978962"><ele>679.5</ele><time>2026-04-19T12:33:41Z</time></trkpt><trkpt lat="42.77468165672329" lon="13.296914737219213"><ele>680.0</ele><time>2026-04-19T12:33:42Z</time></trkpt><trkpt lat="42.774639716916795" lon="13.29677553692087"><ele>680.0</ele><time>2026-04-19T12:33:43Z</time></trkpt><trkpt lat="42.774610948810974" lon="13.29664837244081"><ele>680.0</ele><time>2026-04-19T12:33:44Z</time></trkpt><trkpt lat="42.77459974303057" lon="13.296522387282826"><ele>680.0</ele><time>2026-04-19T12:33:45Z</time></trkpt><trkpt lat="42.77461951524279" lon="13.296402767573273"><ele>680.0</ele><time>2026-04-19T12:33:46Z</time></trkpt><trkpt lat="42.77466057320686" lon="13.296302750865543"><ele>680.0</ele><time>2026-04-19T12:33:47Z</time></trkpt><trkpt lat="42.7747256730265" lon="13.296248406706995"><ele>680.0</ele><time>2026-04-19T12:33:48Z</time></trkpt><trkpt lat="42.77478004099714" lon="13.296168598275116"><ele>680.8</ele><time>2026-04-19T12:33:49Z</time></trkpt><trkpt lat="42.7748581798591" lon="13.296113945656439"><ele>681.6</ele><time>2026-04-19T12:33:50Z</time></trkpt><trkpt lat="42.774935727869675" lon="13.296043349444348"><ele>682.4000000000001</ele><time>2026-04-19T12:33:51Z</time></trkpt><trkpt lat="42.77500929566066" lon="13.295965578066593"><ele>683.2</ele><time>2026-04-19T12:33:52Z</time></trkpt><trkpt lat="42.775111883608" lon="13.295927831125509"><ele>684.0</ele><time>2026-04-19T12:33:53Z</time></trkpt><trkpt lat="42.775206702520094" lon="13.295913392262548"><ele>684.0</ele><time>2026-04-19T12:33:54Z</time></trkpt><trkpt lat="42.775294461260856" lon="13.295882077774957"><ele>684.0</ele><time>2026-04-19T12:33:55Z</time></trkpt><trkpt lat="42.775355915875664" lon="13.295807892259935"><ele>684.0</ele><time>2026-04-19T12:33:56Z</time></trkpt><trkpt lat="42.775393223746235" lon="13.295695138851807"><ele>684.0</ele><time>2026-04-19T12:33:57Z</time></trkpt><trkpt lat="42.775410203609304" lon="13.295543475622226"><ele>684.0</ele><time>2026-04-19T12:33:58Z</time></trkpt><trkpt lat="42.775458769214225" lon="13.295374739008494"><ele>681.75</ele><time>2026-04-19T12:33:59Z</time></trkpt><trkpt lat="42.7754970864446" lon="13.295197752935163"><ele>679.5</ele><time>2026-04-19T12:34:00Z</time></trkpt><trkpt lat="42.77552972197216" lon="13.295047761607922"><ele>677.25</ele><time>2026-04-19T12:34:01Z</time></trkpt><trkpt lat="42.77555852874753" lon="13.294915655104786"><ele>675.0</ele><time>2026-04-19T12:34:02Z</time></trkpt><trkpt lat="42.77559538219554" lon="13.294778805456259"><ele>677.3333333333334</ele><time>2026-04-19T12:34:03Z</time></trkpt><trkpt lat="42.77566000813494" lon="13.294619890169072"><ele>679.6666666666667</ele><time>2026-04-19T12:34:04Z</time></trkpt><trkpt lat="42.77578038691039" lon="13.294452356274444"><ele>682.0</ele><time>2026-04-19T12:34:05Z</time></trkpt><trkpt lat="42.77591312664295" lon="13.294256877621411"><ele>683.25</ele><time>2026-04-19T12:34:06Z</time></trkpt><trkpt lat="42.77602949788841" lon="13.294066893922116"><ele>684.5</ele><time>2026-04-19T12:34:07Z</time></trkpt><trkpt lat="42.77613598988969" lon="13.293938724413472"><ele>685.75</ele><time>2026-04-19T12:34:08Z</time></trkpt><trkpt lat="42.776208920980146" lon="13.293869415931798"><ele>687.0</ele><time>2026-04-19T12:34:09Z</time></trkpt><trkpt lat="42.77628559025601" lon="13.293815597587896"><ele>687.0</ele><time>2026-04-19T12:34:46Z</time></trkpt><trkpt lat="42.77636990795659" lon="13.293705720999418"><ele>687.0</ele><time>2026-04-19T12:34:48Z</time></trkpt><trkpt lat="42.776409098719974" lon="13.293636160273344"><ele>687.0</ele><time>2026-04-19T12:34:49Z</time></trkpt><trkpt lat="42.77643616629744" lon="13.293553619537326"><ele>687.0</ele><time>2026-04-19T12:34:50Z</time></trkpt><trkpt lat="42.77645177084697" lon="13.293417996483438"><ele>687.0</ele><time>2026-04-19T12:34:52Z</time></trkpt><trkpt lat="42.77660440706822" lon="13.293468436450235"><ele>687.0</ele><time>2026-04-19T12:34:55Z</time></trkpt><trkpt lat="42.77663007339925" lon="13.293551648348974"><ele>687.0</ele><time>2026-04-19T12:34:56Z</time></trkpt><trkpt lat="42.776632516671846" lon="13.293669432656678"><ele>687.0</ele><time>2026-04-19T12:34:57Z</time></trkpt><trkpt lat="42.776608403724204" lon="13.293782728369615"><ele>687.0</ele><time>2026-04-19T12:34:58Z</time></trkpt><trkpt lat="42.77657253911347" lon="13.293902956750896"><ele>687.0</ele><time>2026-04-19T12:34:59Z</time></trkpt><trkpt lat="42.77653063396456" lon="13.29402710405961"><ele>687.0</ele><time>2026-04-19T12:35:00Z</time></trkpt><trkpt lat="42.776493210864" lon="13.294150761227593"><ele>687.0</ele><time>2026-04-19T12:35:01Z</time></trkpt><trkpt lat="42.77646373305645" lon="13.294268720882215"><ele>687.0</ele><time>2026-04-19T12:35:02Z</time></trkpt><trkpt lat="42.7764413808646" lon="13.294362812920879"><ele>687.0</ele><time>2026-04-19T12:35:03Z</time></trkpt><trkpt lat="42.776410037320716" lon="13.294443363263902"><ele>687.0</ele><time>2026-04-19T12:35:04Z</time></trkpt><trkpt lat="42.776384822504056" lon="13.294544024701965"><ele>687.0</ele><time>2026-04-19T12:35:05Z</time></trkpt><trkpt lat="42.77636883301582" lon="13.294657807596785"><ele>687.0</ele><time>2026-04-19T12:35:06Z</time></trkpt><trkpt lat="42.77637373317438" lon="13.294781886316073"><ele>686.8</ele><time>2026-04-19T12:35:07Z</time></trkpt><trkpt lat="42.77641686323838" lon="13.294902443974692"><ele>686.6</ele><time>2026-04-19T12:35:08Z</time></trkpt><trkpt lat="42.77648707559932" lon="13.295017755448873"><ele>686.4</ele><time>2026-04-19T12:35:09Z</time></trkpt><trkpt lat="42.77656110579598" lon="13.295134017917928"><ele>686.1999999999999</ele><time>2026-04-19T12:35:10Z</time></trkpt><trkpt lat="42.776624850626845" lon="13.295240821547308"><ele>686.0</ele><time>2026-04-19T12:35:11Z</time></trkpt><trkpt lat="42.77668773372246" lon="13.295334422305086"><ele>686.0</ele><time>2026-04-19T12:35:12Z</time></trkpt><trkpt lat="42.77675502445087" lon="13.29541194917158"><ele>686.0</ele><time>2026-04-19T12:35:13Z</time></trkpt><trkpt lat="42.77682973215762" lon="13.295483866880355"><ele>686.0</ele><time>2026-04-19T12:35:14Z</time></trkpt><trkpt lat="42.77690696437569" lon="13.295549493227131"><ele>686.0</ele><time>2026-04-19T12:35:15Z</time></trkpt><trkpt lat="42.77699035972564" lon="13.295602378748521"><ele>686.0</ele><time>2026-04-19T12:35:16Z</time></trkpt><trkpt lat="42.777072112829245" lon="13.295642185050562"><ele>686.0</ele><time>2026-04-19T12:35:17Z</time></trkpt><trkpt lat="42.77716089131171" lon="13.295674325686216"><ele>688.0</ele><time>2026-04-19T12:35:18Z</time></trkpt><trkpt lat="42.77724440251707" lon="13.295700542946706"><ele>690.0</ele><time>2026-04-19T12:35:19Z</time></trkpt><trkpt lat="42.777329110583565" lon="13.29571355059881"><ele>692.0</ele><time>2026-04-19T12:35:20Z</time></trkpt><trkpt lat="42.77740993839591" lon="13.295712002883871"><ele>694.0</ele><time>2026-04-19T12:35:21Z</time></trkpt><trkpt lat="42.77749359245915" lon="13.29571141039128"><ele>696.0</ele><time>2026-04-19T12:35:22Z</time></trkpt><trkpt lat="42.777570856885276" lon="13.295697788958103"><ele>698.0</ele><time>2026-04-19T12:35:23Z</time></trkpt><trkpt lat="42.77765123925529" lon="13.295673667822832"><ele>698.5</ele><time>2026-04-19T12:35:24Z</time></trkpt><trkpt lat="42.77773853435695" lon="13.295657013919806"><ele>699.0</ele><time>2026-04-19T12:35:25Z</time></trkpt><trkpt lat="42.77781785171301" lon="13.295619692288406"><ele>699.5</ele><time>2026-04-19T12:35:26Z</time></trkpt><trkpt lat="42.77789511817828" lon="13.29561906815047"><ele>700.0</ele><time>2026-04-19T12:35:27Z</time></trkpt><trkpt lat="42.777979554654685" lon="13.295619917378033"><ele>700.5</ele><time>2026-04-19T12:35:28Z</time></trkpt><trkpt lat="42.77806460360656" lon="13.295620464288872"><ele>701.0</ele><time>2026-04-19T12:35:29Z</time></trkpt><trkpt lat="42.7781518669644" lon="13.295642294263416"><ele>701.0</ele><time>2026-04-19T12:35:30Z</time></trkpt><trkpt lat="42.77823780822092" lon="13.29569142347027"><ele>701.0</ele><time>2026-04-19T12:35:31Z</time></trkpt><trkpt lat="42.77830624564012" lon="13.295761324654421"><ele>701.0</ele><time>2026-04-19T12:35:32Z</time></trkpt><trkpt lat="42.778378481494066" lon="13.295827427755773"><ele>701.0</ele><time>2026-04-19T12:35:33Z</time></trkpt><trkpt lat="42.778454358475095" lon="13.295885449155513"><ele>701.0</ele><time>2026-04-19T12:35:34Z</time></trkpt><trkpt lat="42.778537190260664" lon="13.295940217551445"><ele>701.0</ele><time>2026-04-19T12:35:35Z</time></trkpt><trkpt lat="42.778619358598455" lon="13.295992156437764"><ele>702.4</ele><time>2026-04-19T12:35:36Z</time></trkpt><trkpt lat="42.778699556690526" lon="13.296045925404906"><ele>703.8</ele><time>2026-04-19T12:35:37Z</time></trkpt><trkpt lat="42.778781107506184" lon="13.296093612978334"><ele>705.1999999999999</ele><time>2026-04-19T12:35:38Z</time></trkpt><trkpt lat="42.77887701220518" lon="13.296136149685303"><ele>706.5999999999999</ele><time>2026-04-19T12:35:39Z</time></trkpt><trkpt lat="42.77897676750787" lon="13.29617205653944"><ele>708.0</ele><time>2026-04-19T12:35:40Z</time></trkpt><trkpt lat="42.7790819349505" lon="13.296205286196198"><ele>708.0</ele><time>2026-04-19T12:35:41Z</time></trkpt><trkpt lat="42.77918506521101" lon="13.296241130201423"><ele>708.0</ele><time>2026-04-19T12:35:42Z</time></trkpt><trkpt lat="42.77929416600463" lon="13.296292493519786"><ele>708.0</ele><time>2026-04-19T12:35:43Z</time></trkpt><trkpt lat="42.779404939679644" lon="13.296328691113487"><ele>708.0</ele><time>2026-04-19T12:35:44Z</time></trkpt><trkpt lat="42.77951603165563" lon="13.296312895893399"><ele>708.0</ele><time>2026-04-19T12:35:45Z</time></trkpt><trkpt lat="42.779619269527494" lon="13.296216589310287"><ele>709.2</ele><time>2026-04-19T12:35:46Z</time></trkpt><trkpt lat="42.77970392501443" lon="13.296096718355559"><ele>710.4</ele><time>2026-04-19T12:35:47Z</time></trkpt><trkpt lat="42.77979941806109" lon="13.296017629176928"><ele>711.6</ele><time>2026-04-19T12:35:48Z</time></trkpt><trkpt lat="42.779871554535006" lon="13.295976098586815"><ele>712.8000000000001</ele><time>2026-04-19T12:35:49Z</time></trkpt><trkpt lat="42.77998294067478" lon="13.295995311548518"><ele>714.0</ele><time>2026-04-19T12:35:50Z</time></trkpt><trkpt lat="42.780067448355865" lon="13.296062000269268"><ele>714.0</ele><time>2026-04-19T12:35:51Z</time></trkpt><trkpt lat="42.78015686490822" lon="13.296162252022777"><ele>714.0</ele><time>2026-04-19T12:35:53Z</time></trkpt><trkpt lat="42.78022536148252" lon="13.296206573762609"><ele>714.0</ele><time>2026-04-19T12:35:54Z</time></trkpt><trkpt lat="42.780292955626585" lon="13.296258173577232"><ele>714.0</ele><time>2026-04-19T12:35:55Z</time></trkpt><trkpt lat="42.78034812365198" lon="13.296327418579754"><ele>714.0</ele><time>2026-04-19T12:35:56Z</time></trkpt><trkpt lat="42.7803893323614" lon="13.29640268123389"><ele>714.0</ele><time>2026-04-19T12:35:57Z</time></trkpt><trkpt lat="42.78042269077167" lon="13.296484042032018"><ele>714.6666666666666</ele><time>2026-04-19T12:35:58Z</time></trkpt><trkpt lat="42.78046073061753" lon="13.296566434640313"><ele>715.3333333333334</ele><time>2026-04-19T12:35:59Z</time></trkpt><trkpt lat="42.78050743579243" lon="13.296624096986749"><ele>716.0</ele><time>2026-04-19T12:36:00Z</time></trkpt><trkpt lat="42.78057914170435" lon="13.296662125598372"><ele>716.6666666666667</ele><time>2026-04-19T12:36:01Z</time></trkpt><trkpt lat="42.78066422571692" lon="13.296685654261102"><ele>717.3333333333334</ele><time>2026-04-19T12:36:02Z</time></trkpt><trkpt lat="42.78075725471546" lon="13.296666357974308"><ele>718.0</ele><time>2026-04-19T12:36:03Z</time></trkpt><trkpt lat="42.78089754287725" lon="13.296569822606918"><ele>720.6666666666667</ele><time>2026-04-19T12:36:04Z</time></trkpt><trkpt lat="42.781045994711405" lon="13.29648696532672"><ele>723.3333333333334</ele><time>2026-04-19T12:36:05Z</time></trkpt><trkpt lat="42.78119951778995" lon="13.296466958197763"><ele>726.0</ele><time>2026-04-19T12:36:06Z</time></trkpt><trkpt lat="42.78138575873853" lon="13.29644252510698"><ele>728.3333333333334</ele><time>2026-04-19T12:36:07Z</time></trkpt><trkpt lat="42.781569647403074" lon="13.296370947319373"><ele>730.6666666666667</ele><time>2026-04-19T12:36:08Z</time></trkpt><trkpt lat="42.78174760404798" lon="13.296228186283384"><ele>733.0</ele><time>2026-04-19T12:36:09Z</time></trkpt><trkpt lat="42.78191800139463" lon="13.296113103781005"><ele>735.0</ele><time>2026-04-19T12:36:10Z</time></trkpt><trkpt lat="42.78203654401307" lon="13.296034603455865"><ele>737.0</ele><time>2026-04-19T12:36:11Z</time></trkpt><trkpt lat="42.78216766486879" lon="13.295975708843956"><ele>739.0</ele><time>2026-04-19T12:36:12Z</time></trkpt><trkpt lat="42.78228468046882" lon="13.295943651478842"><ele>741.0</ele><time>2026-04-19T12:36:13Z</time></trkpt><trkpt lat="42.78242722612577" lon="13.295945000028"><ele>741.0</ele><time>2026-04-19T12:36:14Z</time></trkpt><trkpt lat="42.7825649040626" lon="13.295956714605792"><ele>741.0</ele><time>2026-04-19T12:36:15Z</time></trkpt><trkpt lat="42.78270534656" lon="13.295993889906738"><ele>741.0</ele><time>2026-04-19T12:36:16Z</time></trkpt><trkpt lat="42.78284581101337" lon="13.296033730527888"><ele>741.0</ele><time>2026-04-19T12:36:17Z</time></trkpt><trkpt lat="42.78298768557346" lon="13.29604226393019"><ele>743.0</ele><time>2026-04-19T12:36:18Z</time></trkpt><trkpt lat="42.78313698853677" lon="13.296017383566694"><ele>745.0</ele><time>2026-04-19T12:36:19Z</time></trkpt><trkpt lat="42.78328364928001" lon="13.295964444588733"><ele>747.0</ele><time>2026-04-19T12:36:20Z</time></trkpt><trkpt lat="42.78343195528935" lon="13.295920786261924"><ele>749.25</ele><time>2026-04-19T12:36:21Z</time></trkpt><trkpt lat="42.7835747567518" lon="13.295875815018809"><ele>751.5</ele><time>2026-04-19T12:36:22Z</time></trkpt><trkpt lat="42.783702760188746" lon="13.295834486530019"><ele>753.75</ele><time>2026-04-19T12:36:23Z</time></trkpt><trkpt lat="42.783818440440896" lon="13.295797018477275"><ele>756.0</ele><time>2026-04-19T12:36:24Z</time></trkpt><trkpt lat="42.783940577805595" lon="13.29578507133274"><ele>756.0</ele><time>2026-04-19T12:36:25Z</time></trkpt><trkpt lat="42.78406411790071" lon="13.295822882008222"><ele>756.0</ele><time>2026-04-19T12:36:26Z</time></trkpt><trkpt lat="42.78418626457129" lon="13.2959126121795"><ele>756.0</ele><time>2026-04-19T12:36:27Z</time></trkpt><trkpt lat="42.78432139910307" lon="13.296019693217396"><ele>756.0</ele><time>2026-04-19T12:36:28Z</time></trkpt><trkpt lat="42.78446544155198" lon="13.29606771720618"><ele>760.5</ele><time>2026-04-19T12:36:29Z</time></trkpt><trkpt lat="42.78461062807663" lon="13.296053305520413"><ele>765.0</ele><time>2026-04-19T12:36:30Z</time></trkpt><trkpt lat="42.784751150168596" lon="13.296005145623742"><ele>769.5</ele><time>2026-04-19T12:36:31Z</time></trkpt><trkpt lat="42.78488790984618" lon="13.295954115341402"><ele>774.0</ele><time>2026-04-19T12:36:32Z</time></trkpt><trkpt lat="42.785020792022934" lon="13.295954247550117"><ele>774.0</ele><time>2026-04-19T12:36:33Z</time></trkpt><trkpt lat="42.78512509038198" lon="13.295981881897088"><ele>774.0</ele><time>2026-04-19T12:36:34Z</time></trkpt><trkpt lat="42.78521060039633" lon="13.296073516477382"><ele>774.0</ele><time>2026-04-19T12:36:35Z</time></trkpt><trkpt lat="42.78527811423709" lon="13.296194314432524"><ele>774.0</ele><time>2026-04-19T12:36:36Z</time></trkpt><trkpt lat="42.78531598912057" lon="13.296350056967169"><ele>774.0</ele><time>2026-04-19T12:36:37Z</time></trkpt><trkpt lat="42.785403499876686" lon="13.296643672157394"><ele>775.8000000000001</ele><time>2026-04-19T12:36:39Z</time></trkpt><trkpt lat="42.78544616150215" lon="13.296791200829064"><ele>777.6</ele><time>2026-04-19T12:36:40Z</time></trkpt><trkpt lat="42.78548817934981" lon="13.296932015849352"><ele>779.4</ele><time>2026-04-19T12:36:41Z</time></trkpt><trkpt lat="42.7855030074891" lon="13.29705223924598"><ele>781.2</ele><time>2026-04-19T12:36:42Z</time></trkpt><trkpt lat="42.78548217838758" lon="13.297162255861362"><ele>783.0</ele><time>2026-04-19T12:36:43Z</time></trkpt><trkpt lat="42.78541792333903" lon="13.297237635023155"><ele>780.6666666666667</ele><time>2026-04-19T12:36:44Z</time></trkpt><trkpt lat="42.78532850935952" lon="13.297282279390023"><ele>778.3333333333334</ele><time>2026-04-19T12:36:45Z</time></trkpt><trkpt lat="42.78510744078064" lon="13.297185816951131"><ele>776.0</ele><time>2026-04-19T12:36:47Z</time></trkpt><trkpt lat="42.78497173342464" lon="13.297163374881917"><ele>774.75</ele><time>2026-04-19T12:36:48Z</time></trkpt><trkpt lat="42.78480350757585" lon="13.297226771604398"><ele>773.5</ele><time>2026-04-19T12:36:50Z</time></trkpt><trkpt lat="42.784739551205696" lon="13.297324672239279"><ele>772.25</ele><time>2026-04-19T12:36:51Z</time></trkpt><trkpt lat="42.784671863754234" lon="13.297416765684092"><ele>771.0</ele><time>2026-04-19T12:36:52Z</time></trkpt><trkpt lat="42.784602913727866" lon="13.297505654886235"><ele>771.0</ele><time>2026-04-19T12:36:53Z</time></trkpt><trkpt lat="42.7845589099308" lon="13.297602875890709"><ele>771.0</ele><time>2026-04-19T12:36:54Z</time></trkpt><trkpt lat="42.784540750219094" lon="13.29771898831592"><ele>771.0</ele><time>2026-04-19T12:36:55Z</time></trkpt><trkpt lat="42.78454947862502" lon="13.297840321234707"><ele>771.0</ele><time>2026-04-19T12:36:56Z</time></trkpt><trkpt lat="42.784570259593615" lon="13.29795240239026"><ele>771.0</ele><time>2026-04-19T12:36:57Z</time></trkpt><trkpt lat="42.7845911141318" lon="13.298053892979334"><ele>771.0</ele><time>2026-04-19T12:36:58Z</time></trkpt><trkpt lat="42.78462219954111" lon="13.298152642909892"><ele>772.0</ele><time>2026-04-19T12:36:59Z</time></trkpt><trkpt lat="42.78467165177017" lon="13.298248905848808"><ele>773.0</ele><time>2026-04-19T12:37:00Z</time></trkpt><trkpt lat="42.784746884960036" lon="13.29832758862661"><ele>774.0</ele><time>2026-04-19T12:37:01Z</time></trkpt><trkpt lat="42.78481628020484" lon="13.298415957127315"><ele>775.0</ele><time>2026-04-19T12:37:02Z</time></trkpt><trkpt lat="42.78488151900869" lon="13.298482087242022"><ele>776.0</ele><time>2026-04-19T12:37:03Z</time></trkpt><trkpt lat="42.78494261065917" lon="13.298538067741331"><ele>777.0</ele><time>2026-04-19T12:37:04Z</time></trkpt><trkpt lat="42.785013835753304" lon="13.29857572573993"><ele>777.0</ele><time>2026-04-19T12:37:05Z</time></trkpt><trkpt lat="42.78508975727205" lon="13.298577219458034"><ele>777.0</ele><time>2026-04-19T12:37:06Z</time></trkpt><trkpt lat="42.785159766921595" lon="13.298542666763343"><ele>777.0</ele><time>2026-04-19T12:37:07Z</time></trkpt><trkpt lat="42.785228058437625" lon="13.298479291829251"><ele>777.0</ele><time>2026-04-19T12:37:08Z</time></trkpt><trkpt lat="42.78530495693947" lon="13.29843720992638"><ele>777.0</ele><time>2026-04-19T12:37:09Z</time></trkpt><trkpt lat="42.785382567381895" lon="13.298383848595586"><ele>777.0</ele><time>2026-04-19T12:37:10Z</time></trkpt><trkpt lat="42.78547798357808" lon="13.29835091914189"><ele>778.75</ele><time>2026-04-19T12:37:11Z</time></trkpt><trkpt lat="42.78558682522197" lon="13.298395375704434"><ele>780.5</ele><time>2026-04-19T12:37:12Z</time></trkpt><trkpt lat="42.785686385217346" lon="13.298496508784526"><ele>782.25</ele><time>2026-04-19T12:37:13Z</time></trkpt><trkpt lat="42.78578784752155" lon="13.298626939862595"><ele>784.0</ele><time>2026-04-19T12:37:14Z</time></trkpt><trkpt lat="42.785911382649715" lon="13.298724725156445"><ele>785.0</ele><time>2026-04-19T12:37:15Z</time></trkpt><trkpt lat="42.78606803109988" lon="13.29876147554275"><ele>786.0</ele><time>2026-04-19T12:37:16Z</time></trkpt><trkpt lat="42.786218679424515" lon="13.29876731430706"><ele>787.0</ele><time>2026-04-19T12:37:17.001Z</time></trkpt><trkpt lat="42.78636259598478" lon="13.298797062559684"><ele>787.0</ele><time>2026-04-19T12:37:18.001Z</time></trkpt><trkpt lat="42.7865105816982" lon="13.298825104511364"><ele>787.0</ele><time>2026-04-19T12:37:19.001Z</time></trkpt><trkpt lat="42.78666503784152" lon="13.298858419854394"><ele>787.0</ele><time>2026-04-19T12:37:20.001Z</time></trkpt><trkpt lat="42.78681640562639" lon="13.29890113610411"><ele>790.5</ele><time>2026-04-19T12:37:21.001Z</time></trkpt><trkpt lat="42.78696375410637" lon="13.298935151344779"><ele>794.0</ele><time>2026-04-19T12:37:22.001Z</time></trkpt><trkpt lat="42.78710542139582" lon="13.298976236735"><ele>797.5</ele><time>2026-04-19T12:37:23.001Z</time></trkpt><trkpt lat="42.787230737598065" lon="13.29905175720396"><ele>801.0</ele><time>2026-04-19T12:37:24.001Z</time></trkpt><trkpt lat="42.7873402735531" lon="13.299178236771152"><ele>801.0</ele><time>2026-04-19T12:37:25.001Z</time></trkpt><trkpt lat="42.787448770451945" lon="13.299352230116972"><ele>801.0</ele><time>2026-04-19T12:37:26.001Z</time></trkpt><trkpt lat="42.787562341650606" lon="13.299547114051617"><ele>801.0</ele><time>2026-04-19T12:37:27.001Z</time></trkpt><trkpt lat="42.787690296031265" lon="13.299738807335999"><ele>805.0</ele><time>2026-04-19T12:37:28.001Z</time></trkpt><trkpt lat="42.78781145591366" lon="13.299921261850782"><ele>809.0</ele><time>2026-04-19T12:37:29.001Z</time></trkpt><trkpt lat="42.78792558348951" lon="13.30010102678007"><ele>813.0</ele><time>2026-04-19T12:37:30.001Z</time></trkpt><trkpt lat="42.78802991576386" lon="13.300263464759274"><ele>813.0</ele><time>2026-04-19T12:37:31.001Z</time></trkpt><trkpt lat="42.78811998237323" lon="13.300412088059867"><ele>813.0</ele><time>2026-04-19T12:37:32.001Z</time></trkpt><trkpt lat="42.78821721979745" lon="13.300531654641809"><ele>813.0</ele><time>2026-04-19T12:37:33.001Z</time></trkpt><trkpt lat="42.78832903695889" lon="13.300640348507129"><ele>813.0</ele><time>2026-04-19T12:37:34.001Z</time></trkpt><trkpt lat="42.78846321409143" lon="13.3006972327857"><ele>815.0</ele><time>2026-04-19T12:37:35.001Z</time></trkpt><trkpt lat="42.788596780113764" lon="13.30072198671158"><ele>817.0</ele><time>2026-04-19T12:37:36.001Z</time></trkpt><trkpt lat="42.78870659598475" lon="13.300743376743645"><ele>819.0</ele><time>2026-04-19T12:37:37.001Z</time></trkpt><trkpt lat="42.788799084919525" lon="13.30077715687811"><ele>821.0</ele><time>2026-04-19T12:37:38.001Z</time></trkpt><trkpt lat="42.78889442374436" lon="13.300813068942107"><ele>823.0</ele><time>2026-04-19T12:37:39.001Z</time></trkpt><trkpt lat="42.78899388883539" lon="13.30084679335193"><ele>823.0</ele><time>2026-04-19T12:37:40.001Z</time></trkpt><trkpt lat="42.78909527035409" lon="13.300877528852627"><ele>823.0</ele><time>2026-04-19T12:37:41.001Z</time></trkpt><trkpt lat="42.789199106677174" lon="13.300906601194747"><ele>823.0</ele><time>2026-04-19T12:37:42.001Z</time></trkpt><trkpt lat="42.78929715341215" lon="13.300940429733016"><ele>823.0</ele><time>2026-04-19T12:37:43.001Z</time></trkpt><trkpt lat="42.78939878150826" lon="13.30097866110499"><ele>823.0</ele><time>2026-04-19T12:37:44.001Z</time></trkpt><trkpt lat="42.789475814057795" lon="13.301032067408544"><ele>824.0</ele><time>2026-04-19T12:37:45.001Z</time></trkpt><trkpt lat="42.789523290644" lon="13.301109617298975"><ele>825.0</ele><time>2026-04-19T12:37:46.001Z</time></trkpt><trkpt lat="42.789605414312746" lon="13.301239839656251"><ele>826.0</ele><time>2026-04-19T12:37:48.001Z</time></trkpt><trkpt lat="42.78966914574227" lon="13.301275078550747"><ele>827.0</ele><time>2026-04-19T12:37:49.001Z</time></trkpt><trkpt lat="42.789777994346416" lon="13.30127308116349"><ele>828.0</ele><time>2026-04-19T12:37:51Z</time></trkpt><trkpt lat="42.78989390738845" lon="13.301305473191626"><ele>828.0000000000001</ele><time>2026-04-19T12:37:53Z</time></trkpt><trkpt lat="42.78995972056864" lon="13.301350472959681"><ele>828.0</ele><time>2026-04-19T12:37:54Z</time></trkpt><trkpt lat="42.790025521127724" lon="13.30137012777822"><ele>828.0</ele><time>2026-04-19T12:37:55Z</time></trkpt><trkpt lat="42.790094489629" lon="13.30136894426498"><ele>828.0</ele><time>2026-04-19T12:37:56Z</time></trkpt><trkpt lat="42.79016866469181" lon="13.30135176835625"><ele>828.0</ele><time>2026-04-19T12:37:57Z</time></trkpt><trkpt lat="42.79023010656049" lon="13.30128284829095"><ele>828.0000000000001</ele><time>2026-04-19T12:37:58Z</time></trkpt><trkpt lat="42.7903025570314" lon="13.301229699162617"><ele>828.0</ele><time>2026-04-19T12:37:59Z</time></trkpt><trkpt lat="42.79037485043168" lon="13.301175225340273"><ele>829.4</ele><time>2026-04-19T12:38:00Z</time></trkpt><trkpt lat="42.790456444811426" lon="13.301113743043185"><ele>830.8</ele><time>2026-04-19T12:38:01Z</time></trkpt><trkpt lat="42.79053914905183" lon="13.301052495109857"><ele>832.2</ele><time>2026-04-19T12:38:02Z</time></trkpt><trkpt lat="42.79061712645493" lon="13.300996920073178"><ele>833.6</ele><time>2026-04-19T12:38:03Z</time></trkpt><trkpt lat="42.79070037258562" lon="13.300937589975872"><ele>835.0</ele><time>2026-04-19T12:38:04Z</time></trkpt><trkpt lat="42.79078335832143" lon="13.300879557030367"><ele>835.0</ele><time>2026-04-19T12:38:05Z</time></trkpt><trkpt lat="42.790857681633085" lon="13.300847014002187"><ele>835.0</ele><time>2026-04-19T12:38:06Z</time></trkpt><trkpt lat="42.790951380937756" lon="13.300827717614759"><ele>835.0</ele><time>2026-04-19T12:38:07Z</time></trkpt><trkpt lat="42.79106041493268" lon="13.300885463552078"><ele>835.0</ele><time>2026-04-19T12:38:08Z</time></trkpt><trkpt lat="42.79118717441423" lon="13.300921235514855"><ele>835.0</ele><time>2026-04-19T12:38:09Z</time></trkpt><trkpt lat="42.791301648583755" lon="13.300989896974587"><ele>837.0</ele><time>2026-04-19T12:38:10Z</time></trkpt><trkpt lat="42.79140367060398" lon="13.301072442943644"><ele>839.0</ele><time>2026-04-19T12:38:11Z</time></trkpt><trkpt lat="42.79149250665697" lon="13.301182465546693"><ele>841.0</ele><time>2026-04-19T12:38:12Z</time></trkpt><trkpt lat="42.79155907482307" lon="13.301329822632633"><ele>843.0</ele><time>2026-04-19T12:38:13Z</time></trkpt><trkpt lat="42.79160769423478" lon="13.301500160471274"><ele>843.75</ele><time>2026-04-19T12:38:14Z</time></trkpt><trkpt lat="42.79164438348611" lon="13.30170785372875"><ele>844.5</ele><time>2026-04-19T12:38:15Z</time></trkpt><trkpt lat="42.79168444653793" lon="13.301934120582064"><ele>845.25</ele><time>2026-04-19T12:38:16Z</time></trkpt><trkpt lat="42.791673994480455" lon="13.302093181914856"><ele>846.0</ele><time>2026-04-19T12:38:17Z</time></trkpt><trkpt lat="42.79170031637987" lon="13.302231071191814"><ele>847.4</ele><time>2026-04-19T12:38:18Z</time></trkpt><trkpt lat="42.791759419708534" lon="13.302336660264782"><ele>848.8</ele><time>2026-04-19T12:38:19Z</time></trkpt><trkpt lat="42.791846967961725" lon="13.302409054160233"><ele>850.1999999999999</ele><time>2026-04-19T12:38:20Z</time></trkpt><trkpt lat="42.79194795053164" lon="13.302430467908477"><ele>851.5999999999999</ele><time>2026-04-19T12:38:21Z</time></trkpt><trkpt lat="42.792051044898614" lon="13.302375015393997"><ele>853.0</ele><time>2026-04-19T12:38:22Z</time></trkpt><trkpt lat="42.79214719649907" lon="13.30224180654657"><ele>853.5999999999999</ele><time>2026-04-19T12:38:23Z</time></trkpt><trkpt lat="42.79221532133995" lon="13.302073340616145"><ele>854.1999999999999</ele><time>2026-04-19T12:38:24Z</time></trkpt><trkpt lat="42.79230747485748" lon="13.301979219012981"><ele>854.8</ele><time>2026-04-19T12:38:25Z</time></trkpt><trkpt lat="42.79236305226325" lon="13.301908563858154"><ele>855.4</ele><time>2026-04-19T12:38:26Z</time></trkpt><trkpt lat="42.79247296233206" lon="13.301926923383576"><ele>856.0</ele><time>2026-04-19T12:38:27Z</time></trkpt><trkpt lat="42.792586858055735" lon="13.30199643271869"><ele>858.25</ele><time>2026-04-19T12:38:28Z</time></trkpt><trkpt lat="42.79268728825706" lon="13.302119985387908"><ele>860.5</ele><time>2026-04-19T12:38:29Z</time></trkpt><trkpt lat="42.792765207610174" lon="13.302291616209544"><ele>862.75</ele><time>2026-04-19T12:38:30Z</time></trkpt><trkpt lat="42.792814014833695" lon="13.302467397793006"><ele>865.0</ele><time>2026-04-19T12:38:31Z</time></trkpt><trkpt lat="42.79283950091143" lon="13.302601684967746"><ele>866.0</ele><time>2026-04-19T12:38:32Z</time></trkpt><trkpt lat="42.79288144820285" lon="13.302696617779052"><ele>867.0</ele><time>2026-04-19T12:38:33Z</time></trkpt><trkpt lat="42.792998884628204" lon="13.302756315970708"><ele>868.0</ele><time>2026-04-19T12:38:34Z</time></trkpt><trkpt lat="42.79309244813678" lon="13.302741908320101"><ele>869.0</ele><time>2026-04-19T12:38:35Z</time></trkpt><trkpt lat="42.79322349915317" lon="13.302705613273677"><ele>870.0</ele><time>2026-04-19T12:38:36Z</time></trkpt><trkpt lat="42.79332641617133" lon="13.3024949813762"><ele>870.0</ele><time>2026-04-19T12:38:37Z</time></trkpt><trkpt lat="42.79338303158986" lon="13.302294015852395"><ele>870.0</ele><time>2026-04-19T12:38:38Z</time></trkpt><trkpt lat="42.79345796644745" lon="13.302155152334786"><ele>870.0</ele><time>2026-04-19T12:38:39Z</time></trkpt><trkpt lat="42.79351261141476" lon="13.302095127745789"><ele>870.0</ele><time>2026-04-19T12:38:40Z</time></trkpt><trkpt lat="42.79359540171892" lon="13.302066982819449"><ele>870.0</ele><time>2026-04-19T12:38:41Z</time></trkpt><trkpt lat="42.79373564661858" lon="13.302102786004028"><ele>872.0</ele><time>2026-04-19T12:38:42Z</time></trkpt><trkpt lat="42.79386974496229" lon="13.302150032440718"><ele>874.0</ele><time>2026-04-19T12:38:43Z</time></trkpt><trkpt lat="42.794017916517326" lon="13.302227957125524"><ele>876.0</ele><time>2026-04-19T12:38:44Z</time></trkpt><trkpt lat="42.79417837381745" lon="13.302303711541512"><ele>877.5</ele><time>2026-04-19T12:38:45Z</time></trkpt><trkpt lat="42.79432121230332" lon="13.302327651576908"><ele>879.0</ele><time>2026-04-19T12:38:46Z</time></trkpt><trkpt lat="42.79443261100903" lon="13.302315936022657"><ele>880.5</ele><time>2026-04-19T12:38:47Z</time></trkpt><trkpt lat="42.7945272181819" lon="13.302260087464385"><ele>882.0</ele><time>2026-04-19T12:38:48Z</time></trkpt><trkpt lat="42.794608538073184" lon="13.30214236374821"><ele>884.0</ele><time>2026-04-19T12:38:49Z</time></trkpt><trkpt lat="42.79468767484463" lon="13.3019901929812"><ele>886.0</ele><time>2026-04-19T12:38:50Z</time></trkpt><trkpt lat="42.794780083118034" lon="13.301800216620412"><ele>888.0</ele><time>2026-04-19T12:38:51Z</time></trkpt><trkpt lat="42.79477545322369" lon="13.301576307945725"><ele>888.6666666666667</ele><time>2026-04-19T12:38:52Z</time></trkpt><trkpt lat="42.794753474575664" lon="13.30133870413276"><ele>889.3333333333334</ele><time>2026-04-19T12:38:53Z</time></trkpt><trkpt lat="42.794815696641805" lon="13.301057478255393"><ele>890.0</ele><time>2026-04-19T12:38:54Z</time></trkpt><trkpt lat="42.79489024794836" lon="13.30087343792339"><ele>890.0</ele><time>2026-04-19T12:38:55Z</time></trkpt><trkpt lat="42.79499000145244" lon="13.300735222445192"><ele>890.0</ele><time>2026-04-19T12:38:56Z</time></trkpt><trkpt lat="42.79512159656156" lon="13.300535407757296"><ele>890.0</ele><time>2026-04-19T12:38:57Z</time></trkpt><trkpt lat="42.79524664736816" lon="13.30034745296497"><ele>892.0</ele><time>2026-04-19T12:38:58Z</time></trkpt><trkpt lat="42.79536247491243" lon="13.3001793372296"><ele>894.0</ele><time>2026-04-19T12:38:59Z</time></trkpt><trkpt lat="42.79545579941966" lon="13.300047842719097"><ele>896.0</ele><time>2026-04-19T12:39:00Z</time></trkpt><trkpt lat="42.79552366305122" lon="13.29998990209028"><ele>898.0</ele><time>2026-04-19T12:39:01Z</time></trkpt><trkpt lat="42.79562673206521" lon="13.299978057249644"><ele>898.0</ele><time>2026-04-19T12:39:02Z</time></trkpt><trkpt lat="42.79574728812903" lon="13.299997592223114"><ele>898.0</ele><time>2026-04-19T12:39:03Z</time></trkpt><trkpt lat="42.79587129344854" lon="13.300074545841978"><ele>898.0</ele><time>2026-04-19T12:39:04Z</time></trkpt><trkpt lat="42.796032867150224" lon="13.300132170975072"><ele>898.0</ele><time>2026-04-19T12:39:05Z</time></trkpt><trkpt lat="42.796135196288496" lon="13.300230394710667"><ele>900.75</ele><time>2026-04-19T12:39:06Z</time></trkpt><trkpt lat="42.79620506871308" lon="13.300371295345384"><ele>903.5</ele><time>2026-04-19T12:39:07Z</time></trkpt><trkpt lat="42.79622427756671" lon="13.300528768177838"><ele>906.25</ele><time>2026-04-19T12:39:08Z</time></trkpt><trkpt lat="42.79624054653601" lon="13.300718803861441"><ele>909.0</ele><time>2026-04-19T12:39:09Z</time></trkpt><trkpt lat="42.79625065841032" lon="13.300936995350273"><ele>909.2</ele><time>2026-04-19T12:39:10Z</time></trkpt><trkpt lat="42.796240295592604" lon="13.30109858902437"><ele>909.4000000000001</ele><time>2026-04-19T12:39:11Z</time></trkpt><trkpt lat="42.79620275085122" lon="13.301247040805203"><ele>909.6</ele><time>2026-04-19T12:39:12Z</time></trkpt><trkpt lat="42.79615871010272" lon="13.301342794772912"><ele>909.8</ele><time>2026-04-19T12:39:13Z</time></trkpt><trkpt lat="42.79610799215151" lon="13.301488296433188"><ele>910.0</ele><time>2026-04-19T12:39:15Z</time></trkpt><trkpt lat="42.79614462857755" lon="13.301632627382782"><ele>909.6666666666666</ele><time>2026-04-19T12:39:17Z</time></trkpt><trkpt lat="42.79618795721446" lon="13.301706947269222"><ele>909.3333333333333</ele><time>2026-04-19T12:39:18Z</time></trkpt><trkpt lat="42.79622782162691" lon="13.301800520952733"><ele>909.0</ele><time>2026-04-19T12:39:19Z</time></trkpt><trkpt lat="42.79625772914113" lon="13.301878047736237"><ele>908.6666666666667</ele><time>2026-04-19T12:39:20Z</time></trkpt><trkpt lat="42.79629417190485" lon="13.301959299067939"><ele>908.3333333333334</ele><time>2026-04-19T12:39:21Z</time></trkpt><trkpt lat="42.79634372511423" lon="13.302023672026822"><ele>908.0</ele><time>2026-04-19T12:39:22Z</time></trkpt><trkpt lat="42.79646984731342" lon="13.302078508201724"><ele>908.0000000000001</ele><time>2026-04-19T12:39:24Z</time></trkpt><trkpt lat="42.796546750922886" lon="13.302075371567499"><ele>908.0</ele><time>2026-04-19T12:39:25Z</time></trkpt><trkpt lat="42.79661561836853" lon="13.302069730668956"><ele>908.0</ele><time>2026-04-19T12:39:26Z</time></trkpt><trkpt lat="42.79670023621494" lon="13.302085124893756"><ele>908.0</ele><time>2026-04-19T12:39:27Z</time></trkpt><trkpt lat="42.796773103043925" lon="13.302072200832301"><ele>908.0000000000001</ele><time>2026-04-19T12:39:28Z</time></trkpt><trkpt lat="42.79684386940227" lon="13.302076285942219"><ele>908.0</ele><time>2026-04-19T12:39:29Z</time></trkpt><trkpt lat="42.79691938725852" lon="13.302089336863185"><ele>909.0000000000001</ele><time>2026-04-19T12:39:30Z</time></trkpt><trkpt lat="42.79699630980606" lon="13.302085449699016"><ele>910.0</ele><time>2026-04-19T12:39:31Z</time></trkpt><trkpt lat="42.797071848676055" lon="13.302039606703376"><ele>911.0</ele><time>2026-04-19T12:39:32Z</time></trkpt><trkpt lat="42.797145247452775" lon="13.30197144368716"><ele>912.0</ele><time>2026-04-19T12:39:33Z</time></trkpt><trkpt lat="42.79722735010764" lon="13.301919381952374"><ele>913.0000000000001</ele><time>2026-04-19T12:39:34Z</time></trkpt><trkpt lat="42.79727587060943" lon="13.301814364629989"><ele>914.0</ele><time>2026-04-19T12:39:35Z</time></trkpt><trkpt lat="42.79733792909831" lon="13.301747101391863"><ele>914.0000000000001</ele><time>2026-04-19T12:39:36Z</time></trkpt><trkpt lat="42.797389881021985" lon="13.30166511593707"><ele>914.0</ele><time>2026-04-19T12:39:37Z</time></trkpt><trkpt lat="42.79744482727349" lon="13.301578405174524"><ele>914.0</ele><time>2026-04-19T12:39:38Z</time></trkpt><trkpt lat="42.79749795168714" lon="13.301494569380601"><ele>914.0</ele><time>2026-04-19T12:39:39Z</time></trkpt><trkpt lat="42.79755286461922" lon="13.30140791118966"><ele>914.0000000000001</ele><time>2026-04-19T12:39:40Z</time></trkpt><trkpt lat="42.79760561859827" lon="13.301324659991733"><ele>914.0</ele><time>2026-04-19T12:39:41Z</time></trkpt><trkpt lat="42.79765826699498" lon="13.301240584145209"><ele>915.3333333333334</ele><time>2026-04-19T12:39:42Z</time></trkpt><trkpt lat="42.797710400185885" lon="13.301154248538312"><ele>916.6666666666667</ele><time>2026-04-19T12:39:43Z</time></trkpt><trkpt lat="42.79775873160018" lon="13.301074208931558"><ele>918.0</ele><time>2026-04-19T12:39:44Z</time></trkpt><trkpt lat="42.797805465171734" lon="13.30099681534252"><ele>919.3333333333333</ele><time>2026-04-19T12:39:45Z</time></trkpt><trkpt lat="42.797853010194125" lon="13.300918078045553"><ele>920.6666666666666</ele><time>2026-04-19T12:39:46Z</time></trkpt><trkpt lat="42.797902881790115" lon="13.300835487784198"><ele>922.0</ele><time>2026-04-19T12:39:47Z</time></trkpt><trkpt lat="42.79794991999855" lon="13.300760781515976"><ele>921.9999999999999</ele><time>2026-04-19T12:39:48Z</time></trkpt><trkpt lat="42.79799510739269" lon="13.300689259504225"><ele>922.0</ele><time>2026-04-19T12:39:49Z</time></trkpt><trkpt lat="42.798061612905045" lon="13.300555938596721"><ele>922.0</ele><time>2026-04-19T12:39:51Z</time></trkpt><trkpt lat="42.79806089010667" lon="13.300455241416525"><ele>922.0</ele><time>2026-04-19T12:39:52Z</time></trkpt><trkpt lat="42.797981877198524" lon="13.300364329559791"><ele>921.9999999999999</ele><time>2026-04-19T12:39:53Z</time></trkpt><trkpt lat="42.79793618417749" lon="13.300287878941171"><ele>922.0</ele><time>2026-04-19T12:39:54Z</time></trkpt><trkpt lat="42.797892236051275" lon="13.300207641150122"><ele>922.4000000000001</ele><time>2026-04-19T12:39:55Z</time></trkpt><trkpt lat="42.79791662812819" lon="13.300062989678558"><ele>922.8000000000001</ele><time>2026-04-19T12:39:57Z</time></trkpt><trkpt lat="42.79798066258975" lon="13.299990484283391"><ele>923.2</ele><time>2026-04-19T12:39:59Z</time></trkpt><trkpt lat="42.79810282502363" lon="13.300021006050681"><ele>923.6</ele><time>2026-04-19T12:40:01Z</time></trkpt><trkpt lat="42.798176400421326" lon="13.300045971688556"><ele>924.0</ele><time>2026-04-19T12:40:02Z</time></trkpt><trkpt lat="42.798243694217405" lon="13.300103144805268"><ele>924.0</ele><time>2026-04-19T12:40:03Z</time></trkpt><trkpt lat="42.79830867541474" lon="13.300164641955352"><ele>924.0</ele><time>2026-04-19T12:40:04Z</time></trkpt><trkpt lat="42.79837561828416" lon="13.300231462419637"><ele>924.0</ele><time>2026-04-19T12:40:05Z</time></trkpt><trkpt lat="42.79844113691746" lon="13.300307978304348"><ele>924.0</ele><time>2026-04-19T12:40:06Z</time></trkpt><trkpt lat="42.79850205384374" lon="13.300379561686551"><ele>924.0</ele><time>2026-04-19T12:40:07Z</time></trkpt><trkpt lat="42.79856031024298" lon="13.300450745734345"><ele>924.0</ele><time>2026-04-19T12:40:08Z</time></trkpt><trkpt lat="42.79862737746154" lon="13.300517398860077"><ele>925.5</ele><time>2026-04-19T12:40:09Z</time></trkpt><trkpt lat="42.79868569685437" lon="13.300580799190836"><ele>927.0</ele><time>2026-04-19T12:40:10Z</time></trkpt><trkpt lat="42.798743764833226" lon="13.300650347367144"><ele>928.5</ele><time>2026-04-19T12:40:11Z</time></trkpt><trkpt lat="42.798797339303675" lon="13.30071759411866"><ele>930.0</ele><time>2026-04-19T12:40:12Z</time></trkpt><trkpt lat="42.798849095067084" lon="13.300790020837756"><ele>931.5</ele><time>2026-04-19T12:40:13Z</time></trkpt><trkpt lat="42.79891203916583" lon="13.30085122633723"><ele>933.0</ele><time>2026-04-19T12:40:14Z</time></trkpt><trkpt lat="42.798972580716914" lon="13.300914194575656"><ele>933.0</ele><time>2026-04-19T12:40:15Z</time></trkpt><trkpt lat="42.79902490444086" lon="13.30098113688138"><ele>933.0</ele><time>2026-04-19T12:40:16Z</time></trkpt><trkpt lat="42.79908187071523" lon="13.301042550345812"><ele>933.0</ele><time>2026-04-19T12:40:17Z</time></trkpt><trkpt lat="42.79914428362241" lon="13.301089257522673"><ele>933.0</ele><time>2026-04-19T12:40:18Z</time></trkpt><trkpt lat="42.799267561468895" lon="13.301097549231626"><ele>933.0</ele><time>2026-04-19T12:40:20Z</time></trkpt><trkpt lat="42.79933519893796" lon="13.301080402628344"><ele>933.0</ele><time>2026-04-19T12:40:21Z</time></trkpt><trkpt lat="42.799382972898414" lon="13.301003479256119"><ele>934.6666666666666</ele><time>2026-04-19T12:40:22Z</time></trkpt><trkpt lat="42.79941582626843" lon="13.300928614116028"><ele>936.3333333333333</ele><time>2026-04-19T12:40:23Z</time></trkpt><trkpt lat="42.79940724890663" lon="13.30079452002359"><ele>938.0</ele><time>2026-04-19T12:40:24Z</time></trkpt><trkpt lat="42.79939788212884" lon="13.300688093071406"><ele>939.6666666666666</ele><time>2026-04-19T12:40:25Z</time></trkpt><trkpt lat="42.79938484397319" lon="13.300580284593293"><ele>941.3333333333333</ele><time>2026-04-19T12:40:26Z</time></trkpt><trkpt lat="42.79936767438027" lon="13.300468974396631"><ele>943.0</ele><time>2026-04-19T12:40:27Z</time></trkpt><trkpt lat="42.799348308871025" lon="13.300359824577294"><ele>942.3333333333333</ele><time>2026-04-19T12:40:28Z</time></trkpt><trkpt lat="42.799323400058114" lon="13.30024773958727"><ele>941.6666666666666</ele><time>2026-04-19T12:40:29Z</time></trkpt><trkpt lat="42.79928725923492" lon="13.30013834689131"><ele>941.0</ele><time>2026-04-19T12:40:30Z</time></trkpt><trkpt lat="42.79922892852242" lon="13.300042893129433"><ele>940.3333333333333</ele><time>2026-04-19T12:40:31Z</time></trkpt><trkpt lat="42.799183619305445" lon="13.299943530723976"><ele>939.6666666666666</ele><time>2026-04-19T12:40:32Z</time></trkpt><trkpt lat="42.799141278084555" lon="13.299839835238656"><ele>939.0</ele><time>2026-04-19T12:40:33Z</time></trkpt><trkpt lat="42.79911562635092" lon="13.29973233511584"><ele>939.0</ele><time>2026-04-19T12:40:34Z</time></trkpt><trkpt lat="42.799104699257924" lon="13.299617645503943"><ele>939.0</ele><time>2026-04-19T12:40:35Z</time></trkpt><trkpt lat="42.79912014987195" lon="13.299510313960479"><ele>939.0</ele><time>2026-04-19T12:40:36Z</time></trkpt><trkpt lat="42.799151788643115" lon="13.299404932991871"><ele>939.0</ele><time>2026-04-19T12:40:37Z</time></trkpt><trkpt lat="42.79919259767505" lon="13.299299673272495"><ele>939.0</ele><time>2026-04-19T12:40:38Z</time></trkpt><trkpt lat="42.79923419705427" lon="13.299192375894679"><ele>939.0</ele><time>2026-04-19T12:40:39Z</time></trkpt><trkpt lat="42.79927416204557" lon="13.29907486724518"><ele>939.0</ele><time>2026-04-19T12:40:40Z</time></trkpt><trkpt lat="42.79929646619898" lon="13.29894656303761"><ele>939.0000000000001</ele><time>2026-04-19T12:40:41Z</time></trkpt><trkpt lat="42.79928871544316" lon="13.298812744759456"><ele>939.0000000000001</ele><time>2026-04-19T12:40:42Z</time></trkpt><trkpt lat="42.799243518834636" lon="13.298690339081238"><ele>939.0</ele><time>2026-04-19T12:40:43Z</time></trkpt><trkpt lat="42.799179335840456" lon="13.298584060886164"><ele>939.0</ele><time>2026-04-19T12:40:44Z</time></trkpt><trkpt lat="42.79911274022614" lon="13.29849546744621"><ele>941.0</ele><time>2026-04-19T12:40:45Z</time></trkpt><trkpt lat="42.79906384927233" lon="13.298401148464995"><ele>943.0000000000001</ele><time>2026-04-19T12:40:46Z</time></trkpt><trkpt lat="42.79901225351746" lon="13.298171718484541"><ele>945.0000000000001</ele><time>2026-04-19T12:40:48Z</time></trkpt><trkpt lat="42.799011043884974" lon="13.298054775621067"><ele>947.0</ele><time>2026-04-19T12:40:49Z</time></trkpt><trkpt lat="42.799032527405274" lon="13.29793333501334"><ele>949.0</ele><time>2026-04-19T12:40:50Z</time></trkpt><trkpt lat="42.79906686411379" lon="13.297797799477522"><ele>950.0</ele><time>2026-04-19T12:40:51Z</time></trkpt><trkpt lat="42.79910590225304" lon="13.297665398810059"><ele>951.0000000000001</ele><time>2026-04-19T12:40:52Z</time></trkpt><trkpt lat="42.79914646054023" lon="13.297526863767995"><ele>952.0000000000001</ele><time>2026-04-19T12:40:53Z</time></trkpt><trkpt lat="42.799184953669254" lon="13.297412411579355"><ele>953.0</ele><time>2026-04-19T12:40:54Z</time></trkpt><trkpt lat="42.799226291201876" lon="13.29732999069384"><ele>954.0</ele><time>2026-04-19T12:40:55Z</time></trkpt><trkpt lat="42.799334962606174" lon="13.297269951717714"><ele>956.6</ele><time>2026-04-19T12:40:57Z</time></trkpt><trkpt lat="42.79941099888751" lon="13.297338807786875"><ele>959.2</ele><time>2026-04-19T12:40:58Z</time></trkpt><trkpt lat="42.79946661839798" lon="13.297465554955219"><ele>961.8000000000001</ele><time>2026-04-19T12:40:59Z</time></trkpt><trkpt lat="42.79949529990057" lon="13.297617962315563"><ele>964.4000000000001</ele><time>2026-04-19T12:41:00Z</time></trkpt><trkpt lat="42.79951507196236" lon="13.297785337343626"><ele>967.0</ele><time>2026-04-19T12:41:01Z</time></trkpt><trkpt lat="42.79955630359533" lon="13.2979390166407"><ele>967.0</ele><time>2026-04-19T12:41:02Z</time></trkpt><trkpt lat="42.799643739392714" lon="13.29806298499609"><ele>967.0</ele><time>2026-04-19T12:41:03Z</time></trkpt><trkpt lat="42.79976116961525" lon="13.298162542392443"><ele>967.0</ele><time>2026-04-19T12:41:04Z</time></trkpt><trkpt lat="42.79989501233151" lon="13.298264066680405"><ele>967.0</ele><time>2026-04-19T12:41:05Z</time></trkpt><trkpt lat="42.800040896657" lon="13.298394440165941"><ele>969.0</ele><time>2026-04-19T12:41:06Z</time></trkpt><trkpt lat="42.80019789610302" lon="13.298540069098278"><ele>971.0</ele><time>2026-04-19T12:41:07Z</time></trkpt><trkpt lat="42.80037930640511" lon="13.298707232901512"><ele>973.0</ele><time>2026-04-19T12:41:08Z</time></trkpt><trkpt lat="42.800569980299315" lon="13.29888380493257"><ele>972.3333333333333</ele><time>2026-04-19T12:41:09Z</time></trkpt><trkpt lat="42.80076006424978" lon="13.299058912839302"><ele>971.6666666666667</ele><time>2026-04-19T12:41:10Z</time></trkpt><trkpt lat="42.80094223396172" lon="13.29921957146645"><ele>971.0</ele><time>2026-04-19T12:41:11Z</time></trkpt><trkpt lat="42.80110402021275" lon="13.299361382750876"><ele>972.6666666666667</ele><time>2026-04-19T12:41:12Z</time></trkpt><trkpt lat="42.80124977175946" lon="13.299495807313184"><ele>974.3333333333333</ele><time>2026-04-19T12:41:13Z</time></trkpt><trkpt lat="42.80136883023283" lon="13.29962582423702"><ele>976.0</ele><time>2026-04-19T12:41:14Z</time></trkpt><trkpt lat="42.80146147762936" lon="13.29976886258481"><ele>976.0</ele><time>2026-04-19T12:41:15Z</time></trkpt><trkpt lat="42.80150937404573" lon="13.299930089496705"><ele>976.0</ele><time>2026-04-19T12:41:16Z</time></trkpt><trkpt lat="42.801521866363345" lon="13.30010327269085"><ele>976.0</ele><time>2026-04-19T12:41:17Z</time></trkpt><trkpt lat="42.801507111131286" lon="13.300279804934448"><ele>976.0</ele><time>2026-04-19T12:41:18Z</time></trkpt><trkpt lat="42.8014966106295" lon="13.30042381644469"><ele>975.9999999999999</ele><time>2026-04-19T12:41:19Z</time></trkpt><trkpt lat="42.801532310385696" lon="13.300520815211353"><ele>976.0</ele><time>2026-04-19T12:41:20Z</time></trkpt><trkpt lat="42.80160084535069" lon="13.300565764654511"><ele>976.0</ele><time>2026-04-19T12:41:21Z</time></trkpt><trkpt lat="42.80169007876289" lon="13.300571222861768"><ele>976.0</ele><time>2026-04-19T12:41:22Z</time></trkpt><trkpt lat="42.80178059715023" lon="13.30054900283155"><ele>975.9999999999999</ele><time>2026-04-19T12:41:23Z</time></trkpt><trkpt lat="42.80185346124998" lon="13.300471051800656"><ele>976.0</ele><time>2026-04-19T12:41:24Z</time></trkpt><trkpt lat="42.801876532531" lon="13.300301282344101"><ele>979.3333333333333</ele><time>2026-04-19T12:41:25Z</time></trkpt><trkpt lat="42.80188332960451" lon="13.300119859260057"><ele>982.6666666666667</ele><time>2026-04-19T12:41:26Z</time></trkpt><trkpt lat="42.80190232558524" lon="13.299908474344253"><ele>986.0</ele><time>2026-04-19T12:41:27Z</time></trkpt><trkpt lat="42.801920099805535" lon="13.299678377334825"><ele>986.6666666666667</ele><time>2026-04-19T12:41:28Z</time></trkpt><trkpt lat="42.80193135077173" lon="13.29945607451815"><ele>987.3333333333333</ele><time>2026-04-19T12:41:29Z</time></trkpt><trkpt lat="42.80191057876761" lon="13.299244882720837"><ele>988.0</ele><time>2026-04-19T12:41:30Z</time></trkpt><trkpt lat="42.801845436332556" lon="13.299050666161513"><ele>986.6666666666666</ele><time>2026-04-19T12:41:30.999Z</time></trkpt><trkpt lat="42.80175217744013" lon="13.29886758519091"><ele>985.3333333333333</ele><time>2026-04-19T12:41:31.999Z</time></trkpt><trkpt lat="42.801707828066846" lon="13.298663598222879"><ele>984.0</ele><time>2026-04-19T12:41:32.999Z</time></trkpt><trkpt lat="42.80168444496097" lon="13.298443808708873"><ele>984.0</ele><time>2026-04-19T12:41:33.999Z</time></trkpt><trkpt lat="42.80170410456279" lon="13.298226277539994"><ele>984.0</ele><time>2026-04-19T12:41:34.999Z</time></trkpt><trkpt lat="42.801757511291406" lon="13.298023066024864"><ele>984.0</ele><time>2026-04-19T12:41:35.999Z</time></trkpt><trkpt lat="42.801802644182345" lon="13.297821917540897"><ele>985.25</ele><time>2026-04-19T12:41:36.999Z</time></trkpt><trkpt lat="42.801813250749845" lon="13.297616913467069"><ele>986.5</ele><time>2026-04-19T12:41:37.999Z</time></trkpt><trkpt lat="42.80175333643895" lon="13.297431342596402"><ele>987.75</ele><time>2026-04-19T12:41:38.999Z</time></trkpt><trkpt lat="42.80167911621021" lon="13.29726453810667"><ele>989.0</ele><time>2026-04-19T12:41:39.999Z</time></trkpt><trkpt lat="42.80162519130565" lon="13.29711732457594"><ele>989.8000000000001</ele><time>2026-04-19T12:41:41Z</time></trkpt><trkpt lat="42.801625116530836" lon="13.296995275349492"><ele>990.6000000000001</ele><time>2026-04-19T12:41:42Z</time></trkpt><trkpt lat="42.80165110468281" lon="13.296891456426094"><ele>991.4</ele><time>2026-04-19T12:41:43Z</time></trkpt><trkpt lat="42.80171494425521" lon="13.296820059285361"><ele>992.2</ele><time>2026-04-19T12:41:44Z</time></trkpt><trkpt lat="42.80180369107083" lon="13.296702292343175"><ele>993.0</ele><time>2026-04-19T12:41:45Z</time></trkpt><trkpt lat="42.80187185389466" lon="13.296540678239941"><ele>999.3333333333333</ele><time>2026-04-19T12:41:46Z</time></trkpt><trkpt lat="42.80191790664294" lon="13.29635819760384"><ele>1005.6666666666666</ele><time>2026-04-19T12:41:47Z</time></trkpt><trkpt lat="42.80193113878504" lon="13.296129765288965"><ele>1012.0</ele><time>2026-04-19T12:41:48Z</time></trkpt><trkpt lat="42.80191088400423" lon="13.295882248499694"><ele>1012.0</ele><time>2026-04-19T12:41:49Z</time></trkpt><trkpt lat="42.80186838572492" lon="13.295637241276195"><ele>1012.0</ele><time>2026-04-19T12:41:50Z</time></trkpt><trkpt lat="42.801830160327114" lon="13.295425574060983"><ele>1012.0</ele><time>2026-04-19T12:41:51Z</time></trkpt><trkpt lat="42.801784287769095" lon="13.295263057317609"><ele>1010.75</ele><time>2026-04-19T12:41:52Z</time></trkpt><trkpt lat="42.80172386546241" lon="13.295120394619683"><ele>1009.5</ele><time>2026-04-19T12:41:53Z</time></trkpt><trkpt lat="42.801594305586754" lon="13.295025503192536"><ele>1008.25</ele><time>2026-04-19T12:41:54Z</time></trkpt><trkpt lat="42.80146002794557" lon="13.294938729711008"><ele>1007.0</ele><time>2026-04-19T12:41:55Z</time></trkpt><trkpt lat="42.801355249436845" lon="13.294847815743692"><ele>1011.25</ele><time>2026-04-19T12:41:56Z</time></trkpt><trkpt lat="42.80130075407192" lon="13.294695963858963"><ele>1015.5</ele><time>2026-04-19T12:41:57Z</time></trkpt><trkpt lat="42.801261988250175" lon="13.294509296973542"><ele>1019.75</ele><time>2026-04-19T12:41:58Z</time></trkpt><trkpt lat="42.80122614112806" lon="13.294319828809568"><ele>1024.0</ele><time>2026-04-19T12:41:59Z</time></trkpt><trkpt lat="42.80122287339774" lon="13.294137255314803"><ele>1024.0</ele><time>2026-04-19T12:42:00Z</time></trkpt><trkpt lat="42.801246701496034" lon="13.293951198961278"><ele>1024.0</ele><time>2026-04-19T12:42:01Z</time></trkpt><trkpt lat="42.80131131985229" lon="13.293780561966459"><ele>1024.0</ele><time>2026-04-19T12:42:02Z</time></trkpt><trkpt lat="42.80138300973423" lon="13.293582641536517"><ele>1024.0</ele><time>2026-04-19T12:42:03Z</time></trkpt><trkpt lat="42.80143653712969" lon="13.293366994532086"><ele>1024.3333333333333</ele><time>2026-04-19T12:42:04Z</time></trkpt><trkpt lat="42.801492421387756" lon="13.293122370843843"><ele>1024.6666666666667</ele><time>2026-04-19T12:42:05Z</time></trkpt><trkpt lat="42.80152170702928" lon="13.292884816070483"><ele>1025.0</ele><time>2026-04-19T12:42:06Z</time></trkpt><trkpt lat="42.80152463827654" lon="13.292652880815513"><ele>1026.25</ele><time>2026-04-19T12:42:07Z</time></trkpt><trkpt lat="42.80149863751272" lon="13.292424565628641"><ele>1027.5</ele><time>2026-04-19T12:42:08Z</time></trkpt><trkpt lat="42.80146198155443" lon="13.292227636969951"><ele>1028.75</ele><time>2026-04-19T12:42:09Z</time></trkpt><trkpt lat="42.80146389078517" lon="13.292084878081903"><ele>1030.0</ele><time>2026-04-19T12:42:10Z</time></trkpt><trkpt lat="42.80146170904079" lon="13.291992331364778"><ele>1030.0</ele><time>2026-04-19T12:42:11Z</time></trkpt><trkpt lat="42.80151163759579" lon="13.291919081494184"><ele>1030.0</ele><time>2026-04-19T12:42:12Z</time></trkpt><trkpt lat="42.80157942080086" lon="13.291899410992677"><ele>1030.0</ele><time>2026-04-19T12:42:13Z</time></trkpt><trkpt lat="42.80164361523868" lon="13.291935568944922"><ele>1030.0</ele><time>2026-04-19T12:42:14Z</time></trkpt><trkpt lat="42.80169111618644" lon="13.292014923458384"><ele>1030.0</ele><time>2026-04-19T12:42:15Z</time></trkpt><trkpt lat="42.80171475661509" lon="13.292119573556539"><ele>1030.0</ele><time>2026-04-19T12:42:16Z</time></trkpt><trkpt lat="42.801727164475906" lon="13.292262191622592"><ele>1030.0</ele><time>2026-04-19T12:42:17Z</time></trkpt><trkpt lat="42.8017523585752" lon="13.292426401403421"><ele>1030.0</ele><time>2026-04-19T12:42:18Z</time></trkpt><trkpt lat="42.80180493497715" lon="13.292588139676333"><ele>1030.0</ele><time>2026-04-19T12:42:19Z</time></trkpt><trkpt lat="42.801874741689204" lon="13.292757828034455"><ele>1030.0</ele><time>2026-04-19T12:42:20Z</time></trkpt><trkpt lat="42.801930621640935" lon="13.292932632386178"><ele>1033.75</ele><time>2026-04-19T12:42:21Z</time></trkpt><trkpt lat="42.80195100420267" lon="13.293110918251957"><ele>1037.5</ele><time>2026-04-19T12:42:22Z</time></trkpt><trkpt lat="42.801940905284845" lon="13.293300772492866"><ele>1041.25</ele><time>2026-04-19T12:42:23Z</time></trkpt><trkpt lat="42.80192785139021" lon="13.293485922121226"><ele>1045.0</ele><time>2026-04-19T12:42:24Z</time></trkpt><trkpt lat="42.80194065079445" lon="13.293637511042906"><ele>1045.0</ele><time>2026-04-19T12:42:25Z</time></trkpt><trkpt lat="42.80199372855282" lon="13.293743368383467"><ele>1045.0</ele><time>2026-04-19T12:42:26Z</time></trkpt><trkpt lat="42.80208400239639" lon="13.293814353874774"><ele>1045.0</ele><time>2026-04-19T12:42:27Z</time></trkpt><trkpt lat="42.80219121449537" lon="13.293839467949576"><ele>1045.0</ele><time>2026-04-19T12:42:28Z</time></trkpt><trkpt lat="42.80231796907737" lon="13.293816250439697"><ele>1045.0</ele><time>2026-04-19T12:42:29Z</time></trkpt><trkpt lat="42.80246188581008" lon="13.29375803611207"><ele>1045.0</ele><time>2026-04-19T12:42:30Z</time></trkpt><trkpt lat="42.80261886600338" lon="13.293682229561577"><ele>1045.0</ele><time>2026-04-19T12:42:31Z</time></trkpt><trkpt lat="42.802783292590156" lon="13.293613140597232"><ele>1045.0</ele><time>2026-04-19T12:42:32Z</time></trkpt><trkpt lat="42.802945903619246" lon="13.293552540466257"><ele>1046.25</ele><time>2026-04-19T12:42:33Z</time></trkpt><trkpt lat="42.80309184246645" lon="13.293504320619196"><ele>1047.5</ele><time>2026-04-19T12:42:34Z</time></trkpt><trkpt lat="42.80322185374612" lon="13.293488492037588"><ele>1048.75</ele><time>2026-04-19T12:42:35Z</time></trkpt><trkpt lat="42.80334309451765" lon="13.293517169607725"><ele>1050.0</ele><time>2026-04-19T12:42:36Z</time></trkpt><trkpt lat="42.80345020429761" lon="13.293621769625544"><ele>1051.5</ele><time>2026-04-19T12:42:37Z</time></trkpt><trkpt lat="42.80357428079359" lon="13.293706485720191"><ele>1053.0</ele><time>2026-04-19T12:42:38Z</time></trkpt><trkpt lat="42.80369413295077" lon="13.2938320865373"><ele>1054.5</ele><time>2026-04-19T12:42:39Z</time></trkpt><trkpt lat="42.803819105674634" lon="13.293956163742427"><ele>1056.0</ele><time>2026-04-19T12:42:40Z</time></trkpt><trkpt lat="42.803949579777615" lon="13.294086434899139"><ele>1056.0</ele><time>2026-04-19T12:42:41Z</time></trkpt><trkpt lat="42.80408483366669" lon="13.294216969614364"><ele>1056.0</ele><time>2026-04-19T12:42:42Z</time></trkpt><trkpt lat="42.80421772930803" lon="13.294360973771672"><ele>1056.0</ele><time>2026-04-19T12:42:43Z</time></trkpt><trkpt lat="42.80434874837107" lon="13.294491058108257"><ele>1058.0</ele><time>2026-04-19T12:42:44Z</time></trkpt><trkpt lat="42.80448819122965" lon="13.294622789592353"><ele>1060.0</ele><time>2026-04-19T12:42:45Z</time></trkpt><trkpt lat="42.80461470763985" lon="13.294745433728094"><ele>1062.0</ele><time>2026-04-19T12:42:46Z</time></trkpt><trkpt lat="42.80471928443747" lon="13.294861231728833"><ele>1062.0</ele><time>2026-04-19T12:42:47Z</time></trkpt><trkpt lat="42.80481644278218" lon="13.29497071092545"><ele>1062.0</ele><time>2026-04-19T12:42:48Z</time></trkpt><trkpt lat="42.8049392934931" lon="13.29505984746497"><ele>1062.0</ele><time>2026-04-19T12:42:49Z</time></trkpt><trkpt lat="42.80509165754264" lon="13.295114324476023"><ele>1062.0</ele><time>2026-04-19T12:42:50Z</time></trkpt><trkpt lat="42.80526515598608" lon="13.295153851786578"><ele>1064.3333333333333</ele><time>2026-04-19T12:42:51Z</time></trkpt><trkpt lat="42.80543925392626" lon="13.295231818270118"><ele>1066.6666666666665</ele><time>2026-04-19T12:42:52Z</time></trkpt><trkpt lat="42.80561931540318" lon="13.295274341659796"><ele>1069.0</ele><time>2026-04-19T12:42:53Z</time></trkpt><trkpt lat="42.80579191419165" lon="13.295348211551088"><ele>1069.0</ele><time>2026-04-19T12:42:54Z</time></trkpt><trkpt lat="42.80596111585755" lon="13.295412664456597"><ele>1069.0</ele><time>2026-04-19T12:42:55Z</time></trkpt><trkpt lat="42.80612323699266" lon="13.295466648875443"><ele>1069.0</ele><time>2026-04-19T12:42:56Z</time></trkpt><trkpt lat="42.8062775156016" lon="13.295521582980651"><ele>1069.5</ele><time>2026-04-19T12:42:57Z</time></trkpt><trkpt lat="42.806422141140146" lon="13.295570997589715"><ele>1070.0</ele><time>2026-04-19T12:42:58Z</time></trkpt><trkpt lat="42.806561319630504" lon="13.29561857804922"><ele>1070.5</ele><time>2026-04-19T12:42:59Z</time></trkpt><trkpt lat="42.80669238178847" lon="13.295664201211174"><ele>1071.0</ele><time>2026-04-19T12:43:00Z</time></trkpt><trkpt lat="42.806801253740275" lon="13.295718460470697"><ele>1075.25</ele><time>2026-04-19T12:43:01Z</time></trkpt><trkpt lat="42.80687622481392" lon="13.29580064095298"><ele>1079.5</ele><time>2026-04-19T12:43:02Z</time></trkpt><trkpt lat="42.80691950752105" lon="13.295926860119625"><ele>1083.75</ele><time>2026-04-19T12:43:03Z</time></trkpt><trkpt lat="42.80693715704076" lon="13.29609727865514"><ele>1088.0</ele><time>2026-04-19T12:43:04Z</time></trkpt><trkpt lat="42.80693989712249" lon="13.296302225898078"><ele>1087.3333333333335</ele><time>2026-04-19T12:43:05Z</time></trkpt><trkpt lat="42.80695620234864" lon="13.296508711849087"><ele>1086.6666666666667</ele><time>2026-04-19T12:43:06Z</time></trkpt><trkpt lat="42.80702031866557" lon="13.296689751898208"><ele>1086.0</ele><time>2026-04-19T12:43:07Z</time></trkpt><trkpt lat="42.80714374139219" lon="13.296865931224561"><ele>1086.0</ele><time>2026-04-19T12:43:08Z</time></trkpt><trkpt lat="42.80729999121153" lon="13.297039290407252"><ele>1086.0</ele><time>2026-04-19T12:43:09Z</time></trkpt><trkpt lat="42.80746388498657" lon="13.297226483056873"><ele>1086.0</ele><time>2026-04-19T12:43:10Z</time></trkpt><trkpt lat="42.80761860058483" lon="13.297413663266616"><ele>1089.3333333333333</ele><time>2026-04-19T12:43:11Z</time></trkpt><trkpt lat="42.80774916500425" lon="13.29757341600354"><ele>1092.6666666666665</ele><time>2026-04-19T12:43:12Z</time></trkpt><trkpt lat="42.80787178071692" lon="13.297721273809042"><ele>1096.0</ele><time>2026-04-19T12:43:13Z</time></trkpt><trkpt lat="42.80797716755805" lon="13.297847620992124"><ele>1096.0</ele><time>2026-04-19T12:43:14Z</time></trkpt><trkpt lat="42.80805476324858" lon="13.297979910637723"><ele>1096.0</ele><time>2026-04-19T12:43:15Z</time></trkpt><trkpt lat="42.808097862794654" lon="13.298101715140087"><ele>1096.0</ele><time>2026-04-19T12:43:16Z</time></trkpt><trkpt lat="42.80811330989639" lon="13.298267381950192"><ele>1096.0</ele><time>2026-04-19T12:43:17Z</time></trkpt><trkpt lat="42.808113146116895" lon="13.298429558516569"><ele>1095.5</ele><time>2026-04-19T12:43:18Z</time></trkpt><trkpt lat="42.80806289365091" lon="13.298552081406177"><ele>1095.0</ele><time>2026-04-19T12:43:19Z</time></trkpt><trkpt lat="42.80787238810507" lon="13.29870428468553"><ele>1094.5</ele><time>2026-04-19T12:43:21Z</time></trkpt><trkpt lat="42.807781074527085" lon="13.298791565458986"><ele>1094.0</ele><time>2026-04-19T12:43:22Z</time></trkpt><trkpt lat="42.807725970577685" lon="13.298910518756008"><ele>1092.0</ele><time>2026-04-19T12:43:23Z</time></trkpt><trkpt lat="42.80770432344548" lon="13.299048975799025"><ele>1090.0</ele><time>2026-04-19T12:43:24Z</time></trkpt><trkpt lat="42.80768992663751" lon="13.299196390778771"><ele>1088.0</ele><time>2026-04-19T12:43:25Z</time></trkpt><trkpt lat="42.80768029603642" lon="13.299335157662636"><ele>1086.0</ele><time>2026-04-19T12:43:26Z</time></trkpt><trkpt lat="42.807668039596166" lon="13.299456405839365"><ele>1084.0</ele><time>2026-04-19T12:43:27Z</time></trkpt><trkpt lat="42.807658873857314" lon="13.299551215830862"><ele>1088.4</ele><time>2026-04-19T12:43:28Z</time></trkpt><trkpt lat="42.807662284375105" lon="13.299694228031303"><ele>1092.8000000000002</ele><time>2026-04-19T12:43:30Z</time></trkpt><trkpt lat="42.80779891164471" lon="13.299694400917103"><ele>1097.1999999999998</ele><time>2026-04-19T12:43:33Z</time></trkpt><trkpt lat="42.807849919067394" lon="13.299634933928552"><ele>1101.6</ele><time>2026-04-19T12:43:34Z</time></trkpt><trkpt lat="42.80790623463853" lon="13.299549574956831"><ele>1106.0</ele><time>2026-04-19T12:43:35Z</time></trkpt><trkpt lat="42.80799628947535" lon="13.299454883957582"><ele>1106.0</ele><time>2026-04-19T12:43:36Z</time></trkpt><trkpt lat="42.8080792143814" lon="13.29934183959949"><ele>1106.0</ele><time>2026-04-19T12:43:37Z</time></trkpt><trkpt lat="42.8081455738445" lon="13.29925137733661"><ele>1106.0</ele><time>2026-04-19T12:43:38Z</time></trkpt><trkpt lat="42.80819430018208" lon="13.299184952861962"><ele>1106.0</ele><time>2026-04-19T12:43:39Z</time></trkpt><trkpt lat="42.808241465464086" lon="13.299120761590062"><ele>1106.0</ele><time>2026-04-19T12:43:40Z</time></trkpt><trkpt lat="42.808295418768544" lon="13.299047439484232"><ele>1106.0</ele><time>2026-04-19T12:43:41Z</time></trkpt><trkpt lat="42.80836248878131" lon="13.298956292468946"><ele>1108.5</ele><time>2026-04-19T12:43:42Z</time></trkpt><trkpt lat="42.8084352132466" lon="13.298857460293164"><ele>1111.0</ele><time>2026-04-19T12:43:43Z</time></trkpt><trkpt lat="42.80851946797676" lon="13.29874296027928"><ele>1113.5</ele><time>2026-04-19T12:43:44Z</time></trkpt><trkpt lat="42.80859001223995" lon="13.298611895705152"><ele>1116.0</ele><time>2026-04-19T12:43:45Z</time></trkpt><trkpt lat="42.808678539312524" lon="13.298498657141835"><ele>1116.0</ele><time>2026-04-19T12:43:46Z</time></trkpt><trkpt lat="42.80875367638535" lon="13.298371570119265"><ele>1116.0</ele><time>2026-04-19T12:43:47Z</time></trkpt><trkpt lat="42.80882298620272" lon="13.298243467628636"><ele>1116.0</ele><time>2026-04-19T12:43:48Z</time></trkpt><trkpt lat="42.80888283821499" lon="13.298100531058271"><ele>1116.0</ele><time>2026-04-19T12:43:49Z</time></trkpt><trkpt lat="42.80892774163403" lon="13.297961915893998"><ele>1113.75</ele><time>2026-04-19T12:43:50Z</time></trkpt><trkpt lat="42.808962792244444" lon="13.297805319376344"><ele>1111.5</ele><time>2026-04-19T12:43:51Z</time></trkpt><trkpt lat="42.809000293812474" lon="13.297653092626444"><ele>1109.25</ele><time>2026-04-19T12:43:52Z</time></trkpt><trkpt lat="42.80904554877156" lon="13.297508475051659"><ele>1107.0</ele><time>2026-04-19T12:43:53Z</time></trkpt><trkpt lat="42.80907260302136" lon="13.297353808715416"><ele>1107.75</ele><time>2026-04-19T12:43:54Z</time></trkpt><trkpt lat="42.80908964286763" lon="13.297195314831077"><ele>1108.5</ele><time>2026-04-19T12:43:55Z</time></trkpt><trkpt lat="42.80909287200117" lon="13.297033826234035"><ele>1109.25</ele><time>2026-04-19T12:43:56Z</time></trkpt><trkpt lat="42.8090755613962" lon="13.296876365585732"><ele>1110.0</ele><time>2026-04-19T12:43:57Z</time></trkpt><trkpt lat="42.809071339115604" lon="13.296719864438906"><ele>1110.0</ele><time>2026-04-19T12:43:58Z</time></trkpt><trkpt lat="42.80905639609615" lon="13.296565995368596"><ele>1110.0</ele><time>2026-04-19T12:43:59Z</time></trkpt><trkpt lat="42.809039094988975" lon="13.296409884050247"><ele>1110.0</ele><time>2026-04-19T12:44:00Z</time></trkpt><trkpt lat="42.80902301220221" lon="13.296254721819"><ele>1110.0</ele><time>2026-04-19T12:44:01Z</time></trkpt><trkpt lat="42.80901830382761" lon="13.296096929815826"><ele>1112.75</ele><time>2026-04-19T12:44:02Z</time></trkpt><trkpt lat="42.808983342922296" lon="13.295944803827819"><ele>1115.5</ele><time>2026-04-19T12:44:03Z</time></trkpt><trkpt lat="42.80896498884612" lon="13.29579084172495"><ele>1118.25</ele><time>2026-04-19T12:44:04Z</time></trkpt><trkpt lat="42.808944737689885" lon="13.295635861321385"><ele>1121.0</ele><time>2026-04-19T12:44:05Z</time></trkpt><trkpt lat="42.80893639328254" lon="13.295478848805125"><ele>1123.0</ele><time>2026-04-19T12:44:06Z</time></trkpt><trkpt lat="42.80891480754548" lon="13.295321195202751"><ele>1125.0</ele><time>2026-04-19T12:44:07Z</time></trkpt><trkpt lat="42.80888115063929" lon="13.29517213971723"><ele>1127.0</ele><time>2026-04-19T12:44:08Z</time></trkpt><trkpt lat="42.80885931410699" lon="13.295016825087048"><ele>1129.0</ele><time>2026-04-19T12:44:09Z</time></trkpt><trkpt lat="42.80883226091295" lon="13.29486497198435"><ele>1130.75</ele><time>2026-04-19T12:44:10Z</time></trkpt><trkpt lat="42.80880989963257" lon="13.294713440688463"><ele>1132.5</ele><time>2026-04-19T12:44:11Z</time></trkpt><trkpt lat="42.80880059402234" lon="13.294556489596863"><ele>1134.25</ele><time>2026-04-19T12:44:12Z</time></trkpt><trkpt lat="42.80877824891366" lon="13.294402398170742"><ele>1136.0</ele><time>2026-04-19T12:44:13Z</time></trkpt><trkpt lat="42.80874722396118" lon="13.294246961985618"><ele>1136.0</ele><time>2026-04-19T12:44:14Z</time></trkpt><trkpt lat="42.80871646923419" lon="13.294096310561972"><ele>1136.0</ele><time>2026-04-19T12:44:15Z</time></trkpt><trkpt lat="42.80868251127536" lon="13.293947322289227"><ele>1136.0</ele><time>2026-04-19T12:44:16Z</time></trkpt><trkpt lat="42.80863667259942" lon="13.293804585508537"><ele>1136.0</ele><time>2026-04-19T12:44:17Z</time></trkpt><trkpt lat="42.80858850374784" lon="13.293662646568407"><ele>1137.75</ele><time>2026-04-19T12:44:18Z</time></trkpt><trkpt lat="42.80853713718877" lon="13.293520026385131"><ele>1139.5</ele><time>2026-04-19T12:44:19Z</time></trkpt><trkpt lat="42.80848771848268" lon="13.293378844152189"><ele>1141.25</ele><time>2026-04-19T12:44:20Z</time></trkpt><trkpt lat="42.80842720085395" lon="13.293236933085767"><ele>1143.0</ele><time>2026-04-19T12:44:21Z</time></trkpt><trkpt lat="42.80836786645734" lon="13.293107107592581"><ele>1140.75</ele><time>2026-04-19T12:44:22Z</time></trkpt><trkpt lat="42.808293164878535" lon="13.292984098594088"><ele>1138.5</ele><time>2026-04-19T12:44:23Z</time></trkpt><trkpt lat="42.80821498932599" lon="13.292864089995799"><ele>1136.25</ele><time>2026-04-19T12:44:24Z</time></trkpt><trkpt lat="42.80814117978828" lon="13.29274373880936"><ele>1134.0</ele><time>2026-04-19T12:44:25Z</time></trkpt><trkpt lat="42.80805197997062" lon="13.292635038562096"><ele>1134.0</ele><time>2026-04-19T12:44:26Z</time></trkpt><trkpt lat="42.80798013271481" lon="13.292520599205943"><ele>1134.0</ele><time>2026-04-19T12:44:27Z</time></trkpt><trkpt lat="42.80789222797872" lon="13.292414634367177"><ele>1134.0</ele><time>2026-04-19T12:44:28Z</time></trkpt><trkpt lat="42.80780856218498" lon="13.292306772104121"><ele>1134.0</ele><time>2026-04-19T12:44:29Z</time></trkpt><trkpt lat="42.807726174937045" lon="13.292200104455288"><ele>1135.5</ele><time>2026-04-19T12:44:30Z</time></trkpt><trkpt lat="42.8076491848246" lon="13.292081720369156"><ele>1137.0</ele><time>2026-04-19T12:44:31Z</time></trkpt><trkpt lat="42.80756642188064" lon="13.291963697424865"><ele>1138.5</ele><time>2026-04-19T12:44:32Z</time></trkpt><trkpt lat="42.807469057957" lon="13.291841484037862"><ele>1140.0</ele><time>2026-04-19T12:44:33Z</time></trkpt><trkpt lat="42.807370525001886" lon="13.29171450094875"><ele>1140.0</ele><time>2026-04-19T12:44:34Z</time></trkpt><trkpt lat="42.807270497887124" lon="13.291579550196692"><ele>1140.0</ele><time>2026-04-19T12:44:35Z</time></trkpt><trkpt lat="42.807164668328674" lon="13.291440114182064"><ele>1140.0</ele><time>2026-04-19T12:44:36Z</time></trkpt><trkpt lat="42.807062560831305" lon="13.291302092881544"><ele>1140.0</ele><time>2026-04-19T12:44:37Z</time></trkpt><trkpt lat="42.80695973972958" lon="13.291157657653972"><ele>1140.0</ele><time>2026-04-19T12:44:38Z</time></trkpt><trkpt lat="42.806852207222114" lon="13.29102134994319"><ele>1140.0</ele><time>2026-04-19T12:44:39Z</time></trkpt><trkpt lat="42.80674669012282" lon="13.290881487481776"><ele>1140.0</ele><time>2026-04-19T12:44:40Z</time></trkpt><trkpt lat="42.80664212616791" lon="13.290736415924544"><ele>1140.0</ele><time>2026-04-19T12:44:41Z</time></trkpt><trkpt lat="42.806537626662326" lon="13.290591653884498"><ele>1144.75</ele><time>2026-04-19T12:44:42Z</time></trkpt><trkpt lat="42.80643633532486" lon="13.290455917808089"><ele>1149.5</ele><time>2026-04-19T12:44:43Z</time></trkpt><trkpt lat="42.80633783702348" lon="13.29032036648359"><ele>1154.25</ele><time>2026-04-19T12:44:44Z</time></trkpt><trkpt lat="42.806240483907644" lon="13.290187421155853"><ele>1159.0</ele><time>2026-04-19T12:44:45Z</time></trkpt><trkpt lat="42.80614822913519" lon="13.29005684813235"><ele>1159.0</ele><time>2026-04-19T12:44:46Z</time></trkpt><trkpt lat="42.80605244764621" lon="13.28992668997491"><ele>1159.0</ele><time>2026-04-19T12:44:47Z</time></trkpt><trkpt lat="42.80584260416474" lon="13.289689074053584"><ele>1159.0</ele><time>2026-04-19T12:44:49Z</time></trkpt><trkpt lat="42.805731092873216" lon="13.289579990469113"><ele>1161.75</ele><time>2026-04-19T12:44:50Z</time></trkpt><trkpt lat="42.80561196300912" lon="13.289494033148518"><ele>1164.5</ele><time>2026-04-19T12:44:51Z</time></trkpt><trkpt lat="42.805478008262305" lon="13.289426595914312"><ele>1167.25</ele><time>2026-04-19T12:44:52Z</time></trkpt><trkpt lat="42.805332322979716" lon="13.289390826130358"><ele>1170.0</ele><time>2026-04-19T12:44:53Z</time></trkpt><trkpt lat="42.8051450754079" lon="13.289378937759487"><ele>1170.0</ele><time>2026-04-19T12:44:54Z</time></trkpt><trkpt lat="42.80496369279913" lon="13.289345208569985"><ele>1170.0</ele><time>2026-04-19T12:44:55Z</time></trkpt><trkpt lat="42.80479286117058" lon="13.28931424902945"><ele>1170.0</ele><time>2026-04-19T12:44:56Z</time></trkpt><trkpt lat="42.80463847014801" lon="13.289243806578783"><ele>1170.0</ele><time>2026-04-19T12:44:57Z</time></trkpt><trkpt lat="42.804485682067444" lon="13.289155686737935"><ele>1170.0</ele><time>2026-04-19T12:44:58Z</time></trkpt><trkpt lat="42.804330321053726" lon="13.289075752014357"><ele>1170.0</ele><time>2026-04-19T12:44:59Z</time></trkpt><trkpt lat="42.80421434583725" lon="13.28896053226527"><ele>1173.0</ele><time>2026-04-19T12:45:00Z</time></trkpt><trkpt lat="42.80415025283764" lon="13.288789977724877"><ele>1176.0</ele><time>2026-04-19T12:45:01Z</time></trkpt><trkpt lat="42.80408599094893" lon="13.288595039728646"><ele>1179.0</ele><time>2026-04-19T12:45:02Z</time></trkpt><trkpt lat="42.803974334522536" lon="13.288401086550504"><ele>1179.0</ele><time>2026-04-19T12:45:03Z</time></trkpt><trkpt lat="42.803852936165825" lon="13.28819364936455"><ele>1179.0</ele><time>2026-04-19T12:45:04Z</time></trkpt><trkpt lat="42.803725296724956" lon="13.287984894327554"><ele>1179.0</ele><time>2026-04-19T12:45:05Z</time></trkpt><trkpt lat="42.80365092086314" lon="13.287761617366387"><ele>1178.3333333333333</ele><time>2026-04-19T12:45:06Z</time></trkpt><trkpt lat="42.803596570609606" lon="13.287531187186655"><ele>1177.6666666666665</ele><time>2026-04-19T12:45:07Z</time></trkpt><trkpt lat="42.80353397150043" lon="13.287309023993517"><ele>1177.0</ele><time>2026-04-19T12:45:08Z</time></trkpt><trkpt lat="42.80348936036155" lon="13.287082982520701"><ele>1177.0</ele><time>2026-04-19T12:45:09Z</time></trkpt><trkpt lat="42.803439954602965" lon="13.286858444220684"><ele>1177.0</ele><time>2026-04-19T12:45:10Z</time></trkpt><trkpt lat="42.803409461585545" lon="13.286628875567782"><ele>1177.0</ele><time>2026-04-19T12:45:11Z</time></trkpt><trkpt lat="42.80336090883053" lon="13.286404223487748"><ele>1180.3333333333333</ele><time>2026-04-19T12:45:12Z</time></trkpt><trkpt lat="42.80331274008773" lon="13.286176690536292"><ele>1183.6666666666667</ele><time>2026-04-19T12:45:13Z</time></trkpt><trkpt lat="42.80326890421565" lon="13.285945074123362"><ele>1187.0</ele><time>2026-04-19T12:45:14Z</time></trkpt><trkpt lat="42.8032518710611" lon="13.285703478881024"><ele>1188.6666666666667</ele><time>2026-04-19T12:45:15Z</time></trkpt><trkpt lat="42.803269677997065" lon="13.285457707777324"><ele>1190.3333333333333</ele><time>2026-04-19T12:45:16Z</time></trkpt><trkpt lat="42.803296921799735" lon="13.285187102901839"><ele>1192.0</ele><time>2026-04-19T12:45:17Z</time></trkpt><trkpt lat="42.80331484738519" lon="13.28490099823603"><ele>1192.0</ele><time>2026-04-19T12:45:18Z</time></trkpt><trkpt lat="42.80333979934713" lon="13.284605190273124"><ele>1192.0</ele><time>2026-04-19T12:45:19Z</time></trkpt><trkpt lat="42.80336140286863" lon="13.28430228504633"><ele>1192.0</ele><time>2026-04-19T12:45:20Z</time></trkpt><trkpt lat="42.80339412447314" lon="13.283996246049098"><ele>1194.6666666666665</ele><time>2026-04-19T12:45:21Z</time></trkpt><trkpt lat="42.80342647279393" lon="13.283714577649107"><ele>1197.3333333333333</ele><time>2026-04-19T12:45:22Z</time></trkpt><trkpt lat="42.80345173512277" lon="13.283488636513843"><ele>1200.0</ele><time>2026-04-19T12:45:23Z</time></trkpt><trkpt lat="42.80345432865665" lon="13.283289321713598"><ele>1200.0</ele><time>2026-04-19T12:45:24Z</time></trkpt><trkpt lat="42.803419257574994" lon="13.283112864702478"><ele>1200.0</ele><time>2026-04-19T12:45:25Z</time></trkpt><trkpt lat="42.803340543813896" lon="13.282934723719256"><ele>1200.0</ele><time>2026-04-19T12:45:26Z</time></trkpt><trkpt lat="42.80321986752258" lon="13.282763449242056"><ele>1205.6666666666667</ele><time>2026-04-19T12:45:27Z</time></trkpt><trkpt lat="42.80307533741862" lon="13.282613582588452"><ele>1211.3333333333335</ele><time>2026-04-19T12:45:28Z</time></trkpt><trkpt lat="42.80292373686019" lon="13.282435192526238"><ele>1217.0</ele><time>2026-04-19T12:45:29Z</time></trkpt><trkpt lat="42.80276110577988" lon="13.282253376774886"><ele>1218.0</ele><time>2026-04-19T12:45:30Z</time></trkpt><trkpt lat="42.80256974835355" lon="13.282107357250958"><ele>1219.0</ele><time>2026-04-19T12:45:31Z</time></trkpt><trkpt lat="42.80239015955981" lon="13.281992390187854"><ele>1220.0</ele><time>2026-04-19T12:45:32Z</time></trkpt><trkpt lat="42.80222326049101" lon="13.281910413515206"><ele>1220.0</ele><time>2026-04-19T12:45:33Z</time></trkpt><trkpt lat="42.80206194137397" lon="13.281883461563122"><ele>1220.0</ele><time>2026-04-19T12:45:34Z</time></trkpt><trkpt lat="42.80188657928417" lon="13.281904077530644"><ele>1220.0</ele><time>2026-04-19T12:45:35Z</time></trkpt><trkpt lat="42.801688890796115" lon="13.2819530250479"><ele>1220.3333333333335</ele><time>2026-04-19T12:45:36Z</time></trkpt><trkpt lat="42.80148497451169" lon="13.282004904597397"><ele>1220.6666666666667</ele><time>2026-04-19T12:45:37Z</time></trkpt><trkpt lat="42.801266322291774" lon="13.282075455252054"><ele>1221.0</ele><time>2026-04-19T12:45:38Z</time></trkpt><trkpt lat="42.80104852992822" lon="13.282160058812527"><ele>1220.0</ele><time>2026-04-19T12:45:39Z</time></trkpt><trkpt lat="42.80086283815801" lon="13.282231973212483"><ele>1219.0</ele><time>2026-04-19T12:45:40Z</time></trkpt><trkpt lat="42.800704411181115" lon="13.282312000519862"><ele>1218.0</ele><time>2026-04-19T12:45:41Z</time></trkpt><trkpt lat="42.80057110922866" lon="13.28241517074342"><ele>1218.0</ele><time>2026-04-19T12:45:42Z</time></trkpt><trkpt lat="42.80046073276163" lon="13.282582133961759"><ele>1218.0</ele><time>2026-04-19T12:45:43Z</time></trkpt><trkpt lat="42.800355627414454" lon="13.28278598445084"><ele>1218.0</ele><time>2026-04-19T12:45:44Z</time></trkpt><trkpt lat="42.80026173088245" lon="13.283004509014642"><ele>1221.6666666666667</ele><time>2026-04-19T12:45:45Z</time></trkpt><trkpt lat="42.800162597578044" lon="13.28321131188767"><ele>1225.3333333333335</ele><time>2026-04-19T12:45:46Z</time></trkpt><trkpt lat="42.80005917394511" lon="13.28342619818793"><ele>1229.0</ele><time>2026-04-19T12:45:47Z</time></trkpt><trkpt lat="42.799936572238416" lon="13.28361535255422"><ele>1229.0</ele><time>2026-04-19T12:45:48Z</time></trkpt><trkpt lat="42.79981642599654" lon="13.283782928818447"><ele>1229.0</ele><time>2026-04-19T12:45:49Z</time></trkpt><trkpt lat="42.799679597454585" lon="13.283902784814254"><ele>1229.0</ele><time>2026-04-19T12:45:50Z</time></trkpt><trkpt lat="42.799521131001065" lon="13.28397820282348"><ele>1227.6666666666667</ele><time>2026-04-19T12:45:51Z</time></trkpt><trkpt lat="42.79934884839488" lon="13.284038279008104"><ele>1226.3333333333333</ele><time>2026-04-19T12:45:52Z</time></trkpt><trkpt lat="42.79917028675283" lon="13.28409377269584"><ele>1225.0</ele><time>2026-04-19T12:45:53Z</time></trkpt><trkpt lat="42.7989790763889" lon="13.28415243063024"><ele>1229.0</ele><time>2026-04-19T12:45:54Z</time></trkpt><trkpt lat="42.79879070705959" lon="13.28421348548469"><ele>1233.0</ele><time>2026-04-19T12:45:55Z</time></trkpt><trkpt lat="42.798606654189456" lon="13.284290418678932"><ele>1237.0</ele><time>2026-04-19T12:45:56Z</time></trkpt><trkpt lat="42.79843214192435" lon="13.284344072527905"><ele>1238.0</ele><time>2026-04-19T12:45:57Z</time></trkpt><trkpt lat="42.79827875327191" lon="13.284392940237899"><ele>1239.0</ele><time>2026-04-19T12:45:58Z</time></trkpt><trkpt lat="42.79815227377466" lon="13.284430262550458"><ele>1240.0</ele><time>2026-04-19T12:45:59Z</time></trkpt><trkpt lat="42.798037766977124" lon="13.28444879348102"><ele>1241.0</ele><time>2026-04-19T12:46:00Z</time></trkpt><trkpt lat="42.79793693142167" lon="13.284443634108055"><ele>1241.0</ele><time>2026-04-19T12:46:01Z</time></trkpt><trkpt lat="42.797851092672666" lon="13.284406519477605"><ele>1241.0</ele><time>2026-04-19T12:46:02Z</time></trkpt><trkpt lat="42.79779637048924" lon="13.284318180802575"><ele>1241.0</ele><time>2026-04-19T12:46:03Z</time></trkpt><trkpt lat="42.79775438403753" lon="13.284243259210692"><ele>1241.0</ele><time>2026-04-19T12:46:04Z</time></trkpt><trkpt lat="42.79771629319932" lon="13.2840962372166"><ele>1241.0</ele><time>2026-04-19T12:46:06Z</time></trkpt><trkpt lat="42.79770503515293" lon="13.283974654748164"><ele>1241.0</ele><time>2026-04-19T12:46:08Z</time></trkpt><trkpt lat="42.797551602459194" lon="13.283963103381199"><ele>1241.3999999999999</ele><time>2026-04-19T12:46:11Z</time></trkpt><trkpt lat="42.79744781971905" lon="13.283989581369399"><ele>1241.8</ele><time>2026-04-19T12:46:13Z</time></trkpt><trkpt lat="42.79733889960883" lon="13.284035718540897"><ele>1242.1999999999998</ele><time>2026-04-19T12:46:15Z</time></trkpt><trkpt lat="42.79723758667183" lon="13.28407894774892"><ele>1242.6</ele><time>2026-04-19T12:46:17Z</time></trkpt><trkpt lat="42.797134339968714" lon="13.28411186255725"><ele>1243.0</ele><time>2026-04-19T12:46:19Z</time></trkpt><trkpt lat="42.797043041339315" lon="13.284157850622748"><ele>1243.0</ele><time>2026-04-19T12:46:21Z</time></trkpt><trkpt lat="42.79696179125409" lon="13.284220606377009"><ele>1243.0</ele><time>2026-04-19T12:46:23Z</time></trkpt><trkpt lat="42.79689835306976" lon="13.284277888865473"><ele>1243.0</ele><time>2026-04-19T12:46:25Z</time></trkpt><trkpt lat="42.796850087895216" lon="13.284350249649062"><ele>1243.0</ele><time>2026-04-19T12:46:27Z</time></trkpt><trkpt lat="42.796808405732484" lon="13.284426519396034"><ele>1243.0</ele><time>2026-04-19T12:46:29Z</time></trkpt><trkpt lat="42.796752343232306" lon="13.284492889833057"><ele>1243.0</ele><time>2026-04-19T12:46:31Z</time></trkpt><trkpt lat="42.796707107312386" lon="13.284558308853951"><ele>1242.5</ele><time>2026-04-19T12:46:33Z</time></trkpt><trkpt lat="42.7966359985569" lon="13.284599941653402"><ele>1242.0</ele><time>2026-04-19T12:46:35Z</time></trkpt><trkpt lat="42.79656269324961" lon="13.28465522688937"><ele>1241.5</ele><time>2026-04-19T12:46:38Z</time></trkpt><trkpt lat="42.796468683567156" lon="13.284669508773451"><ele>1241.0</ele><time>2026-04-19T12:46:41Z</time></trkpt><trkpt lat="42.796385978920824" lon="13.28469625083616"><ele>1240.5</ele><time>2026-04-19T12:46:43Z</time></trkpt><trkpt lat="42.796361081915975" lon="13.284813848597336"><ele>1240.0</ele><time>2026-04-19T12:46:44Z</time></trkpt><trkpt lat="42.79630210371033" lon="13.284896572978553"><ele>1239.4</ele><time>2026-04-19T12:46:46Z</time></trkpt><trkpt lat="42.796230815442655" lon="13.284979305016561"><ele>1238.8</ele><time>2026-04-19T12:46:48Z</time></trkpt><trkpt lat="42.79616638324335" lon="13.285027392442002"><ele>1238.2</ele><time>2026-04-19T12:46:50Z</time></trkpt><trkpt lat="42.796078825880386" lon="13.285067084363522"><ele>1237.6</ele><time>2026-04-19T12:46:52Z</time></trkpt><trkpt lat="42.79597303319064" lon="13.285078273476012"><ele>1237.0</ele><time>2026-04-19T12:46:54Z</time></trkpt><trkpt lat="42.79585268386965" lon="13.285110372026473"><ele>1236.6</ele><time>2026-04-19T12:46:56Z</time></trkpt><trkpt lat="42.79578813293905" lon="13.285137086643507"><ele>1236.2</ele><time>2026-04-19T12:46:57Z</time></trkpt><trkpt lat="42.79569863354782" lon="13.285182236581871"><ele>1235.8</ele><time>2026-04-19T12:46:58Z</time></trkpt><trkpt lat="42.79557676028464" lon="13.285241126232687"><ele>1235.4</ele><time>2026-04-19T12:46:59Z</time></trkpt><trkpt lat="42.79547413315698" lon="13.285286496686167"><ele>1235.0</ele><time>2026-04-19T12:47:00Z</time></trkpt><trkpt lat="42.7954055777745" lon="13.285315378114717"><ele>1235.0</ele><time>2026-04-19T12:47:01Z</time></trkpt><trkpt lat="42.79534008070859" lon="13.285333342892622"><ele>1235.0</ele><time>2026-04-19T12:47:02Z</time></trkpt><trkpt lat="42.79523853645631" lon="13.285335343476532"><ele>1235.0</ele><time>2026-04-19T12:47:04Z</time></trkpt><trkpt lat="42.79515997670207" lon="13.2853298853423"><ele>1235.0</ele><time>2026-04-19T12:47:06Z</time></trkpt><trkpt lat="42.79508499512212" lon="13.285330149616444"><ele>1235.0</ele><time>2026-04-19T12:47:08Z</time></trkpt><trkpt lat="42.79502080836473" lon="13.28532177929067"><ele>1235.0</ele><time>2026-04-19T12:47:10Z</time></trkpt><trkpt lat="42.79496107106661" lon="13.285293148330007"><ele>1235.0</ele><time>2026-04-19T12:47:13Z</time></trkpt><trkpt lat="42.79489767607134" lon="13.285274584781884"><ele>1235.0</ele><time>2026-04-19T13:01:37Z</time></trkpt><trkpt lat="42.79487654589098" lon="13.285185787270077"><ele>1235.0</ele><time>2026-04-19T13:07:43.001Z</time></trkpt><trkpt lat="42.79496572838461" lon="13.285196850662683"><ele>1235.0</ele><time>2026-04-19T13:07:46.001Z</time></trkpt><trkpt lat="42.79503910349686" lon="13.285269413673243"><ele>1235.0</ele><time>2026-04-19T13:07:48.001Z</time></trkpt><trkpt lat="42.795110133989056" lon="13.285303757085348"><ele>1235.0</ele><time>2026-04-19T13:07:50.001Z</time></trkpt><trkpt lat="42.795203431151" lon="13.285322114337415"><ele>1235.0</ele><time>2026-04-19T13:07:52.001Z</time></trkpt><trkpt lat="42.79528668394815" lon="13.285327561863413"><ele>1235.0</ele><time>2026-04-19T13:07:54.001Z</time></trkpt><trkpt lat="42.79538310678065" lon="13.285330963179083"><ele>1235.0</ele><time>2026-04-19T13:07:56.001Z</time></trkpt><trkpt lat="42.7954507837674" lon="13.28533951333241"><ele>1235.0</ele><time>2026-04-19T13:07:59.001Z</time></trkpt><trkpt lat="42.79551779163431" lon="13.285340968754014"><ele>1235.0</ele><time>2026-04-19T13:08:25.001Z</time></trkpt><trkpt lat="42.795630713226856" lon="13.28534763037173"><ele>1235.0</ele><time>2026-04-19T13:08:27.001Z</time></trkpt><trkpt lat="42.7957474736422" lon="13.285359844872861"><ele>1235.0</ele><time>2026-04-19T13:08:29.001Z</time></trkpt><trkpt lat="42.795853138510594" lon="13.285371268232957"><ele>1235.0</ele><time>2026-04-19T13:08:31.001Z</time></trkpt><trkpt lat="42.79596523483313" lon="13.28538776167473"><ele>1235.0</ele><time>2026-04-19T13:08:33.001Z</time></trkpt><trkpt lat="42.796087731756344" lon="13.285397486856262"><ele>1235.0</ele><time>2026-04-19T13:08:35.001Z</time></trkpt><trkpt lat="42.79620311282688" lon="13.285415213759117"><ele>1235.4</ele><time>2026-04-19T13:08:37.001Z</time></trkpt><trkpt lat="42.79631080989606" lon="13.285432665906926"><ele>1235.8</ele><time>2026-04-19T13:08:39.001Z</time></trkpt><trkpt lat="42.796422722407705" lon="13.2854572834144"><ele>1236.2</ele><time>2026-04-19T13:08:41.001Z</time></trkpt><trkpt lat="42.796528864278685" lon="13.28545221426624"><ele>1236.6</ele><time>2026-04-19T13:08:43.001Z</time></trkpt><trkpt lat="42.79662068183273" lon="13.285374523239923"><ele>1237.0</ele><time>2026-04-19T13:08:45.001Z</time></trkpt><trkpt lat="42.79667097912816" lon="13.285248811914165"><ele>1237.0</ele><time>2026-04-19T13:08:47.001Z</time></trkpt><trkpt lat="42.79668091662956" lon="13.285093643162774"><ele>1237.0</ele><time>2026-04-19T13:08:49.001Z</time></trkpt><trkpt lat="42.796695802588346" lon="13.284968051840325"><ele>1237.0</ele><time>2026-04-19T13:08:51.001Z</time></trkpt><trkpt lat="42.79672257682865" lon="13.284860614156951"><ele>1237.0</ele><time>2026-04-19T13:08:53.001Z</time></trkpt><trkpt lat="42.796738247329266" lon="13.284747145996288"><ele>1237.0</ele><time>2026-04-19T13:08:55.001Z</time></trkpt><trkpt lat="42.79675677965149" lon="13.284601193773273"><ele>1237.5</ele><time>2026-04-19T13:08:57.001Z</time></trkpt><trkpt lat="42.79676840718363" lon="13.284516674520942"><ele>1238.0</ele><time>2026-04-19T13:08:58.001Z</time></trkpt><trkpt lat="42.79678383690698" lon="13.284428512999595"><ele>1238.5</ele><time>2026-04-19T13:09:00.001Z</time></trkpt><trkpt lat="42.79683700050513" lon="13.28434498935431"><ele>1239.0</ele><time>2026-04-19T13:09:02.001Z</time></trkpt><trkpt lat="42.79692840843705" lon="13.28424855698105"><ele>1239.5</ele><time>2026-04-19T13:09:04.001Z</time></trkpt><trkpt lat="42.79703270675534" lon="13.284198546237931"><ele>1240.0</ele><time>2026-04-19T13:09:06.001Z</time></trkpt><trkpt lat="42.79709366091103" lon="13.284165366147661"><ele>1240.5</ele><time>2026-04-19T13:09:07.001Z</time></trkpt><trkpt lat="42.79715835003693" lon="13.284138627213384"><ele>1241.0</ele><time>2026-04-19T13:09:08.001Z</time></trkpt><trkpt lat="42.79722732171273" lon="13.284110470473365"><ele>1241.5</ele><time>2026-04-19T13:09:09.001Z</time></trkpt><trkpt lat="42.797335988659576" lon="13.284044433433095"><ele>1242.0</ele><time>2026-04-19T13:09:11.001Z</time></trkpt><trkpt lat="42.79740664337046" lon="13.284041728478119"><ele>1242.5</ele><time>2026-04-19T13:09:12.001Z</time></trkpt><trkpt lat="42.79748262172367" lon="13.284014644238868"><ele>1243.0</ele><time>2026-04-19T13:09:13.001Z</time></trkpt><trkpt lat="42.797581081380045" lon="13.283961719099251"><ele>1242.6</ele><time>2026-04-19T13:09:15.001Z</time></trkpt><trkpt lat="42.797670642294605" lon="13.28394761941024"><ele>1242.1999999999998</ele><time>2026-04-19T13:09:17.001Z</time></trkpt><trkpt lat="42.79775319852995" lon="13.28381240951249"><ele>1241.8</ele><time>2026-04-19T13:09:19.001Z</time></trkpt><trkpt lat="42.79781154286447" lon="13.283732806583153"><ele>1241.3999999999999</ele><time>2026-04-19T13:09:20.001Z</time></trkpt><trkpt lat="42.797901691179106" lon="13.283640394247916"><ele>1241.0</ele><time>2026-04-19T13:09:21.001Z</time></trkpt><trkpt lat="42.79801709320512" lon="13.283571214966948"><ele>1243.0</ele><time>2026-04-19T13:09:22.001Z</time></trkpt><trkpt lat="42.79815990227181" lon="13.283552091152576"><ele>1245.0</ele><time>2026-04-19T13:09:23.001Z</time></trkpt><trkpt lat="42.798308840242626" lon="13.283500017391162"><ele>1247.0</ele><time>2026-04-19T13:09:24.001Z</time></trkpt><trkpt lat="42.79846898642574" lon="13.28347258129379"><ele>1246.6666666666667</ele><time>2026-04-19T13:09:25.001Z</time></trkpt><trkpt lat="42.79861554455306" lon="13.283434186873539"><ele>1246.3333333333333</ele><time>2026-04-19T13:09:26.001Z</time></trkpt><trkpt lat="42.798866877027535" lon="13.283357964898576"><ele>1246.0</ele><time>2026-04-19T13:09:28.001Z</time></trkpt><trkpt lat="42.79897591582204" lon="13.283322863827307"><ele>1246.0</ele><time>2026-04-19T13:09:29.001Z</time></trkpt><trkpt lat="42.79907588850777" lon="13.28326983394253"><ele>1246.0</ele><time>2026-04-19T13:09:30.001Z</time></trkpt><trkpt lat="42.79917923458897" lon="13.28319032765433"><ele>1246.0</ele><time>2026-04-19T13:09:31.001Z</time></trkpt><trkpt lat="42.79927722838383" lon="13.283087178463969"><ele>1246.0</ele><time>2026-04-19T13:09:32.001Z</time></trkpt><trkpt lat="42.79936273655284" lon="13.282962925218609"><ele>1244.6666666666665</ele><time>2026-04-19T13:09:33.001Z</time></trkpt><trkpt lat="42.7994302185538" lon="13.282796724602054"><ele>1243.3333333333333</ele><time>2026-04-19T13:09:34.001Z</time></trkpt><trkpt lat="42.79948156423846" lon="13.282588392384724"><ele>1242.0</ele><time>2026-04-19T13:09:35.001Z</time></trkpt><trkpt lat="42.79951831698576" lon="13.282346818642708"><ele>1247.0</ele><time>2026-04-19T13:09:36.001Z</time></trkpt><trkpt lat="42.79954784496381" lon="13.282081261473625"><ele>1252.0</ele><time>2026-04-19T13:09:37.001Z</time></trkpt><trkpt lat="42.79957307018753" lon="13.28180652575847"><ele>1257.0</ele><time>2026-04-19T13:09:38.001Z</time></trkpt><trkpt lat="42.79959928180755" lon="13.281537989668943"><ele>1262.0</ele><time>2026-04-19T13:09:39.001Z</time></trkpt><trkpt lat="42.799625000150776" lon="13.28129755853398"><ele>1267.0</ele><time>2026-04-19T13:09:40.001Z</time></trkpt><trkpt lat="42.799651012283604" lon="13.281088361680078"><ele>1272.0</ele><time>2026-04-19T13:09:41.001Z</time></trkpt><trkpt lat="42.79966301691102" lon="13.280883615200038"><ele>1272.0</ele><time>2026-04-19T13:09:42.001Z</time></trkpt><trkpt lat="42.79964788247452" lon="13.280671145948407"><ele>1272.0</ele><time>2026-04-19T13:09:43.001Z</time></trkpt><trkpt lat="42.7995960018941" lon="13.280466368211384"><ele>1272.0</ele><time>2026-04-19T13:09:44.001Z</time></trkpt><trkpt lat="42.79951346833473" lon="13.280278162882032"><ele>1273.6666666666667</ele><time>2026-04-19T13:09:45.001Z</time></trkpt><trkpt lat="42.799396155184894" lon="13.280109320774363"><ele>1275.3333333333335</ele><time>2026-04-19T13:09:46.001Z</time></trkpt><trkpt lat="42.79925857566501" lon="13.279950124799399"><ele>1277.0</ele><time>2026-04-19T13:09:47.001Z</time></trkpt><trkpt lat="42.79912521991389" lon="13.279736248461425"><ele>1282.0</ele><time>2026-04-19T13:09:48.001Z</time></trkpt><trkpt lat="42.798977840133865" lon="13.27952012197006"><ele>1287.0</ele><time>2026-04-19T13:09:49.001Z</time></trkpt><trkpt lat="42.79881855283647" lon="13.279309816480659"><ele>1292.0</ele><time>2026-04-19T13:09:50.001Z</time></trkpt><trkpt lat="42.79866872393249" lon="13.279089542714843"><ele>1293.5</ele><time>2026-04-19T13:09:51.001Z</time></trkpt><trkpt lat="42.79850818417263" lon="13.278867799139174"><ele>1295.0</ele><time>2026-04-19T13:09:52.001Z</time></trkpt><trkpt lat="42.79834212723532" lon="13.27863610657525"><ele>1295.0</ele><time>2026-04-19T13:09:53.001Z</time></trkpt><trkpt lat="42.79818079570954" lon="13.278404892609647"><ele>1295.0</ele><time>2026-04-19T13:09:54.001Z</time></trkpt><trkpt lat="42.79802405052779" lon="13.278178712440486"><ele>1296.6666666666667</ele><time>2026-04-19T13:09:55.001Z</time></trkpt><trkpt lat="42.797873748818716" lon="13.27796832654882"><ele>1298.3333333333333</ele><time>2026-04-19T13:09:56.001Z</time></trkpt><trkpt lat="42.79772965121238" lon="13.2777685527754"><ele>1300.0</ele><time>2026-04-19T13:09:57.001Z</time></trkpt><trkpt lat="42.797602666432944" lon="13.277587765574099"><ele>1300.0</ele><time>2026-04-19T13:09:58.001Z</time></trkpt><trkpt lat="42.79748807271035" lon="13.277394307268336"><ele>1300.0</ele><time>2026-04-19T13:09:59.001Z</time></trkpt><trkpt lat="42.79741049806449" lon="13.27716351757122"><ele>1300.0</ele><time>2026-04-19T13:10:00.001Z</time></trkpt><trkpt lat="42.79734339198412" lon="13.276913700724934"><ele>1304.6666666666665</ele><time>2026-04-19T13:10:01.001Z</time></trkpt><trkpt lat="42.79727050861062" lon="13.276640542515812"><ele>1309.3333333333333</ele><time>2026-04-19T13:10:02.001Z</time></trkpt><trkpt lat="42.79719666709625" lon="13.276351794215147"><ele>1314.0</ele><time>2026-04-19T13:10:03.001Z</time></trkpt><trkpt lat="42.797090671305526" lon="13.27607048458564"><ele>1318.6666666666667</ele><time>2026-04-19T13:10:04.001Z</time></trkpt><trkpt lat="42.79696554232785" lon="13.275811247956176"><ele>1323.3333333333335</ele><time>2026-04-19T13:10:05.001Z</time></trkpt><trkpt lat="42.79683846119016" lon="13.27557284356425"><ele>1328.0</ele><time>2026-04-19T13:10:06.001Z</time></trkpt><trkpt lat="42.796709618237166" lon="13.275341498406862"><ele>1328.3333333333335</ele><time>2026-04-19T13:10:07.001Z</time></trkpt><trkpt lat="42.796572728613135" lon="13.275137852780707"><ele>1328.6666666666667</ele><time>2026-04-19T13:10:08.001Z</time></trkpt><trkpt lat="42.79642524001701" lon="13.274972282152195"><ele>1329.0</ele><time>2026-04-19T13:10:09.001Z</time></trkpt><trkpt lat="42.79629824942137" lon="13.27481928810145"><ele>1326.5</ele><time>2026-04-19T13:10:10.001Z</time></trkpt><trkpt lat="42.79616927872727" lon="13.274709443837743"><ele>1324.0</ele><time>2026-04-19T13:10:11.001Z</time></trkpt><trkpt lat="42.79609501758202" lon="13.274557604697703"><ele>1321.5</ele><time>2026-04-19T13:10:12.001Z</time></trkpt><trkpt lat="42.79604432135365" lon="13.274385526546993"><ele>1319.0</ele><time>2026-04-19T13:10:13.001Z</time></trkpt><trkpt lat="42.79599991443251" lon="13.274188874661714"><ele>1319.0</ele><time>2026-04-19T13:10:14.001Z</time></trkpt><trkpt lat="42.79594907330653" lon="13.274022383466097"><ele>1319.0</ele><time>2026-04-19T13:10:15.001Z</time></trkpt><trkpt lat="42.79594735170523" lon="13.2738917870177"><ele>1319.0</ele><time>2026-04-19T13:10:16.001Z</time></trkpt><trkpt lat="42.79599417595483" lon="13.273804451090996"><ele>1319.0</ele><time>2026-04-19T13:10:17.001Z</time></trkpt><trkpt lat="42.796116076515226" lon="13.273751365886353"><ele>1319.0</ele><time>2026-04-19T13:10:19.001Z</time></trkpt><trkpt lat="42.79619424479737" lon="13.27379201457157"><ele>1325.25</ele><time>2026-04-19T13:10:20.001Z</time></trkpt><trkpt lat="42.79626592807457" lon="13.273877575191563"><ele>1331.5</ele><time>2026-04-19T13:10:21.001Z</time></trkpt><trkpt lat="42.79630846588436" lon="13.274019249114223"><ele>1337.75</ele><time>2026-04-19T13:10:22.001Z</time></trkpt><trkpt lat="42.79639119962323" lon="13.274162653888084"><ele>1344.0</ele><time>2026-04-19T13:10:23.001Z</time></trkpt><trkpt lat="42.79646776359138" lon="13.27435006003853"><ele>1344.0</ele><time>2026-04-19T13:10:24.001Z</time></trkpt><trkpt lat="42.796562701259845" lon="13.274537444110763"><ele>1344.0</ele><time>2026-04-19T13:10:25.001Z</time></trkpt><trkpt lat="42.796678675457464" lon="13.274703450737846"><ele>1344.0</ele><time>2026-04-19T13:10:26.001Z</time></trkpt><trkpt lat="42.79682421360144" lon="13.274842052258327"><ele>1345.3333333333333</ele><time>2026-04-19T13:10:27.001Z</time></trkpt><trkpt lat="42.79700595957649" lon="13.274961220111248"><ele>1346.6666666666665</ele><time>2026-04-19T13:10:28.001Z</time></trkpt><trkpt lat="42.79721652197455" lon="13.275064771069143"><ele>1348.0</ele><time>2026-04-19T13:10:29.001Z</time></trkpt><trkpt lat="42.79744168702913" lon="13.275153002145876"><ele>1348.0</ele><time>2026-04-19T13:10:30.001Z</time></trkpt><trkpt lat="42.79765450569072" lon="13.27523934827481"><ele>1348.0</ele><time>2026-04-19T13:10:31.001Z</time></trkpt><trkpt lat="42.7978590765275" lon="13.275365226478392"><ele>1348.0</ele><time>2026-04-19T13:10:32.001Z</time></trkpt><trkpt lat="42.79805426796032" lon="13.275550131980765"><ele>1347.6666666666665</ele><time>2026-04-19T13:10:33.001Z</time></trkpt><trkpt lat="42.79822995845725" lon="13.275753071240171"><ele>1347.3333333333333</ele><time>2026-04-19T13:10:34.002Z</time></trkpt><trkpt lat="42.79838394433362" lon="13.275929589384946"><ele>1347.0</ele><time>2026-04-19T13:10:35.002Z</time></trkpt><trkpt lat="42.79854577816795" lon="13.276073064535382"><ele>1353.3333333333333</ele><time>2026-04-19T13:10:36.002Z</time></trkpt><trkpt lat="42.79871400878578" lon="13.276182407263429"><ele>1359.6666666666665</ele><time>2026-04-19T13:10:37.002Z</time></trkpt><trkpt lat="42.79888150653628" lon="13.276277981890194"><ele>1366.0</ele><time>2026-04-19T13:10:38.002Z</time></trkpt><trkpt lat="42.79903236736088" lon="13.276377398787199"><ele>1365.8</ele><time>2026-04-19T13:10:39.002Z</time></trkpt><trkpt lat="42.79914108441703" lon="13.276460210700792"><ele>1365.6</ele><time>2026-04-19T13:10:40.002Z</time></trkpt><trkpt lat="42.799237285265335" lon="13.27652169679085"><ele>1365.4</ele><time>2026-04-19T13:10:41.002Z</time></trkpt><trkpt lat="42.799327539576595" lon="13.276543906222873"><ele>1365.2</ele><time>2026-04-19T13:10:42.002Z</time></trkpt><trkpt lat="42.79940672021879" lon="13.2765087923822"><ele>1365.0</ele><time>2026-04-19T13:10:43.002Z</time></trkpt><trkpt lat="42.79946730993803" lon="13.276419783819806"><ele>1368.0</ele><time>2026-04-19T13:10:44.002Z</time></trkpt><trkpt lat="42.7995006042749" lon="13.276287392200373"><ele>1371.0</ele><time>2026-04-19T13:10:45.002Z</time></trkpt><trkpt lat="42.79948983903618" lon="13.27612409743135"><ele>1374.0</ele><time>2026-04-19T13:10:46.002Z</time></trkpt><trkpt lat="42.79945452177204" lon="13.275956433060212"><ele>1377.0</ele><time>2026-04-19T13:10:47.002Z</time></trkpt><trkpt lat="42.79941135277427" lon="13.275764775574968"><ele>1376.0</ele><time>2026-04-19T13:10:48.002Z</time></trkpt><trkpt lat="42.79937681854569" lon="13.275549869507751"><ele>1375.0</ele><time>2026-04-19T13:10:49.002Z</time></trkpt><trkpt lat="42.79934103694358" lon="13.275318204311503"><ele>1374.0</ele><time>2026-04-19T13:10:50.002Z</time></trkpt><trkpt lat="42.79930162318796" lon="13.27507611053332"><ele>1374.0</ele><time>2026-04-19T13:10:51.002Z</time></trkpt><trkpt lat="42.799259003989356" lon="13.274800494689927"><ele>1374.0</ele><time>2026-04-19T13:10:52.002Z</time></trkpt><trkpt lat="42.79922637912456" lon="13.274506435829437"><ele>1374.0</ele><time>2026-04-19T13:10:53.002Z</time></trkpt><trkpt lat="42.79921056450682" lon="13.274193477553911"><ele>1378.0</ele><time>2026-04-19T13:10:54.001Z</time></trkpt><trkpt lat="42.799205855655984" lon="13.273860821537706"><ele>1382.0</ele><time>2026-04-19T13:10:55.001Z</time></trkpt><trkpt lat="42.79919796192741" lon="13.27353075924412"><ele>1382.0</ele><time>2026-04-19T13:10:56.001Z</time></trkpt><trkpt lat="42.799187352897434" lon="13.27320766212631"><ele>1382.0</ele><time>2026-04-19T13:10:57.001Z</time></trkpt><trkpt lat="42.79917707578317" lon="13.2728975080298"><ele>1385.3333333333335</ele><time>2026-04-19T13:10:58.001Z</time></trkpt><trkpt lat="42.79916554908091" lon="13.27260104701331"><ele>1388.6666666666667</ele><time>2026-04-19T13:10:59.001Z</time></trkpt><trkpt lat="42.79915602354725" lon="13.27231238991787"><ele>1392.0</ele><time>2026-04-19T13:11:00.001Z</time></trkpt><trkpt lat="42.79914747618447" lon="13.272040903049303"><ele>1395.0</ele><time>2026-04-19T13:11:01.001Z</time></trkpt><trkpt lat="42.79913230022958" lon="13.271786943899224"><ele>1398.0</ele><time>2026-04-19T13:11:02.001Z</time></trkpt><trkpt lat="42.79910473557402" lon="13.271542770075442"><ele>1401.0</ele><time>2026-04-19T13:11:03.001Z</time></trkpt><trkpt lat="42.79905448825483" lon="13.27130858433532"><ele>1403.6666666666667</ele><time>2026-04-19T13:11:04.001Z</time></trkpt><trkpt lat="42.799005839575834" lon="13.271090180426844"><ele>1406.3333333333335</ele><time>2026-04-19T13:11:05.001Z</time></trkpt><trkpt lat="42.79895152674964" lon="13.27087311863866"><ele>1409.0</ele><time>2026-04-19T13:11:06.001Z</time></trkpt><trkpt lat="42.79889611251766" lon="13.270651654871426"><ele>1415.0</ele><time>2026-04-19T13:11:07.001Z</time></trkpt><trkpt lat="42.798841293506804" lon="13.270431449609571"><ele>1421.0</ele><time>2026-04-19T13:11:08.001Z</time></trkpt><trkpt lat="42.7987870854319" lon="13.27021242770324"><ele>1427.0</ele><time>2026-04-19T13:11:09.001Z</time></trkpt><trkpt lat="42.798729576998404" lon="13.269996190001526"><ele>1427.0</ele><time>2026-04-19T13:11:10.001Z</time></trkpt><trkpt lat="42.79867148015113" lon="13.269779341522424"><ele>1427.0</ele><time>2026-04-19T13:11:11.001Z</time></trkpt><trkpt lat="42.79861795637748" lon="13.26956994615731"><ele>1427.0</ele><time>2026-04-19T13:11:12.001Z</time></trkpt><trkpt lat="42.798552298177064" lon="13.269369446858471"><ele>1431.3333333333335</ele><time>2026-04-19T13:11:13.001Z</time></trkpt><trkpt lat="42.79850376025322" lon="13.269147724569978"><ele>1435.6666666666667</ele><time>2026-04-19T13:11:14.001Z</time></trkpt><trkpt lat="42.79846805727714" lon="13.26891181275433"><ele>1440.0</ele><time>2026-04-19T13:11:15.001Z</time></trkpt><trkpt lat="42.798396197381905" lon="13.268657746402493"><ele>1440.0</ele><time>2026-04-19T13:11:16.001Z</time></trkpt><trkpt lat="42.79830030759384" lon="13.268427033347598"><ele>1440.0</ele><time>2026-04-19T13:11:17.001Z</time></trkpt><trkpt lat="42.79819825417829" lon="13.26821121515675"><ele>1440.0</ele><time>2026-04-19T13:11:18.001Z</time></trkpt><trkpt lat="42.79806662973015" lon="13.26803091526299"><ele>1440.0</ele><time>2026-04-19T13:11:19.001Z</time></trkpt><trkpt lat="42.79790344183617" lon="13.267867634343565"><ele>1440.0</ele><time>2026-04-19T13:11:20.001Z</time></trkpt><trkpt lat="42.79774739513377" lon="13.26767685374586"><ele>1440.0</ele><time>2026-04-19T13:11:21.001Z</time></trkpt><trkpt lat="42.797597840071035" lon="13.26747299576225"><ele>1448.6666666666667</ele><time>2026-04-19T13:11:22.001Z</time></trkpt><trkpt lat="42.7974701981699" lon="13.26725746688089"><ele>1457.3333333333335</ele><time>2026-04-19T13:11:23.001Z</time></trkpt><trkpt lat="42.79735819842202" lon="13.267063663149361"><ele>1466.0</ele><time>2026-04-19T13:11:24.001Z</time></trkpt><trkpt lat="42.79724171274223" lon="13.266871534436923"><ele>1466.0</ele><time>2026-04-19T13:11:25.001Z</time></trkpt><trkpt lat="42.7971229435646" lon="13.266657157571956"><ele>1466.0</ele><time>2026-04-19T13:11:26.001Z</time></trkpt><trkpt lat="42.79702632533079" lon="13.266432271898546"><ele>1466.0</ele><time>2026-04-19T13:11:27.001Z</time></trkpt><trkpt lat="42.79693983700297" lon="13.266208415165233"><ele>1468.0</ele><time>2026-04-19T13:11:28.001Z</time></trkpt><trkpt lat="42.79688067524315" lon="13.266002567610515"><ele>1470.0</ele><time>2026-04-19T13:11:29.001Z</time></trkpt><trkpt lat="42.796844944885706" lon="13.265760219702074"><ele>1472.0</ele><time>2026-04-19T13:11:30.001Z</time></trkpt><trkpt lat="42.7967802458541" lon="13.265508674911304"><ele>1472.0</ele><time>2026-04-19T13:11:31.001Z</time></trkpt><trkpt lat="42.796638925274145" lon="13.265297893256392"><ele>1472.0</ele><time>2026-04-19T13:11:32.001Z</time></trkpt><trkpt lat="42.79649099310571" lon="13.265079228818559"><ele>1472.0</ele><time>2026-04-19T13:11:33.001Z</time></trkpt><trkpt lat="42.7963331709923" lon="13.264867028680534"><ele>1472.6666666666667</ele><time>2026-04-19T13:11:34.001Z</time></trkpt><trkpt lat="42.79618138514585" lon="13.26466959953527"><ele>1473.3333333333333</ele><time>2026-04-19T13:11:35.001Z</time></trkpt><trkpt lat="42.79604097857518" lon="13.264484279659353"><ele>1474.0</ele><time>2026-04-19T13:11:36.001Z</time></trkpt><trkpt lat="42.79590997467583" lon="13.264309488771946"><ele>1474.0</ele><time>2026-04-19T13:11:37.001Z</time></trkpt><trkpt lat="42.795786227932915" lon="13.26414248574811"><ele>1474.0</ele><time>2026-04-19T13:11:38.001Z</time></trkpt><trkpt lat="42.79566460488195" lon="13.263954415424843"><ele>1474.0</ele><time>2026-04-19T13:11:39.001Z</time></trkpt><trkpt lat="42.79551302066684" lon="13.263805652005956"><ele>1479.3333333333333</ele><time>2026-04-19T13:11:40.001Z</time></trkpt><trkpt lat="42.79536463480659" lon="13.263645778530353"><ele>1484.6666666666667</ele><time>2026-04-19T13:11:41.001Z</time></trkpt><trkpt lat="42.79520663804335" lon="13.263507259380004"><ele>1490.0</ele><time>2026-04-19T13:11:42.001Z</time></trkpt><trkpt lat="42.795056811351344" lon="13.263390237957177"><ele>1490.0</ele><time>2026-04-19T13:11:43.001Z</time></trkpt><trkpt lat="42.79489827234749" lon="13.26328187265045"><ele>1490.0</ele><time>2026-04-19T13:11:44.001Z</time></trkpt><trkpt lat="42.794744497270294" lon="13.263182891932262"><ele>1490.0</ele><time>2026-04-19T13:11:45.001Z</time></trkpt><trkpt lat="42.79459920816883" lon="13.263065056186027"><ele>1498.3333333333335</ele><time>2026-04-19T13:11:46.001Z</time></trkpt><trkpt lat="42.794441733570835" lon="13.262987944994753"><ele>1506.6666666666667</ele><time>2026-04-19T13:11:47.001Z</time></trkpt><trkpt lat="42.79429576814571" lon="13.26290002734231"><ele>1515.0</ele><time>2026-04-19T13:11:48.001Z</time></trkpt><trkpt lat="42.7941393229365" lon="13.262817536753829"><ele>1515.0</ele><time>2026-04-19T13:11:49.001Z</time></trkpt><trkpt lat="42.793984124359895" lon="13.262764578982182"><ele>1515.0</ele><time>2026-04-19T13:11:50.001Z</time></trkpt><trkpt lat="42.79381280459187" lon="13.262714308831717"><ele>1515.0</ele><time>2026-04-19T13:11:51.001Z</time></trkpt><trkpt lat="42.7936551851841" lon="13.262642248637649"><ele>1513.0</ele><time>2026-04-19T13:11:52.001Z</time></trkpt><trkpt lat="42.793503876544825" lon="13.262615570681012"><ele>1511.0</ele><time>2026-04-19T13:11:53.001Z</time></trkpt><trkpt lat="42.79334632062366" lon="13.2625616289391"><ele>1509.0</ele><time>2026-04-19T13:11:54.001Z</time></trkpt><trkpt lat="42.79319399954401" lon="13.262518554514735"><ele>1509.0</ele><time>2026-04-19T13:11:55.001Z</time></trkpt><trkpt lat="42.79305247959441" lon="13.262484003558251"><ele>1509.0</ele><time>2026-04-19T13:11:56.001Z</time></trkpt><trkpt lat="42.79292424510529" lon="13.262424490248948"><ele>1509.0</ele><time>2026-04-19T13:11:57.001Z</time></trkpt><trkpt lat="42.79279239203572" lon="13.26240975222619"><ele>1509.0</ele><time>2026-04-19T13:11:58.001Z</time></trkpt><trkpt lat="42.792661640203" lon="13.26236774175051"><ele>1507.75</ele><time>2026-04-19T13:11:59.001Z</time></trkpt><trkpt lat="42.79252897012466" lon="13.262330740668338"><ele>1506.5</ele><time>2026-04-19T13:12:00.001Z</time></trkpt><trkpt lat="42.792395098732925" lon="13.26229336520943"><ele>1505.25</ele><time>2026-04-19T13:12:01.001Z</time></trkpt><trkpt lat="42.79226159757563" lon="13.262252239837952"><ele>1504.0</ele><time>2026-04-19T13:12:02.001Z</time></trkpt><trkpt lat="42.792127739626245" lon="13.262209056462533"><ele>1511.75</ele><time>2026-04-19T13:12:03.001Z</time></trkpt><trkpt lat="42.79199063198448" lon="13.26216778905419"><ele>1519.5</ele><time>2026-04-19T13:12:04.001Z</time></trkpt><trkpt lat="42.79184878192884" lon="13.262110569760154"><ele>1527.25</ele><time>2026-04-19T13:12:05.001Z</time></trkpt><trkpt lat="42.791725666710626" lon="13.26199692712664"><ele>1535.0</ele><time>2026-04-19T13:12:06.001Z</time></trkpt><trkpt lat="42.791623220875074" lon="13.261854470918799"><ele>1535.0</ele><time>2026-04-19T13:12:07.001Z</time></trkpt><trkpt lat="42.791567865847234" lon="13.261674584691017"><ele>1535.0</ele><time>2026-04-19T13:12:08.001Z</time></trkpt><trkpt lat="42.79150293965331" lon="13.261486089374163"><ele>1535.0</ele><time>2026-04-19T13:12:09.001Z</time></trkpt><trkpt lat="42.79138293491507" lon="13.261344298265"><ele>1535.0</ele><time>2026-04-19T13:12:10.001Z</time></trkpt><trkpt lat="42.79118233754294" lon="13.261369849204087"><ele>1535.0</ele><time>2026-04-19T13:12:11.001Z</time></trkpt><trkpt lat="42.79102161462562" lon="13.261474223473739"><ele>1535.0</ele><time>2026-04-19T13:12:12.001Z</time></trkpt><trkpt lat="42.79082767664992" lon="13.261562467824147"><ele>1532.6666666666667</ele><time>2026-04-19T13:12:13.001Z</time></trkpt><trkpt lat="42.790646243817335" lon="13.261644990649998"><ele>1530.3333333333333</ele><time>2026-04-19T13:12:14.001Z</time></trkpt><trkpt lat="42.79049292462987" lon="13.26167697785969"><ele>1528.0</ele><time>2026-04-19T13:12:15.001Z</time></trkpt><trkpt lat="42.790364739243174" lon="13.261661521707136"><ele>1528.0</ele><time>2026-04-19T13:12:16.001Z</time></trkpt><trkpt lat="42.79028519744068" lon="13.261604874300192"><ele>1528.0</ele><time>2026-04-19T13:12:17.001Z</time></trkpt><trkpt lat="42.790224780632954" lon="13.26153519238647"><ele>1528.0</ele><time>2026-04-19T13:12:18.001Z</time></trkpt><trkpt lat="42.79017133511001" lon="13.261431425207158"><ele>1528.0</ele><time>2026-04-19T13:12:19.001Z</time></trkpt><trkpt lat="42.79014904388626" lon="13.261300444865551"><ele>1528.0</ele><time>2026-04-19T13:12:20.001Z</time></trkpt><trkpt lat="42.79010535871902" lon="13.261181281593718"><ele>1529.0</ele><time>2026-04-19T13:12:21.001Z</time></trkpt><trkpt lat="42.79008109203695" lon="13.26104826217352"><ele>1530.0</ele><time>2026-04-19T13:12:22.001Z</time></trkpt><trkpt lat="42.790053116998315" lon="13.260921345179408"><ele>1531.0</ele><time>2026-04-19T13:12:23.001Z</time></trkpt><trkpt lat="42.79002396293985" lon="13.260804872415001"><ele>1532.0</ele><time>2026-04-19T13:12:24.001Z</time></trkpt><trkpt lat="42.78999601207225" lon="13.260705156963734"><ele>1533.0</ele><time>2026-04-19T13:12:25.001Z</time></trkpt><trkpt lat="42.78997182809422" lon="13.260609231364848"><ele>1534.0</ele><time>2026-04-19T13:12:26.001Z</time></trkpt><trkpt lat="42.78995073867058" lon="13.260526667985985"><ele>1534.0</ele><time>2026-04-19T13:12:27.001Z</time></trkpt><trkpt lat="42.789909816278545" lon="13.260370057560287"><ele>1534.0</ele><time>2026-04-19T13:12:29.002Z</time></trkpt><trkpt lat="42.78986301531677" lon="13.26021171669499"><ele>1534.0</ele><time>2026-04-19T13:12:31.002Z</time></trkpt><trkpt lat="42.78983395337766" lon="13.260051329098184"><ele>1534.0</ele><time>2026-04-19T13:12:33.002Z</time></trkpt><trkpt lat="42.7897894778081" lon="13.259910141055343"><ele>1533.0</ele><time>2026-04-19T13:12:35.002Z</time></trkpt><trkpt lat="42.78974591082246" lon="13.259774952975018"><ele>1532.0</ele><time>2026-04-19T13:12:37.002Z</time></trkpt><trkpt lat="42.78970794884523" lon="13.259688914292946"><ele>1531.0</ele><time>2026-04-19T13:12:38.002Z</time></trkpt><trkpt lat="42.78966588007778" lon="13.259537463861628"><ele>1530.0</ele><time>2026-04-19T13:12:40.002Z</time></trkpt><trkpt lat="42.78962598813845" lon="13.259391122678073"><ele>1529.0</ele><time>2026-04-19T13:12:42.002Z</time></trkpt><trkpt lat="42.78958072554003" lon="13.259244095993145"><ele>1529.0</ele><time>2026-04-19T13:12:44.002Z</time></trkpt><trkpt lat="42.78955635638733" lon="13.259101753627167"><ele>1529.0</ele><time>2026-04-19T13:12:46.002Z</time></trkpt><trkpt lat="42.78954040501088" lon="13.258931343307934"><ele>1529.0</ele><time>2026-04-19T13:12:48.002Z</time></trkpt><trkpt lat="42.78953843469772" lon="13.25884066607166"><ele>1529.0</ele><time>2026-04-19T13:12:49.002Z</time></trkpt><trkpt lat="42.78956272020292" lon="13.258750471447387"><ele>1529.0</ele><time>2026-04-19T13:12:50.002Z</time></trkpt><trkpt lat="42.78957521694429" lon="13.258650927612628"><ele>1529.0</ele><time>2026-04-19T13:12:51.002Z</time></trkpt><trkpt lat="42.78961307629494" lon="13.258561244496601"><ele>1527.6666666666667</ele><time>2026-04-19T13:12:52.002Z</time></trkpt><trkpt lat="42.78968384683649" lon="13.258502535807121"><ele>1526.3333333333335</ele><time>2026-04-19T13:12:53.002Z</time></trkpt><trkpt lat="42.789741124574036" lon="13.258426181135476"><ele>1525.0</ele><time>2026-04-19T13:12:54.002Z</time></trkpt><trkpt lat="42.78980259300768" lon="13.258347488499673"><ele>1523.6666666666667</ele><time>2026-04-19T13:12:55.002Z</time></trkpt><trkpt lat="42.78986580635096" lon="13.258272003651141"><ele>1522.3333333333333</ele><time>2026-04-19T13:12:56.002Z</time></trkpt><trkpt lat="42.7899359544825" lon="13.25819054369988"><ele>1521.0</ele><time>2026-04-19T13:12:57.002Z</time></trkpt><trkpt lat="42.78998993911167" lon="13.258095682149731"><ele>1520.5</ele><time>2026-04-19T13:12:58.002Z</time></trkpt><trkpt lat="42.79007024012019" lon="13.258033869886797"><ele>1520.0</ele><time>2026-04-19T13:12:59.002Z</time></trkpt><trkpt lat="42.790143456756134" lon="13.257956029830911"><ele>1519.5</ele><time>2026-04-19T13:13:00.001Z</time></trkpt><trkpt lat="42.79020401311156" lon="13.257863434258912"><ele>1519.0</ele><time>2026-04-19T13:13:01.001Z</time></trkpt><trkpt lat="42.79028183557209" lon="13.257803089146526"><ele>1518.5</ele><time>2026-04-19T13:13:02.001Z</time></trkpt><trkpt lat="42.790358264380735" lon="13.257757609955396"><ele>1518.0</ele><time>2026-04-19T13:13:03.001Z</time></trkpt><trkpt lat="42.790433390059526" lon="13.257716945908664"><ele>1516.8333333333333</ele><time>2026-04-19T13:13:04.001Z</time></trkpt><trkpt lat="42.790510176190075" lon="13.257680902850968"><ele>1515.6666666666667</ele><time>2026-04-19T13:13:05.001Z</time></trkpt><trkpt lat="42.79058648902116" lon="13.257635366634231"><ele>1514.5</ele><time>2026-04-19T13:13:06.001Z</time></trkpt><trkpt lat="42.79065860681137" lon="13.25757899057691"><ele>1513.3333333333335</ele><time>2026-04-19T13:13:07.001Z</time></trkpt><trkpt lat="42.790728078878615" lon="13.2575174683481"><ele>1512.1666666666667</ele><time>2026-04-19T13:13:08.001Z</time></trkpt><trkpt lat="42.79079554763153" lon="13.257455558863441"><ele>1511.0</ele><time>2026-04-19T13:13:09.001Z</time></trkpt><trkpt lat="42.79086254317942" lon="13.257391076645497"><ele>1511.0</ele><time>2026-04-19T13:13:10.001Z</time></trkpt><trkpt lat="42.7909320033914" lon="13.257323897703829"><ele>1511.0</ele><time>2026-04-19T13:13:11.001Z</time></trkpt><trkpt lat="42.791000248866595" lon="13.257252510994972"><ele>1511.0</ele><time>2026-04-19T13:13:12.001Z</time></trkpt><trkpt lat="42.79106684889364" lon="13.257193922593633"><ele>1511.0</ele><time>2026-04-19T13:13:13.001Z</time></trkpt><trkpt lat="42.791135817831666" lon="13.25713164625556"><ele>1511.0</ele><time>2026-04-19T13:13:14.001Z</time></trkpt><trkpt lat="42.79120265576967" lon="13.25706353677038"><ele>1511.0</ele><time>2026-04-19T13:13:15.001Z</time></trkpt><trkpt lat="42.79126869202655" lon="13.25699209722466"><ele>1508.6666666666667</ele><time>2026-04-19T13:13:16.001Z</time></trkpt><trkpt lat="42.791337489915975" lon="13.256919947848285"><ele>1506.3333333333335</ele><time>2026-04-19T13:13:17.001Z</time></trkpt><trkpt lat="42.79140396116312" lon="13.256835198294235"><ele>1504.0</ele><time>2026-04-19T13:13:18.001Z</time></trkpt><trkpt lat="42.791467263927075" lon="13.256763614107959"><ele>1501.6666666666667</ele><time>2026-04-19T13:13:19.001Z</time></trkpt><trkpt lat="42.791531875187246" lon="13.256685199716893"><ele>1499.3333333333333</ele><time>2026-04-19T13:13:20.001Z</time></trkpt><trkpt lat="42.791596591334226" lon="13.256605595190711"><ele>1497.0</ele><time>2026-04-19T13:13:21.001Z</time></trkpt><trkpt lat="42.79165903435164" lon="13.256526200523162"><ele>1498.0</ele><time>2026-04-19T13:13:22.001Z</time></trkpt><trkpt lat="42.791723116587484" lon="13.256445525614861"><ele>1499.0</ele><time>2026-04-19T13:13:23.001Z</time></trkpt><trkpt lat="42.791786875023696" lon="13.256366511694363"><ele>1500.0</ele><time>2026-04-19T13:13:24.001Z</time></trkpt><trkpt lat="42.79185080781029" lon="13.256287973079104"><ele>1501.0</ele><time>2026-04-19T13:13:25.001Z</time></trkpt><trkpt lat="42.79190770849066" lon="13.25619335568395"><ele>1502.0</ele><time>2026-04-19T13:13:26.001Z</time></trkpt><trkpt lat="42.79196395214191" lon="13.256102124166178"><ele>1503.0</ele><time>2026-04-19T13:13:27.001Z</time></trkpt><trkpt lat="42.792020546890555" lon="13.256010237827425"><ele>1503.0</ele><time>2026-04-19T13:13:28.001Z</time></trkpt><trkpt lat="42.792077116124304" lon="13.255920983265684"><ele>1503.0</ele><time>2026-04-19T13:13:29.001Z</time></trkpt><trkpt lat="42.792133746286915" lon="13.255831597464907"><ele>1503.0</ele><time>2026-04-19T13:13:30.001Z</time></trkpt><trkpt lat="42.79219069811722" lon="13.255742490431789"><ele>1503.0</ele><time>2026-04-19T13:13:31.001Z</time></trkpt><trkpt lat="42.792245397685605" lon="13.255652350737288"><ele>1503.0</ele><time>2026-04-19T13:13:32.001Z</time></trkpt><trkpt lat="42.79230106555774" lon="13.255564846408141"><ele>1503.0</ele><time>2026-04-19T13:13:33.001Z</time></trkpt><trkpt lat="42.792357499733846" lon="13.255478557916607"><ele>1504.3333333333333</ele><time>2026-04-19T13:13:34.001Z</time></trkpt><trkpt lat="42.792414840725094" lon="13.255390849705718"><ele>1505.6666666666667</ele><time>2026-04-19T13:13:35.001Z</time></trkpt><trkpt lat="42.79247379481917" lon="13.255306566219465"><ele>1507.0</ele><time>2026-04-19T13:13:36.001Z</time></trkpt><trkpt lat="42.792533717079806" lon="13.255219478508133"><ele>1508.3333333333335</ele><time>2026-04-19T13:13:37.001Z</time></trkpt><trkpt lat="42.792591189894495" lon="13.255133666711155"><ele>1509.6666666666667</ele><time>2026-04-19T13:13:38.001Z</time></trkpt><trkpt lat="42.79265016873526" lon="13.255039126039614"><ele>1511.0</ele><time>2026-04-19T13:13:39.001Z</time></trkpt><trkpt lat="42.79270995220207" lon="13.254951279876163"><ele>1511.0</ele><time>2026-04-19T13:13:40.001Z</time></trkpt><trkpt lat="42.792765031825596" lon="13.254864759319192"><ele>1511.0</ele><time>2026-04-19T13:13:41.001Z</time></trkpt><trkpt lat="42.79281894430197" lon="13.254779865119813"><ele>1511.0</ele><time>2026-04-19T13:13:42.001Z</time></trkpt><trkpt lat="42.79287671813186" lon="13.254689104245353"><ele>1511.0</ele><time>2026-04-19T13:13:43.001Z</time></trkpt><trkpt lat="42.792932305895974" lon="13.254597575005791"><ele>1511.0</ele><time>2026-04-19T13:13:44.001Z</time></trkpt><trkpt lat="42.79299553073251" lon="13.254521801319603"><ele>1511.0</ele><time>2026-04-19T13:13:45.001Z</time></trkpt><trkpt lat="42.79304183675459" lon="13.254427716945656"><ele>1506.3333333333335</ele><time>2026-04-19T13:13:46.001Z</time></trkpt><trkpt lat="42.793087513842075" lon="13.254333558440536"><ele>1501.6666666666667</ele><time>2026-04-19T13:13:47.001Z</time></trkpt><trkpt lat="42.7931383302743" lon="13.254238332864618"><ele>1497.0</ele><time>2026-04-19T13:13:48.001Z</time></trkpt><trkpt lat="42.793188741281114" lon="13.254149400196658"><ele>1492.3333333333333</ele><time>2026-04-19T13:13:49.001Z</time></trkpt><trkpt lat="42.79324105574895" lon="13.254057399068033"><ele>1487.6666666666665</ele><time>2026-04-19T13:13:50.001Z</time></trkpt><trkpt lat="42.79329446874867" lon="13.253970870402453"><ele>1483.0</ele><time>2026-04-19T13:13:51.001Z</time></trkpt><trkpt lat="42.79334733247562" lon="13.253879417391046"><ele>1482.8333333333333</ele><time>2026-04-19T13:13:52.001Z</time></trkpt><trkpt lat="42.79340052383753" lon="13.253791519338899"><ele>1482.6666666666665</ele><time>2026-04-19T13:13:53.001Z</time></trkpt><trkpt lat="42.7934547300288" lon="13.253703997314549"><ele>1482.5</ele><time>2026-04-19T13:13:54.001Z</time></trkpt><trkpt lat="42.793505548661926" lon="13.253611736919785"><ele>1482.3333333333333</ele><time>2026-04-19T13:13:55.001Z</time></trkpt><trkpt lat="42.79355942876297" lon="13.253528357084987"><ele>1482.1666666666667</ele><time>2026-04-19T13:13:56.001Z</time></trkpt><trkpt lat="42.793612550909884" lon="13.253437298755285"><ele>1482.0</ele><time>2026-04-19T13:13:57.001Z</time></trkpt><trkpt lat="42.79366004604907" lon="13.253341078585253"><ele>1482.0</ele><time>2026-04-19T13:13:58.001Z</time></trkpt><trkpt lat="42.79370769395257" lon="13.253252797561558"><ele>1482.0</ele><time>2026-04-19T13:13:59.001Z</time></trkpt><trkpt lat="42.79375891750459" lon="13.25316387381303"><ele>1482.0</ele><time>2026-04-19T13:14:00.001Z</time></trkpt><trkpt lat="42.79381052167149" lon="13.253080469813376"><ele>1482.0</ele><time>2026-04-19T13:14:01.001Z</time></trkpt><trkpt lat="42.793858794743784" lon="13.252992685678425"><ele>1482.0</ele><time>2026-04-19T13:14:02.001Z</time></trkpt><trkpt lat="42.793910429317165" lon="13.252899391678975"><ele>1482.0</ele><time>2026-04-19T13:14:03.001Z</time></trkpt><trkpt lat="42.79397226117321" lon="13.25279481843213"><ele>1475.75</ele><time>2026-04-19T13:14:04.001Z</time></trkpt><trkpt lat="42.79403614221856" lon="13.252676369783934"><ele>1469.5</ele><time>2026-04-19T13:14:05.001Z</time></trkpt><trkpt lat="42.79410811417613" lon="13.252552196686022"><ele>1463.25</ele><time>2026-04-19T13:14:06.001Z</time></trkpt><trkpt lat="42.7941849272925" lon="13.252427430738297"><ele>1457.0</ele><time>2026-04-19T13:14:07.001Z</time></trkpt><trkpt lat="42.79426050305986" lon="13.252315398172604"><ele>1456.6666666666667</ele><time>2026-04-19T13:14:08.001Z</time></trkpt><trkpt lat="42.79433234612023" lon="13.252224165426247"><ele>1456.3333333333335</ele><time>2026-04-19T13:14:09.001Z</time></trkpt><trkpt lat="42.79441150460959" lon="13.252183361292968"><ele>1456.0</ele><time>2026-04-19T13:14:10.001Z</time></trkpt><trkpt lat="42.794483988865586" lon="13.252188703552527"><ele>1455.6666666666667</ele><time>2026-04-19T13:14:11.001Z</time></trkpt><trkpt lat="42.79454207902969" lon="13.252246881737447"><ele>1455.3333333333333</ele><time>2026-04-19T13:14:12.001Z</time></trkpt><trkpt lat="42.794578175106594" lon="13.252340726154083"><ele>1455.0</ele><time>2026-04-19T13:14:13.001Z</time></trkpt><trkpt lat="42.79460107500212" lon="13.252459155000643"><ele>1457.6666666666667</ele><time>2026-04-19T13:14:14.001Z</time></trkpt><trkpt lat="42.79463840137117" lon="13.252561002348898"><ele>1460.3333333333333</ele><time>2026-04-19T13:14:15.001Z</time></trkpt><trkpt lat="42.79469646386557" lon="13.252612865508315"><ele>1463.0</ele><time>2026-04-19T13:14:16.001Z</time></trkpt><trkpt lat="42.794773977285196" lon="13.252625798776613"><ele>1465.6666666666665</ele><time>2026-04-19T13:14:17.001Z</time></trkpt><trkpt lat="42.79485624212586" lon="13.25259769156161"><ele>1468.3333333333333</ele><time>2026-04-19T13:14:18.001Z</time></trkpt><trkpt lat="42.794930586556035" lon="13.252523535391795"><ele>1471.0</ele><time>2026-04-19T13:14:19.001Z</time></trkpt><trkpt lat="42.7950060430908" lon="13.252410343545664"><ele>1467.0</ele><time>2026-04-19T13:14:20.001Z</time></trkpt><trkpt lat="42.79506747687927" lon="13.252276408042537"><ele>1463.0</ele><time>2026-04-19T13:14:21.001Z</time></trkpt><trkpt lat="42.79511597820461" lon="13.252105933777168"><ele>1459.0</ele><time>2026-04-19T13:14:22.001Z</time></trkpt><trkpt lat="42.7951481339072" lon="13.251905612220972"><ele>1455.0</ele><time>2026-04-19T13:14:23.001Z</time></trkpt><trkpt lat="42.79516319504808" lon="13.251693150529615"><ele>1459.0</ele><time>2026-04-19T13:14:24.001Z</time></trkpt><trkpt lat="42.7951740084989" lon="13.251498564040512"><ele>1463.0</ele><time>2026-04-19T13:14:25.001Z</time></trkpt><trkpt lat="42.795186426818255" lon="13.251323248788664"><ele>1467.0</ele><time>2026-04-19T13:14:26.001Z</time></trkpt><trkpt lat="42.79520847896391" lon="13.251156381797879"><ele>1471.0</ele><time>2026-04-19T13:14:27.001Z</time></trkpt><trkpt lat="42.79523826944182" lon="13.251002555610631"><ele>1471.0</ele><time>2026-04-19T13:14:28.001Z</time></trkpt><trkpt lat="42.795274940512776" lon="13.250857875262549"><ele>1471.0</ele><time>2026-04-19T13:14:29.001Z</time></trkpt><trkpt lat="42.79531494287095" lon="13.250718995042037"><ele>1471.0</ele><time>2026-04-19T13:14:30.001Z</time></trkpt><trkpt lat="42.79535817653837" lon="13.250574892787387"><ele>1471.0</ele><time>2026-04-19T13:14:31.001Z</time></trkpt><trkpt lat="42.795409884051466" lon="13.250420230992313"><ele>1466.0</ele><time>2026-04-19T13:14:32.001Z</time></trkpt><trkpt lat="42.79547526186916" lon="13.250251160173521"><ele>1461.0</ele><time>2026-04-19T13:14:33.001Z</time></trkpt><trkpt lat="42.79557041195572" lon="13.250087470983061"><ele>1456.0</ele><time>2026-04-19T13:14:34.001Z</time></trkpt><trkpt lat="42.79566437454806" lon="13.249904445281812"><ele>1449.6666666666665</ele><time>2026-04-19T13:14:35.001Z</time></trkpt><trkpt lat="42.79576288246562" lon="13.249717075441565"><ele>1443.3333333333333</ele><time>2026-04-19T13:14:36.001Z</time></trkpt><trkpt lat="42.79585571234326" lon="13.249540505814261"><ele>1437.0</ele><time>2026-04-19T13:14:37.001Z</time></trkpt><trkpt lat="42.7959281229338" lon="13.249354359867842"><ele>1437.0</ele><time>2026-04-19T13:14:38.001Z</time></trkpt><trkpt lat="42.79599702548469" lon="13.249176199219958"><ele>1437.0</ele><time>2026-04-19T13:14:39.001Z</time></trkpt><trkpt lat="42.79603813309283" lon="13.249010410405987"><ele>1437.0</ele><time>2026-04-19T13:14:40.001Z</time></trkpt><trkpt lat="42.79608328325229" lon="13.248840012206132"><ele>1437.0</ele><time>2026-04-19T13:14:41.001Z</time></trkpt><trkpt lat="42.79614829022641" lon="13.248692714161454"><ele>1438.5</ele><time>2026-04-19T13:14:42.001Z</time></trkpt><trkpt lat="42.79622955870786" lon="13.248555820020753"><ele>1440.0</ele><time>2026-04-19T13:14:43.001Z</time></trkpt><trkpt lat="42.79631795849298" lon="13.248423694248514"><ele>1441.5</ele><time>2026-04-19T13:14:44.001Z</time></trkpt><trkpt lat="42.796410077164474" lon="13.24829548817846"><ele>1443.0</ele><time>2026-04-19T13:14:45.001Z</time></trkpt><trkpt lat="42.7965082656958" lon="13.248170809523677"><ele>1441.5</ele><time>2026-04-19T13:14:46.001Z</time></trkpt><trkpt lat="42.79660864894804" lon="13.248052511917496"><ele>1440.0</ele><time>2026-04-19T13:14:47.001Z</time></trkpt><trkpt lat="42.796715561749714" lon="13.24793183210058"><ele>1438.5</ele><time>2026-04-19T13:14:48.001Z</time></trkpt><trkpt lat="42.796831466440466" lon="13.247815851911119"><ele>1437.0</ele><time>2026-04-19T13:14:49.001Z</time></trkpt><trkpt lat="42.79696111674197" lon="13.247728956132454"><ele>1437.0</ele><time>2026-04-19T13:14:50.002Z</time></trkpt><trkpt lat="42.79707300448679" lon="13.24761183062215"><ele>1437.0</ele><time>2026-04-19T13:14:51.002Z</time></trkpt><trkpt lat="42.79719438781833" lon="13.247514528215925"><ele>1437.0</ele><time>2026-04-19T13:14:52.002Z</time></trkpt><trkpt lat="42.79731194414354" lon="13.247416879069732"><ele>1437.0</ele><time>2026-04-19T13:14:53.002Z</time></trkpt><trkpt lat="42.7974296952189" lon="13.247322747706198"><ele>1434.75</ele><time>2026-04-19T13:14:54.002Z</time></trkpt><trkpt lat="42.79755319118498" lon="13.247238656663177"><ele>1432.5</ele><time>2026-04-19T13:14:55.002Z</time></trkpt><trkpt lat="42.79767937644546" lon="13.247167819753232"><ele>1430.25</ele><time>2026-04-19T13:14:56.002Z</time></trkpt><trkpt lat="42.79780568879185" lon="13.247111967194291"><ele>1428.0</ele><time>2026-04-19T13:14:57.002Z</time></trkpt><trkpt lat="42.79793881221623" lon="13.247045311492757"><ele>1428.0</ele><time>2026-04-19T13:14:58.002Z</time></trkpt><trkpt lat="42.79806504183102" lon="13.246977014512852"><ele>1428.0</ele><time>2026-04-19T13:14:59.002Z</time></trkpt><trkpt lat="42.79818603012056" lon="13.246880362631124"><ele>1428.0</ele><time>2026-04-19T13:15:00.002Z</time></trkpt><trkpt lat="42.79829347008739" lon="13.246765989701654"><ele>1428.0</ele><time>2026-04-19T13:15:01.002Z</time></trkpt><trkpt lat="42.798396748272815" lon="13.246651913623966"><ele>1428.0</ele><time>2026-04-19T13:15:02.002Z</time></trkpt><trkpt lat="42.798500694826245" lon="13.246536938775133"><ele>1428.0</ele><time>2026-04-19T13:15:03.002Z</time></trkpt><trkpt lat="42.79861529820184" lon="13.246448900894096"><ele>1428.0</ele><time>2026-04-19T13:15:04.002Z</time></trkpt><trkpt lat="42.798712677450574" lon="13.246329478847095"><ele>1428.0</ele><time>2026-04-19T13:15:05.002Z</time></trkpt><trkpt lat="42.79882075924472" lon="13.246229582855184"><ele>1425.5</ele><time>2026-04-19T13:15:06.001Z</time></trkpt><trkpt lat="42.79893078161151" lon="13.246132530878521"><ele>1423.0</ele><time>2026-04-19T13:15:07.001Z</time></trkpt><trkpt lat="42.79904354238654" lon="13.246037759669402"><ele>1420.5</ele><time>2026-04-19T13:15:08.001Z</time></trkpt><trkpt lat="42.79915989853117" lon="13.245938874328905"><ele>1418.0</ele><time>2026-04-19T13:15:09.001Z</time></trkpt><trkpt lat="42.799296737820306" lon="13.245840968912098"><ele>1420.3333333333335</ele><time>2026-04-19T13:15:10.001Z</time></trkpt><trkpt lat="42.79946310134925" lon="13.245737192683569"><ele>1422.6666666666667</ele><time>2026-04-19T13:15:11.001Z</time></trkpt><trkpt lat="42.799656150374624" lon="13.245632147659446"><ele>1425.0</ele><time>2026-04-19T13:15:12.001Z</time></trkpt><trkpt lat="42.79985950187063" lon="13.245535008057523"><ele>1422.3333333333333</ele><time>2026-04-19T13:15:13.001Z</time></trkpt><trkpt lat="42.80004282656292" lon="13.245446228295481"><ele>1419.6666666666665</ele><time>2026-04-19T13:15:14.001Z</time></trkpt><trkpt lat="42.80021401724437" lon="13.24535108860531"><ele>1417.0</ele><time>2026-04-19T13:15:15.001Z</time></trkpt><trkpt lat="42.800370765695405" lon="13.245246025585912"><ele>1417.0</ele><time>2026-04-19T13:15:16.001Z</time></trkpt><trkpt lat="42.80050789923925" lon="13.245111198340867"><ele>1417.0</ele><time>2026-04-19T13:15:17.001Z</time></trkpt><trkpt lat="42.80062141301911" lon="13.244928644476115"><ele>1417.0</ele><time>2026-04-19T13:15:18.001Z</time></trkpt><trkpt lat="42.80070399943389" lon="13.244705614204118"><ele>1414.3333333333333</ele><time>2026-04-19T13:15:19.001Z</time></trkpt><trkpt lat="42.80076765958267" lon="13.244473054550374"><ele>1411.6666666666667</ele><time>2026-04-19T13:15:20.001Z</time></trkpt><trkpt lat="42.80082945859794" lon="13.24425459887632"><ele>1409.0</ele><time>2026-04-19T13:15:21.001Z</time></trkpt><trkpt lat="42.800909260163394" lon="13.244055458500066"><ele>1409.3333333333335</ele><time>2026-04-19T13:15:22.001Z</time></trkpt><trkpt lat="42.80100045860812" lon="13.243880341840844"><ele>1409.6666666666667</ele><time>2026-04-19T13:15:23.001Z</time></trkpt><trkpt lat="42.801117701372334" lon="13.243732000387327"><ele>1410.0</ele><time>2026-04-19T13:15:24.001Z</time></trkpt><trkpt lat="42.801253840428394" lon="13.24358724666479"><ele>1410.0</ele><time>2026-04-19T13:15:25.001Z</time></trkpt><trkpt lat="42.80139196691488" lon="13.243444925590321"><ele>1410.0</ele><time>2026-04-19T13:15:26.001Z</time></trkpt><trkpt lat="42.80154058761086" lon="13.243312613966982"><ele>1410.0</ele><time>2026-04-19T13:15:27.001Z</time></trkpt><trkpt lat="42.80166439673253" lon="13.243163850789122"><ele>1408.5</ele><time>2026-04-19T13:15:28.001Z</time></trkpt><trkpt lat="42.801782326177936" lon="13.243048536265793"><ele>1407.0</ele><time>2026-04-19T13:15:29.001Z</time></trkpt><trkpt lat="42.80188674072859" lon="13.2429527130574"><ele>1405.5</ele><time>2026-04-19T13:15:30.001Z</time></trkpt><trkpt lat="42.80199282262245" lon="13.24286867569318"><ele>1404.0</ele><time>2026-04-19T13:15:31.001Z</time></trkpt><trkpt lat="42.802096720445036" lon="13.242803982796378"><ele>1403.6</ele><time>2026-04-19T13:15:32.001Z</time></trkpt><trkpt lat="42.80218975665915" lon="13.242764629163878"><ele>1403.2</ele><time>2026-04-19T13:15:33.001Z</time></trkpt><trkpt lat="42.80227365193858" lon="13.242746726752213"><ele>1402.8</ele><time>2026-04-19T13:15:34.001Z</time></trkpt><trkpt lat="42.80236713829143" lon="13.242770172110397"><ele>1402.3999999999999</ele><time>2026-04-19T13:15:35.001Z</time></trkpt><trkpt lat="42.80246465020425" lon="13.242782052486575"><ele>1402.0</ele><time>2026-04-19T13:15:36.001Z</time></trkpt><trkpt lat="42.802571265591666" lon="13.242807901538715"><ele>1401.6</ele><time>2026-04-19T13:15:37.001Z</time></trkpt><trkpt lat="42.802671196799814" lon="13.24285001636516"><ele>1401.1999999999998</ele><time>2026-04-19T13:15:38.001Z</time></trkpt><trkpt lat="42.802753640006344" lon="13.242916051787272"><ele>1400.8</ele><time>2026-04-19T13:15:39.001Z</time></trkpt><trkpt lat="42.8028239199557" lon="13.243001680372712"><ele>1400.4</ele><time>2026-04-19T13:15:40.001Z</time></trkpt><trkpt lat="42.802886740362545" lon="13.243108950699234"><ele>1400.0</ele><time>2026-04-19T13:15:41.001Z</time></trkpt><trkpt lat="42.80293926275433" lon="13.243225138816188"><ele>1400.0</ele><time>2026-04-19T13:15:42.001Z</time></trkpt><trkpt lat="42.80298757240285" lon="13.24332278959085"><ele>1400.0</ele><time>2026-04-19T13:15:43.001Z</time></trkpt><trkpt lat="42.8030195500454" lon="13.243427749292291"><ele>1400.0</ele><time>2026-04-19T13:15:44.001Z</time></trkpt><trkpt lat="42.80305726929997" lon="13.243528461006827"><ele>1400.0</ele><time>2026-04-19T13:15:45.001Z</time></trkpt><trkpt lat="42.80307887183832" lon="13.243647609349992"><ele>1400.0</ele><time>2026-04-19T13:15:46.001Z</time></trkpt><trkpt lat="42.80311407203332" lon="13.243781902047019"><ele>1400.0</ele><time>2026-04-19T13:15:47.001Z</time></trkpt><trkpt lat="42.803167460160715" lon="13.24390168940316"><ele>1401.8</ele><time>2026-04-19T13:15:48.001Z</time></trkpt><trkpt lat="42.80320847309263" lon="13.244002224427447"><ele>1403.6</ele><time>2026-04-19T13:15:49.001Z</time></trkpt><trkpt lat="42.80329555928383" lon="13.244119215688524"><ele>1405.4</ele><time>2026-04-19T13:15:51.001Z</time></trkpt><trkpt lat="42.80341622971893" lon="13.24416265362215"><ele>1407.2</ele><time>2026-04-19T13:15:53.001Z</time></trkpt><trkpt lat="42.80348852684785" lon="13.244160192858144"><ele>1409.0</ele><time>2026-04-19T13:15:54.001Z</time></trkpt><trkpt lat="42.80356543827301" lon="13.244146600892625"><ele>1409.5</ele><time>2026-04-19T13:15:55.001Z</time></trkpt><trkpt lat="42.80364354909205" lon="13.244130471116858"><ele>1410.0</ele><time>2026-04-19T13:15:56.001Z</time></trkpt><trkpt lat="42.80371915501155" lon="13.244095718716363"><ele>1410.5</ele><time>2026-04-19T13:15:57.001Z</time></trkpt><trkpt lat="42.803793002117345" lon="13.244040015176235"><ele>1411.0</ele><time>2026-04-19T13:15:58.001Z</time></trkpt><trkpt lat="42.80386271877331" lon="13.24398014632972"><ele>1411.5</ele><time>2026-04-19T13:15:59.001Z</time></trkpt><trkpt lat="42.80393326593162" lon="13.243920054841702"><ele>1412.0</ele><time>2026-04-19T13:16:00.001Z</time></trkpt><trkpt lat="42.804000855450475" lon="13.243856876422347"><ele>1410.1999999999998</ele><time>2026-04-19T13:16:01.001Z</time></trkpt><trkpt lat="42.80407497963178" lon="13.243784409293111"><ele>1408.4</ele><time>2026-04-19T13:16:02.001Z</time></trkpt><trkpt lat="42.804142617736225" lon="13.243702202447619"><ele>1406.6</ele><time>2026-04-19T13:16:03.001Z</time></trkpt><trkpt lat="42.80422020281117" lon="13.243626431312029"><ele>1404.8000000000002</ele><time>2026-04-19T13:16:04.001Z</time></trkpt><trkpt lat="42.80426981332136" lon="13.243501898134431"><ele>1403.0</ele><time>2026-04-19T13:16:05.001Z</time></trkpt><trkpt lat="42.8043162052346" lon="13.243371385569436"><ele>1401.8000000000002</ele><time>2026-04-19T13:16:06.001Z</time></trkpt><trkpt lat="42.8043387211727" lon="13.24322363283076"><ele>1400.6</ele><time>2026-04-19T13:16:07.001Z</time></trkpt><trkpt lat="42.80433686582715" lon="13.243079211220232"><ele>1399.4</ele><time>2026-04-19T13:16:08.001Z</time></trkpt><trkpt lat="42.80432208235769" lon="13.242935931105974"><ele>1398.1999999999998</ele><time>2026-04-19T13:16:09.001Z</time></trkpt><trkpt lat="42.80433080152823" lon="13.242793063666769"><ele>1397.0</ele><time>2026-04-19T13:16:10.001Z</time></trkpt><trkpt lat="42.80430676764606" lon="13.242658635242817"><ele>1397.0</ele><time>2026-04-19T13:16:11.001Z</time></trkpt><trkpt lat="42.80429685695486" lon="13.242511977885268"><ele>1397.0</ele><time>2026-04-19T13:16:12.001Z</time></trkpt><trkpt lat="42.80428844653613" lon="13.24236152507241"><ele>1397.0</ele><time>2026-04-19T13:16:13.001Z</time></trkpt><trkpt lat="42.804277004750894" lon="13.24219634939348"><ele>1397.0</ele><time>2026-04-19T13:16:14.001Z</time></trkpt><trkpt lat="42.8042680865456" lon="13.2420262217588"><ele>1395.5</ele><time>2026-04-19T13:16:15.001Z</time></trkpt><trkpt lat="42.804262908098174" lon="13.241850828844605"><ele>1394.0</ele><time>2026-04-19T13:16:16.001Z</time></trkpt><trkpt lat="42.8042510414409" lon="13.241679225607738"><ele>1392.5</ele><time>2026-04-19T13:16:17.001Z</time></trkpt><trkpt lat="42.80423322207008" lon="13.241500085006145"><ele>1391.0</ele><time>2026-04-19T13:16:18.001Z</time></trkpt><trkpt lat="42.8042110162467" lon="13.2413162225964"><ele>1391.0</ele><time>2026-04-19T13:16:19.001Z</time></trkpt><trkpt lat="42.80418443399167" lon="13.241140558969825"><ele>1391.0</ele><time>2026-04-19T13:16:20.001Z</time></trkpt><trkpt lat="42.804179455850964" lon="13.240968541026916"><ele>1391.0</ele><time>2026-04-19T13:16:21.001Z</time></trkpt><trkpt lat="42.80415195854567" lon="13.240810110504368"><ele>1391.0</ele><time>2026-04-19T13:16:22.001Z</time></trkpt><trkpt lat="42.80416481274641" lon="13.240658082114628"><ele>1390.75</ele><time>2026-04-19T13:16:23.001Z</time></trkpt><trkpt lat="42.80422350782573" lon="13.24053088220603"><ele>1390.5</ele><time>2026-04-19T13:16:24.001Z</time></trkpt><trkpt lat="42.80428184314685" lon="13.240408596884842"><ele>1390.25</ele><time>2026-04-19T13:16:25.001Z</time></trkpt><trkpt lat="42.80439326358295" lon="13.240346314014726"><ele>1390.0</ele><time>2026-04-19T13:16:26.001Z</time></trkpt><trkpt lat="42.804504795089215" lon="13.240278110082249"><ele>1388.5</ele><time>2026-04-19T13:16:27.001Z</time></trkpt><trkpt lat="42.8046292664368" lon="13.240305366197191"><ele>1387.0</ele><time>2026-04-19T13:16:28.001Z</time></trkpt><trkpt lat="42.804766238203385" lon="13.24031685679358"><ele>1385.5</ele><time>2026-04-19T13:16:29.001Z</time></trkpt><trkpt lat="42.804904469817636" lon="13.240374990745789"><ele>1384.0</ele><time>2026-04-19T13:16:30.001Z</time></trkpt><trkpt lat="42.805032307692265" lon="13.24040051351903"><ele>1384.0</ele><time>2026-04-19T13:16:31.001Z</time></trkpt><trkpt lat="42.8051346437538" lon="13.240385953023186"><ele>1384.0</ele><time>2026-04-19T13:16:32.001Z</time></trkpt><trkpt lat="42.80521227969665" lon="13.240336044876189"><ele>1384.0</ele><time>2026-04-19T13:16:33.001Z</time></trkpt><trkpt lat="42.805260866590984" lon="13.240239511089415"><ele>1384.0</ele><time>2026-04-19T13:16:34.001Z</time></trkpt><trkpt lat="42.80528672062093" lon="13.240091669251786"><ele>1384.0</ele><time>2026-04-19T13:16:35.001Z</time></trkpt><trkpt lat="42.805299876649066" lon="13.23991585176838"><ele>1382.6</ele><time>2026-04-19T13:16:36.001Z</time></trkpt><trkpt lat="42.805349881984846" lon="13.23977488570591"><ele>1381.2</ele><time>2026-04-19T13:16:37.001Z</time></trkpt><trkpt lat="42.80541204174816" lon="13.239659682472086"><ele>1379.8</ele><time>2026-04-19T13:16:38.001Z</time></trkpt><trkpt lat="42.80548826464665" lon="13.239556792710147"><ele>1378.3999999999999</ele><time>2026-04-19T13:16:39.001Z</time></trkpt><trkpt lat="42.805565661563755" lon="13.239466985231005"><ele>1377.0</ele><time>2026-04-19T13:16:40.001Z</time></trkpt><trkpt lat="42.80566405305648" lon="13.239402873452152"><ele>1377.0</ele><time>2026-04-19T13:16:41.001Z</time></trkpt><trkpt lat="42.80577432746485" lon="13.239356049983142"><ele>1377.0</ele><time>2026-04-19T13:16:42.001Z</time></trkpt><trkpt lat="42.80588853203021" lon="13.23932468541425"><ele>1377.0</ele><time>2026-04-19T13:16:43.001Z</time></trkpt><trkpt lat="42.806007407723556" lon="13.23930093323422"><ele>1377.0</ele><time>2026-04-19T13:16:44.001Z</time></trkpt><trkpt lat="42.80612068862088" lon="13.239296388632273"><ele>1374.5</ele><time>2026-04-19T13:16:45.001Z</time></trkpt><trkpt lat="42.80622963682448" lon="13.23931320927487"><ele>1372.0</ele><time>2026-04-19T13:16:46.001Z</time></trkpt><trkpt lat="42.80634590293859" lon="13.239360408855793"><ele>1369.5</ele><time>2026-04-19T13:16:47.001Z</time></trkpt><trkpt lat="42.80647864481987" lon="13.239456675897205"><ele>1367.0</ele><time>2026-04-19T13:16:48.001Z</time></trkpt><trkpt lat="42.806619852537246" lon="13.239602715699352"><ele>1367.0</ele><time>2026-04-19T13:16:49.001Z</time></trkpt><trkpt lat="42.80673508090769" lon="13.239767708363004"><ele>1367.0</ele><time>2026-04-19T13:16:50.001Z</time></trkpt><trkpt lat="42.806832651656926" lon="13.239917754309092"><ele>1367.0</ele><time>2026-04-19T13:16:51.001Z</time></trkpt><trkpt lat="42.80693720939212" lon="13.240016680203166"><ele>1367.0</ele><time>2026-04-19T13:16:52.001Z</time></trkpt><trkpt lat="42.80704751720382" lon="13.240033854671573"><ele>1367.25</ele><time>2026-04-19T13:16:53.001Z</time></trkpt><trkpt lat="42.807161561319354" lon="13.23999205179912"><ele>1367.5</ele><time>2026-04-19T13:16:54.001Z</time></trkpt><trkpt lat="42.807266486855966" lon="13.239883049692978"><ele>1367.75</ele><time>2026-04-19T13:16:55.001Z</time></trkpt><trkpt lat="42.80735647171316" lon="13.239709010077032"><ele>1368.0</ele><time>2026-04-19T13:16:56.001Z</time></trkpt><trkpt lat="42.80739905314031" lon="13.239508115789267"><ele>1368.0</ele><time>2026-04-19T13:16:57.001Z</time></trkpt><trkpt lat="42.80742972581055" lon="13.239288839028042"><ele>1368.0</ele><time>2026-04-19T13:16:58.001Z</time></trkpt><trkpt lat="42.8075094971367" lon="13.239152270250393"><ele>1368.0</ele><time>2026-04-19T13:16:59.001Z</time></trkpt><trkpt lat="42.807591290395145" lon="13.239062773900208"><ele>1368.0</ele><time>2026-04-19T13:17:00.001Z</time></trkpt><trkpt lat="42.80771257828384" lon="13.238928201240292"><ele>1366.0</ele><time>2026-04-19T13:17:01.001Z</time></trkpt><trkpt lat="42.80788835452906" lon="13.238783471613171"><ele>1364.0</ele><time>2026-04-19T13:17:02.001Z</time></trkpt><trkpt lat="42.80808056630276" lon="13.238642378728054"><ele>1362.0</ele><time>2026-04-19T13:17:03.001Z</time></trkpt><trkpt lat="42.80828719730143" lon="13.23850071236986"><ele>1363.5</ele><time>2026-04-19T13:17:04.001Z</time></trkpt><trkpt lat="42.8085063199063" lon="13.23836240208888"><ele>1365.0</ele><time>2026-04-19T13:17:05.001Z</time></trkpt><trkpt lat="42.80872905131463" lon="13.238239447698497"><ele>1360.6666666666667</ele><time>2026-04-19T13:17:06.001Z</time></trkpt><trkpt lat="42.808914860888365" lon="13.23809996980937"><ele>1356.3333333333335</ele><time>2026-04-19T13:17:07.001Z</time></trkpt><trkpt lat="42.809114282412274" lon="13.23799529918009"><ele>1352.0</ele><time>2026-04-19T13:17:08.001Z</time></trkpt><trkpt lat="42.80930983906117" lon="13.237888999445454"><ele>1353.5</ele><time>2026-04-19T13:17:09.001Z</time></trkpt><trkpt lat="42.809530336833056" lon="13.23778844417309"><ele>1355.0</ele><time>2026-04-19T13:17:10.001Z</time></trkpt><trkpt lat="42.80975566989095" lon="13.237696413544754"><ele>1355.0</ele><time>2026-04-19T13:17:11.001Z</time></trkpt><trkpt lat="42.80996093242757" lon="13.237580641259822"><ele>1355.0</ele><time>2026-04-19T13:17:12.002Z</time></trkpt><trkpt lat="42.81016145814947" lon="13.237491083324448"><ele>1355.0</ele><time>2026-04-19T13:17:13.002Z</time></trkpt><trkpt lat="42.810351065687286" lon="13.237398783889278"><ele>1351.6666666666667</ele><time>2026-04-19T13:17:14.002Z</time></trkpt><trkpt lat="42.8105320163829" lon="13.237301852363762"><ele>1348.3333333333333</ele><time>2026-04-19T13:17:15.002Z</time></trkpt><trkpt lat="42.81070698609581" lon="13.237210568623519"><ele>1345.0</ele><time>2026-04-19T13:17:16.002Z</time></trkpt><trkpt lat="42.810860217830054" lon="13.237030780130938"><ele>1345.3333333333333</ele><time>2026-04-19T13:17:17.002Z</time></trkpt><trkpt lat="42.81100681442715" lon="13.236823263415438"><ele>1345.6666666666667</ele><time>2026-04-19T13:17:18.002Z</time></trkpt><trkpt lat="42.81112781246277" lon="13.236586287169027"><ele>1346.0</ele><time>2026-04-19T13:17:19.002Z</time></trkpt><trkpt lat="42.81123714150789" lon="13.236369079559225"><ele>1346.0</ele><time>2026-04-19T13:17:20.002Z</time></trkpt><trkpt lat="42.8113435830796" lon="13.236180639370085"><ele>1346.0</ele><time>2026-04-19T13:17:21.002Z</time></trkpt><trkpt lat="42.81144896426633" lon="13.23601041201317"><ele>1346.0</ele><time>2026-04-19T13:17:22.002Z</time></trkpt><trkpt lat="42.8115594637128" lon="13.235865569364861"><ele>1346.0</ele><time>2026-04-19T13:17:23.002Z</time></trkpt><trkpt lat="42.81168979605371" lon="13.235718556329031"><ele>1346.0</ele><time>2026-04-19T13:17:24.002Z</time></trkpt><trkpt lat="42.81183569642526" lon="13.235599426928848"><ele>1346.0</ele><time>2026-04-19T13:17:25.002Z</time></trkpt><trkpt lat="42.811965672315736" lon="13.235465482318608"><ele>1344.5</ele><time>2026-04-19T13:17:26.002Z</time></trkpt><trkpt lat="42.81209174953356" lon="13.23533635083898"><ele>1343.0</ele><time>2026-04-19T13:17:27.002Z</time></trkpt><trkpt lat="42.81219818437827" lon="13.235204937608529"><ele>1341.5</ele><time>2026-04-19T13:17:28.002Z</time></trkpt><trkpt lat="42.81232074214535" lon="13.235101393737288"><ele>1340.0</ele><time>2026-04-19T13:17:29.002Z</time></trkpt><trkpt lat="42.81246077331634" lon="13.235007140087186"><ele>1340.0</ele><time>2026-04-19T13:17:30.002Z</time></trkpt><trkpt lat="42.81261382720627" lon="13.234928213041027"><ele>1340.0</ele><time>2026-04-19T13:17:31.002Z</time></trkpt><trkpt lat="42.81276746425889" lon="13.234856191661061"><ele>1340.0</ele><time>2026-04-19T13:17:32.001Z</time></trkpt><trkpt lat="42.81291906255951" lon="13.234782821766702"><ele>1337.3333333333335</ele><time>2026-04-19T13:17:33.001Z</time></trkpt><trkpt lat="42.81308105722178" lon="13.234692898542296"><ele>1334.6666666666667</ele><time>2026-04-19T13:17:34.001Z</time></trkpt><trkpt lat="42.813237562062604" lon="13.234596907187235"><ele>1332.0</ele><time>2026-04-19T13:17:35.001Z</time></trkpt><trkpt lat="42.813391445265765" lon="13.234487904468752"><ele>1335.0</ele><time>2026-04-19T13:17:36.001Z</time></trkpt><trkpt lat="42.81354814244589" lon="13.234369765358087"><ele>1338.0</ele><time>2026-04-19T13:17:37.001Z</time></trkpt><trkpt lat="42.81370509688412" lon="13.234252005246832"><ele>1341.0</ele><time>2026-04-19T13:17:38.001Z</time></trkpt><trkpt lat="42.813844943050334" lon="13.234119303601023"><ele>1336.3333333333333</ele><time>2026-04-19T13:17:39.001Z</time></trkpt><trkpt lat="42.81397539768855" lon="13.233933189686503"><ele>1331.6666666666665</ele><time>2026-04-19T13:17:40.001Z</time></trkpt><trkpt lat="42.81410103382214" lon="13.233697483554606"><ele>1327.0</ele><time>2026-04-19T13:17:41.001Z</time></trkpt><trkpt lat="42.81422119581603" lon="13.233472658665542"><ele>1325.6666666666665</ele><time>2026-04-19T13:17:42.001Z</time></trkpt><trkpt lat="42.8143324786064" lon="13.233286801725137"><ele>1324.3333333333333</ele><time>2026-04-19T13:17:43.001Z</time></trkpt><trkpt lat="42.814472480181756" lon="13.233136205986176"><ele>1323.0</ele><time>2026-04-19T13:17:44.001Z</time></trkpt><trkpt lat="42.814605598225214" lon="13.232983155628649"><ele>1323.0</ele><time>2026-04-19T13:17:45.001Z</time></trkpt><trkpt lat="42.81473460781412" lon="13.232838858099083"><ele>1323.0</ele><time>2026-04-19T13:17:46.001Z</time></trkpt><trkpt lat="42.814849335950875" lon="13.232689881298215"><ele>1323.0</ele><time>2026-04-19T13:17:47.001Z</time></trkpt><trkpt lat="42.814980610595924" lon="13.232569106423156"><ele>1323.0</ele><time>2026-04-19T13:17:48.001Z</time></trkpt><trkpt lat="42.81510582247245" lon="13.232476448296525"><ele>1323.0</ele><time>2026-04-19T13:17:49.001Z</time></trkpt><trkpt lat="42.81524126847588" lon="13.23243444762747"><ele>1323.0</ele><time>2026-04-19T13:17:50.001Z</time></trkpt><trkpt lat="42.815365090935515" lon="13.23239139444457"><ele>1323.0</ele><time>2026-04-19T13:17:51.001Z</time></trkpt><trkpt lat="42.8154819848007" lon="13.232333893954653"><ele>1321.25</ele><time>2026-04-19T13:17:52.001Z</time></trkpt><trkpt lat="42.81560071795418" lon="13.232298658574415"><ele>1319.5</ele><time>2026-04-19T13:17:53.001Z</time></trkpt><trkpt lat="42.81571618441483" lon="13.232250471023772"><ele>1317.75</ele><time>2026-04-19T13:17:54.001Z</time></trkpt><trkpt lat="42.81583072143689" lon="13.232215803941621"><ele>1316.0</ele><time>2026-04-19T13:17:55.001Z</time></trkpt><trkpt lat="42.81593943400885" lon="13.23217818172108"><ele>1314.8</ele><time>2026-04-19T13:17:56.001Z</time></trkpt><trkpt lat="42.81604877262481" lon="13.232143797862518"><ele>1313.6</ele><time>2026-04-19T13:17:57.001Z</time></trkpt><trkpt lat="42.81614999717841" lon="13.23210922483884"><ele>1312.4</ele><time>2026-04-19T13:17:58.001Z</time></trkpt><trkpt lat="42.816246954982766" lon="13.232075858189592"><ele>1311.2</ele><time>2026-04-19T13:17:59.001Z</time></trkpt><trkpt lat="42.816358357839775" lon="13.2320474182887"><ele>1310.0</ele><time>2026-04-19T13:18:00.001Z</time></trkpt><trkpt lat="42.8164626554771" lon="13.232003492318944"><ele>1310.0</ele><time>2026-04-19T13:18:01.001Z</time></trkpt><trkpt lat="42.816561535907816" lon="13.231969693155067"><ele>1310.0</ele><time>2026-04-19T13:18:02.001Z</time></trkpt><trkpt lat="42.81665426984821" lon="13.231937223253327"><ele>1310.0</ele><time>2026-04-19T13:18:03.001Z</time></trkpt><trkpt lat="42.81674234329132" lon="13.231906446657227"><ele>1310.0</ele><time>2026-04-19T13:18:04.001Z</time></trkpt><trkpt lat="42.81683442476289" lon="13.231880040490307"><ele>1310.0</ele><time>2026-04-19T13:18:05.001Z</time></trkpt><trkpt lat="42.8169286454799" lon="13.231845216616113"><ele>1310.6</ele><time>2026-04-19T13:18:06.001Z</time></trkpt><trkpt lat="42.81702971549587" lon="13.23181043017142"><ele>1311.2</ele><time>2026-04-19T13:18:07.001Z</time></trkpt><trkpt lat="42.817127272499846" lon="13.231768682463048"><ele>1311.8000000000002</ele><time>2026-04-19T13:18:08.001Z</time></trkpt><trkpt lat="42.81722262737973" lon="13.231714480871787"><ele>1312.4</ele><time>2026-04-19T13:18:09.001Z</time></trkpt><trkpt lat="42.81731692683655" lon="13.231650111426976"><ele>1313.0</ele><time>2026-04-19T13:18:10.001Z</time></trkpt><trkpt lat="42.81740811534084" lon="13.231579195024697"><ele>1313.0</ele><time>2026-04-19T13:18:11.001Z</time></trkpt><trkpt lat="42.817498045577885" lon="13.231505265452332"><ele>1313.0</ele><time>2026-04-19T13:18:12.001Z</time></trkpt><trkpt lat="42.81758909098535" lon="13.2314147039713"><ele>1313.0</ele><time>2026-04-19T13:18:13.001Z</time></trkpt><trkpt lat="42.81768910662605" lon="13.2313479038322"><ele>1313.0</ele><time>2026-04-19T13:18:14.001Z</time></trkpt><trkpt lat="42.817780706271435" lon="13.231259251495436"><ele>1313.0</ele><time>2026-04-19T13:18:15.001Z</time></trkpt><trkpt lat="42.817865114677545" lon="13.231152241755096"><ele>1311.75</ele><time>2026-04-19T13:18:16.001Z</time></trkpt><trkpt lat="42.817961660134785" lon="13.231066495240828"><ele>1310.5</ele><time>2026-04-19T13:18:17.001Z</time></trkpt><trkpt lat="42.81805475638004" lon="13.230976860129061"><ele>1309.25</ele><time>2026-04-19T13:18:18.001Z</time></trkpt><trkpt lat="42.81814500974876" lon="13.230877146437386"><ele>1308.0</ele><time>2026-04-19T13:18:19.001Z</time></trkpt><trkpt lat="42.818235331810115" lon="13.23077775887684"><ele>1308.0</ele><time>2026-04-19T13:18:20.001Z</time></trkpt><trkpt lat="42.81832279696502" lon="13.230676155823371"><ele>1308.0</ele><time>2026-04-19T13:18:21.001Z</time></trkpt><trkpt lat="42.818406219835644" lon="13.230564016255606"><ele>1308.0</ele><time>2026-04-19T13:18:22.001Z</time></trkpt><trkpt lat="42.818485584267144" lon="13.23045311686437"><ele>1308.0</ele><time>2026-04-19T13:18:23.001Z</time></trkpt><trkpt lat="42.818555705961806" lon="13.230328383814005"><ele>1307.25</ele><time>2026-04-19T13:18:24.001Z</time></trkpt><trkpt lat="42.818618932327865" lon="13.230193773388226"><ele>1306.5</ele><time>2026-04-19T13:18:25.001Z</time></trkpt><trkpt lat="42.818676401111546" lon="13.230060813720218"><ele>1305.75</ele><time>2026-04-19T13:18:26.001Z</time></trkpt><trkpt lat="42.81872237669749" lon="13.229917492222809"><ele>1305.0</ele><time>2026-04-19T13:18:27.001Z</time></trkpt><trkpt lat="42.81878083609678" lon="13.229781345503932"><ele>1303.8</ele><time>2026-04-19T13:18:28.001Z</time></trkpt><trkpt lat="42.81882207268655" lon="13.229635096225355"><ele>1302.6</ele><time>2026-04-19T13:18:29.001Z</time></trkpt><trkpt lat="42.81885581223778" lon="13.2294877463618"><ele>1301.4</ele><time>2026-04-19T13:18:30.001Z</time></trkpt><trkpt lat="42.81888206664943" lon="13.229340832633678"><ele>1300.2</ele><time>2026-04-19T13:18:31.001Z</time></trkpt><trkpt lat="42.81890421674575" lon="13.229201143177352"><ele>1299.0</ele><time>2026-04-19T13:18:32.001Z</time></trkpt><trkpt lat="42.8189237844273" lon="13.229059543843166"><ele>1298.8000000000002</ele><time>2026-04-19T13:18:33.001Z</time></trkpt><trkpt lat="42.8189413507874" lon="13.228923931667294"><ele>1298.6000000000001</ele><time>2026-04-19T13:18:34.001Z</time></trkpt><trkpt lat="42.81895797208526" lon="13.22879217268727"><ele>1298.4</ele><time>2026-04-19T13:18:35.001Z</time></trkpt><trkpt lat="42.818973566381096" lon="13.228665206687046"><ele>1298.2</ele><time>2026-04-19T13:18:36.001Z</time></trkpt><trkpt lat="42.81898858820565" lon="13.228542697564075"><ele>1298.0</ele><time>2026-04-19T13:18:37.001Z</time></trkpt><trkpt lat="42.81900317345355" lon="13.228423682870606"><ele>1297.9999999999998</ele><time>2026-04-19T13:18:38.001Z</time></trkpt><trkpt lat="42.81901713038178" lon="13.228309795162469"><ele>1298.0</ele><time>2026-04-19T13:18:39.001Z</time></trkpt><trkpt lat="42.81902961269801" lon="13.228207940105522"><ele>1298.0</ele><time>2026-04-19T13:18:40.001Z</time></trkpt><trkpt lat="42.81904236781949" lon="13.228103859195874"><ele>1298.0</ele><time>2026-04-19T13:18:41.001Z</time></trkpt><trkpt lat="42.81905427723994" lon="13.228006678799687"><ele>1298.0</ele><time>2026-04-19T13:18:42.001Z</time></trkpt><trkpt lat="42.81906616663767" lon="13.227909662022808"><ele>1297.9999999999998</ele><time>2026-04-19T13:18:43.001Z</time></trkpt><trkpt lat="42.81907684054723" lon="13.227822563821903"><ele>1298.0</ele><time>2026-04-19T13:18:44.001Z</time></trkpt><trkpt lat="42.81909650620637" lon="13.227662093205904"><ele>1298.3333333333335</ele><time>2026-04-19T13:18:46.001Z</time></trkpt><trkpt lat="42.81910745181734" lon="13.227572777571604"><ele>1298.6666666666667</ele><time>2026-04-19T13:18:47.001Z</time></trkpt><trkpt lat="42.81911997960434" lon="13.227469673688717"><ele>1299.0</ele><time>2026-04-19T13:18:48.001Z</time></trkpt><trkpt lat="42.81913316424229" lon="13.22736078040922"><ele>1299.3333333333333</ele><time>2026-04-19T13:18:49.001Z</time></trkpt><trkpt lat="42.81912172384444" lon="13.22723625769087"><ele>1299.6666666666665</ele><time>2026-04-19T13:18:50.001Z</time></trkpt><trkpt lat="42.81914048121789" lon="13.22711099273831"><ele>1300.0</ele><time>2026-04-19T13:18:51.001Z</time></trkpt><trkpt lat="42.81915912348434" lon="13.226977266797462"><ele>1300.25</ele><time>2026-04-19T13:18:52.001Z</time></trkpt><trkpt lat="42.81917724412485" lon="13.226819811976105"><ele>1300.5</ele><time>2026-04-19T13:18:53.001Z</time></trkpt><trkpt lat="42.819196469138866" lon="13.226651375918317"><ele>1300.75</ele><time>2026-04-19T13:18:54.001Z</time></trkpt><trkpt lat="42.81922037771801" lon="13.22648335966437"><ele>1301.0</ele><time>2026-04-19T13:18:55.001Z</time></trkpt><trkpt lat="42.819244045520804" lon="13.22634493144626"><ele>1301.0</ele><time>2026-04-19T13:18:56.001Z</time></trkpt><trkpt lat="42.81926260974317" lon="13.226222462075715"><ele>1301.0</ele><time>2026-04-19T13:18:57.001Z</time></trkpt><trkpt lat="42.81927580778326" lon="13.22608769045514"><ele>1301.0</ele><time>2026-04-19T13:18:58.001Z</time></trkpt><trkpt lat="42.81929323786804" lon="13.225943139054746"><ele>1301.0</ele><time>2026-04-19T13:18:59.001Z</time></trkpt><trkpt lat="42.819312206660925" lon="13.225798904343277"><ele>1301.0</ele><time>2026-04-19T13:19:00.001Z</time></trkpt><trkpt lat="42.819329760524894" lon="13.225652685153287"><ele>1301.8</ele><time>2026-04-19T13:19:01.001Z</time></trkpt><trkpt lat="42.819345355303916" lon="13.225507721133766"><ele>1302.6</ele><time>2026-04-19T13:19:02.001Z</time></trkpt><trkpt lat="42.81936388070753" lon="13.225363848677757"><ele>1303.4</ele><time>2026-04-19T13:19:03.001Z</time></trkpt><trkpt lat="42.8193808680516" lon="13.22521339664586"><ele>1304.2</ele><time>2026-04-19T13:19:04.001Z</time></trkpt><trkpt lat="42.81939634056525" lon="13.225073249876006"><ele>1305.0</ele><time>2026-04-19T13:19:05.001Z</time></trkpt><trkpt lat="42.8194187435703" lon="13.22492985729937"><ele>1305.0</ele><time>2026-04-19T13:19:06.001Z</time></trkpt><trkpt lat="42.819439377702125" lon="13.224788643524793"><ele>1305.0</ele><time>2026-04-19T13:19:07.001Z</time></trkpt><trkpt lat="42.819458927413564" lon="13.224643663336993"><ele>1305.0</ele><time>2026-04-19T13:19:08.001Z</time></trkpt><trkpt lat="42.819473120713695" lon="13.224501880445246"><ele>1305.0</ele><time>2026-04-19T13:19:09.001Z</time></trkpt><trkpt lat="42.819490235518394" lon="13.224355618858317"><ele>1305.0</ele><time>2026-04-19T13:19:10.001Z</time></trkpt><trkpt lat="42.81951005082436" lon="13.224214086897305"><ele>1305.0</ele><time>2026-04-19T13:19:11.001Z</time></trkpt><trkpt lat="42.81952847222011" lon="13.22407015821153"><ele>1305.0</ele><time>2026-04-19T13:19:12.001Z</time></trkpt><trkpt lat="42.8195463161378" lon="13.223930829408507"><ele>1305.0</ele><time>2026-04-19T13:19:13.001Z</time></trkpt><trkpt lat="42.8195617170278" lon="13.223788563063959"><ele>1305.0</ele><time>2026-04-19T13:19:14.001Z</time></trkpt><trkpt lat="42.81958387411598" lon="13.22364705851434"><ele>1305.0</ele><time>2026-04-19T13:19:15.001Z</time></trkpt><trkpt lat="42.81960016791724" lon="13.223503580810991"><ele>1304.6</ele><time>2026-04-19T13:19:16.001Z</time></trkpt><trkpt lat="42.81961793122204" lon="13.223361960090019"><ele>1304.2</ele><time>2026-04-19T13:19:17.001Z</time></trkpt><trkpt lat="42.8196356576583" lon="13.223217415213774"><ele>1303.8000000000002</ele><time>2026-04-19T13:19:18.002Z</time></trkpt><trkpt lat="42.81965608744736" lon="13.22307383778496"><ele>1303.4</ele><time>2026-04-19T13:19:19.002Z</time></trkpt><trkpt lat="42.81967714969329" lon="13.222932192315602"><ele>1303.0</ele><time>2026-04-19T13:19:20.002Z</time></trkpt><trkpt lat="42.81969244363332" lon="13.22278568512562"><ele>1302.8000000000002</ele><time>2026-04-19T13:19:21.002Z</time></trkpt><trkpt lat="42.81970461771693" lon="13.22264350571012"><ele>1302.6</ele><time>2026-04-19T13:19:22.002Z</time></trkpt><trkpt lat="42.81971793415634" lon="13.222501598165229"><ele>1302.4</ele><time>2026-04-19T13:19:23.002Z</time></trkpt><trkpt lat="42.819734784437074" lon="13.222363030684566"><ele>1302.1999999999998</ele><time>2026-04-19T13:19:24.002Z</time></trkpt><trkpt lat="42.81974947868488" lon="13.22221986735841"><ele>1302.0</ele><time>2026-04-19T13:19:25.002Z</time></trkpt><trkpt lat="42.819783092009615" lon="13.222084527277316"><ele>1301.8</ele><time>2026-04-19T13:19:26.002Z</time></trkpt><trkpt lat="42.81980088075944" lon="13.221944506748832"><ele>1301.6</ele><time>2026-04-19T13:19:27.002Z</time></trkpt><trkpt lat="42.819808913750514" lon="13.22179905178273"><ele>1301.3999999999999</ele><time>2026-04-19T13:19:28.002Z</time></trkpt><trkpt lat="42.81982644065532" lon="13.22165813324993"><ele>1301.1999999999998</ele><time>2026-04-19T13:19:29.002Z</time></trkpt><trkpt lat="42.819841192208806" lon="13.22151459403769"><ele>1301.0</ele><time>2026-04-19T13:19:30.002Z</time></trkpt><trkpt lat="42.81985758253846" lon="13.221369812255574"><ele>1301.0</ele><time>2026-04-19T13:19:31.002Z</time></trkpt><trkpt lat="42.81987806710343" lon="13.221231032034359"><ele>1301.0</ele><time>2026-04-19T13:19:32.002Z</time></trkpt><trkpt lat="42.819898079808986" lon="13.2210889919697"><ele>1301.0</ele><time>2026-04-19T13:19:33.002Z</time></trkpt><trkpt lat="42.81991746520602" lon="13.220948572380685"><ele>1301.0</ele><time>2026-04-19T13:19:34.002Z</time></trkpt><trkpt lat="42.81993129720923" lon="13.22080623680662"><ele>1301.0</ele><time>2026-04-19T13:19:35.002Z</time></trkpt><trkpt lat="42.81996353878382" lon="13.22066851070508"><ele>1301.0</ele><time>2026-04-19T13:19:36.001Z</time></trkpt><trkpt lat="42.81998087912107" lon="13.220526866231364"><ele>1301.0</ele><time>2026-04-19T13:19:37.001Z</time></trkpt><trkpt lat="42.81998405504392" lon="13.220379568657686"><ele>1301.0</ele><time>2026-04-19T13:19:38.001Z</time></trkpt><trkpt lat="42.82001615402116" lon="13.220238723245155"><ele>1301.0</ele><time>2026-04-19T13:19:39.001Z</time></trkpt><trkpt lat="42.82003372067277" lon="13.220095230084548"><ele>1301.0</ele><time>2026-04-19T13:19:40.001Z</time></trkpt><trkpt lat="42.82005101922768" lon="13.219953926633126"><ele>1300.8</ele><time>2026-04-19T13:19:41.001Z</time></trkpt><trkpt lat="42.82005414771975" lon="13.219812657734087"><ele>1300.6</ele><time>2026-04-19T13:19:42.001Z</time></trkpt><trkpt lat="42.820072286345244" lon="13.219670316679808"><ele>1300.4</ele><time>2026-04-19T13:19:43.001Z</time></trkpt><trkpt lat="42.820104580775514" lon="13.219530658566788"><ele>1300.2</ele><time>2026-04-19T13:19:44.001Z</time></trkpt><trkpt lat="42.8201229063103" lon="13.219386298858673"><ele>1300.0</ele><time>2026-04-19T13:19:45.001Z</time></trkpt><trkpt lat="42.820140955298086" lon="13.21924411788935"><ele>1300.4</ele><time>2026-04-19T13:19:46.001Z</time></trkpt><trkpt lat="42.820159214081585" lon="13.219100284374758"><ele>1300.8</ele><time>2026-04-19T13:19:47.001Z</time></trkpt><trkpt lat="42.82017699768157" lon="13.218958399125546"><ele>1301.1999999999998</ele><time>2026-04-19T13:19:48.001Z</time></trkpt><trkpt lat="42.820194554275645" lon="13.218815080462951"><ele>1301.6</ele><time>2026-04-19T13:19:49.001Z</time></trkpt><trkpt lat="42.820211683354856" lon="13.218675251593607"><ele>1302.0</ele><time>2026-04-19T13:19:50.001Z</time></trkpt><trkpt lat="42.820213015722295" lon="13.218529901666074"><ele>1302.1999999999998</ele><time>2026-04-19T13:19:51.001Z</time></trkpt><trkpt lat="42.82024667819301" lon="13.218389580254229"><ele>1302.4</ele><time>2026-04-19T13:19:52.001Z</time></trkpt><trkpt lat="42.82026405197867" lon="13.218247854334463"><ele>1302.6</ele><time>2026-04-19T13:19:53.001Z</time></trkpt><trkpt lat="42.8202816554635" lon="13.218106285656308"><ele>1302.8000000000002</ele><time>2026-04-19T13:19:54.001Z</time></trkpt><trkpt lat="42.82029942500386" lon="13.217963381289703"><ele>1303.0</ele><time>2026-04-19T13:19:55.001Z</time></trkpt><trkpt lat="42.82031716667283" lon="13.217820701335695"><ele>1303.0</ele><time>2026-04-19T13:19:56.001Z</time></trkpt><trkpt lat="42.82033490500347" lon="13.217678047757776"><ele>1303.0</ele><time>2026-04-19T13:19:57.001Z</time></trkpt><trkpt lat="42.820352591455155" lon="13.217535811666984"><ele>1303.0</ele><time>2026-04-19T13:19:58.001Z</time></trkpt><trkpt lat="42.820370634335106" lon="13.217390328887127"><ele>1303.0</ele><time>2026-04-19T13:19:59.001Z</time></trkpt><trkpt lat="42.820374022135304" lon="13.217239922718946"><ele>1303.0</ele><time>2026-04-19T13:20:00.001Z</time></trkpt><trkpt lat="42.82039089436345" lon="13.217102958520847"><ele>1303.2</ele><time>2026-04-19T13:20:01.001Z</time></trkpt><trkpt lat="42.82041165858745" lon="13.216962777052554"><ele>1303.4</ele><time>2026-04-19T13:20:02.001Z</time></trkpt><trkpt lat="42.82043024507329" lon="13.216816372090195"><ele>1303.6000000000001</ele><time>2026-04-19T13:20:03.001Z</time></trkpt><trkpt lat="42.820443741549205" lon="13.21667426154052"><ele>1303.8000000000002</ele><time>2026-04-19T13:20:04.001Z</time></trkpt><trkpt lat="42.82047702973008" lon="13.216529434906047"><ele>1304.0</ele><time>2026-04-19T13:20:05.001Z</time></trkpt><trkpt lat="42.82048275979394" lon="13.216385770886038"><ele>1304.2</ele><time>2026-04-19T13:20:06.001Z</time></trkpt><trkpt lat="42.82049871787591" lon="13.216243989558995"><ele>1304.4</ele><time>2026-04-19T13:20:07.001Z</time></trkpt><trkpt lat="42.820514249382086" lon="13.216103012021067"><ele>1304.6</ele><time>2026-04-19T13:20:08.001Z</time></trkpt><trkpt lat="42.82053786573712" lon="13.21596726566833"><ele>1304.8</ele><time>2026-04-19T13:20:09.001Z</time></trkpt><trkpt lat="42.82054886334492" lon="13.215813740241357"><ele>1305.0</ele><time>2026-04-19T13:20:10.001Z</time></trkpt><trkpt lat="42.8205684179671" lon="13.215671854187883"><ele>1304.5</ele><time>2026-04-19T13:20:11.001Z</time></trkpt><trkpt lat="42.820603881911886" lon="13.215382981221277"><ele>1304.0</ele><time>2026-04-19T13:20:13.001Z</time></trkpt><trkpt lat="42.820635664722396" lon="13.215238531272652"><ele>1303.5</ele><time>2026-04-19T13:20:14.001Z</time></trkpt><trkpt lat="42.82065366447659" lon="13.215095991462832"><ele>1303.0</ele><time>2026-04-19T13:20:15.001Z</time></trkpt><trkpt lat="42.8206715634614" lon="13.21495424943707"><ele>1302.8000000000002</ele><time>2026-04-19T13:20:16.001Z</time></trkpt><trkpt lat="42.82068937195166" lon="13.214813224454797"><ele>1302.6</ele><time>2026-04-19T13:20:17.001Z</time></trkpt><trkpt lat="42.820707510447185" lon="13.214669585872711"><ele>1302.4</ele><time>2026-04-19T13:20:18.001Z</time></trkpt><trkpt lat="42.820725214531556" lon="13.214529387140255"><ele>1302.1999999999998</ele><time>2026-04-19T13:20:19.001Z</time></trkpt><trkpt lat="42.82074265610342" lon="13.21438693807167"><ele>1302.0</ele><time>2026-04-19T13:20:20.001Z</time></trkpt><trkpt lat="42.82075854452752" lon="13.21425499519774"><ele>1302.0</ele><time>2026-04-19T13:20:21.001Z</time></trkpt><trkpt lat="42.82077217698884" lon="13.214141786349641"><ele>1302.0</ele><time>2026-04-19T13:20:22.001Z</time></trkpt><trkpt lat="42.82078487516585" lon="13.21403593622217"><ele>1302.0</ele><time>2026-04-19T13:20:23.001Z</time></trkpt><trkpt lat="42.82079603319482" lon="13.213942408116809"><ele>1302.0</ele><time>2026-04-19T13:20:24.001Z</time></trkpt><trkpt lat="42.82079761637204" lon="13.213835005090159"><ele>1302.0</ele><time>2026-04-19T13:20:25.001Z</time></trkpt><trkpt lat="42.82081870478485" lon="13.2137282594889"><ele>1302.0</ele><time>2026-04-19T13:20:26.001Z</time></trkpt><trkpt lat="42.82084063563592" lon="13.213630572908478"><ele>1301.8333333333333</ele><time>2026-04-19T13:20:27.001Z</time></trkpt><trkpt lat="42.82085767983367" lon="13.213547337506114"><ele>1301.6666666666667</ele><time>2026-04-19T13:20:28.001Z</time></trkpt><trkpt lat="42.820882595653266" lon="13.213419566346106"><ele>1301.5</ele><time>2026-04-19T13:20:30.001Z</time></trkpt><trkpt lat="42.82086100968083" lon="13.213322906244292"><ele>1301.3333333333335</ele><time>2026-04-19T13:20:33.001Z</time></trkpt><trkpt lat="42.820773523344926" lon="13.213266469080487"><ele>1301.1666666666667</ele><time>2026-04-19T13:20:35.001Z</time></trkpt><trkpt lat="42.82068837806011" lon="13.21324957656816"><ele>1301.0</ele><time>2026-04-19T13:20:36.001Z</time></trkpt><trkpt lat="42.82059633498045" lon="13.21322572483794"><ele>1301.0</ele><time>2026-04-19T13:20:37.001Z</time></trkpt><trkpt lat="42.8204791752299" lon="13.213187993660819"><ele>1301.0</ele><time>2026-04-19T13:20:38.001Z</time></trkpt><trkpt lat="42.820350308427855" lon="13.21314097223079"><ele>1301.0</ele><time>2026-04-19T13:20:39.001Z</time></trkpt><trkpt lat="42.82020785086024" lon="13.213037294877639"><ele>1301.0</ele><time>2026-04-19T13:20:40.001Z</time></trkpt><trkpt lat="42.82002205156324" lon="13.212925844341862"><ele>1300.5</ele><time>2026-04-19T13:20:41.001Z</time></trkpt><trkpt lat="42.81980433725988" lon="13.212793835680023"><ele>1300.0</ele><time>2026-04-19T13:20:42.001Z</time></trkpt><trkpt lat="42.819575349350494" lon="13.212676410646562"><ele>1300.0</ele><time>2026-04-19T13:20:43.001Z</time></trkpt><trkpt lat="42.819333537361175" lon="13.21250771349262"><ele>1300.0</ele><time>2026-04-19T13:20:44.001Z</time></trkpt><trkpt lat="42.81910253392647" lon="13.212311590565854"><ele>1300.0</ele><time>2026-04-19T13:20:45.001Z</time></trkpt><trkpt lat="42.81885622518365" lon="13.212115251300322"><ele>1300.0</ele><time>2026-04-19T13:20:46.001Z</time></trkpt><trkpt lat="42.81860973022943" lon="13.211916618795904"><ele>1298.5</ele><time>2026-04-19T13:20:47.001Z</time></trkpt><trkpt lat="42.81838293496234" lon="13.211730970889697"><ele>1297.0</ele><time>2026-04-19T13:20:48.001Z</time></trkpt><trkpt lat="42.81816939522375" lon="13.211557459417664"><ele>1297.0</ele><time>2026-04-19T13:20:49.001Z</time></trkpt><trkpt lat="42.81796882795125" lon="13.211395443586907"><ele>1297.0</ele><time>2026-04-19T13:20:50.001Z</time></trkpt><trkpt lat="42.81777760016993" lon="13.211240009235524"><ele>1297.0</ele><time>2026-04-19T13:20:51.001Z</time></trkpt><trkpt lat="42.81759507468757" lon="13.211090033733296"><ele>1297.0</ele><time>2026-04-19T13:20:52.001Z</time></trkpt><trkpt lat="42.81742160153716" lon="13.210948021989633"><ele>1297.0</ele><time>2026-04-19T13:20:53.001Z</time></trkpt><trkpt lat="42.81724983713149" lon="13.210796470832195"><ele>1297.0</ele><time>2026-04-19T13:20:54.001Z</time></trkpt><trkpt lat="42.8170831258354" lon="13.210613603120498"><ele>1297.0</ele><time>2026-04-19T13:20:55.001Z</time></trkpt><trkpt lat="42.816928710086636" lon="13.210421430641368"><ele>1297.0</ele><time>2026-04-19T13:20:56.001Z</time></trkpt><trkpt lat="42.81678311588529" lon="13.210240236702662"><ele>1297.0</ele><time>2026-04-19T13:20:57.001Z</time></trkpt><trkpt lat="42.81663760677924" lon="13.210084237872458"><ele>1297.0</ele><time>2026-04-19T13:20:58.001Z</time></trkpt><trkpt lat="42.81651104690879" lon="13.209921012804289"><ele>1297.0</ele><time>2026-04-19T13:20:59.001Z</time></trkpt><trkpt lat="42.816391939731034" lon="13.209772148016544"><ele>1297.0</ele><time>2026-04-19T13:21:00.001Z</time></trkpt><trkpt lat="42.81628170808064" lon="13.209602935666055"><ele>1297.0</ele><time>2026-04-19T13:21:01.001Z</time></trkpt><trkpt lat="42.81615085553548" lon="13.209460559468159"><ele>1297.0</ele><time>2026-04-19T13:21:02.001Z</time></trkpt><trkpt lat="42.81602035009416" lon="13.209283245326576"><ele>1297.0</ele><time>2026-04-19T13:21:03.001Z</time></trkpt><trkpt lat="42.815874638054346" lon="13.209095094765301"><ele>1297.0</ele><time>2026-04-19T13:21:04.001Z</time></trkpt><trkpt lat="42.815718913929636" lon="13.208903094934627"><ele>1297.0</ele><time>2026-04-19T13:21:05.001Z</time></trkpt><trkpt lat="42.81556172472419" lon="13.208706933903366"><ele>1295.0</ele><time>2026-04-19T13:21:06.001Z</time></trkpt><trkpt lat="42.815397169418034" lon="13.208502669498111"><ele>1293.0</ele><time>2026-04-19T13:21:07.001Z</time></trkpt><trkpt lat="42.81522532219366" lon="13.20829358632563"><ele>1292.5</ele><time>2026-04-19T13:21:08.001Z</time></trkpt><trkpt lat="42.815049355066115" lon="13.208071306918818"><ele>1292.0</ele><time>2026-04-19T13:21:09.001Z</time></trkpt><trkpt lat="42.814881268933796" lon="13.207860584272371"><ele>1292.0</ele><time>2026-04-19T13:21:10.001Z</time></trkpt><trkpt lat="42.81471369625671" lon="13.207650500960375"><ele>1292.0</ele><time>2026-04-19T13:21:11.001Z</time></trkpt><trkpt lat="42.81453922620564" lon="13.20743107193422"><ele>1292.0</ele><time>2026-04-19T13:21:12.001Z</time></trkpt><trkpt lat="42.81435594884923" lon="13.207200858838842"><ele>1292.0</ele><time>2026-04-19T13:21:13.001Z</time></trkpt><trkpt lat="42.81417124994105" lon="13.206967509724324"><ele>1292.0</ele><time>2026-04-19T13:21:14.001Z</time></trkpt><trkpt lat="42.81398645047713" lon="13.206733876201062"><ele>1292.0</ele><time>2026-04-19T13:21:15.001Z</time></trkpt><trkpt lat="42.81381046584728" lon="13.206510619030803"><ele>1291.5</ele><time>2026-04-19T13:21:16.001Z</time></trkpt><trkpt lat="42.81364129602843" lon="13.206300790326862"><ele>1291.0</ele><time>2026-04-19T13:21:17.001Z</time></trkpt><trkpt lat="42.81347424093318" lon="13.206092619994203"><ele>1290.6666666666665</ele><time>2026-04-19T13:21:18.001Z</time></trkpt><trkpt lat="42.81331302752404" lon="13.205890501122152"><ele>1290.3333333333333</ele><time>2026-04-19T13:21:19.001Z</time></trkpt><trkpt lat="42.81315494752183" lon="13.205690249673866"><ele>1290.0</ele><time>2026-04-19T13:21:20.001Z</time></trkpt><trkpt lat="42.813004024925874" lon="13.205495324306394"><ele>1290.3333333333333</ele><time>2026-04-19T13:21:21.001Z</time></trkpt><trkpt lat="42.81284494202287" lon="13.205296602599164"><ele>1290.6666666666665</ele><time>2026-04-19T13:21:22.001Z</time></trkpt><trkpt lat="42.812690814347" lon="13.205100830984613"><ele>1291.0</ele><time>2026-04-19T13:21:23.001Z</time></trkpt><trkpt lat="42.812534771292945" lon="13.204905284336833"><ele>1290.3333333333333</ele><time>2026-04-19T13:21:24.002Z</time></trkpt><trkpt lat="42.81238208192952" lon="13.20471166883558"><ele>1289.6666666666667</ele><time>2026-04-19T13:21:25.002Z</time></trkpt><trkpt lat="42.81222974101545" lon="13.204518914251306"><ele>1289.0</ele><time>2026-04-19T13:21:26.002Z</time></trkpt><trkpt lat="42.81208086168528" lon="13.204333697637855"><ele>1289.0</ele><time>2026-04-19T13:21:27.002Z</time></trkpt><trkpt lat="42.811925852560414" lon="13.204135927302143"><ele>1289.0</ele><time>2026-04-19T13:21:28.002Z</time></trkpt><trkpt lat="42.81175640649677" lon="13.203923164088424"><ele>1289.0</ele><time>2026-04-19T13:21:29.002Z</time></trkpt><trkpt lat="42.81157215587823" lon="13.203691360569746"><ele>1286.5</ele><time>2026-04-19T13:21:30.002Z</time></trkpt><trkpt lat="42.81137581010145" lon="13.203443577185817"><ele>1284.0</ele><time>2026-04-19T13:21:31.002Z</time></trkpt><trkpt lat="42.81116765054932" lon="13.203180939309657"><ele>1285.5</ele><time>2026-04-19T13:21:32.002Z</time></trkpt><trkpt lat="42.81095184876509" lon="13.20290776655815"><ele>1287.0</ele><time>2026-04-19T13:21:33.001Z</time></trkpt><trkpt lat="42.81072839523601" lon="13.202622649746814"><ele>1287.0</ele><time>2026-04-19T13:21:34.001Z</time></trkpt><trkpt lat="42.81050443984341" lon="13.202337172604718"><ele>1287.0</ele><time>2026-04-19T13:21:35.001Z</time></trkpt><trkpt lat="42.810287581207355" lon="13.202069542613254"><ele>1286.0</ele><time>2026-04-19T13:21:36.001Z</time></trkpt><trkpt lat="42.810083303286966" lon="13.2018167195401"><ele>1285.0</ele><time>2026-04-19T13:21:37.001Z</time></trkpt><trkpt lat="42.80988750321583" lon="13.201574717766485"><ele>1284.5</ele><time>2026-04-19T13:21:38.001Z</time></trkpt><trkpt lat="42.80970424427225" lon="13.201346628585751"><ele>1284.0</ele><time>2026-04-19T13:21:39.001Z</time></trkpt><trkpt lat="42.80952947448959" lon="13.201128989120718"><ele>1284.0</ele><time>2026-04-19T13:21:40.001Z</time></trkpt><trkpt lat="42.80936389840011" lon="13.200920091332518"><ele>1284.0</ele><time>2026-04-19T13:21:41.001Z</time></trkpt><trkpt lat="42.8092048628715" lon="13.20071946251373"><ele>1284.0</ele><time>2026-04-19T13:21:42.001Z</time></trkpt><trkpt lat="42.80904861288258" lon="13.200520604020122"><ele>1283.3333333333333</ele><time>2026-04-19T13:21:43.001Z</time></trkpt><trkpt lat="42.80889217909756" lon="13.200327284038416"><ele>1282.6666666666665</ele><time>2026-04-19T13:21:44.001Z</time></trkpt><trkpt lat="42.80873873954831" lon="13.200134207040701"><ele>1282.0</ele><time>2026-04-19T13:21:45.001Z</time></trkpt><trkpt lat="42.80858509456839" lon="13.199933878564408"><ele>1282.0</ele><time>2026-04-19T13:21:46.001Z</time></trkpt><trkpt lat="42.80843125001714" lon="13.19974125208214"><ele>1282.0</ele><time>2026-04-19T13:21:47.001Z</time></trkpt><trkpt lat="42.80828081031663" lon="13.199548404143949"><ele>1282.0</ele><time>2026-04-19T13:21:48.001Z</time></trkpt><trkpt lat="42.808131475055355" lon="13.19936271872733"><ele>1282.0</ele><time>2026-04-19T13:21:49.001Z</time></trkpt><trkpt lat="42.80798911647833" lon="13.199185453081872"><ele>1282.0</ele><time>2026-04-19T13:21:50.001Z</time></trkpt><trkpt lat="42.807846114512465" lon="13.199003918348774"><ele>1282.0</ele><time>2026-04-19T13:21:51.001Z</time></trkpt><trkpt lat="42.807706007271875" lon="13.198832307091905"><ele>1281.6666666666665</ele><time>2026-04-19T13:21:52.001Z</time></trkpt><trkpt lat="42.80756854992451" lon="13.198654826382676"><ele>1281.3333333333333</ele><time>2026-04-19T13:21:53.001Z</time></trkpt><trkpt lat="42.80741487629162" lon="13.19846767689831"><ele>1281.0</ele><time>2026-04-19T13:21:54.001Z</time></trkpt><trkpt lat="42.80726290839391" lon="13.198278201415492"><ele>1280.6666666666667</ele><time>2026-04-19T13:21:55.001Z</time></trkpt><trkpt lat="42.807111897360265" lon="13.19808702689263"><ele>1280.3333333333335</ele><time>2026-04-19T13:21:56.001Z</time></trkpt><trkpt lat="42.806964382760164" lon="13.197900677062183"><ele>1280.0</ele><time>2026-04-19T13:21:57.001Z</time></trkpt><trkpt lat="42.80681582379105" lon="13.197714848746816"><ele>1280.0</ele><time>2026-04-19T13:21:58.001Z</time></trkpt><trkpt lat="42.80666637489315" lon="13.19753220405821"><ele>1280.0</ele><time>2026-04-19T13:21:59.001Z</time></trkpt><trkpt lat="42.80651561408394" lon="13.19734591260004"><ele>1280.0</ele><time>2026-04-19T13:22:00.001Z</time></trkpt><trkpt lat="42.80636832082339" lon="13.197162218497851"><ele>1280.0</ele><time>2026-04-19T13:22:01.001Z</time></trkpt><trkpt lat="42.806220385331635" lon="13.196974780145586"><ele>1280.0</ele><time>2026-04-19T13:22:02.001Z</time></trkpt><trkpt lat="42.80607394492069" lon="13.196786088122137"><ele>1280.0</ele><time>2026-04-19T13:22:03.001Z</time></trkpt><trkpt lat="42.805924981223995" lon="13.19659730560473"><ele>1280.6666666666667</ele><time>2026-04-19T13:22:04.001Z</time></trkpt><trkpt lat="42.80577828279611" lon="13.196413086166654"><ele>1281.3333333333333</ele><time>2026-04-19T13:22:05.001Z</time></trkpt><trkpt lat="42.80564160969147" lon="13.196241821896512"><ele>1282.0</ele><time>2026-04-19T13:22:06.001Z</time></trkpt><trkpt lat="42.805516636527514" lon="13.19608471402046"><ele>1282.0</ele><time>2026-04-19T13:22:07.001Z</time></trkpt><trkpt lat="42.80539994812459" lon="13.195932641700347"><ele>1282.0</ele><time>2026-04-19T13:22:08.001Z</time></trkpt><trkpt lat="42.805301836058014" lon="13.195807703730267"><ele>1282.0</ele><time>2026-04-19T13:22:09.001Z</time></trkpt><trkpt lat="42.805216133203885" lon="13.195701673865141"><ele>1282.0</ele><time>2026-04-19T13:22:10.001Z</time></trkpt><trkpt lat="42.80514548031375" lon="13.195612935698051"><ele>1281.6666666666665</ele><time>2026-04-19T13:22:11.001Z</time></trkpt><trkpt lat="42.80509718484423" lon="13.195547478170122"><ele>1281.3333333333333</ele><time>2026-04-19T13:22:12.001Z</time></trkpt><trkpt lat="42.80503375201524" lon="13.195469034412106"><ele>1281.0</ele><time>2026-04-19T13:22:14.001Z</time></trkpt><trkpt lat="42.804991692020245" lon="13.195394561087728"><ele>1280.6666666666667</ele><time>2026-04-19T13:22:16.001Z</time></trkpt><trkpt lat="42.80490244260631" lon="13.195300160676082"><ele>1280.3333333333335</ele><time>2026-04-19T13:23:16Z</time></trkpt><trkpt lat="42.8048282837814" lon="13.195191749051855"><ele>1280.0</ele><time>2026-04-19T13:23:17Z</time></trkpt><trkpt lat="42.80473540333993" lon="13.195075664180017"><ele>1280.0</ele><time>2026-04-19T13:23:18Z</time></trkpt><trkpt lat="42.80460386004705" lon="13.194939607632543"><ele>1280.0</ele><time>2026-04-19T13:23:19Z</time></trkpt><trkpt lat="42.80447485214729" lon="13.194765816582924"><ele>1280.0</ele><time>2026-04-19T13:23:20Z</time></trkpt><trkpt lat="42.80433039973862" lon="13.194583782931273"><ele>1278.5</ele><time>2026-04-19T13:23:21Z</time></trkpt><trkpt lat="42.80415848469648" lon="13.19437298540653"><ele>1277.0</ele><time>2026-04-19T13:23:22Z</time></trkpt><trkpt lat="42.80397203555887" lon="13.194136364147623"><ele>1277.0</ele><time>2026-04-19T13:23:23Z</time></trkpt><trkpt lat="42.80377918359721" lon="13.19389417132064"><ele>1277.0</ele><time>2026-04-19T13:23:24Z</time></trkpt><trkpt lat="42.80357656066385" lon="13.193642720356426"><ele>1277.0</ele><time>2026-04-19T13:23:25Z</time></trkpt><trkpt lat="42.803358583188334" lon="13.19337063680789"><ele>1277.0</ele><time>2026-04-19T13:23:26Z</time></trkpt><trkpt lat="42.803146023168566" lon="13.193103236171845"><ele>1276.5</ele><time>2026-04-19T13:23:27Z</time></trkpt><trkpt lat="42.80294486166858" lon="13.192826308905913"><ele>1276.0</ele><time>2026-04-19T13:23:28Z</time></trkpt><trkpt lat="42.80275489867221" lon="13.192607807866302"><ele>1275.5</ele><time>2026-04-19T13:23:29Z</time></trkpt><trkpt lat="42.80256494789006" lon="13.192366262465187"><ele>1275.0</ele><time>2026-04-19T13:23:30.001Z</time></trkpt><trkpt lat="42.80237680196583" lon="13.192130468441045"><ele>1274.5</ele><time>2026-04-19T13:23:31.001Z</time></trkpt><trkpt lat="42.80217844484865" lon="13.191886678856495"><ele>1274.0</ele><time>2026-04-19T13:23:32.001Z</time></trkpt><trkpt lat="42.80197511231185" lon="13.191634835380084"><ele>1274.0</ele><time>2026-04-19T13:23:33.001Z</time></trkpt><trkpt lat="42.80177817034704" lon="13.191384929310372"><ele>1274.0</ele><time>2026-04-19T13:23:34.001Z</time></trkpt><trkpt lat="42.80158729894588" lon="13.191149011180523"><ele>1274.0</ele><time>2026-04-19T13:23:35.001Z</time></trkpt><trkpt lat="42.8014011604359" lon="13.19091810252095"><ele>1274.0</ele><time>2026-04-19T13:23:36.001Z</time></trkpt><trkpt lat="42.80121610724863" lon="13.190680614072644"><ele>1274.0</ele><time>2026-04-19T13:23:37.001Z</time></trkpt><trkpt lat="42.801037696839686" lon="13.190448980359909"><ele>1274.0</ele><time>2026-04-19T13:23:38.001Z</time></trkpt><trkpt lat="42.80086273598287" lon="13.19022801042483"><ele>1274.0</ele><time>2026-04-19T13:23:39.001Z</time></trkpt><trkpt lat="42.80069316992832" lon="13.190013104592651"><ele>1274.0</ele><time>2026-04-19T13:23:40.001Z</time></trkpt><trkpt lat="42.800530442628265" lon="13.18980789918379"><ele>1273.3333333333335</ele><time>2026-04-19T13:23:41.001Z</time></trkpt><trkpt lat="42.80036896302751" lon="13.18960748163855"><ele>1272.6666666666667</ele><time>2026-04-19T13:23:42.001Z</time></trkpt><trkpt lat="42.80022708277302" lon="13.189407713223648"><ele>1272.0</ele><time>2026-04-19T13:23:43.001Z</time></trkpt><trkpt lat="42.80008903303037" lon="13.189233801913836"><ele>1272.0</ele><time>2026-04-19T13:23:44.001Z</time></trkpt><trkpt lat="42.79996207154027" lon="13.18907385911472"><ele>1272.0</ele><time>2026-04-19T13:23:45.001Z</time></trkpt><trkpt lat="42.79983704637387" lon="13.188941465938118"><ele>1272.0</ele><time>2026-04-19T13:23:46.001Z</time></trkpt><trkpt lat="42.799733720772664" lon="13.188808961011947"><ele>1272.5</ele><time>2026-04-19T13:23:47.001Z</time></trkpt><trkpt lat="42.799632348657376" lon="13.188681283449245"><ele>1273.0</ele><time>2026-04-19T13:23:48.001Z</time></trkpt><trkpt lat="42.7995304953656" lon="13.18855330553619"><ele>1273.5</ele><time>2026-04-19T13:23:49.001Z</time></trkpt><trkpt lat="42.7994285951906" lon="13.188427100883153"><ele>1274.0</ele><time>2026-04-19T13:23:50.001Z</time></trkpt><trkpt lat="42.79933291732978" lon="13.18830897035703"><ele>1274.2</ele><time>2026-04-19T13:23:51.001Z</time></trkpt><trkpt lat="42.79924754421272" lon="13.188197865057326"><ele>1274.4</ele><time>2026-04-19T13:23:52.001Z</time></trkpt><trkpt lat="42.799168562722244" lon="13.188098806224188"><ele>1274.6</ele><time>2026-04-19T13:23:53.001Z</time></trkpt><trkpt lat="42.79909604892192" lon="13.188000837343917"><ele>1274.8</ele><time>2026-04-19T13:23:54.001Z</time></trkpt><trkpt lat="42.79902642224334" lon="13.187910215426756"><ele>1275.0</ele><time>2026-04-19T13:23:55.001Z</time></trkpt><trkpt lat="42.79896161494008" lon="13.187832674429904"><ele>1275.2</ele><time>2026-04-19T13:23:56.001Z</time></trkpt><trkpt lat="42.798890754389085" lon="13.18775066793163"><ele>1275.4</ele><time>2026-04-19T13:23:57Z</time></trkpt><trkpt lat="42.79881758309911" lon="13.187662073229022"><ele>1275.6</ele><time>2026-04-19T13:23:58Z</time></trkpt><trkpt lat="42.798740945602276" lon="13.18756611272363"><ele>1275.8</ele><time>2026-04-19T13:23:59Z</time></trkpt><trkpt lat="42.798660712989786" lon="13.187463771579317"><ele>1276.0</ele><time>2026-04-19T13:24:00Z</time></trkpt><trkpt lat="42.79857837274018" lon="13.18735925972311"><ele>1275.75</ele><time>2026-04-19T13:24:01Z</time></trkpt><trkpt lat="42.79849187510203" lon="13.187249570649179"><ele>1275.5</ele><time>2026-04-19T13:24:02Z</time></trkpt><trkpt lat="42.79840467491097" lon="13.187135824388559"><ele>1275.25</ele><time>2026-04-19T13:24:03Z</time></trkpt><trkpt lat="42.798312980380686" lon="13.187013291833308"><ele>1275.0</ele><time>2026-04-19T13:24:04Z</time></trkpt><trkpt lat="42.79821903851821" lon="13.186892316935005"><ele>1275.0</ele><time>2026-04-19T13:24:05Z</time></trkpt><trkpt lat="42.798127182620455" lon="13.186776078103554"><ele>1275.0</ele><time>2026-04-19T13:24:06Z</time></trkpt><trkpt lat="42.79804201531236" lon="13.186673288192372"><ele>1275.0</ele><time>2026-04-19T13:24:07Z</time></trkpt><trkpt lat="42.79796156809376" lon="13.186575599479257"><ele>1275.0</ele><time>2026-04-19T13:24:08Z</time></trkpt><trkpt lat="42.79788483131727" lon="13.18647899971621"><ele>1275.4</ele><time>2026-04-19T13:24:09Z</time></trkpt><trkpt lat="42.79780995242483" lon="13.186383019623653"><ele>1275.8</ele><time>2026-04-19T13:24:10Z</time></trkpt><trkpt lat="42.79773184652809" lon="13.186284829290559"><ele>1276.2</ele><time>2026-04-19T13:24:11Z</time></trkpt><trkpt lat="42.797651670031144" lon="13.18618545919739"><ele>1276.6</ele><time>2026-04-19T13:24:12Z</time></trkpt><trkpt lat="42.797566400137804" lon="13.186082471735915"><ele>1277.0</ele><time>2026-04-19T13:24:13Z</time></trkpt><trkpt lat="42.79747293991901" lon="13.18597049200931"><ele>1277.0</ele><time>2026-04-19T13:24:14Z</time></trkpt><trkpt lat="42.797372455234964" lon="13.185847254117048"><ele>1277.0</ele><time>2026-04-19T13:24:15Z</time></trkpt><trkpt lat="42.79726954881837" lon="13.185711550783397"><ele>1277.0</ele><time>2026-04-19T13:24:16Z</time></trkpt><trkpt lat="42.79716707876785" lon="13.18558064146553"><ele>1277.0</ele><time>2026-04-19T13:24:17Z</time></trkpt><trkpt lat="42.797065834612646" lon="13.185445649517783"><ele>1276.75</ele><time>2026-04-19T13:24:18Z</time></trkpt><trkpt lat="42.79695979070047" lon="13.185304198668263"><ele>1276.5</ele><time>2026-04-19T13:24:19Z</time></trkpt><trkpt lat="42.796851091966246" lon="13.185166942093378"><ele>1276.25</ele><time>2026-04-19T13:24:20Z</time></trkpt><trkpt lat="42.79674058247584" lon="13.185032922449507"><ele>1276.0</ele><time>2026-04-19T13:24:21Z</time></trkpt><trkpt lat="42.79663308467645" lon="13.184905328374553"><ele>1276.75</ele><time>2026-04-19T13:24:22Z</time></trkpt><trkpt lat="42.7965276666736" lon="13.184776159471758"><ele>1277.5</ele><time>2026-04-19T13:24:23Z</time></trkpt><trkpt lat="42.796425258195704" lon="13.184644064356482"><ele>1278.25</ele><time>2026-04-19T13:24:24Z</time></trkpt><trkpt lat="42.79631838529109" lon="13.184504195616524"><ele>1279.0</ele><time>2026-04-19T13:24:25Z</time></trkpt><trkpt lat="42.79621174431506" lon="13.184369938256584"><ele>1279.0</ele><time>2026-04-19T13:24:26Z</time></trkpt><trkpt lat="42.79609969397461" lon="13.184236141825117"><ele>1279.0</ele><time>2026-04-19T13:24:27Z</time></trkpt><trkpt lat="42.79599112383949" lon="13.184107690965373"><ele>1279.0</ele><time>2026-04-19T13:24:28Z</time></trkpt><trkpt lat="42.79587481127993" lon="13.183969287174468"><ele>1279.0</ele><time>2026-04-19T13:24:29Z</time></trkpt><trkpt lat="42.79575600847833" lon="13.183818329806515"><ele>1279.6666666666665</ele><time>2026-04-19T13:24:30Z</time></trkpt><trkpt lat="42.795642358809836" lon="13.183670937298762"><ele>1280.3333333333333</ele><time>2026-04-19T13:24:31Z</time></trkpt><trkpt lat="42.795528901167295" lon="13.183525727344636"><ele>1281.0</ele><time>2026-04-19T13:24:32Z</time></trkpt><trkpt lat="42.79542412754185" lon="13.183390082376073"><ele>1281.0</ele><time>2026-04-19T13:24:33Z</time></trkpt><trkpt lat="42.79532439849219" lon="13.183263832073782"><ele>1281.0</ele><time>2026-04-19T13:24:34Z</time></trkpt><trkpt lat="42.79522546189348" lon="13.183138919889155"><ele>1281.0</ele><time>2026-04-19T13:24:35Z</time></trkpt><trkpt lat="42.79512472623062" lon="13.183015881622774"><ele>1281.0</ele><time>2026-04-19T13:24:36Z</time></trkpt><trkpt lat="42.79502515075452" lon="13.182891659602504"><ele>1281.25</ele><time>2026-04-19T13:24:37Z</time></trkpt><trkpt lat="42.79492421799477" lon="13.18276168647457"><ele>1281.5</ele><time>2026-04-19T13:24:38Z</time></trkpt><trkpt lat="42.794821239724484" lon="13.182626503324903"><ele>1281.75</ele><time>2026-04-19T13:24:39Z</time></trkpt><trkpt lat="42.794716159812964" lon="13.182491307437282"><ele>1282.0</ele><time>2026-04-19T13:24:40Z</time></trkpt><trkpt lat="42.79460967662404" lon="13.182358017007212"><ele>1282.5</ele><time>2026-04-19T13:24:41Z</time></trkpt><trkpt lat="42.794510241336205" lon="13.182233438541406"><ele>1283.0</ele><time>2026-04-19T13:24:42Z</time></trkpt><trkpt lat="42.794419652162674" lon="13.182118823133743"><ele>1283.5</ele><time>2026-04-19T13:24:43Z</time></trkpt><trkpt lat="42.794339313856355" lon="13.182014298385813"><ele>1284.0</ele><time>2026-04-19T13:24:44Z</time></trkpt><trkpt lat="42.79426902092276" lon="13.181925606409166"><ele>1284.1666666666667</ele><time>2026-04-19T13:24:45Z</time></trkpt><trkpt lat="42.79421101693367" lon="13.18184624260003"><ele>1284.3333333333333</ele><time>2026-04-19T13:24:46Z</time></trkpt><trkpt lat="42.79416028344761" lon="13.181748027868537"><ele>1284.5</ele><time>2026-04-19T13:24:48Z</time></trkpt><trkpt lat="42.794095778816356" lon="13.181775999973159"><ele>1284.6666666666665</ele><time>2026-04-19T13:25:06Z</time></trkpt><trkpt lat="42.79406377158822" lon="13.18188388140376"><ele>1284.8333333333333</ele><time>2026-04-19T13:25:10Z</time></trkpt><trkpt lat="42.794018954554154" lon="13.181946646312076"><ele>1285.0</ele><time>2026-04-19T13:25:14Z</time></trkpt><trkpt lat="42.79405030159251" lon="13.182041699198773"><ele>1285.0000000000002</ele><time>2026-04-19T13:40:26Z</time></trkpt><trkpt lat="42.79411512122826" lon="13.182040101795348"><ele>1285.0</ele><time>2026-04-19T13:40:30Z</time></trkpt><trkpt lat="42.79414513041204" lon="13.181962071627611"><ele>1285.0</ele><time>2026-04-19T13:40:35Z</time></trkpt><trkpt lat="42.794090346381026" lon="13.181873070614381"><ele>1285.0</ele><time>2026-04-19T13:40:39Z</time></trkpt><trkpt lat="42.79413977836152" lon="13.181811691375309"><ele>1285.0</ele><time>2026-04-19T13:40:42Z</time></trkpt><trkpt lat="42.79421764555271" lon="13.181876217974338"><ele>1285.0000000000002</ele><time>2026-04-19T13:40:44Z</time></trkpt><trkpt lat="42.79426522079572" lon="13.181957225967114"><ele>1285.0</ele><time>2026-04-19T13:40:45Z</time></trkpt><trkpt lat="42.7943369268049" lon="13.182062645878316"><ele>1284.8333333333333</ele><time>2026-04-19T13:40:47Z</time></trkpt><trkpt lat="42.79440640405178" lon="13.182140769001762"><ele>1284.6666666666665</ele><time>2026-04-19T13:40:49Z</time></trkpt><trkpt lat="42.794466219564725" lon="13.182224398347183"><ele>1284.5</ele><time>2026-04-19T13:40:51Z</time></trkpt><trkpt lat="42.79452628113595" lon="13.182301379611022"><ele>1284.3333333333333</ele><time>2026-04-19T13:40:53Z</time></trkpt><trkpt lat="42.79458879100992" lon="13.182375567343676"><ele>1284.1666666666667</ele><time>2026-04-19T13:40:55Z</time></trkpt><trkpt lat="42.79465034539397" lon="13.182448981682848"><ele>1284.0</ele><time>2026-04-19T13:40:57Z</time></trkpt><trkpt lat="42.79471422888785" lon="13.18252319949784"><ele>1283.6</ele><time>2026-04-19T13:40:59Z</time></trkpt><trkpt lat="42.79476536247099" lon="13.182613128985226"><ele>1283.2</ele><time>2026-04-19T13:41:01Z</time></trkpt><trkpt lat="42.79482466340253" lon="13.182688864448966"><ele>1282.8</ele><time>2026-04-19T13:41:03Z</time></trkpt><trkpt lat="42.79489918277487" lon="13.182765754701041"><ele>1282.3999999999999</ele><time>2026-04-19T13:41:05Z</time></trkpt><trkpt lat="42.794981014167206" lon="13.18287859610838"><ele>1282.0</ele><time>2026-04-19T13:41:07Z</time></trkpt><trkpt lat="42.79505275772561" lon="13.182975721448244"><ele>1282.0</ele><time>2026-04-19T13:41:09Z</time></trkpt><trkpt lat="42.79510244761191" lon="13.183028946372792"><ele>1282.0</ele><time>2026-04-19T13:41:10Z</time></trkpt><trkpt lat="42.79515490385854" lon="13.18309069825008"><ele>1282.0</ele><time>2026-04-19T13:41:11Z</time></trkpt><trkpt lat="42.79520472323019" lon="13.18315771393542"><ele>1282.0</ele><time>2026-04-19T13:41:12Z</time></trkpt><trkpt lat="42.79529037919345" lon="13.183268987399822"><ele>1282.0</ele><time>2026-04-19T13:41:14Z</time></trkpt><trkpt lat="42.79538579921384" lon="13.183379857095572"><ele>1282.0</ele><time>2026-04-19T13:41:16Z</time></trkpt><trkpt lat="42.7954404716329" lon="13.183442678113195"><ele>1281.8333333333333</ele><time>2026-04-19T13:41:17Z</time></trkpt><trkpt lat="42.795491801979495" lon="13.183503797317734"><ele>1281.6666666666665</ele><time>2026-04-19T13:41:18Z</time></trkpt><trkpt lat="42.795545058629735" lon="13.1835639078028"><ele>1281.5</ele><time>2026-04-19T13:41:19Z</time></trkpt><trkpt lat="42.79558932585702" lon="13.183645332665723"><ele>1281.3333333333333</ele><time>2026-04-19T13:41:20Z</time></trkpt><trkpt lat="42.795647398981394" lon="13.183718491871703"><ele>1281.1666666666667</ele><time>2026-04-19T13:41:21Z</time></trkpt><trkpt lat="42.795709744393854" lon="13.183797033098061"><ele>1281.0</ele><time>2026-04-19T13:41:22Z</time></trkpt><trkpt lat="42.79577936385839" lon="13.183864826153432"><ele>1281.0</ele><time>2026-04-19T13:41:23Z</time></trkpt><trkpt lat="42.79584200628361" lon="13.183953169812925"><ele>1281.0</ele><time>2026-04-19T13:41:24Z</time></trkpt><trkpt lat="42.79591012759357" lon="13.184038320181552"><ele>1281.0</ele><time>2026-04-19T13:41:25Z</time></trkpt><trkpt lat="42.79597894882026" lon="13.18411833484415"><ele>1281.0</ele><time>2026-04-19T13:41:26Z</time></trkpt><trkpt lat="42.79604281626645" lon="13.18419500694416"><ele>1281.0</ele><time>2026-04-19T13:41:27Z</time></trkpt><trkpt lat="42.79610432112297" lon="13.184274327332057"><ele>1281.0</ele><time>2026-04-19T13:41:28Z</time></trkpt><trkpt lat="42.79616812877896" lon="13.184358815659502"><ele>1280.6</ele><time>2026-04-19T13:41:29Z</time></trkpt><trkpt lat="42.79623508007519" lon="13.184445166971399"><ele>1280.1999999999998</ele><time>2026-04-19T13:41:30Z</time></trkpt><trkpt lat="42.7963048597995" lon="13.18452910818592"><ele>1279.8000000000002</ele><time>2026-04-19T13:41:31Z</time></trkpt><trkpt lat="42.796370481854936" lon="13.184611777249106"><ele>1279.4</ele><time>2026-04-19T13:41:32Z</time></trkpt><trkpt lat="42.79643902313648" lon="13.184699533728057"><ele>1279.0</ele><time>2026-04-19T13:41:33Z</time></trkpt><trkpt lat="42.79651187458402" lon="13.184790237176847"><ele>1278.4</ele><time>2026-04-19T13:41:34Z</time></trkpt><trkpt lat="42.79658325752895" lon="13.184879099636698"><ele>1277.8000000000002</ele><time>2026-04-19T13:41:35Z</time></trkpt><trkpt lat="42.79666097279258" lon="13.184977175051134"><ele>1277.1999999999998</ele><time>2026-04-19T13:41:36Z</time></trkpt><trkpt lat="42.796728757053316" lon="13.18506539986885"><ele>1276.6</ele><time>2026-04-19T13:41:37Z</time></trkpt><trkpt lat="42.79680420162351" lon="13.185163948490931"><ele>1276.0</ele><time>2026-04-19T13:41:38Z</time></trkpt><trkpt lat="42.79688276910434" lon="13.185260478861382"><ele>1276.0</ele><time>2026-04-19T13:41:39Z</time></trkpt><trkpt lat="42.796957975989486" lon="13.185352730081327"><ele>1276.0</ele><time>2026-04-19T13:41:40Z</time></trkpt><trkpt lat="42.79703502068996" lon="13.185448243428896"><ele>1276.0</ele><time>2026-04-19T13:41:41Z</time></trkpt><trkpt lat="42.79711258749591" lon="13.185543903293144"><ele>1276.0</ele><time>2026-04-19T13:41:42Z</time></trkpt><trkpt lat="42.797189379383504" lon="13.185640313079286"><ele>1276.0</ele><time>2026-04-19T13:41:43Z</time></trkpt><trkpt lat="42.79726664023596" lon="13.185738673153311"><ele>1276.2</ele><time>2026-04-19T13:41:44Z</time></trkpt><trkpt lat="42.79734371387161" lon="13.185833788551822"><ele>1276.3999999999999</ele><time>2026-04-19T13:41:45Z</time></trkpt><trkpt lat="42.79741975073194" lon="13.185929840827942"><ele>1276.6</ele><time>2026-04-19T13:41:46Z</time></trkpt><trkpt lat="42.79749522116636" lon="13.186029109722154"><ele>1276.8</ele><time>2026-04-19T13:41:47Z</time></trkpt><trkpt lat="42.79757315074774" lon="13.186136425914372"><ele>1277.0</ele><time>2026-04-19T13:41:48Z</time></trkpt><trkpt lat="42.7976561522199" lon="13.18624393062318"><ele>1277.0</ele><time>2026-04-19T13:41:49Z</time></trkpt><trkpt lat="42.797744118573796" lon="13.186355658648122"><ele>1277.0</ele><time>2026-04-19T13:41:50Z</time></trkpt><trkpt lat="42.79783862746144" lon="13.186473934902688"><ele>1277.0</ele><time>2026-04-19T13:41:51Z</time></trkpt><trkpt lat="42.79793840737461" lon="13.186598372009914"><ele>1277.0</ele><time>2026-04-19T13:41:52Z</time></trkpt><trkpt lat="42.79804091068273" lon="13.186724105993308"><ele>1276.5</ele><time>2026-04-19T13:41:53Z</time></trkpt><trkpt lat="42.79814689005783" lon="13.186852597438115"><ele>1276.0</ele><time>2026-04-19T13:41:54Z</time></trkpt><trkpt lat="42.79824860676218" lon="13.18698059352204"><ele>1275.5</ele><time>2026-04-19T13:41:55Z</time></trkpt><trkpt lat="42.79833873447752" lon="13.187095465751229"><ele>1275.0</ele><time>2026-04-19T13:41:56Z</time></trkpt><trkpt lat="42.79842295354876" lon="13.187203722480616"><ele>1275.25</ele><time>2026-04-19T13:41:57Z</time></trkpt><trkpt lat="42.79851400420129" lon="13.187313698206948"><ele>1275.5</ele><time>2026-04-19T13:41:58Z</time></trkpt><trkpt lat="42.79861057866939" lon="13.187429340579495"><ele>1275.75</ele><time>2026-04-19T13:41:59Z</time></trkpt><trkpt lat="42.798709497498834" lon="13.18755338245416"><ele>1276.0</ele><time>2026-04-19T13:42:00Z</time></trkpt><trkpt lat="42.79880834171124" lon="13.18768180285238"><ele>1276.0</ele><time>2026-04-19T13:42:01Z</time></trkpt><trkpt lat="42.79891099366502" lon="13.187814223816408"><ele>1276.0</ele><time>2026-04-19T13:42:02Z</time></trkpt><trkpt lat="42.79901872711916" lon="13.187953084764915"><ele>1276.0</ele><time>2026-04-19T13:42:03Z</time></trkpt><trkpt lat="42.799124207504036" lon="13.188081840625651"><ele>1276.0</ele><time>2026-04-19T13:42:04Z</time></trkpt><trkpt lat="42.799229752046664" lon="13.18820353464757"><ele>1275.75</ele><time>2026-04-19T13:42:05Z</time></trkpt><trkpt lat="42.79931744326319" lon="13.1883213059882"><ele>1275.5</ele><time>2026-04-19T13:42:06Z</time></trkpt><trkpt lat="42.799409348623875" lon="13.188436555475727"><ele>1275.25</ele><time>2026-04-19T13:42:07Z</time></trkpt><trkpt lat="42.79949746876369" lon="13.18855019043671"><ele>1275.0</ele><time>2026-04-19T13:42:08Z</time></trkpt><trkpt lat="42.79958824362358" lon="13.188663712356455"><ele>1274.75</ele><time>2026-04-19T13:42:09Z</time></trkpt><trkpt lat="42.79967950520336" lon="13.188776515763212"><ele>1274.5</ele><time>2026-04-19T13:42:10Z</time></trkpt><trkpt lat="42.79976870962008" lon="13.18889011350274"><ele>1274.25</ele><time>2026-04-19T13:42:11Z</time></trkpt><trkpt lat="42.799860597640205" lon="13.189006723154042"><ele>1274.0</ele><time>2026-04-19T13:42:12Z</time></trkpt><trkpt lat="42.7999509500057" lon="13.189125259445744"><ele>1273.5</ele><time>2026-04-19T13:42:13Z</time></trkpt><trkpt lat="42.80004438456113" lon="13.18924624282769"><ele>1273.0</ele><time>2026-04-19T13:42:14Z</time></trkpt><trkpt lat="42.80013876670874" lon="13.189367417347535"><ele>1272.5</ele><time>2026-04-19T13:42:15Z</time></trkpt><trkpt lat="42.800228989936436" lon="13.189480343343844"><ele>1272.0</ele><time>2026-04-19T13:42:16Z</time></trkpt><trkpt lat="42.80031169369739" lon="13.189583440693347"><ele>1272.0</ele><time>2026-04-19T13:42:17Z</time></trkpt><trkpt lat="42.800393029593515" lon="13.189682512461383"><ele>1272.0</ele><time>2026-04-19T13:42:18Z</time></trkpt><trkpt lat="42.80047549876829" lon="13.189783607235471"><ele>1272.0</ele><time>2026-04-19T13:42:19Z</time></trkpt><trkpt lat="42.80055539895294" lon="13.189884949305132"><ele>1272.0</ele><time>2026-04-19T13:42:20Z</time></trkpt><trkpt lat="42.800634607403026" lon="13.189982853892024"><ele>1272.0</ele><time>2026-04-19T13:42:21Z</time></trkpt><trkpt lat="42.80071599390622" lon="13.190083093319755"><ele>1272.4</ele><time>2026-04-19T13:42:22Z</time></trkpt><trkpt lat="42.8007982222054" lon="13.190182584627319"><ele>1272.8000000000002</ele><time>2026-04-19T13:42:23Z</time></trkpt><trkpt lat="42.80088043917028" lon="13.190284578624059"><ele>1273.2</ele><time>2026-04-19T13:42:24.001Z</time></trkpt><trkpt lat="42.800963896745984" lon="13.19038853001297"><ele>1273.6000000000001</ele><time>2026-04-19T13:42:25.001Z</time></trkpt><trkpt lat="42.80104840828971" lon="13.190492359991735"><ele>1274.0</ele><time>2026-04-19T13:42:26.001Z</time></trkpt><trkpt lat="42.801131818964414" lon="13.190598194559305"><ele>1274.0</ele><time>2026-04-19T13:42:27.001Z</time></trkpt><trkpt lat="42.80121331978039" lon="13.190706979635916"><ele>1274.0</ele><time>2026-04-19T13:42:28.001Z</time></trkpt><trkpt lat="42.80129732533089" lon="13.190815815569492"><ele>1274.0</ele><time>2026-04-19T13:42:29.001Z</time></trkpt><trkpt lat="42.801374612467434" lon="13.190912801627489"><ele>1274.0</ele><time>2026-04-19T13:42:30.001Z</time></trkpt><trkpt lat="42.80144687554506" lon="13.191003760203698"><ele>1274.0</ele><time>2026-04-19T13:42:31.001Z</time></trkpt><trkpt lat="42.801521029521574" lon="13.191095186115142"><ele>1274.0</ele><time>2026-04-19T13:42:32.001Z</time></trkpt><trkpt lat="42.80159826049073" lon="13.191191958036452"><ele>1274.0</ele><time>2026-04-19T13:42:33.001Z</time></trkpt><trkpt lat="42.8016771543662" lon="13.191290266542754"><ele>1274.0</ele><time>2026-04-19T13:42:34.001Z</time></trkpt><trkpt lat="42.80175519686831" lon="13.191387575008406"><ele>1274.0</ele><time>2026-04-19T13:42:35.001Z</time></trkpt><trkpt lat="42.80182586405279" lon="13.191477770030973"><ele>1274.0</ele><time>2026-04-19T13:42:36.001Z</time></trkpt><trkpt lat="42.801890776897935" lon="13.191563465340908"><ele>1274.0</ele><time>2026-04-19T13:42:37.001Z</time></trkpt><trkpt lat="42.80196218590766" lon="13.191654726332592"><ele>1274.0</ele><time>2026-04-19T13:42:38.001Z</time></trkpt><trkpt lat="42.80204043465632" lon="13.191746346464493"><ele>1274.0</ele><time>2026-04-19T13:42:39.001Z</time></trkpt><trkpt lat="42.8021196923504" lon="13.191847255718073"><ele>1274.0</ele><time>2026-04-19T13:42:40.001Z</time></trkpt><trkpt lat="42.8022001424811" lon="13.19194719335823"><ele>1274.0</ele><time>2026-04-19T13:42:41.001Z</time></trkpt><trkpt lat="42.80227862112274" lon="13.192046515018069"><ele>1274.0</ele><time>2026-04-19T13:42:42.001Z</time></trkpt><trkpt lat="42.80235818472327" lon="13.192145179733538"><ele>1274.0</ele><time>2026-04-19T13:42:43.001Z</time></trkpt><trkpt lat="42.802434241657174" lon="13.192241095907635"><ele>1274.0</ele><time>2026-04-19T13:42:44.001Z</time></trkpt><trkpt lat="42.802518038982186" lon="13.19234578283286"><ele>1274.0</ele><time>2026-04-19T13:42:45.001Z</time></trkpt><trkpt lat="42.802597718650276" lon="13.192449633856121"><ele>1274.0</ele><time>2026-04-19T13:42:46.001Z</time></trkpt><trkpt lat="42.802678292058175" lon="13.192553323747106"><ele>1274.4</ele><time>2026-04-19T13:42:47.001Z</time></trkpt><trkpt lat="42.80276085703677" lon="13.192657670905588"><ele>1274.8000000000002</ele><time>2026-04-19T13:42:48.001Z</time></trkpt><trkpt lat="42.802839077358556" lon="13.19276018187459"><ele>1275.1999999999998</ele><time>2026-04-19T13:42:49Z</time></trkpt><trkpt lat="42.80291094070227" lon="13.192849839606218"><ele>1275.6</ele><time>2026-04-19T13:42:50Z</time></trkpt><trkpt lat="42.80297867050192" lon="13.192935487710015"><ele>1276.0</ele><time>2026-04-19T13:42:51Z</time></trkpt><trkpt lat="42.80305154851048" lon="13.193023928895334"><ele>1276.0</ele><time>2026-04-19T13:42:52Z</time></trkpt><trkpt lat="42.803122537556064" lon="13.193111786387348"><ele>1276.0</ele><time>2026-04-19T13:42:53Z</time></trkpt><trkpt lat="42.80319412065646" lon="13.19319560371573"><ele>1276.0</ele><time>2026-04-19T13:42:54Z</time></trkpt><trkpt lat="42.803269560289266" lon="13.193285067659918"><ele>1276.0</ele><time>2026-04-19T13:42:55Z</time></trkpt><trkpt lat="42.80334709033434" lon="13.193382527050364"><ele>1276.0</ele><time>2026-04-19T13:42:56Z</time></trkpt><trkpt lat="42.80342494679401" lon="13.193486327388497"><ele>1276.2</ele><time>2026-04-19T13:42:57Z</time></trkpt><trkpt lat="42.80350316519349" lon="13.19358882311913"><ele>1276.3999999999999</ele><time>2026-04-19T13:42:58Z</time></trkpt><trkpt lat="42.80358154233214" lon="13.193688053717304"><ele>1276.6</ele><time>2026-04-19T13:42:59Z</time></trkpt><trkpt lat="42.80365448111115" lon="13.193784627293411"><ele>1276.8</ele><time>2026-04-19T13:43:00Z</time></trkpt><trkpt lat="42.80372940677099" lon="13.193876254957244"><ele>1277.0</ele><time>2026-04-19T13:43:01Z</time></trkpt><trkpt lat="42.8038032491989" lon="13.193963155513883"><ele>1277.0</ele><time>2026-04-19T13:43:02Z</time></trkpt><trkpt lat="42.803869968195436" lon="13.194041981280357"><ele>1277.0</ele><time>2026-04-19T13:43:03Z</time></trkpt><trkpt lat="42.80394181398368" lon="13.194128179763558"><ele>1277.0</ele><time>2026-04-19T13:43:04Z</time></trkpt><trkpt lat="42.80401098808786" lon="13.194219172595968"><ele>1277.0</ele><time>2026-04-19T13:43:05Z</time></trkpt><trkpt lat="42.80407872209156" lon="13.194312862724953"><ele>1277.0</ele><time>2026-04-19T13:43:06Z</time></trkpt><trkpt lat="42.80415105034529" lon="13.194406610036015"><ele>1277.0</ele><time>2026-04-19T13:43:07Z</time></trkpt><trkpt lat="42.804226412442254" lon="13.194500601667182"><ele>1277.0</ele><time>2026-04-19T13:43:08Z</time></trkpt><trkpt lat="42.804304504483866" lon="13.194592653474588"><ele>1277.0</ele><time>2026-04-19T13:43:09Z</time></trkpt><trkpt lat="42.80438450940115" lon="13.194689859721462"><ele>1277.0</ele><time>2026-04-19T13:43:10Z</time></trkpt><trkpt lat="42.80446430242956" lon="13.194791597562443"><ele>1277.0</ele><time>2026-04-19T13:43:11Z</time></trkpt><trkpt lat="42.804545113264325" lon="13.194894967523842"><ele>1277.6</ele><time>2026-04-19T13:43:12Z</time></trkpt><trkpt lat="42.804627966780984" lon="13.19500016530769"><ele>1278.2</ele><time>2026-04-19T13:43:13Z</time></trkpt><trkpt lat="42.804712895592786" lon="13.195107907819901"><ele>1278.8</ele><time>2026-04-19T13:43:14Z</time></trkpt><trkpt lat="42.80479510831928" lon="13.195208162990193"><ele>1279.4</ele><time>2026-04-19T13:43:15Z</time></trkpt><trkpt lat="42.8048685563486" lon="13.195299375724503"><ele>1280.0</ele><time>2026-04-19T13:43:16Z</time></trkpt><trkpt lat="42.804935813895355" lon="13.195382325072371"><ele>1280.0</ele><time>2026-04-19T13:43:17Z</time></trkpt><trkpt lat="42.8049963551631" lon="13.195460386971824"><ele>1280.0</ele><time>2026-04-19T13:43:18Z</time></trkpt><trkpt lat="42.8050535966832" lon="13.195534018119666"><ele>1280.0</ele><time>2026-04-19T13:43:19Z</time></trkpt><trkpt lat="42.80510707264653" lon="13.195601560545848"><ele>1280.0</ele><time>2026-04-19T13:43:20Z</time></trkpt><trkpt lat="42.80515638916736" lon="13.195661869784937"><ele>1280.0</ele><time>2026-04-19T13:43:21Z</time></trkpt><trkpt lat="42.805202467182546" lon="13.195720926148265"><ele>1280.0</ele><time>2026-04-19T13:43:22Z</time></trkpt><trkpt lat="42.80525369083348" lon="13.195786994073933"><ele>1280.0</ele><time>2026-04-19T13:43:23Z</time></trkpt><trkpt lat="42.80530606429801" lon="13.195857698203408"><ele>1280.4</ele><time>2026-04-19T13:43:24Z</time></trkpt><trkpt lat="42.805360925349454" lon="13.195934802898984"><ele>1280.8</ele><time>2026-04-19T13:43:25Z</time></trkpt><trkpt lat="42.80542240626221" lon="13.196013845017848"><ele>1281.1999999999998</ele><time>2026-04-19T13:43:26Z</time></trkpt><trkpt lat="42.805491122241946" lon="13.19609216515047"><ele>1281.6</ele><time>2026-04-19T13:43:27Z</time></trkpt><trkpt lat="42.80556851772392" lon="13.196173352195704"><ele>1282.0</ele><time>2026-04-19T13:43:28Z</time></trkpt><trkpt lat="42.80564603040416" lon="13.196260841013306"><ele>1282.0</ele><time>2026-04-19T13:43:29Z</time></trkpt><trkpt lat="42.80572066402325" lon="13.196358026451705"><ele>1282.0</ele><time>2026-04-19T13:43:30Z</time></trkpt><trkpt lat="42.805791537762445" lon="13.196454020150862"><ele>1282.0</ele><time>2026-04-19T13:43:31Z</time></trkpt><trkpt lat="42.805862764403926" lon="13.196552526477241"><ele>1282.0</ele><time>2026-04-19T13:43:32Z</time></trkpt><trkpt lat="42.80593546964491" lon="13.196647334562316"><ele>1282.0</ele><time>2026-04-19T13:43:33Z</time></trkpt><trkpt lat="42.806007153522614" lon="13.196735503233866"><ele>1281.3999999999999</ele><time>2026-04-19T13:43:34Z</time></trkpt><trkpt lat="42.806077752572506" lon="13.196822416893779"><ele>1280.8</ele><time>2026-04-19T13:43:35Z</time></trkpt><trkpt lat="42.806151867558256" lon="13.196914515406727"><ele>1280.2</ele><time>2026-04-19T13:43:36Z</time></trkpt><trkpt lat="42.80622853214657" lon="13.197006554578781"><ele>1279.6</ele><time>2026-04-19T13:43:37Z</time></trkpt><trkpt lat="42.8063090224802" lon="13.197102928043629"><ele>1279.0</ele><time>2026-04-19T13:43:38Z</time></trkpt><trkpt lat="42.80639231133694" lon="13.197201994116266"><ele>1279.0</ele><time>2026-04-19T13:43:39Z</time></trkpt><trkpt lat="42.80647443587624" lon="13.19730073211492"><ele>1279.0</ele><time>2026-04-19T13:43:40Z</time></trkpt><trkpt lat="42.806557051167395" lon="13.197401914167056"><ele>1279.0</ele><time>2026-04-19T13:43:41Z</time></trkpt><trkpt lat="42.80662844093104" lon="13.197521464338593"><ele>1279.0</ele><time>2026-04-19T13:43:42Z</time></trkpt><trkpt lat="42.80672237067199" lon="13.197611214528177"><ele>1279.0</ele><time>2026-04-19T13:43:43Z</time></trkpt><trkpt lat="42.80681168313804" lon="13.197723551029608"><ele>1279.5</ele><time>2026-04-19T13:43:44Z</time></trkpt><trkpt lat="42.80690835440168" lon="13.19784198156871"><ele>1280.0</ele><time>2026-04-19T13:43:45Z</time></trkpt><trkpt lat="42.807013495188315" lon="13.197986592543817"><ele>1280.5</ele><time>2026-04-19T13:43:46Z</time></trkpt><trkpt lat="42.80712743734118" lon="13.198128116274043"><ele>1281.0</ele><time>2026-04-19T13:43:47Z</time></trkpt><trkpt lat="42.80723203533171" lon="13.198267543360089"><ele>1281.0</ele><time>2026-04-19T13:43:48Z</time></trkpt><trkpt lat="42.80732948065127" lon="13.198397163821367"><ele>1281.0</ele><time>2026-04-19T13:43:49Z</time></trkpt><trkpt lat="42.80742774572168" lon="13.198524186926425"><ele>1281.0</ele><time>2026-04-19T13:43:50Z</time></trkpt><trkpt lat="42.80752591851065" lon="13.198648085339796"><ele>1281.0</ele><time>2026-04-19T13:43:51Z</time></trkpt><trkpt lat="42.80761907391354" lon="13.19876740299502"><ele>1281.25</ele><time>2026-04-19T13:43:52Z</time></trkpt><trkpt lat="42.807710329029135" lon="13.198884623887238"><ele>1281.5</ele><time>2026-04-19T13:43:53Z</time></trkpt><trkpt lat="42.807804870118275" lon="13.199000734267917"><ele>1281.75</ele><time>2026-04-19T13:43:54Z</time></trkpt><trkpt lat="42.807902776517345" lon="13.199119637894562"><ele>1282.0</ele><time>2026-04-19T13:43:55Z</time></trkpt><trkpt lat="42.808009270448665" lon="13.199248645858495"><ele>1282.0</ele><time>2026-04-19T13:43:56Z</time></trkpt><trkpt lat="42.808124868156426" lon="13.199391384309669"><ele>1282.0</ele><time>2026-04-19T13:43:57Z</time></trkpt><trkpt lat="42.80824243578727" lon="13.199542115687201"><ele>1282.0</ele><time>2026-04-19T13:43:58Z</time></trkpt><trkpt lat="42.80837366410643" lon="13.19969959848594"><ele>1282.0</ele><time>2026-04-19T13:43:59Z</time></trkpt><trkpt lat="42.80849995600774" lon="13.199860086153352"><ele>1282.0</ele><time>2026-04-19T13:44:00Z</time></trkpt><trkpt lat="42.80863190225173" lon="13.200021846763963"><ele>1282.0</ele><time>2026-04-19T13:44:01Z</time></trkpt><trkpt lat="42.80875961762168" lon="13.20018803835878"><ele>1282.0</ele><time>2026-04-19T13:44:02Z</time></trkpt><trkpt lat="42.80888344168856" lon="13.200340783505075"><ele>1282.0</ele><time>2026-04-19T13:44:03Z</time></trkpt><trkpt lat="42.80900492038813" lon="13.20049394910895"><ele>1282.0</ele><time>2026-04-19T13:44:04Z</time></trkpt><trkpt lat="42.809128353846816" lon="13.200648742538341"><ele>1282.0</ele><time>2026-04-19T13:44:05Z</time></trkpt><trkpt lat="42.80924491699169" lon="13.200801661789772"><ele>1282.0</ele><time>2026-04-19T13:44:06Z</time></trkpt><trkpt lat="42.80935881420931" lon="13.20095395647227"><ele>1282.0</ele><time>2026-04-19T13:44:07Z</time></trkpt><trkpt lat="42.80947471936115" lon="13.201105738479615"><ele>1282.6666666666665</ele><time>2026-04-19T13:44:08Z</time></trkpt><trkpt lat="42.80959140621352" lon="13.201252565635793"><ele>1283.3333333333333</ele><time>2026-04-19T13:44:09Z</time></trkpt><trkpt lat="42.80970739920152" lon="13.201391703887834"><ele>1284.0</ele><time>2026-04-19T13:44:10Z</time></trkpt><trkpt lat="42.80982517050345" lon="13.201533822525132"><ele>1284.3333333333333</ele><time>2026-04-19T13:44:11Z</time></trkpt><trkpt lat="42.809945117083885" lon="13.201684628075004"><ele>1284.6666666666665</ele><time>2026-04-19T13:44:12Z</time></trkpt><trkpt lat="42.81005980896744" lon="13.201831304833162"><ele>1285.0</ele><time>2026-04-19T13:44:13Z</time></trkpt><trkpt lat="42.810172652187966" lon="13.201975249306804"><ele>1285.6666666666665</ele><time>2026-04-19T13:44:14Z</time></trkpt><trkpt lat="42.810288433564324" lon="13.202120821253626"><ele>1286.3333333333333</ele><time>2026-04-19T13:44:15Z</time></trkpt><trkpt lat="42.81040569717269" lon="13.202266453756312"><ele>1287.0</ele><time>2026-04-19T13:44:16Z</time></trkpt><trkpt lat="42.810523659078484" lon="13.202413590639651"><ele>1287.0</ele><time>2026-04-19T13:44:17Z</time></trkpt><trkpt lat="42.810640750726144" lon="13.20255786277979"><ele>1287.0</ele><time>2026-04-19T13:44:18Z</time></trkpt><trkpt lat="42.810753894099705" lon="13.202703339616983"><ele>1287.0</ele><time>2026-04-19T13:44:19Z</time></trkpt><trkpt lat="42.81086602856372" lon="13.202848466577768"><ele>1287.0</ele><time>2026-04-19T13:44:20Z</time></trkpt><trkpt lat="42.81097894872228" lon="13.202993556154164"><ele>1287.0</ele><time>2026-04-19T13:44:21Z</time></trkpt><trkpt lat="42.811095636920975" lon="13.203137128457026"><ele>1287.0</ele><time>2026-04-19T13:44:22Z</time></trkpt><trkpt lat="42.811212853025346" lon="13.2032793351425"><ele>1286.0</ele><time>2026-04-19T13:44:23Z</time></trkpt><trkpt lat="42.81132932489284" lon="13.2034191519324"><ele>1285.0</ele><time>2026-04-19T13:44:24Z</time></trkpt><trkpt lat="42.81144491666735" lon="13.203559707529203"><ele>1284.0</ele><time>2026-04-19T13:44:25Z</time></trkpt><trkpt lat="42.81156039200628" lon="13.203701811839977"><ele>1284.0</ele><time>2026-04-19T13:44:26Z</time></trkpt><trkpt lat="42.81167183382183" lon="13.20384436017521"><ele>1284.0</ele><time>2026-04-19T13:44:27Z</time></trkpt><trkpt lat="42.8117824352631" lon="13.203987416278853"><ele>1284.0</ele><time>2026-04-19T13:44:28Z</time></trkpt><trkpt lat="42.811895129444096" lon="13.20412992835936"><ele>1285.6666666666667</ele><time>2026-04-19T13:44:29Z</time></trkpt><trkpt lat="42.81200615941716" lon="13.204272748721143"><ele>1287.3333333333335</ele><time>2026-04-19T13:44:30.001Z</time></trkpt><trkpt lat="42.81211450585575" lon="13.204413555634485"><ele>1289.0</ele><time>2026-04-19T13:44:31.001Z</time></trkpt><trkpt lat="42.81222857001281" lon="13.204552447205737"><ele>1289.0</ele><time>2026-04-19T13:44:32.001Z</time></trkpt><trkpt lat="42.81233560368918" lon="13.20468427644843"><ele>1289.0</ele><time>2026-04-19T13:44:33.001Z</time></trkpt><trkpt lat="42.812436859438236" lon="13.204810264772313"><ele>1289.0</ele><time>2026-04-19T13:44:34.001Z</time></trkpt><trkpt lat="42.81253581457857" lon="13.204932223833856"><ele>1289.0</ele><time>2026-04-19T13:44:35.001Z</time></trkpt><trkpt lat="42.81263336520197" lon="13.205052368817197"><ele>1290.0</ele><time>2026-04-19T13:44:36.001Z</time></trkpt><trkpt lat="42.81273008716962" lon="13.205171526295048"><ele>1291.0</ele><time>2026-04-19T13:44:37.001Z</time></trkpt><trkpt lat="42.812824963122175" lon="13.205288674383615"><ele>1292.0</ele><time>2026-04-19T13:44:38.001Z</time></trkpt><trkpt lat="42.812917816628214" lon="13.205407433486295"><ele>1293.0</ele><time>2026-04-19T13:44:39.001Z</time></trkpt><trkpt lat="42.8130099463061" lon="13.205524920497774"><ele>1293.0</ele><time>2026-04-19T13:44:40.001Z</time></trkpt><trkpt lat="42.81310324063285" lon="13.205638204460689"><ele>1293.0</ele><time>2026-04-19T13:44:41.001Z</time></trkpt><trkpt lat="42.81318524965624" lon="13.205767806123692"><ele>1293.0</ele><time>2026-04-19T13:44:42.001Z</time></trkpt><trkpt lat="42.81327784038249" lon="13.205884403118752"><ele>1293.0</ele><time>2026-04-19T13:44:43.001Z</time></trkpt><trkpt lat="42.81338123441447" lon="13.205989260763076"><ele>1292.5</ele><time>2026-04-19T13:44:44.001Z</time></trkpt><trkpt lat="42.81346407388907" lon="13.206118923465462"><ele>1292.0</ele><time>2026-04-19T13:44:45.001Z</time></trkpt><trkpt lat="42.81356773988429" lon="13.20623148800106"><ele>1291.5</ele><time>2026-04-19T13:44:46.001Z</time></trkpt><trkpt lat="42.81366306896746" lon="13.206352237838976"><ele>1291.0</ele><time>2026-04-19T13:44:47.001Z</time></trkpt><trkpt lat="42.81376200733691" lon="13.206473246964723"><ele>1291.25</ele><time>2026-04-19T13:44:48.001Z</time></trkpt><trkpt lat="42.81386118746328" lon="13.206591698321526"><ele>1291.5</ele><time>2026-04-19T13:44:49.001Z</time></trkpt><trkpt lat="42.81395537150074" lon="13.206708900882887"><ele>1291.75</ele><time>2026-04-19T13:44:50.001Z</time></trkpt><trkpt lat="42.814031727063195" lon="13.206833754293243"><ele>1292.0</ele><time>2026-04-19T13:44:51.001Z</time></trkpt><trkpt lat="42.81411328293056" lon="13.206936455383898"><ele>1292.0</ele><time>2026-04-19T13:44:52Z</time></trkpt><trkpt lat="42.8141898090079" lon="13.207032822719128"><ele>1292.0</ele><time>2026-04-19T13:44:53Z</time></trkpt><trkpt lat="42.814261986956" lon="13.207123714643082"><ele>1292.0</ele><time>2026-04-19T13:44:54Z</time></trkpt><trkpt lat="42.814326830360166" lon="13.207205370084859"><ele>1292.0</ele><time>2026-04-19T13:44:55Z</time></trkpt><trkpt lat="42.81439782234464" lon="13.207271384730634"><ele>1292.0</ele><time>2026-04-19T13:44:56Z</time></trkpt><trkpt lat="42.814457058559555" lon="13.207354314844398"><ele>1292.0</ele><time>2026-04-19T13:44:57Z</time></trkpt><trkpt lat="42.81451780623631" lon="13.207428993405534"><ele>1292.0</ele><time>2026-04-19T13:44:58Z</time></trkpt><trkpt lat="42.8145781369494" lon="13.207501652572878"><ele>1292.0</ele><time>2026-04-19T13:44:59Z</time></trkpt><trkpt lat="42.81463965004739" lon="13.207576636963255"><ele>1292.0</ele><time>2026-04-19T13:45:00Z</time></trkpt><trkpt lat="42.814705801195956" lon="13.207652757448608"><ele>1292.0</ele><time>2026-04-19T13:45:01Z</time></trkpt><trkpt lat="42.814764120072766" lon="13.207756037624288"><ele>1292.0</ele><time>2026-04-19T13:45:02Z</time></trkpt><trkpt lat="42.81484583446301" lon="13.20785893839713"><ele>1292.0</ele><time>2026-04-19T13:45:03Z</time></trkpt><trkpt lat="42.814941455345526" lon="13.207979351224663"><ele>1292.0</ele><time>2026-04-19T13:45:04Z</time></trkpt><trkpt lat="42.81504939949522" lon="13.20811528261787"><ele>1292.0</ele><time>2026-04-19T13:45:05Z</time></trkpt><trkpt lat="42.81516941836719" lon="13.2082664191508"><ele>1292.0</ele><time>2026-04-19T13:45:06Z</time></trkpt><trkpt lat="42.81530673080144" lon="13.208417075951855"><ele>1292.3333333333335</ele><time>2026-04-19T13:45:07Z</time></trkpt><trkpt lat="42.815439212334205" lon="13.208592276584186"><ele>1292.6666666666667</ele><time>2026-04-19T13:45:08Z</time></trkpt><trkpt lat="42.815580612717646" lon="13.208769345754293"><ele>1293.0</ele><time>2026-04-19T13:45:09Z</time></trkpt><trkpt lat="42.81573255703988" lon="13.2089517941113"><ele>1295.0</ele><time>2026-04-19T13:45:10Z</time></trkpt><trkpt lat="42.8158960724724" lon="13.20915175574394"><ele>1297.0</ele><time>2026-04-19T13:45:11Z</time></trkpt><trkpt lat="42.81606310070687" lon="13.209367760175306"><ele>1297.0</ele><time>2026-04-19T13:45:12Z</time></trkpt><trkpt lat="42.81622021268495" lon="13.20958652358671"><ele>1297.0</ele><time>2026-04-19T13:45:13Z</time></trkpt><trkpt lat="42.81638133359161" lon="13.209769947165661"><ele>1297.0</ele><time>2026-04-19T13:45:14Z</time></trkpt><trkpt lat="42.816524210810236" lon="13.20995779956359"><ele>1297.0</ele><time>2026-04-19T13:45:15Z</time></trkpt><trkpt lat="42.81665718719113" lon="13.21013184805088"><ele>1297.0</ele><time>2026-04-19T13:45:16Z</time></trkpt><trkpt lat="42.81678327365432" lon="13.21028913940192"><ele>1297.0</ele><time>2026-04-19T13:45:17Z</time></trkpt><trkpt lat="42.81690744522483" lon="13.210439421107445"><ele>1297.0</ele><time>2026-04-19T13:45:18Z</time></trkpt><trkpt lat="42.81702391345985" lon="13.21057338248416"><ele>1297.0</ele><time>2026-04-19T13:45:19Z</time></trkpt><trkpt lat="42.81714309850295" lon="13.210717367240088"><ele>1297.0</ele><time>2026-04-19T13:45:20Z</time></trkpt><trkpt lat="42.817271639229666" lon="13.210856838612125"><ele>1297.0</ele><time>2026-04-19T13:45:21Z</time></trkpt><trkpt lat="42.817414971151294" lon="13.210995653792981"><ele>1297.0</ele><time>2026-04-19T13:45:22Z</time></trkpt><trkpt lat="42.817564650533164" lon="13.211119496234492"><ele>1297.0</ele><time>2026-04-19T13:45:23Z</time></trkpt><trkpt lat="42.81771712707752" lon="13.21123446274346"><ele>1297.0</ele><time>2026-04-19T13:45:24Z</time></trkpt><trkpt lat="42.81786864273322" lon="13.211351474518048"><ele>1297.0</ele><time>2026-04-19T13:45:25Z</time></trkpt><trkpt lat="42.81801803320067" lon="13.21146739909162"><ele>1297.0</ele><time>2026-04-19T13:45:26Z</time></trkpt><trkpt lat="42.818157974072264" lon="13.21158063952237"><ele>1297.0</ele><time>2026-04-19T13:45:27Z</time></trkpt><trkpt lat="42.818299039202664" lon="13.211696609676322"><ele>1297.0</ele><time>2026-04-19T13:45:28Z</time></trkpt><trkpt lat="42.81844613721384" lon="13.211817423671462"><ele>1297.0</ele><time>2026-04-19T13:45:29Z</time></trkpt><trkpt lat="42.818591405409414" lon="13.211935267433445"><ele>1298.0</ele><time>2026-04-19T13:45:30Z</time></trkpt><trkpt lat="42.8187308003417" lon="13.212048816614585"><ele>1299.0</ele><time>2026-04-19T13:45:31Z</time></trkpt><trkpt lat="42.818868802808964" lon="13.212165189094662"><ele>1300.0</ele><time>2026-04-19T13:45:32Z</time></trkpt><trkpt lat="42.81900711856145" lon="13.212279625406497"><ele>1300.0</ele><time>2026-04-19T13:45:33Z</time></trkpt><trkpt lat="42.819147295639546" lon="13.212388916555863"><ele>1300.0</ele><time>2026-04-19T13:45:34Z</time></trkpt><trkpt lat="42.819285858748685" lon="13.212495497895722"><ele>1300.0</ele><time>2026-04-19T13:45:35Z</time></trkpt><trkpt lat="42.81943043565614" lon="13.212602348266364"><ele>1300.0</ele><time>2026-04-19T13:45:36Z</time></trkpt><trkpt lat="42.81958122865867" lon="13.212705370332095"><ele>1300.0</ele><time>2026-04-19T13:45:37Z</time></trkpt><trkpt lat="42.81974771241842" lon="13.212812834371809"><ele>1300.0</ele><time>2026-04-19T13:45:38Z</time></trkpt><trkpt lat="42.81992538595852" lon="13.212916158368806"><ele>1300.0</ele><time>2026-04-19T13:45:39Z</time></trkpt><trkpt lat="42.82009179871123" lon="13.213010840772904"><ele>1300.0</ele><time>2026-04-19T13:45:40Z</time></trkpt><trkpt lat="42.820260648279486" lon="13.213107503384434"><ele>1300.0</ele><time>2026-04-19T13:45:41Z</time></trkpt><trkpt lat="42.82042407883199" lon="13.21319505590313"><ele>1300.5</ele><time>2026-04-19T13:45:42Z</time></trkpt><trkpt lat="42.8207686501658" lon="13.213299571584997"><ele>1301.0</ele><time>2026-04-19T13:45:44Z</time></trkpt><trkpt lat="42.82095729421394" lon="13.21332065767711"><ele>1301.6666666666667</ele><time>2026-04-19T13:45:45Z</time></trkpt><trkpt lat="42.82115735018782" lon="13.213333575297872"><ele>1302.3333333333333</ele><time>2026-04-19T13:45:46Z</time></trkpt><trkpt lat="42.82138076861801" lon="13.213358706774914"><ele>1303.0</ele><time>2026-04-19T13:45:47Z</time></trkpt><trkpt lat="42.821618185518304" lon="13.21338486007729"><ele>1302.5</ele><time>2026-04-19T13:45:48Z</time></trkpt><trkpt lat="42.821872132214594" lon="13.213411649340358"><ele>1302.0</ele><time>2026-04-19T13:45:49Z</time></trkpt><trkpt lat="42.82215022114542" lon="13.213439174533043"><ele>1302.0</ele><time>2026-04-19T13:45:50Z</time></trkpt><trkpt lat="42.82244568139126" lon="13.21347154047484"><ele>1302.0</ele><time>2026-04-19T13:45:51Z</time></trkpt><trkpt lat="42.82274069711139" lon="13.213499019470802"><ele>1303.0</ele><time>2026-04-19T13:45:52Z</time></trkpt><trkpt lat="42.82304986864615" lon="13.213530262773906"><ele>1304.0</ele><time>2026-04-19T13:45:53Z</time></trkpt><trkpt lat="42.82336900818382" lon="13.213562669451145"><ele>1304.0</ele><time>2026-04-19T13:45:54Z</time></trkpt><trkpt lat="42.82367845494045" lon="13.213592410481636"><ele>1304.0</ele><time>2026-04-19T13:45:55Z</time></trkpt><trkpt lat="42.823975144233216" lon="13.213620722168315"><ele>1304.0</ele><time>2026-04-19T13:45:56Z</time></trkpt><trkpt lat="42.82427368147764" lon="13.21365029799705"><ele>1304.0</ele><time>2026-04-19T13:45:57Z</time></trkpt><trkpt lat="42.8245647654886" lon="13.21368036018654"><ele>1305.0</ele><time>2026-04-19T13:45:58Z</time></trkpt><trkpt lat="42.82485445464006" lon="13.213708767417732"><ele>1306.0</ele><time>2026-04-19T13:45:59Z</time></trkpt><trkpt lat="42.825144803602925" lon="13.213739677007275"><ele>1306.5</ele><time>2026-04-19T13:46:00Z</time></trkpt><trkpt lat="42.825428175235714" lon="13.21376666179081"><ele>1307.0</ele><time>2026-04-19T13:46:01Z</time></trkpt><trkpt lat="42.825705064791464" lon="13.213792318634027"><ele>1307.0</ele><time>2026-04-19T13:46:02Z</time></trkpt><trkpt lat="42.825968414056604" lon="13.213811583979865"><ele>1307.0</ele><time>2026-04-19T13:46:03Z</time></trkpt><trkpt lat="42.82620929157005" lon="13.213826198386887"><ele>1310.0</ele><time>2026-04-19T13:46:04Z</time></trkpt><trkpt lat="42.826435733523866" lon="13.213837044942174"><ele>1313.0</ele><time>2026-04-19T13:46:05Z</time></trkpt><trkpt lat="42.82664448271071" lon="13.213875526526374"><ele>1316.0</ele><time>2026-04-19T13:46:06Z</time></trkpt><trkpt lat="42.82683368217986" lon="13.213891430113632"><ele>1318.6666666666667</ele><time>2026-04-19T13:46:07Z</time></trkpt><trkpt lat="42.82700530951211" lon="13.213910634691688"><ele>1321.3333333333333</ele><time>2026-04-19T13:46:08Z</time></trkpt><trkpt lat="42.82716504124826" lon="13.21394489417125"><ele>1324.0</ele><time>2026-04-19T13:46:09Z</time></trkpt><trkpt lat="42.82731042405979" lon="13.214050294704853"><ele>1324.0</ele><time>2026-04-19T13:46:10Z</time></trkpt><trkpt lat="42.82742031149261" lon="13.214223201993043"><ele>1324.0</ele><time>2026-04-19T13:46:11Z</time></trkpt><trkpt lat="42.82752085109959" lon="13.214411059998067"><ele>1324.0</ele><time>2026-04-19T13:46:12Z</time></trkpt><trkpt lat="42.82763419923639" lon="13.214596300790346"><ele>1325.25</ele><time>2026-04-19T13:46:13Z</time></trkpt><trkpt lat="42.82773019118826" lon="13.214768365244133"><ele>1326.5</ele><time>2026-04-19T13:46:14Z</time></trkpt><trkpt lat="42.82782441836682" lon="13.214891231289414"><ele>1327.75</ele><time>2026-04-19T13:46:15Z</time></trkpt><trkpt lat="42.8279211917693" lon="13.21497006272282"><ele>1329.0</ele><time>2026-04-19T13:46:16Z</time></trkpt><trkpt lat="42.82802317696313" lon="13.215003864215204"><ele>1329.0</ele><time>2026-04-19T13:46:17Z</time></trkpt><trkpt lat="42.82814160431134" lon="13.215001323588595"><ele>1329.0</ele><time>2026-04-19T13:46:18Z</time></trkpt><trkpt lat="42.82828225673467" lon="13.214979118397066"><ele>1329.0</ele><time>2026-04-19T13:46:19Z</time></trkpt><trkpt lat="42.82843285376084" lon="13.21496213502988"><ele>1329.0</ele><time>2026-04-19T13:46:20Z</time></trkpt><trkpt lat="42.82860734919941" lon="13.214980053036864"><ele>1331.3333333333333</ele><time>2026-04-19T13:46:21Z</time></trkpt><trkpt lat="42.82878565230793" lon="13.215012737920471"><ele>1333.6666666666665</ele><time>2026-04-19T13:46:22Z</time></trkpt><trkpt lat="42.82894890779112" lon="13.21503617240903"><ele>1336.0</ele><time>2026-04-19T13:46:23Z</time></trkpt><trkpt lat="42.8290936705697" lon="13.215039311693872"><ele>1336.0</ele><time>2026-04-19T13:46:24Z</time></trkpt><trkpt lat="42.829216556342594" lon="13.215021984291857"><ele>1336.0</ele><time>2026-04-19T13:46:25Z</time></trkpt><trkpt lat="42.82931725604921" lon="13.214978710085173"><ele>1336.0</ele><time>2026-04-19T13:46:26Z</time></trkpt><trkpt lat="42.82939883854864" lon="13.214891965657978"><ele>1336.0</ele><time>2026-04-19T13:46:27Z</time></trkpt><trkpt lat="42.82946323950806" lon="13.214754835834599"><ele>1336.6</ele><time>2026-04-19T13:46:28Z</time></trkpt><trkpt lat="42.82950139592765" lon="13.214591005019685"><ele>1337.1999999999998</ele><time>2026-04-19T13:46:29Z</time></trkpt><trkpt lat="42.829492628448776" lon="13.214457644930217"><ele>1337.8000000000002</ele><time>2026-04-19T13:46:30Z</time></trkpt><trkpt lat="42.82945214241034" lon="13.214340671996958"><ele>1338.4</ele><time>2026-04-19T13:46:31Z</time></trkpt><trkpt lat="42.82939380296775" lon="13.214247329708972"><ele>1339.0</ele><time>2026-04-19T13:46:32Z</time></trkpt><trkpt lat="42.82932192358033" lon="13.214170082844689"><ele>1341.0</ele><time>2026-04-19T13:46:33Z</time></trkpt><trkpt lat="42.829240668688584" lon="13.21409380992629"><ele>1343.0</ele><time>2026-04-19T13:46:34Z</time></trkpt><trkpt lat="42.82915409347123" lon="13.214020636617578"><ele>1345.0</ele><time>2026-04-19T13:46:35Z</time></trkpt><trkpt lat="42.829058191050706" lon="13.21393523134211"><ele>1347.0</ele><time>2026-04-19T13:46:36.001Z</time></trkpt><trkpt lat="42.82895708471486" lon="13.213842120730892"><ele>1349.0</ele><time>2026-04-19T13:46:37.001Z</time></trkpt><trkpt lat="42.82885223732864" lon="13.213749507128147"><ele>1351.0</ele><time>2026-04-19T13:46:38.001Z</time></trkpt><trkpt lat="42.82874783985585" lon="13.213649946734796"><ele>1353.0</ele><time>2026-04-19T13:46:39.001Z</time></trkpt><trkpt lat="42.82865501335014" lon="13.213528971908437"><ele>1355.0</ele><time>2026-04-19T13:46:40.001Z</time></trkpt><trkpt lat="42.82858306253222" lon="13.213385670490059"><ele>1357.0</ele><time>2026-04-19T13:46:41.001Z</time></trkpt><trkpt lat="42.82853336208609" lon="13.213200771757197"><ele>1357.3333333333333</ele><time>2026-04-19T13:46:42.001Z</time></trkpt><trkpt lat="42.82849514622103" lon="13.212965640530665"><ele>1357.6666666666667</ele><time>2026-04-19T13:46:43.001Z</time></trkpt><trkpt lat="42.82846486695155" lon="13.212696833919992"><ele>1358.0</ele><time>2026-04-19T13:46:44.001Z</time></trkpt><trkpt lat="42.82844295680367" lon="13.212418388934719"><ele>1363.0</ele><time>2026-04-19T13:46:45.001Z</time></trkpt><trkpt lat="42.828402226428665" lon="13.212137200096185"><ele>1368.0</ele><time>2026-04-19T13:46:46.001Z</time></trkpt><trkpt lat="42.82833836746191" lon="13.21189642235697"><ele>1373.0</ele><time>2026-04-19T13:46:47.001Z</time></trkpt><trkpt lat="42.82826975276647" lon="13.21170414023157"><ele>1373.0</ele><time>2026-04-19T13:46:48.001Z</time></trkpt><trkpt lat="42.8281963054369" lon="13.211536926942355"><ele>1373.0</ele><time>2026-04-19T13:46:49.001Z</time></trkpt><trkpt lat="42.828117964620056" lon="13.211377973472624"><ele>1373.0</ele><time>2026-04-19T13:46:50.001Z</time></trkpt><trkpt lat="42.82804428186886" lon="13.211220775950302"><ele>1373.0</ele><time>2026-04-19T13:46:51.001Z</time></trkpt><trkpt lat="42.8279776443455" lon="13.211067675974034"><ele>1377.25</ele><time>2026-04-19T13:46:52.001Z</time></trkpt><trkpt lat="42.827918658456575" lon="13.210930645094162"><ele>1381.5</ele><time>2026-04-19T13:46:53Z</time></trkpt><trkpt lat="42.827859645276185" lon="13.210790229846756"><ele>1385.75</ele><time>2026-04-19T13:46:54Z</time></trkpt><trkpt lat="42.82780084443957" lon="13.210644399494177"><ele>1390.0</ele><time>2026-04-19T13:46:55Z</time></trkpt><trkpt lat="42.827746218227055" lon="13.210493719462306"><ele>1387.0</ele><time>2026-04-19T13:46:56Z</time></trkpt><trkpt lat="42.82769929219626" lon="13.21033871734675"><ele>1384.0</ele><time>2026-04-19T13:46:57Z</time></trkpt><trkpt lat="42.82766458747256" lon="13.210184003561377"><ele>1381.0</ele><time>2026-04-19T13:46:58Z</time></trkpt><trkpt lat="42.827636240530595" lon="13.210033137093081"><ele>1378.0</ele><time>2026-04-19T13:46:59Z</time></trkpt><trkpt lat="42.82760234876106" lon="13.20988551131815"><ele>1381.4</ele><time>2026-04-19T13:47:00Z</time></trkpt><trkpt lat="42.82757006793227" lon="13.209748022164323"><ele>1384.8000000000002</ele><time>2026-04-19T13:47:01Z</time></trkpt><trkpt lat="42.827536948994506" lon="13.209617184526131"><ele>1388.2</ele><time>2026-04-19T13:47:02Z</time></trkpt><trkpt lat="42.82750226298539" lon="13.209492819403252"><ele>1391.6</ele><time>2026-04-19T13:47:03Z</time></trkpt><trkpt lat="42.82747237439189" lon="13.20936752971088"><ele>1395.0</ele><time>2026-04-19T13:47:04Z</time></trkpt><trkpt lat="42.82745253322956" lon="13.2092426547829"><ele>1395.0</ele><time>2026-04-19T13:47:05Z</time></trkpt><trkpt lat="42.82743837092835" lon="13.209118986714405"><ele>1395.0</ele><time>2026-04-19T13:47:06Z</time></trkpt><trkpt lat="42.82742251835218" lon="13.208977177475939"><ele>1395.0</ele><time>2026-04-19T13:47:07Z</time></trkpt><trkpt lat="42.82741442283007" lon="13.208817827402697"><ele>1395.0</ele><time>2026-04-19T13:47:08Z</time></trkpt><trkpt lat="42.82740932052306" lon="13.208644223829843"><ele>1395.0</ele><time>2026-04-19T13:47:09Z</time></trkpt><trkpt lat="42.82740486141553" lon="13.208458253144446"><ele>1397.0</ele><time>2026-04-19T13:47:10Z</time></trkpt><trkpt lat="42.82740873239136" lon="13.20827421256188"><ele>1399.0</ele><time>2026-04-19T13:47:11Z</time></trkpt><trkpt lat="42.8274244228903" lon="13.208091019623811"><ele>1401.0</ele><time>2026-04-19T13:47:12Z</time></trkpt><trkpt lat="42.82745464620043" lon="13.207901616908499"><ele>1403.0</ele><time>2026-04-19T13:47:13Z</time></trkpt><trkpt lat="42.8274983656307" lon="13.207713483892642"><ele>1403.0</ele><time>2026-04-19T13:47:14Z</time></trkpt><trkpt lat="42.827553033462365" lon="13.207535857476289"><ele>1403.0</ele><time>2026-04-19T13:47:15Z</time></trkpt><trkpt lat="42.82761033748711" lon="13.207369095157405"><ele>1403.0</ele><time>2026-04-19T13:47:16Z</time></trkpt><trkpt lat="42.82766228636656" lon="13.20722222554401"><ele>1403.0</ele><time>2026-04-19T13:47:17Z</time></trkpt><trkpt lat="42.82770721754322" lon="13.207096164019756"><ele>1406.6000000000001</ele><time>2026-04-19T13:47:18Z</time></trkpt><trkpt lat="42.827750802364996" lon="13.206968614133707"><ele>1410.2</ele><time>2026-04-19T13:47:19Z</time></trkpt><trkpt lat="42.827803074158126" lon="13.206841213435512"><ele>1413.8</ele><time>2026-04-19T13:47:20Z</time></trkpt><trkpt lat="42.82786743086699" lon="13.20673145784562"><ele>1417.4</ele><time>2026-04-19T13:47:21Z</time></trkpt><trkpt lat="42.827943259406695" lon="13.206638054619862"><ele>1421.0</ele><time>2026-04-19T13:47:22Z</time></trkpt><trkpt lat="42.82802330202163" lon="13.206558940423724"><ele>1418.0</ele><time>2026-04-19T13:47:23Z</time></trkpt><trkpt lat="42.82810431265343" lon="13.206486291376661"><ele>1415.0</ele><time>2026-04-19T13:47:24Z</time></trkpt><trkpt lat="42.82818804780096" lon="13.206416912786205"><ele>1412.0</ele><time>2026-04-19T13:47:25Z</time></trkpt><trkpt lat="42.828269027458" lon="13.206346899874445"><ele>1409.0</ele><time>2026-04-19T13:47:26Z</time></trkpt><trkpt lat="42.82835227707114" lon="13.206280779498634"><ele>1406.0</ele><time>2026-04-19T13:47:27Z</time></trkpt><trkpt lat="42.828429374914556" lon="13.206211970284526"><ele>1409.0</ele><time>2026-04-19T13:47:28Z</time></trkpt><trkpt lat="42.82850598153467" lon="13.206129072030652"><ele>1412.0</ele><time>2026-04-19T13:47:29Z</time></trkpt><trkpt lat="42.82858503923432" lon="13.206035729422192"><ele>1415.0</ele><time>2026-04-19T13:47:30Z</time></trkpt><trkpt lat="42.8286533039279" lon="13.205951970516026"><ele>1418.0</ele><time>2026-04-19T13:47:31Z</time></trkpt><trkpt lat="42.828711092475864" lon="13.20588423364865"><ele>1421.0</ele><time>2026-04-19T13:47:32Z</time></trkpt><trkpt lat="42.828791090165325" lon="13.205790129563283"><ele>1421.0</ele><time>2026-04-19T13:47:34Z</time></trkpt><trkpt lat="42.82885420231776" lon="13.205708823467445"><ele>1421.0</ele><time>2026-04-19T13:47:36Z</time></trkpt><trkpt lat="42.828906984694335" lon="13.205639204892426"><ele>1421.0</ele><time>2026-04-19T13:47:38Z</time></trkpt><trkpt lat="42.828966890348354" lon="13.205603017090802"><ele>1421.0</ele><time>2026-04-19T13:47:41Z</time></trkpt><trkpt lat="42.82905715301342" lon="13.205608948311383"><ele>1421.0</ele><time>2026-04-19T13:47:44Z</time></trkpt><trkpt lat="42.8291122584953" lon="13.205651794168894"><ele>1421.0</ele><time>2026-04-19T13:47:47Z</time></trkpt><trkpt lat="42.82917141126458" lon="13.205685322838113"><ele>1421.0</ele><time>2026-04-19T13:48:56.001Z</time></trkpt><trkpt lat="42.82924670355815" lon="13.205698941700081"><ele>1421.0</ele><time>2026-04-19T13:48:59Z</time></trkpt><trkpt lat="42.82931274876277" lon="13.205741299607462"><ele>1421.0</ele><time>2026-04-19T13:49:03Z</time></trkpt><trkpt lat="42.829274172037266" lon="13.205819892135036"><ele>1421.0</ele><time>2026-04-19T13:49:06Z</time></trkpt><trkpt lat="42.829225757447745" lon="13.205877352494475"><ele>1421.0</ele><time>2026-04-19T13:49:08Z</time></trkpt><trkpt lat="42.829184431404265" lon="13.205578554086433"><ele>1421.0</ele><time>2026-04-19T13:49:11Z</time></trkpt><trkpt lat="42.82911930191593" lon="13.205557244867713"><ele>1421.0</ele><time>2026-04-19T13:49:14Z</time></trkpt><trkpt lat="42.829062631374924" lon="13.205662588987249"><ele>1421.0</ele><time>2026-04-19T13:49:17Z</time></trkpt><trkpt lat="42.829071097253944" lon="13.20554013939022"><ele>1421.0</ele><time>2026-04-19T13:49:21Z</time></trkpt><trkpt lat="42.828998611342925" lon="13.20551329291969"><ele>1421.0</ele><time>2026-04-19T13:49:23Z</time></trkpt><trkpt lat="42.82893698114896" lon="13.20559523793621"><ele>1421.0</ele><time>2026-04-19T13:49:24Z</time></trkpt><trkpt lat="42.82887680507248" lon="13.205651092544894"><ele>1421.0</ele><time>2026-04-19T13:49:26Z</time></trkpt><trkpt lat="42.828826927455935" lon="13.205714405326686"><ele>1421.0</ele><time>2026-04-19T13:49:28Z</time></trkpt><trkpt lat="42.82874906182021" lon="13.205810846104939"><ele>1421.0</ele><time>2026-04-19T13:49:30Z</time></trkpt><trkpt lat="42.82870315307102" lon="13.205873073387831"><ele>1421.0</ele><time>2026-04-19T13:49:31Z</time></trkpt><trkpt lat="42.828652924320934" lon="13.205943770763652"><ele>1421.0</ele><time>2026-04-19T13:49:32Z</time></trkpt><trkpt lat="42.82859986244419" lon="13.206011175702935"><ele>1421.0</ele><time>2026-04-19T13:49:33Z</time></trkpt><trkpt lat="42.82854446542647" lon="13.2060755943934"><ele>1421.0</ele><time>2026-04-19T13:49:34Z</time></trkpt><trkpt lat="42.828492383762466" lon="13.206134377029949"><ele>1421.0</ele><time>2026-04-19T13:49:35Z</time></trkpt><trkpt lat="42.828440221908465" lon="13.206186962982633"><ele>1421.0</ele><time>2026-04-19T13:49:36Z</time></trkpt><trkpt lat="42.828382401645165" lon="13.206235457551147"><ele>1421.0</ele><time>2026-04-19T13:49:37Z</time></trkpt><trkpt lat="42.82831982184961" lon="13.206290362385598"><ele>1421.0</ele><time>2026-04-19T13:49:38Z</time></trkpt><trkpt lat="42.8282420814864" lon="13.20632432793815"><ele>1421.0</ele><time>2026-04-19T13:49:39Z</time></trkpt><trkpt lat="42.82818053580555" lon="13.206389927669536"><ele>1421.0</ele><time>2026-04-19T13:49:40Z</time></trkpt><trkpt lat="42.82811870205792" lon="13.206442782546548"><ele>1421.0</ele><time>2026-04-19T13:49:41Z</time></trkpt><trkpt lat="42.82805464453761" lon="13.206501087363534"><ele>1421.0</ele><time>2026-04-19T13:49:42Z</time></trkpt><trkpt lat="42.82799627358036" lon="13.206560115542805"><ele>1421.0</ele><time>2026-04-19T13:49:43Z</time></trkpt><trkpt lat="42.827919522477664" lon="13.20661273812834"><ele>1421.0</ele><time>2026-04-19T13:49:44Z</time></trkpt><trkpt lat="42.82786495128566" lon="13.206703830681349"><ele>1421.0</ele><time>2026-04-19T13:49:45Z</time></trkpt><trkpt lat="42.82780496750572" lon="13.206783273140653"><ele>1421.0</ele><time>2026-04-19T13:49:46Z</time></trkpt><trkpt lat="42.82775534801276" lon="13.206875932834265"><ele>1421.0</ele><time>2026-04-19T13:49:47Z</time></trkpt><trkpt lat="42.827714383584635" lon="13.20696830886893"><ele>1421.0</ele><time>2026-04-19T13:49:48Z</time></trkpt><trkpt lat="42.82768230028539" lon="13.207070300708365"><ele>1421.0</ele><time>2026-04-19T13:49:49Z</time></trkpt><trkpt lat="42.82765213883578" lon="13.207184787830142"><ele>1421.0</ele><time>2026-04-19T13:49:50Z</time></trkpt><trkpt lat="42.827619394312286" lon="13.20729310424485"><ele>1421.0</ele><time>2026-04-19T13:49:51Z</time></trkpt><trkpt lat="42.82758442371331" lon="13.207404904224953"><ele>1421.0</ele><time>2026-04-19T13:49:52Z</time></trkpt><trkpt lat="42.827550028908476" lon="13.207529799578483"><ele>1421.0</ele><time>2026-04-19T13:49:53Z</time></trkpt><trkpt lat="42.827494165573334" lon="13.207651472721444"><ele>1417.4</ele><time>2026-04-19T13:49:54Z</time></trkpt><trkpt lat="42.827471717033674" lon="13.207790327519765"><ele>1413.8</ele><time>2026-04-19T13:49:55Z</time></trkpt><trkpt lat="42.82743901459556" lon="13.207910768257054"><ele>1410.2</ele><time>2026-04-19T13:49:56Z</time></trkpt><trkpt lat="42.82741147087985" lon="13.208035660011653"><ele>1406.6000000000001</ele><time>2026-04-19T13:49:57Z</time></trkpt><trkpt lat="42.82739638941026" lon="13.208164319600192"><ele>1403.0</ele><time>2026-04-19T13:49:58Z</time></trkpt><trkpt lat="42.827390901851714" lon="13.208288081670359"><ele>1403.0</ele><time>2026-04-19T13:49:59Z</time></trkpt><trkpt lat="42.82739059785629" lon="13.20842038735821"><ele>1403.0</ele><time>2026-04-19T13:50:00Z</time></trkpt><trkpt lat="42.82739496086423" lon="13.208568022205307"><ele>1403.0</ele><time>2026-04-19T13:50:01Z</time></trkpt><trkpt lat="42.827401703621454" lon="13.20872579739083"><ele>1403.0</ele><time>2026-04-19T13:50:02Z</time></trkpt><trkpt lat="42.82740577980062" lon="13.208893020139296"><ele>1403.0</ele><time>2026-04-19T13:50:03Z</time></trkpt><trkpt lat="42.827411957260836" lon="13.209055542086285"><ele>1401.4</ele><time>2026-04-19T13:50:04Z</time></trkpt><trkpt lat="42.82742382673012" lon="13.209218034139807"><ele>1399.8000000000002</ele><time>2026-04-19T13:50:05Z</time></trkpt><trkpt lat="42.82744468916711" lon="13.209368226537169"><ele>1398.2</ele><time>2026-04-19T13:50:06Z</time></trkpt><trkpt lat="42.82747750017238" lon="13.209508320273656"><ele>1396.6</ele><time>2026-04-19T13:50:07Z</time></trkpt><trkpt lat="42.82751315965123" lon="13.209641906696252"><ele>1395.0</ele><time>2026-04-19T13:50:08Z</time></trkpt><trkpt lat="42.82755226184496" lon="13.209773637757028"><ele>1398.2</ele><time>2026-04-19T13:50:09Z</time></trkpt><trkpt lat="42.82759184465713" lon="13.209910383425326"><ele>1401.4</ele><time>2026-04-19T13:50:10Z</time></trkpt><trkpt lat="42.82762906916616" lon="13.210048238674677"><ele>1404.6</ele><time>2026-04-19T13:50:11Z</time></trkpt><trkpt lat="42.827666876891236" lon="13.21018935290626"><ele>1407.8</ele><time>2026-04-19T13:50:12Z</time></trkpt><trkpt lat="42.827705360027835" lon="13.21033245352115"><ele>1411.0</ele><time>2026-04-19T13:50:13Z</time></trkpt><trkpt lat="42.827746892818006" lon="13.210476697411792"><ele>1411.0</ele><time>2026-04-19T13:50:14Z</time></trkpt><trkpt lat="42.82779189261871" lon="13.210617948371228"><ele>1411.0</ele><time>2026-04-19T13:50:15Z</time></trkpt><trkpt lat="42.82784029660362" lon="13.210749391527056"><ele>1411.0</ele><time>2026-04-19T13:50:16Z</time></trkpt><trkpt lat="42.827893628598794" lon="13.21087258875928"><ele>1411.0</ele><time>2026-04-19T13:50:17Z</time></trkpt><trkpt lat="42.82794914034638" lon="13.210987769515745"><ele>1411.0</ele><time>2026-04-19T13:50:18Z</time></trkpt><trkpt lat="42.828001940177856" lon="13.21110342647861"><ele>1406.8</ele><time>2026-04-19T13:50:19Z</time></trkpt><trkpt lat="42.8280528321479" lon="13.211212200627738"><ele>1402.6</ele><time>2026-04-19T13:50:20Z</time></trkpt><trkpt lat="42.82810363225122" lon="13.211322352706055"><ele>1398.4</ele><time>2026-04-19T13:50:21Z</time></trkpt><trkpt lat="42.82815547614204" lon="13.211434529266878"><ele>1394.2</ele><time>2026-04-19T13:50:22Z</time></trkpt><trkpt lat="42.82820246784908" lon="13.211552113749125"><ele>1390.0</ele><time>2026-04-19T13:50:23Z</time></trkpt><trkpt lat="42.82824694991854" lon="13.21167799260877"><ele>1386.6</ele><time>2026-04-19T13:50:24Z</time></trkpt><trkpt lat="42.82828726778265" lon="13.211807110375673"><ele>1383.2</ele><time>2026-04-19T13:50:25Z</time></trkpt><trkpt lat="42.82832424962723" lon="13.211937984242622"><ele>1379.8000000000002</ele><time>2026-04-19T13:50:26Z</time></trkpt><trkpt lat="42.82835943367048" lon="13.212068309920365"><ele>1376.4</ele><time>2026-04-19T13:50:27Z</time></trkpt><trkpt lat="42.82839386160136" lon="13.212200241449022"><ele>1373.0</ele><time>2026-04-19T13:50:28Z</time></trkpt><trkpt lat="42.828421858151465" lon="13.212335624992063"><ele>1372.2</ele><time>2026-04-19T13:50:29Z</time></trkpt><trkpt lat="42.82844348219942" lon="13.212473604275644"><ele>1371.4</ele><time>2026-04-19T13:50:30Z</time></trkpt><trkpt lat="42.82845705570069" lon="13.212617392854582"><ele>1370.6000000000001</ele><time>2026-04-19T13:50:31Z</time></trkpt><trkpt lat="42.82847109333287" lon="13.21276608052904"><ele>1369.8000000000002</ele><time>2026-04-19T13:50:31.999Z</time></trkpt><trkpt lat="42.82848642817982" lon="13.212910036112985"><ele>1369.0</ele><time>2026-04-19T13:50:32.999Z</time></trkpt><trkpt lat="42.828501932202116" lon="13.213046903335968"><ele>1366.6</ele><time>2026-04-19T13:50:33.999Z</time></trkpt><trkpt lat="42.82852052139396" lon="13.213181080852063"><ele>1364.2</ele><time>2026-04-19T13:50:34.999Z</time></trkpt><trkpt lat="42.82854687686237" lon="13.2133100482578"><ele>1361.8</ele><time>2026-04-19T13:50:35.999Z</time></trkpt><trkpt lat="42.82858799313882" lon="13.213428388789396"><ele>1359.3999999999999</ele><time>2026-04-19T13:50:36.999Z</time></trkpt><trkpt lat="42.828644837710236" lon="13.21353455179665"><ele>1357.0</ele><time>2026-04-19T13:50:37.999Z</time></trkpt><trkpt lat="42.828710509175245" lon="13.21362847717639"><ele>1357.0</ele><time>2026-04-19T13:50:38.999Z</time></trkpt><trkpt lat="42.8287837357076" lon="13.213712145015345"><ele>1357.0</ele><time>2026-04-19T13:50:39.999Z</time></trkpt><trkpt lat="42.828859502560945" lon="13.213788200145864"><ele>1357.0</ele><time>2026-04-19T13:50:40.999Z</time></trkpt><trkpt lat="42.82893851660934" lon="13.213857469012247"><ele>1357.0</ele><time>2026-04-19T13:50:41.999Z</time></trkpt><trkpt lat="42.82901359479549" lon="13.213925691969536"><ele>1357.0</ele><time>2026-04-19T13:50:42.999Z</time></trkpt><trkpt lat="42.82908821856489" lon="13.213997840656418"><ele>1355.6666666666665</ele><time>2026-04-19T13:50:43.999Z</time></trkpt><trkpt lat="42.82916001418789" lon="13.214056617729527"><ele>1354.3333333333333</ele><time>2026-04-19T13:50:44.999Z</time></trkpt><trkpt lat="42.82922737106709" lon="13.214110110701258"><ele>1353.0</ele><time>2026-04-19T13:50:45.999Z</time></trkpt><trkpt lat="42.82928355191105" lon="13.214191482996698"><ele>1351.6666666666667</ele><time>2026-04-19T13:50:46.999Z</time></trkpt><trkpt lat="42.829358141347626" lon="13.214246150485106"><ele>1350.3333333333335</ele><time>2026-04-19T13:50:48Z</time></trkpt><trkpt lat="42.829422060609474" lon="13.214338860194848"><ele>1349.0</ele><time>2026-04-19T13:50:49Z</time></trkpt><trkpt lat="42.82946512863881" lon="13.214446419504227"><ele>1347.0</ele><time>2026-04-19T13:50:50Z</time></trkpt><trkpt lat="42.829479959524086" lon="13.214561912225014"><ele>1345.0</ele><time>2026-04-19T13:50:51Z</time></trkpt><trkpt lat="42.82946738178657" lon="13.214682827047515"><ele>1343.0</ele><time>2026-04-19T13:50:52Z</time></trkpt><trkpt lat="42.82941126521191" lon="13.214794142051135"><ele>1341.0</ele><time>2026-04-19T13:50:53Z</time></trkpt><trkpt lat="42.82934135122164" lon="13.214895122644814"><ele>1339.0</ele><time>2026-04-19T13:50:54Z</time></trkpt><trkpt lat="42.829254812864285" lon="13.214991989868782"><ele>1338.0</ele><time>2026-04-19T13:50:55Z</time></trkpt><trkpt lat="42.829116144450914" lon="13.215003611798776"><ele>1337.0</ele><time>2026-04-19T13:50:56Z</time></trkpt><trkpt lat="42.828941358421524" lon="13.214997836772977"><ele>1336.0</ele><time>2026-04-19T13:50:57Z</time></trkpt><trkpt lat="42.82872238519267" lon="13.214989503462627"><ele>1336.0</ele><time>2026-04-19T13:50:58Z</time></trkpt><trkpt lat="42.82847801268873" lon="13.214988146183481"><ele>1336.0</ele><time>2026-04-19T13:50:59Z</time></trkpt><trkpt lat="42.828252838967884" lon="13.21498042449149"><ele>1333.6666666666665</ele><time>2026-04-19T13:51:00Z</time></trkpt><trkpt lat="42.82807325854303" lon="13.21498045254332"><ele>1331.3333333333333</ele><time>2026-04-19T13:51:01Z</time></trkpt><trkpt lat="42.82793524083139" lon="13.214954106092648"><ele>1329.0</ele><time>2026-04-19T13:51:02Z</time></trkpt><trkpt lat="42.8278259219501" lon="13.214850112866419"><ele>1327.3333333333333</ele><time>2026-04-19T13:51:03Z</time></trkpt><trkpt lat="42.8277426187089" lon="13.214729758878727"><ele>1325.6666666666665</ele><time>2026-04-19T13:51:04Z</time></trkpt><trkpt lat="42.82764956872314" lon="13.214571281493257"><ele>1324.0</ele><time>2026-04-19T13:51:05Z</time></trkpt><trkpt lat="42.82752842340579" lon="13.214377078223263"><ele>1324.0</ele><time>2026-04-19T13:51:06Z</time></trkpt><trkpt lat="42.82742019945363" lon="13.214156921670604"><ele>1324.0</ele><time>2026-04-19T13:51:07Z</time></trkpt><trkpt lat="42.827287536229896" lon="13.213988605949323"><ele>1324.0</ele><time>2026-04-19T13:51:08Z</time></trkpt><trkpt lat="42.82712699509395" lon="13.21388717544987"><ele>1328.0</ele><time>2026-04-19T13:51:09Z</time></trkpt><trkpt lat="42.82691536501846" lon="13.213828047733553"><ele>1332.0</ele><time>2026-04-19T13:51:10Z</time></trkpt><trkpt lat="42.82667039299619" lon="13.213812742648138"><ele>1324.0</ele><time>2026-04-19T13:51:11Z</time></trkpt><trkpt lat="42.82639650488961" lon="13.213808835729958"><ele>1316.0</ele><time>2026-04-19T13:51:12Z</time></trkpt><trkpt lat="42.82611097333483" lon="13.213796653319402"><ele>1311.5</ele><time>2026-04-19T13:51:13Z</time></trkpt><trkpt lat="42.82583200380292" lon="13.213772262352261"><ele>1307.0</ele><time>2026-04-19T13:51:14Z</time></trkpt><trkpt lat="42.82556838605221" lon="13.213747260271944"><ele>1307.0</ele><time>2026-04-19T13:51:15Z</time></trkpt><trkpt lat="42.82532822849886" lon="13.213721370574012"><ele>1307.0</ele><time>2026-04-19T13:51:16Z</time></trkpt><trkpt lat="42.825103041277046" lon="13.213698157154457"><ele>1306.6666666666667</ele><time>2026-04-19T13:51:17Z</time></trkpt><trkpt lat="42.82489635508627" lon="13.213679601689593"><ele>1306.3333333333333</ele><time>2026-04-19T13:51:18Z</time></trkpt><trkpt lat="42.82470300431107" lon="13.213659374184177"><ele>1306.0</ele><time>2026-04-19T13:51:19Z</time></trkpt><trkpt lat="42.824503766072574" lon="13.213642050967305"><ele>1305.0</ele><time>2026-04-19T13:51:20Z</time></trkpt><trkpt lat="42.82428628201492" lon="13.213608373032429"><ele>1304.0</ele><time>2026-04-19T13:51:21Z</time></trkpt><trkpt lat="42.82405385524689" lon="13.213584852823137"><ele>1304.0</ele><time>2026-04-19T13:51:22Z</time></trkpt><trkpt lat="42.823803949181766" lon="13.2135592998095"><ele>1304.0</ele><time>2026-04-19T13:51:23Z</time></trkpt><trkpt lat="42.823545605018246" lon="13.213551807856971"><ele>1304.0</ele><time>2026-04-19T13:51:24Z</time></trkpt><trkpt lat="42.82328569581571" lon="13.213521260590122"><ele>1304.0</ele><time>2026-04-19T13:51:25Z</time></trkpt><trkpt lat="42.823020112524354" lon="13.213493048582542"><ele>1304.0</ele><time>2026-04-19T13:51:26Z</time></trkpt><trkpt lat="42.82276048322475" lon="13.213467354207676"><ele>1304.0</ele><time>2026-04-19T13:51:27Z</time></trkpt><trkpt lat="42.82251652692096" lon="13.213445239829296"><ele>1303.3333333333335</ele><time>2026-04-19T13:51:28Z</time></trkpt><trkpt lat="42.822288785863755" lon="13.213420378352346"><ele>1302.6666666666667</ele><time>2026-04-19T13:51:29Z</time></trkpt><trkpt lat="42.82207683028071" lon="13.213398798032367"><ele>1302.0</ele><time>2026-04-19T13:51:30Z</time></trkpt><trkpt lat="42.82187918314117" lon="13.213378072163028"><ele>1302.3333333333333</ele><time>2026-04-19T13:51:31Z</time></trkpt><trkpt lat="42.821687980208985" lon="13.21335725093116"><ele>1302.6666666666665</ele><time>2026-04-19T13:51:32Z</time></trkpt><trkpt lat="42.82151183772375" lon="13.213342849439721"><ele>1303.0</ele><time>2026-04-19T13:51:33Z</time></trkpt><trkpt lat="42.82134642992448" lon="13.213331058770322"><ele>1303.0</ele><time>2026-04-19T13:51:34Z</time></trkpt><trkpt lat="42.82119925306304" lon="13.213314537131623"><ele>1303.0</ele><time>2026-04-19T13:51:35Z</time></trkpt><trkpt lat="42.82107528301682" lon="13.213300350090641"><ele>1303.0</ele><time>2026-04-19T13:51:35.999Z</time></trkpt><trkpt lat="42.82097548422108" lon="13.21328883642678"><ele>1303.0</ele><time>2026-04-19T13:51:36.999Z</time></trkpt><trkpt lat="42.82089332065823" lon="13.213281053713562"><ele>1302.6000000000001</ele><time>2026-04-19T13:51:37.999Z</time></trkpt><trkpt lat="42.8207993972448" lon="13.21325376227762"><ele>1302.2</ele><time>2026-04-19T13:51:39.999Z</time></trkpt><trkpt lat="42.820777854612615" lon="13.213440495466521"><ele>1301.8</ele><time>2026-04-19T13:51:40.999Z</time></trkpt><trkpt lat="42.82078519511001" lon="13.213552353262308"><ele>1301.4</ele><time>2026-04-19T13:51:41.999Z</time></trkpt><trkpt lat="42.82079813901867" lon="13.21371248962653"><ele>1301.0</ele><time>2026-04-19T13:51:42.999Z</time></trkpt><trkpt lat="42.82076653727537" lon="13.213906882609935"><ele>1301.3333333333335</ele><time>2026-04-19T13:51:43.999Z</time></trkpt><trkpt lat="42.82073782314832" lon="13.214146864034305"><ele>1301.6666666666667</ele><time>2026-04-19T13:51:44.999Z</time></trkpt><trkpt lat="42.82071763330499" lon="13.214423607306552"><ele>1302.0</ele><time>2026-04-19T13:51:45.999Z</time></trkpt><trkpt lat="42.820682856735665" lon="13.21470828134567"><ele>1302.5</ele><time>2026-04-19T13:51:46.999Z</time></trkpt><trkpt lat="42.820645660981135" lon="13.215007795845098"><ele>1303.0</ele><time>2026-04-19T13:51:47.999Z</time></trkpt><trkpt lat="42.82060420652433" lon="13.215339783217551"><ele>1304.0</ele><time>2026-04-19T13:51:48.999Z</time></trkpt><trkpt lat="42.82056062657419" lon="13.215692544766037"><ele>1305.0</ele><time>2026-04-19T13:51:49.999Z</time></trkpt><trkpt lat="42.820515746825365" lon="13.216065206368825"><ele>1305.0</ele><time>2026-04-19T13:51:50.999Z</time></trkpt><trkpt lat="42.82047345011438" lon="13.216412847644762"><ele>1305.0</ele><time>2026-04-19T13:51:51.999Z</time></trkpt><trkpt lat="42.820417200848794" lon="13.216740851981697"><ele>1304.5</ele><time>2026-04-19T13:51:52.999Z</time></trkpt><trkpt lat="42.820376337384424" lon="13.217071408519285"><ele>1304.0</ele><time>2026-04-19T13:51:53.999Z</time></trkpt><trkpt lat="42.820336577381646" lon="13.21739267152296"><ele>1303.5</ele><time>2026-04-19T13:51:54.999Z</time></trkpt><trkpt lat="42.820296217765105" lon="13.217717581161693"><ele>1303.0</ele><time>2026-04-19T13:51:55.999Z</time></trkpt><trkpt lat="42.82025446656686" lon="13.218053348180447"><ele>1303.0</ele><time>2026-04-19T13:51:56.999Z</time></trkpt><trkpt lat="42.8202105598155" lon="13.218408851593905"><ele>1303.0</ele><time>2026-04-19T13:51:57.999Z</time></trkpt><trkpt lat="42.820164981645256" lon="13.218780917172513"><ele>1301.5</ele><time>2026-04-19T13:51:58.999Z</time></trkpt><trkpt lat="42.82012663367051" lon="13.219176012214206"><ele>1300.0</ele><time>2026-04-19T13:51:59.999Z</time></trkpt><trkpt lat="42.820069985538616" lon="13.219584531256512"><ele>1300.5</ele><time>2026-04-19T13:52:00.999Z</time></trkpt><trkpt lat="42.82001598061678" lon="13.220007172831144"><ele>1301.0</ele><time>2026-04-19T13:52:01.999Z</time></trkpt><trkpt lat="42.819963837822456" lon="13.220427096912863"><ele>1301.0</ele><time>2026-04-19T13:52:02.999Z</time></trkpt><trkpt lat="42.81991317111306" lon="13.22083556837547"><ele>1301.0</ele><time>2026-04-19T13:52:03.999Z</time></trkpt><trkpt lat="42.81986129161921" lon="13.221241788818174"><ele>1301.0</ele><time>2026-04-19T13:52:04.999Z</time></trkpt><trkpt lat="42.819812343574796" lon="13.221643702486842"><ele>1301.0</ele><time>2026-04-19T13:52:05.999Z</time></trkpt><trkpt lat="42.81976371035323" lon="13.222042524188408"><ele>1301.5</ele><time>2026-04-19T13:52:06.999Z</time></trkpt><trkpt lat="42.81971658067878" lon="13.222439111589459"><ele>1302.0</ele><time>2026-04-19T13:52:07.999Z</time></trkpt><trkpt lat="42.819669096069376" lon="13.222835200898565"><ele>1302.5</ele><time>2026-04-19T13:52:08.999Z</time></trkpt><trkpt lat="42.81962092304207" lon="13.223220131928258"><ele>1303.0</ele><time>2026-04-19T13:52:09.999Z</time></trkpt><trkpt lat="42.8195728449368" lon="13.223593816560498"><ele>1303.0</ele><time>2026-04-19T13:52:10.999Z</time></trkpt><trkpt lat="42.81953015262081" lon="13.223952541946646"><ele>1303.0</ele><time>2026-04-19T13:52:11.999Z</time></trkpt><trkpt lat="42.81947390551929" lon="13.224287102271434"><ele>1304.0</ele><time>2026-04-19T13:52:12.999Z</time></trkpt><trkpt lat="42.81943302974623" lon="13.22462091649045"><ele>1305.0</ele><time>2026-04-19T13:52:13.999Z</time></trkpt><trkpt lat="42.81938957404597" lon="13.224975800168671"><ele>1305.0</ele><time>2026-04-19T13:52:14.999Z</time></trkpt><trkpt lat="42.81934493969091" lon="13.22534030850632"><ele>1305.0</ele><time>2026-04-19T13:52:15.999Z</time></trkpt><trkpt lat="42.81929939175415" lon="13.225712278104254"><ele>1303.0</ele><time>2026-04-19T13:52:16.999Z</time></trkpt><trkpt lat="42.81926852580692" lon="13.226098204208581"><ele>1301.0</ele><time>2026-04-19T13:52:17.999Z</time></trkpt><trkpt lat="42.819212472656226" lon="13.226494527034351"><ele>1301.0</ele><time>2026-04-19T13:52:18.999Z</time></trkpt><trkpt lat="42.81916338966147" lon="13.226907426124647"><ele>1301.0</ele><time>2026-04-19T13:52:19.999Z</time></trkpt><trkpt lat="42.819117456736976" lon="13.227313788295696"><ele>1300.5</ele><time>2026-04-19T13:52:20.999Z</time></trkpt><trkpt lat="42.819073480596984" lon="13.227709854121263"><ele>1300.0</ele><time>2026-04-19T13:52:21.999Z</time></trkpt><trkpt lat="42.81903244332802" lon="13.228091201415918"><ele>1299.0</ele><time>2026-04-19T13:52:22.999Z</time></trkpt><trkpt lat="42.81899015214807" lon="13.228465804075315"><ele>1298.0</ele><time>2026-04-19T13:52:23.999Z</time></trkpt><trkpt lat="42.81894547481225" lon="13.228824325163238"><ele>1298.5</ele><time>2026-04-19T13:52:24.999Z</time></trkpt><trkpt lat="42.8188951794451" lon="13.229159200745546"><ele>1299.0</ele><time>2026-04-19T13:52:25.999Z</time></trkpt><trkpt lat="42.81883883495161" lon="13.229476249067151"><ele>1299.0</ele><time>2026-04-19T13:52:26.999Z</time></trkpt><trkpt lat="42.81876843632758" lon="13.229777288001452"><ele>1299.0</ele><time>2026-04-19T13:52:27.999Z</time></trkpt><trkpt lat="42.818675888114015" lon="13.230048014744904"><ele>1299.5</ele><time>2026-04-19T13:52:28.999Z</time></trkpt><trkpt lat="42.818555577311045" lon="13.230306237096546"><ele>1300.0</ele><time>2026-04-19T13:52:29.999Z</time></trkpt><trkpt lat="42.818403167622265" lon="13.230554299140241"><ele>1304.0</ele><time>2026-04-19T13:52:30.999Z</time></trkpt><trkpt lat="42.81822143786625" lon="13.230780838453173"><ele>1308.0</ele><time>2026-04-19T13:52:31.999Z</time></trkpt><trkpt lat="42.81801616674529" lon="13.230995102997934"><ele>1308.0</ele><time>2026-04-19T13:52:32.999Z</time></trkpt><trkpt lat="42.81780894868886" lon="13.231192260614842"><ele>1308.0</ele><time>2026-04-19T13:52:33.999Z</time></trkpt><trkpt lat="42.81760577399548" lon="13.231383226501217"><ele>1310.5</ele><time>2026-04-19T13:52:34.999Z</time></trkpt><trkpt lat="42.8174011618403" lon="13.23156658270151"><ele>1313.0</ele><time>2026-04-19T13:52:35.999Z</time></trkpt><trkpt lat="42.81717710308827" lon="13.231727897170352"><ele>1313.0</ele><time>2026-04-19T13:52:36.999Z</time></trkpt><trkpt lat="42.81693242447799" lon="13.231844837734743"><ele>1313.0</ele><time>2026-04-19T13:52:37.999Z</time></trkpt><trkpt lat="42.81665958087397" lon="13.231930262130984"><ele>1311.5</ele><time>2026-04-19T13:52:38.999Z</time></trkpt><trkpt lat="42.8163935429244" lon="13.231994843354295"><ele>1310.0</ele><time>2026-04-19T13:52:39.999Z</time></trkpt><trkpt lat="42.816116651299296" lon="13.23208513246371"><ele>1313.0</ele><time>2026-04-19T13:52:40.999Z</time></trkpt><trkpt lat="42.81585616310771" lon="13.232172813689305"><ele>1316.0</ele><time>2026-04-19T13:52:41.999Z</time></trkpt><trkpt lat="42.815626694857734" lon="13.23225143358703"><ele>1318.3333333333335</ele><time>2026-04-19T13:52:42.999Z</time></trkpt><trkpt lat="42.81541368377036" lon="13.232319277039805"><ele>1320.6666666666667</ele><time>2026-04-19T13:52:43.999Z</time></trkpt><trkpt lat="42.81521681273211" lon="13.232382602924453"><ele>1323.0</ele><time>2026-04-19T13:52:44.999Z</time></trkpt><trkpt lat="42.81504433381922" lon="13.232466972980635"><ele>1323.0</ele><time>2026-04-19T13:52:45.999Z</time></trkpt><trkpt lat="42.81486994749174" lon="13.232608154066517"><ele>1323.0</ele><time>2026-04-19T13:52:46.999Z</time></trkpt><trkpt lat="42.81469741427183" lon="13.232795924072814"><ele>1323.0</ele><time>2026-04-19T13:52:47.999Z</time></trkpt><trkpt lat="42.81453237554689" lon="13.232985486355751"><ele>1324.3333333333333</ele><time>2026-04-19T13:52:48.999Z</time></trkpt><trkpt lat="42.81438380259814" lon="13.233164612592487"><ele>1325.6666666666665</ele><time>2026-04-19T13:52:49.999Z</time></trkpt><trkpt lat="42.814253600119066" lon="13.233351339357323"><ele>1327.0</ele><time>2026-04-19T13:52:50.999Z</time></trkpt><trkpt lat="42.81413655536862" lon="13.233555246984118"><ele>1327.0</ele><time>2026-04-19T13:52:51.999Z</time></trkpt><trkpt lat="42.81402380925143" lon="13.233762684190824"><ele>1327.0</ele><time>2026-04-19T13:52:52.999Z</time></trkpt><trkpt lat="42.81391135453198" lon="13.2339620161737"><ele>1327.0</ele><time>2026-04-19T13:52:54Z</time></trkpt><trkpt lat="42.81378599781245" lon="13.234140312266799"><ele>1328.6666666666665</ele><time>2026-04-19T13:52:55Z</time></trkpt><trkpt lat="42.81363646098861" lon="13.234300229013122"><ele>1330.3333333333333</ele><time>2026-04-19T13:52:56Z</time></trkpt><trkpt lat="42.81346117027245" lon="13.234428192422719"><ele>1332.0</ele><time>2026-04-19T13:52:57Z</time></trkpt><trkpt lat="42.813280687644145" lon="13.234537409759538"><ele>1332.0</ele><time>2026-04-19T13:52:58Z</time></trkpt><trkpt lat="42.81309554022038" lon="13.234649795893283"><ele>1332.0</ele><time>2026-04-19T13:52:59Z</time></trkpt><trkpt lat="42.81291060947438" lon="13.234759078723863"><ele>1332.0</ele><time>2026-04-19T13:53:00Z</time></trkpt><trkpt lat="42.81273798239326" lon="13.234850929525976"><ele>1334.6666666666667</ele><time>2026-04-19T13:53:01Z</time></trkpt><trkpt lat="42.81256962247585" lon="13.23492765847153"><ele>1337.3333333333335</ele><time>2026-04-19T13:53:02Z</time></trkpt><trkpt lat="42.81241873865463" lon="13.235004944646974"><ele>1340.0</ele><time>2026-04-19T13:53:03Z</time></trkpt><trkpt lat="42.81226579828764" lon="13.235107227070262"><ele>1340.0</ele><time>2026-04-19T13:53:04Z</time></trkpt><trkpt lat="42.81211790515714" lon="13.235254356716899"><ele>1340.0</ele><time>2026-04-19T13:53:05Z</time></trkpt><trkpt lat="42.81197075642442" lon="13.23541716420771"><ele>1340.0</ele><time>2026-04-19T13:53:06Z</time></trkpt><trkpt lat="42.81181558513671" lon="13.235574473752331"><ele>1342.0</ele><time>2026-04-19T13:53:07Z</time></trkpt><trkpt lat="42.811662332445124" lon="13.23573362425469"><ele>1344.0</ele><time>2026-04-19T13:53:08Z</time></trkpt><trkpt lat="42.81151475967374" lon="13.23589556412623"><ele>1346.0</ele><time>2026-04-19T13:53:09Z</time></trkpt><trkpt lat="42.81138797594264" lon="13.236068429615642"><ele>1346.0</ele><time>2026-04-19T13:53:10Z</time></trkpt><trkpt lat="42.81127185316987" lon="13.236268912791875"><ele>1346.0</ele><time>2026-04-19T13:53:11Z</time></trkpt><trkpt lat="42.811159924844" lon="13.236480280714687"><ele>1346.0</ele><time>2026-04-19T13:53:12Z</time></trkpt><trkpt lat="42.81105576586952" lon="13.236694847189945"><ele>1345.6666666666667</ele><time>2026-04-19T13:53:13Z</time></trkpt><trkpt lat="42.81093637696159" lon="13.236926302156999"><ele>1345.3333333333333</ele><time>2026-04-19T13:53:14Z</time></trkpt><trkpt lat="42.81079452723575" lon="13.237120915179819"><ele>1345.0</ele><time>2026-04-19T13:53:15Z</time></trkpt><trkpt lat="42.81061519257274" lon="13.237261212542197"><ele>1351.0</ele><time>2026-04-19T13:53:16Z</time></trkpt><trkpt lat="42.81039911707508" lon="13.237368366553842"><ele>1357.0</ele><time>2026-04-19T13:53:17Z</time></trkpt><trkpt lat="42.81016195085071" lon="13.237459572090748"><ele>1356.0</ele><time>2026-04-19T13:53:18Z</time></trkpt><trkpt lat="42.80991745959325" lon="13.237567626555746"><ele>1355.0</ele><time>2026-04-19T13:53:19Z</time></trkpt><trkpt lat="42.80966667726615" lon="13.237676663446443"><ele>1355.0</ele><time>2026-04-19T13:53:20Z</time></trkpt><trkpt lat="42.80940970137513" lon="13.237787189216869"><ele>1355.0</ele><time>2026-04-19T13:53:21Z</time></trkpt><trkpt lat="42.80915929170982" lon="13.237904154328755"><ele>1353.5</ele><time>2026-04-19T13:53:22Z</time></trkpt><trkpt lat="42.80891188052576" lon="13.238051749813787"><ele>1352.0</ele><time>2026-04-19T13:53:23Z</time></trkpt><trkpt lat="42.808658209568094" lon="13.23821953025155"><ele>1357.0</ele><time>2026-04-19T13:53:24Z</time></trkpt><trkpt lat="42.80840789103549" lon="13.238383017385663"><ele>1362.0</ele><time>2026-04-19T13:53:25Z</time></trkpt><trkpt lat="42.80818634304211" lon="13.238528065073597"><ele>1362.0</ele><time>2026-04-19T13:53:26Z</time></trkpt><trkpt lat="42.807984190680195" lon="13.238669395832497"><ele>1362.0</ele><time>2026-04-19T13:53:27Z</time></trkpt><trkpt lat="42.80779702717199" lon="13.238813692684055"><ele>1362.0</ele><time>2026-04-19T13:53:28Z</time></trkpt><trkpt lat="42.80762484784786" lon="13.238963773649276"><ele>1363.5</ele><time>2026-04-19T13:53:29Z</time></trkpt><trkpt lat="42.80749469918286" lon="13.239100977244412"><ele>1365.0</ele><time>2026-04-19T13:53:30Z</time></trkpt><trkpt lat="42.80741206882511" lon="13.239229816781828"><ele>1366.5</ele><time>2026-04-19T13:53:31Z</time></trkpt><trkpt lat="42.80736467617321" lon="13.23937411647422"><ele>1368.0</ele><time>2026-04-19T13:53:32Z</time></trkpt><trkpt lat="42.80734028912948" lon="13.239550969272397"><ele>1368.0</ele><time>2026-04-19T13:53:32.999Z</time></trkpt><trkpt lat="42.80731260029539" lon="13.239735818753726"><ele>1368.0</ele><time>2026-04-19T13:53:33.999Z</time></trkpt><trkpt lat="42.80725501070065" lon="13.239881215458258"><ele>1368.0</ele><time>2026-04-19T13:53:34.999Z</time></trkpt><trkpt lat="42.807155262403654" lon="13.23996391009537"><ele>1368.0</ele><time>2026-04-19T13:53:35.999Z</time></trkpt><trkpt lat="42.80703498701096" lon="13.239970281565588"><ele>1367.75</ele><time>2026-04-19T13:53:36.999Z</time></trkpt><trkpt lat="42.80691854513028" lon="13.239938811894644"><ele>1367.5</ele><time>2026-04-19T13:53:37.999Z</time></trkpt><trkpt lat="42.8068066059845" lon="13.239832747418708"><ele>1367.25</ele><time>2026-04-19T13:53:38.999Z</time></trkpt><trkpt lat="42.80669643431022" lon="13.239664765009474"><ele>1367.0</ele><time>2026-04-19T13:53:39.999Z</time></trkpt><trkpt lat="42.806550437960645" lon="13.239482870196843"><ele>1367.0</ele><time>2026-04-19T13:53:40.999Z</time></trkpt><trkpt lat="42.806379697443276" lon="13.239327172594708"><ele>1367.0</ele><time>2026-04-19T13:53:41.999Z</time></trkpt><trkpt lat="42.806198284439574" lon="13.239239951649168"><ele>1367.0</ele><time>2026-04-19T13:53:42.999Z</time></trkpt><trkpt lat="42.80602642869973" lon="13.239225941974642"><ele>1370.3333333333335</ele><time>2026-04-19T13:53:43.999Z</time></trkpt><trkpt lat="42.805852756502155" lon="13.239276402101625"><ele>1373.6666666666667</ele><time>2026-04-19T13:53:44.999Z</time></trkpt><trkpt lat="42.80566768419535" lon="13.239366882454785"><ele>1377.0</ele><time>2026-04-19T13:53:45.999Z</time></trkpt><trkpt lat="42.80550746678261" lon="13.239491506422347"><ele>1377.0</ele><time>2026-04-19T13:53:46.999Z</time></trkpt><trkpt lat="42.805389854485426" lon="13.239611782988588"><ele>1377.0</ele><time>2026-04-19T13:53:47.999Z</time></trkpt><trkpt lat="42.80532521491284" lon="13.239748182667258"><ele>1377.0</ele><time>2026-04-19T13:53:48.999Z</time></trkpt><trkpt lat="42.80527609851527" lon="13.239903178075062"><ele>1377.0</ele><time>2026-04-19T13:53:49.999Z</time></trkpt><trkpt lat="42.805254836185405" lon="13.240047792248038"><ele>1378.1666666666667</ele><time>2026-04-19T13:53:50.999Z</time></trkpt><trkpt lat="42.80522501739322" lon="13.24016406085969"><ele>1379.3333333333333</ele><time>2026-04-19T13:53:51.999Z</time></trkpt><trkpt lat="42.80520192637505" lon="13.24026259885386"><ele>1380.5</ele><time>2026-04-19T13:53:52.999Z</time></trkpt><trkpt lat="42.80516036964952" lon="13.240328734893133"><ele>1381.6666666666665</ele><time>2026-04-19T13:53:53.999Z</time></trkpt><trkpt lat="42.80509149272722" lon="13.240383683277619"><ele>1382.8333333333333</ele><time>2026-04-19T13:53:54.999Z</time></trkpt><trkpt lat="42.804991574243495" lon="13.240339875966919"><ele>1384.0</ele><time>2026-04-19T13:53:55.999Z</time></trkpt><trkpt lat="42.8048959335489" lon="13.240332013180602"><ele>1384.0</ele><time>2026-04-19T13:53:56.999Z</time></trkpt><trkpt lat="42.80480981065252" lon="13.240303930231589"><ele>1384.0</ele><time>2026-04-19T13:53:57.999Z</time></trkpt><trkpt lat="42.8047266423052" lon="13.240282706540933"><ele>1384.0</ele><time>2026-04-19T13:53:58.999Z</time></trkpt><trkpt lat="42.80464098869351" lon="13.240257419784232"><ele>1384.0</ele><time>2026-04-19T13:53:59.999Z</time></trkpt><trkpt lat="42.80455354848693" lon="13.240241637567799"><ele>1384.0</ele><time>2026-04-19T13:54:00.999Z</time></trkpt><trkpt lat="42.8044549774044" lon="13.240267198010734"><ele>1384.0</ele><time>2026-04-19T13:54:01.999Z</time></trkpt><trkpt lat="42.804357351928736" lon="13.240318783831485"><ele>1385.2</ele><time>2026-04-19T13:54:02.999Z</time></trkpt><trkpt lat="42.80427345448578" lon="13.240402024753417"><ele>1386.4</ele><time>2026-04-19T13:54:03.999Z</time></trkpt><trkpt lat="42.804204067743854" lon="13.240515253201977"><ele>1387.6</ele><time>2026-04-19T13:54:04.999Z</time></trkpt><trkpt lat="42.804156250913145" lon="13.24065027443727"><ele>1388.8</ele><time>2026-04-19T13:54:05.999Z</time></trkpt><trkpt lat="42.80413590422713" lon="13.240800225111633"><ele>1390.0</ele><time>2026-04-19T13:54:06.999Z</time></trkpt><trkpt lat="42.80415377904083" lon="13.240969769603279"><ele>1390.3333333333333</ele><time>2026-04-19T13:54:07.999Z</time></trkpt><trkpt lat="42.80416957778812" lon="13.241195304047931"><ele>1390.6666666666667</ele><time>2026-04-19T13:54:08.999Z</time></trkpt><trkpt lat="42.80419776710979" lon="13.241468662911073"><ele>1391.0</ele><time>2026-04-19T13:54:09.999Z</time></trkpt><trkpt lat="42.80422387904565" lon="13.24174369699229"><ele>1391.0</ele><time>2026-04-19T13:54:10.999Z</time></trkpt><trkpt lat="42.804260234891956" lon="13.242050886224343"><ele>1391.0</ele><time>2026-04-19T13:54:11.999Z</time></trkpt><trkpt lat="42.8042781649362" lon="13.242357483966567"><ele>1393.0</ele><time>2026-04-19T13:54:12.999Z</time></trkpt><trkpt lat="42.80429835168556" lon="13.242623435358471"><ele>1395.0</ele><time>2026-04-19T13:54:13.999Z</time></trkpt><trkpt lat="42.80431519336536" lon="13.242861915964141"><ele>1397.0</ele><time>2026-04-19T13:54:14.999Z</time></trkpt><trkpt lat="42.80432484854271" lon="13.243087596774485"><ele>1398.5</ele><time>2026-04-19T13:54:15.999Z</time></trkpt><trkpt lat="42.80431569155534" lon="13.243296752695883"><ele>1400.0</ele><time>2026-04-19T13:54:16.999Z</time></trkpt><trkpt lat="42.80428088001844" lon="13.243474697253594"><ele>1401.5</ele><time>2026-04-19T13:54:17.999Z</time></trkpt><trkpt lat="42.80418603839207" lon="13.243609260198237"><ele>1403.0</ele><time>2026-04-19T13:54:18.999Z</time></trkpt><trkpt lat="42.8040656288031" lon="13.243755511830582"><ele>1403.0</ele><time>2026-04-19T13:54:19.999Z</time></trkpt><trkpt lat="42.80391284102013" lon="13.243903554470696"><ele>1403.0</ele><time>2026-04-19T13:54:20.999Z</time></trkpt><trkpt lat="42.803745504499695" lon="13.244018404993716"><ele>1403.0</ele><time>2026-04-19T13:54:21.999Z</time></trkpt><trkpt lat="42.80359243278319" lon="13.244092959331242"><ele>1402.25</ele><time>2026-04-19T13:54:22.999Z</time></trkpt><trkpt lat="42.80345412583556" lon="13.24412201137918"><ele>1401.5</ele><time>2026-04-19T13:54:23.999Z</time></trkpt><trkpt lat="42.803321771890694" lon="13.244118223483149"><ele>1400.75</ele><time>2026-04-19T13:54:24.999Z</time></trkpt><trkpt lat="42.80321281599494" lon="13.244027838752595"><ele>1400.0</ele><time>2026-04-19T13:54:25.999Z</time></trkpt><trkpt lat="42.80316494722076" lon="13.243856065395873"><ele>1400.0</ele><time>2026-04-19T13:54:26.999Z</time></trkpt><trkpt lat="42.80311275105691" lon="13.243642129416116"><ele>1400.0</ele><time>2026-04-19T13:54:27.999Z</time></trkpt><trkpt lat="42.80303343268276" lon="13.243380318513776"><ele>1400.0</ele><time>2026-04-19T13:54:28.999Z</time></trkpt><trkpt lat="42.802952291764136" lon="13.243125524220488"><ele>1400.6666666666667</ele><time>2026-04-19T13:54:29.999Z</time></trkpt><trkpt lat="42.802837091093316" lon="13.242925766656727"><ele>1401.3333333333333</ele><time>2026-04-19T13:54:30.999Z</time></trkpt><trkpt lat="42.80271001287048" lon="13.242792782562365"><ele>1402.0</ele><time>2026-04-19T13:54:31.999Z</time></trkpt><trkpt lat="42.80257110617367" lon="13.242719904416068"><ele>1402.0</ele><time>2026-04-19T13:54:32.999Z</time></trkpt><trkpt lat="42.80242617632987" lon="13.242706051540676"><ele>1402.0</ele><time>2026-04-19T13:54:33.999Z</time></trkpt><trkpt lat="42.802267286808416" lon="13.242731644980472"><ele>1402.0</ele><time>2026-04-19T13:54:34.999Z</time></trkpt><trkpt lat="42.80210788681306" lon="13.242762936718773"><ele>1402.0</ele><time>2026-04-19T13:54:35.999Z</time></trkpt><trkpt lat="42.8019541811925" lon="13.242866517425318"><ele>1402.0</ele><time>2026-04-19T13:54:36.999Z</time></trkpt><trkpt lat="42.80180120222237" lon="13.243005372310652"><ele>1402.0</ele><time>2026-04-19T13:54:37.999Z</time></trkpt><trkpt lat="42.80164874278862" lon="13.243164640513948"><ele>1404.6666666666665</ele><time>2026-04-19T13:54:38.999Z</time></trkpt><trkpt lat="42.80150356286603" lon="13.24332067306857"><ele>1407.3333333333333</ele><time>2026-04-19T13:54:39.999Z</time></trkpt><trkpt lat="42.80135472393098" lon="13.24347366350667"><ele>1410.0</ele><time>2026-04-19T13:54:40.999Z</time></trkpt><trkpt lat="42.801199151963594" lon="13.243602266780664"><ele>1410.0</ele><time>2026-04-19T13:54:41.999Z</time></trkpt><trkpt lat="42.801055889847134" lon="13.243763966752924"><ele>1410.0</ele><time>2026-04-19T13:54:42.999Z</time></trkpt><trkpt lat="42.800941942924716" lon="13.243954347087682"><ele>1410.0</ele><time>2026-04-19T13:54:43.999Z</time></trkpt><trkpt lat="42.80084015662449" lon="13.244168687770136"><ele>1409.6666666666667</ele><time>2026-04-19T13:54:44.999Z</time></trkpt><trkpt lat="42.80074925802219" lon="13.24441855888027"><ele>1409.3333333333335</ele><time>2026-04-19T13:54:45.999Z</time></trkpt><trkpt lat="42.80067439851131" lon="13.244669414689618"><ele>1409.0</ele><time>2026-04-19T13:54:46.999Z</time></trkpt><trkpt lat="42.80059003924788" lon="13.244906105275021"><ele>1409.0</ele><time>2026-04-19T13:54:47.999Z</time></trkpt><trkpt lat="42.80048254997222" lon="13.245098372385671"><ele>1409.0</ele><time>2026-04-19T13:54:48.999Z</time></trkpt><trkpt lat="42.80033414848754" lon="13.245236827527707"><ele>1409.0</ele><time>2026-04-19T13:54:49.999Z</time></trkpt><trkpt lat="42.80014441846197" lon="13.245341456289328"><ele>1409.0</ele><time>2026-04-19T13:54:50.999Z</time></trkpt><trkpt lat="42.799930267419086" lon="13.245475074346446"><ele>1409.0</ele><time>2026-04-19T13:54:51.999Z</time></trkpt><trkpt lat="42.79968306145718" lon="13.245590023086962"><ele>1413.5</ele><time>2026-04-19T13:54:52.999Z</time></trkpt><trkpt lat="42.79942310044294" lon="13.245698278923996"><ele>1418.0</ele><time>2026-04-19T13:54:53.999Z</time></trkpt><trkpt lat="42.79916111359781" lon="13.245811069357226"><ele>1418.0</ele><time>2026-04-19T13:54:54.999Z</time></trkpt><trkpt lat="42.79897312487845" lon="13.246019626892432"><ele>1418.0</ele><time>2026-04-19T13:54:55.999Z</time></trkpt><trkpt lat="42.79873732162688" lon="13.246247065520476"><ele>1423.0</ele><time>2026-04-19T13:54:56.999Z</time></trkpt><trkpt lat="42.79852050340598" lon="13.246483544174646"><ele>1428.0</ele><time>2026-04-19T13:54:57.999Z</time></trkpt><trkpt lat="42.79830307884269" lon="13.246721468326271"><ele>1428.0</ele><time>2026-04-19T13:54:58.999Z</time></trkpt><trkpt lat="42.798098253177436" lon="13.24691291445891"><ele>1428.0</ele><time>2026-04-19T13:54:59.999Z</time></trkpt><trkpt lat="42.79788680306363" lon="13.247031189094018"><ele>1428.0</ele><time>2026-04-19T13:55:00.999Z</time></trkpt><trkpt lat="42.797674058666665" lon="13.247130908953109"><ele>1428.0</ele><time>2026-04-19T13:55:01.999Z</time></trkpt><trkpt lat="42.797449727724505" lon="13.247266849526524"><ele>1431.0</ele><time>2026-04-19T13:55:02.999Z</time></trkpt><trkpt lat="42.79725072409262" lon="13.247406860190932"><ele>1434.0</ele><time>2026-04-19T13:55:03.999Z</time></trkpt><trkpt lat="42.797088127656494" lon="13.247559562079818"><ele>1437.0</ele><time>2026-04-19T13:55:04.999Z</time></trkpt><trkpt lat="42.79693772483283" lon="13.247700768437202"><ele>1432.6666666666667</ele><time>2026-04-19T13:55:05.999Z</time></trkpt><trkpt lat="42.79679769417558" lon="13.247826766462268"><ele>1428.3333333333335</ele><time>2026-04-19T13:55:06.999Z</time></trkpt><trkpt lat="42.796667548432175" lon="13.247951679227757"><ele>1424.0</ele><time>2026-04-19T13:55:07.999Z</time></trkpt><trkpt lat="42.79653491877453" lon="13.248095879628288"><ele>1430.3333333333335</ele><time>2026-04-19T13:55:08.999Z</time></trkpt><trkpt lat="42.796406149276095" lon="13.24825447993376"><ele>1436.6666666666667</ele><time>2026-04-19T13:55:09.999Z</time></trkpt><trkpt lat="42.79628645889588" lon="13.248423807960908"><ele>1443.0</ele><time>2026-04-19T13:55:10.999Z</time></trkpt><trkpt lat="42.79617435287121" lon="13.248602598372415"><ele>1443.0</ele><time>2026-04-19T13:55:11.999Z</time></trkpt><trkpt lat="42.79607947138593" lon="13.248795052113573"><ele>1443.0</ele><time>2026-04-19T13:55:12.999Z</time></trkpt><trkpt lat="42.79600300924408" lon="13.249005101431228"><ele>1443.0</ele><time>2026-04-19T13:55:13.999Z</time></trkpt><trkpt lat="42.79594542408203" lon="13.249219519447106"><ele>1441.0</ele><time>2026-04-19T13:55:14.999Z</time></trkpt><trkpt lat="42.79588369875082" lon="13.249430687611744"><ele>1439.0</ele><time>2026-04-19T13:55:15.999Z</time></trkpt><trkpt lat="42.79578143352312" lon="13.249603968392757"><ele>1437.0</ele><time>2026-04-19T13:55:16.999Z</time></trkpt><trkpt lat="42.79570708846163" lon="13.249778269662142"><ele>1443.3333333333333</ele><time>2026-04-19T13:55:17.999Z</time></trkpt><trkpt lat="42.79562036461771" lon="13.249932858410359"><ele>1449.6666666666665</ele><time>2026-04-19T13:55:18.999Z</time></trkpt><trkpt lat="42.795532365072354" lon="13.250107725697285"><ele>1456.0</ele><time>2026-04-19T13:55:19.999Z</time></trkpt><trkpt lat="42.7954540723575" lon="13.250285690127257"><ele>1456.0</ele><time>2026-04-19T13:55:20.999Z</time></trkpt><trkpt lat="42.79537761794794" lon="13.250471388356186"><ele>1456.0</ele><time>2026-04-19T13:55:21.999Z</time></trkpt><trkpt lat="42.795310991701996" lon="13.250655326983564"><ele>1456.0</ele><time>2026-04-19T13:55:22.999Z</time></trkpt><trkpt lat="42.795252944179836" lon="13.250833296891324"><ele>1455.75</ele><time>2026-04-19T13:55:23.999Z</time></trkpt><trkpt lat="42.795220331200305" lon="13.251028903639847"><ele>1455.5</ele><time>2026-04-19T13:55:24.999Z</time></trkpt><trkpt lat="42.79518700264229" lon="13.251225627489806"><ele>1455.25</ele><time>2026-04-19T13:55:25.999Z</time></trkpt><trkpt lat="42.7951662909918" lon="13.251422253772109"><ele>1455.0</ele><time>2026-04-19T13:55:26.999Z</time></trkpt><trkpt lat="42.79515308147057" lon="13.251602338149857"><ele>1455.0</ele><time>2026-04-19T13:55:27.999Z</time></trkpt><trkpt lat="42.79514248479498" lon="13.251765857381585"><ele>1455.0</ele><time>2026-04-19T13:55:28.999Z</time></trkpt><trkpt lat="42.79512737921365" lon="13.251920240926125"><ele>1455.0</ele><time>2026-04-19T13:55:29.999Z</time></trkpt><trkpt lat="42.79508649355437" lon="13.252062626019075"><ele>1455.0</ele><time>2026-04-19T13:55:30.999Z</time></trkpt><trkpt lat="42.795051129562694" lon="13.252208480122317"><ele>1457.6666666666667</ele><time>2026-04-19T13:55:31.999Z</time></trkpt><trkpt lat="42.795009724803535" lon="13.252327459204812"><ele>1460.3333333333333</ele><time>2026-04-19T13:55:32.999Z</time></trkpt><trkpt lat="42.794969955986545" lon="13.252435774803367"><ele>1463.0</ele><time>2026-04-19T13:55:33.999Z</time></trkpt><trkpt lat="42.79490863724317" lon="13.252512998951257"><ele>1465.6666666666665</ele><time>2026-04-19T13:55:34.999Z</time></trkpt><trkpt lat="42.79483468224236" lon="13.252572651202428"><ele>1468.3333333333333</ele><time>2026-04-19T13:55:35.999Z</time></trkpt><trkpt lat="42.79475453631875" lon="13.252592049874405"><ele>1471.0</ele><time>2026-04-19T13:55:36.999Z</time></trkpt><trkpt lat="42.79467701444587" lon="13.252561240545164"><ele>1471.0</ele><time>2026-04-19T13:55:37.999Z</time></trkpt><trkpt lat="42.794617275360736" lon="13.252473914230366"><ele>1471.0</ele><time>2026-04-19T13:55:38.999Z</time></trkpt><trkpt lat="42.79460658309486" lon="13.25232944221095"><ele>1471.0</ele><time>2026-04-19T13:55:39.999Z</time></trkpt><trkpt lat="42.7945578551145" lon="13.252232457959051"><ele>1471.0</ele><time>2026-04-19T13:55:40.999Z</time></trkpt><trkpt lat="42.7945110603074" lon="13.252150084153348"><ele>1471.0</ele><time>2026-04-19T13:55:41.999Z</time></trkpt><trkpt lat="42.79443412979829" lon="13.252128857509247"><ele>1471.0</ele><time>2026-04-19T13:55:42.999Z</time></trkpt><trkpt lat="42.794327870740354" lon="13.252157642036375"><ele>1467.5</ele><time>2026-04-19T13:55:43.999Z</time></trkpt><trkpt lat="42.79423625310091" lon="13.252241960559244"><ele>1464.0</ele><time>2026-04-19T13:55:44.999Z</time></trkpt><trkpt lat="42.794167850581225" lon="13.252364922424402"><ele>1460.5</ele><time>2026-04-19T13:55:45.999Z</time></trkpt><trkpt lat="42.79410217332095" lon="13.252504444682629"><ele>1457.0</ele><time>2026-04-19T13:55:46.999Z</time></trkpt><trkpt lat="42.794032216783215" lon="13.252637912650673"><ele>1457.0</ele><time>2026-04-19T13:55:47.999Z</time></trkpt><trkpt lat="42.79395734245212" lon="13.25277504228231"><ele>1457.0</ele><time>2026-04-19T13:55:48.999Z</time></trkpt><trkpt lat="42.793882463099585" lon="13.252903640049055"><ele>1457.0</ele><time>2026-04-19T13:55:49.999Z</time></trkpt><trkpt lat="42.79381007843322" lon="13.253027202795542"><ele>1457.0</ele><time>2026-04-19T13:55:50.999Z</time></trkpt><trkpt lat="42.79373843718004" lon="13.253150188164792"><ele>1456.75</ele><time>2026-04-19T13:55:51.999Z</time></trkpt><trkpt lat="42.79366836444297" lon="13.253271830918765"><ele>1456.5</ele><time>2026-04-19T13:55:52.999Z</time></trkpt><trkpt lat="42.79360145111677" lon="13.253391370085376"><ele>1456.25</ele><time>2026-04-19T13:55:53.999Z</time></trkpt><trkpt lat="42.79353168528317" lon="13.253513483068131"><ele>1456.0</ele><time>2026-04-19T13:55:54.999Z</time></trkpt><trkpt lat="42.79346174458372" lon="13.253633915955012"><ele>1456.0</ele><time>2026-04-19T13:55:55.999Z</time></trkpt><trkpt lat="42.793392173784824" lon="13.253753421345051"><ele>1456.0</ele><time>2026-04-19T13:55:56.999Z</time></trkpt><trkpt lat="42.79332357729288" lon="13.253872119892836"><ele>1456.0</ele><time>2026-04-19T13:55:57.999Z</time></trkpt><trkpt lat="42.79325909068782" lon="13.253996527505569"><ele>1456.0</ele><time>2026-04-19T13:55:58.999Z</time></trkpt><trkpt lat="42.79317721413273" lon="13.254110328537134"><ele>1462.75</ele><time>2026-04-19T13:55:59.999Z</time></trkpt><trkpt lat="42.79310016016368" lon="13.254247014801427"><ele>1469.5</ele><time>2026-04-19T13:56:00.999Z</time></trkpt><trkpt lat="42.79301782807956" lon="13.254394325614864"><ele>1476.25</ele><time>2026-04-19T13:56:01.999Z</time></trkpt><trkpt lat="42.792941897758546" lon="13.254560243375407"><ele>1483.0</ele><time>2026-04-19T13:56:02.999Z</time></trkpt><trkpt lat="42.79285751505865" lon="13.254704768063686"><ele>1482.0</ele><time>2026-04-19T13:56:03.999Z</time></trkpt><trkpt lat="42.792771911681974" lon="13.254838357788861"><ele>1481.0</ele><time>2026-04-19T13:56:04.999Z</time></trkpt><trkpt lat="42.79268516750968" lon="13.254960987000418"><ele>1480.0</ele><time>2026-04-19T13:56:05.999Z</time></trkpt><trkpt lat="42.792596596290686" lon="13.255087198542995"><ele>1479.0</ele><time>2026-04-19T13:56:06.999Z</time></trkpt><trkpt lat="42.79250533093297" lon="13.255220620708226"><ele>1479.0</ele><time>2026-04-19T13:56:07.999Z</time></trkpt><trkpt lat="42.79241118922904" lon="13.255359392822163"><ele>1479.0</ele><time>2026-04-19T13:56:08.999Z</time></trkpt><trkpt lat="42.79231366586078" lon="13.255505595407328"><ele>1479.0</ele><time>2026-04-19T13:56:09.999Z</time></trkpt><trkpt lat="42.7922119259244" lon="13.255665637934245"><ele>1479.0</ele><time>2026-04-19T13:56:10.999Z</time></trkpt><trkpt lat="42.79210707732916" lon="13.255839716483578"><ele>1478.6666666666667</ele><time>2026-04-19T13:56:11.999Z</time></trkpt><trkpt lat="42.79198028250577" lon="13.256013794253182"><ele>1478.3333333333335</ele><time>2026-04-19T13:56:12.999Z</time></trkpt><trkpt lat="42.79186524987851" lon="13.256225614331925"><ele>1478.0</ele><time>2026-04-19T13:56:13.999Z</time></trkpt><trkpt lat="42.79173225398692" lon="13.256415904120088"><ele>1484.3333333333335</ele><time>2026-04-19T13:56:14.999Z</time></trkpt><trkpt lat="42.79158684938305" lon="13.256606258333264"><ele>1490.6666666666667</ele><time>2026-04-19T13:56:15.999Z</time></trkpt><trkpt lat="42.79144613195826" lon="13.256768920741528"><ele>1497.0</ele><time>2026-04-19T13:56:16.999Z</time></trkpt><trkpt lat="42.79116220682193" lon="13.257077442455024"><ele>1497.0</ele><time>2026-04-19T13:56:18.999Z</time></trkpt><trkpt lat="42.79102397801426" lon="13.257221622287139"><ele>1497.0</ele><time>2026-04-19T13:56:19.999Z</time></trkpt><trkpt lat="42.79088804972457" lon="13.25734302985463"><ele>1497.0</ele><time>2026-04-19T13:56:20.999Z</time></trkpt><trkpt lat="42.79074812210072" lon="13.257462233262029"><ele>1501.6666666666667</ele><time>2026-04-19T13:56:21.999Z</time></trkpt><trkpt lat="42.79061384583643" lon="13.25757738991141"><ele>1506.3333333333335</ele><time>2026-04-19T13:56:22.999Z</time></trkpt><trkpt lat="42.79046844956829" lon="13.257681519991111"><ele>1511.0</ele><time>2026-04-19T13:56:23.999Z</time></trkpt><trkpt lat="42.79032577243125" lon="13.257769564989635"><ele>1511.0</ele><time>2026-04-19T13:56:24.999Z</time></trkpt><trkpt lat="42.79018268760342" lon="13.25786583609618"><ele>1511.0</ele><time>2026-04-19T13:56:25.999Z</time></trkpt><trkpt lat="42.79005195152875" lon="13.257990164642981"><ele>1511.0</ele><time>2026-04-19T13:56:26.999Z</time></trkpt><trkpt lat="42.78993381231124" lon="13.258129789590615"><ele>1513.5</ele><time>2026-04-19T13:56:27.999Z</time></trkpt><trkpt lat="42.78981627389243" lon="13.258270838286657"><ele>1516.0</ele><time>2026-04-19T13:56:28.999Z</time></trkpt><trkpt lat="42.78970825180838" lon="13.258410731463465"><ele>1518.5</ele><time>2026-04-19T13:56:29.999Z</time></trkpt><trkpt lat="42.78962020451879" lon="13.258539343046671"><ele>1521.0</ele><time>2026-04-19T13:56:30.999Z</time></trkpt><trkpt lat="42.789563956326774" lon="13.258658388450378"><ele>1521.0</ele><time>2026-04-19T13:56:31.999Z</time></trkpt><trkpt lat="42.78951623912831" lon="13.258784268714312"><ele>1521.0</ele><time>2026-04-19T13:56:32.999Z</time></trkpt><trkpt lat="42.78952620082479" lon="13.258943868904451"><ele>1521.0</ele><time>2026-04-19T13:56:33.999Z</time></trkpt><trkpt lat="42.789547182460616" lon="13.259099721772255"><ele>1521.0</ele><time>2026-04-19T13:56:34.999Z</time></trkpt><trkpt lat="42.789560945287256" lon="13.25924285854671"><ele>1521.0</ele><time>2026-04-19T13:56:35.999Z</time></trkpt><trkpt lat="42.78958465059652" lon="13.259349000165468"><ele>1522.3333333333333</ele><time>2026-04-19T13:56:36.999Z</time></trkpt><trkpt lat="42.789611597231065" lon="13.259460238852931"><ele>1523.6666666666667</ele><time>2026-04-19T13:56:37.999Z</time></trkpt><trkpt lat="42.789642096935424" lon="13.259565001842414"><ele>1525.0</ele><time>2026-04-19T13:56:38.999Z</time></trkpt><trkpt lat="42.78967525425871" lon="13.259669245352761"><ele>1526.3333333333335</ele><time>2026-04-19T13:56:39.999Z</time></trkpt><trkpt lat="42.78970962749016" lon="13.259775397689735"><ele>1527.6666666666667</ele><time>2026-04-19T13:56:40.999Z</time></trkpt><trkpt lat="42.78974270887358" lon="13.259876643573453"><ele>1529.0</ele><time>2026-04-19T13:56:41.999Z</time></trkpt><trkpt lat="42.78977600784354" lon="13.25998235080979"><ele>1529.8333333333335</ele><time>2026-04-19T13:56:42.999Z</time></trkpt><trkpt lat="42.789807475653895" lon="13.260082245933791"><ele>1530.6666666666667</ele><time>2026-04-19T13:56:43.999Z</time></trkpt><trkpt lat="42.78985066889263" lon="13.260182129097554"><ele>1531.5</ele><time>2026-04-19T13:56:44.999Z</time></trkpt><trkpt lat="42.78987521743003" lon="13.260288466490207"><ele>1532.3333333333333</ele><time>2026-04-19T13:56:45.999Z</time></trkpt><trkpt lat="42.78990054821022" lon="13.260380529465255"><ele>1533.1666666666665</ele><time>2026-04-19T13:56:46.999Z</time></trkpt><trkpt lat="42.78992704695718" lon="13.260530921355477"><ele>1534.0</ele><time>2026-04-19T13:56:48.999Z</time></trkpt><trkpt lat="42.78995946152829" lon="13.26065201005642"><ele>1534.5</ele><time>2026-04-19T13:56:50.999Z</time></trkpt><trkpt lat="42.789985281073754" lon="13.260758906511468"><ele>1535.0</ele><time>2026-04-19T13:56:52.999Z</time></trkpt><trkpt lat="42.79001875235833" lon="13.260847096596748"><ele>1535.5</ele><time>2026-04-19T13:56:54.999Z</time></trkpt><trkpt lat="42.79004371473996" lon="13.260945013895432"><ele>1536.0</ele><time>2026-04-19T13:56:56.999Z</time></trkpt><trkpt lat="42.7900603204207" lon="13.261048266190729"><ele>1536.5000000000002</ele><time>2026-04-19T13:56:58.999Z</time></trkpt><trkpt lat="42.79009424072144" lon="13.261148416270634"><ele>1537.0</ele><time>2026-04-19T13:57:00.999Z</time></trkpt><trkpt lat="42.79010634276529" lon="13.261265115062608"><ele>1537.0000000000002</ele><time>2026-04-19T13:57:02.999Z</time></trkpt><trkpt lat="42.79014171393981" lon="13.261366679994888"><ele>1537.0</ele><time>2026-04-19T13:57:04.999Z</time></trkpt><trkpt lat="42.79017037268873" lon="13.261465052605047"><ele>1537.0</ele><time>2026-04-19T13:57:06.999Z</time></trkpt><trkpt lat="42.790211958172605" lon="13.261552104854696"><ele>1537.0</ele><time>2026-04-19T13:57:08.999Z</time></trkpt><trkpt lat="42.79025334296232" lon="13.261635927926179"><ele>1537.0</ele><time>2026-04-19T13:57:10.999Z</time></trkpt><trkpt lat="42.79031595374686" lon="13.261666037715397"><ele>1537.0000000000002</ele><time>2026-04-19T13:57:12.999Z</time></trkpt><trkpt lat="42.790370177187135" lon="13.261717838137733"><ele>1537.0</ele><time>2026-04-19T13:57:15.999Z</time></trkpt><trkpt lat="42.790309154465064" lon="13.26157560587455"><ele>1537.0000000000002</ele><time>2026-04-19T13:57:20.999Z</time></trkpt><trkpt lat="42.79025081070601" lon="13.261537007888641"><ele>1537.0</ele><time>2026-04-19T13:57:22.999Z</time></trkpt><trkpt lat="42.79020739722277" lon="13.261446047277762"><ele>1537.0</ele><time>2026-04-19T13:57:24.999Z</time></trkpt><trkpt lat="42.79017765607855" lon="13.261354657027367"><ele>1537.0</ele><time>2026-04-19T13:57:25.999Z</time></trkpt><trkpt lat="42.790150421125404" lon="13.26124947466756"><ele>1537.0000000000002</ele><time>2026-04-19T13:57:26.999Z</time></trkpt><trkpt lat="42.79012616694349" lon="13.261140863803695"><ele>1537.0</ele><time>2026-04-19T13:57:27.999Z</time></trkpt><trkpt lat="42.79009782174158" lon="13.26104160642688"><ele>1537.0000000000002</ele><time>2026-04-19T13:57:28.999Z</time></trkpt><trkpt lat="42.79007559604198" lon="13.260957769478466"><ele>1537.0</ele><time>2026-04-19T13:57:29.999Z</time></trkpt><trkpt lat="42.79004062310991" lon="13.260834128614926"><ele>1537.0</ele><time>2026-04-19T13:57:31.999Z</time></trkpt><trkpt lat="42.78998694885681" lon="13.26076823422902"><ele>1537.0</ele><time>2026-04-19T13:57:33.999Z</time></trkpt><trkpt lat="42.78991744017551" lon="13.260711556741814"><ele>1537.0000000000002</ele><time>2026-04-19T13:57:35.999Z</time></trkpt><trkpt lat="42.789855013388056" lon="13.26069582470847"><ele>1537.0</ele><time>2026-04-19T13:57:37.999Z</time></trkpt><trkpt lat="42.78976368143701" lon="13.260670193799196"><ele>1537.0</ele><time>2026-04-19T13:57:40.999Z</time></trkpt><trkpt lat="42.78966662116499" lon="13.260639779497712"><ele>1537.0</ele><time>2026-04-19T13:57:43.999Z</time></trkpt><trkpt lat="42.78956200030652" lon="13.260603818210528"><ele>1537.0</ele><time>2026-04-19T13:57:45.999Z</time></trkpt><trkpt lat="42.789457284138294" lon="13.26056535538815"><ele>1537.0</ele><time>2026-04-19T13:57:47.999Z</time></trkpt><trkpt lat="42.789370661364075" lon="13.26053294544757"><ele>1537.0</ele><time>2026-04-19T13:57:49.999Z</time></trkpt><trkpt lat="42.78929764201662" lon="13.260505623797616"><ele>1536.8333333333335</ele><time>2026-04-19T13:57:51.999Z</time></trkpt><trkpt lat="42.78917963506667" lon="13.260460643562574"><ele>1536.6666666666667</ele><time>2026-04-19T13:57:53.999Z</time></trkpt><trkpt lat="42.78911751858183" lon="13.260436103259579"><ele>1536.5</ele><time>2026-04-19T13:57:54.999Z</time></trkpt><trkpt lat="42.78904985072806" lon="13.260409326505362"><ele>1536.3333333333335</ele><time>2026-04-19T13:57:55.999Z</time></trkpt><trkpt lat="42.78897611730331" lon="13.260379191642947"><ele>1536.1666666666667</ele><time>2026-04-19T13:57:56.999Z</time></trkpt><trkpt lat="42.78889231195909" lon="13.260367719896909"><ele>1536.0</ele><time>2026-04-19T13:57:57.999Z</time></trkpt><trkpt lat="42.788820217815534" lon="13.26032433343665"><ele>1536.0</ele><time>2026-04-19T13:57:58.999Z</time></trkpt><trkpt lat="42.78873114996014" lon="13.260288283914084"><ele>1536.0</ele><time>2026-04-19T13:57:59.999Z</time></trkpt><trkpt lat="42.78864621006059" lon="13.260253905298391"><ele>1536.0</ele><time>2026-04-19T13:58:00.999Z</time></trkpt><trkpt lat="42.788566128727396" lon="13.260235337802966"><ele>1536.0</ele><time>2026-04-19T13:58:01.999Z</time></trkpt><trkpt lat="42.78848025397687" lon="13.260180850917415"><ele>1536.0</ele><time>2026-04-19T13:58:02.999Z</time></trkpt><trkpt lat="42.78838867752225" lon="13.2601482685975"><ele>1537.1666666666667</ele><time>2026-04-19T13:58:03.999Z</time></trkpt><trkpt lat="42.78829616595389" lon="13.260115525843167"><ele>1538.3333333333335</ele><time>2026-04-19T13:58:04.999Z</time></trkpt><trkpt lat="42.78819910708254" lon="13.260081872834606"><ele>1539.5</ele><time>2026-04-19T13:58:05.999Z</time></trkpt><trkpt lat="42.78811180808976" lon="13.260051603825024"><ele>1540.6666666666667</ele><time>2026-04-19T13:58:06.999Z</time></trkpt><trkpt lat="42.788032201156575" lon="13.260024001903094"><ele>1541.8333333333335</ele><time>2026-04-19T13:58:07.999Z</time></trkpt><trkpt lat="42.78795976288787" lon="13.259998885543242"><ele>1543.0</ele><time>2026-04-19T13:58:08.999Z</time></trkpt><trkpt lat="42.78783887068254" lon="13.259956215896054"><ele>1543.0000000000002</ele><time>2026-04-19T13:58:09.999Z</time></trkpt><trkpt lat="42.787751138462355" lon="13.259925280159479"><ele>1543.0</ele><time>2026-04-19T13:58:10.999Z</time></trkpt><trkpt lat="42.787668381967755" lon="13.25989609893298"><ele>1543.0</ele><time>2026-04-19T13:58:11.999Z</time></trkpt><trkpt lat="42.787596382216634" lon="13.259870505638183"><ele>1543.0</ele><time>2026-04-19T13:58:12.999Z</time></trkpt><trkpt lat="42.787529284693655" lon="13.259845354740973"><ele>1543.0000000000002</ele><time>2026-04-19T13:58:13.999Z</time></trkpt><trkpt lat="42.787459808041774" lon="13.259819312033013"><ele>1543.0</ele><time>2026-04-19T13:58:14.999Z</time></trkpt><trkpt lat="42.78735005443869" lon="13.25977407490734"><ele>1544.6666666666667</ele><time>2026-04-19T13:58:16.999Z</time></trkpt><trkpt lat="42.78728390067519" lon="13.259742264157087"><ele>1546.3333333333335</ele><time>2026-04-19T13:58:17.999Z</time></trkpt><trkpt lat="42.7872125316351" lon="13.259706420163408"><ele>1548.0</ele><time>2026-04-19T13:58:18.999Z</time></trkpt><trkpt lat="42.78715180565687" lon="13.259675293173261"><ele>1549.6666666666665</ele><time>2026-04-19T13:58:19.999Z</time></trkpt><trkpt lat="42.78703665543441" lon="13.25961649247319"><ele>1551.3333333333333</ele><time>2026-04-19T13:58:21.999Z</time></trkpt><trkpt lat="42.78697407066015" lon="13.259568082307903"><ele>1553.0</ele><time>2026-04-19T13:58:22.999Z</time></trkpt><trkpt lat="42.78689899245873" lon="13.259546380136996"><ele>1553.4999999999998</ele><time>2026-04-19T13:58:23.999Z</time></trkpt><trkpt lat="42.786830874556635" lon="13.25954224942394"><ele>1554.0</ele><time>2026-04-19T13:58:24.999Z</time></trkpt><trkpt lat="42.7867330597811" lon="13.259587235469509"><ele>1554.5</ele><time>2026-04-19T13:58:26.999Z</time></trkpt><trkpt lat="42.786643891292194" lon="13.259609415412598"><ele>1555.0</ele><time>2026-04-19T13:58:28.999Z</time></trkpt><trkpt lat="42.786561682620956" lon="13.259629002881724"><ele>1555.4999999999998</ele><time>2026-04-19T13:58:30.999Z</time></trkpt><trkpt lat="42.786480067377184" lon="13.259645827616376"><ele>1556.0</ele><time>2026-04-19T13:58:32.999Z</time></trkpt><trkpt lat="42.78640096743363" lon="13.259662133828467"><ele>1556.0</ele><time>2026-04-19T13:58:34.999Z</time></trkpt><trkpt lat="42.786288158381005" lon="13.259687442516656"><ele>1556.0</ele><time>2026-04-19T13:58:37.999Z</time></trkpt><trkpt lat="42.786220099615" lon="13.259694742382635"><ele>1556.0</ele><time>2026-04-19T13:58:39.999Z</time></trkpt><trkpt lat="42.78612494022703" lon="13.25969740487327"><ele>1556.0</ele><time>2026-04-19T13:58:42.999Z</time></trkpt><trkpt lat="42.78604002989852" lon="13.259699780588658"><ele>1556.0</ele><time>2026-04-19T13:58:44.999Z</time></trkpt><trkpt lat="42.785948929057035" lon="13.25970232951032"><ele>1556.6666666666665</ele><time>2026-04-19T13:58:47.999Z</time></trkpt><trkpt lat="42.78588451030705" lon="13.259704131888277"><ele>1557.3333333333335</ele><time>2026-04-19T13:58:49.999Z</time></trkpt><trkpt lat="42.78584739098951" lon="13.259253320137054"><ele>1558.0</ele><time>2026-04-19T13:58:50.999Z</time></trkpt><trkpt lat="42.78575907003825" lon="13.259262626886743"><ele>1558.0</ele><time>2026-04-19T13:58:52.999Z</time></trkpt><trkpt lat="42.78564685320164" lon="13.259262826832254"><ele>1558.0</ele><time>2026-04-19T13:58:54.999Z</time></trkpt><trkpt lat="42.785535600370494" lon="13.259260564652353"><ele>1558.0</ele><time>2026-04-19T13:58:56.999Z</time></trkpt><trkpt lat="42.7854642785185" lon="13.25923836872113"><ele>1558.0</ele><time>2026-04-19T13:58:57.999Z</time></trkpt><trkpt lat="42.78540389690084" lon="13.259210449435628"><ele>1558.0</ele><time>2026-04-19T13:58:58.999Z</time></trkpt><trkpt lat="42.78531325786373" lon="13.259153832845271"><ele>1558.0000000000002</ele><time>2026-04-19T13:59:00.999Z</time></trkpt><trkpt lat="42.785231186514714" lon="13.25909682638085"><ele>1558.0</ele><time>2026-04-19T13:59:02.999Z</time></trkpt><trkpt lat="42.7851285374994" lon="13.259011290340235"><ele>1558.0</ele><time>2026-04-19T13:59:04.999Z</time></trkpt><trkpt lat="42.78506895720987" lon="13.258960615212567"><ele>1558.0</ele><time>2026-04-19T13:59:05.999Z</time></trkpt><trkpt lat="42.785008563287946" lon="13.258914418745752"><ele>1558.0000000000002</ele><time>2026-04-19T13:59:06.999Z</time></trkpt><trkpt lat="42.78495172126605" lon="13.258861743026237"><ele>1558.0</ele><time>2026-04-19T13:59:07.999Z</time></trkpt><trkpt lat="42.784897717304865" lon="13.25880052671435"><ele>1558.0000000000002</ele><time>2026-04-19T13:59:08.998Z</time></trkpt><trkpt lat="42.784815363591356" lon="13.258717017564619"><ele>1558.0</ele><time>2026-04-19T13:59:10.998Z</time></trkpt><trkpt lat="42.78474324214502" lon="13.258658030029785"><ele>1558.0</ele><time>2026-04-19T13:59:12.999Z</time></trkpt><trkpt lat="42.784682751062235" lon="13.258611318296245"><ele>1558.0</ele><time>2026-04-19T13:59:14.999Z</time></trkpt><trkpt lat="42.78462663513954" lon="13.258542279170683"><ele>1558.0000000000002</ele><time>2026-04-19T13:59:17.999Z</time></trkpt><trkpt lat="42.78453207089554" lon="13.258473514219386"><ele>1558.0</ele><time>2026-04-19T13:59:20.999Z</time></trkpt><trkpt lat="42.784429086994415" lon="13.258402904683239"><ele>1557.6000000000001</ele><time>2026-04-19T13:59:22.999Z</time></trkpt><trkpt lat="42.784345959280934" lon="13.25831811527221"><ele>1557.2</ele><time>2026-04-19T13:59:24.999Z</time></trkpt><trkpt lat="42.78426307252661" lon="13.258250205507663"><ele>1556.8</ele><time>2026-04-19T13:59:26.999Z</time></trkpt><trkpt lat="42.78417861942" lon="13.258147226664375"><ele>1556.4</ele><time>2026-04-19T13:59:28.999Z</time></trkpt><trkpt lat="42.784090798357056" lon="13.258059369579469"><ele>1556.0</ele><time>2026-04-19T13:59:30.999Z</time></trkpt><trkpt lat="42.78399691162851" lon="13.257946295723984"><ele>1555.9999999999998</ele><time>2026-04-19T13:59:32.999Z</time></trkpt><trkpt lat="42.78394359668032" lon="13.257899687362402"><ele>1556.0</ele><time>2026-04-19T13:59:33.999Z</time></trkpt><trkpt lat="42.78388499270174" lon="13.257838976313026"><ele>1556.0</ele><time>2026-04-19T13:59:34.999Z</time></trkpt><trkpt lat="42.78383208070864" lon="13.257779047774664"><ele>1556.0</ele><time>2026-04-19T13:59:35.999Z</time></trkpt><trkpt lat="42.78376801475719" lon="13.25771860720371"><ele>1555.9999999999998</ele><time>2026-04-19T13:59:36.999Z</time></trkpt><trkpt lat="42.78366852913609" lon="13.257661498315533"><ele>1556.0</ele><time>2026-04-19T13:59:38.999Z</time></trkpt><trkpt lat="42.78358235358246" lon="13.25756494077423"><ele>1555.9999999999998</ele><time>2026-04-19T13:59:40.999Z</time></trkpt><trkpt lat="42.78351409919576" lon="13.257487541435932"><ele>1556.0</ele><time>2026-04-19T13:59:41.999Z</time></trkpt><trkpt lat="42.78344443335813" lon="13.257413998647891"><ele>1556.0</ele><time>2026-04-19T13:59:42.999Z</time></trkpt><trkpt lat="42.78338170808973" lon="13.25735785047992"><ele>1556.0</ele><time>2026-04-19T13:59:43.999Z</time></trkpt><trkpt lat="42.78332735052265" lon="13.257305732131957"><ele>1555.9999999999998</ele><time>2026-04-19T13:59:44.999Z</time></trkpt><trkpt lat="42.78321576239544" lon="13.257212940046625"><ele>1556.0</ele><time>2026-04-19T13:59:46.999Z</time></trkpt><trkpt lat="42.78315837228866" lon="13.25716772701135"><ele>1556.4285714285716</ele><time>2026-04-19T13:59:47.999Z</time></trkpt><trkpt lat="42.783099579616135" lon="13.257124614616076"><ele>1556.8571428571427</ele><time>2026-04-19T13:59:48.999Z</time></trkpt><trkpt lat="42.78303945265182" lon="13.257080038964837"><ele>1557.2857142857142</ele><time>2026-04-19T13:59:49.999Z</time></trkpt><trkpt lat="42.78298323378656" lon="13.257031529853275"><ele>1557.7142857142858</ele><time>2026-04-19T13:59:50.999Z</time></trkpt><trkpt lat="42.78292330763053" lon="13.256976612677981"><ele>1558.1428571428573</ele><time>2026-04-19T13:59:51.999Z</time></trkpt><trkpt lat="42.78283936397002" lon="13.256880948769918"><ele>1558.5714285714284</ele><time>2026-04-19T13:59:53.999Z</time></trkpt><trkpt lat="42.78278702560458" lon="13.256829747764739"><ele>1559.0</ele><time>2026-04-19T13:59:54.999Z</time></trkpt><trkpt lat="42.78273604946009" lon="13.25677486360085"><ele>1558.4999999999998</ele><time>2026-04-19T13:59:55.999Z</time></trkpt><trkpt lat="42.7826801401706" lon="13.25672140933467"><ele>1558.0</ele><time>2026-04-19T13:59:56.999Z</time></trkpt><trkpt lat="42.78262548087594" lon="13.256669315214536"><ele>1557.5</ele><time>2026-04-19T13:59:57.999Z</time></trkpt><trkpt lat="42.782533216876246" lon="13.256565265813023"><ele>1557.0</ele><time>2026-04-19T13:59:59.999Z</time></trkpt><trkpt lat="42.7824802407207" lon="13.256508734407328"><ele>1556.4999999999998</ele><time>2026-04-19T14:00:00.999Z</time></trkpt><trkpt lat="42.78242041230626" lon="13.25645373857655"><ele>1556.0</ele><time>2026-04-19T14:00:01.999Z</time></trkpt><trkpt lat="42.78235681334654" lon="13.256402160585719"><ele>1556.0</ele><time>2026-04-19T14:00:02.999Z</time></trkpt><trkpt lat="42.782294223139125" lon="13.256349798503386"><ele>1556.0</ele><time>2026-04-19T14:00:03.999Z</time></trkpt><trkpt lat="42.7822334914943" lon="13.256292773990197"><ele>1556.0</ele><time>2026-04-19T14:00:04.999Z</time></trkpt><trkpt lat="42.78217344121427" lon="13.256239362724104"><ele>1556.0</ele><time>2026-04-19T14:00:05.999Z</time></trkpt><trkpt lat="42.782073815532016" lon="13.256157097342841"><ele>1556.0</ele><time>2026-04-19T14:00:07.999Z</time></trkpt><trkpt lat="42.78198217045933" lon="13.256055545255325"><ele>1555.9999999999998</ele><time>2026-04-19T14:00:09.999Z</time></trkpt><trkpt lat="42.781926873361385" lon="13.255989352997023"><ele>1556.0</ele><time>2026-04-19T14:00:10.999Z</time></trkpt><trkpt lat="42.78185824316204" lon="13.255920709148864"><ele>1556.0</ele><time>2026-04-19T14:00:11.999Z</time></trkpt><trkpt lat="42.78178622277128" lon="13.255846876341314"><ele>1556.0</ele><time>2026-04-19T14:00:12.999Z</time></trkpt><trkpt lat="42.78172427655686" lon="13.255786925140903"><ele>1555.9999999999998</ele><time>2026-04-19T14:00:13.999Z</time></trkpt><trkpt lat="42.78164943256182" lon="13.255715593420737"><ele>1556.0</ele><time>2026-04-19T14:00:14.999Z</time></trkpt><trkpt lat="42.781583700843285" lon="13.25564653241394"><ele>1554.6666666666665</ele><time>2026-04-19T14:00:15.999Z</time></trkpt><trkpt lat="42.78151844279406" lon="13.255579945927463"><ele>1553.3333333333333</ele><time>2026-04-19T14:00:16.999Z</time></trkpt><trkpt lat="42.781450440359066" lon="13.255512737345441"><ele>1552.0</ele><time>2026-04-19T14:00:17.999Z</time></trkpt><trkpt lat="42.781390276744865" lon="13.255452526096796"><ele>1550.6666666666665</ele><time>2026-04-19T14:00:18.999Z</time></trkpt><trkpt lat="42.781326946924125" lon="13.255387578477778"><ele>1549.3333333333333</ele><time>2026-04-19T14:00:19.999Z</time></trkpt><trkpt lat="42.78126710160862" lon="13.255327303017664"><ele>1548.0</ele><time>2026-04-19T14:00:20.999Z</time></trkpt><trkpt lat="42.78120267052151" lon="13.255265246749605"><ele>1548.0</ele><time>2026-04-19T14:00:21.999Z</time></trkpt><trkpt lat="42.781121338931904" lon="13.25520070245666"><ele>1548.0</ele><time>2026-04-19T14:00:22.999Z</time></trkpt><trkpt lat="42.78100678860842" lon="13.255106893078485"><ele>1548.0</ele><time>2026-04-19T14:00:23.999Z</time></trkpt><trkpt lat="42.780907114532724" lon="13.255015521673847"><ele>1548.0</ele><time>2026-04-19T14:00:24.999Z</time></trkpt><trkpt lat="42.780792271920966" lon="13.254894788318692"><ele>1548.75</ele><time>2026-04-19T14:00:25.999Z</time></trkpt><trkpt lat="42.78067868757301" lon="13.254787640202261"><ele>1549.5</ele><time>2026-04-19T14:00:26.999Z</time></trkpt><trkpt lat="42.780581813220124" lon="13.25469833719223"><ele>1550.25</ele><time>2026-04-19T14:00:27.999Z</time></trkpt><trkpt lat="42.780489755432995" lon="13.254625009276882"><ele>1551.0</ele><time>2026-04-19T14:00:28.999Z</time></trkpt><trkpt lat="42.78039968227897" lon="13.254557448351905"><ele>1551.0</ele><time>2026-04-19T14:00:29.999Z</time></trkpt><trkpt lat="42.78030811822199" lon="13.254480027327078"><ele>1551.0</ele><time>2026-04-19T14:00:30.999Z</time></trkpt><trkpt lat="42.78022758744158" lon="13.254404609537994"><ele>1551.0</ele><time>2026-04-19T14:00:31.999Z</time></trkpt><trkpt lat="42.78012818933802" lon="13.254314370838195"><ele>1551.0</ele><time>2026-04-19T14:00:32.999Z</time></trkpt><trkpt lat="42.78002633970828" lon="13.254224388166463"><ele>1551.0</ele><time>2026-04-19T14:00:33.999Z</time></trkpt><trkpt lat="42.77994604781201" lon="13.254159807244184"><ele>1549.8</ele><time>2026-04-19T14:00:34.999Z</time></trkpt><trkpt lat="42.77987369597476" lon="13.254092434315627"><ele>1548.6</ele><time>2026-04-19T14:00:35.999Z</time></trkpt><trkpt lat="42.77978760496401" lon="13.254000170297287"><ele>1547.4</ele><time>2026-04-19T14:00:36.999Z</time></trkpt><trkpt lat="42.77969900919645" lon="13.253904087378814"><ele>1546.2</ele><time>2026-04-19T14:00:37.999Z</time></trkpt><trkpt lat="42.779621005051645" lon="13.253829777349406"><ele>1545.0</ele><time>2026-04-19T14:00:38.999Z</time></trkpt><trkpt lat="42.77955287049951" lon="13.253774519698641"><ele>1545.2</ele><time>2026-04-19T14:00:39.999Z</time></trkpt><trkpt lat="42.77947557084204" lon="13.253708551265548"><ele>1545.4</ele><time>2026-04-19T14:00:40.999Z</time></trkpt><trkpt lat="42.77940750757128" lon="13.253641388188955"><ele>1545.6</ele><time>2026-04-19T14:00:41.999Z</time></trkpt><trkpt lat="42.77931810518113" lon="13.253552569966292"><ele>1545.8</ele><time>2026-04-19T14:00:43.999Z</time></trkpt><trkpt lat="42.77925291292377" lon="13.253490195162078"><ele>1546.0</ele><time>2026-04-19T14:00:45.999Z</time></trkpt><trkpt lat="42.7791800285448" lon="13.253427170185766"><ele>1546.0000000000002</ele><time>2026-04-19T14:00:48.999Z</time></trkpt><trkpt lat="42.77912502949111" lon="13.253366335222507"><ele>1546.0</ele><time>2026-04-19T14:00:51.999Z</time></trkpt><trkpt lat="42.77904797322744" lon="13.253302914984369"><ele>1546.0</ele><time>2026-04-19T14:00:58.999Z</time></trkpt><trkpt lat="42.77896862401155" lon="13.253222293147475"><ele>1546.0</ele><time>2026-04-19T14:01:00.999Z</time></trkpt><trkpt lat="42.77890446460268" lon="13.253153681649376"><ele>1546.0000000000002</ele><time>2026-04-19T14:01:02.999Z</time></trkpt><trkpt lat="42.77882584704649" lon="13.25307591530492"><ele>1546.0</ele><time>2026-04-19T14:01:04.999Z</time></trkpt><trkpt lat="42.77877750949111" lon="13.252980279979013"><ele>1546.0000000000002</ele><time>2026-04-19T14:01:06.999Z</time></trkpt><trkpt lat="42.7787418753621" lon="13.252898505530611"><ele>1546.0</ele><time>2026-04-19T14:01:10.999Z</time></trkpt><trkpt lat="42.77864319215769" lon="13.252803640422668"><ele>1546.0</ele><time>2026-04-19T14:01:12.999Z</time></trkpt><trkpt lat="42.778578096722455" lon="13.252739004479196"><ele>1546.0</ele><time>2026-04-19T14:01:13.999Z</time></trkpt><trkpt lat="42.778511814956914" lon="13.252672685971737"><ele>1546.0000000000002</ele><time>2026-04-19T14:01:14.999Z</time></trkpt><trkpt lat="42.778449952891144" lon="13.252612535126602"><ele>1546.0</ele><time>2026-04-19T14:01:15.999Z</time></trkpt><trkpt lat="42.778392576769946" lon="13.252561032416374"><ele>1546.0000000000002</ele><time>2026-04-19T14:01:16.999Z</time></trkpt><trkpt lat="42.7783306717027" lon="13.252511884512579"><ele>1546.0</ele><time>2026-04-19T14:01:18Z</time></trkpt><trkpt lat="42.77827395481614" lon="13.252461978693333"><ele>1546.0</ele><time>2026-04-19T14:01:19Z</time></trkpt><trkpt lat="42.778216113867735" lon="13.25241018290057"><ele>1546.0</ele><time>2026-04-19T14:01:20Z</time></trkpt><trkpt lat="42.77815797835828" lon="13.252360892314472"><ele>1546.0000000000002</ele><time>2026-04-19T14:01:21Z</time></trkpt><trkpt lat="42.77805180576999" lon="13.252263860991796"><ele>1546.0</ele><time>2026-04-19T14:01:23Z</time></trkpt><trkpt lat="42.777996882330534" lon="13.252217861149067"><ele>1548.0</ele><time>2026-04-19T14:01:24Z</time></trkpt><trkpt lat="42.777940396087246" lon="13.25216858802938"><ele>1550.0</ele><time>2026-04-19T14:01:25Z</time></trkpt><trkpt lat="42.77782836185444" lon="13.252094460913932"><ele>1552.0</ele><time>2026-04-19T14:01:27Z</time></trkpt><trkpt lat="42.777712863113976" lon="13.252038327958752"><ele>1554.0</ele><time>2026-04-19T14:01:29Z</time></trkpt><trkpt lat="42.777594515741896" lon="13.252005024108449"><ele>1556.0</ele><time>2026-04-19T14:01:31Z</time></trkpt><trkpt lat="42.77748048412643" lon="13.251987227784792"><ele>1556.0</ele><time>2026-04-19T14:01:33Z</time></trkpt><trkpt lat="42.777384921079054" lon="13.251979184424846"><ele>1556.0</ele><time>2026-04-19T14:01:35Z</time></trkpt><trkpt lat="42.77726503803976" lon="13.251964486773476"><ele>1556.0</ele><time>2026-04-19T14:01:37Z</time></trkpt><trkpt lat="42.7771407142571" lon="13.251944943103474"><ele>1556.0</ele><time>2026-04-19T14:01:39Z</time></trkpt><trkpt lat="42.777077428328894" lon="13.251938793540408"><ele>1556.0</ele><time>2026-04-19T14:01:40Z</time></trkpt><trkpt lat="42.77700710668276" lon="13.251940519392559"><ele>1556.0</ele><time>2026-04-19T14:01:42Z</time></trkpt><trkpt lat="42.776934853504905" lon="13.251984848264291"><ele>1556.0</ele><time>2026-04-19T14:01:45Z</time></trkpt><trkpt lat="42.77683073657145" lon="13.251970721167785"><ele>1556.0</ele><time>2026-04-19T14:01:47Z</time></trkpt><trkpt lat="42.77669737168807" lon="13.251957958416293"><ele>1556.0</ele><time>2026-04-19T14:01:49Z</time></trkpt><trkpt lat="42.77662778664963" lon="13.251950153933276"><ele>1556.0</ele><time>2026-04-19T14:01:50Z</time></trkpt><trkpt lat="42.776557535884656" lon="13.251954773658456"><ele>1556.8</ele><time>2026-04-19T14:01:51Z</time></trkpt><trkpt lat="42.77647248299223" lon="13.251954482322173"><ele>1557.6</ele><time>2026-04-19T14:01:51.999Z</time></trkpt><trkpt lat="42.776390516230975" lon="13.2519499657804"><ele>1558.4</ele><time>2026-04-19T14:01:52.999Z</time></trkpt><trkpt lat="42.776317359531504" lon="13.251943816077434"><ele>1559.2</ele><time>2026-04-19T14:01:53.999Z</time></trkpt><trkpt lat="42.77620734263336" lon="13.251918662756834"><ele>1560.0</ele><time>2026-04-19T14:01:55.999Z</time></trkpt><trkpt lat="42.77609256915375" lon="13.251897364465709"><ele>1559.8</ele><time>2026-04-19T14:01:57.999Z</time></trkpt><trkpt lat="42.77599786113092" lon="13.251888800983611"><ele>1559.6</ele><time>2026-04-19T14:01:59.999Z</time></trkpt><trkpt lat="42.77589205025267" lon="13.25188819219877"><ele>1559.4</ele><time>2026-04-19T14:02:01.999Z</time></trkpt><trkpt lat="42.77578338045437" lon="13.251889614373416"><ele>1559.2</ele><time>2026-04-19T14:02:03.999Z</time></trkpt><trkpt lat="42.775688604573354" lon="13.251903553128997"><ele>1559.0</ele><time>2026-04-19T14:02:05.999Z</time></trkpt><trkpt lat="42.77562675245077" lon="13.251937978982193"><ele>1558.9999999999998</ele><time>2026-04-19T14:02:07.999Z</time></trkpt><trkpt lat="42.77556176793442" lon="13.251951034625863"><ele>1559.0</ele><time>2026-04-19T14:02:09.999Z</time></trkpt><trkpt lat="42.775495483470046" lon="13.251924303280198"><ele>1559.0</ele><time>2026-04-19T14:02:11.999Z</time></trkpt><trkpt lat="42.775423594780676" lon="13.251937653509266"><ele>1559.0</ele><time>2026-04-19T14:02:14.999Z</time></trkpt><trkpt lat="42.77552012803193" lon="13.251941574249516"><ele>1558.9999999999998</ele><time>2026-04-19T14:03:33Z</time></trkpt><trkpt lat="42.775597771925696" lon="13.251915583703255"><ele>1559.0</ele><time>2026-04-19T14:03:35Z</time></trkpt><trkpt lat="42.775670273774566" lon="13.251916756156863"><ele>1559.0</ele><time>2026-04-19T14:03:37Z</time></trkpt><trkpt lat="42.775749629511104" lon="13.251902757462974"><ele>1559.0</ele><time>2026-04-19T14:03:39Z</time></trkpt><trkpt lat="42.775846874063134" lon="13.251892365477136"><ele>1559.0</ele><time>2026-04-19T14:03:41Z</time></trkpt><trkpt lat="42.775953720617565" lon="13.251890198780133"><ele>1559.0</ele><time>2026-04-19T14:03:43Z</time></trkpt><trkpt lat="42.77607405482586" lon="13.25188658431841"><ele>1559.0</ele><time>2026-04-19T14:03:45Z</time></trkpt><trkpt lat="42.77617947515221" lon="13.25190233891453"><ele>1559.1666666666665</ele><time>2026-04-19T14:03:47Z</time></trkpt><trkpt lat="42.776302366234525" lon="13.251908156325035"><ele>1559.3333333333333</ele><time>2026-04-19T14:03:49Z</time></trkpt><trkpt lat="42.776375752397435" lon="13.251918143652452"><ele>1559.5</ele><time>2026-04-19T14:03:50Z</time></trkpt><trkpt lat="42.776439003937156" lon="13.251924137476115"><ele>1559.6666666666665</ele><time>2026-04-19T14:03:51Z</time></trkpt><trkpt lat="42.776547385332385" lon="13.251922640159188"><ele>1559.8333333333333</ele><time>2026-04-19T14:03:53Z</time></trkpt><trkpt lat="42.77661366487196" lon="13.251919136897712"><ele>1560.0</ele><time>2026-04-19T14:03:54Z</time></trkpt><trkpt lat="42.77672115863263" lon="13.251927947308987"><ele>1560.0</ele><time>2026-04-19T14:03:56Z</time></trkpt><trkpt lat="42.776798466460846" lon="13.251950748306678"><ele>1560.0</ele><time>2026-04-19T14:03:58Z</time></trkpt><trkpt lat="42.776917042574986" lon="13.251950526488555"><ele>1560.0</ele><time>2026-04-19T14:04:00Z</time></trkpt><trkpt lat="42.77703192313206" lon="13.25196776988189"><ele>1560.0</ele><time>2026-04-19T14:04:01.999Z</time></trkpt><trkpt lat="42.777128018087474" lon="13.251977652703788"><ele>1560.0</ele><time>2026-04-19T14:04:03.999Z</time></trkpt><trkpt lat="42.77723656336891" lon="13.251985720188133"><ele>1559.2</ele><time>2026-04-19T14:04:05.999Z</time></trkpt><trkpt lat="42.77732837164811" lon="13.2520010402283"><ele>1558.4</ele><time>2026-04-19T14:04:07.999Z</time></trkpt><trkpt lat="42.77743382030824" lon="13.252009286487096"><ele>1557.6</ele><time>2026-04-19T14:04:09.999Z</time></trkpt><trkpt lat="42.777545146292745" lon="13.252029704756373"><ele>1556.8</ele><time>2026-04-19T14:04:11.999Z</time></trkpt><trkpt lat="42.77763843428307" lon="13.25204208153869"><ele>1556.0</ele><time>2026-04-19T14:04:13.999Z</time></trkpt><trkpt lat="42.77775471979566" lon="13.252081861718445"><ele>1556.0</ele><time>2026-04-19T14:04:15.999Z</time></trkpt><trkpt lat="42.777864098986015" lon="13.252145902964864"><ele>1556.0</ele><time>2026-04-19T14:04:17.999Z</time></trkpt><trkpt lat="42.77797098816665" lon="13.252226778976375"><ele>1556.0</ele><time>2026-04-19T14:04:19.999Z</time></trkpt><trkpt lat="42.77806919023426" lon="13.252311507922276"><ele>1556.0</ele><time>2026-04-19T14:04:21.999Z</time></trkpt><trkpt lat="42.77816229366415" lon="13.252394628105286"><ele>1555.9999999999998</ele><time>2026-04-19T14:04:23.999Z</time></trkpt><trkpt lat="42.77822204550933" lon="13.252440229325996"><ele>1556.0</ele><time>2026-04-19T14:04:25.999Z</time></trkpt><trkpt lat="42.77829228432999" lon="13.252463066128835"><ele>1556.0</ele><time>2026-04-19T14:04:30.999Z</time></trkpt><trkpt lat="42.77839188537211" lon="13.252550023771407"><ele>1556.0</ele><time>2026-04-19T14:04:33.999Z</time></trkpt><trkpt lat="42.77846640740336" lon="13.252624568381133"><ele>1555.9999999999998</ele><time>2026-04-19T14:04:34.999Z</time></trkpt><trkpt lat="42.77854477389381" lon="13.252701196303914"><ele>1556.0</ele><time>2026-04-19T14:04:35.999Z</time></trkpt><trkpt lat="42.77861300998568" lon="13.252771521818955"><ele>1555.9999999999998</ele><time>2026-04-19T14:04:36.999Z</time></trkpt><trkpt lat="42.778676952634704" lon="13.252834713116531"><ele>1556.0</ele><time>2026-04-19T14:04:37.999Z</time></trkpt><trkpt lat="42.77873778549283" lon="13.252898691792893"><ele>1556.0</ele><time>2026-04-19T14:04:38.999Z</time></trkpt><trkpt lat="42.77879484253123" lon="13.252956945435178"><ele>1556.0</ele><time>2026-04-19T14:04:39.999Z</time></trkpt><trkpt lat="42.7788503860922" lon="13.25301153121725"><ele>1555.9999999999998</ele><time>2026-04-19T14:04:40.999Z</time></trkpt><trkpt lat="42.77890389475812" lon="13.253063987629952"><ele>1556.0</ele><time>2026-04-19T14:04:41.999Z</time></trkpt><trkpt lat="42.77900335979517" lon="13.253168193853655"><ele>1556.1999999999998</ele><time>2026-04-19T14:04:43.999Z</time></trkpt><trkpt lat="42.77909680285774" lon="13.253255624804424"><ele>1556.3999999999999</ele><time>2026-04-19T14:04:45.999Z</time></trkpt><trkpt lat="42.77917701280504" lon="13.253338435114081"><ele>1556.6</ele><time>2026-04-19T14:04:47.999Z</time></trkpt><trkpt lat="42.779257632688605" lon="13.253414779505896"><ele>1556.8</ele><time>2026-04-19T14:04:49.999Z</time></trkpt><trkpt lat="42.779359709786576" lon="13.253506883096087"><ele>1557.0</ele><time>2026-04-19T14:04:51.999Z</time></trkpt><trkpt lat="42.77944868951917" lon="13.253581229693205"><ele>1557.0</ele><time>2026-04-19T14:04:53.999Z</time></trkpt><trkpt lat="42.779524186754834" lon="13.25365566722419"><ele>1557.0</ele><time>2026-04-19T14:04:55.999Z</time></trkpt><trkpt lat="42.77959571993138" lon="13.253722498585732"><ele>1557.0</ele><time>2026-04-19T14:04:57.999Z</time></trkpt><trkpt lat="42.77964912996963" lon="13.253776159827641"><ele>1557.0</ele><time>2026-04-19T14:04:59.999Z</time></trkpt><trkpt lat="42.77969987399859" lon="13.253832865944196"><ele>1557.0</ele><time>2026-04-19T14:05:01.999Z</time></trkpt><trkpt lat="42.779761507612584" lon="13.253890946075584"><ele>1557.0</ele><time>2026-04-19T14:05:03.999Z</time></trkpt><trkpt lat="42.77983598575336" lon="13.253963697219211"><ele>1555.8</ele><time>2026-04-19T14:05:05.999Z</time></trkpt><trkpt lat="42.7799213907553" lon="13.254038897068742"><ele>1554.6</ele><time>2026-04-19T14:05:07.999Z</time></trkpt><trkpt lat="42.77998876285509" lon="13.254104155573135"><ele>1553.3999999999999</ele><time>2026-04-19T14:05:09.999Z</time></trkpt><trkpt lat="42.78008249592731" lon="13.25419560458648"><ele>1552.1999999999998</ele><time>2026-04-19T14:05:11.999Z</time></trkpt><trkpt lat="42.78017816201291" lon="13.254283648099332"><ele>1551.0</ele><time>2026-04-19T14:05:13.999Z</time></trkpt><trkpt lat="42.78027123821745" lon="13.254375760279894"><ele>1551.0</ele><time>2026-04-19T14:05:15.999Z</time></trkpt><trkpt lat="42.780365568484314" lon="13.254458362806252"><ele>1551.0</ele><time>2026-04-19T14:05:17.999Z</time></trkpt><trkpt lat="42.78044035570969" lon="13.254560422912332"><ele>1551.0</ele><time>2026-04-19T14:05:19.999Z</time></trkpt><trkpt lat="42.78054762751282" lon="13.25467847624095"><ele>1551.0</ele><time>2026-04-19T14:05:21.999Z</time></trkpt><trkpt lat="42.780614060959216" lon="13.254740245983516"><ele>1551.0</ele><time>2026-04-19T14:05:22.999Z</time></trkpt><trkpt lat="42.780683663123384" lon="13.254799870375798"><ele>1550.5</ele><time>2026-04-19T14:05:23.999Z</time></trkpt><trkpt lat="42.78074703812142" lon="13.254849324492236"><ele>1550.0</ele><time>2026-04-19T14:05:24.999Z</time></trkpt><trkpt lat="42.78082000985336" lon="13.25491456097928"><ele>1549.5</ele><time>2026-04-19T14:05:25.999Z</time></trkpt><trkpt lat="42.78089609689281" lon="13.254982554389253"><ele>1549.0</ele><time>2026-04-19T14:05:26.999Z</time></trkpt><trkpt lat="42.7809626883316" lon="13.255049563121599"><ele>1548.5</ele><time>2026-04-19T14:05:27.999Z</time></trkpt><trkpt lat="42.78102902768332" lon="13.255112574854948"><ele>1548.0</ele><time>2026-04-19T14:05:29Z</time></trkpt><trkpt lat="42.78109737958231" lon="13.255178898174668"><ele>1548.0</ele><time>2026-04-19T14:05:30Z</time></trkpt><trkpt lat="42.78117535132271" lon="13.25525197610057"><ele>1548.0</ele><time>2026-04-19T14:05:31Z</time></trkpt><trkpt lat="42.78124078193644" lon="13.25530701532619"><ele>1548.0</ele><time>2026-04-19T14:05:32Z</time></trkpt><trkpt lat="42.78131714530801" lon="13.255374861485986"><ele>1548.0</ele><time>2026-04-19T14:05:33Z</time></trkpt><trkpt lat="42.78139833039095" lon="13.255453349785952"><ele>1548.0</ele><time>2026-04-19T14:05:34Z</time></trkpt><trkpt lat="42.78149408010541" lon="13.255547302501125"><ele>1546.5</ele><time>2026-04-19T14:05:35Z</time></trkpt><trkpt lat="42.78161274338919" lon="13.255672673611327"><ele>1545.0</ele><time>2026-04-19T14:05:36Z</time></trkpt><trkpt lat="42.78172962049529" lon="13.255790625591905"><ele>1543.5</ele><time>2026-04-19T14:05:37Z</time></trkpt><trkpt lat="42.78182315808649" lon="13.255884458641162"><ele>1542.0</ele><time>2026-04-19T14:05:38Z</time></trkpt><trkpt lat="42.78191447263924" lon="13.255976031384085"><ele>1544.8</ele><time>2026-04-19T14:05:39Z</time></trkpt><trkpt lat="42.781994378358554" lon="13.256054928890386"><ele>1547.6</ele><time>2026-04-19T14:05:40Z</time></trkpt><trkpt lat="42.782081469752455" lon="13.256146738846619"><ele>1550.3999999999999</ele><time>2026-04-19T14:05:41Z</time></trkpt><trkpt lat="42.7821591049723" lon="13.25622918937082"><ele>1553.1999999999998</ele><time>2026-04-19T14:05:42Z</time></trkpt><trkpt lat="42.78222501496133" lon="13.256300952724825"><ele>1556.0</ele><time>2026-04-19T14:05:43Z</time></trkpt><trkpt lat="42.78230888228313" lon="13.256373784557585"><ele>1556.0</ele><time>2026-04-19T14:05:44Z</time></trkpt><trkpt lat="42.7824037246715" lon="13.25644916589801"><ele>1556.0</ele><time>2026-04-19T14:05:45Z</time></trkpt><trkpt lat="42.78249407804516" lon="13.256519808341187"><ele>1556.0</ele><time>2026-04-19T14:05:46Z</time></trkpt><trkpt lat="42.78256590478132" lon="13.256587295504383"><ele>1556.0</ele><time>2026-04-19T14:05:47Z</time></trkpt><trkpt lat="42.78262936634326" lon="13.256661081371425"><ele>1556.0</ele><time>2026-04-19T14:05:48Z</time></trkpt><trkpt lat="42.7826990002534" lon="13.25674892202001"><ele>1556.6</ele><time>2026-04-19T14:05:49Z</time></trkpt><trkpt lat="42.782781836977605" lon="13.256833453789023"><ele>1557.1999999999998</ele><time>2026-04-19T14:05:50Z</time></trkpt><trkpt lat="42.78286827468734" lon="13.256918470274133"><ele>1557.8000000000002</ele><time>2026-04-19T14:05:51Z</time></trkpt><trkpt lat="42.78294804347661" lon="13.256995058422493"><ele>1558.4</ele><time>2026-04-19T14:05:52Z</time></trkpt><trkpt lat="42.78303778157293" lon="13.257081018259404"><ele>1559.0</ele><time>2026-04-19T14:05:53Z</time></trkpt><trkpt lat="42.7831360665416" lon="13.25715696050007"><ele>1559.0</ele><time>2026-04-19T14:05:54Z</time></trkpt><trkpt lat="42.78324466936136" lon="13.257243196115043"><ele>1559.0</ele><time>2026-04-19T14:05:55Z</time></trkpt><trkpt lat="42.78333653089157" lon="13.257326515079892"><ele>1559.0</ele><time>2026-04-19T14:05:56Z</time></trkpt><trkpt lat="42.783431103152566" lon="13.25741376950146"><ele>1559.0</ele><time>2026-04-19T14:05:57Z</time></trkpt><trkpt lat="42.783514135722534" lon="13.257487847585168"><ele>1559.0</ele><time>2026-04-19T14:05:58Z</time></trkpt><trkpt lat="42.783579514191466" lon="13.257546242412504"><ele>1558.4999999999998</ele><time>2026-04-19T14:05:59Z</time></trkpt><trkpt lat="42.78363833473922" lon="13.257612150307262"><ele>1558.0</ele><time>2026-04-19T14:06:00Z</time></trkpt><trkpt lat="42.78368926099524" lon="13.257672606819106"><ele>1557.5</ele><time>2026-04-19T14:06:01Z</time></trkpt><trkpt lat="42.78373854294036" lon="13.25773834676211"><ele>1557.0</ele><time>2026-04-19T14:06:02Z</time></trkpt><trkpt lat="42.783799555168386" lon="13.257811942734106"><ele>1556.4999999999998</ele><time>2026-04-19T14:06:03Z</time></trkpt><trkpt lat="42.783865372343676" lon="13.257872292171198"><ele>1556.0</ele><time>2026-04-19T14:06:04Z</time></trkpt><trkpt lat="42.78398410275391" lon="13.257944092142145"><ele>1555.9999999999998</ele><time>2026-04-19T14:06:06Z</time></trkpt><trkpt lat="42.784048742518266" lon="13.25798883876069"><ele>1556.0</ele><time>2026-04-19T14:06:07Z</time></trkpt><trkpt lat="42.78410972517243" lon="13.258050942808703"><ele>1556.0</ele><time>2026-04-19T14:06:08Z</time></trkpt><trkpt lat="42.78418899901025" lon="13.258117004036741"><ele>1556.0</ele><time>2026-04-19T14:06:09Z</time></trkpt><trkpt lat="42.78426297089967" lon="13.258196026761569"><ele>1555.9999999999998</ele><time>2026-04-19T14:06:10Z</time></trkpt><trkpt lat="42.784334536008025" lon="13.258268296247378"><ele>1556.0</ele><time>2026-04-19T14:06:11Z</time></trkpt><trkpt lat="42.78442599155627" lon="13.258329077256267"><ele>1556.3333333333333</ele><time>2026-04-19T14:06:13Z</time></trkpt><trkpt lat="42.784489671061465" lon="13.258398726080976"><ele>1556.6666666666665</ele><time>2026-04-19T14:06:15Z</time></trkpt><trkpt lat="42.78453543672439" lon="13.258494559685479"><ele>1557.0</ele><time>2026-04-19T14:06:17Z</time></trkpt><trkpt lat="42.784616007046885" lon="13.258511205614393"><ele>1557.3333333333335</ele><time>2026-04-19T14:06:19Z</time></trkpt><trkpt lat="42.78468207566878" lon="13.258557230847103"><ele>1557.6666666666667</ele><time>2026-04-19T14:06:21Z</time></trkpt><trkpt lat="42.78474134271869" lon="13.258628396063186"><ele>1558.0</ele><time>2026-04-19T14:06:22.999Z</time></trkpt><trkpt lat="42.78483000937198" lon="13.258730640609576"><ele>1558.0</ele><time>2026-04-19T14:06:24.999Z</time></trkpt><trkpt lat="42.7848928923994" lon="13.2587920884106"><ele>1558.0</ele><time>2026-04-19T14:06:25.999Z</time></trkpt><trkpt lat="42.78496348475304" lon="13.25886218737988"><ele>1558.0</ele><time>2026-04-19T14:06:26.999Z</time></trkpt><trkpt lat="42.78502324823694" lon="13.258924286262372"><ele>1558.0</ele><time>2026-04-19T14:06:27.999Z</time></trkpt><trkpt lat="42.78513446065993" lon="13.259017325996828"><ele>1558.0</ele><time>2026-04-19T14:06:29.999Z</time></trkpt><trkpt lat="42.78520945063052" lon="13.259068076769616"><ele>1558.0000000000002</ele><time>2026-04-19T14:06:30.999Z</time></trkpt><trkpt lat="42.78528487271086" lon="13.259125638834679"><ele>1558.0</ele><time>2026-04-19T14:06:31.999Z</time></trkpt><trkpt lat="42.78536318640824" lon="13.259186149123343"><ele>1558.0</ele><time>2026-04-19T14:06:32.999Z</time></trkpt><trkpt lat="42.78543378282901" lon="13.259233021860675"><ele>1558.0</ele><time>2026-04-19T14:06:33.999Z</time></trkpt><trkpt lat="42.785503515923644" lon="13.25926154490461"><ele>1558.0000000000002</ele><time>2026-04-19T14:06:34.999Z</time></trkpt><trkpt lat="42.78558133418021" lon="13.259278146554164"><ele>1558.0</ele><time>2026-04-19T14:06:35.999Z</time></trkpt><trkpt lat="42.78565739701465" lon="13.259284198239696"><ele>1558.0</ele><time>2026-04-19T14:06:36.999Z</time></trkpt><trkpt lat="42.78572158169191" lon="13.259284960410493"><ele>1558.0</ele><time>2026-04-19T14:06:37.999Z</time></trkpt><trkpt lat="42.78584938859837" lon="13.259255090029168"><ele>1558.0</ele><time>2026-04-19T14:06:39.999Z</time></trkpt><trkpt lat="42.78592151858673" lon="13.259230047706911"><ele>1558.0</ele><time>2026-04-19T14:06:40.999Z</time></trkpt><trkpt lat="42.78599643086834" lon="13.259206400660867"><ele>1558.0</ele><time>2026-04-19T14:06:41.999Z</time></trkpt><trkpt lat="42.786109366358836" lon="13.259180717114647"><ele>1557.6666666666667</ele><time>2026-04-19T14:06:43.999Z</time></trkpt><trkpt lat="42.786225302094174" lon="13.25917863295644"><ele>1557.3333333333335</ele><time>2026-04-19T14:06:45.999Z</time></trkpt><trkpt lat="42.786289571435546" lon="13.259188527697008"><ele>1557.0</ele><time>2026-04-19T14:06:46.999Z</time></trkpt><trkpt lat="42.7863538175589" lon="13.25920545499225"><ele>1556.6666666666665</ele><time>2026-04-19T14:06:47.999Z</time></trkpt><trkpt lat="42.78642573537366" lon="13.259238233531757"><ele>1556.3333333333333</ele><time>2026-04-19T14:06:48.999Z</time></trkpt><trkpt lat="42.786489113709955" lon="13.25927474543089"><ele>1556.0</ele><time>2026-04-19T14:06:49.999Z</time></trkpt><trkpt lat="42.78654944992853" lon="13.259312648335"><ele>1556.0</ele><time>2026-04-19T14:06:50.999Z</time></trkpt><trkpt lat="42.7866444182603" lon="13.259370164064702"><ele>1556.0</ele><time>2026-04-19T14:06:52.999Z</time></trkpt><trkpt lat="42.7867084019923" lon="13.25942324903561"><ele>1556.0</ele><time>2026-04-19T14:06:54.999Z</time></trkpt><trkpt lat="42.78679387449408" lon="13.259480244916032"><ele>1556.0</ele><time>2026-04-19T14:06:57Z</time></trkpt><trkpt lat="42.78690759439575" lon="13.259607991453251"><ele>1556.0</ele><time>2026-04-19T14:06:59Z</time></trkpt><trkpt lat="42.78697512900183" lon="13.259628981400118"><ele>1555.4999999999998</ele><time>2026-04-19T14:07:00Z</time></trkpt><trkpt lat="42.78704244519803" lon="13.25966580629437"><ele>1555.0</ele><time>2026-04-19T14:07:01Z</time></trkpt><trkpt lat="42.78710416234159" lon="13.259699568278887"><ele>1554.5</ele><time>2026-04-19T14:07:02Z</time></trkpt><trkpt lat="42.787173341034816" lon="13.259734656951416"><ele>1554.0</ele><time>2026-04-19T14:07:03Z</time></trkpt><trkpt lat="42.78728995989676" lon="13.259785387057303"><ele>1553.4999999999998</ele><time>2026-04-19T14:07:05Z</time></trkpt><trkpt lat="42.787390543645344" lon="13.25985871421927"><ele>1553.0</ele><time>2026-04-19T14:07:07Z</time></trkpt><trkpt lat="42.78748919212103" lon="13.259908764755655"><ele>1551.0</ele><time>2026-04-19T14:07:09Z</time></trkpt><trkpt lat="42.78759050638588" lon="13.259933870312913"><ele>1549.0</ele><time>2026-04-19T14:07:11Z</time></trkpt><trkpt lat="42.787693518623215" lon="13.259949075950718"><ele>1547.0</ele><time>2026-04-19T14:07:13Z</time></trkpt><trkpt lat="42.78779677621692" lon="13.259990251301188"><ele>1545.0</ele><time>2026-04-19T14:07:15Z</time></trkpt><trkpt lat="42.78789773789214" lon="13.260044281048053"><ele>1543.0</ele><time>2026-04-19T14:07:17Z</time></trkpt><trkpt lat="42.78799778104369" lon="13.260071154880707"><ele>1543.0</ele><time>2026-04-19T14:07:19Z</time></trkpt><trkpt lat="42.788098574823785" lon="13.26009335069798"><ele>1543.0</ele><time>2026-04-19T14:07:21Z</time></trkpt><trkpt lat="42.788219386078985" lon="13.260142892213898"><ele>1543.0</ele><time>2026-04-19T14:07:23Z</time></trkpt><trkpt lat="42.78832656287669" lon="13.260164160438025"><ele>1543.0</ele><time>2026-04-19T14:07:25Z</time></trkpt><trkpt lat="42.78844197553425" lon="13.260198668587716"><ele>1541.6000000000001</ele><time>2026-04-19T14:07:27Z</time></trkpt><trkpt lat="42.78855478420048" lon="13.26024546043375"><ele>1540.2</ele><time>2026-04-19T14:07:29Z</time></trkpt><trkpt lat="42.78866322059387" lon="13.260298465406892"><ele>1538.8</ele><time>2026-04-19T14:07:31Z</time></trkpt><trkpt lat="42.7887776583389" lon="13.260345295986959"><ele>1537.4</ele><time>2026-04-19T14:07:33Z</time></trkpt><trkpt lat="42.78884480645674" lon="13.260372739410407"><ele>1536.0</ele><time>2026-04-19T14:07:34Z</time></trkpt><trkpt lat="42.78897059171616" lon="13.260423780698433"><ele>1536.0</ele><time>2026-04-19T14:07:36.001Z</time></trkpt><trkpt lat="42.78903501559215" lon="13.260457198508458"><ele>1536.0</ele><time>2026-04-19T14:07:37.001Z</time></trkpt><trkpt lat="42.78910516504878" lon="13.260491849085739"><ele>1536.0</ele><time>2026-04-19T14:07:38.001Z</time></trkpt><trkpt lat="42.78917456603782" lon="13.260516691928187"><ele>1536.0</ele><time>2026-04-19T14:07:39.001Z</time></trkpt><trkpt lat="42.789236665048946" lon="13.260536228033011"><ele>1536.0</ele><time>2026-04-19T14:07:40.001Z</time></trkpt><trkpt lat="42.78934655466221" lon="13.260570852802449"><ele>1536.0</ele><time>2026-04-19T14:07:42.001Z</time></trkpt><trkpt lat="42.789447779968825" lon="13.260617114939599"><ele>1536.1666666666667</ele><time>2026-04-19T14:07:44.001Z</time></trkpt><trkpt lat="42.78953658674674" lon="13.26063745626166"><ele>1536.3333333333335</ele><time>2026-04-19T14:07:46.001Z</time></trkpt><trkpt lat="42.78962149121055" lon="13.260674088492577"><ele>1536.5</ele><time>2026-04-19T14:07:48.001Z</time></trkpt><trkpt lat="42.789687044006214" lon="13.260719658116619"><ele>1536.6666666666667</ele><time>2026-04-19T14:07:50.001Z</time></trkpt><trkpt lat="42.78975853247488" lon="13.260712622787073"><ele>1536.8333333333335</ele><time>2026-04-19T14:07:52.001Z</time></trkpt><trkpt lat="42.78983564483635" lon="13.260736557268974"><ele>1537.0</ele><time>2026-04-19T14:07:55.001Z</time></trkpt><trkpt lat="42.78992558802187" lon="13.260767378617183"><ele>1537.0</ele><time>2026-04-19T14:07:57.001Z</time></trkpt><trkpt lat="42.790021313311605" lon="13.260888710628436"><ele>1537.0</ele><time>2026-04-19T14:07:59.001Z</time></trkpt><trkpt lat="42.79003579246899" lon="13.260978265694618"><ele>1537.0</ele><time>2026-04-19T14:08:00.001Z</time></trkpt><trkpt lat="42.790064363068865" lon="13.261090849768218"><ele>1537.0</ele><time>2026-04-19T14:08:01.001Z</time></trkpt><trkpt lat="42.79009682900357" lon="13.261224681093516"><ele>1537.0</ele><time>2026-04-19T14:08:02.001Z</time></trkpt><trkpt lat="42.790128224309576" lon="13.261357123918762"><ele>1535.1999999999998</ele><time>2026-04-19T14:08:03.001Z</time></trkpt><trkpt lat="42.79016259733585" lon="13.261478485042192"><ele>1533.4</ele><time>2026-04-19T14:08:04.001Z</time></trkpt><trkpt lat="42.790224048936814" lon="13.261573541382019"><ele>1531.6</ele><time>2026-04-19T14:08:05.001Z</time></trkpt><trkpt lat="42.790272344681526" lon="13.261666655732377"><ele>1529.8000000000002</ele><time>2026-04-19T14:08:06.001Z</time></trkpt><trkpt lat="42.790363141915364" lon="13.261701635335085"><ele>1528.0</ele><time>2026-04-19T14:08:07.001Z</time></trkpt><trkpt lat="42.79046398512236" lon="13.261723797814113"><ele>1528.0</ele><time>2026-04-19T14:08:08.001Z</time></trkpt><trkpt lat="42.79057593931228" lon="13.261711207531446"><ele>1528.0</ele><time>2026-04-19T14:08:09.001Z</time></trkpt><trkpt lat="42.79069773273163" lon="13.261682231415792"><ele>1528.0</ele><time>2026-04-19T14:08:10.001Z</time></trkpt><trkpt lat="42.79081220717302" lon="13.261642432626038"><ele>1528.0</ele><time>2026-04-19T14:08:11.001Z</time></trkpt><trkpt lat="42.7909228209753" lon="13.261597053778013"><ele>1529.4</ele><time>2026-04-19T14:08:12.001Z</time></trkpt><trkpt lat="42.791028269763366" lon="13.261549128857174"><ele>1530.8000000000002</ele><time>2026-04-19T14:08:13.001Z</time></trkpt><trkpt lat="42.791129537564196" lon="13.261509883369357"><ele>1532.2</ele><time>2026-04-19T14:08:14.001Z</time></trkpt><trkpt lat="42.7912362019185" lon="13.261471225028309"><ele>1533.6</ele><time>2026-04-19T14:08:15.001Z</time></trkpt><trkpt lat="42.79134967828557" lon="13.26146296014317"><ele>1535.0</ele><time>2026-04-19T14:08:16.001Z</time></trkpt><trkpt lat="42.79146807233963" lon="13.261532477548283"><ele>1535.0</ele><time>2026-04-19T14:08:17.001Z</time></trkpt><trkpt lat="42.791530967841645" lon="13.261707174707388"><ele>1535.0</ele><time>2026-04-19T14:08:18.001Z</time></trkpt><trkpt lat="42.79160666890723" lon="13.261855972549734"><ele>1535.0</ele><time>2026-04-19T14:08:19.001Z</time></trkpt><trkpt lat="42.791691915207984" lon="13.262001915552187"><ele>1535.0</ele><time>2026-04-19T14:08:20.001Z</time></trkpt><trkpt lat="42.791798459697254" lon="13.262116599460722"><ele>1537.6666666666667</ele><time>2026-04-19T14:08:21.001Z</time></trkpt><trkpt lat="42.791934010091" lon="13.262190206121412"><ele>1540.3333333333335</ele><time>2026-04-19T14:08:22.001Z</time></trkpt><trkpt lat="42.792114356027966" lon="13.262244964537759"><ele>1543.0</ele><time>2026-04-19T14:08:23.001Z</time></trkpt><trkpt lat="42.79232124901632" lon="13.26229683695125"><ele>1531.6666666666667</ele><time>2026-04-19T14:08:24.001Z</time></trkpt><trkpt lat="42.79252360560022" lon="13.262349864926033"><ele>1520.3333333333335</ele><time>2026-04-19T14:08:25.001Z</time></trkpt><trkpt lat="42.7927129005541" lon="13.262401052191178"><ele>1509.0</ele><time>2026-04-19T14:08:26.001Z</time></trkpt><trkpt lat="42.79289655894244" lon="13.262454104949002"><ele>1509.0</ele><time>2026-04-19T14:08:27.001Z</time></trkpt><trkpt lat="42.7930783435092" lon="13.262507624338404"><ele>1509.0</ele><time>2026-04-19T14:08:28.001Z</time></trkpt><trkpt lat="42.79325195361357" lon="13.262557798945409"><ele>1509.0</ele><time>2026-04-19T14:08:29.001Z</time></trkpt><trkpt lat="42.793428781684" lon="13.262608989413419"><ele>1511.0</ele><time>2026-04-19T14:08:30.001Z</time></trkpt><trkpt lat="42.79360579655332" lon="13.262660880792907"><ele>1513.0</ele><time>2026-04-19T14:08:31.001Z</time></trkpt><trkpt lat="42.7938027680085" lon="13.262717938323197"><ele>1515.0</ele><time>2026-04-19T14:08:32.001Z</time></trkpt><trkpt lat="42.79402538474543" lon="13.26281331913749"><ele>1515.0</ele><time>2026-04-19T14:08:33Z</time></trkpt><trkpt lat="42.79426206067091" lon="13.262923090120244"><ele>1515.0</ele><time>2026-04-19T14:08:34Z</time></trkpt><trkpt lat="42.79449159644747" lon="13.263044565994258"><ele>1502.5</ele><time>2026-04-19T14:08:35Z</time></trkpt><trkpt lat="42.794714547339815" lon="13.263193488588128"><ele>1490.0</ele><time>2026-04-19T14:08:36Z</time></trkpt><trkpt lat="42.79492652648059" lon="13.263345074696215"><ele>1490.0</ele><time>2026-04-19T14:08:37Z</time></trkpt><trkpt lat="42.795135792370274" lon="13.263475812507279"><ele>1490.0</ele><time>2026-04-19T14:08:38Z</time></trkpt><trkpt lat="42.79533000304853" lon="13.26363726241805"><ele>1494.6666666666667</ele><time>2026-04-19T14:08:39Z</time></trkpt><trkpt lat="42.79551330067512" lon="13.263811185028926"><ele>1499.3333333333333</ele><time>2026-04-19T14:08:40Z</time></trkpt><trkpt lat="42.79567004262954" lon="13.264020664748656"><ele>1504.0</ele><time>2026-04-19T14:08:41Z</time></trkpt><trkpt lat="42.79581901418687" lon="13.264224514852195"><ele>1501.3333333333333</ele><time>2026-04-19T14:08:42Z</time></trkpt><trkpt lat="42.7959693242588" lon="13.264425725040791"><ele>1498.6666666666667</ele><time>2026-04-19T14:08:43Z</time></trkpt><trkpt lat="42.79611108406693" lon="13.264625066244285"><ele>1496.0</ele><time>2026-04-19T14:08:44Z</time></trkpt><trkpt lat="42.796252746034114" lon="13.26481822873602"><ele>1488.0</ele><time>2026-04-19T14:08:45Z</time></trkpt><trkpt lat="42.79638546401082" lon="13.264995473633318"><ele>1480.0</ele><time>2026-04-19T14:08:46Z</time></trkpt><trkpt lat="42.79650663083176" lon="13.265157292159921"><ele>1472.0</ele><time>2026-04-19T14:08:47Z</time></trkpt><trkpt lat="42.796628805521934" lon="13.265291371894458"><ele>1472.0</ele><time>2026-04-19T14:08:48Z</time></trkpt><trkpt lat="42.796721732770905" lon="13.265447361900279"><ele>1472.0</ele><time>2026-04-19T14:08:49Z</time></trkpt><trkpt lat="42.79679814506683" lon="13.265622617944016"><ele>1472.0</ele><time>2026-04-19T14:08:50Z</time></trkpt><trkpt lat="42.79682208659921" lon="13.265822594059587"><ele>1472.0</ele><time>2026-04-19T14:08:51Z</time></trkpt><trkpt lat="42.79684934206541" lon="13.266018281948798"><ele>1470.5</ele><time>2026-04-19T14:08:52Z</time></trkpt><trkpt lat="42.7969106042266" lon="13.266187652811867"><ele>1469.0</ele><time>2026-04-19T14:08:53Z</time></trkpt><trkpt lat="42.796962448526095" lon="13.266360896091754"><ele>1467.5</ele><time>2026-04-19T14:08:54Z</time></trkpt><trkpt lat="42.797027677893595" lon="13.266525862434746"><ele>1466.0</ele><time>2026-04-19T14:08:55Z</time></trkpt><trkpt lat="42.797101918013325" lon="13.266684786430378"><ele>1466.0</ele><time>2026-04-19T14:08:56Z</time></trkpt><trkpt lat="42.79718015315148" lon="13.266836107025107"><ele>1466.0</ele><time>2026-04-19T14:08:57Z</time></trkpt><trkpt lat="42.79726367901739" lon="13.266983015131451"><ele>1466.0</ele><time>2026-04-19T14:08:58Z</time></trkpt><trkpt lat="42.79735191597698" lon="13.267127290550718"><ele>1466.0</ele><time>2026-04-19T14:08:59Z</time></trkpt><trkpt lat="42.797443119444935" lon="13.267274129861365"><ele>1470.0</ele><time>2026-04-19T14:09:00Z</time></trkpt><trkpt lat="42.797543244416275" lon="13.26743396796574"><ele>1474.0</ele><time>2026-04-19T14:09:01Z</time></trkpt><trkpt lat="42.79765393937778" lon="13.26760349657005"><ele>1478.0</ele><time>2026-04-19T14:09:02Z</time></trkpt><trkpt lat="42.79777839333765" lon="13.267773490818682"><ele>1478.0</ele><time>2026-04-19T14:09:03Z</time></trkpt><trkpt lat="42.797916398042574" lon="13.267923275369247"><ele>1478.0</ele><time>2026-04-19T14:09:04Z</time></trkpt><trkpt lat="42.79806407601975" lon="13.268058056369489"><ele>1478.0</ele><time>2026-04-19T14:09:05Z</time></trkpt><trkpt lat="42.79817747064019" lon="13.268223808984866"><ele>1465.3333333333335</ele><time>2026-04-19T14:09:06Z</time></trkpt><trkpt lat="42.798270718501776" lon="13.268409527014505"><ele>1452.6666666666667</ele><time>2026-04-19T14:09:07Z</time></trkpt><trkpt lat="42.79835918289524" lon="13.268654260907663"><ele>1440.0</ele><time>2026-04-19T14:09:08Z</time></trkpt><trkpt lat="42.7984421553015" lon="13.268950015202957"><ele>1441.0</ele><time>2026-04-19T14:09:09Z</time></trkpt><trkpt lat="42.79850730963726" lon="13.269248940933226"><ele>1442.0</ele><time>2026-04-19T14:09:10Z</time></trkpt><trkpt lat="42.7985721664369" lon="13.26952800688318"><ele>1443.0</ele><time>2026-04-19T14:09:11Z</time></trkpt><trkpt lat="42.79865442047776" lon="13.269788124202575"><ele>1435.0</ele><time>2026-04-19T14:09:12Z</time></trkpt><trkpt lat="42.79872081805407" lon="13.270052388810226"><ele>1427.0</ele><time>2026-04-19T14:09:13Z</time></trkpt><trkpt lat="42.79884008686666" lon="13.270568300828588"><ele>1421.0</ele><time>2026-04-19T14:09:15Z</time></trkpt><trkpt lat="42.798902784020285" lon="13.27081887075371"><ele>1415.0</ele><time>2026-04-19T14:09:16Z</time></trkpt><trkpt lat="42.798964198981146" lon="13.271064316501048"><ele>1409.0</ele><time>2026-04-19T14:09:17Z</time></trkpt><trkpt lat="42.79902505997888" lon="13.271308753771761"><ele>1406.3333333333335</ele><time>2026-04-19T14:09:18Z</time></trkpt><trkpt lat="42.79907817718912" lon="13.271551080574225"><ele>1403.6666666666667</ele><time>2026-04-19T14:09:19Z</time></trkpt><trkpt lat="42.799116553892645" lon="13.27180245492519"><ele>1401.0</ele><time>2026-04-19T14:09:20Z</time></trkpt><trkpt lat="42.79913046835362" lon="13.272101449887243"><ele>1396.5</ele><time>2026-04-19T14:09:21Z</time></trkpt><trkpt lat="42.79913923880777" lon="13.272419940173082"><ele>1392.0</ele><time>2026-04-19T14:09:22Z</time></trkpt><trkpt lat="42.79916017912636" lon="13.272756978233845"><ele>1392.0</ele><time>2026-04-19T14:09:23Z</time></trkpt><trkpt lat="42.7991697096333" lon="13.273102079618754"><ele>1392.0</ele><time>2026-04-19T14:09:24Z</time></trkpt><trkpt lat="42.79918497420201" lon="13.2734397522919"><ele>1387.0</ele><time>2026-04-19T14:09:25Z</time></trkpt><trkpt lat="42.799195944720715" lon="13.273764728011283"><ele>1382.0</ele><time>2026-04-19T14:09:26Z</time></trkpt><trkpt lat="42.7992062230033" lon="13.27407776167772"><ele>1380.6666666666667</ele><time>2026-04-19T14:09:27Z</time></trkpt><trkpt lat="42.799216851444044" lon="13.27438794957675"><ele>1379.3333333333333</ele><time>2026-04-19T14:09:28Z</time></trkpt><trkpt lat="42.7992366219251" lon="13.27468357630838"><ele>1378.0</ele><time>2026-04-19T14:09:29Z</time></trkpt><trkpt lat="42.79927000412503" lon="13.274971195509965"><ele>1377.6666666666665</ele><time>2026-04-19T14:09:30Z</time></trkpt><trkpt lat="42.79931747796326" lon="13.27524202596095"><ele>1377.3333333333333</ele><time>2026-04-19T14:09:31Z</time></trkpt><trkpt lat="42.799346829064895" lon="13.275501690675979"><ele>1377.0</ele><time>2026-04-19T14:09:32Z</time></trkpt><trkpt lat="42.79938272131135" lon="13.275726916824814"><ele>1377.0</ele><time>2026-04-19T14:09:33Z</time></trkpt><trkpt lat="42.79941395894069" lon="13.275918563274809"><ele>1377.0</ele><time>2026-04-19T14:09:34Z</time></trkpt><trkpt lat="42.7994448152751" lon="13.276084576310993"><ele>1377.0</ele><time>2026-04-19T14:09:35Z</time></trkpt><trkpt lat="42.79946252194587" lon="13.276221100554242"><ele>1377.0</ele><time>2026-04-19T14:09:36Z</time></trkpt><trkpt lat="42.799457169301405" lon="13.276328451190597"><ele>1377.0</ele><time>2026-04-19T14:09:37Z</time></trkpt><trkpt lat="42.79944621356646" lon="13.276419979958566"><ele>1377.0</ele><time>2026-04-19T14:09:38Z</time></trkpt><trkpt lat="42.79937626865433" lon="13.276497861700953"><ele>1377.0</ele><time>2026-04-19T14:09:39Z</time></trkpt><trkpt lat="42.79929292498017" lon="13.276527193061609"><ele>1377.0</ele><time>2026-04-19T14:09:40Z</time></trkpt><trkpt lat="42.79921061359843" lon="13.2764649182254"><ele>1377.0</ele><time>2026-04-19T14:09:41Z</time></trkpt><trkpt lat="42.799118168227785" lon="13.276392154922412"><ele>1377.0</ele><time>2026-04-19T14:09:42Z</time></trkpt><trkpt lat="42.79898275217256" lon="13.276316966859687"><ele>1373.3333333333333</ele><time>2026-04-19T14:09:43Z</time></trkpt><trkpt lat="42.79883331828948" lon="13.276205903767636"><ele>1369.6666666666665</ele><time>2026-04-19T14:09:44Z</time></trkpt><trkpt lat="42.79866262140961" lon="13.276087379040728"><ele>1366.0</ele><time>2026-04-19T14:09:45Z</time></trkpt><trkpt lat="42.79849253649253" lon="13.27596281697576"><ele>1364.3333333333333</ele><time>2026-04-19T14:09:46Z</time></trkpt><trkpt lat="42.79831650946854" lon="13.275812374663682"><ele>1362.6666666666667</ele><time>2026-04-19T14:09:47Z</time></trkpt><trkpt lat="42.798150614819214" lon="13.275634526253643"><ele>1361.0</ele><time>2026-04-19T14:09:48Z</time></trkpt><trkpt lat="42.797994821875825" lon="13.27545315169442"><ele>1361.0</ele><time>2026-04-19T14:09:49Z</time></trkpt><trkpt lat="42.79783297556463" lon="13.275303042984733"><ele>1361.0</ele><time>2026-04-19T14:09:50Z</time></trkpt><trkpt lat="42.797639359514164" lon="13.275182604843714"><ele>1361.0</ele><time>2026-04-19T14:09:51Z</time></trkpt><trkpt lat="42.79741736509336" lon="13.275091935924905"><ele>1356.6666666666667</ele><time>2026-04-19T14:09:52Z</time></trkpt><trkpt lat="42.79719267615095" lon="13.275005977134427"><ele>1352.3333333333333</ele><time>2026-04-19T14:09:53Z</time></trkpt><trkpt lat="42.79700359463396" lon="13.274891336140465"><ele>1348.0</ele><time>2026-04-19T14:09:54Z</time></trkpt><trkpt lat="42.796833769915" lon="13.274767808656994"><ele>1346.6666666666665</ele><time>2026-04-19T14:09:55Z</time></trkpt><trkpt lat="42.79668270338944" lon="13.274608465662993"><ele>1345.3333333333333</ele><time>2026-04-19T14:09:56Z</time></trkpt><trkpt lat="42.79655274548982" lon="13.274424310387282"><ele>1344.0</ele><time>2026-04-19T14:09:57Z</time></trkpt><trkpt lat="42.79642654274551" lon="13.274221332760236"><ele>1344.0</ele><time>2026-04-19T14:09:58Z</time></trkpt><trkpt lat="42.79634603169941" lon="13.274014495634995"><ele>1344.0</ele><time>2026-04-19T14:09:59Z</time></trkpt><trkpt lat="42.79628071955671" lon="13.273859320522954"><ele>1344.0</ele><time>2026-04-19T14:10:00Z</time></trkpt><trkpt lat="42.796210407953694" lon="13.273756024301006"><ele>1344.0</ele><time>2026-04-19T14:10:01Z</time></trkpt><trkpt lat="42.796133882691386" lon="13.273713423436375"><ele>1345.0</ele><time>2026-04-19T14:10:02Z</time></trkpt><trkpt lat="42.79605212343696" lon="13.273731982899365"><ele>1346.0</ele><time>2026-04-19T14:10:03Z</time></trkpt><trkpt lat="42.79596896876543" lon="13.27377700455661"><ele>1347.0</ele><time>2026-04-19T14:10:04Z</time></trkpt><trkpt lat="42.795911513085755" lon="13.273893832871867"><ele>1348.0</ele><time>2026-04-19T14:10:05Z</time></trkpt><trkpt lat="42.795926802661306" lon="13.27405134482285"><ele>1349.0</ele><time>2026-04-19T14:10:06Z</time></trkpt><trkpt lat="42.79596184225818" lon="13.27419071912624"><ele>1347.75</ele><time>2026-04-19T14:10:07Z</time></trkpt><trkpt lat="42.79601608718496" lon="13.274369261037593"><ele>1346.5</ele><time>2026-04-19T14:10:08Z</time></trkpt><trkpt lat="42.7960762245204" lon="13.274559270057596"><ele>1345.25</ele><time>2026-04-19T14:10:09Z</time></trkpt><trkpt lat="42.79614686536938" lon="13.274716235852333"><ele>1344.0</ele><time>2026-04-19T14:10:10Z</time></trkpt><trkpt lat="42.796254502212335" lon="13.274846841275606"><ele>1339.0</ele><time>2026-04-19T14:10:11Z</time></trkpt><trkpt lat="42.796399936575014" lon="13.27497603824429"><ele>1334.0</ele><time>2026-04-19T14:10:12Z</time></trkpt><trkpt lat="42.79655630706936" lon="13.275125202719185"><ele>1329.0</ele><time>2026-04-19T14:10:13Z</time></trkpt><trkpt lat="42.79668239816109" lon="13.275351195154066"><ele>1329.0</ele><time>2026-04-19T14:10:14Z</time></trkpt><trkpt lat="42.79681684146108" lon="13.275601784708375"><ele>1329.0</ele><time>2026-04-19T14:10:15Z</time></trkpt><trkpt lat="42.796934380731344" lon="13.275842481707281"><ele>1329.0</ele><time>2026-04-19T14:10:16Z</time></trkpt><trkpt lat="42.7970438087816" lon="13.27607259421632"><ele>1328.6666666666667</ele><time>2026-04-19T14:10:17Z</time></trkpt><trkpt lat="42.79713954828581" lon="13.276288996760064"><ele>1328.3333333333335</ele><time>2026-04-19T14:10:18Z</time></trkpt><trkpt lat="42.79722560343414" lon="13.276535842577275"><ele>1328.0</ele><time>2026-04-19T14:10:19Z</time></trkpt><trkpt lat="42.79728788164003" lon="13.276823797546676"><ele>1323.3333333333335</ele><time>2026-04-19T14:10:20Z</time></trkpt><trkpt lat="42.79735729209767" lon="13.277109509222887"><ele>1318.6666666666667</ele><time>2026-04-19T14:10:21Z</time></trkpt><trkpt lat="42.797457056966415" lon="13.277351090155037"><ele>1314.0</ele><time>2026-04-19T14:10:22Z</time></trkpt><trkpt lat="42.79757502476346" lon="13.277581729377308"><ele>1315.5</ele><time>2026-04-19T14:10:23Z</time></trkpt><trkpt lat="42.79773064670873" lon="13.277810877610417"><ele>1317.0</ele><time>2026-04-19T14:10:24Z</time></trkpt><trkpt lat="42.797912970444166" lon="13.278047592939153"><ele>1306.0</ele><time>2026-04-19T14:10:25Z</time></trkpt><trkpt lat="42.79809691870082" lon="13.278295172672124"><ele>1295.0</ele><time>2026-04-19T14:10:26Z</time></trkpt><trkpt lat="42.79826251841533" lon="13.27852845611518"><ele>1295.0</ele><time>2026-04-19T14:10:27Z</time></trkpt><trkpt lat="42.79842006412285" lon="13.278756624778755"><ele>1295.0</ele><time>2026-04-19T14:10:28Z</time></trkpt><trkpt lat="42.798572261813916" lon="13.278979992793214"><ele>1294.0</ele><time>2026-04-19T14:10:29Z</time></trkpt><trkpt lat="42.79872135441543" lon="13.279197190161758"><ele>1293.0</ele><time>2026-04-19T14:10:30Z</time></trkpt><trkpt lat="42.79886673172352" lon="13.279405559738624"><ele>1292.0</ele><time>2026-04-19T14:10:31Z</time></trkpt><trkpt lat="42.799010047657454" lon="13.27961216958915"><ele>1290.0</ele><time>2026-04-19T14:10:32Z</time></trkpt><trkpt lat="42.79914971198803" lon="13.279812094947301"><ele>1288.0</ele><time>2026-04-19T14:10:33Z</time></trkpt><trkpt lat="42.79927926640353" lon="13.280021542157295"><ele>1286.0</ele><time>2026-04-19T14:10:34Z</time></trkpt><trkpt lat="42.79941100850101" lon="13.280209735458515"><ele>1286.0</ele><time>2026-04-19T14:10:35Z</time></trkpt><trkpt lat="42.799527941239596" lon="13.28039693726173"><ele>1286.0</ele><time>2026-04-19T14:10:36Z</time></trkpt><trkpt lat="42.79959993126905" lon="13.280586979732028"><ele>1286.0</ele><time>2026-04-19T14:10:37Z</time></trkpt><trkpt lat="42.799625836577334" lon="13.280764599052368"><ele>1281.3333333333335</ele><time>2026-04-19T14:10:38Z</time></trkpt><trkpt lat="42.79963109295322" lon="13.280952456047741"><ele>1276.6666666666667</ele><time>2026-04-19T14:10:39Z</time></trkpt><trkpt lat="42.7996137077328" lon="13.281166601266225"><ele>1272.0</ele><time>2026-04-19T14:10:40Z</time></trkpt><trkpt lat="42.79958746247354" lon="13.281389821117449"><ele>1267.0</ele><time>2026-04-19T14:10:41Z</time></trkpt><trkpt lat="42.79956421912374" lon="13.28161279537227"><ele>1262.0</ele><time>2026-04-19T14:10:42Z</time></trkpt><trkpt lat="42.79954193513328" lon="13.281820505626154"><ele>1257.0</ele><time>2026-04-19T14:10:43Z</time></trkpt><trkpt lat="42.79952024395777" lon="13.282017803884573"><ele>1257.0</ele><time>2026-04-19T14:10:44Z</time></trkpt><trkpt lat="42.79949865739425" lon="13.282211707424983"><ele>1257.0</ele><time>2026-04-19T14:10:45Z</time></trkpt><trkpt lat="42.79947378356202" lon="13.282403109175554"><ele>1257.0</ele><time>2026-04-19T14:10:46Z</time></trkpt><trkpt lat="42.799445472723285" lon="13.282586254602236"><ele>1257.0</ele><time>2026-04-19T14:10:47Z</time></trkpt><trkpt lat="42.799404941949625" lon="13.282751375816268"><ele>1258.0</ele><time>2026-04-19T14:10:48Z</time></trkpt><trkpt lat="42.79934546491966" lon="13.282899447680485"><ele>1259.0</ele><time>2026-04-19T14:10:49Z</time></trkpt><trkpt lat="42.799268650494795" lon="13.283027744762597"><ele>1260.0</ele><time>2026-04-19T14:10:50Z</time></trkpt><trkpt lat="42.79917691218187" lon="13.283142165078038"><ele>1261.0</ele><time>2026-04-19T14:10:51Z</time></trkpt><trkpt lat="42.799063006535505" lon="13.283226374757076"><ele>1257.25</ele><time>2026-04-19T14:10:52Z</time></trkpt><trkpt lat="42.79893681250947" lon="13.283289866930627"><ele>1253.5</ele><time>2026-04-19T14:10:53Z</time></trkpt><trkpt lat="42.798807962032825" lon="13.283331069197796"><ele>1249.75</ele><time>2026-04-19T14:10:54Z</time></trkpt><trkpt lat="42.798685836101555" lon="13.283385088726222"><ele>1246.0</ele><time>2026-04-19T14:10:55Z</time></trkpt><trkpt lat="42.7985640098663" lon="13.283416276658608"><ele>1246.25</ele><time>2026-04-19T14:10:56Z</time></trkpt><trkpt lat="42.798442329706134" lon="13.283448385506743"><ele>1246.5</ele><time>2026-04-19T14:10:57Z</time></trkpt><trkpt lat="42.79831706363562" lon="13.28347776142125"><ele>1246.75</ele><time>2026-04-19T14:10:58Z</time></trkpt><trkpt lat="42.79819187948137" lon="13.28351065836836"><ele>1247.0</ele><time>2026-04-19T14:10:59Z</time></trkpt><trkpt lat="42.798068718307825" lon="13.283543800541262"><ele>1247.0</ele><time>2026-04-19T14:11:00Z</time></trkpt><trkpt lat="42.79795345204848" lon="13.28358082955895"><ele>1247.0</ele><time>2026-04-19T14:11:01Z</time></trkpt><trkpt lat="42.797850701884535" lon="13.283644534924894"><ele>1247.0</ele><time>2026-04-19T14:11:02Z</time></trkpt><trkpt lat="42.797771497261316" lon="13.283736067626927"><ele>1247.0</ele><time>2026-04-19T14:11:03Z</time></trkpt><trkpt lat="42.797715525177054" lon="13.283854624871974"><ele>1247.0</ele><time>2026-04-19T14:11:04Z</time></trkpt><trkpt lat="42.79768991213864" lon="13.2839888473635"><ele>1245.8</ele><time>2026-04-19T14:11:05Z</time></trkpt><trkpt lat="42.79769681714556" lon="13.284115234363817"><ele>1244.6</ele><time>2026-04-19T14:11:06Z</time></trkpt><trkpt lat="42.797728620062685" lon="13.284233118059134"><ele>1243.3999999999999</ele><time>2026-04-19T14:11:07Z</time></trkpt><trkpt lat="42.79777759751141" lon="13.284342217717443"><ele>1242.2</ele><time>2026-04-19T14:11:08Z</time></trkpt><trkpt lat="42.79785185193403" lon="13.284428641344602"><ele>1241.0</ele><time>2026-04-19T14:11:09Z</time></trkpt><trkpt lat="42.79794298723524" lon="13.284485042740666"><ele>1241.0</ele><time>2026-04-19T14:11:10Z</time></trkpt><trkpt lat="42.79804651277507" lon="13.284501623411215"><ele>1241.0</ele><time>2026-04-19T14:11:11Z</time></trkpt><trkpt lat="42.79816691669263" lon="13.284478670674355"><ele>1241.0</ele><time>2026-04-19T14:11:12Z</time></trkpt><trkpt lat="42.798312629271095" lon="13.28442173334509"><ele>1241.0</ele><time>2026-04-19T14:11:13Z</time></trkpt><trkpt lat="42.79848871704699" lon="13.284341356803425"><ele>1239.6666666666667</ele><time>2026-04-19T14:11:14Z</time></trkpt><trkpt lat="42.79869701637139" lon="13.284290332425376"><ele>1238.3333333333333</ele><time>2026-04-19T14:11:15Z</time></trkpt><trkpt lat="42.79890364960231" lon="13.284209125605036"><ele>1237.0</ele><time>2026-04-19T14:11:16Z</time></trkpt><trkpt lat="42.799102048846635" lon="13.284158397343665"><ele>1237.0</ele><time>2026-04-19T14:11:17Z</time></trkpt><trkpt lat="42.7992805847609" lon="13.284103636024472"><ele>1237.0</ele><time>2026-04-19T14:11:18Z</time></trkpt><trkpt lat="42.79943194317607" lon="13.284056870138798"><ele>1237.0</ele><time>2026-04-19T14:11:19Z</time></trkpt><trkpt lat="42.79957176670762" lon="13.284011178127392"><ele>1235.0</ele><time>2026-04-19T14:11:20Z</time></trkpt><trkpt lat="42.79969643811105" lon="13.28394804652542"><ele>1233.0</ele><time>2026-04-19T14:11:21Z</time></trkpt><trkpt lat="42.79981508937783" lon="13.283862142885948"><ele>1231.0</ele><time>2026-04-19T14:11:22Z</time></trkpt><trkpt lat="42.79991614377517" lon="13.283750702720122"><ele>1229.0</ele><time>2026-04-19T14:11:23Z</time></trkpt><trkpt lat="42.800000833374135" lon="13.28360760056002"><ele>1229.0</ele><time>2026-04-19T14:11:24Z</time></trkpt><trkpt lat="42.80008225653829" lon="13.283420026492651"><ele>1229.0</ele><time>2026-04-19T14:11:25Z</time></trkpt><trkpt lat="42.80018672375141" lon="13.283192910627827"><ele>1229.0</ele><time>2026-04-19T14:11:26Z</time></trkpt><trkpt lat="42.80030505795462" lon="13.282959212690406"><ele>1225.3333333333335</ele><time>2026-04-19T14:11:27Z</time></trkpt><trkpt lat="42.800418256828664" lon="13.282754725886615"><ele>1221.6666666666667</ele><time>2026-04-19T14:11:28Z</time></trkpt><trkpt lat="42.8005214708904" lon="13.282573079204738"><ele>1218.0</ele><time>2026-04-19T14:11:29Z</time></trkpt><trkpt lat="42.80063173387213" lon="13.28241434736059"><ele>1218.0</ele><time>2026-04-19T14:11:30Z</time></trkpt><trkpt lat="42.80076365205992" lon="13.282292655823516"><ele>1218.0</ele><time>2026-04-19T14:11:31Z</time></trkpt><trkpt lat="42.8009391630393" lon="13.282234833495776"><ele>1218.0</ele><time>2026-04-19T14:11:32Z</time></trkpt><trkpt lat="42.80115156756638" lon="13.282139326807446"><ele>1219.5</ele><time>2026-04-19T14:11:33Z</time></trkpt><trkpt lat="42.80138021252326" lon="13.282064680522137"><ele>1221.0</ele><time>2026-04-19T14:11:33.999Z</time></trkpt><trkpt lat="42.801620316006634" lon="13.281988496207127"><ele>1220.6666666666667</ele><time>2026-04-19T14:11:34.999Z</time></trkpt><trkpt lat="42.8018476078289" lon="13.281930149809629"><ele>1220.3333333333335</ele><time>2026-04-19T14:11:35.999Z</time></trkpt><trkpt lat="42.80203556379052" lon="13.281910553536315"><ele>1220.0</ele><time>2026-04-19T14:11:36.999Z</time></trkpt><trkpt lat="42.802198521177004" lon="13.28191001634768"><ele>1220.0</ele><time>2026-04-19T14:11:37.999Z</time></trkpt><trkpt lat="42.80234356402563" lon="13.281996684060655"><ele>1220.0</ele><time>2026-04-19T14:11:38.999Z</time></trkpt><trkpt lat="42.80251553874266" lon="13.282107692566687"><ele>1220.0</ele><time>2026-04-19T14:11:39.999Z</time></trkpt><trkpt lat="42.80270974454972" lon="13.282259995327237"><ele>1218.5</ele><time>2026-04-19T14:11:40.999Z</time></trkpt><trkpt lat="42.80290396228191" lon="13.28247178204671"><ele>1217.0</ele><time>2026-04-19T14:11:41.999Z</time></trkpt><trkpt lat="42.80308999192105" lon="13.282679774214184"><ele>1217.0</ele><time>2026-04-19T14:11:42.999Z</time></trkpt><trkpt lat="42.80323256323894" lon="13.282841900222092"><ele>1217.0</ele><time>2026-04-19T14:11:43.999Z</time></trkpt><trkpt lat="42.803333453646054" lon="13.28297624065708"><ele>1217.0</ele><time>2026-04-19T14:11:44.999Z</time></trkpt><trkpt lat="42.80339606877801" lon="13.283125052871512"><ele>1211.3333333333335</ele><time>2026-04-19T14:11:45.999Z</time></trkpt><trkpt lat="42.80342744036835" lon="13.283298521072712"><ele>1205.6666666666667</ele><time>2026-04-19T14:11:47Z</time></trkpt><trkpt lat="42.803419214055445" lon="13.283503100100164"><ele>1200.0</ele><time>2026-04-19T14:11:48Z</time></trkpt><trkpt lat="42.80339341531507" lon="13.28376612843126"><ele>1196.0</ele><time>2026-04-19T14:11:49Z</time></trkpt><trkpt lat="42.80336366989004" lon="13.284080208874531"><ele>1192.0</ele><time>2026-04-19T14:11:50Z</time></trkpt><trkpt lat="42.80333159517614" lon="13.284438930789722"><ele>1192.0</ele><time>2026-04-19T14:11:51Z</time></trkpt><trkpt lat="42.80329480581055" lon="13.284810316629923"><ele>1192.0</ele><time>2026-04-19T14:11:52Z</time></trkpt><trkpt lat="42.803281891553034" lon="13.285158156068169"><ele>1192.0</ele><time>2026-04-19T14:11:53Z</time></trkpt><trkpt lat="42.80324608792156" lon="13.285472267168428"><ele>1192.0</ele><time>2026-04-19T14:11:54Z</time></trkpt><trkpt lat="42.80322051134565" lon="13.285765340113048"><ele>1189.5</ele><time>2026-04-19T14:11:55Z</time></trkpt><trkpt lat="42.80326034126278" lon="13.28604582487417"><ele>1187.0</ele><time>2026-04-19T14:11:56Z</time></trkpt><trkpt lat="42.8033160862634" lon="13.286365233097506"><ele>1182.0</ele><time>2026-04-19T14:11:57Z</time></trkpt><trkpt lat="42.80339756212656" lon="13.286698580400339"><ele>1177.0</ele><time>2026-04-19T14:11:58Z</time></trkpt><trkpt lat="42.803464491096" lon="13.287066945528178"><ele>1186.5</ele><time>2026-04-19T14:11:59Z</time></trkpt><trkpt lat="42.80353746779579" lon="13.287418058040062"><ele>1196.0</ele><time>2026-04-19T14:12:00Z</time></trkpt><trkpt lat="42.803601188275834" lon="13.28770653931604"><ele>1196.0</ele><time>2026-04-19T14:12:01Z</time></trkpt><trkpt lat="42.80368799973506" lon="13.287964512198602"><ele>1196.0</ele><time>2026-04-19T14:12:02Z</time></trkpt><trkpt lat="42.8038188864986" lon="13.288198125671926"><ele>1196.0</ele><time>2026-04-19T14:12:03Z</time></trkpt><trkpt lat="42.80396023619708" lon="13.288423642861842"><ele>1190.3333333333335</ele><time>2026-04-19T14:12:04Z</time></trkpt><trkpt lat="42.80406619304367" lon="13.288638151026296"><ele>1184.6666666666667</ele><time>2026-04-19T14:12:05Z</time></trkpt><trkpt lat="42.804135345089854" lon="13.288841317269585"><ele>1179.0</ele><time>2026-04-19T14:12:06Z</time></trkpt><trkpt lat="42.80422966716853" lon="13.289017988576408"><ele>1176.0</ele><time>2026-04-19T14:12:07Z</time></trkpt><trkpt lat="42.80437539329148" lon="13.289142804227925"><ele>1173.0</ele><time>2026-04-19T14:12:08Z</time></trkpt><trkpt lat="42.80454627965915" lon="13.289256540071623"><ele>1170.0</ele><time>2026-04-19T14:12:09Z</time></trkpt><trkpt lat="42.80473984729219" lon="13.289341379565446"><ele>1170.0</ele><time>2026-04-19T14:12:10Z</time></trkpt><trkpt lat="42.80492103294267" lon="13.289390330427183"><ele>1170.0</ele><time>2026-04-19T14:12:11Z</time></trkpt><trkpt lat="42.80509457813178" lon="13.28940228030123"><ele>1170.0</ele><time>2026-04-19T14:12:12Z</time></trkpt><trkpt lat="42.80526164655055" lon="13.289404814100523"><ele>1173.6666666666667</ele><time>2026-04-19T14:12:13Z</time></trkpt><trkpt lat="42.805416116092275" lon="13.289456634940631"><ele>1177.3333333333335</ele><time>2026-04-19T14:12:14Z</time></trkpt><trkpt lat="42.80557058451966" lon="13.289523038898368"><ele>1181.0</ele><time>2026-04-19T14:12:15Z</time></trkpt><trkpt lat="42.80571214138533" lon="13.289614417383659"><ele>1181.0</ele><time>2026-04-19T14:12:16Z</time></trkpt><trkpt lat="42.805831826161615" lon="13.289729439905624"><ele>1181.0</ele><time>2026-04-19T14:12:17Z</time></trkpt><trkpt lat="42.80594987559088" lon="13.289860398283382"><ele>1181.0</ele><time>2026-04-19T14:12:18Z</time></trkpt><trkpt lat="42.80606342799298" lon="13.290009587552502"><ele>1173.6666666666667</ele><time>2026-04-19T14:12:19Z</time></trkpt><trkpt lat="42.80618016318909" lon="13.290170940013995"><ele>1166.3333333333333</ele><time>2026-04-19T14:12:20Z</time></trkpt><trkpt lat="42.806300536993646" lon="13.2903371647481"><ele>1159.0</ele><time>2026-04-19T14:12:21Z</time></trkpt><trkpt lat="42.80641715528202" lon="13.290493971301997"><ele>1154.25</ele><time>2026-04-19T14:12:22Z</time></trkpt><trkpt lat="42.80652710058174" lon="13.290638430984298"><ele>1149.5</ele><time>2026-04-19T14:12:23Z</time></trkpt><trkpt lat="42.806630215728504" lon="13.290774547803904"><ele>1144.75</ele><time>2026-04-19T14:12:24Z</time></trkpt><trkpt lat="42.806728691440114" lon="13.290907155451283"><ele>1140.0</ele><time>2026-04-19T14:12:25Z</time></trkpt><trkpt lat="42.80682440165624" lon="13.291036298698053"><ele>1140.0</ele><time>2026-04-19T14:12:26Z</time></trkpt><trkpt lat="42.806917282847955" lon="13.291161624934098"><ele>1140.0</ele><time>2026-04-19T14:12:27Z</time></trkpt><trkpt lat="42.80701005395667" lon="13.291286802444178"><ele>1140.0</ele><time>2026-04-19T14:12:28Z</time></trkpt><trkpt lat="42.8071067042347" lon="13.291417214240592"><ele>1140.0</ele><time>2026-04-19T14:12:29Z</time></trkpt><trkpt lat="42.80721182618419" lon="13.291555730361685"><ele>1140.0</ele><time>2026-04-19T14:12:30Z</time></trkpt><trkpt lat="42.80731926755522" lon="13.29169641584133"><ele>1140.0</ele><time>2026-04-19T14:12:31Z</time></trkpt><trkpt lat="42.807420873359966" lon="13.29182946005867"><ele>1140.0</ele><time>2026-04-19T14:12:32Z</time></trkpt><trkpt lat="42.8075240470333" lon="13.291950873902119"><ele>1140.0</ele><time>2026-04-19T14:12:33Z</time></trkpt><trkpt lat="42.80762960271145" lon="13.292085648932725"><ele>1138.0</ele><time>2026-04-19T14:12:34Z</time></trkpt><trkpt lat="42.80774098616753" lon="13.292232394191545"><ele>1136.0</ele><time>2026-04-19T14:12:35Z</time></trkpt><trkpt lat="42.80785188193429" lon="13.292376415115589"><ele>1134.0</ele><time>2026-04-19T14:12:36Z</time></trkpt><trkpt lat="42.80795451294235" lon="13.292513357230376"><ele>1134.0</ele><time>2026-04-19T14:12:37Z</time></trkpt><trkpt lat="42.8080411352557" lon="13.292658882394948"><ele>1134.0</ele><time>2026-04-19T14:12:38Z</time></trkpt><trkpt lat="42.80813284444982" lon="13.292789431903337"><ele>1134.0</ele><time>2026-04-19T14:12:39Z</time></trkpt><trkpt lat="42.808215776040555" lon="13.292918779772188"><ele>1134.0</ele><time>2026-04-19T14:12:40Z</time></trkpt><trkpt lat="42.80829274957675" lon="13.293050713402486"><ele>1137.0</ele><time>2026-04-19T14:12:41Z</time></trkpt><trkpt lat="42.80837069355625" lon="13.293197867001142"><ele>1140.0</ele><time>2026-04-19T14:12:42Z</time></trkpt><trkpt lat="42.808447223561" lon="13.293366186348846"><ele>1143.0</ele><time>2026-04-19T14:12:43Z</time></trkpt><trkpt lat="42.80853677182795" lon="13.29357281476512"><ele>1143.0</ele><time>2026-04-19T14:12:44Z</time></trkpt><trkpt lat="42.808624915158255" lon="13.29377619959884"><ele>1143.0</ele><time>2026-04-19T14:12:45Z</time></trkpt><trkpt lat="42.808711924234515" lon="13.293994849470472"><ele>1143.0</ele><time>2026-04-19T14:12:46Z</time></trkpt><trkpt lat="42.808768108019564" lon="13.294236434884148"><ele>1140.6666666666667</ele><time>2026-04-19T14:12:47Z</time></trkpt><trkpt lat="42.80880793411218" lon="13.294474409276903"><ele>1138.3333333333335</ele><time>2026-04-19T14:12:48Z</time></trkpt><trkpt lat="42.80884226892794" lon="13.294706160590119"><ele>1136.0</ele><time>2026-04-19T14:12:49Z</time></trkpt><trkpt lat="42.80886838788721" lon="13.294955100054223"><ele>1133.6666666666667</ele><time>2026-04-19T14:12:50Z</time></trkpt><trkpt lat="42.80890748911435" lon="13.29518235341021"><ele>1131.3333333333333</ele><time>2026-04-19T14:12:51Z</time></trkpt><trkpt lat="42.80893324403693" lon="13.295402502015703"><ele>1129.0</ele><time>2026-04-19T14:12:52Z</time></trkpt><trkpt lat="42.80896013762849" lon="13.295600617366269"><ele>1127.0</ele><time>2026-04-19T14:12:53Z</time></trkpt><trkpt lat="42.80897872549871" lon="13.295799325686307"><ele>1125.0</ele><time>2026-04-19T14:12:54Z</time></trkpt><trkpt lat="42.80900169078291" lon="13.295988164339814"><ele>1123.0</ele><time>2026-04-19T14:12:55Z</time></trkpt><trkpt lat="42.80902423583076" lon="13.296167309691832"><ele>1121.0</ele><time>2026-04-19T14:12:56Z</time></trkpt><trkpt lat="42.80904867943984" lon="13.296339297219815"><ele>1118.25</ele><time>2026-04-19T14:12:57Z</time></trkpt><trkpt lat="42.80906504030169" lon="13.296506188469008"><ele>1115.5</ele><time>2026-04-19T14:12:58Z</time></trkpt><trkpt lat="42.80908089663162" lon="13.296671456532135"><ele>1112.75</ele><time>2026-04-19T14:12:59Z</time></trkpt><trkpt lat="42.80908767485979" lon="13.296838310893651"><ele>1110.0</ele><time>2026-04-19T14:13:00Z</time></trkpt><trkpt lat="42.80908671025781" lon="13.297012813723832"><ele>1110.0</ele><time>2026-04-19T14:13:01Z</time></trkpt><trkpt lat="42.80908525998948" lon="13.297184872224054"><ele>1110.0</ele><time>2026-04-19T14:13:02Z</time></trkpt><trkpt lat="42.80907298428428" lon="13.297360290682004"><ele>1110.0</ele><time>2026-04-19T14:13:03Z</time></trkpt><trkpt lat="42.80904090501627" lon="13.297542258726331"><ele>1110.0</ele><time>2026-04-19T14:13:04Z</time></trkpt><trkpt lat="42.80899348854607" lon="13.297719799871238"><ele>1109.25</ele><time>2026-04-19T14:13:05Z</time></trkpt><trkpt lat="42.80894537408676" lon="13.29789229790774"><ele>1108.5</ele><time>2026-04-19T14:13:06Z</time></trkpt><trkpt lat="42.808892968980935" lon="13.298065528029287"><ele>1107.75</ele><time>2026-04-19T14:13:07Z</time></trkpt><trkpt lat="42.808828685719135" lon="13.298228468792944"><ele>1107.0</ele><time>2026-04-19T14:13:08Z</time></trkpt><trkpt lat="42.80875462042478" lon="13.298371722073442"><ele>1106.75</ele><time>2026-04-19T14:13:09Z</time></trkpt><trkpt lat="42.80866710228638" lon="13.298519327224385"><ele>1106.5</ele><time>2026-04-19T14:13:10Z</time></trkpt><trkpt lat="42.808570074894824" lon="13.298667005038258"><ele>1106.25</ele><time>2026-04-19T14:13:11Z</time></trkpt><trkpt lat="42.80847143963173" lon="13.298797718141392"><ele>1106.0</ele><time>2026-04-19T14:13:12Z</time></trkpt><trkpt lat="42.80838041861608" lon="13.298921422871055"><ele>1106.0</ele><time>2026-04-19T14:13:13Z</time></trkpt><trkpt lat="42.808293782444665" lon="13.29904140611441"><ele>1106.0</ele><time>2026-04-19T14:13:14Z</time></trkpt><trkpt lat="42.808128372670524" lon="13.29926945701616"><ele>1106.0</ele><time>2026-04-19T14:13:16Z</time></trkpt><trkpt lat="42.80805613508776" lon="13.29937512631098"><ele>1106.0</ele><time>2026-04-19T14:13:17Z</time></trkpt><trkpt lat="42.80799502126167" lon="13.29947777820323"><ele>1106.0</ele><time>2026-04-19T14:13:18Z</time></trkpt><trkpt lat="42.8079285351714" lon="13.299569229810215"><ele>1106.0</ele><time>2026-04-19T14:13:19Z</time></trkpt><trkpt lat="42.80785823809978" lon="13.29964915334473"><ele>1106.0</ele><time>2026-04-19T14:13:20Z</time></trkpt><trkpt lat="42.80779238019914" lon="13.299717879225794"><ele>1106.0</ele><time>2026-04-19T14:13:21Z</time></trkpt><trkpt lat="42.80770911192819" lon="13.2997811745879"><ele>1104.0</ele><time>2026-04-19T14:13:23Z</time></trkpt><trkpt lat="42.80764238356143" lon="13.299908132113046"><ele>1102.0</ele><time>2026-04-19T14:13:25Z</time></trkpt><trkpt lat="42.80758908510478" lon="13.300046243179647"><ele>1100.0</ele><time>2026-04-19T14:13:26Z</time></trkpt><trkpt lat="42.807504966769365" lon="13.300198739675379"><ele>1098.0</ele><time>2026-04-19T14:13:27Z</time></trkpt><trkpt lat="42.8073902160849" lon="13.300375717414601"><ele>1098.0</ele><time>2026-04-19T14:13:27.999Z</time></trkpt><trkpt lat="42.80725309756691" lon="13.300572764103444"><ele>1098.0</ele><time>2026-04-19T14:13:28.999Z</time></trkpt><trkpt lat="42.80708237295284" lon="13.300751309248577"><ele>1098.0</ele><time>2026-04-19T14:13:29.999Z</time></trkpt><trkpt lat="42.8069030906263" lon="13.30088394652506"><ele>1095.25</ele><time>2026-04-19T14:13:30.999Z</time></trkpt><trkpt lat="42.806760276215364" lon="13.301008663808448"><ele>1092.5</ele><time>2026-04-19T14:13:31.999Z</time></trkpt><trkpt lat="42.806673842713685" lon="13.30112878435082"><ele>1089.75</ele><time>2026-04-19T14:13:32.999Z</time></trkpt><trkpt lat="42.80666444849027" lon="13.30126610956657"><ele>1087.0</ele><time>2026-04-19T14:13:33.999Z</time></trkpt><trkpt lat="42.806698712221355" lon="13.301362392840545"><ele>1086.75</ele><time>2026-04-19T14:13:34.999Z</time></trkpt><trkpt lat="42.80677680129423" lon="13.301437237286294"><ele>1086.5</ele><time>2026-04-19T14:13:35.999Z</time></trkpt><trkpt lat="42.806901062552946" lon="13.301474024240193"><ele>1086.25</ele><time>2026-04-19T14:13:36.999Z</time></trkpt><trkpt lat="42.80705454733059" lon="13.301446619121185"><ele>1086.0</ele><time>2026-04-19T14:13:37.999Z</time></trkpt><trkpt lat="42.80722867870756" lon="13.301360747567097"><ele>1091.3333333333333</ele><time>2026-04-19T14:13:38.999Z</time></trkpt><trkpt lat="42.80740871535945" lon="13.301251726945702"><ele>1096.6666666666665</ele><time>2026-04-19T14:13:39.999Z</time></trkpt><trkpt lat="42.80757782476229" lon="13.301209154365445"><ele>1102.0</ele><time>2026-04-19T14:13:40.999Z</time></trkpt><trkpt lat="42.8077623381114" lon="13.30123134343982"><ele>1106.0</ele><time>2026-04-19T14:13:41.999Z</time></trkpt><trkpt lat="42.80794952678947" lon="13.301248070181753"><ele>1110.0</ele><time>2026-04-19T14:13:42.999Z</time></trkpt><trkpt lat="42.808156529908594" lon="13.301185972284015"><ele>1114.0</ele><time>2026-04-19T14:13:43.999Z</time></trkpt><trkpt lat="42.8083302816841" lon="13.301085965080883"><ele>1114.0</ele><time>2026-04-19T14:13:44.999Z</time></trkpt><trkpt lat="42.80847338522088" lon="13.30102000621559"><ele>1114.0</ele><time>2026-04-19T14:13:45.999Z</time></trkpt><trkpt lat="42.8086431640589" lon="13.301042582546891"><ele>1114.0</ele><time>2026-04-19T14:13:46.999Z</time></trkpt><trkpt lat="42.80884151255528" lon="13.301090188093191"><ele>1112.75</ele><time>2026-04-19T14:13:47.999Z</time></trkpt><trkpt lat="42.809015817349945" lon="13.301141304221364"><ele>1111.5</ele><time>2026-04-19T14:13:48.999Z</time></trkpt><trkpt lat="42.80913389152293" lon="13.301206679281599"><ele>1110.25</ele><time>2026-04-19T14:13:49.999Z</time></trkpt><trkpt lat="42.80921171785276" lon="13.301307589816494"><ele>1109.0</ele><time>2026-04-19T14:13:50.999Z</time></trkpt><trkpt lat="42.80925911230603" lon="13.301484456329987"><ele>1109.0</ele><time>2026-04-19T14:13:51.999Z</time></trkpt><trkpt lat="42.80929038102078" lon="13.30171239932964"><ele>1109.0</ele><time>2026-04-19T14:13:53Z</time></trkpt><trkpt lat="42.80933366659187" lon="13.301963045970991"><ele>1109.0</ele><time>2026-04-19T14:13:54Z</time></trkpt><trkpt lat="42.809371720028686" lon="13.302226612533563"><ele>1118.3333333333335</ele><time>2026-04-19T14:13:55Z</time></trkpt><trkpt lat="42.80941009728041" lon="13.302458354549119"><ele>1127.6666666666667</ele><time>2026-04-19T14:13:56Z</time></trkpt><trkpt lat="42.8094220762595" lon="13.30266005443866"><ele>1137.0</ele><time>2026-04-19T14:13:57Z</time></trkpt><trkpt lat="42.80945678807489" lon="13.302834959022688"><ele>1137.0</ele><time>2026-04-19T14:13:58Z</time></trkpt><trkpt lat="42.80953481796672" lon="13.302990171563422"><ele>1137.0</ele><time>2026-04-19T14:13:59Z</time></trkpt><trkpt lat="42.80960575121302" lon="13.303152807617513"><ele>1137.0</ele><time>2026-04-19T14:14:00Z</time></trkpt><trkpt lat="42.80962468962684" lon="13.303324647659199"><ele>1137.0</ele><time>2026-04-19T14:14:01Z</time></trkpt><trkpt lat="42.80961070514669" lon="13.30351590262964"><ele>1136.5</ele><time>2026-04-19T14:14:02Z</time></trkpt><trkpt lat="42.80962734540722" lon="13.303719316399832"><ele>1136.0</ele><time>2026-04-19T14:14:03Z</time></trkpt><trkpt lat="42.80965811443366" lon="13.303883639273332"><ele>1135.5</ele><time>2026-04-19T14:14:04Z</time></trkpt><trkpt lat="42.80973511009954" lon="13.3040107842252"><ele>1135.0</ele><time>2026-04-19T14:14:05Z</time></trkpt><trkpt lat="42.80983828406117" lon="13.304135200269164"><ele>1134.2</ele><time>2026-04-19T14:14:06Z</time></trkpt><trkpt lat="42.80987342620558" lon="13.30428713972477"><ele>1133.4</ele><time>2026-04-19T14:14:07Z</time></trkpt><trkpt lat="42.80987551086821" lon="13.304413855621839"><ele>1132.6</ele><time>2026-04-19T14:14:08Z</time></trkpt><trkpt lat="42.80983951112928" lon="13.30455519281819"><ele>1131.8</ele><time>2026-04-19T14:14:09Z</time></trkpt><trkpt lat="42.809762067708135" lon="13.304677034079345"><ele>1131.0</ele><time>2026-04-19T14:14:10Z</time></trkpt><trkpt lat="42.809664850394064" lon="13.304791653208449"><ele>1134.25</ele><time>2026-04-19T14:14:11Z</time></trkpt><trkpt lat="42.80956936625756" lon="13.30492795485095"><ele>1137.5</ele><time>2026-04-19T14:14:12Z</time></trkpt><trkpt lat="42.80947256859318" lon="13.305042935760888"><ele>1140.75</ele><time>2026-04-19T14:14:13Z</time></trkpt><trkpt lat="42.80944183417915" lon="13.30521994764661"><ele>1144.0</ele><time>2026-04-19T14:14:14Z</time></trkpt><trkpt lat="42.80940829026571" lon="13.305436437578967"><ele>1138.3333333333333</ele><time>2026-04-19T14:14:15Z</time></trkpt><trkpt lat="42.809312646900935" lon="13.305610423685716"><ele>1132.6666666666667</ele><time>2026-04-19T14:14:16Z</time></trkpt><trkpt lat="42.80921338380444" lon="13.305792851812395"><ele>1127.0</ele><time>2026-04-19T14:14:17Z</time></trkpt><trkpt lat="42.80916724279" lon="13.305993283918074"><ele>1127.0</ele><time>2026-04-19T14:14:18Z</time></trkpt><trkpt lat="42.809155523546856" lon="13.306180760883484"><ele>1127.0</ele><time>2026-04-19T14:14:19Z</time></trkpt><trkpt lat="42.80919542955611" lon="13.306334111733715"><ele>1127.0</ele><time>2026-04-19T14:14:20Z</time></trkpt><trkpt lat="42.80928664830177" lon="13.30647441333339"><ele>1127.0</ele><time>2026-04-19T14:14:21Z</time></trkpt><trkpt lat="42.80940852332684" lon="13.306618983717494"><ele>1137.3333333333335</ele><time>2026-04-19T14:14:22Z</time></trkpt><trkpt lat="42.8095544605997" lon="13.306744035957136"><ele>1147.6666666666667</ele><time>2026-04-19T14:14:23Z</time></trkpt><trkpt lat="42.80972576207949" lon="13.306834355286629"><ele>1158.0</ele><time>2026-04-19T14:14:24Z</time></trkpt><trkpt lat="42.8099272291239" lon="13.306896264093718"><ele>1158.0</ele><time>2026-04-19T14:14:25Z</time></trkpt><trkpt lat="42.810132556130725" lon="13.30693623792435"><ele>1158.0</ele><time>2026-04-19T14:14:26Z</time></trkpt><trkpt lat="42.81032192784124" lon="13.306966076370243"><ele>1158.0</ele><time>2026-04-19T14:14:27Z</time></trkpt><trkpt lat="42.810502639151494" lon="13.307016810535536"><ele>1165.6666666666667</ele><time>2026-04-19T14:14:28Z</time></trkpt><trkpt lat="42.810680075745395" lon="13.307087849983416"><ele>1173.3333333333335</ele><time>2026-04-19T14:14:29Z</time></trkpt><trkpt lat="42.81086376111943" lon="13.307139126435487"><ele>1181.0</ele><time>2026-04-19T14:14:30Z</time></trkpt><trkpt lat="42.81105162638573" lon="13.307161346156578"><ele>1184.5</ele><time>2026-04-19T14:14:31Z</time></trkpt><trkpt lat="42.81121394826937" lon="13.30716956567046"><ele>1188.0</ele><time>2026-04-19T14:14:32Z</time></trkpt><trkpt lat="42.81134819061285" lon="13.307189711379316"><ele>1191.5</ele><time>2026-04-19T14:14:33Z</time></trkpt><trkpt lat="42.8114683615016" lon="13.3072209110272"><ele>1195.0</ele><time>2026-04-19T14:14:34Z</time></trkpt><trkpt lat="42.8115726067624" lon="13.307269009294604"><ele>1191.0</ele><time>2026-04-19T14:14:35Z</time></trkpt><trkpt lat="42.81167965426033" lon="13.3073291221541"><ele>1187.0</ele><time>2026-04-19T14:14:36Z</time></trkpt><trkpt lat="42.81178842424581" lon="13.307402217652477"><ele>1183.0</ele><time>2026-04-19T14:14:37Z</time></trkpt><trkpt lat="42.81189962603902" lon="13.307473950991714"><ele>1179.0</ele><time>2026-04-19T14:14:38Z</time></trkpt><trkpt lat="42.81201714550799" lon="13.307522750028845"><ele>1179.0</ele><time>2026-04-19T14:14:39Z</time></trkpt><trkpt lat="42.81213729096653" lon="13.307559487923914"><ele>1179.0</ele><time>2026-04-19T14:14:40Z</time></trkpt><trkpt lat="42.8122535979672" lon="13.307596137617262"><ele>1179.0</ele><time>2026-04-19T14:14:41Z</time></trkpt><trkpt lat="42.81235882719176" lon="13.307640025471715"><ele>1179.0</ele><time>2026-04-19T14:14:42Z</time></trkpt><trkpt lat="42.81241648569135" lon="13.307719848052354"><ele>1179.0</ele><time>2026-04-19T14:14:43Z</time></trkpt><trkpt lat="42.81246674481584" lon="13.307781804952524"><ele>1179.0</ele><time>2026-04-19T14:14:44Z</time></trkpt><trkpt lat="42.8124332466881" lon="13.307900711525777"><ele>1179.0</ele><time>2026-04-19T14:14:45Z</time></trkpt><trkpt lat="42.81239890018936" lon="13.308005387892877"><ele>1179.0</ele><time>2026-04-19T14:14:46Z</time></trkpt><trkpt lat="42.812324749954065" lon="13.308081292155217"><ele>1179.0</ele><time>2026-04-19T14:14:47Z</time></trkpt><trkpt lat="42.81225443426193" lon="13.308166710258924"><ele>1179.0</ele><time>2026-04-19T14:14:48Z</time></trkpt><trkpt lat="42.812185138645255" lon="13.308245712194818"><ele>1178.5</ele><time>2026-04-19T14:14:49Z</time></trkpt><trkpt lat="42.812114144422836" lon="13.308320004094211"><ele>1178.0</ele><time>2026-04-19T14:14:50Z</time></trkpt><trkpt lat="42.81204643793131" lon="13.308397356117801"><ele>1177.5</ele><time>2026-04-19T14:14:51Z</time></trkpt><trkpt lat="42.812007485882745" lon="13.308500771391572"><ele>1177.0</ele><time>2026-04-19T14:14:52Z</time></trkpt><trkpt lat="42.8119878186074" lon="13.308598030742287"><ele>1176.5</ele><time>2026-04-19T14:14:53Z</time></trkpt><trkpt lat="42.81195914012979" lon="13.308708650181803"><ele>1176.0</ele><time>2026-04-19T14:14:54Z</time></trkpt><trkpt lat="42.81196759222579" lon="13.308833997283873"><ele>1175.6666666666667</ele><time>2026-04-19T14:14:55Z</time></trkpt><trkpt lat="42.81197998126164" lon="13.308942496420782"><ele>1175.3333333333333</ele><time>2026-04-19T14:14:56Z</time></trkpt><trkpt lat="42.812024545318074" lon="13.309036662858524"><ele>1175.0</ele><time>2026-04-19T14:14:57Z</time></trkpt><trkpt lat="42.81208137883324" lon="13.30912535963842"><ele>1174.6666666666665</ele><time>2026-04-19T14:14:58Z</time></trkpt><trkpt lat="42.812136825480486" lon="13.309212212625672"><ele>1174.3333333333333</ele><time>2026-04-19T14:14:59Z</time></trkpt><trkpt lat="42.812195655688996" lon="13.30930684040809"><ele>1174.0</ele><time>2026-04-19T14:15:00Z</time></trkpt><trkpt lat="42.81225841240242" lon="13.309395318435627"><ele>1174.0</ele><time>2026-04-19T14:15:01Z</time></trkpt><trkpt lat="42.81232926196566" lon="13.309480498253915"><ele>1174.0</ele><time>2026-04-19T14:15:02Z</time></trkpt><trkpt lat="42.812407111618484" lon="13.309570812469994"><ele>1174.0</ele><time>2026-04-19T14:15:03Z</time></trkpt><trkpt lat="42.81248957351527" lon="13.309670153027088"><ele>1174.0</ele><time>2026-04-19T14:15:04Z</time></trkpt><trkpt lat="42.81257715601348" lon="13.30977331956524"><ele>1174.0</ele><time>2026-04-19T14:15:05Z</time></trkpt><trkpt lat="42.81268052027491" lon="13.309884795560723"><ele>1176.3333333333333</ele><time>2026-04-19T14:15:06Z</time></trkpt><trkpt lat="42.81281174538757" lon="13.310026278429657"><ele>1178.6666666666667</ele><time>2026-04-19T14:15:07Z</time></trkpt><trkpt lat="42.812937997581784" lon="13.310200997207643"><ele>1181.0</ele><time>2026-04-19T14:15:08Z</time></trkpt><trkpt lat="42.813046270302415" lon="13.310354227044584"><ele>1181.0</ele><time>2026-04-19T14:15:09Z</time></trkpt><trkpt lat="42.81311920362767" lon="13.31050140732815"><ele>1181.0</ele><time>2026-04-19T14:15:10Z</time></trkpt><trkpt lat="42.813160786846616" lon="13.310646155409133"><ele>1181.0</ele><time>2026-04-19T14:15:11Z</time></trkpt><trkpt lat="42.813184643326345" lon="13.310785005258564"><ele>1181.0</ele><time>2026-04-19T14:15:12Z</time></trkpt><trkpt lat="42.81321298986448" lon="13.310915662921058"><ele>1181.0</ele><time>2026-04-19T14:15:13Z</time></trkpt><trkpt lat="42.81326689857471" lon="13.311036382977269"><ele>1180.75</ele><time>2026-04-19T14:15:14Z</time></trkpt><trkpt lat="42.81337636073892" lon="13.311133443577978"><ele>1180.5</ele><time>2026-04-19T14:15:15Z</time></trkpt><trkpt lat="42.813469598500284" lon="13.311252879840104"><ele>1180.25</ele><time>2026-04-19T14:15:16Z</time></trkpt><trkpt lat="42.813548794473355" lon="13.311355386454215"><ele>1180.0</ele><time>2026-04-19T14:15:17Z</time></trkpt><trkpt lat="42.81359505855035" lon="13.311466988721516"><ele>1177.6</ele><time>2026-04-19T14:15:18Z</time></trkpt><trkpt lat="42.81361940325429" lon="13.311569043277228"><ele>1175.2</ele><time>2026-04-19T14:15:19Z</time></trkpt><trkpt lat="42.813580229902335" lon="13.311687147280866"><ele>1172.8</ele><time>2026-04-19T14:15:20Z</time></trkpt><trkpt lat="42.813477221947444" lon="13.311797164633091"><ele>1170.4</ele><time>2026-04-19T14:15:21Z</time></trkpt><trkpt lat="42.8133877585599" lon="13.311940299090917"><ele>1168.0</ele><time>2026-04-19T14:15:22Z</time></trkpt><trkpt lat="42.81329350473435" lon="13.312064343687119"><ele>1168.0</ele><time>2026-04-19T14:15:23Z</time></trkpt><trkpt lat="42.8131762503395" lon="13.312159241056778"><ele>1168.0</ele><time>2026-04-19T14:15:24Z</time></trkpt><trkpt lat="42.813038975695015" lon="13.312265647456364"><ele>1168.0</ele><time>2026-04-19T14:15:25Z</time></trkpt><trkpt lat="42.81292570312596" lon="13.312388280107456"><ele>1168.0</ele><time>2026-04-19T14:15:26Z</time></trkpt><trkpt lat="42.81283025512196" lon="13.312501327863345"><ele>1164.8</ele><time>2026-04-19T14:15:27Z</time></trkpt><trkpt lat="42.81275812469559" lon="13.31260902511781"><ele>1161.6</ele><time>2026-04-19T14:15:28Z</time></trkpt><trkpt lat="42.812741529546194" lon="13.312736111051844"><ele>1158.4</ele><time>2026-04-19T14:15:29Z</time></trkpt><trkpt lat="42.812788698634805" lon="13.31286806655158"><ele>1155.2</ele><time>2026-04-19T14:15:30Z</time></trkpt><trkpt lat="42.81286292578202" lon="13.313002179674191"><ele>1152.0</ele><time>2026-04-19T14:15:31Z</time></trkpt><trkpt lat="42.812977551390034" lon="13.313131326938391"><ele>1150.25</ele><time>2026-04-19T14:15:32Z</time></trkpt><trkpt lat="42.81306823103168" lon="13.313291194734694"><ele>1148.5</ele><time>2026-04-19T14:15:33Z</time></trkpt><trkpt lat="42.81310857552343" lon="13.313459309850852"><ele>1146.75</ele><time>2026-04-19T14:15:34Z</time></trkpt><trkpt lat="42.81313543443012" lon="13.313631775188057"><ele>1145.0</ele><time>2026-04-19T14:15:35Z</time></trkpt><trkpt lat="42.81317380159122" lon="13.313769815842091"><ele>1145.0</ele><time>2026-04-19T14:15:36Z</time></trkpt><trkpt lat="42.81320051072868" lon="13.313857886990178"><ele>1145.0</ele><time>2026-04-19T14:15:37Z</time></trkpt><trkpt lat="42.81331664513249" lon="13.31387322490548"><ele>1145.0</ele><time>2026-04-19T14:15:39Z</time></trkpt><trkpt lat="42.8133522132811" lon="13.31379385103226"><ele>1145.0</ele><time>2026-04-19T14:15:40Z</time></trkpt><trkpt lat="42.81335271367682" lon="13.313675565185758"><ele>1145.0</ele><time>2026-04-19T14:15:41Z</time></trkpt><trkpt lat="42.81332200423642" lon="13.313517743849667"><ele>1145.0</ele><time>2026-04-19T14:15:42Z</time></trkpt><trkpt lat="42.8132611152529" lon="13.31332471827181"><ele>1145.0</ele><time>2026-04-19T14:15:43Z</time></trkpt><trkpt lat="42.81318157487706" lon="13.31311396077154"><ele>1145.0</ele><time>2026-04-19T14:15:44Z</time></trkpt><trkpt lat="42.813117872182104" lon="13.312950965017446"><ele>1146.4</ele><time>2026-04-19T14:15:45Z</time></trkpt><trkpt lat="42.81308559136198" lon="13.312823978514805"><ele>1147.8</ele><time>2026-04-19T14:15:46Z</time></trkpt><trkpt lat="42.8130932622973" lon="13.312712473144297"><ele>1149.2</ele><time>2026-04-19T14:15:47Z</time></trkpt><trkpt lat="42.81314490186044" lon="13.312632180611764"><ele>1150.6</ele><time>2026-04-19T14:15:48Z</time></trkpt><trkpt lat="42.81324229913897" lon="13.312601574712925"><ele>1152.0</ele><time>2026-04-19T14:15:49Z</time></trkpt><trkpt lat="42.81335529404804" lon="13.312520358586793"><ele>1153.3333333333333</ele><time>2026-04-19T14:15:50Z</time></trkpt><trkpt lat="42.81350991960773" lon="13.31245339279178"><ele>1154.6666666666665</ele><time>2026-04-19T14:15:51Z</time></trkpt><trkpt lat="42.813686633871335" lon="13.312337763722686"><ele>1156.0</ele><time>2026-04-19T14:15:52Z</time></trkpt><trkpt lat="42.81387456244781" lon="13.312199020732596"><ele>1156.0</ele><time>2026-04-19T14:15:53Z</time></trkpt><trkpt lat="42.81408028341665" lon="13.312056732588815"><ele>1156.0</ele><time>2026-04-19T14:15:54Z</time></trkpt><trkpt lat="42.814266398322445" lon="13.31192840528777"><ele>1156.0</ele><time>2026-04-19T14:15:55Z</time></trkpt><trkpt lat="42.814423763948255" lon="13.31182256549939"><ele>1154.25</ele><time>2026-04-19T14:15:56Z</time></trkpt><trkpt lat="42.81456043115569" lon="13.311741179508788"><ele>1152.5</ele><time>2026-04-19T14:15:57Z</time></trkpt><trkpt lat="42.81468314821805" lon="13.311697214319892"><ele>1150.75</ele><time>2026-04-19T14:15:58Z</time></trkpt><trkpt lat="42.81480585394878" lon="13.311756032587297"><ele>1149.0</ele><time>2026-04-19T14:15:59Z</time></trkpt><trkpt lat="42.814931888287056" lon="13.311845530354239"><ele>1149.0</ele><time>2026-04-19T14:16:00Z</time></trkpt><trkpt lat="42.815048905177775" lon="13.311948081992524"><ele>1149.0</ele><time>2026-04-19T14:16:01Z</time></trkpt><trkpt lat="42.81516277538782" lon="13.312030895084833"><ele>1149.0</ele><time>2026-04-19T14:16:02Z</time></trkpt><trkpt lat="42.81527874720923" lon="13.312096854762688"><ele>1149.0</ele><time>2026-04-19T14:16:03Z</time></trkpt><trkpt lat="42.81542868240498" lon="13.3121095233562"><ele>1148.0</ele><time>2026-04-19T14:16:04Z</time></trkpt><trkpt lat="42.815601506793655" lon="13.312085716708896"><ele>1147.0</ele><time>2026-04-19T14:16:05Z</time></trkpt><trkpt lat="42.815784668851066" lon="13.312040118364514"><ele>1146.0</ele><time>2026-04-19T14:16:06Z</time></trkpt><trkpt lat="42.8159778227463" lon="13.311986520150366"><ele>1140.0</ele><time>2026-04-19T14:16:07Z</time></trkpt><trkpt lat="42.816150168147615" lon="13.311898803495268"><ele>1134.0</ele><time>2026-04-19T14:16:08Z</time></trkpt><trkpt lat="42.81630036980153" lon="13.31179185643411"><ele>1128.0</ele><time>2026-04-19T14:16:09Z</time></trkpt><trkpt lat="42.816427022483126" lon="13.31169726714132"><ele>1128.0</ele><time>2026-04-19T14:16:10Z</time></trkpt><trkpt lat="42.81653958027232" lon="13.311648118474322"><ele>1128.0</ele><time>2026-04-19T14:16:11Z</time></trkpt><trkpt lat="42.81666225340372" lon="13.311688134472854"><ele>1128.0</ele><time>2026-04-19T14:16:12Z</time></trkpt><trkpt lat="42.81682751465228" lon="13.311726123603782"><ele>1128.0</ele><time>2026-04-19T14:16:13Z</time></trkpt><trkpt lat="42.81700531461135" lon="13.311732796919316"><ele>1129.5</ele><time>2026-04-19T14:16:14Z</time></trkpt><trkpt lat="42.817154726708594" lon="13.311759040350154"><ele>1131.0</ele><time>2026-04-19T14:16:15Z</time></trkpt><trkpt lat="42.81726500360588" lon="13.311811042513918"><ele>1132.5</ele><time>2026-04-19T14:16:16Z</time></trkpt><trkpt lat="42.81735652305057" lon="13.311867356239977"><ele>1134.0</ele><time>2026-04-19T14:16:17Z</time></trkpt><trkpt lat="42.81742636820252" lon="13.311974624217717"><ele>1134.0</ele><time>2026-04-19T14:16:18Z</time></trkpt><trkpt lat="42.81745710767284" lon="13.312131243581476"><ele>1134.0</ele><time>2026-04-19T14:16:19Z</time></trkpt><trkpt lat="42.817485064267544" lon="13.31232243647291"><ele>1134.0</ele><time>2026-04-19T14:16:20Z</time></trkpt><trkpt lat="42.817540702723214" lon="13.312524346058884"><ele>1134.0</ele><time>2026-04-19T14:16:21Z</time></trkpt><trkpt lat="42.817619644891074" lon="13.312677258105616"><ele>1135.0</ele><time>2026-04-19T14:16:22Z</time></trkpt><trkpt lat="42.81774656733996" lon="13.312847227563772"><ele>1136.0</ele><time>2026-04-19T14:16:23Z</time></trkpt><trkpt lat="42.81792093337115" lon="13.313038910473553"><ele>1137.0</ele><time>2026-04-19T14:16:24Z</time></trkpt><trkpt lat="42.8180628730558" lon="13.313250193856625"><ele>1130.6666666666667</ele><time>2026-04-19T14:16:25Z</time></trkpt><trkpt lat="42.81817502700992" lon="13.31343665406784"><ele>1124.3333333333335</ele><time>2026-04-19T14:16:26Z</time></trkpt><trkpt lat="42.818280261408695" lon="13.313625015094853"><ele>1118.0</ele><time>2026-04-19T14:16:27Z</time></trkpt><trkpt lat="42.818391492166356" lon="13.313838341933517"><ele>1125.3333333333335</ele><time>2026-04-19T14:16:28Z</time></trkpt><trkpt lat="42.818488911484465" lon="13.314056187414593"><ele>1132.6666666666667</ele><time>2026-04-19T14:16:29Z</time></trkpt><trkpt lat="42.818570618189774" lon="13.31430226339206"><ele>1140.0</ele><time>2026-04-19T14:16:30Z</time></trkpt><trkpt lat="42.818630277272746" lon="13.31456234141707"><ele>1137.3333333333333</ele><time>2026-04-19T14:16:31Z</time></trkpt><trkpt lat="42.818650714631694" lon="13.314797578834437"><ele>1134.6666666666665</ele><time>2026-04-19T14:16:32Z</time></trkpt><trkpt lat="42.81864025345056" lon="13.315012455781487"><ele>1132.0</ele><time>2026-04-19T14:16:33Z</time></trkpt><trkpt lat="42.81859094993102" lon="13.315218291534391"><ele>1132.0</ele><time>2026-04-19T14:16:34Z</time></trkpt><trkpt lat="42.818500290186506" lon="13.315445902450655"><ele>1132.0</ele><time>2026-04-19T14:16:35Z</time></trkpt><trkpt lat="42.81841441158142" lon="13.315661411338057"><ele>1132.0</ele><time>2026-04-19T14:16:36Z</time></trkpt><trkpt lat="42.81836470072255" lon="13.315848402875062"><ele>1120.3333333333333</ele><time>2026-04-19T14:16:37Z</time></trkpt><trkpt lat="42.81837945168416" lon="13.3160425825614"><ele>1108.6666666666667</ele><time>2026-04-19T14:16:38Z</time></trkpt><trkpt lat="42.81842434485432" lon="13.316241462973878"><ele>1097.0</ele><time>2026-04-19T14:16:39Z</time></trkpt><trkpt lat="42.8184884352313" lon="13.316435260601766"><ele>1097.0</ele><time>2026-04-19T14:16:40Z</time></trkpt><trkpt lat="42.81849540874983" lon="13.31660866759455"><ele>1097.0</ele><time>2026-04-19T14:16:41Z</time></trkpt><trkpt lat="42.81851537917951" lon="13.31673350776465"><ele>1097.0</ele><time>2026-04-19T14:16:42Z</time></trkpt><trkpt lat="42.81854595413968" lon="13.316812387003838"><ele>1097.0</ele><time>2026-04-19T14:16:43Z</time></trkpt><trkpt lat="42.81860537175707" lon="13.316876279356926"><ele>1097.0</ele><time>2026-04-19T14:16:44Z</time></trkpt><trkpt lat="42.81871427012014" lon="13.316835285196476"><ele>1097.0</ele><time>2026-04-19T14:16:45Z</time></trkpt><trkpt lat="42.81881252669033" lon="13.316782594754573"><ele>1097.0</ele><time>2026-04-19T14:16:46Z</time></trkpt><trkpt lat="42.8189159105281" lon="13.316730642675621"><ele>1097.0</ele><time>2026-04-19T14:16:47Z</time></trkpt><trkpt lat="42.81900452535233" lon="13.316720460987929"><ele>1097.0</ele><time>2026-04-19T14:16:48Z</time></trkpt><trkpt lat="42.81909221974937" lon="13.316814107549368"><ele>1097.0</ele><time>2026-04-19T14:16:50Z</time></trkpt><trkpt lat="42.81906624954054" lon="13.316961619997477"><ele>1097.0</ele><time>2026-04-19T14:16:52Z</time></trkpt><trkpt lat="42.81900474315619" lon="13.317089416280512"><ele>1097.0</ele><time>2026-04-19T14:16:54Z</time></trkpt><trkpt lat="42.81896014669234" lon="13.317191089221307"><ele>1097.0</ele><time>2026-04-19T14:16:55Z</time></trkpt><trkpt lat="42.81891490816436" lon="13.3173242676261"><ele>1097.0</ele><time>2026-04-19T14:16:56Z</time></trkpt><trkpt lat="42.818858685395504" lon="13.317456745349173"><ele>1097.0</ele><time>2026-04-19T14:16:57Z</time></trkpt><trkpt lat="42.81882871913333" lon="13.317581539772146"><ele>1093.8</ele><time>2026-04-19T14:16:58Z</time></trkpt><trkpt lat="42.818797537863745" lon="13.317696232526451"><ele>1090.6</ele><time>2026-04-19T14:16:59Z</time></trkpt><trkpt lat="42.81883449303945" lon="13.317817641540643"><ele>1087.3999999999999</ele><time>2026-04-19T14:17:00Z</time></trkpt><trkpt lat="42.81891246476439" lon="13.317892362173039"><ele>1084.2</ele><time>2026-04-19T14:17:01Z</time></trkpt><trkpt lat="42.819027520965726" lon="13.31788356954929"><ele>1081.0</ele><time>2026-04-19T14:17:02Z</time></trkpt><trkpt lat="42.819148998474105" lon="13.317862873351006"><ele>1081.0</ele><time>2026-04-19T14:17:03Z</time></trkpt><trkpt lat="42.8193002713863" lon="13.317837911157367"><ele>1081.0</ele><time>2026-04-19T14:17:04Z</time></trkpt><trkpt lat="42.8194637404771" lon="13.317846263583723"><ele>1081.0</ele><time>2026-04-19T14:17:05Z</time></trkpt><trkpt lat="42.81963615941883" lon="13.31793094340184"><ele>1078.0</ele><time>2026-04-19T14:17:06Z</time></trkpt><trkpt lat="42.819792996109506" lon="13.317992426674998"><ele>1075.0</ele><time>2026-04-19T14:17:07Z</time></trkpt><trkpt lat="42.81991958280634" lon="13.318088067751553"><ele>1072.0</ele><time>2026-04-19T14:17:08Z</time></trkpt><trkpt lat="42.820038317411935" lon="13.318238139105693"><ele>1072.0</ele><time>2026-04-19T14:17:09Z</time></trkpt><trkpt lat="42.82014635136166" lon="13.318443141878207"><ele>1072.0</ele><time>2026-04-19T14:17:10Z</time></trkpt><trkpt lat="42.820239481044354" lon="13.318675362673305"><ele>1072.0</ele><time>2026-04-19T14:17:11Z</time></trkpt><trkpt lat="42.8203075025627" lon="13.318910855944935"><ele>1071.0</ele><time>2026-04-19T14:17:12Z</time></trkpt><trkpt lat="42.820335993551566" lon="13.319147924168245"><ele>1070.0</ele><time>2026-04-19T14:17:13Z</time></trkpt><trkpt lat="42.82036200680674" lon="13.319400706723147"><ele>1069.0</ele><time>2026-04-19T14:17:14Z</time></trkpt><trkpt lat="42.82041147288484" lon="13.319575032576385"><ele>1069.0</ele><time>2026-04-19T14:17:15Z</time></trkpt><trkpt lat="42.820457721677435" lon="13.319694671312718"><ele>1069.0</ele><time>2026-04-19T14:17:16Z</time></trkpt><trkpt lat="42.82052183930988" lon="13.319774511118998"><ele>1069.0</ele><time>2026-04-19T14:17:17Z</time></trkpt><trkpt lat="42.82060054876989" lon="13.319802333860295"><ele>1069.0</ele><time>2026-04-19T14:17:18Z</time></trkpt><trkpt lat="42.82070334230964" lon="13.319791848628736"><ele>1069.0</ele><time>2026-04-19T14:17:19Z</time></trkpt><trkpt lat="42.82081377757919" lon="13.319723493082737"><ele>1069.0</ele><time>2026-04-19T14:17:20Z</time></trkpt><trkpt lat="42.820912321744096" lon="13.319613911068064"><ele>1069.0</ele><time>2026-04-19T14:17:21Z</time></trkpt><trkpt lat="42.82099521105282" lon="13.319501477409574"><ele>1069.0</ele><time>2026-04-19T14:17:22Z</time></trkpt><trkpt lat="42.82108838067176" lon="13.319428186737106"><ele>1069.0</ele><time>2026-04-19T14:17:23Z</time></trkpt><trkpt lat="42.821208258333975" lon="13.31939640119828"><ele>1071.6666666666665</ele><time>2026-04-19T14:17:24Z</time></trkpt><trkpt lat="42.82135959716836" lon="13.319443243641777"><ele>1074.3333333333333</ele><time>2026-04-19T14:17:25Z</time></trkpt><trkpt lat="42.82152708783289" lon="13.319494106568758"><ele>1077.0</ele><time>2026-04-19T14:17:26Z</time></trkpt><trkpt lat="42.82168601657247" lon="13.31955703745004"><ele>1072.6666666666667</ele><time>2026-04-19T14:17:27Z</time></trkpt><trkpt lat="42.82181973316569" lon="13.319641312929521"><ele>1068.3333333333335</ele><time>2026-04-19T14:17:28Z</time></trkpt><trkpt lat="42.82194041115049" lon="13.319779040750078"><ele>1064.0</ele><time>2026-04-19T14:17:29Z</time></trkpt><trkpt lat="42.822057667597946" lon="13.319984207202081"><ele>1064.0</ele><time>2026-04-19T14:17:30Z</time></trkpt><trkpt lat="42.8221934156916" lon="13.320149325356665"><ele>1064.0</ele><time>2026-04-19T14:17:31Z</time></trkpt><trkpt lat="42.822312269924325" lon="13.320314293070378"><ele>1064.0</ele><time>2026-04-19T14:17:32Z</time></trkpt><trkpt lat="42.82243492908401" lon="13.320447810320045"><ele>1064.0</ele><time>2026-04-19T14:17:33Z</time></trkpt><trkpt lat="42.822568496262875" lon="13.320560997699737"><ele>1064.0</ele><time>2026-04-19T14:17:34Z</time></trkpt><trkpt lat="42.82269455209069" lon="13.320658124087517"><ele>1064.0</ele><time>2026-04-19T14:17:35Z</time></trkpt><trkpt lat="42.82279551871214" lon="13.32079030066971"><ele>1064.0</ele><time>2026-04-19T14:17:36Z</time></trkpt><trkpt lat="42.822865493494774" lon="13.32092937584796"><ele>1061.0</ele><time>2026-04-19T14:17:37Z</time></trkpt><trkpt lat="42.82290411348214" lon="13.321075365384626"><ele>1058.0</ele><time>2026-04-19T14:17:38Z</time></trkpt><trkpt lat="42.822890334878224" lon="13.321249848537217"><ele>1055.0</ele><time>2026-04-19T14:17:39Z</time></trkpt><trkpt lat="42.82291268547336" lon="13.321396987172209"><ele>1052.0</ele><time>2026-04-19T14:17:40Z</time></trkpt><trkpt lat="42.82294549832119" lon="13.321512459428838"><ele>1049.0</ele><time>2026-04-19T14:17:41Z</time></trkpt><trkpt lat="42.82306287080981" lon="13.32156620890496"><ele>1045.6666666666667</ele><time>2026-04-19T14:17:42Z</time></trkpt><trkpt lat="42.82320489527778" lon="13.321628764701561"><ele>1042.3333333333333</ele><time>2026-04-19T14:17:43Z</time></trkpt><trkpt lat="42.8233822766908" lon="13.321724109008992"><ele>1039.0</ele><time>2026-04-19T14:17:44Z</time></trkpt><trkpt lat="42.823565469544384" lon="13.321834879188886"><ele>1039.0</ele><time>2026-04-19T14:17:45Z</time></trkpt><trkpt lat="42.82373922725044" lon="13.322003263731588"><ele>1039.0</ele><time>2026-04-19T14:17:46Z</time></trkpt><trkpt lat="42.82391147914327" lon="13.322136009840277"><ele>1039.0</ele><time>2026-04-19T14:17:47Z</time></trkpt><trkpt lat="42.82407719951408" lon="13.322267621890681"><ele>1030.0</ele><time>2026-04-19T14:17:48Z</time></trkpt><trkpt lat="42.824283080314146" lon="13.322370517915067"><ele>1021.0</ele><time>2026-04-19T14:17:49Z</time></trkpt><trkpt lat="42.8245119322394" lon="13.322441119073858"><ele>1021.0</ele><time>2026-04-19T14:17:50Z</time></trkpt><trkpt lat="42.82473492668432" lon="13.322496434645227"><ele>1021.0</ele><time>2026-04-19T14:17:51Z</time></trkpt><trkpt lat="42.82493447400812" lon="13.322556629599578"><ele>1021.0</ele><time>2026-04-19T14:17:52Z</time></trkpt><trkpt lat="42.82510461128879" lon="13.322622935892255"><ele>1014.0</ele><time>2026-04-19T14:17:53Z</time></trkpt><trkpt lat="42.82524551306439" lon="13.322672013021087"><ele>1007.0</ele><time>2026-04-19T14:17:54Z</time></trkpt><trkpt lat="42.825366881657" lon="13.322692382638811"><ele>1000.0</ele><time>2026-04-19T14:17:55Z</time></trkpt><trkpt lat="42.82547565192899" lon="13.322663348729797"><ele>993.0</ele><time>2026-04-19T14:17:56Z</time></trkpt><trkpt lat="42.825584955097526" lon="13.322568290065638"><ele>993.0</ele><time>2026-04-19T14:17:57Z</time></trkpt><trkpt lat="42.82570242308246" lon="13.322412890694196"><ele>993.0</ele><time>2026-04-19T14:17:58Z</time></trkpt><trkpt lat="42.82579843770979" lon="13.322259605820541"><ele>993.0</ele><time>2026-04-19T14:17:59Z</time></trkpt><trkpt lat="42.825879791870946" lon="13.322171196082797"><ele>993.0</ele><time>2026-04-19T14:18:00Z</time></trkpt><trkpt lat="42.825930247621756" lon="13.32208271834169"><ele>992.4</ele><time>2026-04-19T14:18:01Z</time></trkpt><trkpt lat="42.825911490227966" lon="13.32196387091208"><ele>991.8</ele><time>2026-04-19T14:18:02Z</time></trkpt><trkpt lat="42.82586128766634" lon="13.321869665142177"><ele>991.2</ele><time>2026-04-19T14:18:03Z</time></trkpt><trkpt lat="42.82576785404198" lon="13.32178809217576"><ele>990.6</ele><time>2026-04-19T14:18:04Z</time></trkpt><trkpt lat="42.825645613695606" lon="13.32172396610765"><ele>990.0</ele><time>2026-04-19T14:18:05.001Z</time></trkpt><trkpt lat="42.825506929179404" lon="13.321646327680599"><ele>990.0</ele><time>2026-04-19T14:18:06.001Z</time></trkpt><trkpt lat="42.82532919737584" lon="13.32155911699266"><ele>990.0</ele><time>2026-04-19T14:18:07.001Z</time></trkpt><trkpt lat="42.825151515803626" lon="13.321437804685827"><ele>990.0</ele><time>2026-04-19T14:18:08.001Z</time></trkpt><trkpt lat="42.825014101376404" lon="13.321278872485273"><ele>989.6666666666667</ele><time>2026-04-19T14:18:09.001Z</time></trkpt><trkpt lat="42.824885615142826" lon="13.321138888953826"><ele>989.3333333333334</ele><time>2026-04-19T14:18:10.001Z</time></trkpt><trkpt lat="42.82475956484745" lon="13.321006442176596"><ele>989.0</ele><time>2026-04-19T14:18:11.001Z</time></trkpt><trkpt lat="42.824639901469396" lon="13.3208482181688"><ele>989.0</ele><time>2026-04-19T14:18:12.001Z</time></trkpt><trkpt lat="42.82452889790212" lon="13.320653966318453"><ele>989.0</ele><time>2026-04-19T14:18:13.001Z</time></trkpt><trkpt lat="42.82442767456041" lon="13.320453869031697"><ele>989.0</ele><time>2026-04-19T14:18:14.001Z</time></trkpt><trkpt lat="42.82434270778495" lon="13.320272721454108"><ele>994.6666666666667</ele><time>2026-04-19T14:18:15.001Z</time></trkpt><trkpt lat="42.824270087719015" lon="13.320080856667163"><ele>1000.3333333333333</ele><time>2026-04-19T14:18:16.001Z</time></trkpt><trkpt lat="42.82422568601653" lon="13.319870217043153"><ele>1006.0</ele><time>2026-04-19T14:18:17.001Z</time></trkpt><trkpt lat="42.82420808708987" lon="13.319648120768612"><ele>1007.1999999999999</ele><time>2026-04-19T14:18:18.001Z</time></trkpt><trkpt lat="42.824207414229846" lon="13.319456332163186"><ele>1008.3999999999999</ele><time>2026-04-19T14:18:19.001Z</time></trkpt><trkpt lat="42.824216064947116" lon="13.319297498370435"><ele>1009.6</ele><time>2026-04-19T14:18:20.001Z</time></trkpt><trkpt lat="42.82424805956385" lon="13.319196116638718"><ele>1010.8</ele><time>2026-04-19T14:18:21.001Z</time></trkpt><trkpt lat="42.82430274511266" lon="13.319144962844305"><ele>1012.0</ele><time>2026-04-19T14:18:22.001Z</time></trkpt><trkpt lat="42.82436630055941" lon="13.319132487147401"><ele>1012.0</ele><time>2026-04-19T14:18:23.001Z</time></trkpt><trkpt lat="42.82445857105559" lon="13.319138911604922"><ele>1012.0</ele><time>2026-04-19T14:18:24.001Z</time></trkpt><trkpt lat="42.82459635394626" lon="13.319208712739902"><ele>1012.0</ele><time>2026-04-19T14:18:25.001Z</time></trkpt><trkpt lat="42.82478234283853" lon="13.319257621337046"><ele>1012.0</ele><time>2026-04-19T14:18:26.001Z</time></trkpt><trkpt lat="42.82498781752201" lon="13.319289757226533"><ele>1005.3333333333333</ele><time>2026-04-19T14:18:27.001Z</time></trkpt><trkpt lat="42.82519799015836" lon="13.319315244040654"><ele>998.6666666666667</ele><time>2026-04-19T14:18:28.001Z</time></trkpt><trkpt lat="42.825389497091564" lon="13.319314705886377"><ele>992.0</ele><time>2026-04-19T14:18:29.001Z</time></trkpt><trkpt lat="42.82557019193131" lon="13.319296923895278"><ele>992.0</ele><time>2026-04-19T14:18:30.001Z</time></trkpt><trkpt lat="42.82575884321922" lon="13.319228433992446"><ele>992.0</ele><time>2026-04-19T14:18:31Z</time></trkpt><trkpt lat="42.82594885386498" lon="13.319113444480983"><ele>992.0</ele><time>2026-04-19T14:18:32Z</time></trkpt><trkpt lat="42.8261105998984" lon="13.319006143161825"><ele>995.6666666666667</ele><time>2026-04-19T14:18:33Z</time></trkpt><trkpt lat="42.826256588697134" lon="13.318933533079742"><ele>999.3333333333333</ele><time>2026-04-19T14:18:34Z</time></trkpt><trkpt lat="42.826402759057544" lon="13.318913266355349"><ele>1003.0</ele><time>2026-04-19T14:18:35Z</time></trkpt><trkpt lat="42.826567936452136" lon="13.318888375479188"><ele>1003.0</ele><time>2026-04-19T14:18:36Z</time></trkpt><trkpt lat="42.826705868035525" lon="13.318862552021436"><ele>1003.0</ele><time>2026-04-19T14:18:37Z</time></trkpt><trkpt lat="42.82680710626753" lon="13.318857819886851"><ele>1003.0</ele><time>2026-04-19T14:18:38Z</time></trkpt><trkpt lat="42.826882179102064" lon="13.318882086533243"><ele>1003.0</ele><time>2026-04-19T14:18:39Z</time></trkpt><trkpt lat="42.8269525044713" lon="13.318951657399124"><ele>1003.0</ele><time>2026-04-19T14:18:40Z</time></trkpt><trkpt lat="42.826998876138035" lon="13.319077093377675"><ele>1003.75</ele><time>2026-04-19T14:18:41Z</time></trkpt><trkpt lat="42.82702438921601" lon="13.319216380742178"><ele>1004.5</ele><time>2026-04-19T14:18:42Z</time></trkpt><trkpt lat="42.82700081404454" lon="13.319332652751768"><ele>1005.25</ele><time>2026-04-19T14:18:43Z</time></trkpt><trkpt lat="42.826978090779235" lon="13.319520559577265"><ele>1006.0</ele><time>2026-04-19T14:18:44Z</time></trkpt><trkpt lat="42.82699366273842" lon="13.319691262816304"><ele>997.3333333333333</ele><time>2026-04-19T14:18:45Z</time></trkpt><trkpt lat="42.82706596844184" lon="13.319862945304452"><ele>988.6666666666667</ele><time>2026-04-19T14:18:46Z</time></trkpt><trkpt lat="42.82717017967816" lon="13.320041997403044"><ele>980.0</ele><time>2026-04-19T14:18:47Z</time></trkpt><trkpt lat="42.8272785291494" lon="13.320160017197214"><ele>980.0</ele><time>2026-04-19T14:18:48Z</time></trkpt><trkpt lat="42.82739145119668" lon="13.320250524524882"><ele>980.0</ele><time>2026-04-19T14:18:49Z</time></trkpt><trkpt lat="42.82750988764689" lon="13.320303893475863"><ele>980.0</ele><time>2026-04-19T14:18:50Z</time></trkpt><trkpt lat="42.82764950192096" lon="13.320299501319806"><ele>980.0</ele><time>2026-04-19T14:18:51Z</time></trkpt><trkpt lat="42.82781001443628" lon="13.320238949035565"><ele>984.25</ele><time>2026-04-19T14:18:52Z</time></trkpt><trkpt lat="42.82797346201027" lon="13.320186112187335"><ele>988.5</ele><time>2026-04-19T14:18:53Z</time></trkpt><trkpt lat="42.82811613706035" lon="13.320158471239512"><ele>992.75</ele><time>2026-04-19T14:18:54Z</time></trkpt><trkpt lat="42.82824071255623" lon="13.320160540449136"><ele>997.0</ele><time>2026-04-19T14:18:55Z</time></trkpt><trkpt lat="42.82833845997776" lon="13.320251360000517"><ele>997.0</ele><time>2026-04-19T14:18:56Z</time></trkpt><trkpt lat="42.82840169641314" lon="13.320356189414637"><ele>997.0</ele><time>2026-04-19T14:18:57Z</time></trkpt><trkpt lat="42.8284100381154" lon="13.320473421083326"><ele>997.0</ele><time>2026-04-19T14:18:58Z</time></trkpt><trkpt lat="42.82841991392415" lon="13.320654153393681"><ele>997.0</ele><time>2026-04-19T14:18:59Z</time></trkpt><trkpt lat="42.82845112305073" lon="13.320882061280736"><ele>995.3333333333333</ele><time>2026-04-19T14:19:00Z</time></trkpt><trkpt lat="42.82851065057273" lon="13.321107210406845"><ele>993.6666666666667</ele><time>2026-04-19T14:19:01Z</time></trkpt><trkpt lat="42.82861258409743" lon="13.321308039446244"><ele>992.0</ele><time>2026-04-19T14:19:02Z</time></trkpt><trkpt lat="42.828697669983" lon="13.321504387859688"><ele>987.5</ele><time>2026-04-19T14:19:03Z</time></trkpt><trkpt lat="42.82873923202673" lon="13.321677956815858"><ele>983.0</ele><time>2026-04-19T14:19:04Z</time></trkpt><trkpt lat="42.828730549232546" lon="13.3218147535716"><ele>978.5</ele><time>2026-04-19T14:19:05Z</time></trkpt><trkpt lat="42.828684638038254" lon="13.321941394130054"><ele>974.0</ele><time>2026-04-19T14:19:06Z</time></trkpt><trkpt lat="42.82860371943777" lon="13.322078223965063"><ele>973.6666666666667</ele><time>2026-04-19T14:19:07Z</time></trkpt><trkpt lat="42.82849897162342" lon="13.322285051976403"><ele>973.3333333333333</ele><time>2026-04-19T14:19:08Z</time></trkpt><trkpt lat="42.82842651141173" lon="13.322454016578645"><ele>973.0</ele><time>2026-04-19T14:19:09Z</time></trkpt><trkpt lat="42.828397171327126" lon="13.322617985965156"><ele>973.0</ele><time>2026-04-19T14:19:10Z</time></trkpt><trkpt lat="42.82842769523475" lon="13.322799890307166"><ele>973.0</ele><time>2026-04-19T14:19:11Z</time></trkpt><trkpt lat="42.82849476422179" lon="13.3229991727115"><ele>973.0</ele><time>2026-04-19T14:19:12Z</time></trkpt><trkpt lat="42.82860264882913" lon="13.323204986524265"><ele>963.0</ele><time>2026-04-19T14:19:13Z</time></trkpt><trkpt lat="42.828739632733125" lon="13.323386583547602"><ele>953.0</ele><time>2026-04-19T14:19:14Z</time></trkpt><trkpt lat="42.82889858801582" lon="13.323532533111788"><ele>943.0</ele><time>2026-04-19T14:19:15Z</time></trkpt><trkpt lat="42.82904247330393" lon="13.323631144369212"><ele>943.0</ele><time>2026-04-19T14:19:16Z</time></trkpt><trkpt lat="42.82915888427397" lon="13.323682005513495"><ele>943.0</ele><time>2026-04-19T14:19:17Z</time></trkpt><trkpt lat="42.82926300017503" lon="13.323686170407717"><ele>943.0</ele><time>2026-04-19T14:19:18Z</time></trkpt><trkpt lat="42.829377540136925" lon="13.32363088518692"><ele>943.0</ele><time>2026-04-19T14:19:19Z</time></trkpt><trkpt lat="42.82950765640737" lon="13.323520675801637"><ele>940.6666666666666</ele><time>2026-04-19T14:19:20Z</time></trkpt><trkpt lat="42.829658440900594" lon="13.323389993072675"><ele>938.3333333333333</ele><time>2026-04-19T14:19:21Z</time></trkpt><trkpt lat="42.82981722827633" lon="13.323291180066656"><ele>936.0</ele><time>2026-04-19T14:19:22Z</time></trkpt><trkpt lat="42.82998706308917" lon="13.323216528990645"><ele>936.0</ele><time>2026-04-19T14:19:23Z</time></trkpt><trkpt lat="42.83013172353193" lon="13.323187177153576"><ele>935.9999999999999</ele><time>2026-04-19T14:19:24Z</time></trkpt><trkpt lat="42.83023549025554" lon="13.323203025234367"><ele>935.9999999999999</ele><time>2026-04-19T14:19:25Z</time></trkpt><trkpt lat="42.83032406283823" lon="13.323263514924305"><ele>936.0</ele><time>2026-04-19T14:19:26Z</time></trkpt><trkpt lat="42.83039073152583" lon="13.32335773141476"><ele>936.0</ele><time>2026-04-19T14:19:27Z</time></trkpt><trkpt lat="42.830434300627644" lon="13.323493245995675"><ele>932.5</ele><time>2026-04-19T14:19:28Z</time></trkpt><trkpt lat="42.83046321573411" lon="13.32365327335687"><ele>929.0</ele><time>2026-04-19T14:19:29Z</time></trkpt><trkpt lat="42.83051808851853" lon="13.323816042804625"><ele>925.5</ele><time>2026-04-19T14:19:30Z</time></trkpt><trkpt lat="42.83059210952872" lon="13.32396105456196"><ele>922.0</ele><time>2026-04-19T14:19:31Z</time></trkpt><trkpt lat="42.83068161808996" lon="13.324032241911867"><ele>922.0</ele><time>2026-04-19T14:19:32Z</time></trkpt><trkpt lat="42.83076324976157" lon="13.324077746068294"><ele>922.0</ele><time>2026-04-19T14:19:33Z</time></trkpt><trkpt lat="42.83086006434505" lon="13.324119222483889"><ele>922.0</ele><time>2026-04-19T14:19:34Z</time></trkpt><trkpt lat="42.830965984134046" lon="13.324156836623859"><ele>922.0</ele><time>2026-04-19T14:19:35Z</time></trkpt><trkpt lat="42.83109813825552" lon="13.324203118003386"><ele>922.0</ele><time>2026-04-19T14:19:36Z</time></trkpt><trkpt lat="42.83123175905812" lon="13.324308771899325"><ele>921.5</ele><time>2026-04-19T14:19:37Z</time></trkpt><trkpt lat="42.83136098844838" lon="13.324420792874319"><ele>921.0</ele><time>2026-04-19T14:19:38Z</time></trkpt><trkpt lat="42.83144608514246" lon="13.324527867622956"><ele>920.5</ele><time>2026-04-19T14:19:39Z</time></trkpt><trkpt lat="42.831500645338075" lon="13.324647192873371"><ele>920.0</ele><time>2026-04-19T14:19:40Z</time></trkpt><trkpt lat="42.83151518697425" lon="13.324792076062907"><ele>920.0</ele><time>2026-04-19T14:19:41Z</time></trkpt><trkpt lat="42.831478638625164" lon="13.32495218711784"><ele>920.0</ele><time>2026-04-19T14:19:42Z</time></trkpt><trkpt lat="42.83143323013958" lon="13.325136115840388"><ele>920.0</ele><time>2026-04-19T14:19:43Z</time></trkpt><trkpt lat="42.8314214832551" lon="13.325309409497141"><ele>920.0</ele><time>2026-04-19T14:19:44Z</time></trkpt><trkpt lat="42.83141752721089" lon="13.325430603069334"><ele>920.0</ele><time>2026-04-19T14:19:45Z</time></trkpt><trkpt lat="42.831451537386776" lon="13.325524988233354"><ele>920.0</ele><time>2026-04-19T14:19:46Z</time></trkpt><trkpt lat="42.83150482948662" lon="13.325597155654991"><ele>920.0</ele><time>2026-04-19T14:19:47Z</time></trkpt><trkpt lat="42.83160444015854" lon="13.32562726920384"><ele>920.0</ele><time>2026-04-19T14:19:48Z</time></trkpt><trkpt lat="42.8317356608509" lon="13.325559317703876"><ele>920.0</ele><time>2026-04-19T14:19:49Z</time></trkpt><trkpt lat="42.83187139435561" lon="13.32546839556996"><ele>922.5</ele><time>2026-04-19T14:19:50Z</time></trkpt><trkpt lat="42.83199751218592" lon="13.32536874197335"><ele>925.0</ele><time>2026-04-19T14:19:51Z</time></trkpt><trkpt lat="42.83209505846159" lon="13.325287214176168"><ele>927.5</ele><time>2026-04-19T14:19:52Z</time></trkpt><trkpt lat="42.83220875254331" lon="13.325263813172517"><ele>930.0</ele><time>2026-04-19T14:19:53Z</time></trkpt><trkpt lat="42.83233887709822" lon="13.325307822379452"><ele>930.0</ele><time>2026-04-19T14:19:54Z</time></trkpt><trkpt lat="42.83249789981593" lon="13.325364630343309"><ele>930.0</ele><time>2026-04-19T14:19:55Z</time></trkpt><trkpt lat="42.83269920088427" lon="13.325443575830064"><ele>930.0</ele><time>2026-04-19T14:19:56Z</time></trkpt><trkpt lat="42.83291568689188" lon="13.32554578639653"><ele>912.5</ele><time>2026-04-19T14:19:57Z</time></trkpt><trkpt lat="42.83315740276725" lon="13.325629374155854"><ele>895.0</ele><time>2026-04-19T14:19:58Z</time></trkpt><trkpt lat="42.83336911005094" lon="13.325720658974276"><ele>901.0</ele><time>2026-04-19T14:19:59Z</time></trkpt><trkpt lat="42.833542365945505" lon="13.32584770212455"><ele>907.0</ele><time>2026-04-19T14:20:00Z</time></trkpt><trkpt lat="42.83372730097334" lon="13.325970224057208"><ele>913.0</ele><time>2026-04-19T14:20:01Z</time></trkpt><trkpt lat="42.83390267574229" lon="13.326125723848374"><ele>913.0</ele><time>2026-04-19T14:20:02Z</time></trkpt><trkpt lat="42.83408665986324" lon="13.326221867160505"><ele>913.0</ele><time>2026-04-19T14:20:03Z</time></trkpt><trkpt lat="42.834240648787585" lon="13.326288295676349"><ele>913.0</ele><time>2026-04-19T14:20:04Z</time></trkpt><trkpt lat="42.83437079461909" lon="13.326377270825509"><ele>909.3333333333333</ele><time>2026-04-19T14:20:05Z</time></trkpt><trkpt lat="42.834504649906975" lon="13.326482469072827"><ele>905.6666666666667</ele><time>2026-04-19T14:20:06Z</time></trkpt><trkpt lat="42.83464688877612" lon="13.326660706523592"><ele>902.0</ele><time>2026-04-19T14:20:07Z</time></trkpt><trkpt lat="42.83480803325017" lon="13.326809000001468"><ele>902.0</ele><time>2026-04-19T14:20:08Z</time></trkpt><trkpt lat="42.83495255611062" lon="13.326960474458248"><ele>902.0</ele><time>2026-04-19T14:20:09Z</time></trkpt><trkpt lat="42.835134189360716" lon="13.327072852918286"><ele>902.0</ele><time>2026-04-19T14:20:10Z</time></trkpt><trkpt lat="42.83535380825307" lon="13.327159352608227"><ele>896.6666666666667</ele><time>2026-04-19T14:20:11.001Z</time></trkpt><trkpt lat="42.835575320586344" lon="13.327249286981658"><ele>891.3333333333333</ele><time>2026-04-19T14:20:12.001Z</time></trkpt><trkpt lat="42.83575356535483" lon="13.327381316184193"><ele>886.0</ele><time>2026-04-19T14:20:13.001Z</time></trkpt><trkpt lat="42.8359174128809" lon="13.32751694967842"><ele>896.3333333333333</ele><time>2026-04-19T14:20:14.001Z</time></trkpt><trkpt lat="42.83605662453563" lon="13.327680014770047"><ele>906.6666666666667</ele><time>2026-04-19T14:20:15.001Z</time></trkpt><trkpt lat="42.83617124013179" lon="13.32785757016258"><ele>917.0</ele><time>2026-04-19T14:20:16.001Z</time></trkpt><trkpt lat="42.83626005020203" lon="13.328038935729621"><ele>909.25</ele><time>2026-04-19T14:20:17.001Z</time></trkpt><trkpt lat="42.836341607888784" lon="13.328205678318884"><ele>901.5</ele><time>2026-04-19T14:20:18.001Z</time></trkpt><trkpt lat="42.83642861855145" lon="13.328324665827187"><ele>893.75</ele><time>2026-04-19T14:20:19.001Z</time></trkpt><trkpt lat="42.83652912160743" lon="13.328403380257502"><ele>886.0</ele><time>2026-04-19T14:20:20.001Z</time></trkpt><trkpt lat="42.836676362306754" lon="13.328459184507588"><ele>894.0</ele><time>2026-04-19T14:20:21.001Z</time></trkpt><trkpt lat="42.83682126978283" lon="13.328540932111173"><ele>902.0</ele><time>2026-04-19T14:20:22.001Z</time></trkpt><trkpt lat="42.83693990507166" lon="13.328715100971172"><ele>910.0</ele><time>2026-04-19T14:20:23.001Z</time></trkpt><trkpt lat="42.83707435401563" lon="13.328854115685052"><ele>905.0</ele><time>2026-04-19T14:20:24.001Z</time></trkpt><trkpt lat="42.83720264319222" lon="13.328957897109392"><ele>900.0</ele><time>2026-04-19T14:20:25.001Z</time></trkpt><trkpt lat="42.83732400288718" lon="13.329037880627906"><ele>895.0</ele><time>2026-04-19T14:20:26.001Z</time></trkpt><trkpt lat="42.837394955623004" lon="13.329163136955314"><ele>890.0</ele><time>2026-04-19T14:20:27.001Z</time></trkpt><trkpt lat="42.837443667698125" lon="13.329284164168413"><ele>890.0</ele><time>2026-04-19T14:20:28.001Z</time></trkpt><trkpt lat="42.83740888107442" lon="13.329431585317943"><ele>890.0</ele><time>2026-04-19T14:20:29Z</time></trkpt><trkpt lat="42.837407949051226" lon="13.3295821026157"><ele>890.0</ele><time>2026-04-19T14:20:30Z</time></trkpt><trkpt lat="42.837426482390065" lon="13.329733730354128"><ele>890.0</ele><time>2026-04-19T14:20:31Z</time></trkpt><trkpt lat="42.837448978621474" lon="13.329862163472606"><ele>890.0</ele><time>2026-04-19T14:20:32Z</time></trkpt><trkpt lat="42.83750494764799" lon="13.329969637846842"><ele>891.5</ele><time>2026-04-19T14:20:33Z</time></trkpt><trkpt lat="42.83759092415118" lon="13.330053620682275"><ele>893.0</ele><time>2026-04-19T14:20:34Z</time></trkpt><trkpt lat="42.83770089466903" lon="13.330095246087662"><ele>894.5</ele><time>2026-04-19T14:20:35Z</time></trkpt><trkpt lat="42.83782123302231" lon="13.330114904164741"><ele>896.0</ele><time>2026-04-19T14:20:36Z</time></trkpt><trkpt lat="42.83792090705472" lon="13.33018438248277"><ele>896.0</ele><time>2026-04-19T14:20:37Z</time></trkpt><trkpt lat="42.8379821804007" lon="13.330284979176723"><ele>896.0</ele><time>2026-04-19T14:20:38Z</time></trkpt><trkpt lat="42.838035428007444" lon="13.330421304949015"><ele>896.0</ele><time>2026-04-19T14:20:39Z</time></trkpt><trkpt lat="42.83805817317173" lon="13.330623438467862"><ele>896.0</ele><time>2026-04-19T14:20:40Z</time></trkpt><trkpt lat="42.83812857144487" lon="13.330831233488253"><ele>891.6666666666667</ele><time>2026-04-19T14:20:41Z</time></trkpt><trkpt lat="42.8382008765836" lon="13.331047290495858"><ele>887.3333333333333</ele><time>2026-04-19T14:20:42Z</time></trkpt><trkpt lat="42.83826294888484" lon="13.33124637385505"><ele>883.0</ele><time>2026-04-19T14:20:43Z</time></trkpt><trkpt lat="42.83832660627412" lon="13.331403328444065"><ele>880.75</ele><time>2026-04-19T14:20:44Z</time></trkpt><trkpt lat="42.83840275225408" lon="13.331542702228717"><ele>878.5</ele><time>2026-04-19T14:20:45Z</time></trkpt><trkpt lat="42.83847863147354" lon="13.33169064944682"><ele>876.25</ele><time>2026-04-19T14:20:46Z</time></trkpt><trkpt lat="42.838566686085606" lon="13.331816786773462"><ele>874.0</ele><time>2026-04-19T14:20:47Z</time></trkpt><trkpt lat="42.83866779096459" lon="13.331927832486297"><ele>875.5</ele><time>2026-04-19T14:20:47.999Z</time></trkpt><trkpt lat="42.83876109238387" lon="13.332062923018999"><ele>877.0</ele><time>2026-04-19T14:20:48.999Z</time></trkpt><trkpt lat="42.83885812097546" lon="13.332187142043196"><ele>878.5</ele><time>2026-04-19T14:20:49.999Z</time></trkpt><trkpt lat="42.83895615033607" lon="13.332287940060802"><ele>880.0</ele><time>2026-04-19T14:20:50.999Z</time></trkpt><trkpt lat="42.83903472649475" lon="13.332386000192193"><ele>880.0</ele><time>2026-04-19T14:20:51.999Z</time></trkpt><trkpt lat="42.83911255785209" lon="13.332479517914386"><ele>880.0</ele><time>2026-04-19T14:20:52.999Z</time></trkpt><trkpt lat="42.839237357308534" lon="13.332506596549335"><ele>880.0</ele><time>2026-04-19T14:20:53.999Z</time></trkpt><trkpt lat="42.83937547430585" lon="13.332530937101176"><ele>880.0</ele><time>2026-04-19T14:20:54.999Z</time></trkpt><trkpt lat="42.83952804070615" lon="13.332573253056466"><ele>883.0</ele><time>2026-04-19T14:20:55.999Z</time></trkpt><trkpt lat="42.83965079587785" lon="13.332686917864175"><ele>886.0</ele><time>2026-04-19T14:20:56.999Z</time></trkpt><trkpt lat="42.83977145682278" lon="13.332790503433737"><ele>889.0</ele><time>2026-04-19T14:20:57.999Z</time></trkpt><trkpt lat="42.83989229996599" lon="13.332891278213996"><ele>892.0</ele><time>2026-04-19T14:20:58.999Z</time></trkpt><trkpt lat="42.84000986497144" lon="13.332979823746976"><ele>890.75</ele><time>2026-04-19T14:20:59.999Z</time></trkpt><trkpt lat="42.84012732754237" lon="13.333072085913864"><ele>889.5</ele><time>2026-04-19T14:21:00.999Z</time></trkpt><trkpt lat="42.84023789557085" lon="13.333167335079937"><ele>888.25</ele><time>2026-04-19T14:21:01.999Z</time></trkpt><trkpt lat="42.84032811537508" lon="13.333233587847879"><ele>887.0</ele><time>2026-04-19T14:21:02.999Z</time></trkpt><trkpt lat="42.840416997504605" lon="13.333266813054484"><ele>887.0</ele><time>2026-04-19T14:21:03.999Z</time></trkpt><trkpt lat="42.840506406014214" lon="13.333298017711828"><ele>887.0</ele><time>2026-04-19T14:21:04.999Z</time></trkpt><trkpt lat="42.840581591059" lon="13.333283615640838"><ele>887.0</ele><time>2026-04-19T14:21:05.999Z</time></trkpt><trkpt lat="42.840658542058904" lon="13.333229969017474"><ele>887.0</ele><time>2026-04-19T14:21:06.999Z</time></trkpt><trkpt lat="42.84074014970955" lon="13.333145931992822"><ele>887.0</ele><time>2026-04-19T14:21:07.999Z</time></trkpt><trkpt lat="42.840823894656495" lon="13.333059567818765"><ele>887.0000000000001</ele><time>2026-04-19T14:21:08.999Z</time></trkpt><trkpt lat="42.84090318461454" lon="13.332984663767002"><ele>887.0</ele><time>2026-04-19T14:21:09.999Z</time></trkpt><trkpt lat="42.840964666903574" lon="13.3329328340844"><ele>887.0</ele><time>2026-04-19T14:21:10.999Z</time></trkpt><trkpt lat="42.84101601153482" lon="13.332872570162056"><ele>887.0</ele><time>2026-04-19T14:21:11.999Z</time></trkpt><trkpt lat="42.84108974636537" lon="13.332816878948305"><ele>887.0000000000001</ele><time>2026-04-19T14:21:12.999Z</time></trkpt><trkpt lat="42.841168088342" lon="13.332757525141897"><ele>887.0</ele><time>2026-04-19T14:21:13.999Z</time></trkpt><trkpt lat="42.84123269723548" lon="13.332706359145412"><ele>884.0</ele><time>2026-04-19T14:21:14.999Z</time></trkpt><trkpt lat="42.84131086304265" lon="13.332591257818365"><ele>881.0</ele><time>2026-04-19T14:21:16.999Z</time></trkpt><trkpt lat="42.841214345007536" lon="13.332396970812322"><ele>878.0</ele><time>2026-04-19T14:21:20.999Z</time></trkpt><trkpt lat="42.84115147060645" lon="13.332376499461112"><ele>875.0</ele><time>2026-04-19T14:21:21.999Z</time></trkpt><trkpt lat="42.84108535092921" lon="13.332354093750435"><ele>872.0</ele><time>2026-04-19T14:21:22.999Z</time></trkpt><trkpt lat="42.84100801053305" lon="13.332325463262832"><ele>871.6</ele><time>2026-04-19T14:21:23.999Z</time></trkpt><trkpt lat="42.8409049384837" lon="13.332271313039948"><ele>871.2</ele><time>2026-04-19T14:21:25.999Z</time></trkpt><trkpt lat="42.840840521106806" lon="13.332195455662136"><ele>870.8</ele><time>2026-04-19T14:21:27.999Z</time></trkpt><trkpt lat="42.84077804513927" lon="13.332129277135015"><ele>870.4</ele><time>2026-04-19T14:21:28.999Z</time></trkpt><trkpt lat="42.84068563862994" lon="13.33209581130747"><ele>870.0</ele><time>2026-04-19T14:21:29.999Z</time></trkpt><trkpt lat="42.84061528209839" lon="13.332001348736108"><ele>870.0</ele><time>2026-04-19T14:21:30.999Z</time></trkpt><trkpt lat="42.84054966996786" lon="13.331885865614217"><ele>870.0</ele><time>2026-04-19T14:21:31.999Z</time></trkpt><trkpt lat="42.840464969750734" lon="13.331770511196709"><ele>870.0</ele><time>2026-04-19T14:21:32.999Z</time></trkpt><trkpt lat="42.84038834344379" lon="13.331667354182184"><ele>870.0</ele><time>2026-04-19T14:21:33.999Z</time></trkpt><trkpt lat="42.840308824353784" lon="13.33158457767185"><ele>870.0</ele><time>2026-04-19T14:21:34.999Z</time></trkpt><trkpt lat="42.8402239298252" lon="13.33150443177158"><ele>870.0</ele><time>2026-04-19T14:21:35.999Z</time></trkpt><trkpt lat="42.840149073220616" lon="13.331410319402075"><ele>870.0</ele><time>2026-04-19T14:21:36.999Z</time></trkpt><trkpt lat="42.84010069564685" lon="13.331281410472327"><ele>870.0</ele><time>2026-04-19T14:21:37.999Z</time></trkpt><trkpt lat="42.84004945088961" lon="13.33113084935579"><ele>870.0</ele><time>2026-04-19T14:21:38.999Z</time></trkpt><trkpt lat="42.840002391053254" lon="13.330961029132213"><ele>874.3333333333333</ele><time>2026-04-19T14:21:39.999Z</time></trkpt><trkpt lat="42.83996011301365" lon="13.330752480648353"><ele>878.6666666666666</ele><time>2026-04-19T14:21:40.999Z</time></trkpt><trkpt lat="42.8399165564229" lon="13.330526443330076"><ele>883.0</ele><time>2026-04-19T14:21:41.999Z</time></trkpt><trkpt lat="42.839871126303855" lon="13.330310120058718"><ele>883.0</ele><time>2026-04-19T14:21:42.999Z</time></trkpt><trkpt lat="42.83981493890089" lon="13.33011804572332"><ele>883.0</ele><time>2026-04-19T14:21:43.999Z</time></trkpt><trkpt lat="42.839782487847955" lon="13.329942282500957"><ele>883.0</ele><time>2026-04-19T14:21:44.999Z</time></trkpt><trkpt lat="42.839777485192286" lon="13.329767910163271"><ele>883.0</ele><time>2026-04-19T14:21:45.999Z</time></trkpt><trkpt lat="42.83983607778526" lon="13.32960598897825"><ele>883.0</ele><time>2026-04-19T14:21:46.999Z</time></trkpt><trkpt lat="42.8398928637892" lon="13.3294653000189"><ele>883.0</ele><time>2026-04-19T14:21:47.999Z</time></trkpt><trkpt lat="42.839951960164704" lon="13.329363005902447"><ele>883.0</ele><time>2026-04-19T14:21:48.999Z</time></trkpt><trkpt lat="42.83995189499318" lon="13.329248572719354"><ele>883.0</ele><time>2026-04-19T14:21:49.999Z</time></trkpt><trkpt lat="42.839899581371974" lon="13.329081957736658"><ele>883.0</ele><time>2026-04-19T14:21:50.999Z</time></trkpt><trkpt lat="42.83982214474322" lon="13.328910548821444"><ele>880.8</ele><time>2026-04-19T14:21:51.999Z</time></trkpt><trkpt lat="42.839735255453306" lon="13.328767618243505"><ele>878.5999999999999</ele><time>2026-04-19T14:21:52.999Z</time></trkpt><trkpt lat="42.83964825853926" lon="13.328672099244779"><ele>876.4000000000001</ele><time>2026-04-19T14:21:53.999Z</time></trkpt><trkpt lat="42.839591926983545" lon="13.328567792328087"><ele>874.2</ele><time>2026-04-19T14:21:54.999Z</time></trkpt><trkpt lat="42.839531157679446" lon="13.328479021021359"><ele>872.0</ele><time>2026-04-19T14:21:55.999Z</time></trkpt><trkpt lat="42.83947403909405" lon="13.32839558270657"><ele>872.0000000000001</ele><time>2026-04-19T14:21:56.999Z</time></trkpt><trkpt lat="42.83941785466673" lon="13.328311560127691"><ele>872.0</ele><time>2026-04-19T14:21:57.999Z</time></trkpt><trkpt lat="42.839358737103275" lon="13.328220321380257"><ele>872.0</ele><time>2026-04-19T14:21:58.999Z</time></trkpt><trkpt lat="42.83930562138808" lon="13.32813132589218"><ele>872.0</ele><time>2026-04-19T14:21:59.999Z</time></trkpt><trkpt lat="42.83926085401739" lon="13.328025286085452"><ele>872.0000000000001</ele><time>2026-04-19T14:22:00.999Z</time></trkpt><trkpt lat="42.8392416141146" lon="13.327903687117733"><ele>872.0</ele><time>2026-04-19T14:22:01.999Z</time></trkpt><trkpt lat="42.83928015831796" lon="13.32778987404278"><ele>871.3333333333334</ele><time>2026-04-19T14:22:02.999Z</time></trkpt><trkpt lat="42.83936371244741" lon="13.327666981546932"><ele>870.6666666666667</ele><time>2026-04-19T14:22:03.999Z</time></trkpt><trkpt lat="42.83949368522076" lon="13.327512431641551"><ele>870.0</ele><time>2026-04-19T14:22:04.999Z</time></trkpt><trkpt lat="42.83963895880319" lon="13.327332106853488"><ele>873.6666666666667</ele><time>2026-04-19T14:22:05.999Z</time></trkpt><trkpt lat="42.83978840947282" lon="13.327152942136978"><ele>877.3333333333334</ele><time>2026-04-19T14:22:06.998Z</time></trkpt><trkpt lat="42.83993355364952" lon="13.327018659218734"><ele>881.0</ele><time>2026-04-19T14:22:07.998Z</time></trkpt><trkpt lat="42.840058179739586" lon="13.326929446771874"><ele>878.5000000000001</ele><time>2026-04-19T14:22:08.998Z</time></trkpt><trkpt lat="42.84015848864813" lon="13.326852140350073"><ele>876.0</ele><time>2026-04-19T14:22:09.998Z</time></trkpt><trkpt lat="42.8402434271906" lon="13.326781274074516"><ele>873.5</ele><time>2026-04-19T14:22:10.998Z</time></trkpt><trkpt lat="42.84030464550594" lon="13.326728050322375"><ele>871.0</ele><time>2026-04-19T14:22:11.998Z</time></trkpt><trkpt lat="42.84035431644274" lon="13.326670943280037"><ele>868.5000000000001</ele><time>2026-04-19T14:22:13.998Z</time></trkpt><trkpt lat="42.840425395132314" lon="13.326734633453409"><ele>866.0</ele><time>2026-04-19T14:22:14.998Z</time></trkpt><trkpt lat="42.84049303451883" lon="13.32674647456267"><ele>866.0</ele><time>2026-04-19T14:22:15.998Z</time></trkpt><trkpt lat="42.84057008288608" lon="13.326766155633724"><ele>865.9999999999999</ele><time>2026-04-19T14:22:17Z</time></trkpt><trkpt lat="42.84066226497202" lon="13.326758153178364"><ele>865.9999999999999</ele><time>2026-04-19T14:22:18Z</time></trkpt><trkpt lat="42.84077791148182" lon="13.32669808798683"><ele>866.0</ele><time>2026-04-19T14:22:19Z</time></trkpt><trkpt lat="42.840890081735374" lon="13.3266244479321"><ele>866.0</ele><time>2026-04-19T14:22:20Z</time></trkpt><trkpt lat="42.840988545915046" lon="13.326596678485888"><ele>863.8333333333334</ele><time>2026-04-19T14:22:21Z</time></trkpt><trkpt lat="42.841072276899986" lon="13.326582433035501"><ele>861.6666666666667</ele><time>2026-04-19T14:22:22Z</time></trkpt><trkpt lat="42.84114406980149" lon="13.326585970086755"><ele>859.5</ele><time>2026-04-19T14:22:23Z</time></trkpt><trkpt lat="42.841193315008645" lon="13.326660169880078"><ele>857.3333333333333</ele><time>2026-04-19T14:22:24Z</time></trkpt><trkpt lat="42.841197151800564" lon="13.326777396343157"><ele>855.1666666666666</ele><time>2026-04-19T14:22:25Z</time></trkpt><trkpt lat="42.841189156874215" lon="13.32688437600987"><ele>853.0</ele><time>2026-04-19T14:22:26Z</time></trkpt><trkpt lat="42.84117617945889" lon="13.326987375300485"><ele>852.9999999999999</ele><time>2026-04-19T14:22:27Z</time></trkpt><trkpt lat="42.84116367762137" lon="13.32710107179203"><ele>853.0</ele><time>2026-04-19T14:22:28Z</time></trkpt><trkpt lat="42.84116278014132" lon="13.327219602318293"><ele>853.0</ele><time>2026-04-19T14:22:29Z</time></trkpt><trkpt lat="42.841169005952025" lon="13.32732066136065"><ele>853.0</ele><time>2026-04-19T14:22:30Z</time></trkpt><trkpt lat="42.84117941302497" lon="13.327421493976184"><ele>852.9999999999999</ele><time>2026-04-19T14:22:31Z</time></trkpt><trkpt lat="42.841220070003665" lon="13.327505035978268"><ele>853.0</ele><time>2026-04-19T14:22:32Z</time></trkpt><trkpt lat="42.8412861492787" lon="13.327559845970752"><ele>852.5999999999999</ele><time>2026-04-19T14:22:33Z</time></trkpt><trkpt lat="42.84137215581264" lon="13.327589697818526"><ele>852.1999999999999</ele><time>2026-04-19T14:22:34Z</time></trkpt><trkpt lat="42.84147062376952" lon="13.327610332000114"><ele>851.8</ele><time>2026-04-19T14:22:35Z</time></trkpt><trkpt lat="42.84158324234983" lon="13.327637499260675"><ele>851.4</ele><time>2026-04-19T14:22:36Z</time></trkpt><trkpt lat="42.841681795088306" lon="13.327671800131371"><ele>851.0</ele><time>2026-04-19T14:22:37Z</time></trkpt><trkpt lat="42.84177143293586" lon="13.327705898702291"><ele>849.1666666666667</ele><time>2026-04-19T14:22:38Z</time></trkpt><trkpt lat="42.84186088569545" lon="13.3277195670064"><ele>847.3333333333334</ele><time>2026-04-19T14:22:39Z</time></trkpt><trkpt lat="42.84194154710614" lon="13.327698361983451"><ele>845.5</ele><time>2026-04-19T14:22:40Z</time></trkpt><trkpt lat="42.84200786255085" lon="13.327663450802286"><ele>843.6666666666667</ele><time>2026-04-19T14:22:41Z</time></trkpt><trkpt lat="42.842078393903144" lon="13.327648845793558"><ele>841.8333333333334</ele><time>2026-04-19T14:22:42Z</time></trkpt><trkpt lat="42.84215920168762" lon="13.327670746653135"><ele>840.0</ele><time>2026-04-19T14:22:43Z</time></trkpt><trkpt lat="42.84223313006696" lon="13.327724768122783"><ele>840.0</ele><time>2026-04-19T14:22:44Z</time></trkpt><trkpt lat="42.842303466238285" lon="13.32779328712812"><ele>840.0</ele><time>2026-04-19T14:22:45Z</time></trkpt><trkpt lat="42.842374397765184" lon="13.327864076080719"><ele>840.0</ele><time>2026-04-19T14:22:46Z</time></trkpt><trkpt lat="42.842443928943396" lon="13.32793557523528"><ele>840.0</ele><time>2026-04-19T14:22:47Z</time></trkpt><trkpt lat="42.84251020676528" lon="13.32799897117806"><ele>840.0</ele><time>2026-04-19T14:22:48Z</time></trkpt><trkpt lat="42.8425707975448" lon="13.328062584896204"><ele>840.0</ele><time>2026-04-19T14:22:49Z</time></trkpt><trkpt lat="42.842612493985165" lon="13.328134299988504"><ele>839.4</ele><time>2026-04-19T14:22:50Z</time></trkpt><trkpt lat="42.842607360387206" lon="13.328302901478454"><ele>838.8</ele><time>2026-04-19T14:22:52Z</time></trkpt><trkpt lat="42.84255302903256" lon="13.328367358968691"><ele>838.2</ele><time>2026-04-19T14:22:53Z</time></trkpt><trkpt lat="42.84253433241089" lon="13.328452690880347"><ele>837.6</ele><time>2026-04-19T14:22:54Z</time></trkpt><trkpt lat="42.84250621219834" lon="13.32853004199184"><ele>837.0</ele><time>2026-04-19T14:22:55Z</time></trkpt><trkpt lat="42.84249160823304" lon="13.328707053659103"><ele>837.0</ele><time>2026-04-19T14:22:57Z</time></trkpt><trkpt lat="42.842546451183836" lon="13.328783715939622"><ele>837.0</ele><time>2026-04-19T14:22:58Z</time></trkpt><trkpt lat="42.842604086151034" lon="13.328853467961958"><ele>837.0</ele><time>2026-04-19T14:23:00Z</time></trkpt><trkpt lat="42.84274520009544" lon="13.328760594009166"><ele>837.0</ele><time>2026-04-19T14:23:05Z</time></trkpt><trkpt lat="42.84279763692153" lon="13.328647769464883"><ele>837.0</ele><time>2026-04-19T14:23:06Z</time></trkpt><trkpt lat="42.84287197513677" lon="13.328518936352198"><ele>836.3333333333333</ele><time>2026-04-19T14:23:07Z</time></trkpt><trkpt lat="42.8429731405548" lon="13.32835339099594"><ele>835.6666666666666</ele><time>2026-04-19T14:23:08Z</time></trkpt><trkpt lat="42.84308985847343" lon="13.328156280314781"><ele>835.0</ele><time>2026-04-19T14:23:09Z</time></trkpt><trkpt lat="42.84322026465228" lon="13.327947907557554"><ele>835.0</ele><time>2026-04-19T14:23:10Z</time></trkpt><trkpt lat="42.84335022703616" lon="13.32774596222459"><ele>835.0</ele><time>2026-04-19T14:23:11Z</time></trkpt><trkpt lat="42.84345550696768" lon="13.327560703690763"><ele>835.0</ele><time>2026-04-19T14:23:12Z</time></trkpt><trkpt lat="42.84356039944658" lon="13.327401221755531"><ele>830.0</ele><time>2026-04-19T14:23:13Z</time></trkpt><trkpt lat="42.84364485423895" lon="13.327252494206812"><ele>825.0</ele><time>2026-04-19T14:23:14Z</time></trkpt><trkpt lat="42.84369734764094" lon="13.327092968685553"><ele>820.0</ele><time>2026-04-19T14:23:15Z</time></trkpt><trkpt lat="42.843705218282125" lon="13.3269110933312"><ele>815.0</ele><time>2026-04-19T14:23:16Z</time></trkpt><trkpt lat="42.843686323578595" lon="13.32669441334166"><ele>811.6666666666667</ele><time>2026-04-19T14:23:17Z</time></trkpt><trkpt lat="42.843659775137596" lon="13.326431850687165"><ele>808.3333333333333</ele><time>2026-04-19T14:23:18Z</time></trkpt><trkpt lat="42.843637323634645" lon="13.326159475520498"><ele>805.0</ele><time>2026-04-19T14:23:19Z</time></trkpt><trkpt lat="42.843599193114564" lon="13.325909655504688"><ele>801.6666666666666</ele><time>2026-04-19T14:23:20Z</time></trkpt><trkpt lat="42.84356521826126" lon="13.325685311300502"><ele>798.3333333333333</ele><time>2026-04-19T14:23:21Z</time></trkpt><trkpt lat="42.84353475155302" lon="13.32546750109746"><ele>795.0</ele><time>2026-04-19T14:23:22Z</time></trkpt><trkpt lat="42.84354901100735" lon="13.325258160562564"><ele>793.75</ele><time>2026-04-19T14:23:23Z</time></trkpt><trkpt lat="42.843561457032536" lon="13.325064476019273"><ele>792.5</ele><time>2026-04-19T14:23:24Z</time></trkpt><trkpt lat="42.84356423815563" lon="13.32488157209906"><ele>791.25</ele><time>2026-04-19T14:23:25Z</time></trkpt><trkpt lat="42.8435418757265" lon="13.324700971164637"><ele>790.0</ele><time>2026-04-19T14:23:26Z</time></trkpt><trkpt lat="42.84348182793451" lon="13.324515880994714"><ele>794.3333333333333</ele><time>2026-04-19T14:23:27Z</time></trkpt><trkpt lat="42.84337988288569" lon="13.324311043200012"><ele>798.6666666666667</ele><time>2026-04-19T14:23:28Z</time></trkpt><trkpt lat="42.843263841961964" lon="13.324099409805385"><ele>803.0</ele><time>2026-04-19T14:23:29Z</time></trkpt><trkpt lat="42.84316523637233" lon="13.323895026766102"><ele>803.0</ele><time>2026-04-19T14:23:30Z</time></trkpt><trkpt lat="42.84308776125702" lon="13.323696182582312"><ele>803.0</ele><time>2026-04-19T14:23:31Z</time></trkpt><trkpt lat="42.84301020495788" lon="13.323511921901035"><ele>803.0</ele><time>2026-04-19T14:23:32Z</time></trkpt><trkpt lat="42.84292966376893" lon="13.323338613475379"><ele>803.0</ele><time>2026-04-19T14:23:33Z</time></trkpt><trkpt lat="42.84284709428521" lon="13.323180087263612"><ele>803.0</ele><time>2026-04-19T14:23:34Z</time></trkpt><trkpt lat="42.84276991487954" lon="13.323040522391063"><ele>803.0</ele><time>2026-04-19T14:23:35Z</time></trkpt><trkpt lat="42.842714004249245" lon="13.322917836301825"><ele>803.0</ele><time>2026-04-19T14:23:36Z</time></trkpt><trkpt lat="42.84267966740683" lon="13.322806289894125"><ele>803.6666666666667</ele><time>2026-04-19T14:23:37Z</time></trkpt><trkpt lat="42.84265380817314" lon="13.322684727610735"><ele>804.3333333333334</ele><time>2026-04-19T14:23:38Z</time></trkpt><trkpt lat="42.84265932069785" lon="13.322566760904099"><ele>805.0</ele><time>2026-04-19T14:23:39Z</time></trkpt><trkpt lat="42.84267902223542" lon="13.32246463225005"><ele>805.6666666666667</ele><time>2026-04-19T14:23:40Z</time></trkpt><trkpt lat="42.84271447830928" lon="13.322372805258405"><ele>806.3333333333334</ele><time>2026-04-19T14:23:41Z</time></trkpt><trkpt lat="42.84276948839664" lon="13.322292140245361"><ele>807.0</ele><time>2026-04-19T14:23:42Z</time></trkpt><trkpt lat="42.842831275780036" lon="13.32223670584905"><ele>809.6666666666666</ele><time>2026-04-19T14:23:43Z</time></trkpt><trkpt lat="42.84290045884933" lon="13.32218172692646"><ele>812.3333333333333</ele><time>2026-04-19T14:23:44Z</time></trkpt><trkpt lat="42.84296944135613" lon="13.322121964325454"><ele>815.0</ele><time>2026-04-19T14:23:45Z</time></trkpt><trkpt lat="42.8430378770891" lon="13.322055519335017"><ele>817.6666666666666</ele><time>2026-04-19T14:23:46Z</time></trkpt><trkpt lat="42.8431147157786" lon="13.321998611818383"><ele>820.3333333333333</ele><time>2026-04-19T14:23:47Z</time></trkpt><trkpt lat="42.843191752153395" lon="13.321974372412573"><ele>823.0</ele><time>2026-04-19T14:23:48Z</time></trkpt><trkpt lat="42.843262284532635" lon="13.321982041299892"><ele>823.0</ele><time>2026-04-19T14:23:49Z</time></trkpt><trkpt lat="42.84332199645316" lon="13.322021274388176"><ele>823.0</ele><time>2026-04-19T14:23:50Z</time></trkpt><trkpt lat="42.843376619438864" lon="13.322104592966468"><ele>823.0</ele><time>2026-04-19T14:23:51Z</time></trkpt><trkpt lat="42.84346279927652" lon="13.322188394183327"><ele>823.0</ele><time>2026-04-19T14:23:52Z</time></trkpt><trkpt lat="42.84355612723934" lon="13.322317606388413"><ele>823.0</ele><time>2026-04-19T14:23:53Z</time></trkpt><trkpt lat="42.84368192090238" lon="13.322446939303132"><ele>827.3333333333333</ele><time>2026-04-19T14:23:54Z</time></trkpt><trkpt lat="42.84382294780667" lon="13.32259254187983"><ele>831.6666666666667</ele><time>2026-04-19T14:23:55Z</time></trkpt><trkpt lat="42.84395739105681" lon="13.32274180480451"><ele>836.0</ele><time>2026-04-19T14:23:56Z</time></trkpt><trkpt lat="42.84409608796264" lon="13.322904209082731"><ele>836.0</ele><time>2026-04-19T14:23:57Z</time></trkpt><trkpt lat="42.84421772031019" lon="13.32306201278765"><ele>836.0</ele><time>2026-04-19T14:23:58Z</time></trkpt><trkpt lat="42.84433554311067" lon="13.323204122181622"><ele>836.0</ele><time>2026-04-19T14:23:59Z</time></trkpt><trkpt lat="42.84444526168682" lon="13.323309867015167"><ele>836.75</ele><time>2026-04-19T14:24:00Z</time></trkpt><trkpt lat="42.844566383195996" lon="13.32335805638311"><ele>837.5</ele><time>2026-04-19T14:24:01Z</time></trkpt><trkpt lat="42.84469198763387" lon="13.323394077014422"><ele>838.25</ele><time>2026-04-19T14:24:02Z</time></trkpt><trkpt lat="42.844765976829606" lon="13.323499514916117"><ele>839.0</ele><time>2026-04-19T14:24:03Z</time></trkpt><trkpt lat="42.84476853675846" lon="13.323625079955024"><ele>839.0</ele><time>2026-04-19T14:24:04Z</time></trkpt><trkpt lat="42.84479217632303" lon="13.323790564854983"><ele>839.0</ele><time>2026-04-19T14:24:05Z</time></trkpt><trkpt lat="42.844848325188536" lon="13.323960868902075"><ele>839.0</ele><time>2026-04-19T14:24:06Z</time></trkpt><trkpt lat="42.844942853192165" lon="13.324149966717329"><ele>839.0</ele><time>2026-04-19T14:24:07Z</time></trkpt><trkpt lat="42.845067111035185" lon="13.32433039553185"><ele>839.0</ele><time>2026-04-19T14:24:08Z</time></trkpt><trkpt lat="42.84519081717038" lon="13.324508435781313"><ele>839.0</ele><time>2026-04-19T14:24:09Z</time></trkpt><trkpt lat="42.84530300372905" lon="13.324703783193474"><ele>839.0</ele><time>2026-04-19T14:24:10Z</time></trkpt><trkpt lat="42.845423563733334" lon="13.324906250462561"><ele>839.0</ele><time>2026-04-19T14:24:11Z</time></trkpt><trkpt lat="42.84555493284086" lon="13.325104643971878"><ele>839.0</ele><time>2026-04-19T14:24:12Z</time></trkpt><trkpt lat="42.84568307115166" lon="13.325298288944548"><ele>839.0</ele><time>2026-04-19T14:24:13Z</time></trkpt><trkpt lat="42.845810469242494" lon="13.325471044279185"><ele>838.0</ele><time>2026-04-19T14:24:14Z</time></trkpt><trkpt lat="42.84592183239723" lon="13.325636259858575"><ele>837.0</ele><time>2026-04-19T14:24:15Z</time></trkpt><trkpt lat="42.84603048219206" lon="13.325759398824662"><ele>836.0</ele><time>2026-04-19T14:24:16Z</time></trkpt><trkpt lat="42.84613242061036" lon="13.325874169842551"><ele>835.0</ele><time>2026-04-19T14:24:17Z</time></trkpt><trkpt lat="42.84623256544795" lon="13.325950094481142"><ele>835.0</ele><time>2026-04-19T14:24:18Z</time></trkpt><trkpt lat="42.84633170894945" lon="13.325957396502844"><ele>835.0</ele><time>2026-04-19T14:24:19Z</time></trkpt><trkpt lat="42.84643086272027" lon="13.325921511543024"><ele>835.0</ele><time>2026-04-19T14:24:20Z</time></trkpt><trkpt lat="42.84654166738257" lon="13.325846958804753"><ele>835.0</ele><time>2026-04-19T14:24:21Z</time></trkpt><trkpt lat="42.84667087521542" lon="13.325753156644822"><ele>837.3333333333333</ele><time>2026-04-19T14:24:22Z</time></trkpt><trkpt lat="42.84682464779006" lon="13.325637837600556"><ele>839.6666666666667</ele><time>2026-04-19T14:24:23.001Z</time></trkpt><trkpt lat="42.84698991108879" lon="13.325489824837073"><ele>842.0</ele><time>2026-04-19T14:24:24.001Z</time></trkpt><trkpt lat="42.84717154624407" lon="13.325320789612286"><ele>842.0</ele><time>2026-04-19T14:24:25.001Z</time></trkpt><trkpt lat="42.847340048500975" lon="13.325180886246645"><ele>842.0</ele><time>2026-04-19T14:24:26.001Z</time></trkpt><trkpt lat="42.84750213139938" lon="13.32506916358067"><ele>842.0</ele><time>2026-04-19T14:24:27.001Z</time></trkpt><trkpt lat="42.84765711887867" lon="13.324978063817712"><ele>842.6666666666667</ele><time>2026-04-19T14:24:28.001Z</time></trkpt><trkpt lat="42.847796440906414" lon="13.324889775153608"><ele>843.3333333333333</ele><time>2026-04-19T14:24:29.001Z</time></trkpt><trkpt lat="42.84793204720376" lon="13.324783231738277"><ele>844.0</ele><time>2026-04-19T14:24:30.001Z</time></trkpt><trkpt lat="42.84804307737887" lon="13.324640661098533"><ele>844.0</ele><time>2026-04-19T14:24:31.001Z</time></trkpt><trkpt lat="42.84816125565541" lon="13.324506548221795"><ele>844.0</ele><time>2026-04-19T14:24:32.001Z</time></trkpt><trkpt lat="42.848280412626984" lon="13.324382284333721"><ele>844.0</ele><time>2026-04-19T14:24:33.001Z</time></trkpt><trkpt lat="42.84838211926323" lon="13.324270408880803"><ele>844.0</ele><time>2026-04-19T14:24:34.001Z</time></trkpt><trkpt lat="42.84848360365562" lon="13.324192320958172"><ele>842.4000000000001</ele><time>2026-04-19T14:24:35.001Z</time></trkpt><trkpt lat="42.84857062659086" lon="13.324160541551114"><ele>840.8</ele><time>2026-04-19T14:24:36.001Z</time></trkpt><trkpt lat="42.848657543104466" lon="13.324180787129642"><ele>839.2</ele><time>2026-04-19T14:24:37.001Z</time></trkpt><trkpt lat="42.8487390997568" lon="13.32426792416102"><ele>837.5999999999999</ele><time>2026-04-19T14:24:38.001Z</time></trkpt><trkpt lat="42.848802195515965" lon="13.324395935453738"><ele>836.0</ele><time>2026-04-19T14:24:39.001Z</time></trkpt><trkpt lat="42.8488617305532" lon="13.324552306966018"><ele>836.0</ele><time>2026-04-19T14:24:40.001Z</time></trkpt><trkpt lat="42.8489400012125" lon="13.324700831600238"><ele>836.0</ele><time>2026-04-19T14:24:41.001Z</time></trkpt><trkpt lat="42.84899734372002" lon="13.324836117179807"><ele>836.0</ele><time>2026-04-19T14:24:42.001Z</time></trkpt><trkpt lat="42.849082919954895" lon="13.324943834669947"><ele>836.0</ele><time>2026-04-19T14:24:43.001Z</time></trkpt><trkpt lat="42.84919794043359" lon="13.325018943559078"><ele>827.25</ele><time>2026-04-19T14:24:44.001Z</time></trkpt><trkpt lat="42.84931229573332" lon="13.325035439861384"><ele>818.5</ele><time>2026-04-19T14:24:45.001Z</time></trkpt><trkpt lat="42.84942489887875" lon="13.324990620123415"><ele>809.75</ele><time>2026-04-19T14:24:46.001Z</time></trkpt><trkpt lat="42.84953286273536" lon="13.324892999442802"><ele>801.0</ele><time>2026-04-19T14:24:47Z</time></trkpt><trkpt lat="42.84961964956906" lon="13.324760889024597"><ele>804.25</ele><time>2026-04-19T14:24:48Z</time></trkpt><trkpt lat="42.8496906660342" lon="13.32458652984438"><ele>807.5</ele><time>2026-04-19T14:24:49Z</time></trkpt><trkpt lat="42.84975801778653" lon="13.324434623175218"><ele>810.75</ele><time>2026-04-19T14:24:50Z</time></trkpt><trkpt lat="42.849845793159794" lon="13.324264509372913"><ele>814.0</ele><time>2026-04-19T14:24:51Z</time></trkpt><trkpt lat="42.849935456362985" lon="13.324100340650277"><ele>814.0</ele><time>2026-04-19T14:24:52Z</time></trkpt><trkpt lat="42.85001160186019" lon="13.323938152626093"><ele>814.0</ele><time>2026-04-19T14:24:53Z</time></trkpt><trkpt lat="42.850087069162825" lon="13.32380393020915"><ele>814.0</ele><time>2026-04-19T14:24:54Z</time></trkpt><trkpt lat="42.85017737128923" lon="13.323721765438872"><ele>814.0</ele><time>2026-04-19T14:24:55Z</time></trkpt><trkpt lat="42.850280068718085" lon="13.323670309895466"><ele>813.8000000000001</ele><time>2026-04-19T14:24:56Z</time></trkpt><trkpt lat="42.85039135371167" lon="13.323667540473885"><ele>813.6</ele><time>2026-04-19T14:24:57Z</time></trkpt><trkpt lat="42.850495951735155" lon="13.323724708038306"><ele>813.4</ele><time>2026-04-19T14:24:58Z</time></trkpt><trkpt lat="42.850583654866476" lon="13.323835994712123"><ele>813.2</ele><time>2026-04-19T14:24:59Z</time></trkpt><trkpt lat="42.85064506419369" lon="13.323951488909978"><ele>813.0</ele><time>2026-04-19T14:25:00Z</time></trkpt><trkpt lat="42.85068305000527" lon="13.324089089788261"><ele>813.0</ele><time>2026-04-19T14:25:01Z</time></trkpt><trkpt lat="42.85067126385558" lon="13.324245383790892"><ele>813.0</ele><time>2026-04-19T14:25:02Z</time></trkpt><trkpt lat="42.85062860701206" lon="13.324385002213003"><ele>813.0</ele><time>2026-04-19T14:25:03Z</time></trkpt><trkpt lat="42.85057376009032" lon="13.32457250902962"><ele>813.0</ele><time>2026-04-19T14:25:04Z</time></trkpt><trkpt lat="42.85050649444312" lon="13.324821965279487"><ele>815.6666666666667</ele><time>2026-04-19T14:25:05Z</time></trkpt><trkpt lat="42.85044616747555" lon="13.325056450628807"><ele>818.3333333333334</ele><time>2026-04-19T14:25:06Z</time></trkpt><trkpt lat="42.85039496119504" lon="13.325258216945512"><ele>821.0</ele><time>2026-04-19T14:25:07Z</time></trkpt><trkpt lat="42.850370151877065" lon="13.325450683091116"><ele>821.8</ele><time>2026-04-19T14:25:08Z</time></trkpt><trkpt lat="42.85038577502185" lon="13.325594150042296"><ele>822.5999999999999</ele><time>2026-04-19T14:25:09Z</time></trkpt><trkpt lat="42.850440692258786" lon="13.32573357071707"><ele>823.4</ele><time>2026-04-19T14:25:10Z</time></trkpt><trkpt lat="42.850461910148965" lon="13.325833067056534"><ele>824.2</ele><time>2026-04-19T14:25:11Z</time></trkpt><trkpt lat="42.85040842355251" lon="13.325964989649151"><ele>825.0</ele><time>2026-04-19T14:25:12Z</time></trkpt><trkpt lat="42.85032779304401" lon="13.32603300000752"><ele>825.0</ele><time>2026-04-19T14:25:13Z</time></trkpt><trkpt lat="42.85022213273824" lon="13.326168871780398"><ele>825.0</ele><time>2026-04-19T14:25:14Z</time></trkpt><trkpt lat="42.8501014775515" lon="13.326343037519079"><ele>825.0</ele><time>2026-04-19T14:25:15Z</time></trkpt><trkpt lat="42.849985385984645" lon="13.32653261574557"><ele>818.6666666666667</ele><time>2026-04-19T14:25:16Z</time></trkpt><trkpt lat="42.84986887585036" lon="13.326694488124625"><ele>812.3333333333334</ele><time>2026-04-19T14:25:17Z</time></trkpt><trkpt lat="42.84971536137859" lon="13.326826361300569"><ele>806.0</ele><time>2026-04-19T14:25:18Z</time></trkpt><trkpt lat="42.84955666246558" lon="13.326955322128649"><ele>806.0</ele><time>2026-04-19T14:25:19Z</time></trkpt><trkpt lat="42.84940047083092" lon="13.327053605333665"><ele>806.0</ele><time>2026-04-19T14:25:20Z</time></trkpt><trkpt lat="42.84923950309466" lon="13.327108356492852"><ele>806.0</ele><time>2026-04-19T14:25:21Z</time></trkpt><trkpt lat="42.849065167963545" lon="13.327136002081108"><ele>801.0</ele><time>2026-04-19T14:25:22Z</time></trkpt><trkpt lat="42.84890521280322" lon="13.327129138898155"><ele>796.0</ele><time>2026-04-19T14:25:23Z</time></trkpt><trkpt lat="42.84877549916832" lon="13.327136494907593"><ele>791.0</ele><time>2026-04-19T14:25:24Z</time></trkpt><trkpt lat="42.84867951029092" lon="13.327119330040679"><ele>786.0</ele><time>2026-04-19T14:25:25Z</time></trkpt><trkpt lat="42.848593174222444" lon="13.327165332994026"><ele>788.5</ele><time>2026-04-19T14:25:26Z</time></trkpt><trkpt lat="42.848556324404136" lon="13.327306629426113"><ele>791.0</ele><time>2026-04-19T14:25:27Z</time></trkpt><trkpt lat="42.84854737485825" lon="13.32745593536013"><ele>793.5</ele><time>2026-04-19T14:25:28Z</time></trkpt><trkpt lat="42.8485714235369" lon="13.327631235949148"><ele>796.0</ele><time>2026-04-19T14:25:29Z</time></trkpt><trkpt lat="42.84863360824285" lon="13.327777007808303"><ele>796.0</ele><time>2026-04-19T14:25:30Z</time></trkpt><trkpt lat="42.84872362862142" lon="13.327889185949537"><ele>796.0</ele><time>2026-04-19T14:25:31Z</time></trkpt><trkpt lat="42.84883227296277" lon="13.327956739340413"><ele>796.0</ele><time>2026-04-19T14:25:32Z</time></trkpt><trkpt lat="42.848960069246175" lon="13.328032316560856"><ele>796.0</ele><time>2026-04-19T14:25:33Z</time></trkpt><trkpt lat="42.84907884124229" lon="13.328102337253622"><ele>793.5</ele><time>2026-04-19T14:25:34Z</time></trkpt><trkpt lat="42.84918682112624" lon="13.328192484657487"><ele>791.0</ele><time>2026-04-19T14:25:35Z</time></trkpt><trkpt lat="42.84929214797071" lon="13.328312356522831"><ele>788.5</ele><time>2026-04-19T14:25:36Z</time></trkpt><trkpt lat="42.84938499458467" lon="13.328435949529652"><ele>786.0</ele><time>2026-04-19T14:25:37Z</time></trkpt><trkpt lat="42.84948208818784" lon="13.328578693182532"><ele>783.75</ele><time>2026-04-19T14:25:38Z</time></trkpt><trkpt lat="42.84958071613112" lon="13.328736465072852"><ele>781.5</ele><time>2026-04-19T14:25:39Z</time></trkpt><trkpt lat="42.8496717211782" lon="13.32887525785198"><ele>779.25</ele><time>2026-04-19T14:25:40Z</time></trkpt><trkpt lat="42.849758751215454" lon="13.32900924252752"><ele>777.0</ele><time>2026-04-19T14:25:41Z</time></trkpt><trkpt lat="42.84984977715216" lon="13.32912384610849"><ele>777.0</ele><time>2026-04-19T14:25:42Z</time></trkpt><trkpt lat="42.8499371288382" lon="13.329212967620856"><ele>777.0</ele><time>2026-04-19T14:25:43Z</time></trkpt><trkpt lat="42.850051394701936" lon="13.32926708065785"><ele>777.0</ele><time>2026-04-19T14:25:44Z</time></trkpt><trkpt lat="42.85019625122292" lon="13.329243407251393"><ele>777.0</ele><time>2026-04-19T14:25:45Z</time></trkpt><trkpt lat="42.85035047828645" lon="13.329177523811833"><ele>778.5</ele><time>2026-04-19T14:25:46Z</time></trkpt><trkpt lat="42.850495627736436" lon="13.329111102866719"><ele>780.0</ele><time>2026-04-19T14:25:47Z</time></trkpt><trkpt lat="42.85060527742032" lon="13.329079038986185"><ele>781.5</ele><time>2026-04-19T14:25:48Z</time></trkpt><trkpt lat="42.85069999079589" lon="13.329079038445023"><ele>783.0</ele><time>2026-04-19T14:25:49Z</time></trkpt><trkpt lat="42.850796891888145" lon="13.32915183134905"><ele>783.0</ele><time>2026-04-19T14:25:50Z</time></trkpt><trkpt lat="42.85091018996891" lon="13.329231950752135"><ele>783.0</ele><time>2026-04-19T14:25:51Z</time></trkpt><trkpt lat="42.85099525553109" lon="13.329379154994909"><ele>783.0</ele><time>2026-04-19T14:25:52Z</time></trkpt><trkpt lat="42.85107448586033" lon="13.329532389059766"><ele>783.0</ele><time>2026-04-19T14:25:53Z</time></trkpt><trkpt lat="42.85111961080102" lon="13.329695529225353"><ele>786.5</ele><time>2026-04-19T14:25:54Z</time></trkpt><trkpt lat="42.85111667424946" lon="13.329866443786802"><ele>790.0</ele><time>2026-04-19T14:25:55Z</time></trkpt><trkpt lat="42.85113178804835" lon="13.330026653815983"><ele>793.5</ele><time>2026-04-19T14:25:56Z</time></trkpt><trkpt lat="42.851188954132226" lon="13.33016478640073"><ele>797.0</ele><time>2026-04-19T14:25:57Z</time></trkpt><trkpt lat="42.85129201545112" lon="13.33027362393669"><ele>797.0</ele><time>2026-04-19T14:25:58Z</time></trkpt><trkpt lat="42.85139698043024" lon="13.33042037571288"><ele>797.0</ele><time>2026-04-19T14:25:59Z</time></trkpt><trkpt lat="42.85150566500394" lon="13.330567935147586"><ele>797.0</ele><time>2026-04-19T14:26:00Z</time></trkpt><trkpt lat="42.851646837978095" lon="13.330725447977107"><ele>793.25</ele><time>2026-04-19T14:26:01Z</time></trkpt><trkpt lat="42.85174907415142" lon="13.330870498194427"><ele>789.5</ele><time>2026-04-19T14:26:02Z</time></trkpt><trkpt lat="42.85182151912594" lon="13.331016640515385"><ele>785.75</ele><time>2026-04-19T14:26:03Z</time></trkpt><trkpt lat="42.85188113570484" lon="13.331192486853713"><ele>782.0</ele><time>2026-04-19T14:26:04Z</time></trkpt><trkpt lat="42.85190820170488" lon="13.331376695521467"><ele>787.0</ele><time>2026-04-19T14:26:05Z</time></trkpt><trkpt lat="42.851925749080394" lon="13.331611782029729"><ele>792.0</ele><time>2026-04-19T14:26:06Z</time></trkpt><trkpt lat="42.85196793010034" lon="13.331804072941233"><ele>797.0</ele><time>2026-04-19T14:26:07Z</time></trkpt><trkpt lat="42.85202304586245" lon="13.332004159577465"><ele>797.0</ele><time>2026-04-19T14:26:08Z</time></trkpt><trkpt lat="42.85205432117731" lon="13.332215047367857"><ele>797.0</ele><time>2026-04-19T14:26:09Z</time></trkpt><trkpt lat="42.852097161615994" lon="13.332414673222475"><ele>797.0</ele><time>2026-04-19T14:26:10Z</time></trkpt><trkpt lat="42.85213747667351" lon="13.332592469742842"><ele>797.0</ele><time>2026-04-19T14:26:11Z</time></trkpt><trkpt lat="42.85218536267801" lon="13.332765464650238"><ele>794.0</ele><time>2026-04-19T14:26:12Z</time></trkpt><trkpt lat="42.852272075166994" lon="13.332926286696422"><ele>791.0</ele><time>2026-04-19T14:26:13Z</time></trkpt><trkpt lat="42.85236469081214" lon="13.33308967913911"><ele>788.0</ele><time>2026-04-19T14:26:14Z</time></trkpt><trkpt lat="42.852469882581445" lon="13.333232786072788"><ele>785.0</ele><time>2026-04-19T14:26:15Z</time></trkpt><trkpt lat="42.85258167578905" lon="13.333350861240314"><ele>783.0</ele><time>2026-04-19T14:26:16Z</time></trkpt><trkpt lat="42.8527240651672" lon="13.333437372439802"><ele>781.0</ele><time>2026-04-19T14:26:17Z</time></trkpt><trkpt lat="42.85290202553859" lon="13.333502964429664"><ele>779.0</ele><time>2026-04-19T14:26:18Z</time></trkpt><trkpt lat="42.85309626177475" lon="13.333561806946866"><ele>779.0</ele><time>2026-04-19T14:26:19Z</time></trkpt><trkpt lat="42.853293669698786" lon="13.333619699442577"><ele>779.0</ele><time>2026-04-19T14:26:20Z</time></trkpt><trkpt lat="42.85350327657091" lon="13.333676607599068"><ele>779.0</ele><time>2026-04-19T14:26:21Z</time></trkpt><trkpt lat="42.853721452916766" lon="13.333736590595697"><ele>780.0</ele><time>2026-04-19T14:26:22Z</time></trkpt><trkpt lat="42.853950161011" lon="13.333805133614787"><ele>781.0</ele><time>2026-04-19T14:26:23Z</time></trkpt><trkpt lat="42.85417155665998" lon="13.333872785240532"><ele>778.0</ele><time>2026-04-19T14:26:24Z</time></trkpt><trkpt lat="42.85437452059971" lon="13.333927197124439"><ele>775.0</ele><time>2026-04-19T14:26:24.999Z</time></trkpt><trkpt lat="42.85455018175363" lon="13.333969961010945"><ele>772.0</ele><time>2026-04-19T14:26:25.999Z</time></trkpt><trkpt lat="42.854701341383645" lon="13.334010967956107"><ele>772.0</ele><time>2026-04-19T14:26:26.999Z</time></trkpt><trkpt lat="42.85484448358183" lon="13.334074334531927"><ele>772.0</ele><time>2026-04-19T14:26:27.999Z</time></trkpt><trkpt lat="42.85495195662165" lon="13.334199021617339"><ele>772.0</ele><time>2026-04-19T14:26:29Z</time></trkpt><trkpt lat="42.855030996660375" lon="13.334345373906475"><ele>772.0</ele><time>2026-04-19T14:26:30Z</time></trkpt><trkpt lat="42.855141514069054" lon="13.334480028840105"><ele>768.6666666666666</ele><time>2026-04-19T14:26:31Z</time></trkpt><trkpt lat="42.855238633214455" lon="13.334631834216975"><ele>765.3333333333333</ele><time>2026-04-19T14:26:32Z</time></trkpt><trkpt lat="42.855392904196925" lon="13.334706601468412"><ele>762.0</ele><time>2026-04-19T14:26:33Z</time></trkpt><trkpt lat="42.85558786081575" lon="13.33475264451801"><ele>762.0</ele><time>2026-04-19T14:26:34Z</time></trkpt><trkpt lat="42.85580859535307" lon="13.334793569951618"><ele>762.0</ele><time>2026-04-19T14:26:35Z</time></trkpt><trkpt lat="42.85602209627304" lon="13.334844897037627"><ele>762.0</ele><time>2026-04-19T14:26:36Z</time></trkpt><trkpt lat="42.85624063216769" lon="13.33490188819037"><ele>764.3333333333333</ele><time>2026-04-19T14:26:37Z</time></trkpt><trkpt lat="42.85645048459951" lon="13.334960480432075"><ele>766.6666666666666</ele><time>2026-04-19T14:26:38Z</time></trkpt><trkpt lat="42.85662663702377" lon="13.335005091980399"><ele>769.0</ele><time>2026-04-19T14:26:39Z</time></trkpt><trkpt lat="42.856778447696186" lon="13.335017950050922"><ele>769.25</ele><time>2026-04-19T14:26:40Z</time></trkpt><trkpt lat="42.85691616141953" lon="13.33497939791668"><ele>769.5</ele><time>2026-04-19T14:26:41Z</time></trkpt><trkpt lat="42.857032402757895" lon="13.334924895126552"><ele>769.75</ele><time>2026-04-19T14:26:42Z</time></trkpt><trkpt lat="42.85713643626235" lon="13.334889394278008"><ele>770.0</ele><time>2026-04-19T14:26:43Z</time></trkpt><trkpt lat="42.85724760245731" lon="13.334905328853214"><ele>770.0</ele><time>2026-04-19T14:26:44Z</time></trkpt><trkpt lat="42.85737652014593" lon="13.334972513194103"><ele>770.0</ele><time>2026-04-19T14:26:45Z</time></trkpt><trkpt lat="42.85749581926153" lon="13.335092805208442"><ele>770.0</ele><time>2026-04-19T14:26:46Z</time></trkpt><trkpt lat="42.85762897500796" lon="13.3351959856228"><ele>770.0</ele><time>2026-04-19T14:26:47Z</time></trkpt><trkpt lat="42.85774776171403" lon="13.335319452923216"><ele>770.0</ele><time>2026-04-19T14:26:48Z</time></trkpt><trkpt lat="42.85785810986815" lon="13.335392059641238"><ele>770.0</ele><time>2026-04-19T14:26:49Z</time></trkpt><trkpt lat="42.85796065704483" lon="13.335397063391468"><ele>770.0</ele><time>2026-04-19T14:26:50Z</time></trkpt><trkpt lat="42.858041526822426" lon="13.335349648241555"><ele>770.0</ele><time>2026-04-19T14:26:51Z</time></trkpt><trkpt lat="42.85809353235573" lon="13.335266653013942"><ele>770.0</ele><time>2026-04-19T14:26:52Z</time></trkpt><trkpt lat="42.85811425986076" lon="13.335128253970693"><ele>770.0</ele><time>2026-04-19T14:26:53Z</time></trkpt><trkpt lat="42.85810806276633" lon="13.33496329149934"><ele>770.0</ele><time>2026-04-19T14:26:54Z</time></trkpt><trkpt lat="42.85806363553867" lon="13.334788637456437"><ele>770.0</ele><time>2026-04-19T14:26:55Z</time></trkpt><trkpt lat="42.85800017202846" lon="13.334608443955748"><ele>770.0</ele><time>2026-04-19T14:26:56Z</time></trkpt><trkpt lat="42.857975793562886" lon="13.334424479214867"><ele>771.0</ele><time>2026-04-19T14:26:57Z</time></trkpt><trkpt lat="42.85798795632995" lon="13.334233258536514"><ele>772.0</ele><time>2026-04-19T14:26:58Z</time></trkpt><trkpt lat="42.8580372103856" lon="13.334046700569955"><ele>773.0</ele><time>2026-04-19T14:26:59Z</time></trkpt><trkpt lat="42.85808846629993" lon="13.333830027433622"><ele>778.0</ele><time>2026-04-19T14:27:00Z</time></trkpt><trkpt lat="42.85816027927714" lon="13.333625630250749"><ele>783.0</ele><time>2026-04-19T14:27:01Z</time></trkpt><trkpt lat="42.85819466432544" lon="13.333397722467238"><ele>788.0</ele><time>2026-04-19T14:27:02Z</time></trkpt><trkpt lat="42.858200133693636" lon="13.33314694150199"><ele>787.2</ele><time>2026-04-19T14:27:03Z</time></trkpt><trkpt lat="42.85821020242691" lon="13.332970495464023"><ele>786.4</ele><time>2026-04-19T14:27:04Z</time></trkpt><trkpt lat="42.85821534649543" lon="13.33283706089425"><ele>785.6</ele><time>2026-04-19T14:27:05Z</time></trkpt><trkpt lat="42.85827438690259" lon="13.332713161484394"><ele>784.8000000000001</ele><time>2026-04-19T14:27:06Z</time></trkpt><trkpt lat="42.85836011828756" lon="13.332651138999696"><ele>784.0</ele><time>2026-04-19T14:27:07Z</time></trkpt><trkpt lat="42.858482842906305" lon="13.33261562040776"><ele>784.0</ele><time>2026-04-19T14:27:08Z</time></trkpt><trkpt lat="42.85863552871829" lon="13.332605484238531"><ele>784.0</ele><time>2026-04-19T14:27:09Z</time></trkpt><trkpt lat="42.85877220589417" lon="13.332543173697557"><ele>784.0</ele><time>2026-04-19T14:27:10Z</time></trkpt><trkpt lat="42.85885382161043" lon="13.332426231774164"><ele>784.0</ele><time>2026-04-19T14:27:11Z</time></trkpt><trkpt lat="42.858916453269345" lon="13.332266793940029"><ele>787.25</ele><time>2026-04-19T14:27:12Z</time></trkpt><trkpt lat="42.85899313510431" lon="13.332099193358045"><ele>790.5</ele><time>2026-04-19T14:27:13Z</time></trkpt><trkpt lat="42.859090412054385" lon="13.331992796114196"><ele>793.75</ele><time>2026-04-19T14:27:14Z</time></trkpt><trkpt lat="42.85918191304529" lon="13.33191377209733"><ele>797.0</ele><time>2026-04-19T14:27:15Z</time></trkpt><trkpt lat="42.85928763655305" lon="13.331875194997561"><ele>797.0</ele><time>2026-04-19T14:27:16Z</time></trkpt><trkpt lat="42.85941951830727" lon="13.331865644834362"><ele>797.0</ele><time>2026-04-19T14:27:17Z</time></trkpt><trkpt lat="42.85955117008858" lon="13.33186606868305"><ele>797.0</ele><time>2026-04-19T14:27:18Z</time></trkpt><trkpt lat="42.85966216408334" lon="13.331822889904336"><ele>797.0</ele><time>2026-04-19T14:27:19Z</time></trkpt><trkpt lat="42.85973973608664" lon="13.331739041229692"><ele>797.0</ele><time>2026-04-19T14:27:20Z</time></trkpt><trkpt lat="42.85977833623157" lon="13.331615927366528"><ele>797.0</ele><time>2026-04-19T14:27:21Z</time></trkpt><trkpt lat="42.859771343203924" lon="13.331478648690334"><ele>797.0</ele><time>2026-04-19T14:27:22Z</time></trkpt><trkpt lat="42.8597446519497" lon="13.331331321128381"><ele>797.0</ele><time>2026-04-19T14:27:23Z</time></trkpt><trkpt lat="42.859686672407214" lon="13.331178397062784"><ele>797.0</ele><time>2026-04-19T14:27:24Z</time></trkpt><trkpt lat="42.859632519361334" lon="13.331015756197093"><ele>799.5</ele><time>2026-04-19T14:27:25Z</time></trkpt><trkpt lat="42.85962095684197" lon="13.33086813308778"><ele>802.0</ele><time>2026-04-19T14:27:26Z</time></trkpt><trkpt lat="42.85966182461831" lon="13.330704834973762"><ele>804.5</ele><time>2026-04-19T14:27:27Z</time></trkpt><trkpt lat="42.85971795991292" lon="13.330533182112568"><ele>807.0</ele><time>2026-04-19T14:27:28Z</time></trkpt><trkpt lat="42.85973099208678" lon="13.330354665510491"><ele>812.25</ele><time>2026-04-19T14:27:29Z</time></trkpt><trkpt lat="42.8596987527982" lon="13.330181868076288"><ele>817.5</ele><time>2026-04-19T14:27:30Z</time></trkpt><trkpt lat="42.8596722867476" lon="13.33002167185044"><ele>822.75</ele><time>2026-04-19T14:27:31Z</time></trkpt><trkpt lat="42.859710429978854" lon="13.329887590479169"><ele>828.0</ele><time>2026-04-19T14:27:32Z</time></trkpt><trkpt lat="42.85978956574772" lon="13.329758059171116"><ele>831.8</ele><time>2026-04-19T14:27:33Z</time></trkpt><trkpt lat="42.859893770455045" lon="13.329677542176949"><ele>835.5999999999999</ele><time>2026-04-19T14:27:34Z</time></trkpt><trkpt lat="42.86000448593316" lon="13.329653024652243"><ele>839.4000000000001</ele><time>2026-04-19T14:27:35Z</time></trkpt><trkpt lat="42.86009977675791" lon="13.329701988055286"><ele>843.2</ele><time>2026-04-19T14:27:36Z</time></trkpt><trkpt lat="42.86017084882165" lon="13.329820806421376"><ele>847.0</ele><time>2026-04-19T14:27:37Z</time></trkpt><trkpt lat="42.86021412658075" lon="13.33001126669072"><ele>850.3333333333333</ele><time>2026-04-19T14:27:38Z</time></trkpt><trkpt lat="42.860333198092825" lon="13.330153711061627"><ele>853.6666666666667</ele><time>2026-04-19T14:27:39Z</time></trkpt><trkpt lat="42.86046312250155" lon="13.330307632831035"><ele>857.0</ele><time>2026-04-19T14:27:40Z</time></trkpt><trkpt lat="42.86055535952182" lon="13.330513005905244"><ele>856.25</ele><time>2026-04-19T14:27:41Z</time></trkpt><trkpt lat="42.8606541722285" lon="13.330686167020948"><ele>855.5</ele><time>2026-04-19T14:27:42Z</time></trkpt><trkpt lat="42.86073421772751" lon="13.330821497664441"><ele>854.75</ele><time>2026-04-19T14:27:43Z</time></trkpt><trkpt lat="42.86085979067688" lon="13.330901652661298"><ele>854.0</ele><time>2026-04-19T14:27:44Z</time></trkpt><trkpt lat="42.8610223636806" lon="13.33098348071739"><ele>854.0</ele><time>2026-04-19T14:27:45Z</time></trkpt><trkpt lat="42.86119517757963" lon="13.331048227658096"><ele>854.0</ele><time>2026-04-19T14:27:46Z</time></trkpt><trkpt lat="42.86134163579446" lon="13.331098401382215"><ele>854.0</ele><time>2026-04-19T14:27:47Z</time></trkpt><trkpt lat="42.86148369274898" lon="13.331132849381628"><ele>854.0</ele><time>2026-04-19T14:27:48Z</time></trkpt><trkpt lat="42.86159992626552" lon="13.331170502599498"><ele>854.0000000000001</ele><time>2026-04-19T14:27:49Z</time></trkpt><trkpt lat="42.86170607903263" lon="13.331190086658415"><ele>854.0000000000001</ele><time>2026-04-19T14:27:50Z</time></trkpt><trkpt lat="42.861807245239916" lon="13.331185551509796"><ele>854.0</ele><time>2026-04-19T14:27:51Z</time></trkpt><trkpt lat="42.86191493703704" lon="13.331167169017016"><ele>854.0</ele><time>2026-04-19T14:27:52Z</time></trkpt><trkpt lat="42.86203552830946" lon="13.331152400727794"><ele>855.5</ele><time>2026-04-19T14:27:53Z</time></trkpt><trkpt lat="42.862170949431416" lon="13.331172797449625"><ele>857.0</ele><time>2026-04-19T14:27:54Z</time></trkpt><trkpt lat="42.862299703645355" lon="13.331235232490714"><ele>858.5</ele><time>2026-04-19T14:27:55Z</time></trkpt><trkpt lat="42.86239274366488" lon="13.331312332520607"><ele>860.0</ele><time>2026-04-19T14:27:56Z</time></trkpt><trkpt lat="42.862425462187325" lon="13.331394065838902"><ele>860.0</ele><time>2026-04-19T14:27:57Z</time></trkpt><trkpt lat="42.86241589436502" lon="13.331491595756018"><ele>860.0</ele><time>2026-04-19T14:27:58Z</time></trkpt><trkpt lat="42.86236615987874" lon="13.331575621064388"><ele>860.0</ele><time>2026-04-19T14:27:59Z</time></trkpt><trkpt lat="42.86226233541413" lon="13.331583624154355"><ele>860.0</ele><time>2026-04-19T14:28:00Z</time></trkpt><trkpt lat="42.86214555744106" lon="13.331631529329085"><ele>860.0</ele><time>2026-04-19T14:28:01Z</time></trkpt><trkpt lat="42.86203794482755" lon="13.331714190928114"><ele>860.0</ele><time>2026-04-19T14:28:02Z</time></trkpt><trkpt lat="42.861925891054355" lon="13.331791029715008"><ele>860.0</ele><time>2026-04-19T14:28:03Z</time></trkpt><trkpt lat="42.86182697120471" lon="13.331885081016985"><ele>860.0</ele><time>2026-04-19T14:28:04Z</time></trkpt><trkpt lat="42.861745542971065" lon="13.33197062800782"><ele>860.0</ele><time>2026-04-19T14:28:05Z</time></trkpt><trkpt lat="42.86167339760012" lon="13.332045283385723"><ele>860.0</ele><time>2026-04-19T14:28:06Z</time></trkpt><trkpt lat="42.86165287900772" lon="13.332159375409391"><ele>861.3333333333334</ele><time>2026-04-19T14:28:07Z</time></trkpt><trkpt lat="42.861644627086086" lon="13.332257730196169"><ele>862.6666666666667</ele><time>2026-04-19T14:28:08Z</time></trkpt><trkpt lat="42.861658858187496" lon="13.33235946859982"><ele>864.0</ele><time>2026-04-19T14:28:08.999Z</time></trkpt><trkpt lat="42.86168878183629" lon="13.332463448427209"><ele>865.3333333333333</ele><time>2026-04-19T14:28:09.999Z</time></trkpt><trkpt lat="42.861731585623865" lon="13.332572874861969"><ele>866.6666666666666</ele><time>2026-04-19T14:28:10.999Z</time></trkpt><trkpt lat="42.86178479660588" lon="13.332682582375355"><ele>868.0</ele><time>2026-04-19T14:28:11.999Z</time></trkpt><trkpt lat="42.86184916938159" lon="13.332795501425046"><ele>868.0</ele><time>2026-04-19T14:28:12.999Z</time></trkpt><trkpt lat="42.86189755044336" lon="13.33292631418508"><ele>868.0</ele><time>2026-04-19T14:28:13.999Z</time></trkpt><trkpt lat="42.86197858478588" lon="13.333028873794614"><ele>868.0</ele><time>2026-04-19T14:28:14.999Z</time></trkpt><trkpt lat="42.86205062667303" lon="13.333111201974848"><ele>868.0</ele><time>2026-04-19T14:28:15.999Z</time></trkpt><trkpt lat="42.86215058226775" lon="13.333152866653675"><ele>868.0</ele><time>2026-04-19T14:28:16.999Z</time></trkpt><trkpt lat="42.862273553038705" lon="13.333153763855723"><ele>863.0</ele><time>2026-04-19T14:28:17.999Z</time></trkpt><trkpt lat="42.86241498544485" lon="13.333125386044689"><ele>858.0</ele><time>2026-04-19T14:28:18.999Z</time></trkpt><trkpt lat="42.862590184100334" lon="13.333103269418089"><ele>853.0</ele><time>2026-04-19T14:28:19.999Z</time></trkpt><trkpt lat="42.86278107636612" lon="13.333102195071055"><ele>853.0</ele><time>2026-04-19T14:28:20.999Z</time></trkpt><trkpt lat="42.86297334583467" lon="13.333133522945493"><ele>853.0</ele><time>2026-04-19T14:28:21.999Z</time></trkpt><trkpt lat="42.86315503648601" lon="13.333168548950306"><ele>853.0</ele><time>2026-04-19T14:28:22.999Z</time></trkpt><trkpt lat="42.863339585201416" lon="13.333172821832973"><ele>855.0</ele><time>2026-04-19T14:28:23.999Z</time></trkpt><trkpt lat="42.86350513698751" lon="13.333156106634064"><ele>857.0</ele><time>2026-04-19T14:28:24.999Z</time></trkpt><trkpt lat="42.86366104089886" lon="13.333124425135557"><ele>859.0</ele><time>2026-04-19T14:28:25.999Z</time></trkpt><trkpt lat="42.86381342089763" lon="13.333099247917191"><ele>859.0</ele><time>2026-04-19T14:28:26.999Z</time></trkpt><trkpt lat="42.863962793993366" lon="13.33309460481836"><ele>859.0</ele><time>2026-04-19T14:28:27.999Z</time></trkpt><trkpt lat="42.86410131494578" lon="13.333125881926778"><ele>859.0</ele><time>2026-04-19T14:28:28.999Z</time></trkpt><trkpt lat="42.86422302147237" lon="13.333126051315897"><ele>859.0</ele><time>2026-04-19T14:28:29.999Z</time></trkpt><trkpt lat="42.86434267077035" lon="13.333056674269608"><ele>869.25</ele><time>2026-04-19T14:28:30.999Z</time></trkpt><trkpt lat="42.86445735369732" lon="13.332931256037796"><ele>879.5</ele><time>2026-04-19T14:28:31.999Z</time></trkpt><trkpt lat="42.86457993390732" lon="13.332820047451413"><ele>889.75</ele><time>2026-04-19T14:28:32.999Z</time></trkpt><trkpt lat="42.86470596120813" lon="13.33277288221634"><ele>900.0</ele><time>2026-04-19T14:28:33.999Z</time></trkpt><trkpt lat="42.86481414538322" lon="13.33277967737018"><ele>900.0</ele><time>2026-04-19T14:28:35Z</time></trkpt><trkpt lat="42.864901973594314" lon="13.33284790598269"><ele>900.0</ele><time>2026-04-19T14:28:36Z</time></trkpt><trkpt lat="42.86495775501418" lon="13.332995836741008"><ele>900.0</ele><time>2026-04-19T14:28:37Z</time></trkpt><trkpt lat="42.86499702429017" lon="13.333169236282952"><ele>900.0</ele><time>2026-04-19T14:28:38Z</time></trkpt><trkpt lat="42.8650674244541" lon="13.333332135078937"><ele>899.0</ele><time>2026-04-19T14:28:39Z</time></trkpt><trkpt lat="42.86514761061232" lon="13.333427612178111"><ele>898.0</ele><time>2026-04-19T14:28:40Z</time></trkpt><trkpt lat="42.865261942229075" lon="13.33346793365022"><ele>897.0</ele><time>2026-04-19T14:28:41Z</time></trkpt><trkpt lat="42.86541412491456" lon="13.333483155432377"><ele>896.0</ele><time>2026-04-19T14:28:42Z</time></trkpt><trkpt lat="42.865559618166756" lon="13.333564351856438"><ele>896.0</ele><time>2026-04-19T14:28:43Z</time></trkpt><trkpt lat="42.86566088903246" lon="13.333695567249904"><ele>896.0</ele><time>2026-04-19T14:28:44Z</time></trkpt><trkpt lat="42.86578073604843" lon="13.333783911908231"><ele>896.0</ele><time>2026-04-19T14:28:45Z</time></trkpt><trkpt lat="42.86591003659239" lon="13.333824148773894"><ele>896.0</ele><time>2026-04-19T14:28:46Z</time></trkpt><trkpt lat="42.866055503425244" lon="13.333822613204305"><ele>900.75</ele><time>2026-04-19T14:28:47Z</time></trkpt><trkpt lat="42.86615515580737" lon="13.333878030394487"><ele>905.5</ele><time>2026-04-19T14:28:48Z</time></trkpt><trkpt lat="42.86621815987694" lon="13.333963613455094"><ele>910.25</ele><time>2026-04-19T14:28:49Z</time></trkpt><trkpt lat="42.866210295158965" lon="13.334146566637404"><ele>915.0</ele><time>2026-04-19T14:28:50Z</time></trkpt><trkpt lat="42.866171995443615" lon="13.334347891952007"><ele>915.0</ele><time>2026-04-19T14:28:51Z</time></trkpt><trkpt lat="42.86615003492911" lon="13.334561863888403"><ele>915.0</ele><time>2026-04-19T14:28:52Z</time></trkpt><trkpt lat="42.86610951761665" lon="13.334710002893882"><ele>915.0</ele><time>2026-04-19T14:28:53Z</time></trkpt><trkpt lat="42.866046131724296" lon="13.334814099432508"><ele>915.0</ele><time>2026-04-19T14:28:54Z</time></trkpt><trkpt lat="42.86595151438129" lon="13.334847639444625"><ele>909.0</ele><time>2026-04-19T14:28:55Z</time></trkpt><trkpt lat="42.8658391083363" lon="13.334917325150572"><ele>903.0</ele><time>2026-04-19T14:28:56Z</time></trkpt><trkpt lat="42.865729591040356" lon="13.335027500067396"><ele>897.0</ele><time>2026-04-19T14:28:57Z</time></trkpt><trkpt lat="42.865679392113" lon="13.335249221171088"><ele>891.0</ele><time>2026-04-19T14:28:58Z</time></trkpt><trkpt lat="42.865632018222385" lon="13.335501006141603"><ele>897.0</ele><time>2026-04-19T14:28:59Z</time></trkpt><trkpt lat="42.8655616542422" lon="13.335730376583019"><ele>903.0</ele><time>2026-04-19T14:29:00Z</time></trkpt><trkpt lat="42.86551129374608" lon="13.335874654872695"><ele>909.0</ele><time>2026-04-19T14:29:01Z</time></trkpt><trkpt lat="42.865454196032786" lon="13.336018253827925"><ele>915.0</ele><time>2026-04-19T14:29:02Z</time></trkpt><trkpt lat="42.86533726135627" lon="13.336109995102639"><ele>915.0</ele><time>2026-04-19T14:29:03Z</time></trkpt><trkpt lat="42.86522110911236" lon="13.336160799061886"><ele>915.0</ele><time>2026-04-19T14:29:04Z</time></trkpt><trkpt lat="42.86508520750266" lon="13.336154043162828"><ele>915.0</ele><time>2026-04-19T14:29:05Z</time></trkpt><trkpt lat="42.86495535158604" lon="13.336206897555522"><ele>915.0</ele><time>2026-04-19T14:29:06Z</time></trkpt><trkpt lat="42.86486430590933" lon="13.336321646908857"><ele>914.75</ele><time>2026-04-19T14:29:07Z</time></trkpt><trkpt lat="42.864829580214824" lon="13.336465690152442"><ele>914.5</ele><time>2026-04-19T14:29:08Z</time></trkpt><trkpt lat="42.86478021764613" lon="13.336622879223356"><ele>914.25</ele><time>2026-04-19T14:29:09Z</time></trkpt><trkpt lat="42.86471872830631" lon="13.336811169130282"><ele>914.0</ele><time>2026-04-19T14:29:10Z</time></trkpt><trkpt lat="42.864627876962004" lon="13.336969140907632"><ele>914.0</ele><time>2026-04-19T14:29:11Z</time></trkpt><trkpt lat="42.86450775980031" lon="13.337060656935705"><ele>914.0</ele><time>2026-04-19T14:29:12Z</time></trkpt><trkpt lat="42.86437652201992" lon="13.337092074460054"><ele>914.0</ele><time>2026-04-19T14:29:13Z</time></trkpt><trkpt lat="42.86424854209691" lon="13.337169209871904"><ele>914.0</ele><time>2026-04-19T14:29:14Z</time></trkpt><trkpt lat="42.864128857716146" lon="13.337260052809052"><ele>914.3333333333334</ele><time>2026-04-19T14:29:15Z</time></trkpt><trkpt lat="42.86402392993006" lon="13.337455667765402"><ele>914.6666666666667</ele><time>2026-04-19T14:29:16Z</time></trkpt><trkpt lat="42.863917870574475" lon="13.337657929561104"><ele>915.0</ele><time>2026-04-19T14:29:17Z</time></trkpt><trkpt lat="42.863807879887766" lon="13.337808617748676"><ele>915.0</ele><time>2026-04-19T14:29:18Z</time></trkpt><trkpt lat="42.86371212204765" lon="13.337955204136929"><ele>915.0</ele><time>2026-04-19T14:29:19Z</time></trkpt><trkpt lat="42.863683483405126" lon="13.338112589633788"><ele>915.0</ele><time>2026-04-19T14:29:20Z</time></trkpt><trkpt lat="42.8636784197608" lon="13.33829926367037"><ele>915.0</ele><time>2026-04-19T14:29:21Z</time></trkpt><trkpt lat="42.863706207222414" lon="13.338527552204408"><ele>922.0</ele><time>2026-04-19T14:29:22Z</time></trkpt><trkpt lat="42.86372763379395" lon="13.33874969952967"><ele>929.0</ele><time>2026-04-19T14:29:23Z</time></trkpt><trkpt lat="42.86370253558932" lon="13.339007773126747"><ele>936.0</ele><time>2026-04-19T14:29:24Z</time></trkpt><trkpt lat="42.863673935936056" lon="13.339212495462252"><ele>937.0</ele><time>2026-04-19T14:29:25Z</time></trkpt><trkpt lat="42.86365459609158" lon="13.33934907242001"><ele>938.0</ele><time>2026-04-19T14:29:26Z</time></trkpt><trkpt lat="42.8636868369683" lon="13.33953630471633"><ele>939.0</ele><time>2026-04-19T14:29:27Z</time></trkpt><trkpt lat="42.86376920013021" lon="13.339675292772169"><ele>940.0</ele><time>2026-04-19T14:29:28Z</time></trkpt><trkpt lat="42.863846660671065" lon="13.339780209812183"><ele>944.25</ele><time>2026-04-19T14:29:29Z</time></trkpt><trkpt lat="42.86393672735387" lon="13.339830809474615"><ele>948.5</ele><time>2026-04-19T14:29:30Z</time></trkpt><trkpt lat="42.86404343915664" lon="13.339824122846391"><ele>952.75</ele><time>2026-04-19T14:29:31Z</time></trkpt><trkpt lat="42.86416957867316" lon="13.339771875756998"><ele>957.0</ele><time>2026-04-19T14:29:32Z</time></trkpt><trkpt lat="42.86431399499909" lon="13.339712522000983"><ele>957.0</ele><time>2026-04-19T14:29:33Z</time></trkpt><trkpt lat="42.864469994072444" lon="13.339689213122305"><ele>957.0</ele><time>2026-04-19T14:29:34Z</time></trkpt><trkpt lat="42.864646179454006" lon="13.339727363694951"><ele>957.0</ele><time>2026-04-19T14:29:35Z</time></trkpt><trkpt lat="42.86482994655777" lon="13.339741395022198"><ele>957.0</ele><time>2026-04-19T14:29:36Z</time></trkpt><trkpt lat="42.86498448126105" lon="13.33971588178352"><ele>957.0</ele><time>2026-04-19T14:29:37Z</time></trkpt><trkpt lat="42.86512092053388" lon="13.339631209199151"><ele>957.0</ele><time>2026-04-19T14:29:38Z</time></trkpt><trkpt lat="42.86527056623744" lon="13.339488857739378"><ele>950.3333333333333</ele><time>2026-04-19T14:29:39Z</time></trkpt><trkpt lat="42.86542765436046" lon="13.339315542341843"><ele>943.6666666666666</ele><time>2026-04-19T14:29:40Z</time></trkpt><trkpt lat="42.86557287258904" lon="13.33913666095767"><ele>937.0</ele><time>2026-04-19T14:29:41Z</time></trkpt><trkpt lat="42.86573306986628" lon="13.338970136677897"><ele>944.0</ele><time>2026-04-19T14:29:42Z</time></trkpt><trkpt lat="42.86592266026187" lon="13.33881913010391"><ele>951.0</ele><time>2026-04-19T14:29:43Z</time></trkpt><trkpt lat="42.866106909291126" lon="13.338682888211917"><ele>958.0</ele><time>2026-04-19T14:29:44Z</time></trkpt><trkpt lat="42.866289795544716" lon="13.338557598953852"><ele>958.0</ele><time>2026-04-19T14:29:45Z</time></trkpt><trkpt lat="42.86645773859448" lon="13.338448151110475"><ele>958.0</ele><time>2026-04-19T14:29:46Z</time></trkpt><trkpt lat="42.86663262570252" lon="13.338367240422361"><ele>958.0</ele><time>2026-04-19T14:29:46.999Z</time></trkpt><trkpt lat="42.86683948817943" lon="13.338322069593811"><ele>956.6666666666666</ele><time>2026-04-19T14:29:47.999Z</time></trkpt><trkpt lat="42.86704054330276" lon="13.338337803370704"><ele>955.3333333333333</ele><time>2026-04-19T14:29:48.999Z</time></trkpt><trkpt lat="42.86724534019389" lon="13.33837523067668"><ele>954.0</ele><time>2026-04-19T14:29:49.999Z</time></trkpt><trkpt lat="42.86747723542807" lon="13.33840410965613"><ele>955.6666666666667</ele><time>2026-04-19T14:29:50.999Z</time></trkpt><trkpt lat="42.86769738775487" lon="13.338455433788015"><ele>957.3333333333334</ele><time>2026-04-19T14:29:51.999Z</time></trkpt><trkpt lat="42.8678956862982" lon="13.338497618524595"><ele>959.0</ele><time>2026-04-19T14:29:52.999Z</time></trkpt><trkpt lat="42.86807317353127" lon="13.33857460225282"><ele>959.0</ele><time>2026-04-19T14:29:53.999Z</time></trkpt><trkpt lat="42.86823430489811" lon="13.338665193496322"><ele>959.0</ele><time>2026-04-19T14:29:54.999Z</time></trkpt><trkpt lat="42.86836713727606" lon="13.338752745238024"><ele>959.0</ele><time>2026-04-19T14:29:55.999Z</time></trkpt><trkpt lat="42.868476075433016" lon="13.338816805532494"><ele>959.0</ele><time>2026-04-19T14:29:56.999Z</time></trkpt><trkpt lat="42.86854054747323" lon="13.338877030992057"><ele>956.2</ele><time>2026-04-19T14:29:57.999Z</time></trkpt><trkpt lat="42.86863917145204" lon="13.338882479314616"><ele>953.4000000000001</ele><time>2026-04-19T14:29:59.999Z</time></trkpt><trkpt lat="42.8686987060433" lon="13.338824296713165"><ele>950.6</ele><time>2026-04-19T14:30:00.999Z</time></trkpt><trkpt lat="42.86876691446604" lon="13.338702103157125"><ele>947.8</ele><time>2026-04-19T14:30:01.999Z</time></trkpt><trkpt lat="42.86885588572984" lon="13.33854473933154"><ele>945.0</ele><time>2026-04-19T14:30:02.999Z</time></trkpt><trkpt lat="42.86896852972704" lon="13.338363621464717"><ele>945.0</ele><time>2026-04-19T14:30:03.999Z</time></trkpt><trkpt lat="42.86910272762712" lon="13.338207736160586"><ele>945.0</ele><time>2026-04-19T14:30:04.999Z</time></trkpt><trkpt lat="42.86927491323557" lon="13.338088427954734"><ele>945.0</ele><time>2026-04-19T14:30:05.999Z</time></trkpt><trkpt lat="42.8694885420978" lon="13.337987334741651"><ele>947.5</ele><time>2026-04-19T14:30:06.999Z</time></trkpt><trkpt lat="42.86973245706869" lon="13.337905807206951"><ele>950.0</ele><time>2026-04-19T14:30:07.999Z</time></trkpt><trkpt lat="42.86997777807191" lon="13.337838350112499"><ele>944.0</ele><time>2026-04-19T14:30:08.999Z</time></trkpt><trkpt lat="42.870200154122614" lon="13.337779488417482"><ele>938.0</ele><time>2026-04-19T14:30:09.999Z</time></trkpt><trkpt lat="42.87039051130387" lon="13.337734923551979"><ele>932.0</ele><time>2026-04-19T14:30:10.999Z</time></trkpt><trkpt lat="42.87054295341245" lon="13.337693674932167"><ele>932.0</ele><time>2026-04-19T14:30:11.999Z</time></trkpt><trkpt lat="42.8706530879735" lon="13.337636496856668"><ele>932.0</ele><time>2026-04-19T14:30:12.999Z</time></trkpt><trkpt lat="42.87071352325487" lon="13.337558162885047"><ele>932.0</ele><time>2026-04-19T14:30:13.999Z</time></trkpt><trkpt lat="42.870736729780674" lon="13.33746004060731"><ele>932.0</ele><time>2026-04-19T14:30:14.999Z</time></trkpt><trkpt lat="42.87071655516388" lon="13.337356870369584"><ele>932.0</ele><time>2026-04-19T14:30:15.999Z</time></trkpt><trkpt lat="42.870653462619146" lon="13.337255265246917"><ele>927.25</ele><time>2026-04-19T14:30:16.999Z</time></trkpt><trkpt lat="42.87054467470963" lon="13.337170448676314"><ele>922.5</ele><time>2026-04-19T14:30:17.999Z</time></trkpt><trkpt lat="42.870398271484035" lon="13.337083816458405"><ele>917.75</ele><time>2026-04-19T14:30:18.999Z</time></trkpt><trkpt lat="42.870255323465585" lon="13.336981192284295"><ele>913.0</ele><time>2026-04-19T14:30:19.999Z</time></trkpt><trkpt lat="42.870143507382046" lon="13.336895325429884"><ele>920.0</ele><time>2026-04-19T14:30:20.999Z</time></trkpt><trkpt lat="42.87003310091533" lon="13.336818849235614"><ele>927.0</ele><time>2026-04-19T14:30:21.999Z</time></trkpt><trkpt lat="42.86993207950465" lon="13.336737483417076"><ele>934.0</ele><time>2026-04-19T14:30:22.999Z</time></trkpt><trkpt lat="42.86985569531794" lon="13.336629532031997"><ele>941.0</ele><time>2026-04-19T14:30:23.999Z</time></trkpt><trkpt lat="42.86978023234942" lon="13.336532024896066"><ele>941.0</ele><time>2026-04-19T14:30:24.999Z</time></trkpt><trkpt lat="42.86973043968817" lon="13.33639457914573"><ele>941.0</ele><time>2026-04-19T14:30:25.999Z</time></trkpt><trkpt lat="42.869710077609604" lon="13.336246891592577"><ele>941.0</ele><time>2026-04-19T14:30:26.999Z</time></trkpt><trkpt lat="42.86971893401243" lon="13.336076094242715"><ele>941.0</ele><time>2026-04-19T14:30:27.999Z</time></trkpt><trkpt lat="42.86975964155513" lon="13.33589574626608"><ele>936.5</ele><time>2026-04-19T14:30:28.999Z</time></trkpt><trkpt lat="42.86979333534194" lon="13.335713548895441"><ele>932.0</ele><time>2026-04-19T14:30:29.999Z</time></trkpt><trkpt lat="42.86977766374533" lon="13.335537710908566"><ele>927.5</ele><time>2026-04-19T14:30:30.999Z</time></trkpt><trkpt lat="42.86971700227945" lon="13.335390690556526"><ele>923.0</ele><time>2026-04-19T14:30:31.999Z</time></trkpt><trkpt lat="42.869639965458624" lon="13.33526293961127"><ele>923.0</ele><time>2026-04-19T14:30:32.999Z</time></trkpt><trkpt lat="42.869614122256635" lon="13.335119925437509"><ele>923.0</ele><time>2026-04-19T14:30:33.999Z</time></trkpt><trkpt lat="42.86962203813668" lon="13.334972882657446"><ele>923.0</ele><time>2026-04-19T14:30:34.999Z</time></trkpt><trkpt lat="42.869657254735316" lon="13.334838243821464"><ele>923.0</ele><time>2026-04-19T14:30:35.999Z</time></trkpt><trkpt lat="42.86973566842575" lon="13.33473703363762"><ele>923.0</ele><time>2026-04-19T14:30:36.999Z</time></trkpt><trkpt lat="42.86985579340424" lon="13.334671267297596"><ele>919.75</ele><time>2026-04-19T14:30:37.999Z</time></trkpt><trkpt lat="42.8699933026446" lon="13.334612222686587"><ele>916.5</ele><time>2026-04-19T14:30:38.999Z</time></trkpt><trkpt lat="42.87012284706184" lon="13.334506877205632"><ele>913.25</ele><time>2026-04-19T14:30:39.999Z</time></trkpt><trkpt lat="42.87021840153175" lon="13.334354401574013"><ele>910.0</ele><time>2026-04-19T14:30:41Z</time></trkpt><trkpt lat="42.87030912348772" lon="13.334216134504965"><ele>910.0</ele><time>2026-04-19T14:30:42Z</time></trkpt><trkpt lat="42.87043282903512" lon="13.334122632167578"><ele>910.0</ele><time>2026-04-19T14:30:43Z</time></trkpt><trkpt lat="42.870582334167885" lon="13.334087556783974"><ele>910.0</ele><time>2026-04-19T14:30:44Z</time></trkpt><trkpt lat="42.87071584437472" lon="13.334047533552146"><ele>910.0</ele><time>2026-04-19T14:30:45Z</time></trkpt><trkpt lat="42.870811562186496" lon="13.3339516122649"><ele>910.5</ele><time>2026-04-19T14:30:46Z</time></trkpt><trkpt lat="42.870868789900676" lon="13.333797111377365"><ele>911.0</ele><time>2026-04-19T14:30:47Z</time></trkpt><trkpt lat="42.8709167644476" lon="13.33361611380594"><ele>911.5</ele><time>2026-04-19T14:30:48Z</time></trkpt><trkpt lat="42.87097435066691" lon="13.333473783330575"><ele>912.0</ele><time>2026-04-19T14:30:49Z</time></trkpt><trkpt lat="42.871060997208524" lon="13.333370663959704"><ele>912.0</ele><time>2026-04-19T14:30:50Z</time></trkpt><trkpt lat="42.87118070647375" lon="13.333296253028106"><ele>912.0</ele><time>2026-04-19T14:30:51Z</time></trkpt><trkpt lat="42.871337584571144" lon="13.333236772173475"><ele>912.0</ele><time>2026-04-19T14:30:52Z</time></trkpt><trkpt lat="42.87151475076831" lon="13.333158776390073"><ele>912.0</ele><time>2026-04-19T14:30:53Z</time></trkpt><trkpt lat="42.87167213914489" lon="13.333081241981382"><ele>912.0</ele><time>2026-04-19T14:30:54Z</time></trkpt><trkpt lat="42.87181631682198" lon="13.333026625815974"><ele>912.0</ele><time>2026-04-19T14:30:55Z</time></trkpt><trkpt lat="42.87196667702472" lon="13.333031191900133"><ele>912.3333333333333</ele><time>2026-04-19T14:30:56Z</time></trkpt><trkpt lat="42.87212102209136" lon="13.333120242198326"><ele>912.6666666666666</ele><time>2026-04-19T14:30:57Z</time></trkpt><trkpt lat="42.87229074314816" lon="13.333203299164898"><ele>913.0</ele><time>2026-04-19T14:30:58Z</time></trkpt><trkpt lat="42.872451850661626" lon="13.333343851051755"><ele>913.0</ele><time>2026-04-19T14:30:59Z</time></trkpt><trkpt lat="42.87259030773207" lon="13.333483320243905"><ele>913.0</ele><time>2026-04-19T14:31:00Z</time></trkpt><trkpt lat="42.87271609766952" lon="13.333582226989774"><ele>913.0</ele><time>2026-04-19T14:31:01Z</time></trkpt><trkpt lat="42.87284024506103" lon="13.333624215948547"><ele>913.0</ele><time>2026-04-19T14:31:02Z</time></trkpt><trkpt lat="42.87295294547568" lon="13.333599783265687"><ele>909.0</ele><time>2026-04-19T14:31:03Z</time></trkpt><trkpt lat="42.8730658225409" lon="13.33351214713986"><ele>905.0</ele><time>2026-04-19T14:31:04Z</time></trkpt><trkpt lat="42.87318666342276" lon="13.333379925745943"><ele>901.0</ele><time>2026-04-19T14:31:05Z</time></trkpt><trkpt lat="42.87332531572637" lon="13.333240627261427"><ele>896.0</ele><time>2026-04-19T14:31:06Z</time></trkpt><trkpt lat="42.87350282931829" lon="13.333132632458932"><ele>891.0</ele><time>2026-04-19T14:31:07Z</time></trkpt><trkpt lat="42.87369685614438" lon="13.333080889352168"><ele>886.0</ele><time>2026-04-19T14:31:08Z</time></trkpt><trkpt lat="42.873889419185076" lon="13.333066823532292"><ele>886.0</ele><time>2026-04-19T14:31:09Z</time></trkpt><trkpt lat="42.874093939823936" lon="13.333067103210462"><ele>886.0</ele><time>2026-04-19T14:31:10Z</time></trkpt><trkpt lat="42.87431504927979" lon="13.333074273833713"><ele>886.0</ele><time>2026-04-19T14:31:11Z</time></trkpt><trkpt lat="42.87452103151906" lon="13.333071851487036"><ele>885.3333333333333</ele><time>2026-04-19T14:31:12Z</time></trkpt><trkpt lat="42.87470696694251" lon="13.333047156632793"><ele>884.6666666666667</ele><time>2026-04-19T14:31:13Z</time></trkpt><trkpt lat="42.87487050760024" lon="13.33303875017187"><ele>884.0</ele><time>2026-04-19T14:31:14Z</time></trkpt><trkpt lat="42.875031611710405" lon="13.333087290104258"><ele>885.0</ele><time>2026-04-19T14:31:15Z</time></trkpt><trkpt lat="42.87519469342619" lon="13.333198405869059"><ele>886.0</ele><time>2026-04-19T14:31:16Z</time></trkpt><trkpt lat="42.87537122715588" lon="13.333343520803536"><ele>887.0</ele><time>2026-04-19T14:31:17Z</time></trkpt><trkpt lat="42.875533657190836" lon="13.333479313279737"><ele>887.0</ele><time>2026-04-19T14:31:18Z</time></trkpt><trkpt lat="42.875678178558346" lon="13.333586948979093"><ele>887.0</ele><time>2026-04-19T14:31:19Z</time></trkpt><trkpt lat="42.87580762464479" lon="13.333655919318817"><ele>887.0</ele><time>2026-04-19T14:31:20Z</time></trkpt><trkpt lat="42.87593058739389" lon="13.33367268287061"><ele>887.0</ele><time>2026-04-19T14:31:21Z</time></trkpt><trkpt lat="42.876032881825665" lon="13.333626258917917"><ele>880.75</ele><time>2026-04-19T14:31:22Z</time></trkpt><trkpt lat="42.8761083009393" lon="13.333526674089336"><ele>874.5</ele><time>2026-04-19T14:31:23Z</time></trkpt><trkpt lat="42.87617905853668" lon="13.333379115426908"><ele>868.25</ele><time>2026-04-19T14:31:24Z</time></trkpt><trkpt lat="42.87626448516995" lon="13.333200044446382"><ele>862.0</ele><time>2026-04-19T14:31:25Z</time></trkpt><trkpt lat="42.876418320217134" lon="13.333075460697135"><ele>857.6666666666666</ele><time>2026-04-19T14:31:26Z</time></trkpt><trkpt lat="42.876575554640034" lon="13.332954488527708"><ele>853.3333333333333</ele><time>2026-04-19T14:31:27Z</time></trkpt><trkpt lat="42.876743027970825" lon="13.332896321314204"><ele>849.0</ele><time>2026-04-19T14:31:28Z</time></trkpt><trkpt lat="42.87690573089307" lon="13.332873561001179"><ele>849.0</ele><time>2026-04-19T14:31:29Z</time></trkpt><trkpt lat="42.87704797979909" lon="13.332914260584113"><ele>849.0</ele><time>2026-04-19T14:31:30Z</time></trkpt><trkpt lat="42.8771604416316" lon="13.33292607581562"><ele>849.0</ele><time>2026-04-19T14:31:31Z</time></trkpt><trkpt lat="42.8772421174166" lon="13.332914374470883"><ele>849.0</ele><time>2026-04-19T14:31:32Z</time></trkpt><trkpt lat="42.877305565316504" lon="13.332856293210927"><ele>849.0</ele><time>2026-04-19T14:31:33Z</time></trkpt><trkpt lat="42.87733588460022" lon="13.332750755058957"><ele>849.0</ele><time>2026-04-19T14:31:34Z</time></trkpt><trkpt lat="42.877330160462556" lon="13.332612931317733"><ele>849.0</ele><time>2026-04-19T14:31:35Z</time></trkpt><trkpt lat="42.877292512235876" lon="13.332467573792409"><ele>849.0</ele><time>2026-04-19T14:31:36Z</time></trkpt><trkpt lat="42.87725728714803" lon="13.332310171390523"><ele>849.0</ele><time>2026-04-19T14:31:37Z</time></trkpt><trkpt lat="42.877193386347265" lon="13.332130331332303"><ele>844.3333333333333</ele><time>2026-04-19T14:31:38Z</time></trkpt><trkpt lat="42.87713719320039" lon="13.331920808849379"><ele>839.6666666666666</ele><time>2026-04-19T14:31:39Z</time></trkpt><trkpt lat="42.87707499310344" lon="13.331703228189625"><ele>835.0</ele><time>2026-04-19T14:31:40Z</time></trkpt><trkpt lat="42.876969419942405" lon="13.331457658027889"><ele>830.0</ele><time>2026-04-19T14:31:41Z</time></trkpt><trkpt lat="42.87686127562123" lon="13.331203038239467"><ele>825.0</ele><time>2026-04-19T14:31:42Z</time></trkpt><trkpt lat="42.87675696828232" lon="13.330965285304664"><ele>820.0</ele><time>2026-04-19T14:31:43Z</time></trkpt><trkpt lat="42.87665445795927" lon="13.3307413732185"><ele>825.3333333333333</ele><time>2026-04-19T14:31:44Z</time></trkpt><trkpt lat="42.876556947213814" lon="13.330531663702264"><ele>830.6666666666667</ele><time>2026-04-19T14:31:45Z</time></trkpt><trkpt lat="42.87647239249936" lon="13.330319920678921"><ele>836.0</ele><time>2026-04-19T14:31:46Z</time></trkpt><trkpt lat="42.87637124456743" lon="13.330128265439873"><ele>836.0</ele><time>2026-04-19T14:31:47Z</time></trkpt><trkpt lat="42.87622919026547" lon="13.329937850974625"><ele>836.0</ele><time>2026-04-19T14:31:48Z</time></trkpt><trkpt lat="42.87602177336946" lon="13.329759409656731"><ele>836.0</ele><time>2026-04-19T14:31:49Z</time></trkpt><trkpt lat="42.87580954229018" lon="13.329602912256464"><ele>834.6666666666667</ele><time>2026-04-19T14:31:50Z</time></trkpt><trkpt lat="42.87566052658481" lon="13.32943111806068"><ele>833.3333333333333</ele><time>2026-04-19T14:31:51Z</time></trkpt><trkpt lat="42.87553765637968" lon="13.329289538724094"><ele>832.0</ele><time>2026-04-19T14:31:52Z</time></trkpt><trkpt lat="42.875434847472384" lon="13.329116621322063"><ele>832.0</ele><time>2026-04-19T14:31:53Z</time></trkpt><trkpt lat="42.87536631813395" lon="13.32890957457865"><ele>832.0</ele><time>2026-04-19T14:31:54Z</time></trkpt><trkpt lat="42.875328916748884" lon="13.328682399642261"><ele>832.0</ele><time>2026-04-19T14:31:55Z</time></trkpt><trkpt lat="42.87531606995386" lon="13.328435183860936"><ele>826.6666666666666</ele><time>2026-04-19T14:31:56Z</time></trkpt><trkpt lat="42.87533210934454" lon="13.32815002044067"><ele>821.3333333333333</ele><time>2026-04-19T14:31:57Z</time></trkpt><trkpt lat="42.8753623712247" lon="13.327863223485043"><ele>816.0</ele><time>2026-04-19T14:31:58Z</time></trkpt><trkpt lat="42.875374314338764" lon="13.327667381352951"><ele>813.5</ele><time>2026-04-19T14:31:59Z</time></trkpt><trkpt lat="42.875395365472514" lon="13.327483883236422"><ele>811.0</ele><time>2026-04-19T14:32:00Z</time></trkpt><trkpt lat="42.87539064257937" lon="13.327317048489444"><ele>808.5</ele><time>2026-04-19T14:32:01Z</time></trkpt><trkpt lat="42.875324401833716" lon="13.327188519454946"><ele>806.0</ele><time>2026-04-19T14:32:02Z</time></trkpt><trkpt lat="42.87520923679252" lon="13.327052002569479"><ele>808.3333333333334</ele><time>2026-04-19T14:32:02.999Z</time></trkpt><trkpt lat="42.87505926173878" lon="13.326923473909767"><ele>810.6666666666667</ele><time>2026-04-19T14:32:03.999Z</time></trkpt><trkpt lat="42.87490147125106" lon="13.326805731775687"><ele>813.0</ele><time>2026-04-19T14:32:04.999Z</time></trkpt><trkpt lat="42.87475593763557" lon="13.326636115131882"><ele>813.0</ele><time>2026-04-19T14:32:05.999Z</time></trkpt><trkpt lat="42.874612670118644" lon="13.326452574513013"><ele>813.0</ele><time>2026-04-19T14:32:06.999Z</time></trkpt><trkpt lat="42.874465465103256" lon="13.32627811556042"><ele>813.0</ele><time>2026-04-19T14:32:07.999Z</time></trkpt><trkpt lat="42.87432068451635" lon="13.326141109805475"><ele>811.3333333333333</ele><time>2026-04-19T14:32:08.999Z</time></trkpt><trkpt lat="42.874186682055154" lon="13.325995943639585"><ele>809.6666666666666</ele><time>2026-04-19T14:32:09.999Z</time></trkpt><trkpt lat="42.87405547359151" lon="13.32585852494993"><ele>808.0</ele><time>2026-04-19T14:32:10.999Z</time></trkpt><trkpt lat="42.87392818416636" lon="13.325732515443592"><ele>808.0</ele><time>2026-04-19T14:32:11.999Z</time></trkpt><trkpt lat="42.87379014200882" lon="13.325633153467495"><ele>808.0</ele><time>2026-04-19T14:32:12.999Z</time></trkpt><trkpt lat="42.87363908956539" lon="13.325556681813406"><ele>808.0</ele><time>2026-04-19T14:32:13.999Z</time></trkpt><trkpt lat="42.87346363138635" lon="13.325496619766747"><ele>804.0</ele><time>2026-04-19T14:32:14.999Z</time></trkpt><trkpt lat="42.873292036235334" lon="13.32542877156022"><ele>800.0</ele><time>2026-04-19T14:32:15.999Z</time></trkpt><trkpt lat="42.87317445325792" lon="13.325327225241526"><ele>796.0</ele><time>2026-04-19T14:32:16.999Z</time></trkpt><trkpt lat="42.87304777967978" lon="13.325160583858766"><ele>796.0</ele><time>2026-04-19T14:32:17.999Z</time></trkpt><trkpt lat="42.87291292585067" lon="13.32492487506388"><ele>796.0</ele><time>2026-04-19T14:32:18.999Z</time></trkpt><trkpt lat="42.87276029789076" lon="13.324691607814758"><ele>796.0</ele><time>2026-04-19T14:32:19.999Z</time></trkpt><trkpt lat="42.87264213427823" lon="13.324508207678338"><ele>794.75</ele><time>2026-04-19T14:32:20.999Z</time></trkpt><trkpt lat="42.872520088443245" lon="13.324377038887144"><ele>793.5</ele><time>2026-04-19T14:32:21.999Z</time></trkpt><trkpt lat="42.872432444156175" lon="13.324242594097123"><ele>792.25</ele><time>2026-04-19T14:32:22.999Z</time></trkpt><trkpt lat="42.87236223611539" lon="13.324134197528506"><ele>791.0</ele><time>2026-04-19T14:32:23.999Z</time></trkpt><trkpt lat="42.872315688753105" lon="13.324036226119198"><ele>791.0</ele><time>2026-04-19T14:32:24.999Z</time></trkpt><trkpt lat="42.872325347175014" lon="13.323899312835982"><ele>791.0</ele><time>2026-04-19T14:32:25.999Z</time></trkpt><trkpt lat="42.87238090027756" lon="13.323773419672174"><ele>791.0</ele><time>2026-04-19T14:32:26.999Z</time></trkpt><trkpt lat="42.87248402687598" lon="13.323692612146553"><ele>791.0</ele><time>2026-04-19T14:32:27.999Z</time></trkpt><trkpt lat="42.872604156169" lon="13.323680048328066"><ele>791.0</ele><time>2026-04-19T14:32:28.999Z</time></trkpt><trkpt lat="42.872738017235626" lon="13.323754288266448"><ele>789.0</ele><time>2026-04-19T14:32:29.999Z</time></trkpt><trkpt lat="42.87288249904001" lon="13.323930563155036"><ele>787.0</ele><time>2026-04-19T14:32:30.999Z</time></trkpt><trkpt lat="42.873069353656106" lon="13.324111936463748"><ele>785.0</ele><time>2026-04-19T14:32:31.999Z</time></trkpt><trkpt lat="42.873232093717284" lon="13.32432944217165"><ele>785.0</ele><time>2026-04-19T14:32:32.999Z</time></trkpt><trkpt lat="42.87339401736194" lon="13.324472316061822"><ele>785.0</ele><time>2026-04-19T14:32:33.999Z</time></trkpt><trkpt lat="42.8735699108675" lon="13.324578909344403"><ele>785.0</ele><time>2026-04-19T14:32:34.999Z</time></trkpt><trkpt lat="42.87377313673412" lon="13.32464747836827"><ele>778.5</ele><time>2026-04-19T14:32:35.999Z</time></trkpt><trkpt lat="42.87401390870276" lon="13.324682205222587"><ele>772.0</ele><time>2026-04-19T14:32:36.999Z</time></trkpt><trkpt lat="42.87424791162348" lon="13.324712365544585"><ele>771.3333333333333</ele><time>2026-04-19T14:32:37.999Z</time></trkpt><trkpt lat="42.874460399845745" lon="13.324745895628096"><ele>770.6666666666667</ele><time>2026-04-19T14:32:38.999Z</time></trkpt><trkpt lat="42.874662616900615" lon="13.324784767762402"><ele>770.0</ele><time>2026-04-19T14:32:39.999Z</time></trkpt><trkpt lat="42.87485893729198" lon="13.324820227596012"><ele>770.0</ele><time>2026-04-19T14:32:40.999Z</time></trkpt><trkpt lat="42.87504805256878" lon="13.324846097742356"><ele>770.0</ele><time>2026-04-19T14:32:41.999Z</time></trkpt><trkpt lat="42.87523212669425" lon="13.324870494619281"><ele>770.0</ele><time>2026-04-19T14:32:42.999Z</time></trkpt><trkpt lat="42.875412050653125" lon="13.324895406409954"><ele>766.0</ele><time>2026-04-19T14:32:43.999Z</time></trkpt><trkpt lat="42.87558200873206" lon="13.324928685414376"><ele>762.0</ele><time>2026-04-19T14:32:44.999Z</time></trkpt><trkpt lat="42.87574508659742" lon="13.3249795714329"><ele>758.0</ele><time>2026-04-19T14:32:45.999Z</time></trkpt><trkpt lat="42.87589562303954" lon="13.325048451576823"><ele>757.0</ele><time>2026-04-19T14:32:47Z</time></trkpt><trkpt lat="42.87603497472719" lon="13.325135549105207"><ele>756.0</ele><time>2026-04-19T14:32:48Z</time></trkpt><trkpt lat="42.876164211181994" lon="13.32523174960894"><ele>755.0</ele><time>2026-04-19T14:32:49Z</time></trkpt><trkpt lat="42.876290620370824" lon="13.325311502375687"><ele>754.0</ele><time>2026-04-19T14:32:50Z</time></trkpt><trkpt lat="42.87641746880961" lon="13.325384621479877"><ele>754.0</ele><time>2026-04-19T14:32:51Z</time></trkpt><trkpt lat="42.876548270825836" lon="13.325457176486037"><ele>754.0</ele><time>2026-04-19T14:32:52Z</time></trkpt><trkpt lat="42.87668826885535" lon="13.325537992242431"><ele>754.0</ele><time>2026-04-19T14:32:53Z</time></trkpt><trkpt lat="42.87683293671293" lon="13.325632034768564"><ele>752.3333333333334</ele><time>2026-04-19T14:32:54Z</time></trkpt><trkpt lat="42.876981014532255" lon="13.325727430586246"><ele>750.6666666666666</ele><time>2026-04-19T14:32:55Z</time></trkpt><trkpt lat="42.87711814521859" lon="13.325807654995256"><ele>749.0</ele><time>2026-04-19T14:32:56Z</time></trkpt><trkpt lat="42.877251990060344" lon="13.325885139795128"><ele>749.0</ele><time>2026-04-19T14:32:57Z</time></trkpt><trkpt lat="42.87739562065595" lon="13.325974278326076"><ele>749.0</ele><time>2026-04-19T14:32:58Z</time></trkpt><trkpt lat="42.877539658541075" lon="13.3260627963378"><ele>749.0</ele><time>2026-04-19T14:32:59Z</time></trkpt><trkpt lat="42.877687616901426" lon="13.326147894104215"><ele>750.6666666666666</ele><time>2026-04-19T14:33:00Z</time></trkpt><trkpt lat="42.877835191868044" lon="13.326231082868178"><ele>752.3333333333334</ele><time>2026-04-19T14:33:01Z</time></trkpt><trkpt lat="42.87799057819812" lon="13.326309088360043"><ele>754.0</ele><time>2026-04-19T14:33:02Z</time></trkpt><trkpt lat="42.87814996289809" lon="13.326384545366567"><ele>753.0</ele><time>2026-04-19T14:33:03Z</time></trkpt><trkpt lat="42.87831082777471" lon="13.326449075143882"><ele>752.0</ele><time>2026-04-19T14:33:04Z</time></trkpt><trkpt lat="42.87848151907272" lon="13.32649951191908"><ele>751.0</ele><time>2026-04-19T14:33:05Z</time></trkpt><trkpt lat="42.87865195216129" lon="13.326545290164452"><ele>751.0</ele><time>2026-04-19T14:33:06Z</time></trkpt><trkpt lat="42.87882179773942" lon="13.326599755502953"><ele>751.0</ele><time>2026-04-19T14:33:07Z</time></trkpt><trkpt lat="42.878987005735475" lon="13.326676966009991"><ele>751.0</ele><time>2026-04-19T14:33:08Z</time></trkpt><trkpt lat="42.87915062569551" lon="13.326778260510142"><ele>751.6666666666667</ele><time>2026-04-19T14:33:09Z</time></trkpt><trkpt lat="42.87929375301718" lon="13.326899508186791"><ele>752.3333333333334</ele><time>2026-04-19T14:33:10Z</time></trkpt><trkpt lat="42.8794143287071" lon="13.327074410630313"><ele>753.0</ele><time>2026-04-19T14:33:11Z</time></trkpt><trkpt lat="42.87954504613595" lon="13.327259582428749"><ele>753.0</ele><time>2026-04-19T14:33:12Z</time></trkpt><trkpt lat="42.87968624207304" lon="13.327445751402777"><ele>753.0</ele><time>2026-04-19T14:33:13Z</time></trkpt><trkpt lat="42.879816997719246" lon="13.327618154693704"><ele>753.0</ele><time>2026-04-19T14:33:14Z</time></trkpt><trkpt lat="42.87995562851281" lon="13.327771139706638"><ele>753.0</ele><time>2026-04-19T14:33:15Z</time></trkpt><trkpt lat="42.88007386002771" lon="13.327930796447538"><ele>753.0</ele><time>2026-04-19T14:33:16Z</time></trkpt><trkpt lat="42.88018495433551" lon="13.328085822420832"><ele>753.0</ele><time>2026-04-19T14:33:17Z</time></trkpt><trkpt lat="42.88029637356162" lon="13.32823955968957"><ele>754.0</ele><time>2026-04-19T14:33:18Z</time></trkpt><trkpt lat="42.88039992670038" lon="13.328416722997222"><ele>755.0</ele><time>2026-04-19T14:33:19Z</time></trkpt><trkpt lat="42.88051910835107" lon="13.328587451322308"><ele>756.0</ele><time>2026-04-19T14:33:20Z</time></trkpt><trkpt lat="42.8806510918979" lon="13.32874882907457"><ele>757.0</ele><time>2026-04-19T14:33:21Z</time></trkpt><trkpt lat="42.88077426532598" lon="13.328931156335205"><ele>758.0</ele><time>2026-04-19T14:33:22Z</time></trkpt><trkpt lat="42.880899451161675" lon="13.329116056755481"><ele>759.0</ele><time>2026-04-19T14:33:23Z</time></trkpt><trkpt lat="42.88101743406635" lon="13.329301812419182"><ele>759.0</ele><time>2026-04-19T14:33:24Z</time></trkpt><trkpt lat="42.88113229573858" lon="13.329472385082221"><ele>759.0</ele><time>2026-04-19T14:33:25Z</time></trkpt><trkpt lat="42.881239300576084" lon="13.329633789196913"><ele>759.0</ele><time>2026-04-19T14:33:26Z</time></trkpt><trkpt lat="42.881332102354875" lon="13.329798632423415"><ele>755.0</ele><time>2026-04-19T14:33:27Z</time></trkpt><trkpt lat="42.881432711484365" lon="13.329950296431303"><ele>751.0</ele><time>2026-04-19T14:33:28Z</time></trkpt><trkpt lat="42.88154009087829" lon="13.330085094195491"><ele>747.0</ele><time>2026-04-19T14:33:29Z</time></trkpt><trkpt lat="42.88163059108637" lon="13.330231315680793"><ele>743.0</ele><time>2026-04-19T14:33:30Z</time></trkpt><trkpt lat="42.88172235231759" lon="13.330368151785471"><ele>743.5</ele><time>2026-04-19T14:33:31Z</time></trkpt><trkpt lat="42.88181432216673" lon="13.330499985810649"><ele>744.0</ele><time>2026-04-19T14:33:32Z</time></trkpt><trkpt lat="42.88190279915538" lon="13.33063048881365"><ele>744.5</ele><time>2026-04-19T14:33:33Z</time></trkpt><trkpt lat="42.881986555232864" lon="13.330762256407272"><ele>745.0</ele><time>2026-04-19T14:33:34Z</time></trkpt><trkpt lat="42.88207091316201" lon="13.330888716644996"><ele>745.0</ele><time>2026-04-19T14:33:35Z</time></trkpt><trkpt lat="42.882152674427125" lon="13.331012954694906"><ele>745.0</ele><time>2026-04-19T14:33:36Z</time></trkpt><trkpt lat="42.88222974921334" lon="13.331139405644755"><ele>745.0</ele><time>2026-04-19T14:33:37Z</time></trkpt><trkpt lat="42.88230700070539" lon="13.331256567820889"><ele>745.0</ele><time>2026-04-19T14:33:38Z</time></trkpt><trkpt lat="42.88238147292869" lon="13.331378584751572"><ele>742.75</ele><time>2026-04-19T14:33:39Z</time></trkpt><trkpt lat="42.88245302825261" lon="13.331497042030223"><ele>740.5</ele><time>2026-04-19T14:33:40Z</time></trkpt><trkpt lat="42.882509348070904" lon="13.33164659432753"><ele>738.25</ele><time>2026-04-19T14:33:41Z</time></trkpt><trkpt lat="42.88257148558406" lon="13.331806181638012"><ele>736.0</ele><time>2026-04-19T14:33:42Z</time></trkpt><trkpt lat="42.88262185276553" lon="13.331970290644696"><ele>736.0</ele><time>2026-04-19T14:33:43Z</time></trkpt><trkpt lat="42.882662043833804" lon="13.332134338354551"><ele>736.0</ele><time>2026-04-19T14:33:44Z</time></trkpt><trkpt lat="42.88269280144651" lon="13.332295246203682"><ele>736.0</ele><time>2026-04-19T14:33:45Z</time></trkpt><trkpt lat="42.882708394684784" lon="13.332457565258549"><ele>736.0</ele><time>2026-04-19T14:33:46Z</time></trkpt><trkpt lat="42.882712212057854" lon="13.332627107718949"><ele>730.5</ele><time>2026-04-19T14:33:47Z</time></trkpt><trkpt lat="42.88269817409343" lon="13.332800358933449"><ele>725.0</ele><time>2026-04-19T14:33:48Z</time></trkpt><trkpt lat="42.88269076437687" lon="13.33297626518033"><ele>719.5</ele><time>2026-04-19T14:33:49Z</time></trkpt><trkpt lat="42.88268351440496" lon="13.333142219950602"><ele>714.0</ele><time>2026-04-19T14:33:50Z</time></trkpt><trkpt lat="42.88267483332553" lon="13.333305658691629"><ele>713.0</ele><time>2026-04-19T14:33:51Z</time></trkpt><trkpt lat="42.88266425549322" lon="13.333478280286839"><ele>712.0</ele><time>2026-04-19T14:33:52Z</time></trkpt><trkpt lat="42.88265240484567" lon="13.33366152638932"><ele>711.0</ele><time>2026-04-19T14:33:53Z</time></trkpt><trkpt lat="42.882641467958905" lon="13.333852162498696"><ele>710.0</ele><time>2026-04-19T14:33:54Z</time></trkpt><trkpt lat="42.88263223129547" lon="13.334043793252892"><ele>710.0</ele><time>2026-04-19T14:33:55Z</time></trkpt><trkpt lat="42.88262431124322" lon="13.334228664645016"><ele>710.0</ele><time>2026-04-19T14:33:56Z</time></trkpt><trkpt lat="42.88261634977418" lon="13.334405852564181"><ele>710.0</ele><time>2026-04-19T14:33:57Z</time></trkpt><trkpt lat="42.88260901139459" lon="13.334575558735942"><ele>710.0</ele><time>2026-04-19T14:33:58Z</time></trkpt><trkpt lat="42.882603103556114" lon="13.33473471992012"><ele>709.5</ele><time>2026-04-19T14:33:59Z</time></trkpt><trkpt lat="42.882597353586604" lon="13.334894203205334"><ele>709.0</ele><time>2026-04-19T14:34:00Z</time></trkpt><trkpt lat="42.88259184163056" lon="13.335063476160135"><ele>708.5</ele><time>2026-04-19T14:34:01Z</time></trkpt><trkpt lat="42.88259064876966" lon="13.335247664074291"><ele>708.0</ele><time>2026-04-19T14:34:02Z</time></trkpt><trkpt lat="42.88262446973338" lon="13.335433240174721"><ele>707.75</ele><time>2026-04-19T14:34:03Z</time></trkpt><trkpt lat="42.88264797338255" lon="13.335619611051158"><ele>707.5</ele><time>2026-04-19T14:34:04Z</time></trkpt><trkpt lat="42.88269430986131" lon="13.335809079007426"><ele>707.25</ele><time>2026-04-19T14:34:05Z</time></trkpt><trkpt lat="42.88276302582647" lon="13.335979816856886"><ele>707.0</ele><time>2026-04-19T14:34:06Z</time></trkpt><trkpt lat="42.88283694195383" lon="13.336125764136979"><ele>707.0</ele><time>2026-04-19T14:34:07Z</time></trkpt><trkpt lat="42.88290750620753" lon="13.336262831529304"><ele>707.0</ele><time>2026-04-19T14:34:08Z</time></trkpt><trkpt lat="42.882975340096955" lon="13.336400554869485"><ele>707.0</ele><time>2026-04-19T14:34:09Z</time></trkpt><trkpt lat="42.88304605966752" lon="13.336536742233001"><ele>707.0</ele><time>2026-04-19T14:34:10Z</time></trkpt><trkpt lat="42.88311971010969" lon="13.336668230336976"><ele>707.0</ele><time>2026-04-19T14:34:11Z</time></trkpt><trkpt lat="42.883189120615036" lon="13.336792218649274"><ele>707.0</ele><time>2026-04-19T14:34:12Z</time></trkpt><trkpt lat="42.88325096617857" lon="13.33690063266863"><ele>707.0</ele><time>2026-04-19T14:34:13Z</time></trkpt><trkpt lat="42.88331089110516" lon="13.3370094327268"><ele>707.0</ele><time>2026-04-19T14:34:14Z</time></trkpt><trkpt lat="42.883365273653695" lon="13.337108163246768"><ele>707.0</ele><time>2026-04-19T14:34:15Z</time></trkpt><trkpt lat="42.883424225921544" lon="13.337216515100677"><ele>709.2</ele><time>2026-04-19T14:34:16Z</time></trkpt><trkpt lat="42.883487661270095" lon="13.337330006944375"><ele>711.4000000000001</ele><time>2026-04-19T14:34:16.999Z</time></trkpt><trkpt lat="42.88355271073363" lon="13.337448607800942"><ele>713.5999999999999</ele><time>2026-04-19T14:34:17.999Z</time></trkpt><trkpt lat="42.88360363255763" lon="13.337586327114302"><ele>715.8</ele><time>2026-04-19T14:34:18.999Z</time></trkpt><trkpt lat="42.88366050957313" lon="13.33771559319113"><ele>718.0</ele><time>2026-04-19T14:34:19.999Z</time></trkpt><trkpt lat="42.883699591591245" lon="13.337828276857405"><ele>718.0</ele><time>2026-04-19T14:34:20.999Z</time></trkpt><trkpt lat="42.88372208497002" lon="13.337913818167218"><ele>718.0</ele><time>2026-04-19T14:34:21.999Z</time></trkpt><trkpt lat="42.8837619302571" lon="13.33803465175661"><ele>718.0</ele><time>2026-04-19T14:34:23.999Z</time></trkpt><trkpt lat="42.883762519013494" lon="13.338122058455742"><ele>718.0</ele><time>2026-04-19T14:36:47.999Z</time></trkpt><trkpt lat="42.88377937935129" lon="13.338244379357066"><ele>718.0</ele><time>2026-04-19T14:36:49.999Z</time></trkpt><trkpt lat="42.88379204253539" lon="13.338341948731324"><ele>718.0</ele><time>2026-04-19T14:36:50.999Z</time></trkpt><trkpt lat="42.883806383482366" lon="13.338452445169198"><ele>718.75</ele><time>2026-04-19T14:36:51.999Z</time></trkpt><trkpt lat="42.88381801569732" lon="13.338570356990916"><ele>719.5</ele><time>2026-04-19T14:36:52.999Z</time></trkpt><trkpt lat="42.883826993834454" lon="13.338705462676577"><ele>720.25</ele><time>2026-04-19T14:36:53.999Z</time></trkpt><trkpt lat="42.883830030672996" lon="13.338883067187066"><ele>721.0</ele><time>2026-04-19T14:36:54.999Z</time></trkpt><trkpt lat="42.883824132105865" lon="13.339108043376832"><ele>721.0</ele><time>2026-04-19T14:36:55.999Z</time></trkpt><trkpt lat="42.88381525756922" lon="13.33932305678128"><ele>721.0</ele><time>2026-04-19T14:36:56.999Z</time></trkpt><trkpt lat="42.88380714944434" lon="13.339517743496945"><ele>721.0</ele><time>2026-04-19T14:36:57.999Z</time></trkpt><trkpt lat="42.88379973375909" lon="13.339693883085408"><ele>721.0</ele><time>2026-04-19T14:36:58.999Z</time></trkpt><trkpt lat="42.883795407709975" lon="13.339856532539573"><ele>722.0</ele><time>2026-04-19T14:36:59.999Z</time></trkpt><trkpt lat="42.88379789205302" lon="13.340011265692109"><ele>723.0</ele><time>2026-04-19T14:37:00.999Z</time></trkpt><trkpt lat="42.883814560820895" lon="13.34018025444292"><ele>724.0</ele><time>2026-04-19T14:37:01.999Z</time></trkpt><trkpt lat="42.8838475171131" lon="13.34035479558854"><ele>725.0</ele><time>2026-04-19T14:37:02.999Z</time></trkpt><trkpt lat="42.8838914818073" lon="13.340529147736637"><ele>723.25</ele><time>2026-04-19T14:37:03.999Z</time></trkpt><trkpt lat="42.88394229522356" lon="13.340708148542747"><ele>721.5</ele><time>2026-04-19T14:37:04.999Z</time></trkpt><trkpt lat="42.88399363434467" lon="13.340898756042336"><ele>719.75</ele><time>2026-04-19T14:37:05.999Z</time></trkpt><trkpt lat="42.884036926831016" lon="13.34110081846037"><ele>718.0</ele><time>2026-04-19T14:37:06.999Z</time></trkpt><trkpt lat="42.88406247428308" lon="13.341321197127504"><ele>713.3333333333334</ele><time>2026-04-19T14:37:07.999Z</time></trkpt><trkpt lat="42.884080245840735" lon="13.34154334149796"><ele>708.6666666666666</ele><time>2026-04-19T14:37:08.999Z</time></trkpt><trkpt lat="42.88409338935422" lon="13.341753879431025"><ele>704.0</ele><time>2026-04-19T14:37:09.999Z</time></trkpt><trkpt lat="42.884105730841384" lon="13.341949614035515"><ele>704.0</ele><time>2026-04-19T14:37:10.999Z</time></trkpt><trkpt lat="42.88411768506804" lon="13.342139206755375"><ele>704.0</ele><time>2026-04-19T14:37:11.999Z</time></trkpt><trkpt lat="42.88413001121223" lon="13.342334698092138"><ele>704.0</ele><time>2026-04-19T14:37:12.999Z</time></trkpt><trkpt lat="42.8841443297486" lon="13.342538544872863"><ele>704.0</ele><time>2026-04-19T14:37:13.999Z</time></trkpt><trkpt lat="42.88415904733189" lon="13.342748878307777"><ele>701.3333333333333</ele><time>2026-04-19T14:37:14.999Z</time></trkpt><trkpt lat="42.88417390280314" lon="13.342966816832698"><ele>698.6666666666666</ele><time>2026-04-19T14:37:15.999Z</time></trkpt><trkpt lat="42.884187895006576" lon="13.34317898437752"><ele>696.0</ele><time>2026-04-19T14:37:16.999Z</time></trkpt><trkpt lat="42.88420176467703" lon="13.343387859945864"><ele>696.0</ele><time>2026-04-19T14:37:17.999Z</time></trkpt><trkpt lat="42.88421563888443" lon="13.343595796839057"><ele>696.0</ele><time>2026-04-19T14:37:18.999Z</time></trkpt><trkpt lat="42.88422952694961" lon="13.343800421110759"><ele>696.0</ele><time>2026-04-19T14:37:19.999Z</time></trkpt><trkpt lat="42.88424643529026" lon="13.34399656897206"><ele>696.0</ele><time>2026-04-19T14:37:20.999Z</time></trkpt><trkpt lat="42.884262708194406" lon="13.344177975866176"><ele>704.0</ele><time>2026-04-19T14:37:21.999Z</time></trkpt><trkpt lat="42.884278368844534" lon="13.344352557612826"><ele>712.0</ele><time>2026-04-19T14:37:22.999Z</time></trkpt><trkpt lat="42.88429550948613" lon="13.344521652501834"><ele>720.0</ele><time>2026-04-19T14:37:23.999Z</time></trkpt><trkpt lat="42.88431783248651" lon="13.344682518767552"><ele>728.0</ele><time>2026-04-19T14:37:24.999Z</time></trkpt><trkpt lat="42.884349397691324" lon="13.34483772473759"><ele>728.0</ele><time>2026-04-19T14:37:25.999Z</time></trkpt><trkpt lat="42.88439531688282" lon="13.344978524785112"><ele>728.0</ele><time>2026-04-19T14:37:26.999Z</time></trkpt><trkpt lat="42.88444605625806" lon="13.345112421230873"><ele>728.0</ele><time>2026-04-19T14:37:27.999Z</time></trkpt><trkpt lat="42.88449993006865" lon="13.345242524195866"><ele>728.0</ele><time>2026-04-19T14:37:28.999Z</time></trkpt><trkpt lat="42.88455768199034" lon="13.345376253230182"><ele>728.0</ele><time>2026-04-19T14:37:29.999Z</time></trkpt><trkpt lat="42.88461816861256" lon="13.34551212895028"><ele>726.5</ele><time>2026-04-19T14:37:30.999Z</time></trkpt><trkpt lat="42.88469297854267" lon="13.345638430414201"><ele>725.0</ele><time>2026-04-19T14:37:31.999Z</time></trkpt><trkpt lat="42.8847415530644" lon="13.34578929690708"><ele>723.5</ele><time>2026-04-19T14:37:32.999Z</time></trkpt><trkpt lat="42.884813980554746" lon="13.345917853421835"><ele>722.0</ele><time>2026-04-19T14:37:33.999Z</time></trkpt><trkpt lat="42.88487594875204" lon="13.346059912082978"><ele>722.0</ele><time>2026-04-19T14:37:34.999Z</time></trkpt><trkpt lat="42.88493839440568" lon="13.34619653499954"><ele>722.0</ele><time>2026-04-19T14:37:35.999Z</time></trkpt><trkpt lat="42.88497729704435" lon="13.346349569254707"><ele>722.0</ele><time>2026-04-19T14:37:36.999Z</time></trkpt><trkpt lat="42.88501055788745" lon="13.346495508209493"><ele>722.0</ele><time>2026-04-19T14:37:37.999Z</time></trkpt><trkpt lat="42.88503132958939" lon="13.346647448769161"><ele>720.25</ele><time>2026-04-19T14:37:38.999Z</time></trkpt><trkpt lat="42.88504416908887" lon="13.346808198363606"><ele>718.5</ele><time>2026-04-19T14:37:39.999Z</time></trkpt><trkpt lat="42.88505279164609" lon="13.346976217068647"><ele>716.75</ele><time>2026-04-19T14:37:40.999Z</time></trkpt><trkpt lat="42.88506056550652" lon="13.34714747138557"><ele>715.0</ele><time>2026-04-19T14:37:41.999Z</time></trkpt><trkpt lat="42.88506653585708" lon="13.347326997916733"><ele>713.75</ele><time>2026-04-19T14:37:42.999Z</time></trkpt><trkpt lat="42.8850661933917" lon="13.347503118373364"><ele>712.5</ele><time>2026-04-19T14:37:43.999Z</time></trkpt><trkpt lat="42.885059796996735" lon="13.34766381832519"><ele>711.25</ele><time>2026-04-19T14:37:44.999Z</time></trkpt><trkpt lat="42.88505081497132" lon="13.347822851859824"><ele>710.0</ele><time>2026-04-19T14:37:45.999Z</time></trkpt><trkpt lat="42.88503945615157" lon="13.34797274650591"><ele>709.6</ele><time>2026-04-19T14:37:46.999Z</time></trkpt><trkpt lat="42.88502582230632" lon="13.348114322786346"><ele>709.2</ele><time>2026-04-19T14:37:47.999Z</time></trkpt><trkpt lat="42.88501728065276" lon="13.34824879794966"><ele>708.8</ele><time>2026-04-19T14:37:48.999Z</time></trkpt><trkpt lat="42.88501614875694" lon="13.348378398683776"><ele>708.4</ele><time>2026-04-19T14:37:49.999Z</time></trkpt><trkpt lat="42.88505036042588" lon="13.348503929741225"><ele>708.0</ele><time>2026-04-19T14:37:50.999Z</time></trkpt><trkpt lat="42.88513057331581" lon="13.348602740872733"><ele>710.8</ele><time>2026-04-19T14:37:51.999Z</time></trkpt><trkpt lat="42.885210811571746" lon="13.348710035401181"><ele>713.5999999999999</ele><time>2026-04-19T14:37:52.999Z</time></trkpt><trkpt lat="42.885242661342396" lon="13.34885503153738"><ele>716.4000000000001</ele><time>2026-04-19T14:37:53.999Z</time></trkpt><trkpt lat="42.88527288234084" lon="13.348999961602134"><ele>719.2</ele><time>2026-04-19T14:37:54.999Z</time></trkpt><trkpt lat="42.88526230116403" lon="13.34911790946288"><ele>722.0</ele><time>2026-04-19T14:37:55.999Z</time></trkpt><trkpt lat="42.885242504132115" lon="13.34925699930728"><ele>722.5</ele><time>2026-04-19T14:37:56.999Z</time></trkpt><trkpt lat="42.88521997823036" lon="13.349419354150614"><ele>723.0</ele><time>2026-04-19T14:37:57.999Z</time></trkpt><trkpt lat="42.88520070789344" lon="13.349594497488795"><ele>723.5</ele><time>2026-04-19T14:37:58.999Z</time></trkpt><trkpt lat="42.88520311883849" lon="13.349786019507663"><ele>724.0</ele><time>2026-04-19T14:37:59.999Z</time></trkpt><trkpt lat="42.885214989028746" lon="13.349984854456856"><ele>722.75</ele><time>2026-04-19T14:38:00.999Z</time></trkpt><trkpt lat="42.885244321152825" lon="13.350164845521528"><ele>721.5</ele><time>2026-04-19T14:38:01.999Z</time></trkpt><trkpt lat="42.88530163082686" lon="13.350317093053771"><ele>720.25</ele><time>2026-04-19T14:38:02.999Z</time></trkpt><trkpt lat="42.88533965194283" lon="13.350466480183265"><ele>719.0</ele><time>2026-04-19T14:38:03.999Z</time></trkpt><trkpt lat="42.8853969086587" lon="13.35061273356359"><ele>719.0</ele><time>2026-04-19T14:38:04.999Z</time></trkpt><trkpt lat="42.88545707850713" lon="13.35075954964913"><ele>719.0</ele><time>2026-04-19T14:38:05.999Z</time></trkpt><trkpt lat="42.88551640500011" lon="13.35090430803497"><ele>719.0</ele><time>2026-04-19T14:38:06.999Z</time></trkpt><trkpt lat="42.8855744599579" lon="13.351054754247123"><ele>719.0</ele><time>2026-04-19T14:38:07.999Z</time></trkpt><trkpt lat="42.88563098506402" lon="13.351204694995717"><ele>719.0</ele><time>2026-04-19T14:38:08.999Z</time></trkpt><trkpt lat="42.88568788345316" lon="13.3513556259358"><ele>719.0</ele><time>2026-04-19T14:38:09.999Z</time></trkpt><trkpt lat="42.88574498957108" lon="13.351507107848608"><ele>719.0</ele><time>2026-04-19T14:38:10.999Z</time></trkpt><trkpt lat="42.88579894037422" lon="13.351651278744336"><ele>719.0</ele><time>2026-04-19T14:38:11.999Z</time></trkpt><trkpt lat="42.885845880191205" lon="13.351786409805438"><ele>721.2</ele><time>2026-04-19T14:38:12.999Z</time></trkpt><trkpt lat="42.88588904691273" lon="13.351910678851002"><ele>723.4000000000001</ele><time>2026-04-19T14:38:13.999Z</time></trkpt><trkpt lat="42.885933469577616" lon="13.352031961831003"><ele>725.6</ele><time>2026-04-19T14:38:14.999Z</time></trkpt><trkpt lat="42.88597746453244" lon="13.35214928141963"><ele>727.8</ele><time>2026-04-19T14:38:15.999Z</time></trkpt><trkpt lat="42.88603350938747" lon="13.352266963323213"><ele>730.0</ele><time>2026-04-19T14:38:16.999Z</time></trkpt><trkpt lat="42.88611825601268" lon="13.352359895692185"><ele>722.5</ele><time>2026-04-19T14:38:17.999Z</time></trkpt><trkpt lat="42.88623046900186" lon="13.352374901556844"><ele>715.0</ele><time>2026-04-19T14:38:18.999Z</time></trkpt><trkpt lat="42.88634314900769" lon="13.352356804417843"><ele>707.5</ele><time>2026-04-19T14:38:19.999Z</time></trkpt><trkpt lat="42.886456846494866" lon="13.352296349569116"><ele>700.0</ele><time>2026-04-19T14:38:20.999Z</time></trkpt><trkpt lat="42.88656208675603" lon="13.352213881084504"><ele>706.0</ele><time>2026-04-19T14:38:21.999Z</time></trkpt><trkpt lat="42.886661820541754" lon="13.352133903928557"><ele>712.0</ele><time>2026-04-19T14:38:22.999Z</time></trkpt><trkpt lat="42.88675409174741" lon="13.352063723727541"><ele>718.0</ele><time>2026-04-19T14:38:23.999Z</time></trkpt><trkpt lat="42.88684038228182" lon="13.352005376427256"><ele>724.0</ele><time>2026-04-19T14:38:24.999Z</time></trkpt><trkpt lat="42.88692454017711" lon="13.351969103635838"><ele>730.0</ele><time>2026-04-19T14:38:25.999Z</time></trkpt><trkpt lat="42.88699660203861" lon="13.351981061513305"><ele>729.2</ele><time>2026-04-19T14:38:26.999Z</time></trkpt><trkpt lat="42.88705027567365" lon="13.352034336110517"><ele>728.4</ele><time>2026-04-19T14:38:27.999Z</time></trkpt><trkpt lat="42.887062642175465" lon="13.352148689119034"><ele>727.5999999999999</ele><time>2026-04-19T14:38:28.999Z</time></trkpt><trkpt lat="42.8870615135162" lon="13.352283083637424"><ele>726.8</ele><time>2026-04-19T14:38:29.999Z</time></trkpt><trkpt lat="42.887018615505525" lon="13.352458966191392"><ele>726.0</ele><time>2026-04-19T14:38:30.999Z</time></trkpt><trkpt lat="42.88695526832431" lon="13.35262959737099"><ele>726.0</ele><time>2026-04-19T14:38:31.999Z</time></trkpt><trkpt lat="42.88687195716327" lon="13.352761282934885"><ele>726.0</ele><time>2026-04-19T14:38:32.999Z</time></trkpt><trkpt lat="42.88677633177795" lon="13.352865732691184"><ele>726.0</ele><time>2026-04-19T14:38:33.999Z</time></trkpt><trkpt lat="42.88668149446559" lon="13.352963856362388"><ele>726.0</ele><time>2026-04-19T14:38:34.999Z</time></trkpt><trkpt lat="42.8865965767872" lon="13.353069456694"><ele>719.5999999999999</ele><time>2026-04-19T14:38:35.999Z</time></trkpt><trkpt lat="42.88654806689864" lon="13.353215264848485"><ele>713.2</ele><time>2026-04-19T14:38:36.999Z</time></trkpt><trkpt lat="42.886521104212605" lon="13.353359473188544"><ele>706.8</ele><time>2026-04-19T14:38:37.999Z</time></trkpt><trkpt lat="42.88654095286417" lon="13.353500369682294"><ele>700.4000000000001</ele><time>2026-04-19T14:38:38.999Z</time></trkpt><trkpt lat="42.886582696395564" lon="13.353630135263106"><ele>694.0</ele><time>2026-04-19T14:38:39.999Z</time></trkpt><trkpt lat="42.88659072759557" lon="13.353761836173048"><ele>692.0</ele><time>2026-04-19T14:38:40.999Z</time></trkpt><trkpt lat="42.886614238231" lon="13.353885494316351"><ele>690.0</ele><time>2026-04-19T14:38:41.999Z</time></trkpt><trkpt lat="42.886638007843125" lon="13.354006702404245"><ele>688.0</ele><time>2026-04-19T14:38:42.999Z</time></trkpt><trkpt lat="42.88666518252218" lon="13.354128818833212"><ele>686.0</ele><time>2026-04-19T14:38:43.999Z</time></trkpt><trkpt lat="42.88670135378235" lon="13.354257753685475"><ele>684.0</ele><time>2026-04-19T14:38:44.999Z</time></trkpt><trkpt lat="42.886740334957324" lon="13.35437872072184"><ele>684.1666666666666</ele><time>2026-04-19T14:38:45.999Z</time></trkpt><trkpt lat="42.88677740174686" lon="13.354493748393407"><ele>684.3333333333334</ele><time>2026-04-19T14:38:46.999Z</time></trkpt><trkpt lat="42.886814710681456" lon="13.354609526678006"><ele>684.5</ele><time>2026-04-19T14:38:47.999Z</time></trkpt><trkpt lat="42.886850259382726" lon="13.354719848832488"><ele>684.6666666666667</ele><time>2026-04-19T14:38:48.999Z</time></trkpt><trkpt lat="42.88687093194093" lon="13.354831176912985"><ele>684.8333333333334</ele><time>2026-04-19T14:38:49.999Z</time></trkpt><trkpt lat="42.88688970331673" lon="13.354946838600386"><ele>685.0</ele><time>2026-04-19T14:38:50.999Z</time></trkpt><trkpt lat="42.88689678812288" lon="13.355074800463704"><ele>685.0</ele><time>2026-04-19T14:38:51.999Z</time></trkpt><trkpt lat="42.886884987035955" lon="13.355201944608359"><ele>685.0</ele><time>2026-04-19T14:38:52.999Z</time></trkpt><trkpt lat="42.88685539363454" lon="13.355328858700625"><ele>685.0</ele><time>2026-04-19T14:38:53.999Z</time></trkpt><trkpt lat="42.886802048694506" lon="13.355442918911816"><ele>685.0</ele><time>2026-04-19T14:38:54.999Z</time></trkpt><trkpt lat="42.886743833737505" lon="13.355573286907795"><ele>685.0</ele><time>2026-04-19T14:38:55.999Z</time></trkpt><trkpt lat="42.88669369985845" lon="13.355706566821775"><ele>683.5</ele><time>2026-04-19T14:38:56.999Z</time></trkpt><trkpt lat="42.88666047956622" lon="13.355880434341522"><ele>682.0</ele><time>2026-04-19T14:38:57.999Z</time></trkpt><trkpt lat="42.88665345156345" lon="13.356070809190053"><ele>680.5</ele><time>2026-04-19T14:38:58.999Z</time></trkpt><trkpt lat="42.886646826548564" lon="13.356267712666408"><ele>679.0</ele><time>2026-04-19T14:38:59.999Z</time></trkpt><trkpt lat="42.88664264622945" lon="13.356473353642532"><ele>679.0</ele><time>2026-04-19T14:39:00.999Z</time></trkpt><trkpt lat="42.8866389013446" lon="13.356659778318356"><ele>679.0</ele><time>2026-04-19T14:39:01.999Z</time></trkpt><trkpt lat="42.88663603355938" lon="13.356827670965838"><ele>679.0</ele><time>2026-04-19T14:39:02.999Z</time></trkpt><trkpt lat="42.88663141304732" lon="13.356981853123902"><ele>679.0</ele><time>2026-04-19T14:39:03.999Z</time></trkpt><trkpt lat="42.88661189406269" lon="13.357123113594959"><ele>679.25</ele><time>2026-04-19T14:39:04.999Z</time></trkpt><trkpt lat="42.88655733656028" lon="13.357255854466727"><ele>679.5</ele><time>2026-04-19T14:39:05.999Z</time></trkpt><trkpt lat="42.88650136081761" lon="13.357404666737155"><ele>679.75</ele><time>2026-04-19T14:39:06.999Z</time></trkpt><trkpt lat="42.88644829263272" lon="13.357544655209333"><ele>680.0</ele><time>2026-04-19T14:39:07.999Z</time></trkpt><trkpt lat="42.88640023064319" lon="13.357676898817127"><ele>680.0</ele><time>2026-04-19T14:39:08.999Z</time></trkpt><trkpt lat="42.8863707185261" lon="13.357822272247574"><ele>680.0</ele><time>2026-04-19T14:39:09.999Z</time></trkpt><trkpt lat="42.88637401996581" lon="13.357973491396987"><ele>680.0</ele><time>2026-04-19T14:39:10.999Z</time></trkpt><trkpt lat="42.88642355981072" lon="13.35809927391112"><ele>680.0</ele><time>2026-04-19T14:39:11.999Z</time></trkpt><trkpt lat="42.88645616309725" lon="13.358219090113732"><ele>680.0</ele><time>2026-04-19T14:39:12.999Z</time></trkpt><trkpt lat="42.886511798177644" lon="13.358327134802359"><ele>679.2</ele><time>2026-04-19T14:39:13.999Z</time></trkpt><trkpt lat="42.88657123295352" lon="13.358436492159106"><ele>678.4</ele><time>2026-04-19T14:39:14.999Z</time></trkpt><trkpt lat="42.886649382253644" lon="13.358540370051717"><ele>677.5999999999999</ele><time>2026-04-19T14:39:15.999Z</time></trkpt><trkpt lat="42.88670467764816" lon="13.358676871666443"><ele>676.8</ele><time>2026-04-19T14:39:16.999Z</time></trkpt><trkpt lat="42.88677597987935" lon="13.358803675240964"><ele>676.0</ele><time>2026-04-19T14:39:17.999Z</time></trkpt><trkpt lat="42.88685177229518" lon="13.358938464181938"><ele>678.5</ele><time>2026-04-19T14:39:18.999Z</time></trkpt><trkpt lat="42.8869310586095" lon="13.359079466717857"><ele>681.0</ele><time>2026-04-19T14:39:19.999Z</time></trkpt><trkpt lat="42.887012663668685" lon="13.359224592764415"><ele>683.5</ele><time>2026-04-19T14:39:20.999Z</time></trkpt><trkpt lat="42.887095749116035" lon="13.359372351593848"><ele>686.0</ele><time>2026-04-19T14:39:21.999Z</time></trkpt><trkpt lat="42.887178838787655" lon="13.359522881041379"><ele>686.0</ele><time>2026-04-19T14:39:22.999Z</time></trkpt><trkpt lat="42.88725833419792" lon="13.359667227017836"><ele>686.0</ele><time>2026-04-19T14:39:23.999Z</time></trkpt><trkpt lat="42.88733919479735" lon="13.359813434446686"><ele>686.0</ele><time>2026-04-19T14:39:24.999Z</time></trkpt><trkpt lat="42.88742340353197" lon="13.359961674856319"><ele>686.0</ele><time>2026-04-19T14:39:25.999Z</time></trkpt><trkpt lat="42.88752436689061" lon="13.360117364312666"><ele>688.6666666666666</ele><time>2026-04-19T14:39:26.999Z</time></trkpt><trkpt lat="42.8876310900629" lon="13.360265307902543"><ele>691.3333333333334</ele><time>2026-04-19T14:39:27.999Z</time></trkpt><trkpt lat="42.88773995392174" lon="13.360410184613256"><ele>694.0</ele><time>2026-04-19T14:39:28.999Z</time></trkpt><trkpt lat="42.887853565423946" lon="13.360559528751814"><ele>690.0</ele><time>2026-04-19T14:39:29.999Z</time></trkpt><trkpt lat="42.887943592221774" lon="13.360702169603035"><ele>686.0</ele><time>2026-04-19T14:39:30.999Z</time></trkpt><trkpt lat="42.88801785400779" lon="13.360852735765768"><ele>682.0</ele><time>2026-04-19T14:39:31.999Z</time></trkpt><trkpt lat="42.88806706545547" lon="13.361019317942578"><ele>678.0</ele><time>2026-04-19T14:39:32.999Z</time></trkpt><trkpt lat="42.88810293244386" lon="13.361234279901979"><ele>677.0</ele><time>2026-04-19T14:39:33.999Z</time></trkpt><trkpt lat="42.888134009337975" lon="13.36151160293099"><ele>676.0</ele><time>2026-04-19T14:39:34.999Z</time></trkpt><trkpt lat="42.888174227434604" lon="13.361829847732562"><ele>675.0</ele><time>2026-04-19T14:39:35.999Z</time></trkpt><trkpt lat="42.88823066493095" lon="13.362176510626263"><ele>675.0</ele><time>2026-04-19T14:39:36.999Z</time></trkpt><trkpt lat="42.88827246548871" lon="13.362504583472527"><ele>675.0</ele><time>2026-04-19T14:39:37.999Z</time></trkpt><trkpt lat="42.888292866613554" lon="13.362810924639394"><ele>673.6666666666666</ele><time>2026-04-19T14:39:38.999Z</time></trkpt><trkpt lat="42.88832780570433" lon="13.3630887525586"><ele>672.3333333333333</ele><time>2026-04-19T14:39:39.999Z</time></trkpt><trkpt lat="42.88836154207583" lon="13.363353568441934"><ele>671.0</ele><time>2026-04-19T14:39:40.999Z</time></trkpt><trkpt lat="42.88841053590672" lon="13.36362448513073"><ele>678.0</ele><time>2026-04-19T14:39:41.999Z</time></trkpt><trkpt lat="42.88844476788493" lon="13.363895202538286"><ele>685.0</ele><time>2026-04-19T14:39:42.999Z</time></trkpt><trkpt lat="42.88848345748735" lon="13.364164745091037"><ele>692.0</ele><time>2026-04-19T14:39:43.999Z</time></trkpt><trkpt lat="42.888505363427036" lon="13.364438448306311"><ele>692.0</ele><time>2026-04-19T14:39:44.999Z</time></trkpt><trkpt lat="42.88853952092104" lon="13.364687730622355"><ele>692.0</ele><time>2026-04-19T14:39:45.999Z</time></trkpt><trkpt lat="42.88857298373838" lon="13.364931943280489"><ele>692.0</ele><time>2026-04-19T14:39:46.999Z</time></trkpt><trkpt lat="42.888605654955086" lon="13.365161821912315"><ele>685.6666666666666</ele><time>2026-04-19T14:39:47.999Z</time></trkpt><trkpt lat="42.888638440917816" lon="13.365391653173955"><ele>679.3333333333334</ele><time>2026-04-19T14:39:48.999Z</time></trkpt><trkpt lat="42.88866834660891" lon="13.365601291793348"><ele>673.0</ele><time>2026-04-19T14:39:49.999Z</time></trkpt><trkpt lat="42.888696155784594" lon="13.365799957054007"><ele>671.75</ele><time>2026-04-19T14:39:50.999Z</time></trkpt><trkpt lat="42.88872248355754" lon="13.365990052489158"><ele>670.5</ele><time>2026-04-19T14:39:51.999Z</time></trkpt><trkpt lat="42.88874971619191" lon="13.366186902282275"><ele>669.25</ele><time>2026-04-19T14:39:52.999Z</time></trkpt><trkpt lat="42.88877754216907" lon="13.366388041014368"><ele>668.0</ele><time>2026-04-19T14:39:53.999Z</time></trkpt><trkpt lat="42.888804580606475" lon="13.3665861437053"><ele>667.75</ele><time>2026-04-19T14:39:54.999Z</time></trkpt><trkpt lat="42.88883076587876" lon="13.366782076781632"><ele>667.5</ele><time>2026-04-19T14:39:55.999Z</time></trkpt><trkpt lat="42.888857371476455" lon="13.366981154905298"><ele>667.25</ele><time>2026-04-19T14:39:56.999Z</time></trkpt><trkpt lat="42.888883826945786" lon="13.367179599316517"><ele>667.0</ele><time>2026-04-19T14:39:57.999Z</time></trkpt><trkpt lat="42.88891039088536" lon="13.36737908787417"><ele>665.25</ele><time>2026-04-19T14:39:58.999Z</time></trkpt><trkpt lat="42.8889372247612" lon="13.367580603528117"><ele>663.5</ele><time>2026-04-19T14:39:59.999Z</time></trkpt><trkpt lat="42.88896304159357" lon="13.367777551068466"><ele>661.75</ele><time>2026-04-19T14:40:00.999Z</time></trkpt><trkpt lat="42.888989281427754" lon="13.367977772890717"><ele>660.0</ele><time>2026-04-19T14:40:01.999Z</time></trkpt><trkpt lat="42.88901497023091" lon="13.368173790148589"><ele>659.25</ele><time>2026-04-19T14:40:02.999Z</time></trkpt><trkpt lat="42.88904120045661" lon="13.368373938627876"><ele>658.5</ele><time>2026-04-19T14:40:03.999Z</time></trkpt><trkpt lat="42.8890670788486" lon="13.368568690267256"><ele>657.75</ele><time>2026-04-19T14:40:04.999Z</time></trkpt><trkpt lat="42.8890932251252" lon="13.368762554112296"><ele>657.0</ele><time>2026-04-19T14:40:05.999Z</time></trkpt><trkpt lat="42.88911974188188" lon="13.36895633640755"><ele>656.5</ele><time>2026-04-19T14:40:06.999Z</time></trkpt><trkpt lat="42.88914660340724" lon="13.369149709024633"><ele>656.0</ele><time>2026-04-19T14:40:07.999Z</time></trkpt><trkpt lat="42.889173370555255" lon="13.369342402259486"><ele>655.5</ele><time>2026-04-19T14:40:08.999Z</time></trkpt><trkpt lat="42.88919843326711" lon="13.369523955460183"><ele>655.0</ele><time>2026-04-19T14:40:09.999Z</time></trkpt><trkpt lat="42.88922333946585" lon="13.369711759917564"><ele>655.0</ele><time>2026-04-19T14:40:10.999Z</time></trkpt><trkpt lat="42.88924638559126" lon="13.369885538461517"><ele>655.0</ele><time>2026-04-19T14:40:11.999Z</time></trkpt><trkpt lat="42.88926923787395" lon="13.370057855537357"><ele>655.0</ele><time>2026-04-19T14:40:12.999Z</time></trkpt><trkpt lat="42.88929175670605" lon="13.370227658096939"><ele>655.0</ele><time>2026-04-19T14:40:13.999Z</time></trkpt><trkpt lat="42.889312250656054" lon="13.370382156121348"><ele>660.0</ele><time>2026-04-19T14:40:14.999Z</time></trkpt><trkpt lat="42.8893323416501" lon="13.370533328610396"><ele>665.0</ele><time>2026-04-19T14:40:15.999Z</time></trkpt><trkpt lat="42.88935365302442" lon="13.370685409448807"><ele>670.0</ele><time>2026-04-19T14:40:16.999Z</time></trkpt><trkpt lat="42.88937565615864" lon="13.370832751716655"><ele>675.0</ele><time>2026-04-19T14:40:17.999Z</time></trkpt><trkpt lat="42.889399508136165" lon="13.370979891119665"><ele>680.0</ele><time>2026-04-19T14:40:18.999Z</time></trkpt><trkpt lat="42.8894225158829" lon="13.37110511013227"><ele>680.0</ele><time>2026-04-19T14:40:19.999Z</time></trkpt><trkpt lat="42.88944588862275" lon="13.37122247745761"><ele>680.0</ele><time>2026-04-19T14:40:20.999Z</time></trkpt><trkpt lat="42.88947963629177" lon="13.37130292295865"><ele>680.0</ele><time>2026-04-19T14:40:21.999Z</time></trkpt><trkpt lat="42.889504026613075" lon="13.371453659687502"><ele>680.0</ele><time>2026-04-19T14:40:23.999Z</time></trkpt><trkpt lat="42.88954497889255" lon="13.371593953096873"><ele>680.0</ele><time>2026-04-19T14:40:25.999Z</time></trkpt><trkpt lat="42.889578932382605" lon="13.37177561642797"><ele>678.2</ele><time>2026-04-19T14:40:27.999Z</time></trkpt><trkpt lat="42.88962775610233" lon="13.371888359128652"><ele>676.4</ele><time>2026-04-19T14:40:28.999Z</time></trkpt><trkpt lat="42.889663637019765" lon="13.372005309737721"><ele>674.5999999999999</ele><time>2026-04-19T14:40:29.999Z</time></trkpt><trkpt lat="42.88969615122174" lon="13.372145590751083"><ele>672.8</ele><time>2026-04-19T14:40:30.999Z</time></trkpt><trkpt lat="42.889742996356034" lon="13.372272671143122"><ele>671.0</ele><time>2026-04-19T14:40:31.999Z</time></trkpt><trkpt lat="42.88980051199239" lon="13.372414168830028"><ele>668.0</ele><time>2026-04-19T14:40:32.999Z</time></trkpt><trkpt lat="42.88986325350583" lon="13.372554054795971"><ele>665.0</ele><time>2026-04-19T14:40:33.999Z</time></trkpt><trkpt lat="42.889944103637845" lon="13.372686013262811"><ele>662.0</ele><time>2026-04-19T14:40:34.999Z</time></trkpt><trkpt lat="42.89000287965256" lon="13.372829116971937"><ele>659.0</ele><time>2026-04-19T14:40:35.999Z</time></trkpt><trkpt lat="42.89007375900266" lon="13.372957398366143"><ele>659.6</ele><time>2026-04-19T14:40:36.999Z</time></trkpt><trkpt lat="42.89014808854973" lon="13.373079824008713"><ele>660.2</ele><time>2026-04-19T14:40:37.999Z</time></trkpt><trkpt lat="42.89022092798935" lon="13.373192126504065"><ele>660.8000000000001</ele><time>2026-04-19T14:40:38.999Z</time></trkpt><trkpt lat="42.89028879529336" lon="13.373293860388245"><ele>661.4000000000001</ele><time>2026-04-19T14:40:39.999Z</time></trkpt><trkpt lat="42.890356381741995" lon="13.373391760684013"><ele>662.0</ele><time>2026-04-19T14:40:40.999Z</time></trkpt><trkpt lat="42.890426099281726" lon="13.373491920222511"><ele>662.0</ele><time>2026-04-19T14:40:41.999Z</time></trkpt><trkpt lat="42.890495377484676" lon="13.373590242644287"><ele>662.0</ele><time>2026-04-19T14:40:42.999Z</time></trkpt><trkpt lat="42.89056394416322" lon="13.373687555247928"><ele>662.0</ele><time>2026-04-19T14:40:43.999Z</time></trkpt><trkpt lat="42.89063238313211" lon="13.373784737833624"><ele>662.0</ele><time>2026-04-19T14:40:44.999Z</time></trkpt><trkpt lat="42.890702121028475" lon="13.373884037242183"><ele>662.0</ele><time>2026-04-19T14:40:45.999Z</time></trkpt><trkpt lat="42.89077863653919" lon="13.373990615627875"><ele>657.75</ele><time>2026-04-19T14:40:46.999Z</time></trkpt><trkpt lat="42.89085986303246" lon="13.37410191211402"><ele>653.5</ele><time>2026-04-19T14:40:47.999Z</time></trkpt><trkpt lat="42.890948169557646" lon="13.374222909605358"><ele>649.25</ele><time>2026-04-19T14:40:48.999Z</time></trkpt><trkpt lat="42.89104071520591" lon="13.37434971564232"><ele>645.0</ele><time>2026-04-19T14:40:49.999Z</time></trkpt><trkpt lat="42.8911341496401" lon="13.374477739456482"><ele>645.0</ele><time>2026-04-19T14:40:50.999Z</time></trkpt><trkpt lat="42.891233476010754" lon="13.374613836393157"><ele>645.0</ele><time>2026-04-19T14:40:51.999Z</time></trkpt><trkpt lat="42.89133531696879" lon="13.374753380019387"><ele>645.0</ele><time>2026-04-19T14:40:52.999Z</time></trkpt><trkpt lat="42.89143071460135" lon="13.374884093740407"><ele>645.0</ele><time>2026-04-19T14:40:53.999Z</time></trkpt><trkpt lat="42.89153051183111" lon="13.375020835793755"><ele>645.0</ele><time>2026-04-19T14:40:54.999Z</time></trkpt><trkpt lat="42.89162804257277" lon="13.37515447265733"><ele>645.0</ele><time>2026-04-19T14:40:55.999Z</time></trkpt><trkpt lat="42.89172657705518" lon="13.375289484438962"><ele>645.0</ele><time>2026-04-19T14:40:56.999Z</time></trkpt><trkpt lat="42.8918314515436" lon="13.375435004749637"><ele>645.0</ele><time>2026-04-19T14:40:57.999Z</time></trkpt><trkpt lat="42.89195621712993" lon="13.375610201326364"><ele>648.6666666666666</ele><time>2026-04-19T14:40:58.999Z</time></trkpt><trkpt lat="42.892098594944486" lon="13.375815054894586"><ele>652.3333333333333</ele><time>2026-04-19T14:40:59.999Z</time></trkpt><trkpt lat="42.89224368737074" lon="13.376039539437745"><ele>656.0</ele><time>2026-04-19T14:41:00.999Z</time></trkpt><trkpt lat="42.89237614291645" lon="13.37627020080257"><ele>656.0</ele><time>2026-04-19T14:41:01.999Z</time></trkpt><trkpt lat="42.892495354891636" lon="13.376507374557544"><ele>656.0</ele><time>2026-04-19T14:41:02.999Z</time></trkpt><trkpt lat="42.89261230626659" lon="13.376758619175655"><ele>656.0</ele><time>2026-04-19T14:41:03.999Z</time></trkpt><trkpt lat="42.89272274214393" lon="13.377010089025642"><ele>660.6666666666666</ele><time>2026-04-19T14:41:04.999Z</time></trkpt><trkpt lat="42.89283296629298" lon="13.377264230265558"><ele>665.3333333333334</ele><time>2026-04-19T14:41:05.999Z</time></trkpt><trkpt lat="42.892941476315606" lon="13.377511369237373"><ele>670.0</ele><time>2026-04-19T14:41:06.999Z</time></trkpt><trkpt lat="42.89304676825987" lon="13.377751178795364"><ele>670.0</ele><time>2026-04-19T14:41:07.999Z</time></trkpt><trkpt lat="42.893143930302706" lon="13.377972471972639"><ele>670.0</ele><time>2026-04-19T14:41:08.999Z</time></trkpt><trkpt lat="42.893235155538804" lon="13.378178890710446"><ele>670.0</ele><time>2026-04-19T14:41:09.999Z</time></trkpt><trkpt lat="42.8933202341534" lon="13.378371235180959"><ele>670.6666666666667</ele><time>2026-04-19T14:41:10.999Z</time></trkpt><trkpt lat="42.89340670653201" lon="13.378564158012919"><ele>671.3333333333334</ele><time>2026-04-19T14:41:11.999Z</time></trkpt><trkpt lat="42.89349441544487" lon="13.37875947640906"><ele>672.0</ele><time>2026-04-19T14:41:12.999Z</time></trkpt><trkpt lat="42.89358302188342" lon="13.37895774526279"><ele>672.0</ele><time>2026-04-19T14:41:13.999Z</time></trkpt><trkpt lat="42.8936716005968" lon="13.379159509551265"><ele>672.0</ele><time>2026-04-19T14:41:14.999Z</time></trkpt><trkpt lat="42.89376190078222" lon="13.379366171285877"><ele>672.0</ele><time>2026-04-19T14:41:15.999Z</time></trkpt><trkpt lat="42.89385382384303" lon="13.379571826398669"><ele>665.6666666666666</ele><time>2026-04-19T14:41:16.999Z</time></trkpt><trkpt lat="42.89394816663649" lon="13.379771934861097"><ele>659.3333333333333</ele><time>2026-04-19T14:41:17.999Z</time></trkpt><trkpt lat="42.89404821090149" lon="13.379967916497474"><ele>653.0</ele><time>2026-04-19T14:41:18.999Z</time></trkpt><trkpt lat="42.8941497235024" lon="13.380151907861942"><ele>658.6666666666666</ele><time>2026-04-19T14:41:19.999Z</time></trkpt><trkpt lat="42.894265668116745" lon="13.380333182140783"><ele>664.3333333333334</ele><time>2026-04-19T14:41:20.999Z</time></trkpt><trkpt lat="42.894385604553726" lon="13.380500888098748"><ele>670.0</ele><time>2026-04-19T14:41:21.999Z</time></trkpt><trkpt lat="42.894510602500766" lon="13.380661375299885"><ele>670.0</ele><time>2026-04-19T14:41:22.999Z</time></trkpt><trkpt lat="42.894654615947424" lon="13.38079625029006"><ele>670.0</ele><time>2026-04-19T14:41:24Z</time></trkpt><trkpt lat="42.89478975944099" lon="13.380946517350404"><ele>670.0</ele><time>2026-04-19T14:41:25Z</time></trkpt><trkpt lat="42.894928830389986" lon="13.381095411468618"><ele>670.0</ele><time>2026-04-19T14:41:25.999Z</time></trkpt><trkpt lat="42.89507427672942" lon="13.381241495895518"><ele>670.0</ele><time>2026-04-19T14:41:26.999Z</time></trkpt><trkpt lat="42.89521454313725" lon="13.381380003891474"><ele>670.0</ele><time>2026-04-19T14:41:27.999Z</time></trkpt><trkpt lat="42.89535421178377" lon="13.381520557120014"><ele>670.3333333333334</ele><time>2026-04-19T14:41:28.999Z</time></trkpt><trkpt lat="42.89549353148739" lon="13.381664170215233"><ele>670.6666666666666</ele><time>2026-04-19T14:41:29.999Z</time></trkpt><trkpt lat="42.89562904992203" lon="13.381800110378007"><ele>671.0</ele><time>2026-04-19T14:41:30.999Z</time></trkpt><trkpt lat="42.89574985723592" lon="13.381947039139993"><ele>671.0</ele><time>2026-04-19T14:41:31.999Z</time></trkpt><trkpt lat="42.895873216084574" lon="13.382072910897222"><ele>671.0</ele><time>2026-04-19T14:41:32.999Z</time></trkpt><trkpt lat="42.89599785635025" lon="13.382200113009603"><ele>671.0</ele><time>2026-04-19T14:41:33.999Z</time></trkpt><trkpt lat="42.89612529837407" lon="13.382337076901749"><ele>664.6666666666666</ele><time>2026-04-19T14:41:34.999Z</time></trkpt><trkpt lat="42.89625596403316" lon="13.382480273262667"><ele>658.3333333333334</ele><time>2026-04-19T14:41:35.999Z</time></trkpt><trkpt lat="42.89638309244593" lon="13.382623699130331"><ele>652.0</ele><time>2026-04-19T14:41:36.999Z</time></trkpt><trkpt lat="42.896504383809855" lon="13.382768014468523"><ele>652.0</ele><time>2026-04-19T14:41:37.999Z</time></trkpt><trkpt lat="42.89662621827815" lon="13.382918456979795"><ele>652.0</ele><time>2026-04-19T14:41:38.999Z</time></trkpt><trkpt lat="42.89673917450223" lon="13.383058859037272"><ele>652.0</ele><time>2026-04-19T14:41:39.999Z</time></trkpt><trkpt lat="42.89684501311374" lon="13.383189898316813"><ele>655.25</ele><time>2026-04-19T14:41:40.999Z</time></trkpt><trkpt lat="42.89694871877023" lon="13.383317365868308"><ele>658.5</ele><time>2026-04-19T14:41:41.999Z</time></trkpt><trkpt lat="42.8970556175085" lon="13.383448725539095"><ele>661.75</ele><time>2026-04-19T14:41:42.999Z</time></trkpt><trkpt lat="42.89716619603919" lon="13.383585127757623"><ele>665.0</ele><time>2026-04-19T14:41:43.999Z</time></trkpt><trkpt lat="42.89728367619326" lon="13.383705250951428"><ele>665.0</ele><time>2026-04-19T14:41:44.999Z</time></trkpt><trkpt lat="42.89739429920366" lon="13.383841815045214"><ele>665.0</ele><time>2026-04-19T14:41:45.999Z</time></trkpt><trkpt lat="42.897507115150965" lon="13.383977948484334"><ele>665.0</ele><time>2026-04-19T14:41:46.999Z</time></trkpt><trkpt lat="42.897629036989834" lon="13.38411904302876"><ele>665.0</ele><time>2026-04-19T14:41:47.999Z</time></trkpt><trkpt lat="42.8977660182756" lon="13.384240555323824"><ele>665.0</ele><time>2026-04-19T14:41:48.999Z</time></trkpt><trkpt lat="42.89792163813554" lon="13.384371935600791"><ele>665.0</ele><time>2026-04-19T14:41:49.999Z</time></trkpt><trkpt lat="42.8980803857577" lon="13.384490193997955"><ele>665.0</ele><time>2026-04-19T14:41:50.999Z</time></trkpt><trkpt lat="42.898230330341676" lon="13.38460084579959"><ele>665.0</ele><time>2026-04-19T14:41:51.999Z</time></trkpt><trkpt lat="42.89838595999151" lon="13.384715275932015"><ele>665.0</ele><time>2026-04-19T14:41:52.999Z</time></trkpt><trkpt lat="42.898539434187164" lon="13.384840547264849"><ele>657.3333333333333</ele><time>2026-04-19T14:41:53.999Z</time></trkpt><trkpt lat="42.89868252709188" lon="13.384996362746927"><ele>649.6666666666666</ele><time>2026-04-19T14:41:54.999Z</time></trkpt><trkpt lat="42.89882484102879" lon="13.385131813411357"><ele>642.0</ele><time>2026-04-19T14:41:55.999Z</time></trkpt><trkpt lat="42.89895636102691" lon="13.385276784062071"><ele>642.0</ele><time>2026-04-19T14:41:56.999Z</time></trkpt><trkpt lat="42.89908516573465" lon="13.385432777124173"><ele>642.0</ele><time>2026-04-19T14:41:57.999Z</time></trkpt><trkpt lat="42.89921160973899" lon="13.385597373750869"><ele>642.0</ele><time>2026-04-19T14:41:58.999Z</time></trkpt><trkpt lat="42.899336421963355" lon="13.385763278266618"><ele>645.0</ele><time>2026-04-19T14:41:59.999Z</time></trkpt><trkpt lat="42.89946817749119" lon="13.385907308380766"><ele>648.0</ele><time>2026-04-19T14:42:00.999Z</time></trkpt><trkpt lat="42.89969848781154" lon="13.38622596758262"><ele>639.6666666666666</ele><time>2026-04-19T14:42:02.999Z</time></trkpt><trkpt lat="42.89980940616615" lon="13.386412580363395"><ele>631.3333333333333</ele><time>2026-04-19T14:42:03.999Z</time></trkpt><trkpt lat="42.89993145568379" lon="13.386585064675701"><ele>623.0</ele><time>2026-04-19T14:42:04.999Z</time></trkpt><trkpt lat="42.90005568283175" lon="13.386757218417715"><ele>626.0</ele><time>2026-04-19T14:42:05.999Z</time></trkpt><trkpt lat="42.900180144028596" lon="13.386922248611423"><ele>629.0</ele><time>2026-04-19T14:42:06.999Z</time></trkpt><trkpt lat="42.90031281651078" lon="13.387063223492362"><ele>632.0</ele><time>2026-04-19T14:42:07.999Z</time></trkpt><trkpt lat="42.900436654690445" lon="13.387212811952608"><ele>625.3333333333333</ele><time>2026-04-19T14:42:08.999Z</time></trkpt><trkpt lat="42.900565660573406" lon="13.387350813924497"><ele>618.6666666666666</ele><time>2026-04-19T14:42:09.999Z</time></trkpt><trkpt lat="42.900699038424506" lon="13.38747097673476"><ele>612.0</ele><time>2026-04-19T14:42:10.999Z</time></trkpt><trkpt lat="42.90084433895996" lon="13.387590693713797"><ele>610.6666666666666</ele><time>2026-04-19T14:42:11.999Z</time></trkpt><trkpt lat="42.90100309730216" lon="13.387712742994154"><ele>609.3333333333333</ele><time>2026-04-19T14:42:12.999Z</time></trkpt><trkpt lat="42.90115923499957" lon="13.387861877464257"><ele>608.0</ele><time>2026-04-19T14:42:13.999Z</time></trkpt><trkpt lat="42.90131955393064" lon="13.387990196016768"><ele>608.0</ele><time>2026-04-19T14:42:14.999Z</time></trkpt><trkpt lat="42.90147928083921" lon="13.388118040658114"><ele>608.0</ele><time>2026-04-19T14:42:15.999Z</time></trkpt><trkpt lat="42.901639763618036" lon="13.388230579898607"><ele>608.0</ele><time>2026-04-19T14:42:16.999Z</time></trkpt><trkpt lat="42.90178676800826" lon="13.388363328481601"><ele>608.0</ele><time>2026-04-19T14:42:17.999Z</time></trkpt><trkpt lat="42.90192895342278" lon="13.388488307872803"><ele>608.0</ele><time>2026-04-19T14:42:18.999Z</time></trkpt><trkpt lat="42.902068404676676" lon="13.388630966259363"><ele>608.0</ele><time>2026-04-19T14:42:19.999Z</time></trkpt><trkpt lat="42.90220149032796" lon="13.388767596742465"><ele>610.3333333333333</ele><time>2026-04-19T14:42:20.999Z</time></trkpt><trkpt lat="42.90233932968325" lon="13.388912030951792"><ele>612.6666666666666</ele><time>2026-04-19T14:42:21.999Z</time></trkpt><trkpt lat="42.90248231164458" lon="13.389067626581209"><ele>615.0</ele><time>2026-04-19T14:42:22.999Z</time></trkpt><trkpt lat="42.902625181375136" lon="13.389227812404162"><ele>615.0</ele><time>2026-04-19T14:42:23.999Z</time></trkpt><trkpt lat="42.90276675157367" lon="13.389380883702481"><ele>615.0</ele><time>2026-04-19T14:42:24.999Z</time></trkpt><trkpt lat="42.90290733047765" lon="13.389522593865216"><ele>615.0</ele><time>2026-04-19T14:42:25.999Z</time></trkpt><trkpt lat="42.903043186759625" lon="13.389668124791193"><ele>610.3333333333334</ele><time>2026-04-19T14:42:26.999Z</time></trkpt><trkpt lat="42.90317531150933" lon="13.389798636293435"><ele>605.6666666666667</ele><time>2026-04-19T14:42:27.999Z</time></trkpt><trkpt lat="42.903310784113465" lon="13.389916504691508"><ele>601.0</ele><time>2026-04-19T14:42:28.999Z</time></trkpt><trkpt lat="42.90344619069051" lon="13.390017084072927"><ele>601.0</ele><time>2026-04-19T14:42:29.999Z</time></trkpt><trkpt lat="42.90358802185271" lon="13.39010645899986"><ele>601.0</ele><time>2026-04-19T14:42:30.999Z</time></trkpt><trkpt lat="42.903722441358646" lon="13.390188898621144"><ele>601.0</ele><time>2026-04-19T14:42:31.999Z</time></trkpt><trkpt lat="42.903862668172444" lon="13.390264525120816"><ele>601.0</ele><time>2026-04-19T14:42:32.999Z</time></trkpt><trkpt lat="42.90399430841854" lon="13.390337962447859"><ele>601.0</ele><time>2026-04-19T14:42:33.999Z</time></trkpt><trkpt lat="42.904121720016136" lon="13.390424506132145"><ele>601.0</ele><time>2026-04-19T14:42:34.999Z</time></trkpt><trkpt lat="42.904243193746545" lon="13.390517249989406"><ele>601.0</ele><time>2026-04-19T14:42:35.999Z</time></trkpt><trkpt lat="42.9043626606737" lon="13.390617974522506"><ele>599.0</ele><time>2026-04-19T14:42:36.999Z</time></trkpt><trkpt lat="42.90446571105126" lon="13.39074553392226"><ele>597.0</ele><time>2026-04-19T14:42:37.999Z</time></trkpt><trkpt lat="42.90455298665922" lon="13.390852292304048"><ele>595.0</ele><time>2026-04-19T14:42:38.999Z</time></trkpt><trkpt lat="42.90463198530868" lon="13.390963333696112"><ele>593.0</ele><time>2026-04-19T14:42:39.999Z</time></trkpt><trkpt lat="42.90470732197816" lon="13.391075889868276"><ele>593.0</ele><time>2026-04-19T14:42:40.999Z</time></trkpt><trkpt lat="42.904786144369126" lon="13.391210488440212"><ele>593.0</ele><time>2026-04-19T14:42:41.999Z</time></trkpt><trkpt lat="42.904860365324566" lon="13.391367504793369"><ele>593.0</ele><time>2026-04-19T14:42:42.999Z</time></trkpt><trkpt lat="42.90491780568182" lon="13.391529255238261"><ele>593.0</ele><time>2026-04-19T14:42:43.999Z</time></trkpt><trkpt lat="42.90495807782786" lon="13.391697929361944"><ele>592.0</ele><time>2026-04-19T14:42:44.999Z</time></trkpt><trkpt lat="42.90498211700597" lon="13.391874304115726"><ele>591.0</ele><time>2026-04-19T14:42:45.999Z</time></trkpt><trkpt lat="42.90500165891245" lon="13.392060812024868"><ele>590.0</ele><time>2026-04-19T14:42:46.999Z</time></trkpt><trkpt lat="42.90503794871456" lon="13.392245585683643"><ele>589.0</ele><time>2026-04-19T14:42:47.999Z</time></trkpt><trkpt lat="42.90511150792043" lon="13.392408000647388"><ele>589.0</ele><time>2026-04-19T14:42:48.999Z</time></trkpt><trkpt lat="42.90519269788295" lon="13.392588280794335"><ele>589.0</ele><time>2026-04-19T14:42:49.999Z</time></trkpt><trkpt lat="42.90529268992744" lon="13.392775090285426"><ele>589.0</ele><time>2026-04-19T14:42:50.999Z</time></trkpt><trkpt lat="42.905387528611094" lon="13.392984057439325"><ele>585.0</ele><time>2026-04-19T14:42:51.999Z</time></trkpt><trkpt lat="42.90551929815274" lon="13.39317492262181"><ele>581.0</ele><time>2026-04-19T14:42:52.999Z</time></trkpt><trkpt lat="42.90564713961212" lon="13.393386305383217"><ele>577.0</ele><time>2026-04-19T14:42:53.999Z</time></trkpt><trkpt lat="42.90576960342982" lon="13.39361681068119"><ele>576.3333333333334</ele><time>2026-04-19T14:42:54.999Z</time></trkpt><trkpt lat="42.90591264105843" lon="13.393837412896984"><ele>575.6666666666666</ele><time>2026-04-19T14:42:55.999Z</time></trkpt><trkpt lat="42.90604855199867" lon="13.394040922085573"><ele>575.0</ele><time>2026-04-19T14:42:56.999Z</time></trkpt><trkpt lat="42.906174819530754" lon="13.39422563155674"><ele>575.0</ele><time>2026-04-19T14:42:57.999Z</time></trkpt><trkpt lat="42.90629656314861" lon="13.394401276119508"><ele>575.0</ele><time>2026-04-19T14:42:58.999Z</time></trkpt><trkpt lat="42.906415443859956" lon="13.394572790207016"><ele>575.0</ele><time>2026-04-19T14:42:59.999Z</time></trkpt><trkpt lat="42.906527199476166" lon="13.394735736551805"><ele>576.6666666666666</ele><time>2026-04-19T14:43:00.999Z</time></trkpt><trkpt lat="42.90662566877055" lon="13.394886403506247"><ele>578.3333333333334</ele><time>2026-04-19T14:43:01.999Z</time></trkpt><trkpt lat="42.90671809608158" lon="13.395056856080998"><ele>580.0</ele><time>2026-04-19T14:43:02.999Z</time></trkpt><trkpt lat="42.90679915557394" lon="13.395251720481214"><ele>580.0</ele><time>2026-04-19T14:43:03.999Z</time></trkpt><trkpt lat="42.90684601169695" lon="13.395469846570053"><ele>580.0</ele><time>2026-04-19T14:43:04.999Z</time></trkpt><trkpt lat="42.90688075953995" lon="13.395717396026399"><ele>580.0</ele><time>2026-04-19T14:43:05.999Z</time></trkpt><trkpt lat="42.906910099511336" lon="13.39597217180667"><ele>579.0</ele><time>2026-04-19T14:43:06.999Z</time></trkpt><trkpt lat="42.906955815364384" lon="13.39616903427681"><ele>578.0</ele><time>2026-04-19T14:43:07.999Z</time></trkpt><trkpt lat="42.90700766635583" lon="13.39635173161595"><ele>577.0</ele><time>2026-04-19T14:43:08.999Z</time></trkpt><trkpt lat="42.90708664652052" lon="13.396473461387973"><ele>576.0</ele><time>2026-04-19T14:43:09.999Z</time></trkpt><trkpt lat="42.907193573255704" lon="13.396583172344897"><ele>573.75</ele><time>2026-04-19T14:43:10.999Z</time></trkpt><trkpt lat="42.907312228049705" lon="13.396639672317482"><ele>571.5</ele><time>2026-04-19T14:43:11.999Z</time></trkpt><trkpt lat="42.907424030383424" lon="13.396665886910654"><ele>569.25</ele><time>2026-04-19T14:43:12.999Z</time></trkpt><trkpt lat="42.90757332719646" lon="13.396680483498772"><ele>567.0</ele><time>2026-04-19T14:43:13.999Z</time></trkpt><trkpt lat="42.90771545759912" lon="13.396668863322574"><ele>566.0</ele><time>2026-04-19T14:43:14.999Z</time></trkpt><trkpt lat="42.90785514679719" lon="13.396650571604173"><ele>565.0</ele><time>2026-04-19T14:43:15.999Z</time></trkpt><trkpt lat="42.907989684134805" lon="13.39663064093316"><ele>564.0</ele><time>2026-04-19T14:43:16.998Z</time></trkpt><trkpt lat="42.90813010708147" lon="13.39663178250385"><ele>563.0</ele><time>2026-04-19T14:43:17.998Z</time></trkpt><trkpt lat="42.908279367873355" lon="13.3966370161783"><ele>563.5</ele><time>2026-04-19T14:43:18.998Z</time></trkpt><trkpt lat="42.908421804892264" lon="13.396649970813064"><ele>564.0</ele><time>2026-04-19T14:43:19.998Z</time></trkpt><trkpt lat="42.90856934435189" lon="13.396648009254413"><ele>564.5</ele><time>2026-04-19T14:43:20.998Z</time></trkpt><trkpt lat="42.90871200547251" lon="13.39666942031718"><ele>565.0</ele><time>2026-04-19T14:43:21.998Z</time></trkpt><trkpt lat="42.9088440295205" lon="13.39671149416672"><ele>565.0</ele><time>2026-04-19T14:43:22.998Z</time></trkpt><trkpt lat="42.908972026272274" lon="13.396733952618284"><ele>565.0</ele><time>2026-04-19T14:43:23.998Z</time></trkpt><trkpt lat="42.90909636143466" lon="13.396741464385382"><ele>565.0</ele><time>2026-04-19T14:43:24.998Z</time></trkpt><trkpt lat="42.909214246375676" lon="13.396800149944175"><ele>565.0</ele><time>2026-04-19T14:43:25.998Z</time></trkpt><trkpt lat="42.90934238341869" lon="13.39684792668167"><ele>567.25</ele><time>2026-04-19T14:43:26.998Z</time></trkpt><trkpt lat="42.90947107701898" lon="13.39690128043185"><ele>569.5</ele><time>2026-04-19T14:43:27.998Z</time></trkpt><trkpt lat="42.90960559248296" lon="13.396967301692452"><ele>571.75</ele><time>2026-04-19T14:43:28.998Z</time></trkpt><trkpt lat="42.909742400493656" lon="13.397017050604978"><ele>574.0</ele><time>2026-04-19T14:43:29.998Z</time></trkpt><trkpt lat="42.9098741791175" lon="13.397093637234908"><ele>572.5</ele><time>2026-04-19T14:43:30.998Z</time></trkpt><trkpt lat="42.909992820558585" lon="13.397172467444475"><ele>571.0</ele><time>2026-04-19T14:43:31.999Z</time></trkpt><trkpt lat="42.910108510768744" lon="13.397247048842386"><ele>569.5</ele><time>2026-04-19T14:43:32.999Z</time></trkpt><trkpt lat="42.910221663125746" lon="13.397333567731668"><ele>568.0</ele><time>2026-04-19T14:43:33.999Z</time></trkpt><trkpt lat="42.910343700015524" lon="13.397420319457822"><ele>568.0</ele><time>2026-04-19T14:43:34.999Z</time></trkpt><trkpt lat="42.9104465875025" lon="13.39754491454446"><ele>568.0</ele><time>2026-04-19T14:43:35.999Z</time></trkpt><trkpt lat="42.91054162617528" lon="13.397668425783337"><ele>568.0</ele><time>2026-04-19T14:43:36.999Z</time></trkpt><trkpt lat="42.910630903444535" lon="13.397797674400282"><ele>568.0</ele><time>2026-04-19T14:43:37.999Z</time></trkpt><trkpt lat="42.910703534112926" lon="13.397912133069237"><ele>567.0</ele><time>2026-04-19T14:43:38.999Z</time></trkpt><trkpt lat="42.91077923876121" lon="13.398038964366533"><ele>566.0</ele><time>2026-04-19T14:43:39.999Z</time></trkpt><trkpt lat="42.91085668072761" lon="13.398171970249571"><ele>565.0</ele><time>2026-04-19T14:43:40.999Z</time></trkpt><trkpt lat="42.91093232864321" lon="13.398303743983858"><ele>564.0</ele><time>2026-04-19T14:43:41.999Z</time></trkpt><trkpt lat="42.91101142793257" lon="13.398434667198995"><ele>564.0</ele><time>2026-04-19T14:43:42.999Z</time></trkpt><trkpt lat="42.9110947582937" lon="13.398558574705138"><ele>564.0</ele><time>2026-04-19T14:43:43.999Z</time></trkpt><trkpt lat="42.91117553382862" lon="13.398660973153193"><ele>564.0</ele><time>2026-04-19T14:43:44.999Z</time></trkpt><trkpt lat="42.91128137495494" lon="13.398727781282213"><ele>564.0</ele><time>2026-04-19T14:43:45.999Z</time></trkpt><trkpt lat="42.91139119905445" lon="13.39879414467565"><ele>561.75</ele><time>2026-04-19T14:43:46.999Z</time></trkpt><trkpt lat="42.911515593387854" lon="13.398843965586703"><ele>559.5</ele><time>2026-04-19T14:43:47.999Z</time></trkpt><trkpt lat="42.91165700358751" lon="13.398898502027373"><ele>557.25</ele><time>2026-04-19T14:43:48.999Z</time></trkpt><trkpt lat="42.91179687069015" lon="13.398970930757171"><ele>555.0</ele><time>2026-04-19T14:43:49.999Z</time></trkpt><trkpt lat="42.91193110416374" lon="13.399032969209578"><ele>555.0</ele><time>2026-04-19T14:43:50.999Z</time></trkpt><trkpt lat="42.91205846305654" lon="13.399095495640674"><ele>555.0</ele><time>2026-04-19T14:43:51.999Z</time></trkpt><trkpt lat="42.91217962723523" lon="13.39917970419101"><ele>555.0</ele><time>2026-04-19T14:43:52.999Z</time></trkpt><trkpt lat="42.912294793694855" lon="13.399282615691423"><ele>555.0</ele><time>2026-04-19T14:43:53.999Z</time></trkpt><trkpt lat="42.912401593982175" lon="13.399406868012864"><ele>555.0</ele><time>2026-04-19T14:43:54.999Z</time></trkpt><trkpt lat="42.91250919648845" lon="13.399541217867473"><ele>555.0</ele><time>2026-04-19T14:43:55.999Z</time></trkpt><trkpt lat="42.9126037819061" lon="13.399678955456313"><ele>555.0</ele><time>2026-04-19T14:43:56.999Z</time></trkpt><trkpt lat="42.91269473120589" lon="13.399823932112003"><ele>555.0</ele><time>2026-04-19T14:43:57.999Z</time></trkpt><trkpt lat="42.91277653300129" lon="13.399964283942927"><ele>556.0</ele><time>2026-04-19T14:43:58.999Z</time></trkpt><trkpt lat="42.912860234740506" lon="13.4001273683953"><ele>557.0</ele><time>2026-04-19T14:43:59.999Z</time></trkpt><trkpt lat="42.91293120145044" lon="13.400285906595201"><ele>558.0</ele><time>2026-04-19T14:44:00.999Z</time></trkpt><trkpt lat="42.91298873956549" lon="13.400453308827558"><ele>559.0</ele><time>2026-04-19T14:44:01.999Z</time></trkpt><trkpt lat="42.91302498430031" lon="13.400621916468248"><ele>555.75</ele><time>2026-04-19T14:44:02.999Z</time></trkpt><trkpt lat="42.913044036774274" lon="13.400792758507698"><ele>552.5</ele><time>2026-04-19T14:44:03.999Z</time></trkpt><trkpt lat="42.913069731885074" lon="13.400971880047038"><ele>549.25</ele><time>2026-04-19T14:44:04.999Z</time></trkpt><trkpt lat="42.91310817339209" lon="13.40115328650084"><ele>546.0</ele><time>2026-04-19T14:44:05.999Z</time></trkpt><trkpt lat="42.91317221785461" lon="13.401304898643826"><ele>546.0</ele><time>2026-04-19T14:44:06.999Z</time></trkpt><trkpt lat="42.91324434445556" lon="13.401440825894449"><ele>546.0</ele><time>2026-04-19T14:44:07.999Z</time></trkpt><trkpt lat="42.913336031598604" lon="13.401560293236837"><ele>546.0</ele><time>2026-04-19T14:44:08.999Z</time></trkpt><trkpt lat="42.91347338931216" lon="13.401653735881128"><ele>546.0</ele><time>2026-04-19T14:44:09.999Z</time></trkpt><trkpt lat="42.91363699186492" lon="13.401725772877796"><ele>546.0</ele><time>2026-04-19T14:44:10.999Z</time></trkpt><trkpt lat="42.91381183075812" lon="13.401778604039563"><ele>546.0</ele><time>2026-04-19T14:44:11.999Z</time></trkpt><trkpt lat="42.91399997170856" lon="13.401823214879967"><ele>546.0</ele><time>2026-04-19T14:44:12.999Z</time></trkpt><trkpt lat="42.91419783355727" lon="13.401865047266984"><ele>546.6666666666666</ele><time>2026-04-19T14:44:13.999Z</time></trkpt><trkpt lat="42.914393355071574" lon="13.401892513911601"><ele>547.3333333333333</ele><time>2026-04-19T14:44:14.999Z</time></trkpt><trkpt lat="42.91457455696583" lon="13.401931218837554"><ele>548.0</ele><time>2026-04-19T14:44:15.999Z</time></trkpt><trkpt lat="42.914740291487384" lon="13.40196341498782"><ele>548.0</ele><time>2026-04-19T14:44:16.999Z</time></trkpt><trkpt lat="42.91490666213462" lon="13.402005209137352"><ele>548.0</ele><time>2026-04-19T14:44:17.999Z</time></trkpt><trkpt lat="42.915079351058445" lon="13.402044682394907"><ele>548.0</ele><time>2026-04-19T14:44:18.999Z</time></trkpt><trkpt lat="42.915256490497455" lon="13.402077141565805"><ele>551.0</ele><time>2026-04-19T14:44:19.999Z</time></trkpt><trkpt lat="42.915449972959145" lon="13.402107865094315"><ele>554.0</ele><time>2026-04-19T14:44:20.999Z</time></trkpt><trkpt lat="42.915657134012285" lon="13.402149604481883"><ele>557.0</ele><time>2026-04-19T14:44:21.999Z</time></trkpt><trkpt lat="42.91589314221936" lon="13.402194056462339"><ele>549.0</ele><time>2026-04-19T14:44:22.999Z</time></trkpt><trkpt lat="42.91615138495074" lon="13.40224597326999"><ele>541.0</ele><time>2026-04-19T14:44:23.999Z</time></trkpt><trkpt lat="42.91643462835986" lon="13.402298744877541"><ele>541.0</ele><time>2026-04-19T14:44:24.999Z</time></trkpt><trkpt lat="42.91671500624089" lon="13.40235403318111"><ele>541.0</ele><time>2026-04-19T14:44:25.999Z</time></trkpt><trkpt lat="42.916996640064724" lon="13.402405093367621"><ele>541.5</ele><time>2026-04-19T14:44:26.999Z</time></trkpt><trkpt lat="42.91725714762698" lon="13.402453395152012"><ele>542.0</ele><time>2026-04-19T14:44:27.999Z</time></trkpt><trkpt lat="42.91749183519272" lon="13.402492174022859"><ele>545.0</ele><time>2026-04-19T14:44:28.999Z</time></trkpt><trkpt lat="42.91771187076233" lon="13.40253233393109"><ele>548.0</ele><time>2026-04-19T14:44:29.999Z</time></trkpt><trkpt lat="42.917911821815444" lon="13.40256733100553"><ele>551.0</ele><time>2026-04-19T14:44:30.999Z</time></trkpt><trkpt lat="42.91809624781701" lon="13.402608515245594"><ele>551.0</ele><time>2026-04-19T14:44:31.999Z</time></trkpt><trkpt lat="42.91828136212173" lon="13.402643603139696"><ele>551.0</ele><time>2026-04-19T14:44:32.999Z</time></trkpt><trkpt lat="42.91844320918702" lon="13.402730764519832"><ele>551.0</ele><time>2026-04-19T14:44:33.999Z</time></trkpt><trkpt lat="42.918588808452164" lon="13.40283441931752"><ele>549.0</ele><time>2026-04-19T14:44:34.999Z</time></trkpt><trkpt lat="42.91875790779693" lon="13.403003359147489"><ele>547.0</ele><time>2026-04-19T14:44:35.999Z</time></trkpt><trkpt lat="42.91892226080956" lon="13.403192921618546"><ele>545.0</ele><time>2026-04-19T14:44:36.999Z</time></trkpt><trkpt lat="42.919077769701865" lon="13.403361001633435"><ele>545.0</ele><time>2026-04-19T14:44:37.999Z</time></trkpt><trkpt lat="42.919228607767785" lon="13.40354654989554"><ele>545.0</ele><time>2026-04-19T14:44:38.999Z</time></trkpt><trkpt lat="42.91936150975255" lon="13.403737289565909"><ele>545.0</ele><time>2026-04-19T14:44:39.999Z</time></trkpt><trkpt lat="42.9195161044997" lon="13.40390867625612"><ele>543.3333333333333</ele><time>2026-04-19T14:44:40.999Z</time></trkpt><trkpt lat="42.91964633834061" lon="13.404087874879172"><ele>541.6666666666666</ele><time>2026-04-19T14:44:41.999Z</time></trkpt><trkpt lat="42.91977653060654" lon="13.404254952329769"><ele>540.0</ele><time>2026-04-19T14:44:42.999Z</time></trkpt><trkpt lat="42.91992603232782" lon="13.404444412710253"><ele>536.5</ele><time>2026-04-19T14:44:43.999Z</time></trkpt><trkpt lat="42.92009262274394" lon="13.404647551414547"><ele>533.0</ele><time>2026-04-19T14:44:44.999Z</time></trkpt><trkpt lat="42.920274307444316" lon="13.404854101550784"><ele>533.0</ele><time>2026-04-19T14:44:45.999Z</time></trkpt><trkpt lat="42.92046772310586" lon="13.405047252838235"><ele>533.0</ele><time>2026-04-19T14:44:46.999Z</time></trkpt><trkpt lat="42.920662739773434" lon="13.40521582460004"><ele>533.0</ele><time>2026-04-19T14:44:47.999Z</time></trkpt><trkpt lat="42.920860914321025" lon="13.405370392953964"><ele>533.0</ele><time>2026-04-19T14:44:48.999Z</time></trkpt><trkpt lat="42.921059559974125" lon="13.405512778678087"><ele>531.6666666666666</ele><time>2026-04-19T14:44:49.999Z</time></trkpt><trkpt lat="42.921251142662854" lon="13.405636225163521"><ele>530.3333333333334</ele><time>2026-04-19T14:44:50.999Z</time></trkpt><trkpt lat="42.921435451642225" lon="13.405749105346036"><ele>529.0</ele><time>2026-04-19T14:44:51.999Z</time></trkpt><trkpt lat="42.92161131600974" lon="13.40585954226543"><ele>531.6666666666667</ele><time>2026-04-19T14:44:52.999Z</time></trkpt><trkpt lat="42.921777343518066" lon="13.405971666317877"><ele>534.3333333333334</ele><time>2026-04-19T14:44:53.999Z</time></trkpt><trkpt lat="42.92193690176735" lon="13.406080817335656"><ele>537.0</ele><time>2026-04-19T14:44:54.999Z</time></trkpt><trkpt lat="42.92209526021628" lon="13.406186292518134"><ele>537.0</ele><time>2026-04-19T14:44:55.999Z</time></trkpt><trkpt lat="42.92225307304726" lon="13.406290228324563"><ele>537.0</ele><time>2026-04-19T14:44:56.999Z</time></trkpt><trkpt lat="42.92242188081557" lon="13.406404305030774"><ele>537.0</ele><time>2026-04-19T14:44:57.999Z</time></trkpt><trkpt lat="42.92258330741969" lon="13.406514991738096"><ele>533.6666666666666</ele><time>2026-04-19T14:44:58.999Z</time></trkpt><trkpt lat="42.922738513336746" lon="13.406624145874748"><ele>530.3333333333333</ele><time>2026-04-19T14:44:59.999Z</time></trkpt><trkpt lat="42.922882474343126" lon="13.40672773227649"><ele>527.0</ele><time>2026-04-19T14:45:00.999Z</time></trkpt><trkpt lat="42.92300733160967" lon="13.406826716214551"><ele>527.0</ele><time>2026-04-19T14:45:01.999Z</time></trkpt><trkpt lat="42.9231078346225" lon="13.406922454066695"><ele>527.0</ele><time>2026-04-19T14:45:02.999Z</time></trkpt><trkpt lat="42.92317423968323" lon="13.407006690076097"><ele>527.0</ele><time>2026-04-19T14:45:03.999Z</time></trkpt><trkpt lat="42.923249926224585" lon="13.407051981396236"><ele>527.0</ele><time>2026-04-19T14:45:05.999Z</time></trkpt><trkpt lat="42.92316782207474" lon="13.407354151274639"><ele>525.5</ele><time>2026-04-19T14:45:07.999Z</time></trkpt><trkpt lat="42.923116005740546" lon="13.407502232790915"><ele>524.0</ele><time>2026-04-19T14:45:08.999Z</time></trkpt><trkpt lat="42.923062133757696" lon="13.407675490468748"><ele>522.5</ele><time>2026-04-19T14:45:09.999Z</time></trkpt><trkpt lat="42.9229908064921" lon="13.407862500245871"><ele>521.0</ele><time>2026-04-19T14:45:10.999Z</time></trkpt><trkpt lat="42.92287788208926" lon="13.408045328753241"><ele>521.0</ele><time>2026-04-19T14:45:11.999Z</time></trkpt><trkpt lat="42.922740112265856" lon="13.408200667497566"><ele>521.0</ele><time>2026-04-19T14:45:12.999Z</time></trkpt><trkpt lat="42.92259409469712" lon="13.408355538094431"><ele>521.0</ele><time>2026-04-19T14:45:13.999Z</time></trkpt><trkpt lat="42.922452752930795" lon="13.40849730243204"><ele>521.6666666666666</ele><time>2026-04-19T14:45:14.999Z</time></trkpt><trkpt lat="42.922298977363724" lon="13.408650778689264"><ele>522.3333333333334</ele><time>2026-04-19T14:45:15.999Z</time></trkpt><trkpt lat="42.92214018144294" lon="13.408744634693946"><ele>523.0</ele><time>2026-04-19T14:45:16.999Z</time></trkpt><trkpt lat="42.9219909891859" lon="13.408786573292222"><ele>523.0</ele><time>2026-04-19T14:45:17.999Z</time></trkpt><trkpt lat="42.92185806989579" lon="13.408771047520247"><ele>523.0</ele><time>2026-04-19T14:45:18.999Z</time></trkpt><trkpt lat="42.92172799166861" lon="13.408678556142831"><ele>523.0</ele><time>2026-04-19T14:45:19.999Z</time></trkpt><trkpt lat="42.921584940210316" lon="13.408563070401145"><ele>523.0</ele><time>2026-04-19T14:45:20.999Z</time></trkpt><trkpt lat="42.92142289438589" lon="13.408437242834605"><ele>524.3333333333334</ele><time>2026-04-19T14:45:21.999Z</time></trkpt><trkpt lat="42.92124713698704" lon="13.40828954666355"><ele>525.6666666666666</ele><time>2026-04-19T14:45:22.998Z</time></trkpt><trkpt lat="42.92106996393925" lon="13.408126230883301"><ele>527.0</ele><time>2026-04-19T14:45:23.998Z</time></trkpt><trkpt lat="42.92089489028021" lon="13.407994931319006"><ele>526.8000000000001</ele><time>2026-04-19T14:45:24.998Z</time></trkpt><trkpt lat="42.92077592290963" lon="13.407861113269025"><ele>526.6</ele><time>2026-04-19T14:45:25.998Z</time></trkpt><trkpt lat="42.92068607585996" lon="13.40775644203066"><ele>526.4000000000001</ele><time>2026-04-19T14:45:26.998Z</time></trkpt><trkpt lat="42.92060110308045" lon="13.407715509763948"><ele>526.2</ele><time>2026-04-19T14:45:27.999Z</time></trkpt><trkpt lat="42.92052723971532" lon="13.407711743080633"><ele>526.0</ele><time>2026-04-19T14:45:28.999Z</time></trkpt><trkpt lat="42.92045509056418" lon="13.407791292652895"><ele>526.0</ele><time>2026-04-19T14:45:29.999Z</time></trkpt><trkpt lat="42.920450780715406" lon="13.407940967881053"><ele>526.0</ele><time>2026-04-19T14:45:30.999Z</time></trkpt><trkpt lat="42.9204778122501" lon="13.408056771061863"><ele>526.0</ele><time>2026-04-19T14:45:31.999Z</time></trkpt><trkpt lat="42.92054568598941" lon="13.408146356290803"><ele>526.0</ele><time>2026-04-19T14:45:32.999Z</time></trkpt><trkpt lat="42.9206446275858" lon="13.40823678901003"><ele>526.0</ele><time>2026-04-19T14:45:33.999Z</time></trkpt><trkpt lat="42.92075683590794" lon="13.408338720735696"><ele>526.3333333333334</ele><time>2026-04-19T14:45:34.999Z</time></trkpt><trkpt lat="42.92087533437551" lon="13.40848630029627"><ele>526.6666666666666</ele><time>2026-04-19T14:45:35.999Z</time></trkpt><trkpt lat="42.921000395657636" lon="13.408658987261107"><ele>527.0</ele><time>2026-04-19T14:45:36.999Z</time></trkpt><trkpt lat="42.921142601391274" lon="13.408832684044496"><ele>531.6666666666666</ele><time>2026-04-19T14:45:37.999Z</time></trkpt><trkpt lat="42.9212719491206" lon="13.409013232247192"><ele>536.3333333333334</ele><time>2026-04-19T14:45:38.999Z</time></trkpt><trkpt lat="42.92140028834706" lon="13.40917974104739"><ele>541.0</ele><time>2026-04-19T14:45:39.999Z</time></trkpt><trkpt lat="42.921524376471176" lon="13.409343843941368"><ele>541.0</ele><time>2026-04-19T14:45:40.999Z</time></trkpt><trkpt lat="42.92162823617901" lon="13.409487450226255"><ele>541.0</ele><time>2026-04-19T14:45:41.999Z</time></trkpt><trkpt lat="42.921737008362086" lon="13.409607981355904"><ele>541.0</ele><time>2026-04-19T14:45:42.999Z</time></trkpt><trkpt lat="42.921831917784054" lon="13.409709643184135"><ele>541.0</ele><time>2026-04-19T14:45:43.999Z</time></trkpt><trkpt lat="42.921885153815566" lon="13.409811470690684"><ele>543.0</ele><time>2026-04-19T14:45:44.999Z</time></trkpt><trkpt lat="42.92188575454162" lon="13.409914516295913"><ele>545.0</ele><time>2026-04-19T14:45:45.999Z</time></trkpt><trkpt lat="42.92183631398495" lon="13.409989891765246"><ele>547.0</ele><time>2026-04-19T14:45:46.999Z</time></trkpt><trkpt lat="42.92176226415539" lon="13.410021039277098"><ele>549.0</ele><time>2026-04-19T14:45:47.999Z</time></trkpt><trkpt lat="42.92168101071563" lon="13.409997055406357"><ele>551.0</ele><time>2026-04-19T14:45:48.999Z</time></trkpt><trkpt lat="42.921607427165746" lon="13.409890704616716"><ele>553.0</ele><time>2026-04-19T14:45:49.999Z</time></trkpt><trkpt lat="42.92148629084112" lon="13.409789126437934"><ele>554.0</ele><time>2026-04-19T14:45:50.999Z</time></trkpt><trkpt lat="42.92133787537897" lon="13.409687554838355"><ele>555.0</ele><time>2026-04-19T14:45:51.999Z</time></trkpt><trkpt lat="42.9211785623093" lon="13.409552948861645"><ele>556.0</ele><time>2026-04-19T14:45:52.999Z</time></trkpt><trkpt lat="42.92098384809884" lon="13.409435610525156"><ele>555.3333333333334</ele><time>2026-04-19T14:45:53.999Z</time></trkpt><trkpt lat="42.92081036802079" lon="13.409308061672881"><ele>554.6666666666666</ele><time>2026-04-19T14:45:54.999Z</time></trkpt><trkpt lat="42.92062387319053" lon="13.409145752191776"><ele>554.0</ele><time>2026-04-19T14:45:55.999Z</time></trkpt><trkpt lat="42.920455831302945" lon="13.408958019259607"><ele>553.0</ele><time>2026-04-19T14:45:56.999Z</time></trkpt><trkpt lat="42.9203242841592" lon="13.408789636835209"><ele>552.0</ele><time>2026-04-19T14:45:57.999Z</time></trkpt><trkpt lat="42.920176424180916" lon="13.408695017023764"><ele>551.0</ele><time>2026-04-19T14:45:58.999Z</time></trkpt><trkpt lat="42.92003582368801" lon="13.408608818185748"><ele>551.0</ele><time>2026-04-19T14:45:59.999Z</time></trkpt><trkpt lat="42.919818215345025" lon="13.408576701884417"><ele>551.0</ele><time>2026-04-19T14:46:00.999Z</time></trkpt><trkpt lat="42.91970748892514" lon="13.408611204568816"><ele>551.0</ele><time>2026-04-19T14:46:01.999Z</time></trkpt><trkpt lat="42.91961000105705" lon="13.40869239546884"><ele>551.0</ele><time>2026-04-19T14:46:02.999Z</time></trkpt><trkpt lat="42.919539516935885" lon="13.408840199062528"><ele>556.6666666666666</ele><time>2026-04-19T14:46:03.999Z</time></trkpt><trkpt lat="42.91947306957807" lon="13.40905018615219"><ele>562.3333333333334</ele><time>2026-04-19T14:46:04.999Z</time></trkpt><trkpt lat="42.91939981573569" lon="13.409268952088064"><ele>568.0</ele><time>2026-04-19T14:46:05.999Z</time></trkpt><trkpt lat="42.91932544205946" lon="13.409507823574906"><ele>569.6666666666667</ele><time>2026-04-19T14:46:06.999Z</time></trkpt><trkpt lat="42.91923035098531" lon="13.409727895686903"><ele>571.3333333333334</ele><time>2026-04-19T14:46:07.999Z</time></trkpt><trkpt lat="42.91913064847783" lon="13.409977495946274"><ele>573.0</ele><time>2026-04-19T14:46:08.999Z</time></trkpt><trkpt lat="42.91901711579852" lon="13.410222756620396"><ele>573.0</ele><time>2026-04-19T14:46:09.999Z</time></trkpt><trkpt lat="42.91889892381439" lon="13.410474800382227"><ele>573.0</ele><time>2026-04-19T14:46:10.999Z</time></trkpt><trkpt lat="42.9187758720333" lon="13.410738653611057"><ele>573.0</ele><time>2026-04-19T14:46:11.999Z</time></trkpt><trkpt lat="42.918650140877816" lon="13.411011198846975"><ele>583.0</ele><time>2026-04-19T14:46:12.999Z</time></trkpt><trkpt lat="42.91852633321901" lon="13.411285920110705"><ele>593.0</ele><time>2026-04-19T14:46:13.999Z</time></trkpt><trkpt lat="42.91840340038984" lon="13.411549228631765"><ele>595.0</ele><time>2026-04-19T14:46:14.999Z</time></trkpt><trkpt lat="42.91828104162903" lon="13.41180863332089"><ele>597.0</ele><time>2026-04-19T14:46:15.999Z</time></trkpt><trkpt lat="42.91816327271074" lon="13.412052520172923"><ele>599.0</ele><time>2026-04-19T14:46:16.999Z</time></trkpt><trkpt lat="42.91804925702622" lon="13.41227931808731"><ele>599.0</ele><time>2026-04-19T14:46:17.999Z</time></trkpt><trkpt lat="42.91795762371182" lon="13.412486278160483"><ele>599.0</ele><time>2026-04-19T14:46:18.999Z</time></trkpt><trkpt lat="42.917890482911936" lon="13.412698343077556"><ele>599.0</ele><time>2026-04-19T14:46:19.999Z</time></trkpt><trkpt lat="42.91785686330727" lon="13.4129331610125"><ele>599.6666666666666</ele><time>2026-04-19T14:46:20.999Z</time></trkpt><trkpt lat="42.91786990530114" lon="13.413180948529984"><ele>600.3333333333334</ele><time>2026-04-19T14:46:21.999Z</time></trkpt><trkpt lat="42.91792753154617" lon="13.413418661939195"><ele>601.0</ele><time>2026-04-19T14:46:22.999Z</time></trkpt><trkpt lat="42.91803137403133" lon="13.413631228768713"><ele>601.0</ele><time>2026-04-19T14:46:23.999Z</time></trkpt><trkpt lat="42.91817854547955" lon="13.413820251281944"><ele>601.0</ele><time>2026-04-19T14:46:24.999Z</time></trkpt><trkpt lat="42.9183393125387" lon="13.41401163424059"><ele>601.0</ele><time>2026-04-19T14:46:25.999Z</time></trkpt><trkpt lat="42.918493140616576" lon="13.414187945508425"><ele>604.0</ele><time>2026-04-19T14:46:26.999Z</time></trkpt><trkpt lat="42.91860266547002" lon="13.41434965247305"><ele>607.0</ele><time>2026-04-19T14:46:27.999Z</time></trkpt><trkpt lat="42.91869299335543" lon="13.414484253595939"><ele>610.0</ele><time>2026-04-19T14:46:28.999Z</time></trkpt><trkpt lat="42.91874583461365" lon="13.414603485252643"><ele>613.0</ele><time>2026-04-19T14:46:29.999Z</time></trkpt><trkpt lat="42.91875933539971" lon="13.414737352555536"><ele>613.0</ele><time>2026-04-19T14:46:30.999Z</time></trkpt><trkpt lat="42.91871848360055" lon="13.41488979102176"><ele>613.0</ele><time>2026-04-19T14:46:31.999Z</time></trkpt><trkpt lat="42.91863959801623" lon="13.414994749059069"><ele>613.0</ele><time>2026-04-19T14:46:32.999Z</time></trkpt><trkpt lat="42.918506616191124" lon="13.415015919496339"><ele>613.0</ele><time>2026-04-19T14:46:33.999Z</time></trkpt><trkpt lat="42.91835015303083" lon="13.41509026439711"><ele>606.3333333333334</ele><time>2026-04-19T14:46:34.999Z</time></trkpt><trkpt lat="42.918166316391265" lon="13.415125344653573"><ele>599.6666666666666</ele><time>2026-04-19T14:46:35.999Z</time></trkpt><trkpt lat="42.91799602551962" lon="13.415179913641774"><ele>593.0</ele><time>2026-04-19T14:46:36.999Z</time></trkpt><trkpt lat="42.91786270843259" lon="13.415262041292408"><ele>593.0</ele><time>2026-04-19T14:46:37.999Z</time></trkpt><trkpt lat="42.91774590772406" lon="13.415397860719755"><ele>593.0</ele><time>2026-04-19T14:46:38.999Z</time></trkpt><trkpt lat="42.91765884065773" lon="13.41560409413032"><ele>593.0</ele><time>2026-04-19T14:46:39.999Z</time></trkpt><trkpt lat="42.91759886079313" lon="13.415856083448174"><ele>593.0</ele><time>2026-04-19T14:46:40.999Z</time></trkpt><trkpt lat="42.91755228109108" lon="13.416103472246794"><ele>593.0</ele><time>2026-04-19T14:46:41.999Z</time></trkpt><trkpt lat="42.91747859734434" lon="13.416297111230737"><ele>593.0</ele><time>2026-04-19T14:46:42.999Z</time></trkpt><trkpt lat="42.91738320314797" lon="13.416429970748812"><ele>596.6666666666666</ele><time>2026-04-19T14:46:43.999Z</time></trkpt><trkpt lat="42.91725941918493" lon="13.416546290645387"><ele>600.3333333333334</ele><time>2026-04-19T14:46:44.999Z</time></trkpt><trkpt lat="42.917092486721444" lon="13.416662355660762"><ele>604.0</ele><time>2026-04-19T14:46:45.999Z</time></trkpt><trkpt lat="42.91689275819521" lon="13.416678075290454"><ele>601.0</ele><time>2026-04-19T14:46:46.999Z</time></trkpt><trkpt lat="42.9167279463808" lon="13.416750149952607"><ele>598.0</ele><time>2026-04-19T14:46:47.999Z</time></trkpt><trkpt lat="42.91656753348425" lon="13.416851655399883"><ele>595.0</ele><time>2026-04-19T14:46:48.999Z</time></trkpt><trkpt lat="42.91642910565275" lon="13.41701343243036"><ele>601.0</ele><time>2026-04-19T14:46:49.999Z</time></trkpt><trkpt lat="42.91632069808479" lon="13.41721094974485"><ele>607.0</ele><time>2026-04-19T14:46:50.999Z</time></trkpt><trkpt lat="42.91623584964822" lon="13.41741965572238"><ele>613.0</ele><time>2026-04-19T14:46:51.999Z</time></trkpt><trkpt lat="42.91617485757074" lon="13.417622970690843"><ele>613.0</ele><time>2026-04-19T14:46:52.999Z</time></trkpt><trkpt lat="42.916107803377365" lon="13.417815296726797"><ele>613.0</ele><time>2026-04-19T14:46:53.999Z</time></trkpt><trkpt lat="42.91600151979985" lon="13.41799874139468"><ele>613.0</ele><time>2026-04-19T14:46:54.999Z</time></trkpt><trkpt lat="42.91584911908754" lon="13.418176601007435"><ele>609.0</ele><time>2026-04-19T14:46:55.999Z</time></trkpt><trkpt lat="42.91565811841471" lon="13.418295511319824"><ele>605.0</ele><time>2026-04-19T14:46:56.999Z</time></trkpt><trkpt lat="42.91546469657506" lon="13.418431262611152"><ele>601.0</ele><time>2026-04-19T14:46:57.999Z</time></trkpt><trkpt lat="42.915271480588956" lon="13.418576468543474"><ele>601.0</ele><time>2026-04-19T14:46:58.999Z</time></trkpt><trkpt lat="42.91507402831028" lon="13.418685532080183"><ele>601.0</ele><time>2026-04-19T14:46:59.999Z</time></trkpt><trkpt lat="42.914876147349766" lon="13.418796331591079"><ele>601.0</ele><time>2026-04-19T14:47:00.999Z</time></trkpt><trkpt lat="42.91467804052054" lon="13.418889586190485"><ele>601.3333333333334</ele><time>2026-04-19T14:47:01.999Z</time></trkpt><trkpt lat="42.91446980969845" lon="13.418976532013083"><ele>601.6666666666666</ele><time>2026-04-19T14:47:02.999Z</time></trkpt><trkpt lat="42.91425769794522" lon="13.419060067346116"><ele>602.0</ele><time>2026-04-19T14:47:03.999Z</time></trkpt><trkpt lat="42.91404578385473" lon="13.419146576083234"><ele>615.6666666666666</ele><time>2026-04-19T14:47:04.999Z</time></trkpt><trkpt lat="42.9138287367156" lon="13.419204819586433"><ele>629.3333333333334</ele><time>2026-04-19T14:47:05.999Z</time></trkpt><trkpt lat="42.91361736432125" lon="13.419283330904555"><ele>643.0</ele><time>2026-04-19T14:47:06.999Z</time></trkpt><trkpt lat="42.91338950279828" lon="13.41936796708126"><ele>652.0</ele><time>2026-04-19T14:47:08.075Z</time></trkpt><trkpt lat="42.91318060885396" lon="13.419445557561357"><ele>661.0</ele><time>2026-04-19T14:47:09.061Z</time></trkpt><trkpt lat="42.911692737576516" lon="13.42002150855238"><ele>661.0</ele><time>2026-04-19T14:47:12.497Z</time></trkpt><trkpt lat="42.91125655825156" lon="13.420183141925593"><ele>670.5</ele><time>2026-04-19T14:47:13.502Z</time></trkpt><trkpt lat="42.91082384183039" lon="13.42034368782676"><ele>680.0</ele><time>2026-04-19T14:47:14.498Z</time></trkpt><trkpt lat="42.91038838529357" lon="13.42050653698622"><ele>688.0</ele><time>2026-04-19T14:47:15.502Z</time></trkpt><trkpt lat="42.90995556005047" lon="13.420668163275694"><ele>696.0</ele><time>2026-04-19T14:47:16.499Z</time></trkpt><trkpt lat="42.90952002945906" lon="13.420829341557893"><ele>720.0</ele><time>2026-04-19T14:47:17.502Z</time></trkpt><trkpt lat="42.90908578335954" lon="13.420990882371747"><ele>720.0</ele><time>2026-04-19T14:47:18.502Z</time></trkpt><trkpt lat="42.908887" lon="13.4210653"><ele>720.0</ele><time>2026-04-19T14:47:19.498Z</time></trkpt><trkpt lat="42.90054477951291" lon="13.42388415989481"><ele>642.5</ele><time>2026-04-19T14:47:55.999Z</time></trkpt><trkpt lat="42.90027182122539" lon="13.423944560036672"><ele>565.0</ele><time>2026-04-19T14:47:56.999Z</time></trkpt><trkpt lat="42.899960402224046" lon="13.4239832264209"><ele>561.0</ele><time>2026-04-19T14:47:57.999Z</time></trkpt><trkpt lat="42.899695670234735" lon="13.424058979426457"><ele>557.0</ele><time>2026-04-19T14:47:58.999Z</time></trkpt><trkpt lat="42.8994258341748" lon="13.42413673557412"><ele>555.5</ele><time>2026-04-19T14:47:59.999Z</time></trkpt><trkpt lat="42.899158105209644" lon="13.424225133960604"><ele>554.0</ele><time>2026-04-19T14:48:00.999Z</time></trkpt><trkpt lat="42.89890703745502" lon="13.424317182124847"><ele>554.0</ele><time>2026-04-19T14:48:02Z</time></trkpt><trkpt lat="42.89863944691289" lon="13.424424343572309"><ele>554.0</ele><time>2026-04-19T14:48:03Z</time></trkpt><trkpt lat="42.89837731199529" lon="13.424530416903753"><ele>552.5</ele><time>2026-04-19T14:48:04Z</time></trkpt><trkpt lat="42.898121989068606" lon="13.42463784377666"><ele>551.0</ele><time>2026-04-19T14:48:05Z</time></trkpt><trkpt lat="42.897860704358315" lon="13.424760644482635"><ele>554.0</ele><time>2026-04-19T14:48:06Z</time></trkpt><trkpt lat="42.89761294631147" lon="13.424862029020565"><ele>557.0</ele><time>2026-04-19T14:48:07Z</time></trkpt><trkpt lat="42.897343858445765" lon="13.425012324183882"><ele>549.5</ele><time>2026-04-19T14:48:08Z</time></trkpt><trkpt lat="42.89708991377586" lon="13.42515643636412"><ele>542.0</ele><time>2026-04-19T14:48:09Z</time></trkpt><trkpt lat="42.89683678789631" lon="13.425304053351677"><ele>539.5</ele><time>2026-04-19T14:48:10Z</time></trkpt><trkpt lat="42.896593760644" lon="13.425469162727413"><ele>537.0</ele><time>2026-04-19T14:48:11Z</time></trkpt><trkpt lat="42.896336943199145" lon="13.42561979521291"><ele>535.0</ele><time>2026-04-19T14:48:12Z</time></trkpt><trkpt lat="42.896086878198105" lon="13.425780492631615"><ele>533.0</ele><time>2026-04-19T14:48:13Z</time></trkpt><trkpt lat="42.89583462441165" lon="13.425941674285784"><ele>529.5</ele><time>2026-04-19T14:48:14Z</time></trkpt><trkpt lat="42.89558642869658" lon="13.42610402252537"><ele>526.0</ele><time>2026-04-19T14:48:15Z</time></trkpt><trkpt lat="42.89533533983573" lon="13.426263109208328"><ele>524.5</ele><time>2026-04-19T14:48:16Z</time></trkpt><trkpt lat="42.89508619859517" lon="13.426424473635482"><ele>523.0</ele><time>2026-04-19T14:48:17Z</time></trkpt><trkpt lat="42.89483595681653" lon="13.426586420079408"><ele>523.0</ele><time>2026-04-19T14:48:18Z</time></trkpt><trkpt lat="42.894590837157054" lon="13.426750023530373"><ele>523.0</ele><time>2026-04-19T14:48:19Z</time></trkpt><trkpt lat="42.89434304194441" lon="13.426914517816675"><ele>522.5</ele><time>2026-04-19T14:48:20Z</time></trkpt><trkpt lat="42.894095378677555" lon="13.427079427834745"><ele>522.0</ele><time>2026-04-19T14:48:21Z</time></trkpt><trkpt lat="42.89385158522508" lon="13.427242099078569"><ele>522.0</ele><time>2026-04-19T14:48:22Z</time></trkpt><trkpt lat="42.8936174125246" lon="13.427390246790482"><ele>522.0</ele><time>2026-04-19T14:48:23Z</time></trkpt><trkpt lat="42.89339517402704" lon="13.42753415328741"><ele>516.5</ele><time>2026-04-19T14:48:24Z</time></trkpt><trkpt lat="42.89318134167759" lon="13.427670092585535"><ele>511.0</ele><time>2026-04-19T14:48:25Z</time></trkpt><trkpt lat="42.8929756379096" lon="13.427802675388259"><ele>511.0</ele><time>2026-04-19T14:48:26Z</time></trkpt><trkpt lat="42.89277794024458" lon="13.42793070334709"><ele>511.0</ele><time>2026-04-19T14:48:27Z</time></trkpt><trkpt lat="42.89258871762943" lon="13.428054182168838"><ele>511.0</ele><time>2026-04-19T14:48:28Z</time></trkpt><trkpt lat="42.89239695724553" lon="13.42816966837727"><ele>509.0</ele><time>2026-04-19T14:48:29Z</time></trkpt><trkpt lat="42.89218996226359" lon="13.428286518009036"><ele>507.0</ele><time>2026-04-19T14:48:30Z</time></trkpt><trkpt lat="42.891975411906" lon="13.428402202602182"><ele>503.0</ele><time>2026-04-19T14:48:31Z</time></trkpt><trkpt lat="42.89174689351077" lon="13.428484953841199"><ele>499.0</ele><time>2026-04-19T14:48:32Z</time></trkpt><trkpt lat="42.89151722780682" lon="13.428566087829786"><ele>499.0</ele><time>2026-04-19T14:48:33Z</time></trkpt><trkpt lat="42.89128522596367" lon="13.42862891873014"><ele>499.0</ele><time>2026-04-19T14:48:34Z</time></trkpt><trkpt lat="42.89105216531675" lon="13.428661124005636"><ele>494.0</ele><time>2026-04-19T14:48:35Z</time></trkpt><trkpt lat="42.890815357743925" lon="13.428676237184856"><ele>489.0</ele><time>2026-04-19T14:48:36Z</time></trkpt><trkpt lat="42.89057532674635" lon="13.428671885854977"><ele>489.0</ele><time>2026-04-19T14:48:37Z</time></trkpt><trkpt lat="42.89034505829721" lon="13.428646919989417"><ele>489.0</ele><time>2026-04-19T14:48:38Z</time></trkpt><trkpt lat="42.89011610093959" lon="13.42861150563256"><ele>488.0</ele><time>2026-04-19T14:48:39Z</time></trkpt><trkpt lat="42.88989324696714" lon="13.428554578737307"><ele>487.0</ele><time>2026-04-19T14:48:40Z</time></trkpt><trkpt lat="42.88966865808694" lon="13.428493837893086"><ele>487.0</ele><time>2026-04-19T14:48:41Z</time></trkpt><trkpt lat="42.889435807954705" lon="13.428445744002397"><ele>487.0</ele><time>2026-04-19T14:48:42Z</time></trkpt><trkpt lat="42.88920869896453" lon="13.42837311005028"><ele>485.5</ele><time>2026-04-19T14:48:43Z</time></trkpt><trkpt lat="42.88898079119192" lon="13.428307088795428"><ele>484.0</ele><time>2026-04-19T14:48:44Z</time></trkpt><trkpt lat="42.88875851966204" lon="13.428246704081806"><ele>484.0</ele><time>2026-04-19T14:48:45Z</time></trkpt><trkpt lat="42.88854231324054" lon="13.428185295547188"><ele>484.0</ele><time>2026-04-19T14:48:46Z</time></trkpt><trkpt lat="42.88832738315905" lon="13.428118781792076"><ele>484.0</ele><time>2026-04-19T14:48:47Z</time></trkpt><trkpt lat="42.88811287057115" lon="13.428049104697083"><ele>483.33333333333337</ele><time>2026-04-19T14:48:48Z</time></trkpt><trkpt lat="42.887898763531204" lon="13.42798027068798"><ele>482.66666666666663</ele><time>2026-04-19T14:48:49Z</time></trkpt><trkpt lat="42.88768687415467" lon="13.427912202661576"><ele>482.0</ele><time>2026-04-19T14:48:50Z</time></trkpt><trkpt lat="42.88746546975414" lon="13.427843267975492"><ele>480.5</ele><time>2026-04-19T14:48:51Z</time></trkpt><trkpt lat="42.88724576245442" lon="13.427778803874654"><ele>479.0</ele><time>2026-04-19T14:48:52Z</time></trkpt><trkpt lat="42.88701657368507" lon="13.427712688079577"><ele>479.0</ele><time>2026-04-19T14:48:53Z</time></trkpt><trkpt lat="42.886786852559624" lon="13.427643232661714"><ele>479.0</ele><time>2026-04-19T14:48:54Z</time></trkpt><trkpt lat="42.886556965649326" lon="13.427567373872684"><ele>475.0</ele><time>2026-04-19T14:48:55Z</time></trkpt><trkpt lat="42.88632832629191" lon="13.42749808709497"><ele>471.0</ele><time>2026-04-19T14:48:56Z</time></trkpt><trkpt lat="42.886093251101094" lon="13.427428469392794"><ele>467.5</ele><time>2026-04-19T14:48:57Z</time></trkpt><trkpt lat="42.88585799955133" lon="13.427361074369596"><ele>464.0</ele><time>2026-04-19T14:48:58Z</time></trkpt><trkpt lat="42.88561471829963" lon="13.427298683911534"><ele>464.0</ele><time>2026-04-19T14:48:59Z</time></trkpt><trkpt lat="42.88535909499431" lon="13.427236674024712"><ele>464.0</ele><time>2026-04-19T14:49:00Z</time></trkpt><trkpt lat="42.885099867208304" lon="13.427184247752171"><ele>461.0</ele><time>2026-04-19T14:49:01Z</time></trkpt><trkpt lat="42.8848229477744" lon="13.427148187621272"><ele>458.0</ele><time>2026-04-19T14:49:02Z</time></trkpt><trkpt lat="42.884527705914984" lon="13.427130908560834"><ele>462.0</ele><time>2026-04-19T14:49:03Z</time></trkpt><trkpt lat="42.88422459919916" lon="13.427136801780524"><ele>466.0</ele><time>2026-04-19T14:49:04Z</time></trkpt><trkpt lat="42.883930147089906" lon="13.427136055514634"><ele>466.0</ele><time>2026-04-19T14:49:05Z</time></trkpt><trkpt lat="42.88364634819676" lon="13.427139615675944"><ele>466.0</ele><time>2026-04-19T14:49:06Z</time></trkpt><trkpt lat="42.88336518020835" lon="13.427149378766345"><ele>458.0</ele><time>2026-04-19T14:49:07Z</time></trkpt><trkpt lat="42.883092760143114" lon="13.427349069207459"><ele>450.0</ele><time>2026-04-19T14:49:08Z</time></trkpt><trkpt lat="42.88282089128627" lon="13.427448330382942"><ele>450.5</ele><time>2026-04-19T14:49:09Z</time></trkpt><trkpt lat="42.88255273580902" lon="13.427560214393793"><ele>451.0</ele><time>2026-04-19T14:49:10Z</time></trkpt><trkpt lat="42.88229387491079" lon="13.427692015859813"><ele>451.0</ele><time>2026-04-19T14:49:11Z</time></trkpt><trkpt lat="42.88203311278952" lon="13.427842559940562"><ele>451.0</ele><time>2026-04-19T14:49:12Z</time></trkpt><trkpt lat="42.88176687298666" lon="13.428003839721352"><ele>447.0</ele><time>2026-04-19T14:49:13Z</time></trkpt><trkpt lat="42.88150741419657" lon="13.42816786819748"><ele>443.0</ele><time>2026-04-19T14:49:14Z</time></trkpt><trkpt lat="42.8812574416753" lon="13.428326348048591"><ele>443.0</ele><time>2026-04-19T14:49:15Z</time></trkpt><trkpt lat="42.88101865920035" lon="13.428479440798341"><ele>443.0</ele><time>2026-04-19T14:49:16Z</time></trkpt><trkpt lat="42.880790358556204" lon="13.428624457837943"><ele>441.0</ele><time>2026-04-19T14:49:17Z</time></trkpt><trkpt lat="42.88056802403779" lon="13.428761167611471"><ele>439.0</ele><time>2026-04-19T14:49:18Z</time></trkpt><trkpt lat="42.88035178724234" lon="13.42889335144859"><ele>439.0</ele><time>2026-04-19T14:49:19Z</time></trkpt><trkpt lat="42.88013962533649" lon="13.429019143772832"><ele>439.0</ele><time>2026-04-19T14:49:20Z</time></trkpt><trkpt lat="42.879923455495785" lon="13.429144173751151"><ele>436.0</ele><time>2026-04-19T14:49:21Z</time></trkpt><trkpt lat="42.8797137374895" lon="13.429273196615638"><ele>433.0</ele><time>2026-04-19T14:49:22Z</time></trkpt><trkpt lat="42.87950312766121" lon="13.429405012049461"><ele>433.0</ele><time>2026-04-19T14:49:23Z</time></trkpt><trkpt lat="42.87929100956289" lon="13.429537237468997"><ele>433.0</ele><time>2026-04-19T14:49:24Z</time></trkpt><trkpt lat="42.87908380380017" lon="13.429663863233266"><ele>435.5</ele><time>2026-04-19T14:49:25Z</time></trkpt><trkpt lat="42.87887353279946" lon="13.429795214382136"><ele>438.0</ele><time>2026-04-19T14:49:26Z</time></trkpt><trkpt lat="42.8786700898233" lon="13.429924302917149"><ele>438.0</ele><time>2026-04-19T14:49:27Z</time></trkpt><trkpt lat="42.87847225404327" lon="13.43006562606995"><ele>438.0</ele><time>2026-04-19T14:49:28Z</time></trkpt><trkpt lat="42.87827887904759" lon="13.430225028405072"><ele>438.0</ele><time>2026-04-19T14:49:29Z</time></trkpt><trkpt lat="42.878091744226715" lon="13.430396466049126"><ele>437.0</ele><time>2026-04-19T14:49:30Z</time></trkpt><trkpt lat="42.87790840269017" lon="13.430583961636836"><ele>436.0</ele><time>2026-04-19T14:49:31Z</time></trkpt><trkpt lat="42.87773500172531" lon="13.430787568639131"><ele>427.5</ele><time>2026-04-19T14:49:32Z</time></trkpt><trkpt lat="42.877567129550435" lon="13.431004523042636"><ele>419.0</ele><time>2026-04-19T14:49:33Z</time></trkpt><trkpt lat="42.87740953920748" lon="13.431234491791994"><ele>419.0</ele><time>2026-04-19T14:49:34Z</time></trkpt><trkpt lat="42.87726453184194" lon="13.431479427115331"><ele>419.0</ele><time>2026-04-19T14:49:35Z</time></trkpt><trkpt lat="42.877129248245545" lon="13.431741271454896"><ele>419.0</ele><time>2026-04-19T14:49:36Z</time></trkpt><trkpt lat="42.877002938871954" lon="13.432008561294229"><ele>419.0</ele><time>2026-04-19T14:49:37Z</time></trkpt><trkpt lat="42.87688768569452" lon="13.432286112790731"><ele>418.5</ele><time>2026-04-19T14:49:38Z</time></trkpt><trkpt lat="42.87678894978915" lon="13.432573525537455"><ele>418.0</ele><time>2026-04-19T14:49:39Z</time></trkpt><trkpt lat="42.87669825876211" lon="13.432875035454023"><ele>419.5</ele><time>2026-04-19T14:49:40Z</time></trkpt><trkpt lat="42.87662465073678" lon="13.433183326838858"><ele>421.0</ele><time>2026-04-19T14:49:41Z</time></trkpt><trkpt lat="42.87656216815161" lon="13.433505128781265"><ele>417.5</ele><time>2026-04-19T14:49:42Z</time></trkpt><trkpt lat="42.876514664845416" lon="13.433830715874462"><ele>414.0</ele><time>2026-04-19T14:49:43Z</time></trkpt><trkpt lat="42.87647142449425" lon="13.434157673897511"><ele>414.0</ele><time>2026-04-19T14:49:44Z</time></trkpt><trkpt lat="42.8764322193271" lon="13.434485774171575"><ele>414.0</ele><time>2026-04-19T14:49:45Z</time></trkpt><trkpt lat="42.87639654565995" lon="13.434812177114038"><ele>414.0</ele><time>2026-04-19T14:49:46Z</time></trkpt><trkpt lat="42.87636484505122" lon="13.435150468195406"><ele>414.0</ele><time>2026-04-19T14:49:47Z</time></trkpt><trkpt lat="42.87633825821041" lon="13.43549816758788"><ele>410.5</ele><time>2026-04-19T14:49:48Z</time></trkpt><trkpt lat="42.87631843588967" lon="13.435858301212868"><ele>407.0</ele><time>2026-04-19T14:49:49Z</time></trkpt><trkpt lat="42.87630289839874" lon="13.436224213286383"><ele>405.5</ele><time>2026-04-19T14:49:50Z</time></trkpt><trkpt lat="42.8762972156216" lon="13.436575447446256"><ele>404.0</ele><time>2026-04-19T14:49:51Z</time></trkpt><trkpt lat="42.876293855564114" lon="13.436904019780801"><ele>402.66666666666663</ele><time>2026-04-19T14:49:52Z</time></trkpt><trkpt lat="42.8762907494394" lon="13.437208802130582"><ele>401.33333333333337</ele><time>2026-04-19T14:49:53Z</time></trkpt><trkpt lat="42.8762853511342" lon="13.437493672975698"><ele>400.0</ele><time>2026-04-19T14:49:54Z</time></trkpt><trkpt lat="42.876279046832884" lon="13.437765558065143"><ele>401.6666666666667</ele><time>2026-04-19T14:49:55Z</time></trkpt><trkpt lat="42.87627240498542" lon="13.438021794832745"><ele>403.33333333333337</ele><time>2026-04-19T14:49:56Z</time></trkpt><trkpt lat="42.87626766686346" lon="13.438255978167701"><ele>405.0</ele><time>2026-04-19T14:49:57Z</time></trkpt><trkpt lat="42.87626287959681" lon="13.438477013611228"><ele>405.0</ele><time>2026-04-19T14:49:58Z</time></trkpt><trkpt lat="42.8762588570885" lon="13.438685058706906"><ele>405.0</ele><time>2026-04-19T14:49:59Z</time></trkpt><trkpt lat="42.87625186066374" lon="13.438888785888391"><ele>405.0</ele><time>2026-04-19T14:50:00Z</time></trkpt><trkpt lat="42.876240844688866" lon="13.43908671442869"><ele>405.0</ele><time>2026-04-19T14:50:01Z</time></trkpt><trkpt lat="42.87622199433178" lon="13.439291822100829"><ele>409.0</ele><time>2026-04-19T14:50:02Z</time></trkpt><trkpt lat="42.87619788422893" lon="13.439502530800057"><ele>413.0</ele><time>2026-04-19T14:50:03Z</time></trkpt><trkpt lat="42.87616785191679" lon="13.439717112083224"><ele>417.0</ele><time>2026-04-19T14:50:04Z</time></trkpt><trkpt lat="42.87613295346558" lon="13.439933894045026"><ele>423.0</ele><time>2026-04-19T14:50:05Z</time></trkpt><trkpt lat="42.87608859656923" lon="13.440145952521036"><ele>429.0</ele><time>2026-04-19T14:50:06Z</time></trkpt><trkpt lat="42.87604180609663" lon="13.440362796020926"><ele>435.0</ele><time>2026-04-19T14:50:07Z</time></trkpt><trkpt lat="42.87598476867524" lon="13.440576122417875"><ele>423.66666666666663</ele><time>2026-04-19T14:50:08Z</time></trkpt><trkpt lat="42.87591724801885" lon="13.440788864003967"><ele>412.3333333333333</ele><time>2026-04-19T14:50:09Z</time></trkpt><trkpt lat="42.87584533181916" lon="13.44099506370381"><ele>401.0</ele><time>2026-04-19T14:50:10Z</time></trkpt><trkpt lat="42.87576464534174" lon="13.44120301261517"><ele>404.66666666666663</ele><time>2026-04-19T14:50:11Z</time></trkpt><trkpt lat="42.875674514117826" lon="13.441406446075161"><ele>408.33333333333337</ele><time>2026-04-19T14:50:12Z</time></trkpt><trkpt lat="42.87557036842587" lon="13.441604013573043"><ele>412.0</ele><time>2026-04-19T14:50:13Z</time></trkpt><trkpt lat="42.87546013301372" lon="13.44179792372628"><ele>412.0</ele><time>2026-04-19T14:50:14Z</time></trkpt><trkpt lat="42.87533207184884" lon="13.441976648081209"><ele>412.0</ele><time>2026-04-19T14:50:15Z</time></trkpt><trkpt lat="42.87521436065691" lon="13.44218338102287"><ele>412.0</ele><time>2026-04-19T14:50:16Z</time></trkpt><trkpt lat="42.87506739993182" lon="13.44237855148325"><ele>417.5</ele><time>2026-04-19T14:50:17Z</time></trkpt><trkpt lat="42.87491347958357" lon="13.442595770481699"><ele>423.0</ele><time>2026-04-19T14:50:18Z</time></trkpt><trkpt lat="42.874759769333316" lon="13.442830344608176"><ele>440.5</ele><time>2026-04-19T14:50:19Z</time></trkpt><trkpt lat="42.87457384884138" lon="13.443032013876907"><ele>458.0</ele><time>2026-04-19T14:50:20Z</time></trkpt><trkpt lat="42.87438669480707" lon="13.443229210675694"><ele>451.3333333333333</ele><time>2026-04-19T14:50:21Z</time></trkpt><trkpt lat="42.874199408703326" lon="13.443401905833484"><ele>444.66666666666663</ele><time>2026-04-19T14:50:22Z</time></trkpt><trkpt lat="42.87400834246898" lon="13.443556076831252"><ele>438.0</ele><time>2026-04-19T14:50:23Z</time></trkpt><trkpt lat="42.873815932671036" lon="13.443691337141752"><ele>443.5</ele><time>2026-04-19T14:50:24Z</time></trkpt><trkpt lat="42.873602123018394" lon="13.443818140154479"><ele>449.0</ele><time>2026-04-19T14:50:25.065Z</time></trkpt><trkpt lat="42.87339699652418" lon="13.443922591928636"><ele>449.0</ele><time>2026-04-19T14:50:26.058Z</time></trkpt><trkpt lat="42.87320182029682" lon="13.444002060238633"><ele>449.0</ele><time>2026-04-19T14:50:27.057Z</time></trkpt><trkpt lat="42.8717066434045" lon="13.444132309827113"><ele>421.0</ele><time>2026-04-19T14:50:30.502Z</time></trkpt><trkpt lat="42.87125887548163" lon="13.444069585125971"><ele>413.5</ele><time>2026-04-19T14:50:31.502Z</time></trkpt><trkpt lat="42.87081039708363" lon="13.44405000823808"><ele>406.0</ele><time>2026-04-19T14:50:32.501Z</time></trkpt><trkpt lat="42.86981679515453" lon="13.444781085359617"><ele>399.0</ele><time>2026-04-19T14:50:47Z</time></trkpt><trkpt lat="42.86971091659604" lon="13.444945458413141"><ele>392.0</ele><time>2026-04-19T14:50:48Z</time></trkpt><trkpt lat="42.86951658710561" lon="13.445017813381085"><ele>385.0</ele><time>2026-04-19T14:50:49Z</time></trkpt><trkpt lat="42.869539963994306" lon="13.445363693595956"><ele>384.6666666666667</ele><time>2026-04-19T14:50:50Z</time></trkpt><trkpt lat="42.869455721906995" lon="13.44555288578827"><ele>384.33333333333337</ele><time>2026-04-19T14:50:51Z</time></trkpt><trkpt lat="42.86940239509389" lon="13.445804963806829"><ele>384.0</ele><time>2026-04-19T14:50:52Z</time></trkpt><trkpt lat="42.86929751068099" lon="13.445971997735672"><ele>380.25</ele><time>2026-04-19T14:50:53Z</time></trkpt><trkpt lat="42.86917014607017" lon="13.4460697842525"><ele>376.5</ele><time>2026-04-19T14:50:54Z</time></trkpt><trkpt lat="42.869041271876256" lon="13.446127344146229"><ele>372.75</ele><time>2026-04-19T14:50:55Z</time></trkpt><trkpt lat="42.868906951331816" lon="13.446178994723882"><ele>369.0</ele><time>2026-04-19T14:50:56Z</time></trkpt><trkpt lat="42.86877868571034" lon="13.446246390792915"><ele>370.5</ele><time>2026-04-19T14:50:57Z</time></trkpt><trkpt lat="42.86867971536884" lon="13.446340543304734"><ele>372.0</ele><time>2026-04-19T14:50:58Z</time></trkpt><trkpt lat="42.86856690427711" lon="13.446470031760569"><ele>373.5</ele><time>2026-04-19T14:50:59Z</time></trkpt><trkpt lat="42.86849246075135" lon="13.446621128083107"><ele>375.0</ele><time>2026-04-19T14:51:00Z</time></trkpt><trkpt lat="42.86844421931087" lon="13.446795779022189"><ele>373.5</ele><time>2026-04-19T14:51:01Z</time></trkpt><trkpt lat="42.868420994180454" lon="13.446980263689504"><ele>372.0</ele><time>2026-04-19T14:51:02Z</time></trkpt><trkpt lat="42.868417230329236" lon="13.447178496102232"><ele>370.5</ele><time>2026-04-19T14:51:03Z</time></trkpt><trkpt lat="42.86843848472599" lon="13.44737476231212"><ele>369.0</ele><time>2026-04-19T14:51:04Z</time></trkpt><trkpt lat="42.86846709572575" lon="13.447570410297757"><ele>369.0</ele><time>2026-04-19T14:51:05Z</time></trkpt><trkpt lat="42.86849784901297" lon="13.44776224039655"><ele>369.0</ele><time>2026-04-19T14:51:06Z</time></trkpt><trkpt lat="42.86854369708594" lon="13.447935177363416"><ele>369.0</ele><time>2026-04-19T14:51:07Z</time></trkpt><trkpt lat="42.86860914208736" lon="13.448093567678429"><ele>369.0</ele><time>2026-04-19T14:51:08Z</time></trkpt><trkpt lat="42.868693348162715" lon="13.448250564714437"><ele>366.0</ele><time>2026-04-19T14:51:09Z</time></trkpt><trkpt lat="42.86879893752104" lon="13.448429807662961"><ele>363.0</ele><time>2026-04-19T14:51:10Z</time></trkpt><trkpt lat="42.868903375801956" lon="13.448628000522266"><ele>360.0</ele><time>2026-04-19T14:51:11Z</time></trkpt><trkpt lat="42.86901330508155" lon="13.448828059312982"><ele>359.6666666666667</ele><time>2026-04-19T14:51:12Z</time></trkpt><trkpt lat="42.869125577397014" lon="13.449034611395858"><ele>359.33333333333337</ele><time>2026-04-19T14:51:13Z</time></trkpt><trkpt lat="42.869244321803976" lon="13.449253373855788"><ele>359.0</ele><time>2026-04-19T14:51:14Z</time></trkpt><trkpt lat="42.86936136045342" lon="13.449462435628183"><ele>356.0</ele><time>2026-04-19T14:51:15Z</time></trkpt><trkpt lat="42.869469867747114" lon="13.449657341954591"><ele>353.0</ele><time>2026-04-19T14:51:16Z</time></trkpt><trkpt lat="42.86957398016966" lon="13.449845934168081"><ele>350.0</ele><time>2026-04-19T14:51:17Z</time></trkpt><trkpt lat="42.86967438597188" lon="13.450029945601033"><ele>350.0</ele><time>2026-04-19T14:51:18Z</time></trkpt><trkpt lat="42.86978456918382" lon="13.450218035776434"><ele>350.0</ele><time>2026-04-19T14:51:19Z</time></trkpt><trkpt lat="42.86989738183636" lon="13.45043246162981"><ele>350.0</ele><time>2026-04-19T14:51:20Z</time></trkpt><trkpt lat="42.869969582632315" lon="13.45068441153585"><ele>349.0</ele><time>2026-04-19T14:51:21Z</time></trkpt><trkpt lat="42.87005346600626" lon="13.450957781198165"><ele>348.0</ele><time>2026-04-19T14:51:22Z</time></trkpt><trkpt lat="42.87014010201896" lon="13.451224913345731"><ele>347.0</ele><time>2026-04-19T14:51:23Z</time></trkpt><trkpt lat="42.87022417214475" lon="13.45145808829713"><ele>347.0</ele><time>2026-04-19T14:51:24Z</time></trkpt><trkpt lat="42.87027698899658" lon="13.451670611388822"><ele>347.0</ele><time>2026-04-19T14:51:25Z</time></trkpt><trkpt lat="42.870345009055725" lon="13.451840510712577"><ele>347.0</ele><time>2026-04-19T14:51:26Z</time></trkpt><trkpt lat="42.87039598455455" lon="13.4519966835235"><ele>347.0</ele><time>2026-04-19T14:51:27Z</time></trkpt><trkpt lat="42.870446322627444" lon="13.452144895790296"><ele>343.8</ele><time>2026-04-19T14:51:28Z</time></trkpt><trkpt lat="42.87051238844708" lon="13.452264441778366"><ele>340.6</ele><time>2026-04-19T14:51:29Z</time></trkpt><trkpt lat="42.87059281313959" lon="13.452325191363236"><ele>337.40000000000003</ele><time>2026-04-19T14:51:30Z</time></trkpt><trkpt lat="42.87069489498504" lon="13.45233476965096"><ele>334.20000000000005</ele><time>2026-04-19T14:51:31Z</time></trkpt><trkpt lat="42.87080249273295" lon="13.452305160820359"><ele>331.0</ele><time>2026-04-19T14:51:32Z</time></trkpt><trkpt lat="42.87091577106535" lon="13.452292879772417"><ele>337.0</ele><time>2026-04-19T14:51:33Z</time></trkpt><trkpt lat="42.87103644451405" lon="13.452306689274298"><ele>343.0</ele><time>2026-04-19T14:51:34Z</time></trkpt><trkpt lat="42.87114495632688" lon="13.45236621318867"><ele>349.0</ele><time>2026-04-19T14:51:35Z</time></trkpt><trkpt lat="42.87121631173253" lon="13.45245955571607"><ele>355.0</ele><time>2026-04-19T14:51:36Z</time></trkpt><trkpt lat="42.871234427782504" lon="13.452562994313908"><ele>361.0</ele><time>2026-04-19T14:51:37Z</time></trkpt><trkpt lat="42.87122908390091" lon="13.452709928258544"><ele>361.0</ele><time>2026-04-19T14:51:38Z</time></trkpt><trkpt lat="42.871179231783216" lon="13.452814735652712"><ele>361.0</ele><time>2026-04-19T14:51:39Z</time></trkpt><trkpt lat="42.87108312712488" lon="13.452860202097849"><ele>361.0</ele><time>2026-04-19T14:51:40Z</time></trkpt><trkpt lat="42.870941797014076" lon="13.452976114289262"><ele>361.0</ele><time>2026-04-19T14:51:41Z</time></trkpt><trkpt lat="42.87076514299769" lon="13.453089218114684"><ele>352.0</ele><time>2026-04-19T14:51:42Z</time></trkpt><trkpt lat="42.870624988390084" lon="13.453244836791193"><ele>343.0</ele><time>2026-04-19T14:51:43Z</time></trkpt><trkpt lat="42.87052767000626" lon="13.453361127497026"><ele>334.0</ele><time>2026-04-19T14:51:44Z</time></trkpt><trkpt lat="42.87043245405229" lon="13.453466022831849"><ele>325.0</ele><time>2026-04-19T14:51:45Z</time></trkpt><trkpt lat="42.87035369842599" lon="13.453560776363092"><ele>325.0</ele><time>2026-04-19T14:51:46Z</time></trkpt><trkpt lat="42.87029040161513" lon="13.453630997229642"><ele>325.0</ele><time>2026-04-19T14:51:47Z</time></trkpt><trkpt lat="42.87025919994615" lon="13.453730952579797"><ele>325.0</ele><time>2026-04-19T14:51:48Z</time></trkpt><trkpt lat="42.87022485885968" lon="13.45383186940544"><ele>325.0</ele><time>2026-04-19T14:51:49Z</time></trkpt><trkpt lat="42.87032106300534" lon="13.454049710533816"><ele>325.0</ele><time>2026-04-19T14:51:50Z</time></trkpt><trkpt lat="42.870408132819094" lon="13.454153067707457"><ele>325.75</ele><time>2026-04-19T14:51:51Z</time></trkpt><trkpt lat="42.87052397206889" lon="13.454266185688944"><ele>326.5</ele><time>2026-04-19T14:51:52Z</time></trkpt><trkpt lat="42.8706349340343" lon="13.454370360782217"><ele>327.25</ele><time>2026-04-19T14:51:53Z</time></trkpt><trkpt lat="42.87074424632619" lon="13.454470663208564"><ele>328.0</ele><time>2026-04-19T14:51:54Z</time></trkpt><trkpt lat="42.87084273925606" lon="13.454571801148367"><ele>329.25</ele><time>2026-04-19T14:51:55Z</time></trkpt><trkpt lat="42.87092090398273" lon="13.454661485916711"><ele>330.5</ele><time>2026-04-19T14:51:56Z</time></trkpt><trkpt lat="42.870961765513115" lon="13.454806262008779"><ele>331.75</ele><time>2026-04-19T14:51:57Z</time></trkpt><trkpt lat="42.87098046078745" lon="13.454974033082596"><ele>333.0</ele><time>2026-04-19T14:51:58Z</time></trkpt><trkpt lat="42.87097436239836" lon="13.455193829465895"><ele>332.3333333333333</ele><time>2026-04-19T14:51:59Z</time></trkpt><trkpt lat="42.87094996446147" lon="13.455504800393783"><ele>331.66666666666663</ele><time>2026-04-19T14:52:00Z</time></trkpt><trkpt lat="42.87092417269316" lon="13.455759359528404"><ele>331.0</ele><time>2026-04-19T14:52:01Z</time></trkpt><trkpt lat="42.87089464523154" lon="13.456024122415002"><ele>331.0</ele><time>2026-04-19T14:52:02Z</time></trkpt><trkpt lat="42.870881882837885" lon="13.456272893047162"><ele>331.0</ele><time>2026-04-19T14:52:03Z</time></trkpt><trkpt lat="42.87085312752941" lon="13.456494836583637"><ele>331.0</ele><time>2026-04-19T14:52:04Z</time></trkpt><trkpt lat="42.87082497614257" lon="13.456707640786048"><ele>329.0</ele><time>2026-04-19T14:52:05Z</time></trkpt><trkpt lat="42.87080103475797" lon="13.456942630125667"><ele>327.0</ele><time>2026-04-19T14:52:06Z</time></trkpt><trkpt lat="42.870788863923245" lon="13.457235123889868"><ele>325.0</ele><time>2026-04-19T14:52:07Z</time></trkpt><trkpt lat="42.87078632922181" lon="13.457547588649856"><ele>324.5</ele><time>2026-04-19T14:52:08Z</time></trkpt><trkpt lat="42.87079895886066" lon="13.457859505546221"><ele>324.0</ele><time>2026-04-19T14:52:09Z</time></trkpt><trkpt lat="42.87080780454768" lon="13.458176979192219"><ele>323.3333333333333</ele><time>2026-04-19T14:52:10Z</time></trkpt><trkpt lat="42.87081960408897" lon="13.458483692590864"><ele>322.66666666666663</ele><time>2026-04-19T14:52:11Z</time></trkpt><trkpt lat="42.87082347973312" lon="13.458773230959165"><ele>322.0</ele><time>2026-04-19T14:52:12.001Z</time></trkpt><trkpt lat="42.870779012803894" lon="13.459046037722905"><ele>320.0</ele><time>2026-04-19T14:52:13.001Z</time></trkpt><trkpt lat="42.87071692661223" lon="13.45930643395722"><ele>318.0</ele><time>2026-04-19T14:52:14.001Z</time></trkpt><trkpt lat="42.87064409059548" lon="13.459618490431323"><ele>316.0</ele><time>2026-04-19T14:52:15.001Z</time></trkpt><trkpt lat="42.870542083297025" lon="13.459932956300067"><ele>315.0</ele><time>2026-04-19T14:52:16.001Z</time></trkpt><trkpt lat="42.87044063790317" lon="13.46025638433234"><ele>314.0</ele><time>2026-04-19T14:52:17.001Z</time></trkpt><trkpt lat="42.87034792154615" lon="13.460568105404887"><ele>311.0</ele><time>2026-04-19T14:52:18.001Z</time></trkpt><trkpt lat="42.870255461099525" lon="13.46088174902187"><ele>308.0</ele><time>2026-04-19T14:52:19.001Z</time></trkpt><trkpt lat="42.870158487859726" lon="13.461207901687256"><ele>312.5</ele><time>2026-04-19T14:52:20.001Z</time></trkpt><trkpt lat="42.87005487663513" lon="13.461553244612606"><ele>317.0</ele><time>2026-04-19T14:52:21.001Z</time></trkpt><trkpt lat="42.86995200082658" lon="13.461902520406747"><ele>313.5</ele><time>2026-04-19T14:52:22.001Z</time></trkpt><trkpt lat="42.869852643920844" lon="13.462237808634299"><ele>310.0</ele><time>2026-04-19T14:52:23.001Z</time></trkpt><trkpt lat="42.86976401666698" lon="13.462542763200464"><ele>310.0</ele><time>2026-04-19T14:52:24.001Z</time></trkpt><trkpt lat="42.86966570646648" lon="13.462813646230746"><ele>310.0</ele><time>2026-04-19T14:52:25.001Z</time></trkpt><trkpt lat="42.86959987598551" lon="13.463086961040393"><ele>310.0</ele><time>2026-04-19T14:52:26.001Z</time></trkpt><trkpt lat="42.869522905138254" lon="13.463343279350289"><ele>309.0</ele><time>2026-04-19T14:52:27.001Z</time></trkpt><trkpt lat="42.8694418073774" lon="13.463580661763583"><ele>308.0</ele><time>2026-04-19T14:52:28.001Z</time></trkpt><trkpt lat="42.86933813196106" lon="13.463805884854205"><ele>307.0</ele><time>2026-04-19T14:52:29.001Z</time></trkpt><trkpt lat="42.869187461443474" lon="13.464010482485751"><ele>306.66666666666663</ele><time>2026-04-19T14:52:30.001Z</time></trkpt><trkpt lat="42.8690331354721" lon="13.464225046910697"><ele>306.3333333333333</ele><time>2026-04-19T14:52:31.001Z</time></trkpt><trkpt lat="42.86887500221163" lon="13.464430635666739"><ele>306.0</ele><time>2026-04-19T14:52:32.001Z</time></trkpt><trkpt lat="42.86871884733767" lon="13.464632392479578"><ele>305.3333333333333</ele><time>2026-04-19T14:52:33.001Z</time></trkpt><trkpt lat="42.86857396586338" lon="13.464849738527708"><ele>304.66666666666663</ele><time>2026-04-19T14:52:34.001Z</time></trkpt><trkpt lat="42.86841850234557" lon="13.465047655840834"><ele>304.0</ele><time>2026-04-19T14:52:35.001Z</time></trkpt><trkpt lat="42.86825790649318" lon="13.465252577746181"><ele>304.5</ele><time>2026-04-19T14:52:36.001Z</time></trkpt><trkpt lat="42.868081129915254" lon="13.465449611557133"><ele>305.0</ele><time>2026-04-19T14:52:37.001Z</time></trkpt><trkpt lat="42.86791132827443" lon="13.465666436623764"><ele>305.0</ele><time>2026-04-19T14:52:38.001Z</time></trkpt><trkpt lat="42.867735712457765" lon="13.465891913538899"><ele>305.0</ele><time>2026-04-19T14:52:39Z</time></trkpt><trkpt lat="42.867557552099754" lon="13.466121053689049"><ele>305.0</ele><time>2026-04-19T14:52:40Z</time></trkpt><trkpt lat="42.86737861486041" lon="13.466381199960948"><ele>305.0</ele><time>2026-04-19T14:52:41Z</time></trkpt><trkpt lat="42.86716791095693" lon="13.466619392874676"><ele>305.0</ele><time>2026-04-19T14:52:42Z</time></trkpt><trkpt lat="42.8669723361466" lon="13.466868473952456"><ele>305.0</ele><time>2026-04-19T14:52:43Z</time></trkpt><trkpt lat="42.866780497852126" lon="13.467144026840737"><ele>306.0</ele><time>2026-04-19T14:52:44Z</time></trkpt><trkpt lat="42.866597299246884" lon="13.467371020816808"><ele>307.0</ele><time>2026-04-19T14:52:45Z</time></trkpt><trkpt lat="42.866424099433196" lon="13.467590955633487"><ele>307.0</ele><time>2026-04-19T14:52:46Z</time></trkpt><trkpt lat="42.866261481620334" lon="13.46780501714647"><ele>307.0</ele><time>2026-04-19T14:52:47Z</time></trkpt><trkpt lat="42.86608894655901" lon="13.4679975099257"><ele>307.0</ele><time>2026-04-19T14:52:48Z</time></trkpt><trkpt lat="42.86593268640002" lon="13.46820275298535"><ele>307.3333333333333</ele><time>2026-04-19T14:52:49Z</time></trkpt><trkpt lat="42.86585340243312" lon="13.468500147091644"><ele>307.6666666666667</ele><time>2026-04-19T14:52:50Z</time></trkpt><trkpt lat="42.86574091514908" lon="13.46874730029442"><ele>308.0</ele><time>2026-04-19T14:52:51Z</time></trkpt><trkpt lat="42.865621034159936" lon="13.468987386629975"><ele>308.0</ele><time>2026-04-19T14:52:52Z</time></trkpt><trkpt lat="42.86550271165061" lon="13.469225827574968"><ele>308.0</ele><time>2026-04-19T14:52:53Z</time></trkpt><trkpt lat="42.86538291271161" lon="13.469465053383946"><ele>308.0</ele><time>2026-04-19T14:52:54Z</time></trkpt><trkpt lat="42.86526372524787" lon="13.469708062806339"><ele>311.33333333333337</ele><time>2026-04-19T14:52:55Z</time></trkpt><trkpt lat="42.86514867677466" lon="13.469939008620738"><ele>314.6666666666667</ele><time>2026-04-19T14:52:56Z</time></trkpt><trkpt lat="42.86504060577286" lon="13.47015538527925"><ele>318.0</ele><time>2026-04-19T14:52:57Z</time></trkpt><trkpt lat="42.86494209879107" lon="13.470359702829354"><ele>312.6666666666667</ele><time>2026-04-19T14:52:58Z</time></trkpt><trkpt lat="42.86484752582933" lon="13.47055202812491"><ele>307.33333333333337</ele><time>2026-04-19T14:52:59Z</time></trkpt><trkpt lat="42.864762552003334" lon="13.470737863954314"><ele>302.0</ele><time>2026-04-19T14:53:00Z</time></trkpt><trkpt lat="42.86469433252246" lon="13.470912376161884"><ele>302.0</ele><time>2026-04-19T14:53:01Z</time></trkpt><trkpt lat="42.86466081543773" lon="13.47109926339621"><ele>302.0</ele><time>2026-04-19T14:53:02Z</time></trkpt><trkpt lat="42.864664715555776" lon="13.471316842977847"><ele>302.0</ele><time>2026-04-19T14:53:03Z</time></trkpt><trkpt lat="42.86468236439267" lon="13.471551296065378"><ele>300.6666666666667</ele><time>2026-04-19T14:53:04Z</time></trkpt><trkpt lat="42.864685105916685" lon="13.471795312041806"><ele>299.3333333333333</ele><time>2026-04-19T14:53:05Z</time></trkpt><trkpt lat="42.864665604474624" lon="13.472046364027886"><ele>298.0</ele><time>2026-04-19T14:53:06Z</time></trkpt><trkpt lat="42.864620013368786" lon="13.472297904382751"><ele>297.3333333333333</ele><time>2026-04-19T14:53:07Z</time></trkpt><trkpt lat="42.86455676346981" lon="13.472546378794164"><ele>296.6666666666667</ele><time>2026-04-19T14:53:08Z</time></trkpt><trkpt lat="42.86448069564068" lon="13.472784182205821"><ele>296.0</ele><time>2026-04-19T14:53:09Z</time></trkpt><trkpt lat="42.86440340289854" lon="13.473017638315172"><ele>294.33333333333337</ele><time>2026-04-19T14:53:10Z</time></trkpt><trkpt lat="42.86432807264819" lon="13.473251233502957"><ele>292.6666666666667</ele><time>2026-04-19T14:53:11Z</time></trkpt><trkpt lat="42.86426265453645" lon="13.473481227306012"><ele>291.0</ele><time>2026-04-19T14:53:12Z</time></trkpt><trkpt lat="42.86421128169542" lon="13.473683924360751"><ele>292.75</ele><time>2026-04-19T14:53:13Z</time></trkpt><trkpt lat="42.864157577713975" lon="13.473863673497913"><ele>294.5</ele><time>2026-04-19T14:53:14Z</time></trkpt><trkpt lat="42.864084078759504" lon="13.47400768879676"><ele>296.25</ele><time>2026-04-19T14:53:15Z</time></trkpt><trkpt lat="42.86400465439059" lon="13.4740796024343"><ele>298.0</ele><time>2026-04-19T14:53:16Z</time></trkpt><trkpt lat="42.86388427028411" lon="13.474171587200212"><ele>298.0</ele><time>2026-04-19T14:53:17Z</time></trkpt><trkpt lat="42.86374130985395" lon="13.474242047275649"><ele>298.0</ele><time>2026-04-19T14:53:18Z</time></trkpt><trkpt lat="42.86359835527655" lon="13.474327733385756"><ele>298.0</ele><time>2026-04-19T14:53:19Z</time></trkpt><trkpt lat="42.863440460111626" lon="13.474420813588921"><ele>299.0</ele><time>2026-04-19T14:53:20Z</time></trkpt><trkpt lat="42.86326612243267" lon="13.474518954414357"><ele>300.0</ele><time>2026-04-19T14:53:21Z</time></trkpt><trkpt lat="42.86308916245942" lon="13.474610726846457"><ele>301.0</ele><time>2026-04-19T14:53:22Z</time></trkpt><trkpt lat="42.86292470714053" lon="13.474698919440003"><ele>299.66666666666663</ele><time>2026-04-19T14:53:23Z</time></trkpt><trkpt lat="42.86278735815754" lon="13.474794612261794"><ele>298.3333333333333</ele><time>2026-04-19T14:53:24Z</time></trkpt><trkpt lat="42.86264617124829" lon="13.47487864876025"><ele>297.0</ele><time>2026-04-19T14:53:25Z</time></trkpt><trkpt lat="42.86251053895926" lon="13.474954527436514"><ele>297.0</ele><time>2026-04-19T14:53:26Z</time></trkpt><trkpt lat="42.862371022224536" lon="13.475031962254826"><ele>297.0</ele><time>2026-04-19T14:53:27Z</time></trkpt><trkpt lat="42.86223621869876" lon="13.475109713930076"><ele>297.0</ele><time>2026-04-19T14:53:28Z</time></trkpt><trkpt lat="42.862093506981424" lon="13.475197238434045"><ele>297.0</ele><time>2026-04-19T14:53:29Z</time></trkpt><trkpt lat="42.86194927158809" lon="13.475279105797723"><ele>297.0</ele><time>2026-04-19T14:53:30Z</time></trkpt><trkpt lat="42.86182054640631" lon="13.47536027504073"><ele>297.0</ele><time>2026-04-19T14:53:31Z</time></trkpt><trkpt lat="42.86168677456138" lon="13.47543813043357"><ele>297.0</ele><time>2026-04-19T14:53:32Z</time></trkpt><trkpt lat="42.86155606814756" lon="13.475518839447576"><ele>295.5</ele><time>2026-04-19T14:53:33Z</time></trkpt><trkpt lat="42.861427957188596" lon="13.475593725296058"><ele>294.0</ele><time>2026-04-19T14:53:34Z</time></trkpt><trkpt lat="42.86129491409507" lon="13.475671043096881"><ele>292.5</ele><time>2026-04-19T14:53:35Z</time></trkpt><trkpt lat="42.861163523942444" lon="13.475739533354083"><ele>291.0</ele><time>2026-04-19T14:53:36Z</time></trkpt><trkpt lat="42.86103639947717" lon="13.475816751974286"><ele>292.6666666666667</ele><time>2026-04-19T14:53:37Z</time></trkpt><trkpt lat="42.860901370559375" lon="13.475894862992703"><ele>294.33333333333337</ele><time>2026-04-19T14:53:38Z</time></trkpt><trkpt lat="42.86075836627319" lon="13.475978850178173"><ele>296.0</ele><time>2026-04-19T14:53:39Z</time></trkpt><trkpt lat="42.86061046107875" lon="13.476059399843253"><ele>296.0</ele><time>2026-04-19T14:53:40Z</time></trkpt><trkpt lat="42.86045699740065" lon="13.476140035549404"><ele>296.0</ele><time>2026-04-19T14:53:41Z</time></trkpt><trkpt lat="42.86030343322405" lon="13.476225985741115"><ele>296.0</ele><time>2026-04-19T14:53:42Z</time></trkpt><trkpt lat="42.86014455834841" lon="13.476317543045615"><ele>293.0</ele><time>2026-04-19T14:53:43Z</time></trkpt><trkpt lat="42.85998488102954" lon="13.476411428539805"><ele>290.0</ele><time>2026-04-19T14:53:44Z</time></trkpt><trkpt lat="42.85982396869839" lon="13.476498301507117"><ele>287.0</ele><time>2026-04-19T14:53:45Z</time></trkpt><trkpt lat="42.85965796468091" lon="13.476601241752325"><ele>287.0</ele><time>2026-04-19T14:53:46Z</time></trkpt><trkpt lat="42.85949524852061" lon="13.476711747757278"><ele>287.0</ele><time>2026-04-19T14:53:47Z</time></trkpt><trkpt lat="42.85934497320485" lon="13.476843785690173"><ele>287.0</ele><time>2026-04-19T14:53:48Z</time></trkpt><trkpt lat="42.859191555868755" lon="13.476976026451577"><ele>286.6666666666667</ele><time>2026-04-19T14:53:49Z</time></trkpt><trkpt lat="42.859027660712705" lon="13.477113239585394"><ele>286.3333333333333</ele><time>2026-04-19T14:53:50Z</time></trkpt><trkpt lat="42.858865555996886" lon="13.477242615573182"><ele>286.0</ele><time>2026-04-19T14:53:51Z</time></trkpt><trkpt lat="42.85870410055249" lon="13.477375652610828"><ele>286.0</ele><time>2026-04-19T14:53:52Z</time></trkpt><trkpt lat="42.8585373128585" lon="13.47751224768873"><ele>286.0</ele><time>2026-04-19T14:53:53Z</time></trkpt><trkpt lat="42.85836747205313" lon="13.477650865157658"><ele>286.0</ele><time>2026-04-19T14:53:54Z</time></trkpt><trkpt lat="42.85819259160076" lon="13.477765382367306"><ele>286.66666666666663</ele><time>2026-04-19T14:53:55Z</time></trkpt><trkpt lat="42.85802943238408" lon="13.477896670536472"><ele>287.3333333333333</ele><time>2026-04-19T14:53:56Z</time></trkpt><trkpt lat="42.85786460366897" lon="13.47802929665714"><ele>288.0</ele><time>2026-04-19T14:53:57Z</time></trkpt><trkpt lat="42.85769860841457" lon="13.47816487722839"><ele>287.0</ele><time>2026-04-19T14:53:58Z</time></trkpt><trkpt lat="42.85754704077226" lon="13.478314258584897"><ele>286.0</ele><time>2026-04-19T14:53:59Z</time></trkpt><trkpt lat="42.85738787012043" lon="13.478437218105869"><ele>285.0</ele><time>2026-04-19T14:54:00Z</time></trkpt><trkpt lat="42.8572301011421" lon="13.478567993542962"><ele>285.0</ele><time>2026-04-19T14:54:01Z</time></trkpt><trkpt lat="42.8570629740369" lon="13.478701704182814"><ele>285.0</ele><time>2026-04-19T14:54:02Z</time></trkpt><trkpt lat="42.85690114923977" lon="13.478836726549448"><ele>285.0</ele><time>2026-04-19T14:54:03Z</time></trkpt><trkpt lat="42.856743830656306" lon="13.478986604380582"><ele>284.0</ele><time>2026-04-19T14:54:04Z</time></trkpt><trkpt lat="42.85658629712229" lon="13.479144745948862"><ele>283.0</ele><time>2026-04-19T14:54:05Z</time></trkpt><trkpt lat="42.85643522743276" lon="13.479317359507476"><ele>282.0</ele><time>2026-04-19T14:54:06Z</time></trkpt><trkpt lat="42.85628346601594" lon="13.479487794583108"><ele>281.3333333333333</ele><time>2026-04-19T14:54:07Z</time></trkpt><trkpt lat="42.856135619189224" lon="13.479661480042825"><ele>280.66666666666663</ele><time>2026-04-19T14:54:08Z</time></trkpt><trkpt lat="42.85598761210168" lon="13.479817648928739"><ele>280.0</ele><time>2026-04-19T14:54:09Z</time></trkpt><trkpt lat="42.85585765433727" lon="13.479977412713072"><ele>280.0</ele><time>2026-04-19T14:54:10Z</time></trkpt><trkpt lat="42.85572635848722" lon="13.480109918880645"><ele>280.0</ele><time>2026-04-19T14:54:11Z</time></trkpt><trkpt lat="42.85559838640213" lon="13.480262535360666"><ele>280.0</ele><time>2026-04-19T14:54:12Z</time></trkpt><trkpt lat="42.85547682496308" lon="13.480431466269248"><ele>280.66666666666663</ele><time>2026-04-19T14:54:13Z</time></trkpt><trkpt lat="42.85533864051416" lon="13.480586525339644"><ele>281.3333333333333</ele><time>2026-04-19T14:54:14Z</time></trkpt><trkpt lat="42.85521121754389" lon="13.480756703918283"><ele>282.0</ele><time>2026-04-19T14:54:15Z</time></trkpt><trkpt lat="42.85506181026207" lon="13.480923212086012"><ele>282.0</ele><time>2026-04-19T14:54:16Z</time></trkpt><trkpt lat="42.85494332486563" lon="13.48112352185888"><ele>282.0</ele><time>2026-04-19T14:54:17Z</time></trkpt><trkpt lat="42.85482591268678" lon="13.481323946498495"><ele>282.0</ele><time>2026-04-19T14:54:18.001Z</time></trkpt><trkpt lat="42.854708812151685" lon="13.481522760112021"><ele>279.3333333333333</ele><time>2026-04-19T14:54:19.001Z</time></trkpt><trkpt lat="42.854607887613014" lon="13.481699706202315"><ele>276.66666666666663</ele><time>2026-04-19T14:54:20.001Z</time></trkpt><trkpt lat="42.854520328452494" lon="13.481900296746057"><ele>274.0</ele><time>2026-04-19T14:54:21.001Z</time></trkpt><trkpt lat="42.85445771379431" lon="13.48216185584935"><ele>272.0</ele><time>2026-04-19T14:54:22.001Z</time></trkpt><trkpt lat="42.85441737245636" lon="13.482436515943483"><ele>270.0</ele><time>2026-04-19T14:54:23.001Z</time></trkpt><trkpt lat="42.85437869086114" lon="13.482706149360055"><ele>268.0</ele><time>2026-04-19T14:54:24.001Z</time></trkpt><trkpt lat="42.85430798604922" lon="13.482956079625032"><ele>270.66666666666663</ele><time>2026-04-19T14:54:25.001Z</time></trkpt><trkpt lat="42.85424553640693" lon="13.483205100010384"><ele>273.3333333333333</ele><time>2026-04-19T14:54:26.001Z</time></trkpt><trkpt lat="42.85416486246799" lon="13.483414025525727"><ele>276.0</ele><time>2026-04-19T14:54:27.001Z</time></trkpt><trkpt lat="42.85405890654602" lon="13.483588695562096"><ele>276.0</ele><time>2026-04-19T14:54:28.001Z</time></trkpt><trkpt lat="42.85395562745002" lon="13.483704280681494"><ele>276.0</ele><time>2026-04-19T14:54:29.001Z</time></trkpt><trkpt lat="42.853813106213465" lon="13.483814186969497"><ele>276.0</ele><time>2026-04-19T14:54:30.001Z</time></trkpt><trkpt lat="42.853641790947606" lon="13.483916005344419"><ele>275.6666666666667</ele><time>2026-04-19T14:54:31.001Z</time></trkpt><trkpt lat="42.85345912735227" lon="13.484001727700866"><ele>275.33333333333337</ele><time>2026-04-19T14:54:32.001Z</time></trkpt><trkpt lat="42.85326075663243" lon="13.484084384382893"><ele>275.0</ele><time>2026-04-19T14:54:33.001Z</time></trkpt><trkpt lat="42.85307711587228" lon="13.48414239102237"><ele>275.0</ele><time>2026-04-19T14:54:34.001Z</time></trkpt><trkpt lat="42.85289406145834" lon="13.484183929802276"><ele>275.0</ele><time>2026-04-19T14:54:35.001Z</time></trkpt><trkpt lat="42.85269695978788" lon="13.484134327032335"><ele>275.0</ele><time>2026-04-19T14:54:36.001Z</time></trkpt><trkpt lat="42.852500379739084" lon="13.484099318951296"><ele>273.0</ele><time>2026-04-19T14:54:37.001Z</time></trkpt><trkpt lat="42.85232304292952" lon="13.484042262820262"><ele>271.0</ele><time>2026-04-19T14:54:38.001Z</time></trkpt><trkpt lat="42.85215807886485" lon="13.484026967246333"><ele>269.0</ele><time>2026-04-19T14:54:39.001Z</time></trkpt><trkpt lat="42.85199144032021" lon="13.4840640860335"><ele>269.0</ele><time>2026-04-19T14:54:40.001Z</time></trkpt><trkpt lat="42.85184433347798" lon="13.484157151788674"><ele>269.0</ele><time>2026-04-19T14:54:41.001Z</time></trkpt><trkpt lat="42.85171099918226" lon="13.484294932550874"><ele>269.0</ele><time>2026-04-19T14:54:42.001Z</time></trkpt><trkpt lat="42.85158611544314" lon="13.484456681281179"><ele>267.75</ele><time>2026-04-19T14:54:43.001Z</time></trkpt><trkpt lat="42.85147750367478" lon="13.484611153854441"><ele>266.5</ele><time>2026-04-19T14:54:44.001Z</time></trkpt><trkpt lat="42.851381576591976" lon="13.484752637176719"><ele>265.25</ele><time>2026-04-19T14:54:45.001Z</time></trkpt><trkpt lat="42.85129306417985" lon="13.484894754613913"><ele>264.0</ele><time>2026-04-19T14:54:46.001Z</time></trkpt><trkpt lat="42.85120283847665" lon="13.485033622976413"><ele>264.0</ele><time>2026-04-19T14:54:47.001Z</time></trkpt><trkpt lat="42.85111135551173" lon="13.485176853038878"><ele>264.0</ele><time>2026-04-19T14:54:48.001Z</time></trkpt><trkpt lat="42.85101869978771" lon="13.485324315103306"><ele>264.0</ele><time>2026-04-19T14:54:49.001Z</time></trkpt><trkpt lat="42.850925599209596" lon="13.485470123987934"><ele>264.0</ele><time>2026-04-19T14:54:50.001Z</time></trkpt><trkpt lat="42.850819949591205" lon="13.48560252561675"><ele>264.0</ele><time>2026-04-19T14:54:51.001Z</time></trkpt><trkpt lat="42.850739419295714" lon="13.485759670412873"><ele>264.0</ele><time>2026-04-19T14:54:52.001Z</time></trkpt><trkpt lat="42.85064527623569" lon="13.485894741846609"><ele>264.0</ele><time>2026-04-19T14:54:53.001Z</time></trkpt><trkpt lat="42.850545604920285" lon="13.486045202632237"><ele>264.0</ele><time>2026-04-19T14:54:54.001Z</time></trkpt><trkpt lat="42.85044913934786" lon="13.486192602263932"><ele>263.0</ele><time>2026-04-19T14:54:55.001Z</time></trkpt><trkpt lat="42.85035107646601" lon="13.486343180793215"><ele>262.0</ele><time>2026-04-19T14:54:56.001Z</time></trkpt><trkpt lat="42.85025356574822" lon="13.486492958323634"><ele>261.0</ele><time>2026-04-19T14:54:57.001Z</time></trkpt><trkpt lat="42.85016414746974" lon="13.48664159408316"><ele>260.0</ele><time>2026-04-19T14:54:58.001Z</time></trkpt><trkpt lat="42.85006407598076" lon="13.486810588808819"><ele>261.0</ele><time>2026-04-19T14:54:59.001Z</time></trkpt><trkpt lat="42.849964997942" lon="13.48700925971036"><ele>262.0</ele><time>2026-04-19T14:55:00.001Z</time></trkpt><trkpt lat="42.84988220915526" lon="13.487222025350528"><ele>263.0</ele><time>2026-04-19T14:55:01.001Z</time></trkpt><trkpt lat="42.84981641349385" lon="13.487465698937882"><ele>263.0</ele><time>2026-04-19T14:55:02.001Z</time></trkpt><trkpt lat="42.84976265599249" lon="13.487714055186986"><ele>263.0</ele><time>2026-04-19T14:55:03.001Z</time></trkpt><trkpt lat="42.849686403803936" lon="13.487946196774232"><ele>263.0</ele><time>2026-04-19T14:55:04.001Z</time></trkpt><trkpt lat="42.849607853750086" lon="13.48815428397642"><ele>260.6666666666667</ele><time>2026-04-19T14:55:05.001Z</time></trkpt><trkpt lat="42.849515076539475" lon="13.488349067492901"><ele>258.3333333333333</ele><time>2026-04-19T14:55:06.001Z</time></trkpt><trkpt lat="42.849408557792025" lon="13.488550051740145"><ele>256.0</ele><time>2026-04-19T14:55:07.001Z</time></trkpt><trkpt lat="42.84930185256138" lon="13.488749990982361"><ele>257.3333333333333</ele><time>2026-04-19T14:55:08.001Z</time></trkpt><trkpt lat="42.84919818060529" lon="13.488942641104261"><ele>258.6666666666667</ele><time>2026-04-19T14:55:09.001Z</time></trkpt><trkpt lat="42.84909528567675" lon="13.489131387701603"><ele>260.0</ele><time>2026-04-19T14:55:10.001Z</time></trkpt><trkpt lat="42.849005461904895" lon="13.489304760830661"><ele>260.0</ele><time>2026-04-19T14:55:11.001Z</time></trkpt><trkpt lat="42.84892588631924" lon="13.48944490496282"><ele>260.0</ele><time>2026-04-19T14:55:12.001Z</time></trkpt><trkpt lat="42.84885090189321" lon="13.489550801727248"><ele>260.0</ele><time>2026-04-19T14:55:13.001Z</time></trkpt><trkpt lat="42.84876687423377" lon="13.489612901007376"><ele>260.0</ele><time>2026-04-19T14:55:14.001Z</time></trkpt><trkpt lat="42.848663931273244" lon="13.489605568269809"><ele>260.0</ele><time>2026-04-19T14:55:15.001Z</time></trkpt><trkpt lat="42.848523518255774" lon="13.489572636933387"><ele>259.33333333333337</ele><time>2026-04-19T14:55:16.001Z</time></trkpt><trkpt lat="42.84840483877418" lon="13.489482770595307"><ele>258.6666666666667</ele><time>2026-04-19T14:55:17.001Z</time></trkpt><trkpt lat="42.848272127260856" lon="13.489358931287375"><ele>258.0</ele><time>2026-04-19T14:55:18.001Z</time></trkpt><trkpt lat="42.848109246753" lon="13.489208354118517"><ele>258.0</ele><time>2026-04-19T14:55:19.001Z</time></trkpt><trkpt lat="42.847933043400104" lon="13.489008424049796"><ele>258.0</ele><time>2026-04-19T14:55:20.001Z</time></trkpt><trkpt lat="42.84775756698955" lon="13.488798663269549"><ele>259.0</ele><time>2026-04-19T14:55:21.001Z</time></trkpt><trkpt lat="42.84760559323538" lon="13.488614424642194"><ele>260.0</ele><time>2026-04-19T14:55:22.001Z</time></trkpt><trkpt lat="42.84744886844439" lon="13.488455702085417"><ele>261.0</ele><time>2026-04-19T14:55:23.001Z</time></trkpt><trkpt lat="42.84727866264987" lon="13.488309279974827"><ele>261.0</ele><time>2026-04-19T14:55:24.001Z</time></trkpt><trkpt lat="42.847094677777505" lon="13.488176187417144"><ele>261.0</ele><time>2026-04-19T14:55:25.001Z</time></trkpt><trkpt lat="42.8469277992109" lon="13.488050396050511"><ele>261.0</ele><time>2026-04-19T14:55:26.001Z</time></trkpt><trkpt lat="42.846761442739094" lon="13.487944733981399"><ele>262.6666666666667</ele><time>2026-04-19T14:55:27.001Z</time></trkpt><trkpt lat="42.84660427796082" lon="13.487819948255419"><ele>264.33333333333337</ele><time>2026-04-19T14:55:28.001Z</time></trkpt><trkpt lat="42.846441434517665" lon="13.48775571121811"><ele>266.0</ele><time>2026-04-19T14:55:29.001Z</time></trkpt><trkpt lat="42.84626021040627" lon="13.48770678168619"><ele>266.0</ele><time>2026-04-19T14:55:30.001Z</time></trkpt><trkpt lat="42.84607442457599" lon="13.487688931551538"><ele>266.0</ele><time>2026-04-19T14:55:31.001Z</time></trkpt><trkpt lat="42.84588738890437" lon="13.487686036595392"><ele>266.0</ele><time>2026-04-19T14:55:32.001Z</time></trkpt><trkpt lat="42.84570963951398" lon="13.487688196577398"><ele>264.6666666666667</ele><time>2026-04-19T14:55:33Z</time></trkpt><trkpt lat="42.845533731960266" lon="13.487688933102676"><ele>263.3333333333333</ele><time>2026-04-19T14:55:34Z</time></trkpt><trkpt lat="42.845363871364654" lon="13.487700356778813"><ele>262.0</ele><time>2026-04-19T14:55:35Z</time></trkpt><trkpt lat="42.845191722892295" lon="13.487737681142374"><ele>262.3333333333333</ele><time>2026-04-19T14:55:36Z</time></trkpt><trkpt lat="42.8450234571367" lon="13.487788768220748"><ele>262.6666666666667</ele><time>2026-04-19T14:55:37Z</time></trkpt><trkpt lat="42.84485571843395" lon="13.487837441401773"><ele>263.0</ele><time>2026-04-19T14:55:38Z</time></trkpt><trkpt lat="42.84468442351298" lon="13.487885320739077"><ele>258.6666666666667</ele><time>2026-04-19T14:55:39Z</time></trkpt><trkpt lat="42.84451530448832" lon="13.487936451462126"><ele>254.33333333333331</ele><time>2026-04-19T14:55:40Z</time></trkpt><trkpt lat="42.84434692957291" lon="13.487965488562265"><ele>250.0</ele><time>2026-04-19T14:55:41Z</time></trkpt><trkpt lat="42.84419598169783" lon="13.488008807017833"><ele>250.0</ele><time>2026-04-19T14:55:42Z</time></trkpt><trkpt lat="42.84404865220023" lon="13.488050952873632"><ele>250.0</ele><time>2026-04-19T14:55:43Z</time></trkpt><trkpt lat="42.8439100193415" lon="13.488090498761265"><ele>250.0</ele><time>2026-04-19T14:55:44Z</time></trkpt><trkpt lat="42.843777487729604" lon="13.488149453220945"><ele>250.0</ele><time>2026-04-19T14:55:45Z</time></trkpt><trkpt lat="42.843640047228995" lon="13.488183881681017"><ele>250.0</ele><time>2026-04-19T14:55:46Z</time></trkpt><trkpt lat="42.84350409759052" lon="13.488222137287206"><ele>250.0</ele><time>2026-04-19T14:55:47Z</time></trkpt><trkpt lat="42.84336893622966" lon="13.488260346225742"><ele>250.0</ele><time>2026-04-19T14:55:48Z</time></trkpt><trkpt lat="42.84323122125005" lon="13.488302172826595"><ele>250.0</ele><time>2026-04-19T14:55:49Z</time></trkpt><trkpt lat="42.84308981405324" lon="13.488323346677419"><ele>251.0</ele><time>2026-04-19T14:55:50Z</time></trkpt><trkpt lat="42.84295975971702" lon="13.488388417059895"><ele>252.0</ele><time>2026-04-19T14:55:51Z</time></trkpt><trkpt lat="42.84282172916259" lon="13.488423388837662"><ele>253.0</ele><time>2026-04-19T14:55:52Z</time></trkpt><trkpt lat="42.84268415837146" lon="13.488459356468889"><ele>254.0</ele><time>2026-04-19T14:55:53Z</time></trkpt><trkpt lat="42.842547072799974" lon="13.488493991676846"><ele>255.0</ele><time>2026-04-19T14:55:54Z</time></trkpt><trkpt lat="42.84241001488287" lon="13.488531425027002"><ele>256.0</ele><time>2026-04-19T14:55:55Z</time></trkpt><trkpt lat="42.84227444487092" lon="13.488572265608276"><ele>257.0</ele><time>2026-04-19T14:55:56Z</time></trkpt><trkpt lat="42.84213724189923" lon="13.488611336838156"><ele>258.0</ele><time>2026-04-19T14:55:57Z</time></trkpt><trkpt lat="42.84200046060014" lon="13.488648153637634"><ele>258.0</ele><time>2026-04-19T14:55:58Z</time></trkpt><trkpt lat="42.84186298682409" lon="13.488686701703474"><ele>258.0</ele><time>2026-04-19T14:55:59Z</time></trkpt><trkpt lat="42.841727298002105" lon="13.488730515618574"><ele>258.0</ele><time>2026-04-19T14:56:00Z</time></trkpt><trkpt lat="42.841592725855655" lon="13.488782296149154"><ele>258.0</ele><time>2026-04-19T14:56:01Z</time></trkpt><trkpt lat="42.84146128685702" lon="13.488844127268997"><ele>257.25</ele><time>2026-04-19T14:56:02Z</time></trkpt><trkpt lat="42.841334376599875" lon="13.488916669206104"><ele>256.5</ele><time>2026-04-19T14:56:03Z</time></trkpt><trkpt lat="42.84120689460279" lon="13.488992540954674"><ele>255.75</ele><time>2026-04-19T14:56:04Z</time></trkpt><trkpt lat="42.84108193807416" lon="13.489070938908153"><ele>255.0</ele><time>2026-04-19T14:56:05Z</time></trkpt><trkpt lat="42.84095573008326" lon="13.489149036898473"><ele>255.0</ele><time>2026-04-19T14:56:06Z</time></trkpt><trkpt lat="42.84082910292025" lon="13.489230621667128"><ele>255.0</ele><time>2026-04-19T14:56:07Z</time></trkpt><trkpt lat="42.84069718244321" lon="13.489294250961107"><ele>255.0</ele><time>2026-04-19T14:56:08Z</time></trkpt><trkpt lat="42.84057515103068" lon="13.489391872863793"><ele>255.0</ele><time>2026-04-19T14:56:09Z</time></trkpt><trkpt lat="42.84046403931135" lon="13.489514837076948"><ele>252.25</ele><time>2026-04-19T14:56:10Z</time></trkpt><trkpt lat="42.84037149229398" lon="13.489660896395849"><ele>249.5</ele><time>2026-04-19T14:56:11Z</time></trkpt><trkpt lat="42.84031024951204" lon="13.48983707362112"><ele>246.75</ele><time>2026-04-19T14:56:12Z</time></trkpt><trkpt lat="42.840244173806674" lon="13.490003013483177"><ele>244.0</ele><time>2026-04-19T14:56:13Z</time></trkpt><trkpt lat="42.84016706654391" lon="13.490161802969782"><ele>244.0</ele><time>2026-04-19T14:56:14Z</time></trkpt><trkpt lat="42.84011385783305" lon="13.490341432668059"><ele>244.0</ele><time>2026-04-19T14:56:15Z</time></trkpt><trkpt lat="42.84002240952201" lon="13.49051619839282"><ele>244.0</ele><time>2026-04-19T14:56:16Z</time></trkpt><trkpt lat="42.83996643736057" lon="13.490667602113561"><ele>244.0</ele><time>2026-04-19T14:56:17Z</time></trkpt><trkpt lat="42.83986888498669" lon="13.490803814936465"><ele>244.0</ele><time>2026-04-19T14:56:18Z</time></trkpt><trkpt lat="42.839775267371536" lon="13.49093789112576"><ele>244.0</ele><time>2026-04-19T14:56:19Z</time></trkpt><trkpt lat="42.839671001295976" lon="13.491060640153533"><ele>244.0</ele><time>2026-04-19T14:56:20Z</time></trkpt><trkpt lat="42.839576245557254" lon="13.491201851326753"><ele>244.0</ele><time>2026-04-19T14:56:21Z</time></trkpt><trkpt lat="42.8394616694322" lon="13.491319313233898"><ele>244.5</ele><time>2026-04-19T14:56:22Z</time></trkpt><trkpt lat="42.83938377437304" lon="13.491464246726743"><ele>245.0</ele><time>2026-04-19T14:56:23Z</time></trkpt><trkpt lat="42.83929093577649" lon="13.491616369454794"><ele>245.5</ele><time>2026-04-19T14:56:24.001Z</time></trkpt><trkpt lat="42.83919236062496" lon="13.491759094821509"><ele>246.0</ele><time>2026-04-19T14:56:25.001Z</time></trkpt><trkpt lat="42.83909359773788" lon="13.491890969770933"><ele>246.0</ele><time>2026-04-19T14:56:26.001Z</time></trkpt><trkpt lat="42.83897616122974" lon="13.491995364207469"><ele>246.0</ele><time>2026-04-19T14:56:27.001Z</time></trkpt><trkpt lat="42.83886557883948" lon="13.492106759409738"><ele>246.0</ele><time>2026-04-19T14:56:28.001Z</time></trkpt><trkpt lat="42.83874831907698" lon="13.492203581424736"><ele>246.0</ele><time>2026-04-19T14:56:29.001Z</time></trkpt><trkpt lat="42.838626984064" lon="13.49229767178895"><ele>245.75</ele><time>2026-04-19T14:56:30.001Z</time></trkpt><trkpt lat="42.83851404584654" lon="13.492408990927053"><ele>245.5</ele><time>2026-04-19T14:56:31.001Z</time></trkpt><trkpt lat="42.83838702625213" lon="13.492492910874097"><ele>245.25</ele><time>2026-04-19T14:56:32.001Z</time></trkpt><trkpt lat="42.83826003201482" lon="13.492570302162356"><ele>245.0</ele><time>2026-04-19T14:56:33.001Z</time></trkpt><trkpt lat="42.83812310088778" lon="13.49262085164274"><ele>245.0</ele><time>2026-04-19T14:56:34.001Z</time></trkpt><trkpt lat="42.83799062431691" lon="13.492685333019567"><ele>245.0</ele><time>2026-04-19T14:56:35.001Z</time></trkpt><trkpt lat="42.837856838168896" lon="13.49275045182193"><ele>245.0</ele><time>2026-04-19T14:56:36.001Z</time></trkpt><trkpt lat="42.83772341384926" lon="13.492815293931908"><ele>245.0</ele><time>2026-04-19T14:56:37.001Z</time></trkpt><trkpt lat="42.83759863741857" lon="13.492875144058278"><ele>243.0</ele><time>2026-04-19T14:56:38.001Z</time></trkpt><trkpt lat="42.8374642833077" lon="13.492939588158354"><ele>241.0</ele><time>2026-04-19T14:56:39.001Z</time></trkpt><trkpt lat="42.83733292116044" lon="13.493000120826059"><ele>239.0</ele><time>2026-04-19T14:56:40.001Z</time></trkpt><trkpt lat="42.837199170813435" lon="13.493057111946001"><ele>237.0</ele><time>2026-04-19T14:56:41.001Z</time></trkpt><trkpt lat="42.83706500257631" lon="13.493105099842346"><ele>237.0</ele><time>2026-04-19T14:56:42.001Z</time></trkpt><trkpt lat="42.836931030294004" lon="13.493133480571387"><ele>237.0</ele><time>2026-04-19T14:56:43.001Z</time></trkpt><trkpt lat="42.83679430988893" lon="13.49314824454866"><ele>237.0</ele><time>2026-04-19T14:56:44.001Z</time></trkpt><trkpt lat="42.8366527495572" lon="13.493156820672395"><ele>237.0</ele><time>2026-04-19T14:56:45.001Z</time></trkpt><trkpt lat="42.8365152825304" lon="13.49318241547115"><ele>237.0</ele><time>2026-04-19T14:56:46.001Z</time></trkpt><trkpt lat="42.83637461388216" lon="13.493174667791173"><ele>237.0</ele><time>2026-04-19T14:56:47.001Z</time></trkpt><trkpt lat="42.83623434769422" lon="13.493167344329532"><ele>237.0</ele><time>2026-04-19T14:56:48.001Z</time></trkpt><trkpt lat="42.83609637909906" lon="13.493155872118553"><ele>237.0</ele><time>2026-04-19T14:56:49.001Z</time></trkpt><trkpt lat="42.83595767797248" lon="13.493120705801156"><ele>235.75</ele><time>2026-04-19T14:56:50.001Z</time></trkpt><trkpt lat="42.83581827938297" lon="13.493108519625457"><ele>234.5</ele><time>2026-04-19T14:56:51.001Z</time></trkpt><trkpt lat="42.83568014676308" lon="13.493096941486021"><ele>233.25</ele><time>2026-04-19T14:56:52.001Z</time></trkpt><trkpt lat="42.8355394237082" lon="13.493107499292966"><ele>232.0</ele><time>2026-04-19T14:56:53.001Z</time></trkpt><trkpt lat="42.83540089599982" lon="13.493091162046897"><ele>232.0</ele><time>2026-04-19T14:56:54.001Z</time></trkpt><trkpt lat="42.83526066303551" lon="13.49307769699021"><ele>232.0</ele><time>2026-04-19T14:56:55.001Z</time></trkpt><trkpt lat="42.83512230147101" lon="13.493067037755225"><ele>232.0</ele><time>2026-04-19T14:56:56.001Z</time></trkpt><trkpt lat="42.83498189831231" lon="13.493063668322618"><ele>232.0</ele><time>2026-04-19T14:56:57.001Z</time></trkpt><trkpt lat="42.83484305672597" lon="13.493066253055302"><ele>232.75</ele><time>2026-04-19T14:56:58.001Z</time></trkpt><trkpt lat="42.83470416934204" lon="13.493083641436012"><ele>233.5</ele><time>2026-04-19T14:56:59.001Z</time></trkpt><trkpt lat="42.83456372023617" lon="13.493099918866308"><ele>234.25</ele><time>2026-04-19T14:57:00.001Z</time></trkpt><trkpt lat="42.83443595336509" lon="13.493184003199776"><ele>235.0</ele><time>2026-04-19T14:57:01.001Z</time></trkpt><trkpt lat="42.83431535651133" lon="13.493275624872206"><ele>234.0</ele><time>2026-04-19T14:57:02.001Z</time></trkpt><trkpt lat="42.834202525607886" lon="13.493388393222354"><ele>233.0</ele><time>2026-04-19T14:57:03.001Z</time></trkpt><trkpt lat="42.834093989278614" lon="13.49351057459769"><ele>232.0</ele><time>2026-04-19T14:57:04.001Z</time></trkpt><trkpt lat="42.833987455850604" lon="13.493634504013595"><ele>231.0</ele><time>2026-04-19T14:57:05.001Z</time></trkpt><trkpt lat="42.83388046418108" lon="13.493755696950023"><ele>231.0</ele><time>2026-04-19T14:57:06.001Z</time></trkpt><trkpt lat="42.83376991688908" lon="13.493874494154754"><ele>231.0</ele><time>2026-04-19T14:57:07.001Z</time></trkpt><trkpt lat="42.8336597827688" lon="13.493982933246194"><ele>231.0</ele><time>2026-04-19T14:57:08.001Z</time></trkpt><trkpt lat="42.83354956246911" lon="13.494110002675074"><ele>231.0</ele><time>2026-04-19T14:57:09.001Z</time></trkpt><trkpt lat="42.83344405063083" lon="13.494234176438061"><ele>230.25</ele><time>2026-04-19T14:57:10.001Z</time></trkpt><trkpt lat="42.83334027613395" lon="13.494347769228689"><ele>229.5</ele><time>2026-04-19T14:57:11.001Z</time></trkpt><trkpt lat="42.833231810311425" lon="13.494479344226532"><ele>228.75</ele><time>2026-04-19T14:57:12.001Z</time></trkpt><trkpt lat="42.833114085899204" lon="13.494583164009244"><ele>228.0</ele><time>2026-04-19T14:57:13Z</time></trkpt><trkpt lat="42.83300496282788" lon="13.494704726264894"><ele>228.0</ele><time>2026-04-19T14:57:14Z</time></trkpt><trkpt lat="42.832896816701655" lon="13.494826623901425"><ele>228.0</ele><time>2026-04-19T14:57:15Z</time></trkpt><trkpt lat="42.83278880626434" lon="13.494948368624183"><ele>228.0</ele><time>2026-04-19T14:57:16Z</time></trkpt><trkpt lat="42.83268098558688" lon="13.495069109558802"><ele>228.0</ele><time>2026-04-19T14:57:17Z</time></trkpt><trkpt lat="42.83258148766207" lon="13.495204198705816"><ele>228.5</ele><time>2026-04-19T14:57:18Z</time></trkpt><trkpt lat="42.83247328305844" lon="13.495323405439274"><ele>229.0</ele><time>2026-04-19T14:57:19Z</time></trkpt><trkpt lat="42.83235722719305" lon="13.495441867346164"><ele>229.5</ele><time>2026-04-19T14:57:20Z</time></trkpt><trkpt lat="42.83224202930669" lon="13.495565942703864"><ele>230.0</ele><time>2026-04-19T14:57:21Z</time></trkpt><trkpt lat="42.832120108082066" lon="13.495682369086245"><ele>230.0</ele><time>2026-04-19T14:57:22Z</time></trkpt><trkpt lat="42.83198252403118" lon="13.495774547139183"><ele>230.0</ele><time>2026-04-19T14:57:23Z</time></trkpt><trkpt lat="42.83182687758473" lon="13.495815582914576"><ele>230.0</ele><time>2026-04-19T14:57:24Z</time></trkpt><trkpt lat="42.831675479884225" lon="13.495871767492002"><ele>230.25</ele><time>2026-04-19T14:57:25Z</time></trkpt><trkpt lat="42.83152913574562" lon="13.49589621114452"><ele>230.5</ele><time>2026-04-19T14:57:26Z</time></trkpt><trkpt lat="42.83138849884254" lon="13.495929737798003"><ele>230.75</ele><time>2026-04-19T14:57:27Z</time></trkpt><trkpt lat="42.83123866851786" lon="13.49597314513608"><ele>231.0</ele><time>2026-04-19T14:57:28Z</time></trkpt><trkpt lat="42.831079208577414" lon="13.496023275603527"><ele>231.66666666666669</ele><time>2026-04-19T14:57:29Z</time></trkpt><trkpt lat="42.83091054835154" lon="13.496072656090844"><ele>232.33333333333334</ele><time>2026-04-19T14:57:30Z</time></trkpt><trkpt lat="42.83073807600804" lon="13.496092518832585"><ele>233.0</ele><time>2026-04-19T14:57:31Z</time></trkpt><trkpt lat="42.83056635112018" lon="13.496122641377267"><ele>233.0</ele><time>2026-04-19T14:57:32Z</time></trkpt><trkpt lat="42.830396624901375" lon="13.49615527214909"><ele>233.0</ele><time>2026-04-19T14:57:33Z</time></trkpt><trkpt lat="42.83022887203298" lon="13.496148460116181"><ele>233.0</ele><time>2026-04-19T14:57:34Z</time></trkpt><trkpt lat="42.83006349540312" lon="13.49613656535756"><ele>232.66666666666669</ele><time>2026-04-19T14:57:35Z</time></trkpt><trkpt lat="42.829897230436046" lon="13.496122595869576"><ele>232.33333333333331</ele><time>2026-04-19T14:57:36Z</time></trkpt><trkpt lat="42.82972684092479" lon="13.496105920179932"><ele>232.0</ele><time>2026-04-19T14:57:37Z</time></trkpt><trkpt lat="42.829560065363125" lon="13.496091206186158"><ele>232.0</ele><time>2026-04-19T14:57:38Z</time></trkpt><trkpt lat="42.82939910188298" lon="13.49607789220317"><ele>232.0</ele><time>2026-04-19T14:57:39Z</time></trkpt><trkpt lat="42.829244272679475" lon="13.496064323962594"><ele>232.0</ele><time>2026-04-19T14:57:40Z</time></trkpt><trkpt lat="42.829093825782174" lon="13.496043398533681"><ele>231.66666666666666</ele><time>2026-04-19T14:57:41Z</time></trkpt><trkpt lat="42.828937740881805" lon="13.496021593713026"><ele>231.33333333333331</ele><time>2026-04-19T14:57:42Z</time></trkpt><trkpt lat="42.8287826928195" lon="13.496004064805756"><ele>231.0</ele><time>2026-04-19T14:57:43Z</time></trkpt><trkpt lat="42.828622877745936" lon="13.496008609072392"><ele>230.66666666666669</ele><time>2026-04-19T14:57:44Z</time></trkpt><trkpt lat="42.828462222335" lon="13.49601304540213"><ele>230.33333333333334</ele><time>2026-04-19T14:57:45Z</time></trkpt><trkpt lat="42.82830136661229" lon="13.496018385014871"><ele>230.0</ele><time>2026-04-19T14:57:46Z</time></trkpt><trkpt lat="42.82814207445384" lon="13.496042795655654"><ele>230.0</ele><time>2026-04-19T14:57:47Z</time></trkpt><trkpt lat="42.827986593668555" lon="13.496086406681243"><ele>230.0</ele><time>2026-04-19T14:57:48Z</time></trkpt><trkpt lat="42.82783298381076" lon="13.49613905134689"><ele>230.0</ele><time>2026-04-19T14:57:49Z</time></trkpt><trkpt lat="42.82766314573241" lon="13.496172898204934"><ele>227.33333333333334</ele><time>2026-04-19T14:57:50Z</time></trkpt><trkpt lat="42.827497271940885" lon="13.496247323140075"><ele>224.66666666666669</ele><time>2026-04-19T14:57:51Z</time></trkpt><trkpt lat="42.82731212718997" lon="13.496316938828457"><ele>222.0</ele><time>2026-04-19T14:57:52Z</time></trkpt><trkpt lat="42.827116311285415" lon="13.496402774395158"><ele>222.0</ele><time>2026-04-19T14:57:53Z</time></trkpt><trkpt lat="42.82691113319024" lon="13.496483892145047"><ele>222.0</ele><time>2026-04-19T14:57:54Z</time></trkpt><trkpt lat="42.82671447554556" lon="13.496561445602378"><ele>222.0</ele><time>2026-04-19T14:57:55Z</time></trkpt><trkpt lat="42.826526721622876" lon="13.496659157627132"><ele>221.66666666666669</ele><time>2026-04-19T14:57:56Z</time></trkpt><trkpt lat="42.826332833054444" lon="13.496767753046925"><ele>221.33333333333334</ele><time>2026-04-19T14:57:57Z</time></trkpt><trkpt lat="42.826157952746435" lon="13.496925313022464"><ele>221.0</ele><time>2026-04-19T14:57:58Z</time></trkpt><trkpt lat="42.82599355651342" lon="13.49711779831281"><ele>222.5</ele><time>2026-04-19T14:57:59Z</time></trkpt><trkpt lat="42.82583108903674" lon="13.497340581158964"><ele>224.0</ele><time>2026-04-19T14:58:00Z</time></trkpt><trkpt lat="42.8256640956899" lon="13.497568800076131"><ele>224.0</ele><time>2026-04-19T14:58:01Z</time></trkpt><trkpt lat="42.82549003723432" lon="13.497796836997418"><ele>224.0</ele><time>2026-04-19T14:58:02Z</time></trkpt><trkpt lat="42.82532744618087" lon="13.498009416867948"><ele>222.66666666666669</ele><time>2026-04-19T14:58:03Z</time></trkpt><trkpt lat="42.825173898223596" lon="13.498212492772613"><ele>221.33333333333331</ele><time>2026-04-19T14:58:04Z</time></trkpt><trkpt lat="42.82501798199765" lon="13.498418903439827"><ele>220.0</ele><time>2026-04-19T14:58:05Z</time></trkpt><trkpt lat="42.824867584497234" lon="13.498626367452156"><ele>218.0</ele><time>2026-04-19T14:58:06Z</time></trkpt><trkpt lat="42.824718379936186" lon="13.498841316242649"><ele>216.0</ele><time>2026-04-19T14:58:07Z</time></trkpt><trkpt lat="42.82462022675104" lon="13.499084615551574"><ele>214.0</ele><time>2026-04-19T14:58:08Z</time></trkpt><trkpt lat="42.824541867154565" lon="13.499332358382471"><ele>214.0</ele><time>2026-04-19T14:58:09Z</time></trkpt><trkpt lat="42.824455259170655" lon="13.499558637061325"><ele>214.0</ele><time>2026-04-19T14:58:10Z</time></trkpt><trkpt lat="42.8243752486253" lon="13.499781169569431"><ele>214.0</ele><time>2026-04-19T14:58:11Z</time></trkpt><trkpt lat="42.824294996327275" lon="13.500001085969174"><ele>214.66666666666666</ele><time>2026-04-19T14:58:12Z</time></trkpt><trkpt lat="42.824211162059235" lon="13.500208267838094"><ele>215.33333333333331</ele><time>2026-04-19T14:58:13Z</time></trkpt><trkpt lat="42.824107143519285" lon="13.50040719597655"><ele>216.0</ele><time>2026-04-19T14:58:14Z</time></trkpt><trkpt lat="42.82398937601847" lon="13.500560063311031"><ele>216.0</ele><time>2026-04-19T14:58:15Z</time></trkpt><trkpt lat="42.823852262566184" lon="13.500664354924332"><ele>216.0</ele><time>2026-04-19T14:58:16Z</time></trkpt><trkpt lat="42.823695630419955" lon="13.500760824265688"><ele>216.0</ele><time>2026-04-19T14:58:17Z</time></trkpt><trkpt lat="42.823531388953455" lon="13.500884819231306"><ele>217.66666666666669</ele><time>2026-04-19T14:58:18Z</time></trkpt><trkpt lat="42.82335467211731" lon="13.500975016669964"><ele>219.33333333333334</ele><time>2026-04-19T14:58:19Z</time></trkpt><trkpt lat="42.82320123907731" lon="13.501095210516482"><ele>221.0</ele><time>2026-04-19T14:58:20Z</time></trkpt><trkpt lat="42.82306373545756" lon="13.501214999777583"><ele>220.33333333333334</ele><time>2026-04-19T14:58:21Z</time></trkpt><trkpt lat="42.82293917041358" lon="13.501325293627238"><ele>219.66666666666669</ele><time>2026-04-19T14:58:22Z</time></trkpt><trkpt lat="42.82280793692242" lon="13.501436676364882"><ele>219.0</ele><time>2026-04-19T14:58:23Z</time></trkpt><trkpt lat="42.822679059386886" lon="13.501541160263404"><ele>220.75</ele><time>2026-04-19T14:58:24Z</time></trkpt><trkpt lat="42.822553029013136" lon="13.501638007828713"><ele>222.5</ele><time>2026-04-19T14:58:25Z</time></trkpt><trkpt lat="42.82242315080283" lon="13.501729824220725"><ele>224.25</ele><time>2026-04-19T14:58:26Z</time></trkpt><trkpt lat="42.82228648574334" lon="13.501813832094577"><ele>226.0</ele><time>2026-04-19T14:58:27Z</time></trkpt><trkpt lat="42.82214996088321" lon="13.501889480070703"><ele>226.0</ele><time>2026-04-19T14:58:28Z</time></trkpt><trkpt lat="42.82202878015122" lon="13.50197581980836"><ele>226.0</ele><time>2026-04-19T14:58:29Z</time></trkpt><trkpt lat="42.82190982964195" lon="13.502038894624807"><ele>226.0</ele><time>2026-04-19T14:58:30.001Z</time></trkpt><trkpt lat="42.82179789810441" lon="13.50210610135437"><ele>226.0</ele><time>2026-04-19T14:58:31.001Z</time></trkpt><trkpt lat="42.82168862491596" lon="13.502198701457369"><ele>225.75</ele><time>2026-04-19T14:58:32.001Z</time></trkpt><trkpt lat="42.82159268731207" lon="13.502318825529727"><ele>225.5</ele><time>2026-04-19T14:58:33.001Z</time></trkpt><trkpt lat="42.82151343978519" lon="13.502470315501595"><ele>225.25</ele><time>2026-04-19T14:58:34.001Z</time></trkpt><trkpt lat="42.82143089445377" lon="13.50262417177212"><ele>225.0</ele><time>2026-04-19T14:58:35.001Z</time></trkpt><trkpt lat="42.82138239494304" lon="13.502806888663915"><ele>222.75</ele><time>2026-04-19T14:58:36.001Z</time></trkpt><trkpt lat="42.82133870393797" lon="13.502983407430513"><ele>220.5</ele><time>2026-04-19T14:58:37.001Z</time></trkpt><trkpt lat="42.82131979547786" lon="13.503167510983712"><ele>218.25</ele><time>2026-04-19T14:58:38.001Z</time></trkpt><trkpt lat="42.82132974539394" lon="13.50335941220484"><ele>216.0</ele><time>2026-04-19T14:58:39.001Z</time></trkpt><trkpt lat="42.821366501796874" lon="13.503558789742797"><ele>216.0</ele><time>2026-04-19T14:58:40.001Z</time></trkpt><trkpt lat="42.8213943687946" lon="13.503753206071538"><ele>216.0</ele><time>2026-04-19T14:58:41.001Z</time></trkpt><trkpt lat="42.82141625018077" lon="13.503941175590267"><ele>216.0</ele><time>2026-04-19T14:58:42.001Z</time></trkpt><trkpt lat="42.82144161137581" lon="13.504128737484548"><ele>216.0</ele><time>2026-04-19T14:58:43.001Z</time></trkpt><trkpt lat="42.82146894241565" lon="13.50430603213228"><ele>216.0</ele><time>2026-04-19T14:58:44.001Z</time></trkpt><trkpt lat="42.821489576842836" lon="13.504472746737775"><ele>216.0</ele><time>2026-04-19T14:58:45.001Z</time></trkpt><trkpt lat="42.8215077105585" lon="13.504632805391367"><ele>216.0</ele><time>2026-04-19T14:58:46.001Z</time></trkpt><trkpt lat="42.82151863886421" lon="13.504787652141383"><ele>216.0</ele><time>2026-04-19T14:58:47.001Z</time></trkpt><trkpt lat="42.82153454229598" lon="13.504931108603657"><ele>216.0</ele><time>2026-04-19T14:58:48.001Z</time></trkpt><trkpt lat="42.821540211897094" lon="13.505049447995932"><ele>216.0</ele><time>2026-04-19T14:58:49.001Z</time></trkpt><trkpt lat="42.821535933804476" lon="13.505143924863969"><ele>216.0</ele><time>2026-04-19T14:58:50.001Z</time></trkpt><trkpt lat="42.82150533039686" lon="13.505268874671396"><ele>216.0</ele><time>2026-04-19T14:58:52.001Z</time></trkpt><trkpt lat="42.82143833814704" lon="13.505361554170998"><ele>216.0</ele><time>2026-04-19T14:58:54.001Z</time></trkpt><trkpt lat="42.82140983732285" lon="13.505441293013988"><ele>216.0</ele><time>2026-04-19T14:58:58.001Z</time></trkpt><trkpt lat="42.821382711082286" lon="13.505540401104424"><ele>216.0</ele><time>2026-04-19T14:59:05Z</time></trkpt><trkpt lat="42.82142449955395" lon="13.505701140733645"><ele>216.00000000000003</ele><time>2026-04-19T14:59:07Z</time></trkpt><trkpt lat="42.82147146279068" lon="13.505774584457239"><ele>216.00000000000003</ele><time>2026-04-19T14:59:08Z</time></trkpt><trkpt lat="42.82152494435907" lon="13.505843816495831"><ele>216.0</ele><time>2026-04-19T14:59:09Z</time></trkpt><trkpt lat="42.821564667978826" lon="13.505939130125302"><ele>216.0</ele><time>2026-04-19T14:59:10Z</time></trkpt><trkpt lat="42.82161411010596" lon="13.506089470946801"><ele>214.0</ele><time>2026-04-19T14:59:11Z</time></trkpt><trkpt lat="42.821669939561886" lon="13.506285513254015"><ele>212.0</ele><time>2026-04-19T14:59:12Z</time></trkpt><trkpt lat="42.821731003311356" lon="13.506541107522235"><ele>210.0</ele><time>2026-04-19T14:59:13Z</time></trkpt><trkpt lat="42.82176995643873" lon="13.506814267082042"><ele>208.0</ele><time>2026-04-19T14:59:14Z</time></trkpt><trkpt lat="42.82182425073157" lon="13.507088761445141"><ele>206.0</ele><time>2026-04-19T14:59:15Z</time></trkpt><trkpt lat="42.82188320734919" lon="13.507356201913167"><ele>204.0</ele><time>2026-04-19T14:59:16Z</time></trkpt><trkpt lat="42.82194032072805" lon="13.50760891823158"><ele>204.0</ele><time>2026-04-19T14:59:17Z</time></trkpt><trkpt lat="42.82200662287727" lon="13.507831312844713"><ele>204.0</ele><time>2026-04-19T14:59:18Z</time></trkpt><trkpt lat="42.82209193718985" lon="13.507998603293741"><ele>204.0</ele><time>2026-04-19T14:59:19Z</time></trkpt><trkpt lat="42.822194685523726" lon="13.508113241210697"><ele>204.66666666666669</ele><time>2026-04-19T14:59:20Z</time></trkpt><trkpt lat="42.822334100920514" lon="13.508198026819002"><ele>205.33333333333334</ele><time>2026-04-19T14:59:21Z</time></trkpt><trkpt lat="42.8225109377814" lon="13.508261544813182"><ele>206.0</ele><time>2026-04-19T14:59:22Z</time></trkpt><trkpt lat="42.822696303141704" lon="13.508310174826084"><ele>206.0</ele><time>2026-04-19T14:59:23Z</time></trkpt><trkpt lat="42.82288157381394" lon="13.508368794610636"><ele>206.0</ele><time>2026-04-19T14:59:24Z</time></trkpt><trkpt lat="42.82306199425938" lon="13.508431490375898"><ele>206.0</ele><time>2026-04-19T14:59:25Z</time></trkpt><trkpt lat="42.823241983726525" lon="13.508503233188172"><ele>206.0</ele><time>2026-04-19T14:59:26Z</time></trkpt><trkpt lat="42.823417619833364" lon="13.50856491472009"><ele>206.0</ele><time>2026-04-19T14:59:27Z</time></trkpt><trkpt lat="42.82358766005909" lon="13.508631007222748"><ele>206.0</ele><time>2026-04-19T14:59:28Z</time></trkpt><trkpt lat="42.82374368811085" lon="13.508679107799203"><ele>209.33333333333334</ele><time>2026-04-19T14:59:29Z</time></trkpt><trkpt lat="42.823899102105685" lon="13.508711814700634"><ele>212.66666666666669</ele><time>2026-04-19T14:59:30Z</time></trkpt><trkpt lat="42.8240587022623" lon="13.508714024407547"><ele>216.0</ele><time>2026-04-19T14:59:31Z</time></trkpt><trkpt lat="42.82423977999878" lon="13.508685681414624"><ele>220.0</ele><time>2026-04-19T14:59:32Z</time></trkpt><trkpt lat="42.824428557045465" lon="13.508632734509833"><ele>224.0</ele><time>2026-04-19T14:59:33Z</time></trkpt><trkpt lat="42.824617215356646" lon="13.508572427671645"><ele>228.0</ele><time>2026-04-19T14:59:34Z</time></trkpt><trkpt lat="42.82480323810589" lon="13.508520131919893"><ele>228.0</ele><time>2026-04-19T14:59:35Z</time></trkpt><trkpt lat="42.82498147766489" lon="13.5084863672729"><ele>228.0</ele><time>2026-04-19T14:59:36Z</time></trkpt><trkpt lat="42.82515026245848" lon="13.508489322588872"><ele>228.0</ele><time>2026-04-19T14:59:37Z</time></trkpt><trkpt lat="42.825302057727534" lon="13.50852247391956"><ele>228.33333333333331</ele><time>2026-04-19T14:59:38Z</time></trkpt><trkpt lat="42.82545668707856" lon="13.508569748668592"><ele>228.66666666666666</ele><time>2026-04-19T14:59:39Z</time></trkpt><trkpt lat="42.825608087350226" lon="13.50863498282008"><ele>229.0</ele><time>2026-04-19T14:59:40Z</time></trkpt><trkpt lat="42.82575411699113" lon="13.508729346845557"><ele>223.66666666666666</ele><time>2026-04-19T14:59:41Z</time></trkpt><trkpt lat="42.82589625597376" lon="13.508842368054731"><ele>218.33333333333331</ele><time>2026-04-19T14:59:42Z</time></trkpt><trkpt lat="42.82603446888963" lon="13.50895656090919"><ele>213.0</ele><time>2026-04-19T14:59:43Z</time></trkpt><trkpt lat="42.82617106356392" lon="13.509071229886027"><ele>212.66666666666669</ele><time>2026-04-19T14:59:44Z</time></trkpt><trkpt lat="42.82630421583774" lon="13.509193147892082"><ele>212.33333333333334</ele><time>2026-04-19T14:59:45Z</time></trkpt><trkpt lat="42.82643016671475" lon="13.509318609791936"><ele>212.0</ele><time>2026-04-19T14:59:46Z</time></trkpt><trkpt lat="42.826553100511696" lon="13.509448432373391"><ele>209.33333333333334</ele><time>2026-04-19T14:59:47Z</time></trkpt><trkpt lat="42.82667577657796" lon="13.509592835710922"><ele>206.66666666666669</ele><time>2026-04-19T14:59:48Z</time></trkpt><trkpt lat="42.82680270386603" lon="13.509752424018298"><ele>204.0</ele><time>2026-04-19T14:59:49Z</time></trkpt><trkpt lat="42.82693472500122" lon="13.50992691844519"><ele>203.33333333333331</ele><time>2026-04-19T14:59:50Z</time></trkpt><trkpt lat="42.82706400965302" lon="13.51011028064082"><ele>202.66666666666666</ele><time>2026-04-19T14:59:51Z</time></trkpt><trkpt lat="42.82718509900666" lon="13.510292723221527"><ele>202.0</ele><time>2026-04-19T14:59:52Z</time></trkpt><trkpt lat="42.82731485012893" lon="13.51049576188634"><ele>200.33333333333331</ele><time>2026-04-19T14:59:53Z</time></trkpt><trkpt lat="42.82744454926349" lon="13.510695104495264"><ele>198.66666666666669</ele><time>2026-04-19T14:59:54Z</time></trkpt><trkpt lat="42.827572578350924" lon="13.510896554428074"><ele>197.0</ele><time>2026-04-19T14:59:55Z</time></trkpt><trkpt lat="42.82770784640052" lon="13.511102802609134"><ele>199.5</ele><time>2026-04-19T14:59:56Z</time></trkpt><trkpt lat="42.82785334627766" lon="13.511336963553637"><ele>202.0</ele><time>2026-04-19T14:59:57Z</time></trkpt><trkpt lat="42.82800343187486" lon="13.511580366801773"><ele>202.0</ele><time>2026-04-19T14:59:58Z</time></trkpt><trkpt lat="42.82814593994707" lon="13.511818989525255"><ele>202.0</ele><time>2026-04-19T14:59:59Z</time></trkpt><trkpt lat="42.828289018390606" lon="13.512039998487664"><ele>202.0</ele><time>2026-04-19T15:00:00Z</time></trkpt><trkpt lat="42.82845007951509" lon="13.512307690979641"><ele>203.5</ele><time>2026-04-19T15:00:01Z</time></trkpt><trkpt lat="42.828595863167195" lon="13.51254428534439"><ele>205.0</ele><time>2026-04-19T15:00:02Z</time></trkpt><trkpt lat="42.82874035689446" lon="13.512776647243209"><ele>209.33333333333331</ele><time>2026-04-19T15:00:03Z</time></trkpt><trkpt lat="42.82888188743854" lon="13.51300330696063"><ele>213.66666666666669</ele><time>2026-04-19T15:00:04Z</time></trkpt><trkpt lat="42.82902404679111" lon="13.513231553596155"><ele>218.0</ele><time>2026-04-19T15:00:05Z</time></trkpt><trkpt lat="42.82916637081186" lon="13.513452325682747"><ele>219.33333333333334</ele><time>2026-04-19T15:00:06Z</time></trkpt><trkpt lat="42.829309147480906" lon="13.513674325871365"><ele>220.66666666666669</ele><time>2026-04-19T15:00:07Z</time></trkpt><trkpt lat="42.829461135943966" lon="13.51390799258412"><ele>222.0</ele><time>2026-04-19T15:00:08Z</time></trkpt><trkpt lat="42.82962586515869" lon="13.51415198972018"><ele>222.0</ele><time>2026-04-19T15:00:09Z</time></trkpt><trkpt lat="42.82980072333883" lon="13.514391222616405"><ele>222.0</ele><time>2026-04-19T15:00:10Z</time></trkpt><trkpt lat="42.82997036986764" lon="13.514621210434568"><ele>216.0</ele><time>2026-04-19T15:00:11Z</time></trkpt><trkpt lat="42.83013252315508" lon="13.514850052031589"><ele>210.0</ele><time>2026-04-19T15:00:12Z</time></trkpt><trkpt lat="42.83029696896847" lon="13.515074071432837"><ele>210.0</ele><time>2026-04-19T15:00:13Z</time></trkpt><trkpt lat="42.83046295993576" lon="13.515281194276207"><ele>210.0</ele><time>2026-04-19T15:00:14Z</time></trkpt><trkpt lat="42.83062232376806" lon="13.515491207168708"><ele>210.0</ele><time>2026-04-19T15:00:15Z</time></trkpt><trkpt lat="42.83079240099897" lon="13.515729204522355"><ele>204.5</ele><time>2026-04-19T15:00:16Z</time></trkpt><trkpt lat="42.83103574320032" lon="13.515930967968824"><ele>199.0</ele><time>2026-04-19T15:00:17Z</time></trkpt><trkpt lat="42.83127876228308" lon="13.516176586172367"><ele>208.0</ele><time>2026-04-19T15:00:18Z</time></trkpt><trkpt lat="42.831519163678195" lon="13.516436952380205"><ele>217.0</ele><time>2026-04-19T15:00:19Z</time></trkpt><trkpt lat="42.83177170073325" lon="13.516674253419218"><ele>210.5</ele><time>2026-04-19T15:00:20Z</time></trkpt><trkpt lat="42.83202368546674" lon="13.516902990304766"><ele>204.0</ele><time>2026-04-19T15:00:21Z</time></trkpt><trkpt lat="42.83226702159732" lon="13.517113528066629"><ele>209.5</ele><time>2026-04-19T15:00:22Z</time></trkpt><trkpt lat="42.83250677695527" lon="13.51730007229755"><ele>215.0</ele><time>2026-04-19T15:00:23Z</time></trkpt><trkpt lat="42.832741581636746" lon="13.517471754693013"><ele>215.0</ele><time>2026-04-19T15:00:24Z</time></trkpt><trkpt lat="42.832981722620524" lon="13.517631568096368"><ele>215.0</ele><time>2026-04-19T15:00:25Z</time></trkpt><trkpt lat="42.83322386977128" lon="13.517788537102602"><ele>219.0</ele><time>2026-04-19T15:00:26Z</time></trkpt><trkpt lat="42.83347037715712" lon="13.517942053825708"><ele>223.0</ele><time>2026-04-19T15:00:27Z</time></trkpt><trkpt lat="42.833711664775535" lon="13.518089240480652"><ele>223.0</ele><time>2026-04-19T15:00:28Z</time></trkpt><trkpt lat="42.83395307440967" lon="13.518234201555854"><ele>223.0</ele><time>2026-04-19T15:00:29Z</time></trkpt><trkpt lat="42.83420400904808" lon="13.518383816871689"><ele>218.0</ele><time>2026-04-19T15:00:30Z</time></trkpt><trkpt lat="42.834462440044405" lon="13.51853570078776"><ele>213.0</ele><time>2026-04-19T15:00:31Z</time></trkpt><trkpt lat="42.83474112450196" lon="13.51868948039159"><ele>212.5</ele><time>2026-04-19T15:00:32Z</time></trkpt><trkpt lat="42.83500878013087" lon="13.518833355654696"><ele>212.0</ele><time>2026-04-19T15:00:33Z</time></trkpt><trkpt lat="42.83526735383374" lon="13.518967205790489"><ele>212.0</ele><time>2026-04-19T15:00:34Z</time></trkpt><trkpt lat="42.835526327891984" lon="13.519090496117677"><ele>212.0</ele><time>2026-04-19T15:00:35Z</time></trkpt><trkpt lat="42.83578861941069" lon="13.519208051090787"><ele>205.0</ele><time>2026-04-19T15:00:36.001Z</time></trkpt><trkpt lat="42.83606125593258" lon="13.519328001689022"><ele>198.0</ele><time>2026-04-19T15:00:37.001Z</time></trkpt><trkpt lat="42.83633124663073" lon="13.519445724080116"><ele>198.0</ele><time>2026-04-19T15:00:38.001Z</time></trkpt><trkpt lat="42.83659947609255" lon="13.519558934687971"><ele>198.0</ele><time>2026-04-19T15:00:39.001Z</time></trkpt><trkpt lat="42.83686722748203" lon="13.519673052290301"><ele>203.5</ele><time>2026-04-19T15:00:40.001Z</time></trkpt><trkpt lat="42.83713182198908" lon="13.519784107923506"><ele>209.0</ele><time>2026-04-19T15:00:41.001Z</time></trkpt><trkpt lat="42.837394662188636" lon="13.519892943996075"><ele>203.0</ele><time>2026-04-19T15:00:42.001Z</time></trkpt><trkpt lat="42.837663102526086" lon="13.520000695380793"><ele>197.0</ele><time>2026-04-19T15:00:43.001Z</time></trkpt><trkpt lat="42.83792447880661" lon="13.520111217727052"><ele>197.0</ele><time>2026-04-19T15:00:44.001Z</time></trkpt><trkpt lat="42.8381817055819" lon="13.52022307781569"><ele>197.0</ele><time>2026-04-19T15:00:45.001Z</time></trkpt><trkpt lat="42.83843309010347" lon="13.520351053673382"><ele>196.0</ele><time>2026-04-19T15:00:46.001Z</time></trkpt><trkpt lat="42.83868073178647" lon="13.520485997726436"><ele>195.0</ele><time>2026-04-19T15:00:47.001Z</time></trkpt><trkpt lat="42.8389252468683" lon="13.520625115313756"><ele>195.0</ele><time>2026-04-19T15:00:48.001Z</time></trkpt><trkpt lat="42.839165019729634" lon="13.520779465852202"><ele>195.0</ele><time>2026-04-19T15:00:49.001Z</time></trkpt><trkpt lat="42.83940654274668" lon="13.520946301752948"><ele>192.5</ele><time>2026-04-19T15:00:50.001Z</time></trkpt><trkpt lat="42.83964407260473" lon="13.521122069442937"><ele>190.0</ele><time>2026-04-19T15:00:51.001Z</time></trkpt><trkpt lat="42.83987543067608" lon="13.521308513666298"><ele>190.0</ele><time>2026-04-19T15:00:52.001Z</time></trkpt><trkpt lat="42.840106690030396" lon="13.521517054668726"><ele>190.0</ele><time>2026-04-19T15:00:53.001Z</time></trkpt><trkpt lat="42.840329377186414" lon="13.521740267583658"><ele>191.0</ele><time>2026-04-19T15:00:54.001Z</time></trkpt><trkpt lat="42.840547408464495" lon="13.521977511043628"><ele>192.0</ele><time>2026-04-19T15:00:55.001Z</time></trkpt><trkpt lat="42.84075491543605" lon="13.522231754304135"><ele>192.0</ele><time>2026-04-19T15:00:56.001Z</time></trkpt><trkpt lat="42.840949628062475" lon="13.522501014719584"><ele>192.0</ele><time>2026-04-19T15:00:57Z</time></trkpt><trkpt lat="42.84113357932079" lon="13.522784142958583"><ele>192.0</ele><time>2026-04-19T15:00:58.001Z</time></trkpt><trkpt lat="42.84131573716173" lon="13.52307387124115"><ele>192.0</ele><time>2026-04-19T15:00:59Z</time></trkpt><trkpt lat="42.84150267620074" lon="13.523344292500648"><ele>192.0</ele><time>2026-04-19T15:01:00Z</time></trkpt><trkpt lat="42.84169954813887" lon="13.523600698495569"><ele>192.0</ele><time>2026-04-19T15:01:01Z</time></trkpt><trkpt lat="42.84190748890528" lon="13.52384983072785"><ele>190.0</ele><time>2026-04-19T15:01:02Z</time></trkpt><trkpt lat="42.84211668192562" lon="13.524088631701405"><ele>188.0</ele><time>2026-04-19T15:01:03Z</time></trkpt><trkpt lat="42.84233198515455" lon="13.524325209497249"><ele>188.0</ele><time>2026-04-19T15:01:04Z</time></trkpt><trkpt lat="42.84254951928675" lon="13.52455503589956"><ele>188.0</ele><time>2026-04-19T15:01:05Z</time></trkpt><trkpt lat="42.84276761084754" lon="13.52478181969569"><ele>186.5</ele><time>2026-04-19T15:01:06Z</time></trkpt><trkpt lat="42.8429878216828" lon="13.525006053511136"><ele>185.0</ele><time>2026-04-19T15:01:07Z</time></trkpt><trkpt lat="42.84321087214124" lon="13.525225368193054"><ele>184.5</ele><time>2026-04-19T15:01:08Z</time></trkpt><trkpt lat="42.843432608465676" lon="13.525439830387883"><ele>184.0</ele><time>2026-04-19T15:01:09Z</time></trkpt><trkpt lat="42.84365842396222" lon="13.52563314072667"><ele>184.0</ele><time>2026-04-19T15:01:10Z</time></trkpt><trkpt lat="42.84388146417637" lon="13.525808334667481"><ele>184.0</ele><time>2026-04-19T15:01:11Z</time></trkpt><trkpt lat="42.8441116210786" lon="13.525985907282633"><ele>184.5</ele><time>2026-04-19T15:01:12Z</time></trkpt><trkpt lat="42.84435548839821" lon="13.526177864830562"><ele>185.0</ele><time>2026-04-19T15:01:13Z</time></trkpt><trkpt lat="42.844590888509494" lon="13.52636492396308"><ele>185.0</ele><time>2026-04-19T15:01:14Z</time></trkpt><trkpt lat="42.84482614776331" lon="13.526546462501774"><ele>185.0</ele><time>2026-04-19T15:01:15Z</time></trkpt><trkpt lat="42.84506960978893" lon="13.526723770502937"><ele>182.5</ele><time>2026-04-19T15:01:16Z</time></trkpt><trkpt lat="42.845325099303416" lon="13.526907387113582"><ele>180.0</ele><time>2026-04-19T15:01:17Z</time></trkpt><trkpt lat="42.845588434124245" lon="13.527099346583636"><ele>180.0</ele><time>2026-04-19T15:01:18Z</time></trkpt><trkpt lat="42.845853235857405" lon="13.527297422148536"><ele>180.0</ele><time>2026-04-19T15:01:19Z</time></trkpt><trkpt lat="42.84611373557622" lon="13.527478968390927"><ele>173.0</ele><time>2026-04-19T15:01:20Z</time></trkpt><trkpt lat="42.84636708551612" lon="13.527663316617039"><ele>166.0</ele><time>2026-04-19T15:01:21Z</time></trkpt><trkpt lat="42.8466177042056" lon="13.527843162499208"><ele>167.0</ele><time>2026-04-19T15:01:22Z</time></trkpt><trkpt lat="42.84686212289272" lon="13.52802853723642"><ele>168.0</ele><time>2026-04-19T15:01:23Z</time></trkpt><trkpt lat="42.84710256619068" lon="13.528214919349798"><ele>168.0</ele><time>2026-04-19T15:01:24Z</time></trkpt><trkpt lat="42.847341009410655" lon="13.52838983280512"><ele>168.0</ele><time>2026-04-19T15:01:25Z</time></trkpt><trkpt lat="42.84757859919039" lon="13.528557014240773"><ele>168.0</ele><time>2026-04-19T15:01:26Z</time></trkpt><trkpt lat="42.84781895323851" lon="13.528723573635911"><ele>168.0</ele><time>2026-04-19T15:01:27Z</time></trkpt><trkpt lat="42.848064765891685" lon="13.528896578979197"><ele>168.0</ele><time>2026-04-19T15:01:28Z</time></trkpt><trkpt lat="42.848307491557144" lon="13.52907257307938"><ele>168.0</ele><time>2026-04-19T15:01:29Z</time></trkpt><trkpt lat="42.84855183513588" lon="13.529252908419357"><ele>165.0</ele><time>2026-04-19T15:01:30Z</time></trkpt><trkpt lat="42.84878886993607" lon="13.52944862805071"><ele>162.0</ele><time>2026-04-19T15:01:31Z</time></trkpt><trkpt lat="42.8490171356357" lon="13.529668337235726"><ele>163.5</ele><time>2026-04-19T15:01:32Z</time></trkpt><trkpt lat="42.84922203131533" lon="13.529911055011302"><ele>165.0</ele><time>2026-04-19T15:01:33Z</time></trkpt><trkpt lat="42.84940918219317" lon="13.530188171776498"><ele>173.0</ele><time>2026-04-19T15:01:34Z</time></trkpt><trkpt lat="42.84956539380442" lon="13.530487705658544"><ele>181.0</ele><time>2026-04-19T15:01:35Z</time></trkpt><trkpt lat="42.849690339861354" lon="13.530807369048985"><ele>181.0</ele><time>2026-04-19T15:01:36Z</time></trkpt><trkpt lat="42.849796662461394" lon="13.531169636525046"><ele>181.0</ele><time>2026-04-19T15:01:37Z</time></trkpt><trkpt lat="42.84988690476481" lon="13.531539287680081"><ele>184.5</ele><time>2026-04-19T15:01:38Z</time></trkpt><trkpt lat="42.849957312410474" lon="13.531895602090344"><ele>188.0</ele><time>2026-04-19T15:01:39Z</time></trkpt><trkpt lat="42.850010135511276" lon="13.532242219347307"><ele>190.0</ele><time>2026-04-19T15:01:40Z</time></trkpt><trkpt lat="42.85003524611558" lon="13.532575099179981"><ele>192.0</ele><time>2026-04-19T15:01:41Z</time></trkpt><trkpt lat="42.85004689597601" lon="13.532884558460506"><ele>191.0</ele><time>2026-04-19T15:01:42Z</time></trkpt><trkpt lat="42.85005545819563" lon="13.53317639794212"><ele>190.0</ele><time>2026-04-19T15:01:43Z</time></trkpt><trkpt lat="42.85005486296744" lon="13.533456521848246"><ele>189.0</ele><time>2026-04-19T15:01:44Z</time></trkpt><trkpt lat="42.85005548350834" lon="13.533729583023133"><ele>187.0</ele><time>2026-04-19T15:01:45Z</time></trkpt><trkpt lat="42.8500582324438" lon="13.533984671770556"><ele>185.0</ele><time>2026-04-19T15:01:46Z</time></trkpt><trkpt lat="42.85006069757637" lon="13.534229133979052"><ele>183.0</ele><time>2026-04-19T15:01:47Z</time></trkpt><trkpt lat="42.85006764010841" lon="13.534469265530703"><ele>182.33333333333334</ele><time>2026-04-19T15:01:48Z</time></trkpt><trkpt lat="42.85007376676913" lon="13.534698767433193"><ele>181.66666666666669</ele><time>2026-04-19T15:01:49Z</time></trkpt><trkpt lat="42.85008374410361" lon="13.534933930357614"><ele>181.0</ele><time>2026-04-19T15:01:50Z</time></trkpt><trkpt lat="42.85008608892906" lon="13.53516954856008"><ele>181.66666666666669</ele><time>2026-04-19T15:01:51Z</time></trkpt><trkpt lat="42.85008804775218" lon="13.535404964264641"><ele>182.33333333333334</ele><time>2026-04-19T15:01:52Z</time></trkpt><trkpt lat="42.8500910636015" lon="13.535636097493885"><ele>183.0</ele><time>2026-04-19T15:01:53Z</time></trkpt><trkpt lat="42.850097168393106" lon="13.53587459566632"><ele>183.0</ele><time>2026-04-19T15:01:54Z</time></trkpt><trkpt lat="42.8501043734794" lon="13.53611320809116"><ele>183.0</ele><time>2026-04-19T15:01:55Z</time></trkpt><trkpt lat="42.85011126304237" lon="13.53633599568265"><ele>183.0</ele><time>2026-04-19T15:01:56Z</time></trkpt><trkpt lat="42.850119381182736" lon="13.536559399829063"><ele>180.33333333333334</ele><time>2026-04-19T15:01:57Z</time></trkpt><trkpt lat="42.85012625263559" lon="13.536790310825797"><ele>177.66666666666669</ele><time>2026-04-19T15:01:58Z</time></trkpt><trkpt lat="42.850133614910646" lon="13.537013710581412"><ele>175.0</ele><time>2026-04-19T15:01:59Z</time></trkpt><trkpt lat="42.850136970107904" lon="13.537265109881089"><ele>174.33333333333334</ele><time>2026-04-19T15:02:00Z</time></trkpt><trkpt lat="42.8501395039508" lon="13.53755707428127"><ele>173.66666666666666</ele><time>2026-04-19T15:02:01Z</time></trkpt><trkpt lat="42.850142080532535" lon="13.537866303114448"><ele>173.0</ele><time>2026-04-19T15:02:02Z</time></trkpt><trkpt lat="42.85014422839649" lon="13.538190582998483"><ele>173.0</ele><time>2026-04-19T15:02:03Z</time></trkpt><trkpt lat="42.85014422761133" lon="13.538522589403657"><ele>173.0</ele><time>2026-04-19T15:02:04Z</time></trkpt><trkpt lat="42.85014360186056" lon="13.538854383567687"><ele>174.0</ele><time>2026-04-19T15:02:05Z</time></trkpt><trkpt lat="42.85013547400784" lon="13.539179359558075"><ele>175.0</ele><time>2026-04-19T15:02:06Z</time></trkpt><trkpt lat="42.8501151848153" lon="13.53949661172197"><ele>177.0</ele><time>2026-04-19T15:02:07Z</time></trkpt><trkpt lat="42.850083284714835" lon="13.539794006407886"><ele>179.0</ele><time>2026-04-19T15:02:08Z</time></trkpt><trkpt lat="42.85003520550601" lon="13.540066655599023"><ele>181.0</ele><time>2026-04-19T15:02:09Z</time></trkpt><trkpt lat="42.84997848647288" lon="13.54031246250154"><ele>178.66666666666669</ele><time>2026-04-19T15:02:10Z</time></trkpt><trkpt lat="42.849919643617454" lon="13.540562658176796"><ele>176.33333333333334</ele><time>2026-04-19T15:02:11Z</time></trkpt><trkpt lat="42.849850207605535" lon="13.540821061087366"><ele>174.0</ele><time>2026-04-19T15:02:12Z</time></trkpt><trkpt lat="42.84975576835592" lon="13.54106503865296"><ele>173.66666666666666</ele><time>2026-04-19T15:02:13Z</time></trkpt><trkpt lat="42.84969128882048" lon="13.541297468906624"><ele>173.33333333333331</ele><time>2026-04-19T15:02:14Z</time></trkpt><trkpt lat="42.84961572116715" lon="13.541505786574442"><ele>173.0</ele><time>2026-04-19T15:02:15Z</time></trkpt><trkpt lat="42.849538851439426" lon="13.541710473957366"><ele>173.0</ele><time>2026-04-19T15:02:16Z</time></trkpt><trkpt lat="42.84946248359747" lon="13.541920632025308"><ele>173.0</ele><time>2026-04-19T15:02:17Z</time></trkpt><trkpt lat="42.849388893008104" lon="13.542130447318534"><ele>173.0</ele><time>2026-04-19T15:02:18Z</time></trkpt><trkpt lat="42.849316423759376" lon="13.542344515669209"><ele>172.33333333333331</ele><time>2026-04-19T15:02:19Z</time></trkpt><trkpt lat="42.84925003254778" lon="13.542546294643307"><ele>171.66666666666666</ele><time>2026-04-19T15:02:20Z</time></trkpt><trkpt lat="42.84918671429885" lon="13.54274845705966"><ele>171.0</ele><time>2026-04-19T15:02:21Z</time></trkpt><trkpt lat="42.849132057208855" lon="13.542936002904424"><ele>171.0</ele><time>2026-04-19T15:02:22Z</time></trkpt><trkpt lat="42.84907685478698" lon="13.543127775465086"><ele>171.0</ele><time>2026-04-19T15:02:23Z</time></trkpt><trkpt lat="42.849029811561145" lon="13.54333308476995"><ele>171.0</ele><time>2026-04-19T15:02:24Z</time></trkpt><trkpt lat="42.84899232622019" lon="13.543543290822507"><ele>169.66666666666666</ele><time>2026-04-19T15:02:25Z</time></trkpt><trkpt lat="42.84895889175163" lon="13.543759956396741"><ele>168.33333333333331</ele><time>2026-04-19T15:02:26Z</time></trkpt><trkpt lat="42.84892755922826" lon="13.543982261663938"><ele>167.0</ele><time>2026-04-19T15:02:27Z</time></trkpt><trkpt lat="42.84890409242529" lon="13.544215714016866"><ele>167.0</ele><time>2026-04-19T15:02:28Z</time></trkpt><trkpt lat="42.84888918055647" lon="13.5444782525688"><ele>167.0</ele><time>2026-04-19T15:02:29Z</time></trkpt><trkpt lat="42.848888797172656" lon="13.544758730425926"><ele>167.0</ele><time>2026-04-19T15:02:30Z</time></trkpt><trkpt lat="42.84887484730688" lon="13.545084603824943"><ele>175.0</ele><time>2026-04-19T15:02:31Z</time></trkpt><trkpt lat="42.84887876861572" lon="13.5454414579594"><ele>183.0</ele><time>2026-04-19T15:02:32Z</time></trkpt><trkpt lat="42.8488853223145" lon="13.54582135097134"><ele>183.0</ele><time>2026-04-19T15:02:33Z</time></trkpt><trkpt lat="42.84889283433006" lon="13.546198876102256"><ele>183.0</ele><time>2026-04-19T15:02:34Z</time></trkpt><trkpt lat="42.848894450060165" lon="13.546545614853652"><ele>183.0</ele><time>2026-04-19T15:02:35Z</time></trkpt><trkpt lat="42.84888988731996" lon="13.54688486014686"><ele>183.0</ele><time>2026-04-19T15:02:36Z</time></trkpt><trkpt lat="42.84887243634903" lon="13.547248724498884"><ele>183.0</ele><time>2026-04-19T15:02:37Z</time></trkpt><trkpt lat="42.84884543753645" lon="13.547638213787488"><ele>183.0</ele><time>2026-04-19T15:02:37.999Z</time></trkpt><trkpt lat="42.84881201331957" lon="13.54805543050446"><ele>186.5</ele><time>2026-04-19T15:02:38.999Z</time></trkpt><trkpt lat="42.848776002583435" lon="13.548476883232247"><ele>190.0</ele><time>2026-04-19T15:02:39.999Z</time></trkpt><trkpt lat="42.84873696756534" lon="13.548913580037619"><ele>193.0</ele><time>2026-04-19T15:02:40.999Z</time></trkpt><trkpt lat="42.84871175988197" lon="13.549361807614128"><ele>196.0</ele><time>2026-04-19T15:02:42Z</time></trkpt><trkpt lat="42.84867349331251" lon="13.5497637164759"><ele>203.5</ele><time>2026-04-19T15:02:43Z</time></trkpt><trkpt lat="42.848637854048036" lon="13.55012599871961"><ele>211.0</ele><time>2026-04-19T15:02:44Z</time></trkpt><trkpt lat="42.848609251708275" lon="13.550482038692769"><ele>219.5</ele><time>2026-04-19T15:02:45Z</time></trkpt><trkpt lat="42.84856831549918" lon="13.55084204339582"><ele>228.0</ele><time>2026-04-19T15:02:46Z</time></trkpt><trkpt lat="42.84853781390646" lon="13.551207633035647"><ele>238.0</ele><time>2026-04-19T15:02:47Z</time></trkpt><trkpt lat="42.84850596823424" lon="13.55157176269049"><ele>248.0</ele><time>2026-04-19T15:02:48Z</time></trkpt><trkpt lat="42.84847312544318" lon="13.551931460062054"><ele>267.0</ele><time>2026-04-19T15:02:49Z</time></trkpt><trkpt lat="42.84843811558448" lon="13.552314892160119"><ele>286.0</ele><time>2026-04-19T15:02:50.065Z</time></trkpt><trkpt lat="42.848406705869785" lon="13.552680845602433"><ele>288.5</ele><time>2026-04-19T15:02:51.066Z</time></trkpt><trkpt lat="42.84837591105809" lon="13.553040161639974"><ele>291.0</ele><time>2026-04-19T15:02:52.066Z</time></trkpt><trkpt lat="42.848155728777634" lon="13.5557767442122"><ele>277.0</ele><time>2026-04-19T15:02:55.497Z</time></trkpt><trkpt lat="42.848071077809024" lon="13.556744032303856"><ele>274.0</ele><time>2026-04-19T15:02:56.493Z</time></trkpt><trkpt lat="42.8480389" lon="13.5571289"><ele>271.0</ele><time>2026-04-19T15:02:57.494Z</time></trkpt><trkpt lat="42.84718419245965" lon="13.562375886454596"><ele>242.0</ele><time>2026-04-19T15:03:31Z</time></trkpt><trkpt lat="42.847128937657764" lon="13.562601510909191"><ele>213.0</ele><time>2026-04-19T15:03:32Z</time></trkpt><trkpt lat="42.847044235023986" lon="13.562850580774887"><ele>184.0</ele><time>2026-04-19T15:03:33Z</time></trkpt><trkpt lat="42.846972901754896" lon="13.563078030535413"><ele>186.66666666666669</ele><time>2026-04-19T15:03:34Z</time></trkpt><trkpt lat="42.84689659680484" lon="13.56330696117375"><ele>189.33333333333334</ele><time>2026-04-19T15:03:35Z</time></trkpt><trkpt lat="42.846829884602016" lon="13.563531559864918"><ele>192.0</ele><time>2026-04-19T15:03:36Z</time></trkpt><trkpt lat="42.84675441161538" lon="13.563768025210551"><ele>192.0</ele><time>2026-04-19T15:03:37Z</time></trkpt><trkpt lat="42.846679013554244" lon="13.56401310682857"><ele>192.0</ele><time>2026-04-19T15:03:38Z</time></trkpt><trkpt lat="42.846604016019164" lon="13.56427768744457"><ele>192.0</ele><time>2026-04-19T15:03:39Z</time></trkpt><trkpt lat="42.846523048647136" lon="13.564557256803559"><ele>189.33333333333334</ele><time>2026-04-19T15:03:40Z</time></trkpt><trkpt lat="42.84644575506925" lon="13.56484722627552"><ele>186.66666666666669</ele><time>2026-04-19T15:03:41Z</time></trkpt><trkpt lat="42.846381098240116" lon="13.565133892747767"><ele>184.0</ele><time>2026-04-19T15:03:42Z</time></trkpt><trkpt lat="42.84632763975368" lon="13.56541378435476"><ele>181.66666666666669</ele><time>2026-04-19T15:03:43Z</time></trkpt><trkpt lat="42.84628509840692" lon="13.565687172180594"><ele>179.33333333333334</ele><time>2026-04-19T15:03:44Z</time></trkpt><trkpt lat="42.84626043360394" lon="13.565953041974893"><ele>177.0</ele><time>2026-04-19T15:03:45Z</time></trkpt><trkpt lat="42.846247428625766" lon="13.566221412544168"><ele>177.0</ele><time>2026-04-19T15:03:46Z</time></trkpt><trkpt lat="42.84623806601982" lon="13.56649051535899"><ele>177.0</ele><time>2026-04-19T15:03:47Z</time></trkpt><trkpt lat="42.846234593926035" lon="13.566748496084344"><ele>177.0</ele><time>2026-04-19T15:03:48Z</time></trkpt><trkpt lat="42.84624131968081" lon="13.567004974452864"><ele>179.0</ele><time>2026-04-19T15:03:49Z</time></trkpt><trkpt lat="42.84625385550613" lon="13.567261226384856"><ele>181.0</ele><time>2026-04-19T15:03:50Z</time></trkpt><trkpt lat="42.84627634515486" lon="13.567508101481952"><ele>183.0</ele><time>2026-04-19T15:03:51Z</time></trkpt><trkpt lat="42.84631108533273" lon="13.567761159268677"><ele>186.0</ele><time>2026-04-19T15:03:52Z</time></trkpt><trkpt lat="42.84635472893989" lon="13.568021391483791"><ele>189.0</ele><time>2026-04-19T15:03:53Z</time></trkpt><trkpt lat="42.84640833477962" lon="13.568295391680255"><ele>192.0</ele><time>2026-04-19T15:03:54Z</time></trkpt><trkpt lat="42.84647686503455" lon="13.568588251673107"><ele>196.0</ele><time>2026-04-19T15:03:55Z</time></trkpt><trkpt lat="42.846560847959594" lon="13.568911764647597"><ele>200.0</ele><time>2026-04-19T15:03:56Z</time></trkpt><trkpt lat="42.84664435486119" lon="13.569259815279123"><ele>202.5</ele><time>2026-04-19T15:03:57Z</time></trkpt><trkpt lat="42.84672703326041" lon="13.569618831344089"><ele>205.0</ele><time>2026-04-19T15:03:58Z</time></trkpt><trkpt lat="42.84680396294758" lon="13.569973005311322"><ele>195.0</ele><time>2026-04-19T15:03:59Z</time></trkpt><trkpt lat="42.84687459626007" lon="13.570322172607558"><ele>185.0</ele><time>2026-04-19T15:04:00Z</time></trkpt><trkpt lat="42.84693814044028" lon="13.570665950002686"><ele>184.5</ele><time>2026-04-19T15:04:01Z</time></trkpt><trkpt lat="42.84701160710115" lon="13.571023386715435"><ele>184.0</ele><time>2026-04-19T15:04:02Z</time></trkpt><trkpt lat="42.84707221448773" lon="13.571391678247835"><ele>184.0</ele><time>2026-04-19T15:04:03Z</time></trkpt><trkpt lat="42.84712921515967" lon="13.571764880427766"><ele>184.0</ele><time>2026-04-19T15:04:03.999Z</time></trkpt><trkpt lat="42.84717926206255" lon="13.572137442484353"><ele>185.5</ele><time>2026-04-19T15:04:04.999Z</time></trkpt><trkpt lat="42.847221038096166" lon="13.572503656084773"><ele>187.0</ele><time>2026-04-19T15:04:05.999Z</time></trkpt><trkpt lat="42.847260247427414" lon="13.572866252234194"><ele>188.5</ele><time>2026-04-19T15:04:06.999Z</time></trkpt><trkpt lat="42.84729047462923" lon="13.573210223374108"><ele>190.0</ele><time>2026-04-19T15:04:07.999Z</time></trkpt><trkpt lat="42.847315398194056" lon="13.573548505668454"><ele>189.0</ele><time>2026-04-19T15:04:08.999Z</time></trkpt><trkpt lat="42.84734791305268" lon="13.573876591684156"><ele>188.0</ele><time>2026-04-19T15:04:09.999Z</time></trkpt><trkpt lat="42.84738175766559" lon="13.574200914459047"><ele>188.0</ele><time>2026-04-19T15:04:10.999Z</time></trkpt><trkpt lat="42.847420397846285" lon="13.574517861189227"><ele>188.0</ele><time>2026-04-19T15:04:11.999Z</time></trkpt><trkpt lat="42.847469783785535" lon="13.574823241281482"><ele>189.33333333333331</ele><time>2026-04-19T15:04:12.999Z</time></trkpt><trkpt lat="42.8475253753539" lon="13.575102017026316"><ele>190.66666666666666</ele><time>2026-04-19T15:04:13.999Z</time></trkpt><trkpt lat="42.847586869994664" lon="13.575360721140981"><ele>192.0</ele><time>2026-04-19T15:04:14.999Z</time></trkpt><trkpt lat="42.847653519408745" lon="13.575607304532177"><ele>191.66666666666666</ele><time>2026-04-19T15:04:15.999Z</time></trkpt><trkpt lat="42.84772973867392" lon="13.57585415633934"><ele>191.33333333333331</ele><time>2026-04-19T15:04:16.999Z</time></trkpt><trkpt lat="42.847809374398295" lon="13.576097610368896"><ele>191.0</ele><time>2026-04-19T15:04:17.999Z</time></trkpt><trkpt lat="42.847892640107" lon="13.576343446405168"><ele>191.0</ele><time>2026-04-19T15:04:18.999Z</time></trkpt><trkpt lat="42.84797487685089" lon="13.576585791416509"><ele>191.0</ele><time>2026-04-19T15:04:19.999Z</time></trkpt><trkpt lat="42.848060523056766" lon="13.576827985994326"><ele>191.0</ele><time>2026-04-19T15:04:20.999Z</time></trkpt><trkpt lat="42.848141355905874" lon="13.577070705622127"><ele>194.0</ele><time>2026-04-19T15:04:21.999Z</time></trkpt><trkpt lat="42.8482205968071" lon="13.577311498478757"><ele>197.0</ele><time>2026-04-19T15:04:22.999Z</time></trkpt><trkpt lat="42.84829574925729" lon="13.577547801376799"><ele>200.0</ele><time>2026-04-19T15:04:23.999Z</time></trkpt><trkpt lat="42.84836429580299" lon="13.577788237996597"><ele>197.0</ele><time>2026-04-19T15:04:24.999Z</time></trkpt><trkpt lat="42.84842411233712" lon="13.578037623802643"><ele>194.0</ele><time>2026-04-19T15:04:25.999Z</time></trkpt><trkpt lat="42.84847628498631" lon="13.578290153082662"><ele>191.0</ele><time>2026-04-19T15:04:26.999Z</time></trkpt><trkpt lat="42.84852090032993" lon="13.578548416538732"><ele>193.66666666666666</ele><time>2026-04-19T15:04:27.999Z</time></trkpt><trkpt lat="42.84855269274572" lon="13.578799800625108"><ele>196.33333333333331</ele><time>2026-04-19T15:04:28.999Z</time></trkpt><trkpt lat="42.848566847128154" lon="13.57903601284377"><ele>199.0</ele><time>2026-04-19T15:04:29.999Z</time></trkpt><trkpt lat="42.848563521426605" lon="13.579284975185223"><ele>198.33333333333331</ele><time>2026-04-19T15:04:30.999Z</time></trkpt><trkpt lat="42.848557656000246" lon="13.579542005700084"><ele>197.66666666666669</ele><time>2026-04-19T15:04:31.999Z</time></trkpt><trkpt lat="42.8485555277772" lon="13.579794323451386"><ele>197.0</ele><time>2026-04-19T15:04:32.999Z</time></trkpt><trkpt lat="42.848546398129926" lon="13.58004396695953"><ele>197.0</ele><time>2026-04-19T15:04:33.999Z</time></trkpt><trkpt lat="42.848535449242696" lon="13.580300493429567"><ele>197.0</ele><time>2026-04-19T15:04:34.999Z</time></trkpt><trkpt lat="42.848509149134905" lon="13.580575132914307"><ele>197.0</ele><time>2026-04-19T15:04:35.999Z</time></trkpt><trkpt lat="42.848462038158594" lon="13.580848043496951"><ele>200.0</ele><time>2026-04-19T15:04:36.999Z</time></trkpt><trkpt lat="42.84838909657933" lon="13.5811274374738"><ele>203.0</ele><time>2026-04-19T15:04:37.999Z</time></trkpt><trkpt lat="42.848288040402274" lon="13.581420362232715"><ele>203.0</ele><time>2026-04-19T15:04:38.999Z</time></trkpt><trkpt lat="42.84816752748577" lon="13.581727052325482"><ele>203.0</ele><time>2026-04-19T15:04:39.999Z</time></trkpt><trkpt lat="42.84804620055312" lon="13.582039064185713"><ele>197.0</ele><time>2026-04-19T15:04:40.999Z</time></trkpt><trkpt lat="42.84792155644259" lon="13.582354783037694"><ele>191.0</ele><time>2026-04-19T15:04:41.999Z</time></trkpt><trkpt lat="42.847790132735035" lon="13.582675924716453"><ele>193.0</ele><time>2026-04-19T15:04:42.999Z</time></trkpt><trkpt lat="42.84765820567662" lon="13.582989918505687"><ele>195.0</ele><time>2026-04-19T15:04:43.999Z</time></trkpt><trkpt lat="42.84752770761634" lon="13.583313037514658"><ele>195.0</ele><time>2026-04-19T15:04:44.999Z</time></trkpt><trkpt lat="42.84740124181981" lon="13.58364227968923"><ele>195.0</ele><time>2026-04-19T15:04:45.999Z</time></trkpt><trkpt lat="42.84727656272943" lon="13.583984524333808"><ele>194.5</ele><time>2026-04-19T15:04:46.999Z</time></trkpt><trkpt lat="42.847159707292484" lon="13.584333821988041"><ele>194.0</ele><time>2026-04-19T15:04:48Z</time></trkpt><trkpt lat="42.847051738359134" lon="13.584680475837686"><ele>193.0</ele><time>2026-04-19T15:04:49Z</time></trkpt><trkpt lat="42.84695377999135" lon="13.585042405428368"><ele>192.0</ele><time>2026-04-19T15:04:50Z</time></trkpt><trkpt lat="42.846867702382" lon="13.585412911085616"><ele>198.0</ele><time>2026-04-19T15:04:51Z</time></trkpt><trkpt lat="42.846794123457876" lon="13.585808267078335"><ele>204.0</ele><time>2026-04-19T15:04:52Z</time></trkpt><trkpt lat="42.846724873274155" lon="13.586238043519067"><ele>204.0</ele><time>2026-04-19T15:04:53Z</time></trkpt><trkpt lat="42.84666758798827" lon="13.586689257423666"><ele>204.0</ele><time>2026-04-19T15:04:54Z</time></trkpt><trkpt lat="42.84662388818372" lon="13.587165273803105"><ele>198.5</ele><time>2026-04-19T15:04:55Z</time></trkpt><trkpt lat="42.84659133540301" lon="13.587636893802975"><ele>193.0</ele><time>2026-04-19T15:04:56Z</time></trkpt><trkpt lat="42.846570949002" lon="13.58807090386156"><ele>193.0</ele><time>2026-04-19T15:04:57Z</time></trkpt><trkpt lat="42.84656389390144" lon="13.588483878431644"><ele>193.0</ele><time>2026-04-19T15:04:58Z</time></trkpt><trkpt lat="42.84655730930796" lon="13.588894553477934"><ele>193.0</ele><time>2026-04-19T15:04:59Z</time></trkpt><trkpt lat="42.84655750615289" lon="13.5893210365719"><ele>193.0</ele><time>2026-04-19T15:05:00Z</time></trkpt><trkpt lat="42.84655910955089" lon="13.589764859918567"><ele>194.0</ele><time>2026-04-19T15:05:01Z</time></trkpt><trkpt lat="42.84655737604048" lon="13.590194010054748"><ele>195.0</ele><time>2026-04-19T15:05:02Z</time></trkpt><trkpt lat="42.84655202445834" lon="13.59059906359248"><ele>196.0</ele><time>2026-04-19T15:05:03Z</time></trkpt><trkpt lat="42.84654169048849" lon="13.590989629741605"><ele>197.0</ele><time>2026-04-19T15:05:04Z</time></trkpt><trkpt lat="42.84652057728268" lon="13.591383874893896"><ele>197.5</ele><time>2026-04-19T15:05:05Z</time></trkpt><trkpt lat="42.846485140358" lon="13.591769056759574"><ele>198.0</ele><time>2026-04-19T15:05:06Z</time></trkpt><trkpt lat="42.84643155433667" lon="13.592153691359123"><ele>198.0</ele><time>2026-04-19T15:05:07Z</time></trkpt><trkpt lat="42.846348090137035" lon="13.592524128559067"><ele>198.0</ele><time>2026-04-19T15:05:08Z</time></trkpt><trkpt lat="42.84624216391983" lon="13.592883755186906"><ele>195.0</ele><time>2026-04-19T15:05:09Z</time></trkpt><trkpt lat="42.84613105628414" lon="13.593230852251141"><ele>192.0</ele><time>2026-04-19T15:05:10Z</time></trkpt><trkpt lat="42.846023542276335" lon="13.593550541924463"><ele>196.0</ele><time>2026-04-19T15:05:11Z</time></trkpt><trkpt lat="42.84591970791881" lon="13.593859441155853"><ele>200.0</ele><time>2026-04-19T15:05:12Z</time></trkpt><trkpt lat="42.845812419769345" lon="13.594156702916052"><ele>200.0</ele><time>2026-04-19T15:05:13Z</time></trkpt><trkpt lat="42.84569633392931" lon="13.59444634252546"><ele>200.0</ele><time>2026-04-19T15:05:14Z</time></trkpt><trkpt lat="42.845565456175166" lon="13.594747837914671"><ele>199.0</ele><time>2026-04-19T15:05:15Z</time></trkpt><trkpt lat="42.84541651862584" lon="13.595048221795217"><ele>198.0</ele><time>2026-04-19T15:05:16Z</time></trkpt><trkpt lat="42.84525663026471" lon="13.595344292435092"><ele>200.0</ele><time>2026-04-19T15:05:17Z</time></trkpt><trkpt lat="42.845095635127585" lon="13.595627655612695"><ele>202.0</ele><time>2026-04-19T15:05:18Z</time></trkpt><trkpt lat="42.84494521270505" lon="13.595887486001581"><ele>202.0</ele><time>2026-04-19T15:05:19Z</time></trkpt><trkpt lat="42.84479286609433" lon="13.5961345589124"><ele>202.0</ele><time>2026-04-19T15:05:20Z</time></trkpt><trkpt lat="42.844631548331485" lon="13.596374465427669"><ele>202.5</ele><time>2026-04-19T15:05:21Z</time></trkpt><trkpt lat="42.84446226667762" lon="13.596596780426772"><ele>203.0</ele><time>2026-04-19T15:05:22Z</time></trkpt><trkpt lat="42.844290266612994" lon="13.596801249738197"><ele>203.0</ele><time>2026-04-19T15:05:23Z</time></trkpt><trkpt lat="42.8441132476085" lon="13.596991931229912"><ele>203.0</ele><time>2026-04-19T15:05:24Z</time></trkpt><trkpt lat="42.843936029460934" lon="13.597178767395835"><ele>198.5</ele><time>2026-04-19T15:05:25Z</time></trkpt><trkpt lat="42.84376054593323" lon="13.597369111156224"><ele>194.0</ele><time>2026-04-19T15:05:26Z</time></trkpt><trkpt lat="42.843587753036694" lon="13.59756761722494"><ele>199.5</ele><time>2026-04-19T15:05:27Z</time></trkpt><trkpt lat="42.84341625966868" lon="13.597767865430166"><ele>205.0</ele><time>2026-04-19T15:05:28Z</time></trkpt><trkpt lat="42.84324300701347" lon="13.597970030504447"><ele>206.5</ele><time>2026-04-19T15:05:29Z</time></trkpt><trkpt lat="42.84307624635971" lon="13.598168341363293"><ele>208.0</ele><time>2026-04-19T15:05:30Z</time></trkpt><trkpt lat="42.8429040983731" lon="13.59837519241088"><ele>208.0</ele><time>2026-04-19T15:05:31Z</time></trkpt><trkpt lat="42.8427284539484" lon="13.598600897798695"><ele>208.0</ele><time>2026-04-19T15:05:32Z</time></trkpt><trkpt lat="42.84255581053045" lon="13.59883788490025"><ele>208.0</ele><time>2026-04-19T15:05:33Z</time></trkpt><trkpt lat="42.84238851603188" lon="13.599067622758247"><ele>208.0</ele><time>2026-04-19T15:05:34Z</time></trkpt><trkpt lat="42.84222677750757" lon="13.599304106989248"><ele>206.5</ele><time>2026-04-19T15:05:35Z</time></trkpt><trkpt lat="42.84206571499038" lon="13.599555019388706"><ele>205.0</ele><time>2026-04-19T15:05:36Z</time></trkpt><trkpt lat="42.84190705532665" lon="13.599818367877829"><ele>205.0</ele><time>2026-04-19T15:05:37Z</time></trkpt><trkpt lat="42.84175623047755" lon="13.60007534853917"><ele>205.0</ele><time>2026-04-19T15:05:38Z</time></trkpt><trkpt lat="42.84159799617007" lon="13.600349016140328"><ele>205.0</ele><time>2026-04-19T15:05:39Z</time></trkpt><trkpt lat="42.841451026324954" lon="13.600623220535693"><ele>205.0</ele><time>2026-04-19T15:05:40Z</time></trkpt><trkpt lat="42.84130692463785" lon="13.600905456969434"><ele>204.0</ele><time>2026-04-19T15:05:41Z</time></trkpt><trkpt lat="42.84117058376918" lon="13.601184925324134"><ele>203.0</ele><time>2026-04-19T15:05:42Z</time></trkpt><trkpt lat="42.84104483771771" lon="13.601457757606358"><ele>202.66666666666669</ele><time>2026-04-19T15:05:43Z</time></trkpt><trkpt lat="42.840930658161234" lon="13.601719234795791"><ele>202.33333333333331</ele><time>2026-04-19T15:05:44Z</time></trkpt><trkpt lat="42.84082167477856" lon="13.601984547435077"><ele>202.0</ele><time>2026-04-19T15:05:45Z</time></trkpt><trkpt lat="42.840717452887986" lon="13.602251248476243"><ele>199.5</ele><time>2026-04-19T15:05:46Z</time></trkpt><trkpt lat="42.84060994103428" lon="13.602524081223464"><ele>197.0</ele><time>2026-04-19T15:05:47Z</time></trkpt><trkpt lat="42.84050550951321" lon="13.602801252193094"><ele>196.5</ele><time>2026-04-19T15:05:48Z</time></trkpt><trkpt lat="42.840395841638134" lon="13.603103721111692"><ele>196.0</ele><time>2026-04-19T15:05:49Z</time></trkpt><trkpt lat="42.84028922251332" lon="13.603403424816838"><ele>195.5</ele><time>2026-04-19T15:05:50Z</time></trkpt><trkpt lat="42.84018778735468" lon="13.603696428855176"><ele>195.0</ele><time>2026-04-19T15:05:51Z</time></trkpt><trkpt lat="42.84009101386139" lon="13.603986452024449"><ele>194.0</ele><time>2026-04-19T15:05:52Z</time></trkpt><trkpt lat="42.84000287559446" lon="13.604261415950214"><ele>193.0</ele><time>2026-04-19T15:05:52.999Z</time></trkpt><trkpt lat="42.839917431033605" lon="13.604533963694042"><ele>192.0</ele><time>2026-04-19T15:05:53.999Z</time></trkpt><trkpt lat="42.839833738808444" lon="13.604808904709586"><ele>190.5</ele><time>2026-04-19T15:05:54.999Z</time></trkpt><trkpt lat="42.839746721421044" lon="13.605094976806615"><ele>189.0</ele><time>2026-04-19T15:05:55.999Z</time></trkpt><trkpt lat="42.83965751607411" lon="13.605394186167539"><ele>187.0</ele><time>2026-04-19T15:05:56.999Z</time></trkpt><trkpt lat="42.83956345205698" lon="13.605698934676072"><ele>185.0</ele><time>2026-04-19T15:05:57.999Z</time></trkpt><trkpt lat="42.839465005306295" lon="13.606006024279852"><ele>185.5</ele><time>2026-04-19T15:05:58.999Z</time></trkpt><trkpt lat="42.839370571098264" lon="13.60631037725334"><ele>186.0</ele><time>2026-04-19T15:05:59.999Z</time></trkpt><trkpt lat="42.839274793491235" lon="13.606624401292661"><ele>186.0</ele><time>2026-04-19T15:06:00.999Z</time></trkpt><trkpt lat="42.83918001984749" lon="13.606933697153513"><ele>186.0</ele><time>2026-04-19T15:06:01.999Z</time></trkpt><trkpt lat="42.839085498013304" lon="13.607244824928815"><ele>184.0</ele><time>2026-04-19T15:06:02.999Z</time></trkpt><trkpt lat="42.838993012871086" lon="13.607557153950046"><ele>182.0</ele><time>2026-04-19T15:06:03.999Z</time></trkpt><trkpt lat="42.838905687278846" lon="13.607874912955214"><ele>180.0</ele><time>2026-04-19T15:06:04.999Z</time></trkpt><trkpt lat="42.83882373327469" lon="13.608193787308114"><ele>178.0</ele><time>2026-04-19T15:06:05.999Z</time></trkpt><trkpt lat="42.838746270180614" lon="13.608517013176233"><ele>175.5</ele><time>2026-04-19T15:06:06.999Z</time></trkpt><trkpt lat="42.8386736293379" lon="13.608840892012067"><ele>173.0</ele><time>2026-04-19T15:06:07.999Z</time></trkpt><trkpt lat="42.83860213372466" lon="13.609163448951723"><ele>173.0</ele><time>2026-04-19T15:06:08.999Z</time></trkpt><trkpt lat="42.838534764430555" lon="13.609482590395663"><ele>173.0</ele><time>2026-04-19T15:06:09.999Z</time></trkpt><trkpt lat="42.83846908182967" lon="13.609792146463906"><ele>171.0</ele><time>2026-04-19T15:06:10.999Z</time></trkpt><trkpt lat="42.838399435511796" lon="13.610108847564447"><ele>169.0</ele><time>2026-04-19T15:06:11.999Z</time></trkpt><trkpt lat="42.83833149770274" lon="13.610423330498838"><ele>168.5</ele><time>2026-04-19T15:06:12.999Z</time></trkpt><trkpt lat="42.838262419874404" lon="13.610743884886059"><ele>168.0</ele><time>2026-04-19T15:06:13.999Z</time></trkpt><trkpt lat="42.8381966305521" lon="13.611057264635127"><ele>166.5</ele><time>2026-04-19T15:06:14.999Z</time></trkpt><trkpt lat="42.83812944703724" lon="13.611380541938841"><ele>165.0</ele><time>2026-04-19T15:06:15.999Z</time></trkpt><trkpt lat="42.83806177101205" lon="13.611702333068047"><ele>164.0</ele><time>2026-04-19T15:06:16.999Z</time></trkpt><trkpt lat="42.83799524154053" lon="13.612019615804464"><ele>163.0</ele><time>2026-04-19T15:06:17.999Z</time></trkpt><trkpt lat="42.83792848734894" lon="13.612343288406667"><ele>163.0</ele><time>2026-04-19T15:06:18.999Z</time></trkpt><trkpt lat="42.83786347480991" lon="13.612664735881587"><ele>163.0</ele><time>2026-04-19T15:06:19.999Z</time></trkpt><trkpt lat="42.83779702570332" lon="13.612981147729279"><ele>161.5</ele><time>2026-04-19T15:06:20.999Z</time></trkpt><trkpt lat="42.837730159548514" lon="13.613290552791826"><ele>160.0</ele><time>2026-04-19T15:06:21.999Z</time></trkpt><trkpt lat="42.83766270223115" lon="13.613606054169319"><ele>164.0</ele><time>2026-04-19T15:06:22.999Z</time></trkpt><trkpt lat="42.83759809580691" lon="13.613917914477916"><ele>168.0</ele><time>2026-04-19T15:06:23.999Z</time></trkpt><trkpt lat="42.83753479300635" lon="13.614232180122528"><ele>164.5</ele><time>2026-04-19T15:06:24.999Z</time></trkpt><trkpt lat="42.83746905635577" lon="13.614543134120604"><ele>161.0</ele><time>2026-04-19T15:06:25.999Z</time></trkpt><trkpt lat="42.837400117400705" lon="13.614854927927512"><ele>161.0</ele><time>2026-04-19T15:06:26.999Z</time></trkpt><trkpt lat="42.83733407169629" lon="13.615151305837406"><ele>161.0</ele><time>2026-04-19T15:06:27.999Z</time></trkpt><trkpt lat="42.8372696257658" lon="13.615441983201816"><ele>158.0</ele><time>2026-04-19T15:06:28.999Z</time></trkpt><trkpt lat="42.837206830311565" lon="13.61573399948982"><ele>155.0</ele><time>2026-04-19T15:06:29.999Z</time></trkpt><trkpt lat="42.83714287505055" lon="13.616033905189548"><ele>153.5</ele><time>2026-04-19T15:06:30.999Z</time></trkpt><trkpt lat="42.837082525982105" lon="13.616335174153859"><ele>152.0</ele><time>2026-04-19T15:06:31.999Z</time></trkpt><trkpt lat="42.83702375839713" lon="13.616635967390472"><ele>152.0</ele><time>2026-04-19T15:06:32.999Z</time></trkpt><trkpt lat="42.83696700270839" lon="13.616933885701126"><ele>152.0</ele><time>2026-04-19T15:06:33.999Z</time></trkpt><trkpt lat="42.83691169805826" lon="13.617228443622745"><ele>152.0</ele><time>2026-04-19T15:06:34.999Z</time></trkpt><trkpt lat="42.836859708635515" lon="13.617524583220296"><ele>153.0</ele><time>2026-04-19T15:06:35.999Z</time></trkpt><trkpt lat="42.83681147230921" lon="13.617829407643917"><ele>154.0</ele><time>2026-04-19T15:06:36.999Z</time></trkpt><trkpt lat="42.836766925904335" lon="13.618133383778812"><ele>152.0</ele><time>2026-04-19T15:06:37.999Z</time></trkpt><trkpt lat="42.83672565516141" lon="13.618443844809098"><ele>150.0</ele><time>2026-04-19T15:06:38.999Z</time></trkpt><trkpt lat="42.83668336293307" lon="13.618754597609259"><ele>149.5</ele><time>2026-04-19T15:06:39.999Z</time></trkpt><trkpt lat="42.8366460381125" lon="13.61907632321695"><ele>149.0</ele><time>2026-04-19T15:06:40.999Z</time></trkpt><trkpt lat="42.83661587727441" lon="13.619414930563039"><ele>149.0</ele><time>2026-04-19T15:06:41.999Z</time></trkpt><trkpt lat="42.836587444435075" lon="13.619759806938598"><ele>149.0</ele><time>2026-04-19T15:06:42.999Z</time></trkpt><trkpt lat="42.836560661335376" lon="13.620120192526349"><ele>148.0</ele><time>2026-04-19T15:06:43.999Z</time></trkpt><trkpt lat="42.836544259760736" lon="13.62047846104118"><ele>147.0</ele><time>2026-04-19T15:06:44.999Z</time></trkpt><trkpt lat="42.836532472862466" lon="13.620851068098041"><ele>147.0</ele><time>2026-04-19T15:06:45.999Z</time></trkpt><trkpt lat="42.83652079976292" lon="13.621236994105733"><ele>147.0</ele><time>2026-04-19T15:06:46.999Z</time></trkpt><trkpt lat="42.8365096990991" lon="13.621633722562544"><ele>148.0</ele><time>2026-04-19T15:06:47.999Z</time></trkpt><trkpt lat="42.836502382627714" lon="13.622031733452593"><ele>149.0</ele><time>2026-04-19T15:06:48.999Z</time></trkpt><trkpt lat="42.83650045348262" lon="13.62242467801428"><ele>148.5</ele><time>2026-04-19T15:06:49.999Z</time></trkpt><trkpt lat="42.83652120914747" lon="13.622824861679153"><ele>148.0</ele><time>2026-04-19T15:06:50.999Z</time></trkpt><trkpt lat="42.83653361630905" lon="13.623218370100702"><ele>148.0</ele><time>2026-04-19T15:06:51.999Z</time></trkpt><trkpt lat="42.836554184432764" lon="13.623618772235945"><ele>148.0</ele><time>2026-04-19T15:06:52.999Z</time></trkpt><trkpt lat="42.836581789215934" lon="13.624020547420498"><ele>150.0</ele><time>2026-04-19T15:06:54Z</time></trkpt><trkpt lat="42.83661643891587" lon="13.624426261926725"><ele>152.0</ele><time>2026-04-19T15:06:55Z</time></trkpt><trkpt lat="42.8366557890533" lon="13.624837287184425"><ele>157.0</ele><time>2026-04-19T15:06:56Z</time></trkpt><trkpt lat="42.83668856506961" lon="13.625253387286849"><ele>162.0</ele><time>2026-04-19T15:06:57Z</time></trkpt><trkpt lat="42.83672063079191" lon="13.625667492574287"><ele>166.5</ele><time>2026-04-19T15:06:58Z</time></trkpt><trkpt lat="42.8367368594466" lon="13.626079331107238"><ele>171.0</ele><time>2026-04-19T15:06:59Z</time></trkpt><trkpt lat="42.83676189475834" lon="13.62649756434731"><ele>172.0</ele><time>2026-04-19T15:07:00Z</time></trkpt><trkpt lat="42.836788998764085" lon="13.62691245854496"><ele>173.0</ele><time>2026-04-19T15:07:01Z</time></trkpt><trkpt lat="42.8368189894279" lon="13.627332713710233"><ele>168.5</ele><time>2026-04-19T15:07:02Z</time></trkpt><trkpt lat="42.83685095628864" lon="13.62774859571813"><ele>164.0</ele><time>2026-04-19T15:07:03Z</time></trkpt><trkpt lat="42.83688273261764" lon="13.628174501101993"><ele>156.5</ele><time>2026-04-19T15:07:04.071Z</time></trkpt><trkpt lat="42.83691919090396" lon="13.628576678747756"><ele>149.0</ele><time>2026-04-19T15:07:05.063Z</time></trkpt><trkpt lat="42.83695216672866" lon="13.628974985331467"><ele>145.5</ele><time>2026-04-19T15:07:06.045Z</time></trkpt><trkpt lat="42.83697489537035" lon="13.629380465309014"><ele>142.0</ele><time>2026-04-19T15:07:07.037Z</time></trkpt><trkpt lat="42.83709505895834" lon="13.629566253496966"><ele>128.0</ele><time>2026-04-19T15:07:08Z</time></trkpt><trkpt lat="42.83770612913742" lon="13.629929979460115"><ele>128.0</ele><time>2026-04-19T15:07:09Z</time></trkpt><trkpt lat="42.83773831516635" lon="13.630269964496334"><ele>128.0</ele><time>2026-04-19T15:07:10Z</time></trkpt><trkpt lat="42.83780940404563" lon="13.63063882524631"><ele>128.5</ele><time>2026-04-19T15:07:11Z</time></trkpt><trkpt lat="42.837907655732444" lon="13.630995595027823"><ele>129.0</ele><time>2026-04-19T15:07:12Z</time></trkpt><trkpt lat="42.838000374536186" lon="13.631371173363624"><ele>129.0</ele><time>2026-04-19T15:07:13Z</time></trkpt><trkpt lat="42.83810543696204" lon="13.631712348097608"><ele>129.0</ele><time>2026-04-19T15:07:14Z</time></trkpt><trkpt lat="42.83820384189993" lon="13.63207794154556"><ele>128.5</ele><time>2026-04-19T15:07:15Z</time></trkpt><trkpt lat="42.838306237990224" lon="13.632448812652907"><ele>128.0</ele><time>2026-04-19T15:07:16Z</time></trkpt><trkpt lat="42.838406032283466" lon="13.632816930474833"><ele>126.0</ele><time>2026-04-19T15:07:17Z</time></trkpt><trkpt lat="42.8385068860471" lon="13.633181236828078"><ele>124.0</ele><time>2026-04-19T15:07:18Z</time></trkpt><trkpt lat="42.83860836940234" lon="13.633542608463605"><ele>125.5</ele><time>2026-04-19T15:07:19Z</time></trkpt><trkpt lat="42.83870660776799" lon="13.633898617543142"><ele>127.0</ele><time>2026-04-19T15:07:20Z</time></trkpt><trkpt lat="42.83880075188325" lon="13.634247928032893"><ele>127.5</ele><time>2026-04-19T15:07:21Z</time></trkpt><trkpt lat="42.83889681014011" lon="13.634590439599792"><ele>128.0</ele><time>2026-04-19T15:07:22Z</time></trkpt><trkpt lat="42.83898885638455" lon="13.634922755617966"><ele>128.0</ele><time>2026-04-19T15:07:23Z</time></trkpt><trkpt lat="42.83907932549808" lon="13.635249932938102"><ele>128.0</ele><time>2026-04-19T15:07:24Z</time></trkpt><trkpt lat="42.83917220627487" lon="13.635579992386795"><ele>128.5</ele><time>2026-04-19T15:07:25Z</time></trkpt><trkpt lat="42.839264240359505" lon="13.635908356827445"><ele>129.0</ele><time>2026-04-19T15:07:25.999Z</time></trkpt><trkpt lat="42.83935513055333" lon="13.636228091751677"><ele>127.0</ele><time>2026-04-19T15:07:26.999Z</time></trkpt><trkpt lat="42.83945071551798" lon="13.636556424996503"><ele>125.0</ele><time>2026-04-19T15:07:27.999Z</time></trkpt><trkpt lat="42.839543445079705" lon="13.63688113667988"><ele>126.0</ele><time>2026-04-19T15:07:28.999Z</time></trkpt><trkpt lat="42.83963280263384" lon="13.637211569800003"><ele>127.0</ele><time>2026-04-19T15:07:29.999Z</time></trkpt><trkpt lat="42.83971823466098" lon="13.63754639657765"><ele>127.0</ele><time>2026-04-19T15:07:30.999Z</time></trkpt><trkpt lat="42.83979574772914" lon="13.637882212528023"><ele>127.0</ele><time>2026-04-19T15:07:31.999Z</time></trkpt><trkpt lat="42.839866272150424" lon="13.638217843553537"><ele>127.0</ele><time>2026-04-19T15:07:32.999Z</time></trkpt><trkpt lat="42.83992588093493" lon="13.638559769523729"><ele>127.0</ele><time>2026-04-19T15:07:33.999Z</time></trkpt><trkpt lat="42.8399783896448" lon="13.63890509290722"><ele>124.5</ele><time>2026-04-19T15:07:34.999Z</time></trkpt><trkpt lat="42.840032295466095" lon="13.639268969212612"><ele>122.0</ele><time>2026-04-19T15:07:35.999Z</time></trkpt><trkpt lat="42.840081012647644" lon="13.639657414975431"><ele>117.5</ele><time>2026-04-19T15:07:36.999Z</time></trkpt><trkpt lat="42.84012422568685" lon="13.640069763945707"><ele>113.0</ele><time>2026-04-19T15:07:37.999Z</time></trkpt><trkpt lat="42.84015148341237" lon="13.640479710379905"><ele>110.5</ele><time>2026-04-19T15:07:38.999Z</time></trkpt><trkpt lat="42.84016945232788" lon="13.640867515240538"><ele>108.0</ele><time>2026-04-19T15:07:39.999Z</time></trkpt><trkpt lat="42.84017524295128" lon="13.641250923510913"><ele>108.0</ele><time>2026-04-19T15:07:40.999Z</time></trkpt><trkpt lat="42.84017171643665" lon="13.641640925809877"><ele>108.0</ele><time>2026-04-19T15:07:41.999Z</time></trkpt><trkpt lat="42.840163161188215" lon="13.642010684845399"><ele>109.5</ele><time>2026-04-19T15:07:42.999Z</time></trkpt><trkpt lat="42.84015345205126" lon="13.642383244587096"><ele>111.0</ele><time>2026-04-19T15:07:43.999Z</time></trkpt><trkpt lat="42.84014477286897" lon="13.642751432154316"><ele>115.0</ele><time>2026-04-19T15:07:44.999Z</time></trkpt><trkpt lat="42.84013030406196" lon="13.643113483354622"><ele>119.0</ele><time>2026-04-19T15:07:45.999Z</time></trkpt><trkpt lat="42.84011694853162" lon="13.6434531891288"><ele>120.5</ele><time>2026-04-19T15:07:46.999Z</time></trkpt><trkpt lat="42.84010123806944" lon="13.643768706361856"><ele>122.0</ele><time>2026-04-19T15:07:47.999Z</time></trkpt><trkpt lat="42.8400864993707" lon="13.644071868354763"><ele>122.0</ele><time>2026-04-19T15:07:48.999Z</time></trkpt><trkpt lat="42.84007284630918" lon="13.64434994697049"><ele>122.0</ele><time>2026-04-19T15:07:49.999Z</time></trkpt><trkpt lat="42.84006206442146" lon="13.644620834437902"><ele>122.0</ele><time>2026-04-19T15:07:50.999Z</time></trkpt><trkpt lat="42.840051876553105" lon="13.644888133953096"><ele>121.66666666666666</ele><time>2026-04-19T15:07:51.999Z</time></trkpt><trkpt lat="42.840043378035496" lon="13.645153518569622"><ele>121.33333333333334</ele><time>2026-04-19T15:07:52.999Z</time></trkpt><trkpt lat="42.84003684814955" lon="13.645419167363638"><ele>121.0</ele><time>2026-04-19T15:07:53.999Z</time></trkpt><trkpt lat="42.84002987981453" lon="13.64567727638969"><ele>121.0</ele><time>2026-04-19T15:07:54.999Z</time></trkpt><trkpt lat="42.840019917218235" lon="13.645928441772833"><ele>121.0</ele><time>2026-04-19T15:07:55.999Z</time></trkpt><trkpt lat="42.840009543139985" lon="13.646178649598001"><ele>121.0</ele><time>2026-04-19T15:07:56.999Z</time></trkpt><trkpt lat="42.84000073134505" lon="13.646411009128101"><ele>121.0</ele><time>2026-04-19T15:07:57.999Z</time></trkpt><trkpt lat="42.83999365397529" lon="13.646645700081374"><ele>121.0</ele><time>2026-04-19T15:07:58.999Z</time></trkpt><trkpt lat="42.839986701373334" lon="13.646890035071333"><ele>121.0</ele><time>2026-04-19T15:07:59.999Z</time></trkpt><trkpt lat="42.839982279993954" lon="13.647154276413074"><ele>121.0</ele><time>2026-04-19T15:08:00.999Z</time></trkpt><trkpt lat="42.839978437549185" lon="13.647433694196003"><ele>121.0</ele><time>2026-04-19T15:08:01.999Z</time></trkpt><trkpt lat="42.83996711215576" lon="13.647711638285436"><ele>121.0</ele><time>2026-04-19T15:08:02.999Z</time></trkpt><trkpt lat="42.83995427052592" lon="13.647994147399846"><ele>118.5</ele><time>2026-04-19T15:08:03.999Z</time></trkpt><trkpt lat="42.83994521382894" lon="13.648301870316168"><ele>116.0</ele><time>2026-04-19T15:08:04.999Z</time></trkpt><trkpt lat="42.839937229331426" lon="13.648641360593558"><ele>115.0</ele><time>2026-04-19T15:08:05.999Z</time></trkpt><trkpt lat="42.83993007224969" lon="13.649012093060376"><ele>114.0</ele><time>2026-04-19T15:08:06.999Z</time></trkpt><trkpt lat="42.83992151226494" lon="13.649408312246878"><ele>113.0</ele><time>2026-04-19T15:08:07.999Z</time></trkpt><trkpt lat="42.83990484368386" lon="13.649823806834618"><ele>112.0</ele><time>2026-04-19T15:08:08.999Z</time></trkpt><trkpt lat="42.839901750827494" lon="13.650187717417767"><ele>113.0</ele><time>2026-04-19T15:08:09.999Z</time></trkpt><trkpt lat="42.839885749671524" lon="13.650530922100232"><ele>114.0</ele><time>2026-04-19T15:08:10.999Z</time></trkpt><trkpt lat="42.83987056237193" lon="13.650867110873456"><ele>113.0</ele><time>2026-04-19T15:08:11.999Z</time></trkpt><trkpt lat="42.83985951696666" lon="13.651238190136798"><ele>112.0</ele><time>2026-04-19T15:08:12.999Z</time></trkpt><trkpt lat="42.83984683314795" lon="13.65162051738471"><ele>110.0</ele><time>2026-04-19T15:08:13.999Z</time></trkpt><trkpt lat="42.83983644450372" lon="13.65201831875101"><ele>108.0</ele><time>2026-04-19T15:08:14.999Z</time></trkpt><trkpt lat="42.83982868377901" lon="13.652420627903018"><ele>108.5</ele><time>2026-04-19T15:08:15.999Z</time></trkpt><trkpt lat="42.83982697994374" lon="13.65282894939966"><ele>109.0</ele><time>2026-04-19T15:08:16.999Z</time></trkpt><trkpt lat="42.83983666218323" lon="13.65324025766539"><ele>111.0</ele><time>2026-04-19T15:08:17.999Z</time></trkpt><trkpt lat="42.83985345718476" lon="13.6536412973229"><ele>113.0</ele><time>2026-04-19T15:08:18.999Z</time></trkpt><trkpt lat="42.83987967536531" lon="13.654045142965531"><ele>113.0</ele><time>2026-04-19T15:08:19.999Z</time></trkpt><trkpt lat="42.83991526161449" lon="13.654440110068794"><ele>113.0</ele><time>2026-04-19T15:08:20.999Z</time></trkpt><trkpt lat="42.83995589059498" lon="13.654825446620338"><ele>112.5</ele><time>2026-04-19T15:08:21.999Z</time></trkpt><trkpt lat="42.84000246393191" lon="13.655214851559466"><ele>112.0</ele><time>2026-04-19T15:08:22.999Z</time></trkpt><trkpt lat="42.84005429526761" lon="13.655603210041567"><ele>113.5</ele><time>2026-04-19T15:08:23.999Z</time></trkpt><trkpt lat="42.84011123798271" lon="13.655988322093439"><ele>115.0</ele><time>2026-04-19T15:08:24.999Z</time></trkpt><trkpt lat="42.84017414681779" lon="13.65637333768225"><ele>111.5</ele><time>2026-04-19T15:08:25.999Z</time></trkpt><trkpt lat="42.84024317132301" lon="13.656758559260755"><ele>108.0</ele><time>2026-04-19T15:08:26.999Z</time></trkpt><trkpt lat="42.84031872576241" lon="13.657141779445038"><ele>107.5</ele><time>2026-04-19T15:08:27.999Z</time></trkpt><trkpt lat="42.84040146748395" lon="13.657518496041071"><ele>107.0</ele><time>2026-04-19T15:08:28.999Z</time></trkpt><trkpt lat="42.84049237568599" lon="13.657896575834158"><ele>107.0</ele><time>2026-04-19T15:08:29.999Z</time></trkpt><trkpt lat="42.84059528712274" lon="13.658272898982997"><ele>107.0</ele><time>2026-04-19T15:08:30.999Z</time></trkpt><trkpt lat="42.84070110851616" lon="13.658631570639454"><ele>109.0</ele><time>2026-04-19T15:08:31.999Z</time></trkpt><trkpt lat="42.84081448503893" lon="13.658998730211781"><ele>111.0</ele><time>2026-04-19T15:08:32.999Z</time></trkpt><trkpt lat="42.84092977502623" lon="13.659360057536208"><ele>110.0</ele><time>2026-04-19T15:08:33.999Z</time></trkpt><trkpt lat="42.841047743950874" lon="13.659727795508168"><ele>109.0</ele><time>2026-04-19T15:08:34.999Z</time></trkpt><trkpt lat="42.84115944144348" lon="13.66008842174318"><ele>110.5</ele><time>2026-04-19T15:08:35.999Z</time></trkpt><trkpt lat="42.841276152901195" lon="13.660455953219481"><ele>112.0</ele><time>2026-04-19T15:08:36.999Z</time></trkpt><trkpt lat="42.84139183571951" lon="13.660809578273392"><ele>112.0</ele><time>2026-04-19T15:08:37.999Z</time></trkpt><trkpt lat="42.84151609862235" lon="13.661173269153798"><ele>112.0</ele><time>2026-04-19T15:08:38.999Z</time></trkpt><trkpt lat="42.84163816107872" lon="13.66153203276887"><ele>112.0</ele><time>2026-04-19T15:08:39.999Z</time></trkpt><trkpt lat="42.84175761873577" lon="13.661894375035816"><ele>112.0</ele><time>2026-04-19T15:08:40.999Z</time></trkpt><trkpt lat="42.84187615973492" lon="13.66225001775842"><ele>106.0</ele><time>2026-04-19T15:08:41.999Z</time></trkpt><trkpt lat="42.84198928513164" lon="13.662594179926266"><ele>100.0</ele><time>2026-04-19T15:08:42.999Z</time></trkpt><trkpt lat="42.84210128727575" lon="13.66294016022214"><ele>100.0</ele><time>2026-04-19T15:08:43.999Z</time></trkpt><trkpt lat="42.84221177922649" lon="13.663284983944541"><ele>100.0</ele><time>2026-04-19T15:08:44.999Z</time></trkpt><trkpt lat="42.842325655006725" lon="13.663635597038288"><ele>101.0</ele><time>2026-04-19T15:08:45.999Z</time></trkpt><trkpt lat="42.842443162184495" lon="13.66398641712548"><ele>102.0</ele><time>2026-04-19T15:08:46.999Z</time></trkpt><trkpt lat="42.84255861842382" lon="13.664337075795373"><ele>99.5</ele><time>2026-04-19T15:08:47.999Z</time></trkpt><trkpt lat="42.84267014845059" lon="13.66467999139759"><ele>97.0</ele><time>2026-04-19T15:08:48.999Z</time></trkpt><trkpt lat="42.84278027174707" lon="13.665017114731391"><ele>97.0</ele><time>2026-04-19T15:08:49.999Z</time></trkpt><trkpt lat="42.842882121452305" lon="13.66533259023139"><ele>97.0</ele><time>2026-04-19T15:08:50.999Z</time></trkpt><trkpt lat="42.842986459116176" lon="13.665651962446816"><ele>97.0</ele><time>2026-04-19T15:08:51.999Z</time></trkpt><trkpt lat="42.84309423108602" lon="13.665984278472859"><ele>97.0</ele><time>2026-04-19T15:08:52.999Z</time></trkpt><trkpt lat="42.84320353858953" lon="13.666335661703027"><ele>97.0</ele><time>2026-04-19T15:08:53.999Z</time></trkpt><trkpt lat="42.843314981401114" lon="13.666699839955857"><ele>97.0</ele><time>2026-04-19T15:08:54.999Z</time></trkpt><trkpt lat="42.84341890016663" lon="13.667070526442707"><ele>95.0</ele><time>2026-04-19T15:08:55.999Z</time></trkpt><trkpt lat="42.843509409305014" lon="13.667438909459438"><ele>93.0</ele><time>2026-04-19T15:08:56.999Z</time></trkpt><trkpt lat="42.843592885383465" lon="13.667807100121347"><ele>93.0</ele><time>2026-04-19T15:08:57.999Z</time></trkpt><trkpt lat="42.84366747555404" lon="13.668176024307893"><ele>93.0</ele><time>2026-04-19T15:08:58.999Z</time></trkpt><trkpt lat="42.843734925142186" lon="13.668551746206022"><ele>94.5</ele><time>2026-04-19T15:08:59.999Z</time></trkpt><trkpt lat="42.84378858193314" lon="13.668931594570818"><ele>96.0</ele><time>2026-04-19T15:09:00.999Z</time></trkpt><trkpt lat="42.84383439973916" lon="13.669312774565505"><ele>98.5</ele><time>2026-04-19T15:09:01.999Z</time></trkpt><trkpt lat="42.84386499196258" lon="13.6696923598342"><ele>101.0</ele><time>2026-04-19T15:09:02.999Z</time></trkpt><trkpt lat="42.843892057530844" lon="13.670080010250137"><ele>100.5</ele><time>2026-04-19T15:09:03.999Z</time></trkpt><trkpt lat="42.843909720239466" lon="13.670486891643817"><ele>100.0</ele><time>2026-04-19T15:09:04.999Z</time></trkpt><trkpt lat="42.84392609474222" lon="13.67090835554831"><ele>98.5</ele><time>2026-04-19T15:09:05.999Z</time></trkpt><trkpt lat="42.843932640186324" lon="13.671345579281146"><ele>97.0</ele><time>2026-04-19T15:09:06.999Z</time></trkpt><trkpt lat="42.84392698044453" lon="13.671789311597882"><ele>94.0</ele><time>2026-04-19T15:09:07.999Z</time></trkpt><trkpt lat="42.843901891498184" lon="13.672262130727185"><ele>91.0</ele><time>2026-04-19T15:09:08.999Z</time></trkpt><trkpt lat="42.843861612981826" lon="13.672746811456774"><ele>87.5</ele><time>2026-04-19T15:09:09.999Z</time></trkpt><trkpt lat="42.8438163418947" lon="13.67324651648437"><ele>84.0</ele><time>2026-04-19T15:09:10.999Z</time></trkpt><trkpt lat="42.84376006013648" lon="13.673766327021939"><ele>83.0</ele><time>2026-04-19T15:09:11.999Z</time></trkpt><trkpt lat="42.84370936164554" lon="13.674295175503138"><ele>82.0</ele><time>2026-04-19T15:09:12.999Z</time></trkpt><trkpt lat="42.84365867373212" lon="13.674803153613167"><ele>82.0</ele><time>2026-04-19T15:09:13.999Z</time></trkpt><trkpt lat="42.843613075533185" lon="13.675263738091406"><ele>82.0</ele><time>2026-04-19T15:09:14.999Z</time></trkpt><trkpt lat="42.84357524583481" lon="13.675714067957337"><ele>79.0</ele><time>2026-04-19T15:09:15.999Z</time></trkpt><trkpt lat="42.843538736121644" lon="13.676148236838587"><ele>76.0</ele><time>2026-04-19T15:09:16.999Z</time></trkpt><trkpt lat="42.84350087912658" lon="13.676589287543406"><ele>77.0</ele><time>2026-04-19T15:09:17.999Z</time></trkpt><trkpt lat="42.84346535682697" lon="13.677046990508515"><ele>78.0</ele><time>2026-04-19T15:09:18.999Z</time></trkpt><trkpt lat="42.843438522514354" lon="13.677497554791405"><ele>86.5</ele><time>2026-04-19T15:09:19.999Z</time></trkpt><trkpt lat="42.84341604819203" lon="13.677935310198238"><ele>95.0</ele><time>2026-04-19T15:09:20.999Z</time></trkpt><trkpt lat="42.84339970117817" lon="13.678372065847682"><ele>94.5</ele><time>2026-04-19T15:09:21.999Z</time></trkpt><trkpt lat="42.84338846957701" lon="13.678799056835322"><ele>94.0</ele><time>2026-04-19T15:09:22.999Z</time></trkpt><trkpt lat="42.84338099577417" lon="13.679230662336392"><ele>93.0</ele><time>2026-04-19T15:09:23.999Z</time></trkpt><trkpt lat="42.84337974874043" lon="13.67966449336876"><ele>92.0</ele><time>2026-04-19T15:09:24.999Z</time></trkpt><trkpt lat="42.84338575857647" lon="13.680101146551303"><ele>90.0</ele><time>2026-04-19T15:09:25.999Z</time></trkpt><trkpt lat="42.84339351970311" lon="13.68054323800672"><ele>88.0</ele><time>2026-04-19T15:09:26.999Z</time></trkpt><trkpt lat="42.84340242537775" lon="13.680993465509186"><ele>87.0</ele><time>2026-04-19T15:09:27.999Z</time></trkpt><trkpt lat="42.8434228299926" lon="13.681426075360347"><ele>86.0</ele><time>2026-04-19T15:09:28.999Z</time></trkpt><trkpt lat="42.843448315628486" lon="13.681884336477765"><ele>80.0</ele><time>2026-04-19T15:09:29.999Z</time></trkpt><trkpt lat="42.84347853780903" lon="13.682355433401856"><ele>74.0</ele><time>2026-04-19T15:09:30.999Z</time></trkpt><trkpt lat="42.843512010362545" lon="13.682808751153575"><ele>74.0</ele><time>2026-04-19T15:09:31.999Z</time></trkpt><trkpt lat="42.843551683595685" lon="13.683249209561591"><ele>74.0</ele><time>2026-04-19T15:09:32.999Z</time></trkpt><trkpt lat="42.84359718309126" lon="13.683685488133287"><ele>79.0</ele><time>2026-04-19T15:09:33.999Z</time></trkpt><trkpt lat="42.843651072681155" lon="13.684122764811727"><ele>84.0</ele><time>2026-04-19T15:09:34.999Z</time></trkpt><trkpt lat="42.84370547958434" lon="13.68455868590208"><ele>88.5</ele><time>2026-04-19T15:09:35.999Z</time></trkpt><trkpt lat="42.8437586598467" lon="13.685005178728307"><ele>93.0</ele><time>2026-04-19T15:09:36.999Z</time></trkpt><trkpt lat="42.84381863932383" lon="13.68547692770587"><ele>93.0</ele><time>2026-04-19T15:09:37.999Z</time></trkpt><trkpt lat="42.84389153171195" lon="13.685974125355246"><ele>93.0</ele><time>2026-04-19T15:09:38.999Z</time></trkpt><trkpt lat="42.84397608950488" lon="13.686471600894242"><ele>93.0</ele><time>2026-04-19T15:09:39.999Z</time></trkpt><trkpt lat="42.84407258511815" lon="13.686978495241899"><ele>93.0</ele><time>2026-04-19T15:09:40.999Z</time></trkpt><trkpt lat="42.84417433829154" lon="13.687499795747506"><ele>94.0</ele><time>2026-04-19T15:09:41.999Z</time></trkpt><trkpt lat="42.84427896407986" lon="13.688023442329797"><ele>95.0</ele><time>2026-04-19T15:09:42.999Z</time></trkpt><trkpt lat="42.844383462863824" lon="13.688546670898917"><ele>93.5</ele><time>2026-04-19T15:09:43.999Z</time></trkpt><trkpt lat="42.844489825174804" lon="13.689074467070057"><ele>92.0</ele><time>2026-04-19T15:09:44.999Z</time></trkpt><trkpt lat="42.84459364706126" lon="13.689594909559208"><ele>91.0</ele><time>2026-04-19T15:09:45.999Z</time></trkpt><trkpt lat="42.844700556729855" lon="13.690118142359061"><ele>90.0</ele><time>2026-04-19T15:09:46.999Z</time></trkpt><trkpt lat="42.844805606986576" lon="13.690638916367416"><ele>89.0</ele><time>2026-04-19T15:09:47.999Z</time></trkpt><trkpt lat="42.84490705479861" lon="13.691144065386789"><ele>88.0</ele><time>2026-04-19T15:09:48.999Z</time></trkpt><trkpt lat="42.84500835630522" lon="13.691652993800801"><ele>88.0</ele><time>2026-04-19T15:09:49.999Z</time></trkpt><trkpt lat="42.84510729453788" lon="13.69216497912184"><ele>88.0</ele><time>2026-04-19T15:09:50.999Z</time></trkpt><trkpt lat="42.84520649212967" lon="13.692681198929577"><ele>85.0</ele><time>2026-04-19T15:09:51.999Z</time></trkpt><trkpt lat="42.84530350911733" lon="13.693180561333849"><ele>82.0</ele><time>2026-04-19T15:09:52.999Z</time></trkpt><trkpt lat="42.845395456325114" lon="13.693657369801747"><ele>82.0</ele><time>2026-04-19T15:09:53.999Z</time></trkpt><trkpt lat="42.84548271330124" lon="13.694118897343536"><ele>82.0</ele><time>2026-04-19T15:09:54.999Z</time></trkpt><trkpt lat="42.84556767725719" lon="13.694575860155602"><ele>83.5</ele><time>2026-04-19T15:09:55.999Z</time></trkpt><trkpt lat="42.84564087275523" lon="13.695036803249602"><ele>85.0</ele><time>2026-04-19T15:09:56.999Z</time></trkpt><trkpt lat="42.84570016536898" lon="13.695506733780306"><ele>85.0</ele><time>2026-04-19T15:09:57.999Z</time></trkpt><trkpt lat="42.845743838937366" lon="13.695980990827698"><ele>85.0</ele><time>2026-04-19T15:09:58.999Z</time></trkpt><trkpt lat="42.84577655833375" lon="13.696482351736996"><ele>85.5</ele><time>2026-04-19T15:09:59.999Z</time></trkpt><trkpt lat="42.8457918935065" lon="13.697007196120769"><ele>86.0</ele><time>2026-04-19T15:10:00.999Z</time></trkpt><trkpt lat="42.84579644947427" lon="13.697542247736763"><ele>86.0</ele><time>2026-04-19T15:10:01.999Z</time></trkpt><trkpt lat="42.84580097730785" lon="13.698095198363182"><ele>86.0</ele><time>2026-04-19T15:10:02.999Z</time></trkpt><trkpt lat="42.8458038969179" lon="13.698654141519478"><ele>86.0</ele><time>2026-04-19T15:10:03.999Z</time></trkpt><trkpt lat="42.845808253929526" lon="13.699220435632729"><ele>86.0</ele><time>2026-04-19T15:10:04.999Z</time></trkpt><trkpt lat="42.845811798185544" lon="13.699784950774905"><ele>86.5</ele><time>2026-04-19T15:10:05.999Z</time></trkpt><trkpt lat="42.84581518028753" lon="13.700340341572245"><ele>87.0</ele><time>2026-04-19T15:10:06.999Z</time></trkpt><trkpt lat="42.84582187812526" lon="13.700891379899547"><ele>86.5</ele><time>2026-04-19T15:10:07.999Z</time></trkpt><trkpt lat="42.845829600945144" lon="13.701447310568058"><ele>86.0</ele><time>2026-04-19T15:10:08.999Z</time></trkpt><trkpt lat="42.845836232106564" lon="13.70200019107382"><ele>85.0</ele><time>2026-04-19T15:10:09.999Z</time></trkpt><trkpt lat="42.845842463295" lon="13.702556665187325"><ele>84.0</ele><time>2026-04-19T15:10:10.999Z</time></trkpt><trkpt lat="42.84584663428417" lon="13.703106561871753"><ele>83.5</ele><time>2026-04-19T15:10:11.999Z</time></trkpt><trkpt lat="42.84585366832888" lon="13.703646922855432"><ele>83.0</ele><time>2026-04-19T15:10:12.999Z</time></trkpt><trkpt lat="42.84586249130526" lon="13.704185770271877"><ele>81.0</ele><time>2026-04-19T15:10:13.999Z</time></trkpt><trkpt lat="42.845868996061945" lon="13.704709541913584"><ele>79.0</ele><time>2026-04-19T15:10:14.999Z</time></trkpt><trkpt lat="42.84587411514196" lon="13.70523548549743"><ele>77.5</ele><time>2026-04-19T15:10:15.999Z</time></trkpt><trkpt lat="42.84588055940558" lon="13.70576197536148"><ele>76.0</ele><time>2026-04-19T15:10:16.999Z</time></trkpt><trkpt lat="42.84588455727134" lon="13.706286058026947"><ele>76.0</ele><time>2026-04-19T15:10:17.999Z</time></trkpt><trkpt lat="42.84588931448756" lon="13.706809518656499"><ele>76.0</ele><time>2026-04-19T15:10:18.999Z</time></trkpt><trkpt lat="42.84589415681114" lon="13.707344250960938"><ele>80.0</ele><time>2026-04-19T15:10:19.999Z</time></trkpt><trkpt lat="42.84589932609465" lon="13.707881160400397"><ele>84.0</ele><time>2026-04-19T15:10:20.999Z</time></trkpt><trkpt lat="42.84590498557535" lon="13.7084163304253"><ele>84.5</ele><time>2026-04-19T15:10:21.999Z</time></trkpt><trkpt lat="42.845918570900075" lon="13.708957496352904"><ele>85.0</ele><time>2026-04-19T15:10:22.999Z</time></trkpt><trkpt lat="42.845949817218425" lon="13.70951201599152"><ele>84.0</ele><time>2026-04-19T15:10:23.999Z</time></trkpt><trkpt lat="42.84600163539073" lon="13.710077573037701"><ele>83.0</ele><time>2026-04-19T15:10:24.999Z</time></trkpt><trkpt lat="42.84607987801826" lon="13.710648786908418"><ele>83.0</ele><time>2026-04-19T15:10:25.999Z</time></trkpt><trkpt lat="42.84618104907623" lon="13.711224282013642"><ele>83.0</ele><time>2026-04-19T15:10:26.999Z</time></trkpt><trkpt lat="42.8462972935397" lon="13.711787268298131"><ele>82.0</ele><time>2026-04-19T15:10:27.999Z</time></trkpt><trkpt lat="42.846429957045515" lon="13.712346591073846"><ele>81.0</ele><time>2026-04-19T15:10:28.999Z</time></trkpt><trkpt lat="42.84656750534677" lon="13.712905724894537"><ele>80.0</ele><time>2026-04-19T15:10:29.999Z</time></trkpt><trkpt lat="42.84669912350166" lon="13.713459366457096"><ele>79.0</ele><time>2026-04-19T15:10:30.999Z</time></trkpt><trkpt lat="42.84682100459458" lon="13.713978287931845"><ele>78.5</ele><time>2026-04-19T15:10:31.999Z</time></trkpt><trkpt lat="42.84694444589438" lon="13.71450248269658"><ele>78.0</ele><time>2026-04-19T15:10:32.999Z</time></trkpt><trkpt lat="42.84707134875" lon="13.715026322845109"><ele>76.0</ele><time>2026-04-19T15:10:33.999Z</time></trkpt><trkpt lat="42.84719743395895" lon="13.715555827846448"><ele>74.0</ele><time>2026-04-19T15:10:34.999Z</time></trkpt><trkpt lat="42.84732452054335" lon="13.716087115626191"><ele>73.5</ele><time>2026-04-19T15:10:35.999Z</time></trkpt><trkpt lat="42.84745114818379" lon="13.716620400372305"><ele>73.0</ele><time>2026-04-19T15:10:36.999Z</time></trkpt><trkpt lat="42.847578766042204" lon="13.717150967400357"><ele>65.0</ele><time>2026-04-19T15:10:37.999Z</time></trkpt><trkpt lat="42.84770735363506" lon="13.717678259785991"><ele>57.0</ele><time>2026-04-19T15:10:38.999Z</time></trkpt><trkpt lat="42.847835094596675" lon="13.71820552935953"><ele>56.5</ele><time>2026-04-19T15:10:39.999Z</time></trkpt><trkpt lat="42.84795852712133" lon="13.71873265683937"><ele>56.0</ele><time>2026-04-19T15:10:40.999Z</time></trkpt><trkpt lat="42.84808315366876" lon="13.719260649128941"><ele>55.5</ele><time>2026-04-19T15:10:41.999Z</time></trkpt><trkpt lat="42.848210282694595" lon="13.71978665815348"><ele>55.0</ele><time>2026-04-19T15:10:42.999Z</time></trkpt><trkpt lat="42.848338148302645" lon="13.720307052609002"><ele>54.0</ele><time>2026-04-19T15:10:43.999Z</time></trkpt><trkpt lat="42.84846455127879" lon="13.720820825633092"><ele>53.0</ele><time>2026-04-19T15:10:44.999Z</time></trkpt><trkpt lat="42.848592008063164" lon="13.721339992139137"><ele>53.0</ele><time>2026-04-19T15:10:45.999Z</time></trkpt><trkpt lat="42.848716974322386" lon="13.721858146002706"><ele>53.0</ele><time>2026-04-19T15:10:46.999Z</time></trkpt><trkpt lat="42.84884140153951" lon="13.722365459821658"><ele>52.5</ele><time>2026-04-19T15:10:47.999Z</time></trkpt><trkpt lat="42.84896208391248" lon="13.722865231193287"><ele>52.0</ele><time>2026-04-19T15:10:48.999Z</time></trkpt><trkpt lat="42.84907992190652" lon="13.72336155097804"><ele>52.0</ele><time>2026-04-19T15:10:49.999Z</time></trkpt><trkpt lat="42.84919801018016" lon="13.723862901523452"><ele>52.0</ele><time>2026-04-19T15:10:50.999Z</time></trkpt><trkpt lat="42.849316529556226" lon="13.724365485251141"><ele>52.0</ele><time>2026-04-19T15:10:51.999Z</time></trkpt><trkpt lat="42.849436072569645" lon="13.724870315713943"><ele>52.0</ele><time>2026-04-19T15:10:52.999Z</time></trkpt><trkpt lat="42.84955183441536" lon="13.725350189007354"><ele>51.5</ele><time>2026-04-19T15:10:53.999Z</time></trkpt><trkpt lat="42.84965970666262" lon="13.725794269970818"><ele>51.0</ele><time>2026-04-19T15:10:54.999Z</time></trkpt><trkpt lat="42.84976336633579" lon="13.726220972568157"><ele>50.5</ele><time>2026-04-19T15:10:55.999Z</time></trkpt><trkpt lat="42.84986122502251" lon="13.726646217973125"><ele>50.0</ele><time>2026-04-19T15:10:56.999Z</time></trkpt><trkpt lat="42.84996342036409" lon="13.727082430516395"><ele>49.5</ele><time>2026-04-19T15:10:57.999Z</time></trkpt><trkpt lat="42.850070403368875" lon="13.72753310198278"><ele>49.0</ele><time>2026-04-19T15:10:58.999Z</time></trkpt><trkpt lat="42.8501731776833" lon="13.727969793474317"><ele>48.5</ele><time>2026-04-19T15:10:59.999Z</time></trkpt><trkpt lat="42.850273501971735" lon="13.728391401347782"><ele>48.0</ele><time>2026-04-19T15:11:00.999Z</time></trkpt><trkpt lat="42.8503788780976" lon="13.728822872026072"><ele>48.0</ele><time>2026-04-19T15:11:01.999Z</time></trkpt><trkpt lat="42.850485577616844" lon="13.72926040166294"><ele>48.0</ele><time>2026-04-19T15:11:02.999Z</time></trkpt><trkpt lat="42.85058748315966" lon="13.729678085235358"><ele>48.0</ele><time>2026-04-19T15:11:03.999Z</time></trkpt><trkpt lat="42.85068659272575" lon="13.730083983623057"><ele>48.0</ele><time>2026-04-19T15:11:04.999Z</time></trkpt><trkpt lat="42.850784614856394" lon="13.730488512573512"><ele>48.5</ele><time>2026-04-19T15:11:05.999Z</time></trkpt><trkpt lat="42.85088652932937" lon="13.73089965507802"><ele>49.0</ele><time>2026-04-19T15:11:06.999Z</time></trkpt><trkpt lat="42.850981669238095" lon="13.731290308386717"><ele>49.0</ele><time>2026-04-19T15:11:07.999Z</time></trkpt><trkpt lat="42.85106645286045" lon="13.731637564498635"><ele>49.0</ele><time>2026-04-19T15:11:08.999Z</time></trkpt><trkpt lat="42.85114349473356" lon="13.731951788480568"><ele>49.5</ele><time>2026-04-19T15:11:09.999Z</time></trkpt><trkpt lat="42.851218589403615" lon="13.732258908667808"><ele>50.0</ele><time>2026-04-19T15:11:10.999Z</time></trkpt><trkpt lat="42.85129562550955" lon="13.732570322516818"><ele>50.0</ele><time>2026-04-19T15:11:11.999Z</time></trkpt><trkpt lat="42.851384066274264" lon="13.732890152002925"><ele>50.0</ele><time>2026-04-19T15:11:12.999Z</time></trkpt><trkpt lat="42.8514873894371" lon="13.73323248512874"><ele>50.0</ele><time>2026-04-19T15:11:13.999Z</time></trkpt><trkpt lat="42.851607295539154" lon="13.733597385346755"><ele>50.0</ele><time>2026-04-19T15:11:14.999Z</time></trkpt><trkpt lat="42.8517371352646" lon="13.73397183037763"><ele>49.0</ele><time>2026-04-19T15:11:15.999Z</time></trkpt><trkpt lat="42.85187488658803" lon="13.734336662590815"><ele>48.0</ele><time>2026-04-19T15:11:16.999Z</time></trkpt><trkpt lat="42.85202062534563" lon="13.734692438863338"><ele>48.0</ele><time>2026-04-19T15:11:17.999Z</time></trkpt><trkpt lat="42.852175170508445" lon="13.735035013860633"><ele>48.0</ele><time>2026-04-19T15:11:18.999Z</time></trkpt><trkpt lat="42.85233841825116" lon="13.735370342563629"><ele>47.0</ele><time>2026-04-19T15:11:19.999Z</time></trkpt><trkpt lat="42.85250850622164" lon="13.735695278288203"><ele>46.0</ele><time>2026-04-19T15:11:20.999Z</time></trkpt><trkpt lat="42.85268161742674" lon="13.736012796006376"><ele>45.5</ele><time>2026-04-19T15:11:21.999Z</time></trkpt><trkpt lat="42.85285578841013" lon="13.736305252256694"><ele>45.0</ele><time>2026-04-19T15:11:22.999Z</time></trkpt><trkpt lat="42.85302292539205" lon="13.736565676913678"><ele>45.0</ele><time>2026-04-19T15:11:23.999Z</time></trkpt><trkpt lat="42.85318168307862" lon="13.73681277625034"><ele>45.0</ele><time>2026-04-19T15:11:24.999Z</time></trkpt><trkpt lat="42.85334234138496" lon="13.737038108623688"><ele>45.0</ele><time>2026-04-19T15:11:25.999Z</time></trkpt><trkpt lat="42.853501965827085" lon="13.737256464389407"><ele>45.0</ele><time>2026-04-19T15:11:26.999Z</time></trkpt><trkpt lat="42.85366621547868" lon="13.737465569361193"><ele>45.0</ele><time>2026-04-19T15:11:27.999Z</time></trkpt><trkpt lat="42.85381922218387" lon="13.737655874877186"><ele>45.0</ele><time>2026-04-19T15:11:28.999Z</time></trkpt><trkpt lat="42.853962277859246" lon="13.737818188942217"><ele>45.0</ele><time>2026-04-19T15:11:29.999Z</time></trkpt><trkpt lat="42.85407451054474" lon="13.737953544835591"><ele>44.75</ele><time>2026-04-19T15:11:30.999Z</time></trkpt><trkpt lat="42.854182568422836" lon="13.738088244997174"><ele>44.5</ele><time>2026-04-19T15:11:31.999Z</time></trkpt><trkpt lat="42.85428159366913" lon="13.73822367448467"><ele>44.25</ele><time>2026-04-19T15:11:32.999Z</time></trkpt><trkpt lat="42.85438424039164" lon="13.738348625473803"><ele>44.0</ele><time>2026-04-19T15:11:33.999Z</time></trkpt><trkpt lat="42.85449729433355" lon="13.738484569895864"><ele>44.0</ele><time>2026-04-19T15:11:34.999Z</time></trkpt><trkpt lat="42.85460854541007" lon="13.738626339630189"><ele>44.0</ele><time>2026-04-19T15:11:35.999Z</time></trkpt><trkpt lat="42.85472349871165" lon="13.73877091671837"><ele>44.0</ele><time>2026-04-19T15:11:36.999Z</time></trkpt><trkpt lat="42.854836424490294" lon="13.738908169827605"><ele>44.0</ele><time>2026-04-19T15:11:37.999Z</time></trkpt><trkpt lat="42.854948738414095" lon="13.739042438452055"><ele>44.0</ele><time>2026-04-19T15:11:38.999Z</time></trkpt><trkpt lat="42.85506320210931" lon="13.739177807669332"><ele>44.0</ele><time>2026-04-19T15:11:39.999Z</time></trkpt><trkpt lat="42.855174219132465" lon="13.739314209741078"><ele>43.0</ele><time>2026-04-19T15:11:40.999Z</time></trkpt><trkpt lat="42.85528421319099" lon="13.73944843989631"><ele>42.0</ele><time>2026-04-19T15:11:41.999Z</time></trkpt><trkpt lat="42.85539672320999" lon="13.73958772178478"><ele>41.0</ele><time>2026-04-19T15:11:42.999Z</time></trkpt><trkpt lat="42.85551288741368" lon="13.739732476824608"><ele>41.0</ele><time>2026-04-19T15:11:43.999Z</time></trkpt><trkpt lat="42.855631216145454" lon="13.739878987358443"><ele>41.0</ele><time>2026-04-19T15:11:44.999Z</time></trkpt><trkpt lat="42.85575688029754" lon="13.740032722946856"><ele>41.0</ele><time>2026-04-19T15:11:45.999Z</time></trkpt><trkpt lat="42.855882825268296" lon="13.74018355005296"><ele>41.0</ele><time>2026-04-19T15:11:46.999Z</time></trkpt><trkpt lat="42.856005153278" lon="13.740340736482299"><ele>41.0</ele><time>2026-04-19T15:11:47.999Z</time></trkpt><trkpt lat="42.856123528499744" lon="13.740485783084106"><ele>41.0</ele><time>2026-04-19T15:11:48.999Z</time></trkpt><trkpt lat="42.85624343587495" lon="13.740629539630564"><ele>41.0</ele><time>2026-04-19T15:11:49.999Z</time></trkpt><trkpt lat="42.85636732415667" lon="13.74078257579378"><ele>41.0</ele><time>2026-04-19T15:11:50.999Z</time></trkpt><trkpt lat="42.85648962007735" lon="13.740934601713619"><ele>41.0</ele><time>2026-04-19T15:11:51.999Z</time></trkpt><trkpt lat="42.856605867719786" lon="13.741084436047746"><ele>40.666666666666664</ele><time>2026-04-19T15:11:52.999Z</time></trkpt><trkpt lat="42.856723316802004" lon="13.74123072865491"><ele>40.333333333333336</ele><time>2026-04-19T15:11:53.999Z</time></trkpt><trkpt lat="42.85684033309017" lon="13.741379299770948"><ele>40.0</ele><time>2026-04-19T15:11:54.999Z</time></trkpt><trkpt lat="42.856964036674256" lon="13.741546906237707"><ele>40.0</ele><time>2026-04-19T15:11:55.999Z</time></trkpt><trkpt lat="42.85708845065206" lon="13.741728087306013"><ele>40.0</ele><time>2026-04-19T15:11:56.999Z</time></trkpt><trkpt lat="42.85721805849793" lon="13.74190363199494"><ele>40.0</ele><time>2026-04-19T15:11:57.999Z</time></trkpt><trkpt lat="42.857332559100534" lon="13.742082874642144"><ele>40.66666666666667</ele><time>2026-04-19T15:11:58.999Z</time></trkpt><trkpt lat="42.85744473508905" lon="13.742255066676805"><ele>41.333333333333336</ele><time>2026-04-19T15:11:59.999Z</time></trkpt><trkpt lat="42.857547277660295" lon="13.74241939324443"><ele>42.0</ele><time>2026-04-19T15:12:00.999Z</time></trkpt><trkpt lat="42.85764741039567" lon="13.74258341562115"><ele>42.333333333333336</ele><time>2026-04-19T15:12:01.999Z</time></trkpt><trkpt lat="42.857748174456006" lon="13.742763216043961"><ele>42.66666666666667</ele><time>2026-04-19T15:12:02.999Z</time></trkpt><trkpt lat="42.857844032953366" lon="13.742946992904463"><ele>43.0</ele><time>2026-04-19T15:12:03.999Z</time></trkpt><trkpt lat="42.85794671689297" lon="13.743144021461912"><ele>43.0</ele><time>2026-04-19T15:12:04.999Z</time></trkpt><trkpt lat="42.8580591045554" lon="13.743374019163529"><ele>43.0</ele><time>2026-04-19T15:12:05.999Z</time></trkpt><trkpt lat="42.85817491198275" lon="13.74362252829577"><ele>43.0</ele><time>2026-04-19T15:12:06.999Z</time></trkpt><trkpt lat="42.85828031059075" lon="13.743879120233037"><ele>43.0</ele><time>2026-04-19T15:12:07.999Z</time></trkpt><trkpt lat="42.858380460749956" lon="13.744140319047045"><ele>43.0</ele><time>2026-04-19T15:12:08.999Z</time></trkpt><trkpt lat="42.85848153802745" lon="13.744406479531225"><ele>43.0</ele><time>2026-04-19T15:12:09.999Z</time></trkpt><trkpt lat="42.85858207499492" lon="13.744677028338367"><ele>42.0</ele><time>2026-04-19T15:12:10.999Z</time></trkpt><trkpt lat="42.85867840360217" lon="13.744950139122688"><ele>41.0</ele><time>2026-04-19T15:12:11.999Z</time></trkpt><trkpt lat="42.85877025845364" lon="13.745224842612059"><ele>40.0</ele><time>2026-04-19T15:12:12.999Z</time></trkpt><trkpt lat="42.85885819917738" lon="13.745500709977401"><ele>40.0</ele><time>2026-04-19T15:12:13.999Z</time></trkpt><trkpt lat="42.85893917792928" lon="13.745775395728478"><ele>40.0</ele><time>2026-04-19T15:12:14.999Z</time></trkpt><trkpt lat="42.85901529483696" lon="13.746048574953049"><ele>40.0</ele><time>2026-04-19T15:12:15.999Z</time></trkpt><trkpt lat="42.85909016529256" lon="13.746334958836615"><ele>40.0</ele><time>2026-04-19T15:12:16.999Z</time></trkpt><trkpt lat="42.85916110481133" lon="13.74663134302714"><ele>40.0</ele><time>2026-04-19T15:12:17.999Z</time></trkpt><trkpt lat="42.85923667488287" lon="13.746963401703743"><ele>39.5</ele><time>2026-04-19T15:12:18.999Z</time></trkpt><trkpt lat="42.85931539390575" lon="13.747337060269535"><ele>39.0</ele><time>2026-04-19T15:12:19.999Z</time></trkpt><trkpt lat="42.859391714797475" lon="13.747727349036506"><ele>39.0</ele><time>2026-04-19T15:12:20.999Z</time></trkpt><trkpt lat="42.859460619985946" lon="13.748106309469886"><ele>39.0</ele><time>2026-04-19T15:12:21.999Z</time></trkpt><trkpt lat="42.859528710841836" lon="13.748477138787255"><ele>39.5</ele><time>2026-04-19T15:12:22.999Z</time></trkpt><trkpt lat="42.859595751517155" lon="13.748840232395574"><ele>40.0</ele><time>2026-04-19T15:12:23.999Z</time></trkpt><trkpt lat="42.859667974055874" lon="13.749209125645034"><ele>40.0</ele><time>2026-04-19T15:12:24.999Z</time></trkpt><trkpt lat="42.85973842615599" lon="13.749589757630858"><ele>40.0</ele><time>2026-04-19T15:12:25.999Z</time></trkpt><trkpt lat="42.8598091917819" lon="13.749982275897077"><ele>39.5</ele><time>2026-04-19T15:12:26.999Z</time></trkpt><trkpt lat="42.85988609448564" lon="13.750392074566147"><ele>39.0</ele><time>2026-04-19T15:12:27.999Z</time></trkpt><trkpt lat="42.859964408290814" lon="13.7508224553629"><ele>38.5</ele><time>2026-04-19T15:12:28.999Z</time></trkpt><trkpt lat="42.86004003396787" lon="13.751241511455587"><ele>38.0</ele><time>2026-04-19T15:12:29.999Z</time></trkpt><trkpt lat="42.86011333746967" lon="13.751646090259714"><ele>38.0</ele><time>2026-04-19T15:12:30.999Z</time></trkpt><trkpt lat="42.86018863942434" lon="13.752040201498072"><ele>38.0</ele><time>2026-04-19T15:12:31.999Z</time></trkpt><trkpt lat="42.86026087961236" lon="13.752407818350742"><ele>39.0</ele><time>2026-04-19T15:12:32.999Z</time></trkpt><trkpt lat="42.86032693148202" lon="13.752755717964225"><ele>40.0</ele><time>2026-04-19T15:12:33.999Z</time></trkpt><trkpt lat="42.860394952009884" lon="13.753110742243269"><ele>40.0</ele><time>2026-04-19T15:12:34.999Z</time></trkpt><trkpt lat="42.86046139396155" lon="13.753470824777834"><ele>40.0</ele><time>2026-04-19T15:12:35.999Z</time></trkpt><trkpt lat="42.860528392137866" lon="13.753841219037195"><ele>39.5</ele><time>2026-04-19T15:12:36.999Z</time></trkpt><trkpt lat="42.86059379435675" lon="13.754220951000661"><ele>39.0</ele><time>2026-04-19T15:12:37.999Z</time></trkpt><trkpt lat="42.86065619876633" lon="13.7546126545549"><ele>38.0</ele><time>2026-04-19T15:12:38.999Z</time></trkpt><trkpt lat="42.86071206839161" lon="13.755012420847287"><ele>37.0</ele><time>2026-04-19T15:12:39.999Z</time></trkpt><trkpt lat="42.86075764334388" lon="13.755415373632774"><ele>36.5</ele><time>2026-04-19T15:12:40.999Z</time></trkpt><trkpt lat="42.860791048862005" lon="13.755837526240182"><ele>36.0</ele><time>2026-04-19T15:12:41.999Z</time></trkpt><trkpt lat="42.860817218633585" lon="13.756259181258324"><ele>36.0</ele><time>2026-04-19T15:12:42.999Z</time></trkpt><trkpt lat="42.86083591482602" lon="13.756689519601748"><ele>36.0</ele><time>2026-04-19T15:12:43.999Z</time></trkpt><trkpt lat="42.86084275737304" lon="13.75713293675595"><ele>35.5</ele><time>2026-04-19T15:12:44.999Z</time></trkpt><trkpt lat="42.8608353204451" lon="13.757599882151215"><ele>35.0</ele><time>2026-04-19T15:12:45.999Z</time></trkpt><trkpt lat="42.860811039866434" lon="13.758083120404994"><ele>35.0</ele><time>2026-04-19T15:12:46.999Z</time></trkpt><trkpt lat="42.860776108993925" lon="13.758563017120116"><ele>35.0</ele><time>2026-04-19T15:12:47.999Z</time></trkpt><trkpt lat="42.86073458547438" lon="13.759025984843058"><ele>34.5</ele><time>2026-04-19T15:12:48.999Z</time></trkpt><trkpt lat="42.860694739109185" lon="13.759480755534911"><ele>34.0</ele><time>2026-04-19T15:12:49.999Z</time></trkpt><trkpt lat="42.860659099126046" lon="13.759932111115194"><ele>34.5</ele><time>2026-04-19T15:12:50.999Z</time></trkpt><trkpt lat="42.860624952426974" lon="13.760375760036204"><ele>35.0</ele><time>2026-04-19T15:12:51.999Z</time></trkpt><trkpt lat="42.860590787040685" lon="13.760824524445395"><ele>35.0</ele><time>2026-04-19T15:12:52.999Z</time></trkpt><trkpt lat="42.86055687872813" lon="13.761283559070899"><ele>35.0</ele><time>2026-04-19T15:12:53.999Z</time></trkpt><trkpt lat="42.86051790990617" lon="13.761764055369307"><ele>35.0</ele><time>2026-04-19T15:12:54.999Z</time></trkpt><trkpt lat="42.86047599106595" lon="13.762270628866974"><ele>35.0</ele><time>2026-04-19T15:12:55.999Z</time></trkpt><trkpt lat="42.860434041145915" lon="13.762771419105118"><ele>35.0</ele><time>2026-04-19T15:12:56.999Z</time></trkpt><trkpt lat="42.86039517893456" lon="13.763243832942434"><ele>35.0</ele><time>2026-04-19T15:12:57.999Z</time></trkpt><trkpt lat="42.86035823420073" lon="13.763700931234261"><ele>35.0</ele><time>2026-04-19T15:12:58.999Z</time></trkpt><trkpt lat="42.86032383517075" lon="13.764149742929655"><ele>35.0</ele><time>2026-04-19T15:12:59.999Z</time></trkpt><trkpt lat="42.86029354972141" lon="13.764601944346632"><ele>35.0</ele><time>2026-04-19T15:13:00.999Z</time></trkpt><trkpt lat="42.86026585777644" lon="13.765063437333993"><ele>35.0</ele><time>2026-04-19T15:13:01.999Z</time></trkpt><trkpt lat="42.86024974078769" lon="13.76552943887543"><ele>35.0</ele><time>2026-04-19T15:13:02.999Z</time></trkpt><trkpt lat="42.86024625252152" lon="13.765993311679383"><ele>35.0</ele><time>2026-04-19T15:13:03.999Z</time></trkpt><trkpt lat="42.8602613509522" lon="13.766449226213089"><ele>34.0</ele><time>2026-04-19T15:13:04.999Z</time></trkpt><trkpt lat="42.86029034201315" lon="13.766906182120643"><ele>33.0</ele><time>2026-04-19T15:13:05.999Z</time></trkpt><trkpt lat="42.86032953646309" lon="13.76735229173522"><ele>33.0</ele><time>2026-04-19T15:13:06.999Z</time></trkpt><trkpt lat="42.86038059151689" lon="13.767795740114474"><ele>33.0</ele><time>2026-04-19T15:13:07.999Z</time></trkpt><trkpt lat="42.86044137335644" lon="13.768226344141466"><ele>33.0</ele><time>2026-04-19T15:13:08.999Z</time></trkpt><trkpt lat="42.86051444835522" lon="13.768651953746199"><ele>33.0</ele><time>2026-04-19T15:13:09.999Z</time></trkpt><trkpt lat="42.860597456597716" lon="13.76907597592158"><ele>33.5</ele><time>2026-04-19T15:13:10.999Z</time></trkpt><trkpt lat="42.86068879879257" lon="13.769487955156402"><ele>34.0</ele><time>2026-04-19T15:13:11.999Z</time></trkpt><trkpt lat="42.86079158878679" lon="13.7699010492192"><ele>34.0</ele><time>2026-04-19T15:13:12.999Z</time></trkpt><trkpt lat="42.86090202194451" lon="13.770305713336516"><ele>34.0</ele><time>2026-04-19T15:13:13.999Z</time></trkpt><trkpt lat="42.86101123477222" lon="13.77070043689183"><ele>34.0</ele><time>2026-04-19T15:13:14.999Z</time></trkpt><trkpt lat="42.861116487393375" lon="13.771087347783117"><ele>34.0</ele><time>2026-04-19T15:13:15.999Z</time></trkpt><trkpt lat="42.86122018739044" lon="13.771478206095749"><ele>34.0</ele><time>2026-04-19T15:13:16.999Z</time></trkpt><trkpt lat="42.861323936331104" lon="13.771876108157826"><ele>34.0</ele><time>2026-04-19T15:13:17.999Z</time></trkpt><trkpt lat="42.86143056601188" lon="13.772280191954948"><ele>33.0</ele><time>2026-04-19T15:13:18.999Z</time></trkpt><trkpt lat="42.86154201122232" lon="13.772696366983707"><ele>32.0</ele><time>2026-04-19T15:13:19.999Z</time></trkpt><trkpt lat="42.86165773210354" lon="13.773120618971957"><ele>32.0</ele><time>2026-04-19T15:13:20.999Z</time></trkpt><trkpt lat="42.861773095759645" lon="13.773547110171538"><ele>32.0</ele><time>2026-04-19T15:13:21.999Z</time></trkpt><trkpt lat="42.86188650194647" lon="13.773969597746898"><ele>31.0</ele><time>2026-04-19T15:13:22.999Z</time></trkpt><trkpt lat="42.86199709781676" lon="13.774376249831294"><ele>30.0</ele><time>2026-04-19T15:13:23.999Z</time></trkpt><trkpt lat="42.86211177256656" lon="13.774781253714643"><ele>30.0</ele><time>2026-04-19T15:13:24.999Z</time></trkpt><trkpt lat="42.862221888965614" lon="13.775175039215698"><ele>30.0</ele><time>2026-04-19T15:13:25.999Z</time></trkpt><trkpt lat="42.86233126077257" lon="13.775568890912028"><ele>30.0</ele><time>2026-04-19T15:13:26.999Z</time></trkpt><trkpt lat="42.862435237192265" lon="13.775956278277283"><ele>30.0</ele><time>2026-04-19T15:13:27.999Z</time></trkpt><trkpt lat="42.86253346008956" lon="13.776331333166695"><ele>29.5</ele><time>2026-04-19T15:13:28.999Z</time></trkpt><trkpt lat="42.86262958484908" lon="13.776700961715047"><ele>29.0</ele><time>2026-04-19T15:13:29.999Z</time></trkpt><trkpt lat="42.862724883950904" lon="13.7770657809081"><ele>29.0</ele><time>2026-04-19T15:13:30.999Z</time></trkpt><trkpt lat="42.86282220894453" lon="13.777434959666289"><ele>29.0</ele><time>2026-04-19T15:13:31.999Z</time></trkpt><trkpt lat="42.86292077302215" lon="13.777814080069929"><ele>29.0</ele><time>2026-04-19T15:13:32.999Z</time></trkpt><trkpt lat="42.863022948498724" lon="13.778197238408904"><ele>29.0</ele><time>2026-04-19T15:13:33.999Z</time></trkpt><trkpt lat="42.863124288917504" lon="13.778571784574405"><ele>29.5</ele><time>2026-04-19T15:13:34.999Z</time></trkpt><trkpt lat="42.86322581960565" lon="13.778951527356066"><ele>30.0</ele><time>2026-04-19T15:13:35.999Z</time></trkpt><trkpt lat="42.863326729057576" lon="13.779330527138718"><ele>30.0</ele><time>2026-04-19T15:13:36.999Z</time></trkpt><trkpt lat="42.86342507711024" lon="13.779706576192865"><ele>30.0</ele><time>2026-04-19T15:13:37.999Z</time></trkpt><trkpt lat="42.863525883968826" lon="13.780096824491768"><ele>28.5</ele><time>2026-04-19T15:13:38.999Z</time></trkpt><trkpt lat="42.86362920229706" lon="13.780490419190786"><ele>27.0</ele><time>2026-04-19T15:13:39.999Z</time></trkpt><trkpt lat="42.86373343143457" lon="13.780886386366886"><ele>26.5</ele><time>2026-04-19T15:13:40.999Z</time></trkpt><trkpt lat="42.863840840733424" lon="13.781290105536018"><ele>26.0</ele><time>2026-04-19T15:13:41.999Z</time></trkpt><trkpt lat="42.86394815049895" lon="13.781707854871767"><ele>26.5</ele><time>2026-04-19T15:13:42.999Z</time></trkpt><trkpt lat="42.86405365033722" lon="13.782123953350041"><ele>27.0</ele><time>2026-04-19T15:13:43.999Z</time></trkpt><trkpt lat="42.86416032057451" lon="13.782548274329562"><ele>27.0</ele><time>2026-04-19T15:13:44.999Z</time></trkpt><trkpt lat="42.86426937397125" lon="13.782960195948105"><ele>27.0</ele><time>2026-04-19T15:13:45.999Z</time></trkpt><trkpt lat="42.86437725863601" lon="13.783361923157495"><ele>27.0</ele><time>2026-04-19T15:13:46.999Z</time></trkpt><trkpt lat="42.864482280498294" lon="13.78375739061699"><ele>27.0</ele><time>2026-04-19T15:13:47.999Z</time></trkpt><trkpt lat="42.86458471712737" lon="13.78414455124585"><ele>26.0</ele><time>2026-04-19T15:13:48.999Z</time></trkpt><trkpt lat="42.86468539800417" lon="13.78452364334369"><ele>25.0</ele><time>2026-04-19T15:13:49.999Z</time></trkpt><trkpt lat="42.86478732404892" lon="13.784913511123987"><ele>24.5</ele><time>2026-04-19T15:13:50.999Z</time></trkpt><trkpt lat="42.8648884785644" lon="13.785301014330171"><ele>24.0</ele><time>2026-04-19T15:13:51.999Z</time></trkpt><trkpt lat="42.86499135307535" lon="13.785692866777094"><ele>23.5</ele><time>2026-04-19T15:13:52.999Z</time></trkpt><trkpt lat="42.86509559471342" lon="13.786079042405614"><ele>23.0</ele><time>2026-04-19T15:13:53.999Z</time></trkpt><trkpt lat="42.86520028718365" lon="13.786467926028353"><ele>22.5</ele><time>2026-04-19T15:13:54.999Z</time></trkpt><trkpt lat="42.8653052149537" lon="13.786858648582351"><ele>22.0</ele><time>2026-04-19T15:13:55.999Z</time></trkpt><trkpt lat="42.865409524420116" lon="13.78724717321007"><ele>22.0</ele><time>2026-04-19T15:13:56.999Z</time></trkpt><trkpt lat="42.86551220935128" lon="13.787639590086789"><ele>22.0</ele><time>2026-04-19T15:13:57.999Z</time></trkpt><trkpt lat="42.86561333558336" lon="13.788029700913713"><ele>23.0</ele><time>2026-04-19T15:13:58.999Z</time></trkpt><trkpt lat="42.8657169842097" lon="13.788424194146778"><ele>24.0</ele><time>2026-04-19T15:13:59.999Z</time></trkpt><trkpt lat="42.865821877041505" lon="13.788807685584356"><ele>24.5</ele><time>2026-04-19T15:14:00.999Z</time></trkpt><trkpt lat="42.865927569612516" lon="13.789199495449314"><ele>25.0</ele><time>2026-04-19T15:14:01.999Z</time></trkpt><trkpt lat="42.86603238153206" lon="13.78958793039576"><ele>24.5</ele><time>2026-04-19T15:14:02.999Z</time></trkpt><trkpt lat="42.86613551213761" lon="13.789982080597643"><ele>24.0</ele><time>2026-04-19T15:14:03.999Z</time></trkpt><trkpt lat="42.866236528156335" lon="13.790372614270145"><ele>24.0</ele><time>2026-04-19T15:14:04.999Z</time></trkpt><trkpt lat="42.866336219169504" lon="13.790765457083788"><ele>24.0</ele><time>2026-04-19T15:14:05.999Z</time></trkpt><trkpt lat="42.866437326083286" lon="13.791158409596164"><ele>23.5</ele><time>2026-04-19T15:14:06.999Z</time></trkpt><trkpt lat="42.866542962915986" lon="13.791546838504972"><ele>23.0</ele><time>2026-04-19T15:14:07.999Z</time></trkpt><trkpt lat="42.86664913997175" lon="13.791935245294663"><ele>22.0</ele><time>2026-04-19T15:14:08.999Z</time></trkpt><trkpt lat="42.86675479522948" lon="13.792321958926983"><ele>21.0</ele><time>2026-04-19T15:14:09.999Z</time></trkpt><trkpt lat="42.86686537515866" lon="13.792712801564086"><ele>21.0</ele><time>2026-04-19T15:14:10.999Z</time></trkpt><trkpt lat="42.86698507547167" lon="13.79309182224981"><ele>21.0</ele><time>2026-04-19T15:14:11.999Z</time></trkpt><trkpt lat="42.86710854329635" lon="13.79347245386793"><ele>22.0</ele><time>2026-04-19T15:14:12.999Z</time></trkpt><trkpt lat="42.86723143441578" lon="13.79384934451678"><ele>23.0</ele><time>2026-04-19T15:14:13.999Z</time></trkpt><trkpt lat="42.867352786867976" lon="13.794232468428504"><ele>22.5</ele><time>2026-04-19T15:14:14.999Z</time></trkpt><trkpt lat="42.8674744183319" lon="13.794609832698699"><ele>22.0</ele><time>2026-04-19T15:14:15.999Z</time></trkpt><trkpt lat="42.86759384362395" lon="13.794990754404239"><ele>21.5</ele><time>2026-04-19T15:14:16.999Z</time></trkpt><trkpt lat="42.8677118770284" lon="13.795373168527574"><ele>21.0</ele><time>2026-04-19T15:14:17.999Z</time></trkpt><trkpt lat="42.86783095549307" lon="13.79575636400648"><ele>21.0</ele><time>2026-04-19T15:14:18.999Z</time></trkpt><trkpt lat="42.86795075512902" lon="13.796133944377065"><ele>21.0</ele><time>2026-04-19T15:14:19.999Z</time></trkpt><trkpt lat="42.86807238756603" lon="13.79651253612005"><ele>21.5</ele><time>2026-04-19T15:14:20.999Z</time></trkpt><trkpt lat="42.868194996973074" lon="13.796893607651914"><ele>22.0</ele><time>2026-04-19T15:14:21.999Z</time></trkpt><trkpt lat="42.86831678400981" lon="13.797274517391898"><ele>22.0</ele><time>2026-04-19T15:14:22.999Z</time></trkpt><trkpt lat="42.868436557342164" lon="13.797653095541078"><ele>22.0</ele><time>2026-04-19T15:14:23.999Z</time></trkpt><trkpt lat="42.86855787822061" lon="13.79803562872865"><ele>21.5</ele><time>2026-04-19T15:14:24.999Z</time></trkpt><trkpt lat="42.86868022084012" lon="13.798418314523829"><ele>21.0</ele><time>2026-04-19T15:14:25.999Z</time></trkpt><trkpt lat="42.86880164011301" lon="13.798794214151448"><ele>21.0</ele><time>2026-04-19T15:14:26.999Z</time></trkpt><trkpt lat="42.86892107899816" lon="13.799177722416706"><ele>21.0</ele><time>2026-04-19T15:14:27.999Z</time></trkpt><trkpt lat="42.8690421940347" lon="13.799555673349928"><ele>21.0</ele><time>2026-04-19T15:14:28.999Z</time></trkpt><trkpt lat="42.869164775543695" lon="13.7999333588611"><ele>21.0</ele><time>2026-04-19T15:14:29.999Z</time></trkpt><trkpt lat="42.86928831307556" lon="13.800309932181046"><ele>21.5</ele><time>2026-04-19T15:14:30.999Z</time></trkpt><trkpt lat="42.869415153210305" lon="13.800689434247733"><ele>22.0</ele><time>2026-04-19T15:14:31.999Z</time></trkpt><trkpt lat="42.869546622848475" lon="13.801062212965022"><ele>22.0</ele><time>2026-04-19T15:14:32.999Z</time></trkpt><trkpt lat="42.86968906601907" lon="13.801430399911272"><ele>22.0</ele><time>2026-04-19T15:14:33.999Z</time></trkpt><trkpt lat="42.86984046734486" lon="13.801790041599318"><ele>22.0</ele><time>2026-04-19T15:14:34.999Z</time></trkpt><trkpt lat="42.87000036694022" lon="13.802140041540119"><ele>22.0</ele><time>2026-04-19T15:14:35.999Z</time></trkpt><trkpt lat="42.870172524868984" lon="13.8024854581993"><ele>21.5</ele><time>2026-04-19T15:14:36.999Z</time></trkpt><trkpt lat="42.870356444672005" lon="13.802828877057875"><ele>21.0</ele><time>2026-04-19T15:14:37.999Z</time></trkpt><trkpt lat="42.87054533549648" lon="13.803159836208739"><ele>21.0</ele><time>2026-04-19T15:14:38.999Z</time></trkpt><trkpt lat="42.87073452217277" lon="13.803477761385077"><ele>21.0</ele><time>2026-04-19T15:14:39.999Z</time></trkpt><trkpt lat="42.87092882523624" lon="13.803784781921225"><ele>21.0</ele><time>2026-04-19T15:14:40.999Z</time></trkpt><trkpt lat="42.87113071877593" lon="13.804077674910499"><ele>21.0</ele><time>2026-04-19T15:14:41.999Z</time></trkpt><trkpt lat="42.87134206665551" lon="13.804361189377733"><ele>21.5</ele><time>2026-04-19T15:14:42.999Z</time></trkpt><trkpt lat="42.87156518165414" lon="13.804646406261588"><ele>22.0</ele><time>2026-04-19T15:14:43.999Z</time></trkpt><trkpt lat="42.871797727775984" lon="13.804930241640083"><ele>21.5</ele><time>2026-04-19T15:14:44.999Z</time></trkpt><trkpt lat="42.872047766128105" lon="13.805207995250633"><ele>21.0</ele><time>2026-04-19T15:14:45.999Z</time></trkpt><trkpt lat="42.872301935442934" lon="13.805473871002578"><ele>21.0</ele><time>2026-04-19T15:14:46.999Z</time></trkpt><trkpt lat="42.872565604060995" lon="13.805726447237246"><ele>21.0</ele><time>2026-04-19T15:14:47.999Z</time></trkpt><trkpt lat="42.87284203431794" lon="13.805979091113006"><ele>20.5</ele><time>2026-04-19T15:14:48.999Z</time></trkpt><trkpt lat="42.873140814086454" lon="13.80624451431378"><ele>20.0</ele><time>2026-04-19T15:14:49.999Z</time></trkpt><trkpt lat="42.87345236582748" lon="13.806525782062238"><ele>20.0</ele><time>2026-04-19T15:14:50.999Z</time></trkpt><trkpt lat="42.87375977383687" lon="13.806808423720888"><ele>20.0</ele><time>2026-04-19T15:14:51.999Z</time></trkpt><trkpt lat="42.874063495859225" lon="13.807093152903125"><ele>20.5</ele><time>2026-04-19T15:14:52.999Z</time></trkpt><trkpt lat="42.87437249731735" lon="13.807377006598404"><ele>21.0</ele><time>2026-04-19T15:14:53.999Z</time></trkpt><trkpt lat="42.87468720345788" lon="13.807660414483884"><ele>20.0</ele><time>2026-04-19T15:14:54.999Z</time></trkpt><trkpt lat="42.87497439394177" lon="13.807921385435183"><ele>19.0</ele><time>2026-04-19T15:14:55.999Z</time></trkpt><trkpt lat="42.87525598828446" lon="13.80817574348027"><ele>19.0</ele><time>2026-04-19T15:14:56.999Z</time></trkpt><trkpt lat="42.87553145408199" lon="13.808427627026953"><ele>19.0</ele><time>2026-04-19T15:14:57.999Z</time></trkpt><trkpt lat="42.87580037016823" lon="13.808674238551179"><ele>19.5</ele><time>2026-04-19T15:14:58.999Z</time></trkpt><trkpt lat="42.87606228083834" lon="13.808924995090388"><ele>20.0</ele><time>2026-04-19T15:14:59.999Z</time></trkpt><trkpt lat="42.87632141422827" lon="13.809181337231026"><ele>19.5</ele><time>2026-04-19T15:15:00.999Z</time></trkpt><trkpt lat="42.87658916547205" lon="13.809457189594864"><ele>19.0</ele><time>2026-04-19T15:15:01.999Z</time></trkpt><trkpt lat="42.87685416197361" lon="13.80975532512187"><ele>19.0</ele><time>2026-04-19T15:15:02.999Z</time></trkpt><trkpt lat="42.87709618134528" lon="13.81005855538189"><ele>19.0</ele><time>2026-04-19T15:15:03.999Z</time></trkpt><trkpt lat="42.87732820556336" lon="13.810375042999054"><ele>19.0</ele><time>2026-04-19T15:15:04.999Z</time></trkpt><trkpt lat="42.8775515987921" lon="13.81069841200223"><ele>19.0</ele><time>2026-04-19T15:15:05.999Z</time></trkpt><trkpt lat="42.87777403258829" lon="13.811043790261051"><ele>19.0</ele><time>2026-04-19T15:15:06.999Z</time></trkpt><trkpt lat="42.87798238581779" lon="13.811396767170597"><ele>19.0</ele><time>2026-04-19T15:15:07.999Z</time></trkpt><trkpt lat="42.878185995969446" lon="13.811760151115699"><ele>18.5</ele><time>2026-04-19T15:15:08.999Z</time></trkpt><trkpt lat="42.87837710519642" lon="13.812127640976295"><ele>18.0</ele><time>2026-04-19T15:15:09.999Z</time></trkpt><trkpt lat="42.87855235529917" lon="13.812494226483256"><ele>20.0</ele><time>2026-04-19T15:15:10.999Z</time></trkpt><trkpt lat="42.878718173829846" lon="13.812872111879061"><ele>22.0</ele><time>2026-04-19T15:15:11.999Z</time></trkpt><trkpt lat="42.87887211022387" lon="13.813252146016263"><ele>20.5</ele><time>2026-04-19T15:15:12.999Z</time></trkpt><trkpt lat="42.87901241148213" lon="13.813634275662096"><ele>19.0</ele><time>2026-04-19T15:15:13.999Z</time></trkpt><trkpt lat="42.87914268672264" lon="13.81402153603356"><ele>18.5</ele><time>2026-04-19T15:15:14.999Z</time></trkpt><trkpt lat="42.87926390913801" lon="13.814413911403614"><ele>18.0</ele><time>2026-04-19T15:15:15.999Z</time></trkpt><trkpt lat="42.879377101779106" lon="13.814812958132642"><ele>21.0</ele><time>2026-04-19T15:15:16.999Z</time></trkpt><trkpt lat="42.87948435397705" lon="13.815217821902634"><ele>24.0</ele><time>2026-04-19T15:15:17.999Z</time></trkpt><trkpt lat="42.87958023564926" lon="13.815621286672275"><ele>24.0</ele><time>2026-04-19T15:15:18.999Z</time></trkpt><trkpt lat="42.87967383278312" lon="13.816022618932871"><ele>24.0</ele><time>2026-04-19T15:15:19.999Z</time></trkpt><trkpt lat="42.87976406577441" lon="13.816412965657257"><ele>24.0</ele><time>2026-04-19T15:15:20.999Z</time></trkpt><trkpt lat="42.879852452480435" lon="13.81679587696101"><ele>24.0</ele><time>2026-04-19T15:15:21.999Z</time></trkpt><trkpt lat="42.87994424217952" lon="13.817182164202494"><ele>24.0</ele><time>2026-04-19T15:15:22.999Z</time></trkpt><trkpt lat="42.88003904542719" lon="13.81758002406972"><ele>24.0</ele><time>2026-04-19T15:15:23.999Z</time></trkpt><trkpt lat="42.88013398353688" lon="13.817976475938815"><ele>22.5</ele><time>2026-04-19T15:15:24.999Z</time></trkpt><trkpt lat="42.880225748564435" lon="13.818370971186821"><ele>21.0</ele><time>2026-04-19T15:15:25.999Z</time></trkpt><trkpt lat="42.880318183994234" lon="13.818768592562124"><ele>21.0</ele><time>2026-04-19T15:15:26.999Z</time></trkpt><trkpt lat="42.88040692833932" lon="13.819159239213468"><ele>21.0</ele><time>2026-04-19T15:15:27.999Z</time></trkpt><trkpt lat="42.880497003355885" lon="13.819549224365309"><ele>21.5</ele><time>2026-04-19T15:15:28.999Z</time></trkpt><trkpt lat="42.880590587104926" lon="13.819944295552236"><ele>22.0</ele><time>2026-04-19T15:15:29.999Z</time></trkpt><trkpt lat="42.880687064000675" lon="13.820337576227288"><ele>22.0</ele><time>2026-04-19T15:15:30.999Z</time></trkpt><trkpt lat="42.88078244590384" lon="13.820724887248113"><ele>22.0</ele><time>2026-04-19T15:15:31.999Z</time></trkpt><trkpt lat="42.880873064860396" lon="13.821111724139207"><ele>21.5</ele><time>2026-04-19T15:15:32.999Z</time></trkpt><trkpt lat="42.880961358874515" lon="13.82149669851913"><ele>21.0</ele><time>2026-04-19T15:15:33.999Z</time></trkpt><trkpt lat="42.88105027974731" lon="13.821888335677299"><ele>20.0</ele><time>2026-04-19T15:15:34.999Z</time></trkpt><trkpt lat="42.8811403315664" lon="13.82228843258352"><ele>19.0</ele><time>2026-04-19T15:15:35.999Z</time></trkpt><trkpt lat="42.881232554823896" lon="13.822695024134433"><ele>19.0</ele><time>2026-04-19T15:15:36.999Z</time></trkpt><trkpt lat="42.88132754127032" lon="13.82311008565586"><ele>19.0</ele><time>2026-04-19T15:15:37.999Z</time></trkpt><trkpt lat="42.881428443788025" lon="13.823531508807452"><ele>19.0</ele><time>2026-04-19T15:15:38.999Z</time></trkpt><trkpt lat="42.88152953171727" lon="13.82394909848311"><ele>19.0</ele><time>2026-04-19T15:15:39.999Z</time></trkpt><trkpt lat="42.88162367972164" lon="13.824359220073376"><ele>18.5</ele><time>2026-04-19T15:15:40.999Z</time></trkpt><trkpt lat="42.8817182532161" lon="13.824773315499204"><ele>18.0</ele><time>2026-04-19T15:15:41.999Z</time></trkpt><trkpt lat="42.881813177929494" lon="13.82518533702654"><ele>18.0</ele><time>2026-04-19T15:15:42.999Z</time></trkpt><trkpt lat="42.88191063438765" lon="13.825617253811167"><ele>18.0</ele><time>2026-04-19T15:15:43.999Z</time></trkpt><trkpt lat="42.8820207397809" lon="13.826067294581366"><ele>18.0</ele><time>2026-04-19T15:15:44.999Z</time></trkpt><trkpt lat="42.88214274780273" lon="13.826549211329372"><ele>18.0</ele><time>2026-04-19T15:15:45.999Z</time></trkpt><trkpt lat="42.88226370910889" lon="13.827046826515835"><ele>17.0</ele><time>2026-04-19T15:15:46.999Z</time></trkpt><trkpt lat="42.882382337361285" lon="13.827563927468809"><ele>16.0</ele><time>2026-04-19T15:15:47.999Z</time></trkpt><trkpt lat="42.88249427038101" lon="13.828072503344096"><ele>16.0</ele><time>2026-04-19T15:15:48.999Z</time></trkpt><trkpt lat="42.882597622692955" lon="13.828556027640499"><ele>16.0</ele><time>2026-04-19T15:15:49.999Z</time></trkpt><trkpt lat="42.88269805494425" lon="13.829024073401886"><ele>17.0</ele><time>2026-04-19T15:15:50.999Z</time></trkpt><trkpt lat="42.88279611518699" lon="13.829482829054836"><ele>18.0</ele><time>2026-04-19T15:15:51.999Z</time></trkpt><trkpt lat="42.8828903527477" lon="13.829935746276933"><ele>17.5</ele><time>2026-04-19T15:15:52.999Z</time></trkpt><trkpt lat="42.88298757385515" lon="13.830383912643772"><ele>17.0</ele><time>2026-04-19T15:15:53.999Z</time></trkpt><trkpt lat="42.883084587756905" lon="13.830826272248489"><ele>16.0</ele><time>2026-04-19T15:15:54.999Z</time></trkpt><trkpt lat="42.88318067797051" lon="13.831266638236793"><ele>15.0</ele><time>2026-04-19T15:15:55.999Z</time></trkpt><trkpt lat="42.88327381359478" lon="13.83170627527875"><ele>15.0</ele><time>2026-04-19T15:15:56.999Z</time></trkpt><trkpt lat="42.88336321008547" lon="13.832146839356454"><ele>15.0</ele><time>2026-04-19T15:15:57.999Z</time></trkpt><trkpt lat="42.88345557847857" lon="13.832589000174215"><ele>15.0</ele><time>2026-04-19T15:15:58.999Z</time></trkpt><trkpt lat="42.88355034230898" lon="13.833036381850443"><ele>15.0</ele><time>2026-04-19T15:15:59.999Z</time></trkpt><trkpt lat="42.88364698303084" lon="13.833484194980382"><ele>15.0</ele><time>2026-04-19T15:16:00.999Z</time></trkpt><trkpt lat="42.88374346328051" lon="13.833929604363624"><ele>15.0</ele><time>2026-04-19T15:16:01.999Z</time></trkpt><trkpt lat="42.88383904355992" lon="13.834367194623903"><ele>15.0</ele><time>2026-04-19T15:16:02.999Z</time></trkpt><trkpt lat="42.88393401251625" lon="13.834806005819958"><ele>15.0</ele><time>2026-04-19T15:16:03.999Z</time></trkpt><trkpt lat="42.88402720729372" lon="13.83524493720068"><ele>15.0</ele><time>2026-04-19T15:16:04.999Z</time></trkpt><trkpt lat="42.884113745400356" lon="13.83567261378135"><ele>15.0</ele><time>2026-04-19T15:16:05.999Z</time></trkpt><trkpt lat="42.88420308147968" lon="13.836106771926667"><ele>15.5</ele><time>2026-04-19T15:16:06.999Z</time></trkpt><trkpt lat="42.88429300511159" lon="13.836537926234568"><ele>16.0</ele><time>2026-04-19T15:16:07.999Z</time></trkpt><trkpt lat="42.88438485217955" lon="13.836966542448518"><ele>16.0</ele><time>2026-04-19T15:16:08.999Z</time></trkpt><trkpt lat="42.884477639096886" lon="13.837396241524079"><ele>16.0</ele><time>2026-04-19T15:16:09.999Z</time></trkpt><trkpt lat="42.884571126991105" lon="13.83782079929592"><ele>14.5</ele><time>2026-04-19T15:16:10.999Z</time></trkpt><trkpt lat="42.88466061581848" lon="13.838243513028953"><ele>13.0</ele><time>2026-04-19T15:16:11.999Z</time></trkpt><trkpt lat="42.88474782504409" lon="13.838670113988861"><ele>13.0</ele><time>2026-04-19T15:16:12.999Z</time></trkpt><trkpt lat="42.88482729598289" lon="13.839104029443389"><ele>13.0</ele><time>2026-04-19T15:16:13.999Z</time></trkpt><trkpt lat="42.884896221810195" lon="13.839549049607099"><ele>13.0</ele><time>2026-04-19T15:16:14.999Z</time></trkpt><trkpt lat="42.884950970705034" lon="13.839996505641578"><ele>13.0</ele><time>2026-04-19T15:16:15.999Z</time></trkpt><trkpt lat="42.88498984331847" lon="13.840445649458402"><ele>13.5</ele><time>2026-04-19T15:16:16.999Z</time></trkpt><trkpt lat="42.88502631946833" lon="13.840871890606682"><ele>14.0</ele><time>2026-04-19T15:16:17.999Z</time></trkpt><trkpt lat="42.88505078674061" lon="13.841286985733909"><ele>14.0</ele><time>2026-04-19T15:16:18.999Z</time></trkpt><trkpt lat="42.885067836843916" lon="13.841702137902448"><ele>14.0</ele><time>2026-04-19T15:16:19.999Z</time></trkpt><trkpt lat="42.88507944819572" lon="13.84213227357777"><ele>14.5</ele><time>2026-04-19T15:16:20.999Z</time></trkpt><trkpt lat="42.88508412693147" lon="13.84255668196838"><ele>15.0</ele><time>2026-04-19T15:16:21.999Z</time></trkpt><trkpt lat="42.88507932458529" lon="13.842975185726715"><ele>14.0</ele><time>2026-04-19T15:16:22.999Z</time></trkpt><trkpt lat="42.88507269564216" lon="13.843386934951882"><ele>13.0</ele><time>2026-04-19T15:16:23.999Z</time></trkpt><trkpt lat="42.88506047275169" lon="13.843811878325184"><ele>13.0</ele><time>2026-04-19T15:16:24.999Z</time></trkpt><trkpt lat="42.88504220824667" lon="13.844234985236163"><ele>13.0</ele><time>2026-04-19T15:16:25.999Z</time></trkpt><trkpt lat="42.88502589949644" lon="13.844667434344418"><ele>13.0</ele><time>2026-04-19T15:16:26.999Z</time></trkpt><trkpt lat="42.88501307929002" lon="13.845099068632827"><ele>13.0</ele><time>2026-04-19T15:16:27.999Z</time></trkpt><trkpt lat="42.88499993411399" lon="13.845533906831339"><ele>12.5</ele><time>2026-04-19T15:16:28.999Z</time></trkpt><trkpt lat="42.8849876774081" lon="13.84597073673856"><ele>12.0</ele><time>2026-04-19T15:16:29.999Z</time></trkpt><trkpt lat="42.8849760411318" lon="13.846403884081367"><ele>13.5</ele><time>2026-04-19T15:16:30.999Z</time></trkpt><trkpt lat="42.88496376973242" lon="13.846840866769524"><ele>15.0</ele><time>2026-04-19T15:16:31.999Z</time></trkpt><trkpt lat="42.88495626033827" lon="13.84727067218374"><ele>14.0</ele><time>2026-04-19T15:16:32.999Z</time></trkpt><trkpt lat="42.88495497251444" lon="13.847706452192385"><ele>13.0</ele><time>2026-04-19T15:16:33.999Z</time></trkpt><trkpt lat="42.884959142142314" lon="13.848138281401365"><ele>12.5</ele><time>2026-04-19T15:16:34.999Z</time></trkpt><trkpt lat="42.884977576124975" lon="13.848585638391917"><ele>12.0</ele><time>2026-04-19T15:16:35.999Z</time></trkpt><trkpt lat="42.88501445015619" lon="13.849040359107146"><ele>12.0</ele><time>2026-04-19T15:16:36.999Z</time></trkpt><trkpt lat="42.88505879120328" lon="13.84950501335796"><ele>12.0</ele><time>2026-04-19T15:16:37.999Z</time></trkpt><trkpt lat="42.88511986575261" lon="13.849983379311647"><ele>11.5</ele><time>2026-04-19T15:16:38.999Z</time></trkpt><trkpt lat="42.88519622774752" lon="13.850475660274249"><ele>11.0</ele><time>2026-04-19T15:16:39.999Z</time></trkpt><trkpt lat="42.88528701648421" lon="13.850988384225898"><ele>11.0</ele><time>2026-04-19T15:16:40.999Z</time></trkpt><trkpt lat="42.88539449236918" lon="13.851513562883337"><ele>11.0</ele><time>2026-04-19T15:16:41.999Z</time></trkpt><trkpt lat="42.88550487368351" lon="13.851991707498975"><ele>10.0</ele><time>2026-04-19T15:16:42.999Z</time></trkpt><trkpt lat="42.8856163265119" lon="13.852427178193757"><ele>9.0</ele><time>2026-04-19T15:16:43.999Z</time></trkpt><trkpt lat="42.88573947980974" lon="13.852844810639022"><ele>9.0</ele><time>2026-04-19T15:16:44.999Z</time></trkpt><trkpt lat="42.88588112767416" lon="13.85327977876744"><ele>9.0</ele><time>2026-04-19T15:16:45.999Z</time></trkpt><trkpt lat="42.886036317489165" lon="13.853711899457906"><ele>9.0</ele><time>2026-04-19T15:16:46.999Z</time></trkpt><trkpt lat="42.88620045909578" lon="13.85414272828441"><ele>9.0</ele><time>2026-04-19T15:16:47.999Z</time></trkpt><trkpt lat="42.88637099296711" lon="13.854570528070333"><ele>9.0</ele><time>2026-04-19T15:16:48.999Z</time></trkpt><trkpt lat="42.88653766443676" lon="13.854988384679404"><ele>9.0</ele><time>2026-04-19T15:16:49.999Z</time></trkpt><trkpt lat="42.88669938227328" lon="13.855404392525221"><ele>9.5</ele><time>2026-04-19T15:16:50.999Z</time></trkpt><trkpt lat="42.88685814047176" lon="13.855818928188818"><ele>10.0</ele><time>2026-04-19T15:16:51.999Z</time></trkpt><trkpt lat="42.88701747965398" lon="13.8562361998132"><ele>10.0</ele><time>2026-04-19T15:16:52.999Z</time></trkpt><trkpt lat="42.88718063091684" lon="13.856653150129606"><ele>10.0</ele><time>2026-04-19T15:16:53.999Z</time></trkpt><trkpt lat="42.88734518794573" lon="13.857076607547302"><ele>9.5</ele><time>2026-04-19T15:16:54.999Z</time></trkpt><trkpt lat="42.8875127572161" lon="13.85750038588713"><ele>9.0</ele><time>2026-04-19T15:16:55.999Z</time></trkpt><trkpt lat="42.887680654010225" lon="13.857933788481793"><ele>9.0</ele><time>2026-04-19T15:16:56.999Z</time></trkpt><trkpt lat="42.887853649650225" lon="13.85838488772671"><ele>9.0</ele><time>2026-04-19T15:16:57.999Z</time></trkpt><trkpt lat="42.888022776837" lon="13.858827495822752"><ele>8.0</ele><time>2026-04-19T15:16:58.999Z</time></trkpt><trkpt lat="42.888190364305046" lon="13.859264017805385"><ele>7.0</ele><time>2026-04-19T15:16:59.999Z</time></trkpt><trkpt lat="42.88835697887691" lon="13.859690314747802"><ele>7.0</ele><time>2026-04-19T15:17:00.999Z</time></trkpt><trkpt lat="42.888523451871144" lon="13.860109467407067"><ele>7.0</ele><time>2026-04-19T15:17:01.999Z</time></trkpt><trkpt lat="42.88868415044893" lon="13.86052163907987"><ele>6.5</ele><time>2026-04-19T15:17:02.999Z</time></trkpt><trkpt lat="42.88884470866789" lon="13.86093245888381"><ele>6.0</ele><time>2026-04-19T15:17:03.999Z</time></trkpt><trkpt lat="42.88900299685981" lon="13.861344023901964"><ele>6.0</ele><time>2026-04-19T15:17:04.999Z</time></trkpt><trkpt lat="42.88916099623066" lon="13.861759518772741"><ele>6.0</ele><time>2026-04-19T15:17:05.999Z</time></trkpt><trkpt lat="42.88932133915125" lon="13.862179056504987"><ele>6.5</ele><time>2026-04-19T15:17:06.999Z</time></trkpt><trkpt lat="42.88948467627716" lon="13.862604226877664"><ele>7.0</ele><time>2026-04-19T15:17:07.999Z</time></trkpt><trkpt lat="42.88964961811478" lon="13.863033766658766"><ele>6.5</ele><time>2026-04-19T15:17:08.999Z</time></trkpt><trkpt lat="42.88981831104703" lon="13.863463874818683"><ele>6.0</ele><time>2026-04-19T15:17:09.999Z</time></trkpt><trkpt lat="42.88998763968362" lon="13.86389042397343"><ele>6.5</ele><time>2026-04-19T15:17:10.999Z</time></trkpt><trkpt lat="42.89015643792975" lon="13.864318598175853"><ele>7.0</ele><time>2026-04-19T15:17:11.999Z</time></trkpt><trkpt lat="42.890321258196295" lon="13.864746023749415"><ele>7.5</ele><time>2026-04-19T15:17:12.999Z</time></trkpt><trkpt lat="42.89047599194502" lon="13.86515395664716"><ele>8.0</ele><time>2026-04-19T15:17:13.999Z</time></trkpt><trkpt lat="42.890627920469484" lon="13.865544843456354"><ele>8.0</ele><time>2026-04-19T15:17:14.999Z</time></trkpt><trkpt lat="42.890777485242225" lon="13.865931601722606"><ele>8.0</ele><time>2026-04-19T15:17:15.999Z</time></trkpt><trkpt lat="42.8909246170833" lon="13.866308745456843"><ele>8.0</ele><time>2026-04-19T15:17:16.999Z</time></trkpt><trkpt lat="42.89107450538325" lon="13.866691017739207"><ele>8.0</ele><time>2026-04-19T15:17:17.999Z</time></trkpt><trkpt lat="42.891226501110005" lon="13.867081429011067"><ele>8.0</ele><time>2026-04-19T15:17:18.999Z</time></trkpt><trkpt lat="42.89137784240895" lon="13.867466835156517"><ele>8.0</ele><time>2026-04-19T15:17:19.999Z</time></trkpt><trkpt lat="42.8915309146639" lon="13.867867331102548"><ele>7.5</ele><time>2026-04-19T15:17:20.999Z</time></trkpt><trkpt lat="42.891686509721325" lon="13.868264892526954"><ele>7.0</ele><time>2026-04-19T15:17:21.999Z</time></trkpt><trkpt lat="42.89184104188298" lon="13.868662480454061"><ele>7.0</ele><time>2026-04-19T15:17:22.999Z</time></trkpt><trkpt lat="42.89200220646128" lon="13.869062897312238"><ele>7.0</ele><time>2026-04-19T15:17:23.999Z</time></trkpt><trkpt lat="42.892150198660076" lon="13.869432175845047"><ele>7.0</ele><time>2026-04-19T15:17:24.999Z</time></trkpt><trkpt lat="42.892289383756676" lon="13.869789024895022"><ele>7.0</ele><time>2026-04-19T15:17:25.999Z</time></trkpt><trkpt lat="42.89243916289447" lon="13.870167242120715"><ele>7.0</ele><time>2026-04-19T15:17:26.999Z</time></trkpt><trkpt lat="42.892584115184846" lon="13.870540890309973"><ele>7.0</ele><time>2026-04-19T15:17:27.999Z</time></trkpt><trkpt lat="42.8927333062968" lon="13.870919790217469"><ele>8.0</ele><time>2026-04-19T15:17:28.999Z</time></trkpt><trkpt lat="42.892875979960706" lon="13.871292895581947"><ele>9.0</ele><time>2026-04-19T15:17:29.999Z</time></trkpt><trkpt lat="42.893024153622775" lon="13.871678646425591"><ele>8.0</ele><time>2026-04-19T15:17:30.999Z</time></trkpt><trkpt lat="42.89316529057252" lon="13.872060170942145"><ele>7.0</ele><time>2026-04-19T15:17:31.999Z</time></trkpt><trkpt lat="42.89332400423015" lon="13.872471017996464"><ele>6.5</ele><time>2026-04-19T15:17:32.999Z</time></trkpt><trkpt lat="42.893483564175185" lon="13.872898772399068"><ele>6.0</ele><time>2026-04-19T15:17:33.999Z</time></trkpt><trkpt lat="42.89365996270825" lon="13.873347624032359"><ele>5.0</ele><time>2026-04-19T15:17:34.999Z</time></trkpt><trkpt lat="42.89382967428324" lon="13.873793966949341"><ele>4.0</ele><time>2026-04-19T15:17:35.999Z</time></trkpt><trkpt lat="42.89399740534041" lon="13.8742437414822"><ele>4.5</ele><time>2026-04-19T15:17:36.999Z</time></trkpt><trkpt lat="42.89415464512061" lon="13.874695529466244"><ele>5.0</ele><time>2026-04-19T15:17:37.999Z</time></trkpt><trkpt lat="42.89429010904968" lon="13.875166940059453"><ele>5.0</ele><time>2026-04-19T15:17:38.999Z</time></trkpt><trkpt lat="42.894409664449284" lon="13.875637981558624"><ele>5.0</ele><time>2026-04-19T15:17:39.999Z</time></trkpt><trkpt lat="42.89451238884525" lon="13.87609494583041"><ele>5.0</ele><time>2026-04-19T15:17:40.999Z</time></trkpt><trkpt lat="42.89459941143186" lon="13.876545439496331"><ele>5.0</ele><time>2026-04-19T15:17:41.999Z</time></trkpt><trkpt lat="42.894674044236474" lon="13.87699470251418"><ele>4.5</ele><time>2026-04-19T15:17:42.999Z</time></trkpt><trkpt lat="42.894738511726345" lon="13.877442632478411"><ele>4.0</ele><time>2026-04-19T15:17:43.999Z</time></trkpt><trkpt lat="42.89479080034811" lon="13.877888920033149"><ele>4.0</ele><time>2026-04-19T15:17:44.999Z</time></trkpt><trkpt lat="42.894839360670986" lon="13.87832133426413"><ele>4.0</ele><time>2026-04-19T15:17:45.999Z</time></trkpt><trkpt lat="42.89488520906604" lon="13.878724003767973"><ele>4.0</ele><time>2026-04-19T15:17:46.999Z</time></trkpt><trkpt lat="42.89493233413989" lon="13.879122178959362"><ele>4.0</ele><time>2026-04-19T15:17:47.999Z</time></trkpt><trkpt lat="42.894980510450985" lon="13.87951429550489"><ele>4.0</ele><time>2026-04-19T15:17:48.999Z</time></trkpt><trkpt lat="42.89502823357097" lon="13.879911734235645"><ele>4.0</ele><time>2026-04-19T15:17:49.999Z</time></trkpt><trkpt lat="42.89507803171424" lon="13.880302107987161"><ele>4.0</ele><time>2026-04-19T15:17:50.999Z</time></trkpt><trkpt lat="42.89512784841466" lon="13.880688903726355"><ele>4.0</ele><time>2026-04-19T15:17:51.999Z</time></trkpt><trkpt lat="42.895176413709535" lon="13.881082908806809"><ele>4.0</ele><time>2026-04-19T15:17:52.999Z</time></trkpt><trkpt lat="42.89522592776158" lon="13.881493351668361"><ele>4.0</ele><time>2026-04-19T15:17:53.999Z</time></trkpt><trkpt lat="42.89527402205739" lon="13.881907924981908"><ele>4.0</ele><time>2026-04-19T15:17:54.999Z</time></trkpt><trkpt lat="42.89532493927156" lon="13.882312058812204"><ele>4.0</ele><time>2026-04-19T15:17:55.999Z</time></trkpt><trkpt lat="42.895376681041014" lon="13.882705741525841"><ele>4.5</ele><time>2026-04-19T15:17:56.999Z</time></trkpt><trkpt lat="42.8954281368924" lon="13.883082457312478"><ele>5.0</ele><time>2026-04-19T15:17:57.999Z</time></trkpt><trkpt lat="42.8954811248597" lon="13.88347565432101"><ele>5.5</ele><time>2026-04-19T15:17:58.999Z</time></trkpt><trkpt lat="42.89553379222992" lon="13.88388202283273"><ele>6.0</ele><time>2026-04-19T15:17:59.999Z</time></trkpt><trkpt lat="42.89558877356156" lon="13.884292072898528"><ele>6.5</ele><time>2026-04-19T15:18:00.999Z</time></trkpt><trkpt lat="42.895639520039666" lon="13.884694847900734"><ele>7.0</ele><time>2026-04-19T15:18:01.999Z</time></trkpt><trkpt lat="42.895692159236695" lon="13.88509460702957"><ele>5.5</ele><time>2026-04-19T15:18:02.999Z</time></trkpt><trkpt lat="42.89573673902864" lon="13.885461774526371"><ele>4.0</ele><time>2026-04-19T15:18:03.999Z</time></trkpt><trkpt lat="42.89578653820667" lon="13.88581913402292"><ele>3.5</ele><time>2026-04-19T15:18:04.999Z</time></trkpt><trkpt lat="42.895826700038356" lon="13.886167692295164"><ele>3.0</ele><time>2026-04-19T15:18:05.999Z</time></trkpt><trkpt lat="42.89586687681169" lon="13.886523081188983"><ele>3.0</ele><time>2026-04-19T15:18:06.999Z</time></trkpt><trkpt lat="42.89590053942153" lon="13.886870085983588"><ele>3.0</ele><time>2026-04-19T15:18:07.999Z</time></trkpt><trkpt lat="42.8959311646536" lon="13.887227443663905"><ele>3.0</ele><time>2026-04-19T15:18:08.999Z</time></trkpt><trkpt lat="42.89595243465027" lon="13.88759856217363"><ele>3.0</ele><time>2026-04-19T15:18:09.999Z</time></trkpt><trkpt lat="42.895963030390746" lon="13.887969095814094"><ele>3.0</ele><time>2026-04-19T15:18:10.999Z</time></trkpt><trkpt lat="42.89596581140048" lon="13.888314967850988"><ele>3.0</ele><time>2026-04-19T15:18:11.999Z</time></trkpt><trkpt lat="42.895965956367036" lon="13.888637909310594"><ele>3.0</ele><time>2026-04-19T15:18:12.999Z</time></trkpt><trkpt lat="42.89596519054502" lon="13.888964421445788"><ele>3.0</ele><time>2026-04-19T15:18:13.999Z</time></trkpt><trkpt lat="42.89595807663928" lon="13.889293418355697"><ele>2.5</ele><time>2026-04-19T15:18:14.999Z</time></trkpt><trkpt lat="42.89594849676693" lon="13.889630013890994"><ele>2.0</ele><time>2026-04-19T15:18:15.999Z</time></trkpt><trkpt lat="42.89593948450065" lon="13.889974638622299"><ele>2.0</ele><time>2026-04-19T15:18:16.999Z</time></trkpt><trkpt lat="42.895930298804664" lon="13.890320238708803"><ele>2.0</ele><time>2026-04-19T15:18:17.999Z</time></trkpt><trkpt lat="42.89591987219497" lon="13.89063211521023"><ele>1.6666666666666665</ele><time>2026-04-19T15:18:18.999Z</time></trkpt><trkpt lat="42.895909800906594" lon="13.890928772661766"><ele>1.3333333333333333</ele><time>2026-04-19T15:18:19.999Z</time></trkpt><trkpt lat="42.89590155054869" lon="13.891218283012625"><ele>1.0</ele><time>2026-04-19T15:18:20.999Z</time></trkpt><trkpt lat="42.89589271077574" lon="13.891501578222746"><ele>1.3333333333333333</ele><time>2026-04-19T15:18:21.999Z</time></trkpt><trkpt lat="42.89588271859613" lon="13.891800050493282"><ele>1.6666666666666665</ele><time>2026-04-19T15:18:23Z</time></trkpt><trkpt lat="42.895872262257804" lon="13.892092076546621"><ele>2.0</ele><time>2026-04-19T15:18:23.999Z</time></trkpt><trkpt lat="42.89586255512861" lon="13.892389262622277"><ele>1.6666666666666665</ele><time>2026-04-19T15:18:24.999Z</time></trkpt><trkpt lat="42.89585064523844" lon="13.892694481192366"><ele>1.3333333333333333</ele><time>2026-04-19T15:18:25.999Z</time></trkpt><trkpt lat="42.89584557287925" lon="13.892986759146387"><ele>1.0</ele><time>2026-04-19T15:18:26.999Z</time></trkpt><trkpt lat="42.89582920007435" lon="13.893256537127455"><ele>0.6666666666666666</ele><time>2026-04-19T15:18:27.999Z</time></trkpt><trkpt lat="42.895822862215454" lon="13.893528383912548"><ele>0.3333333333333333</ele><time>2026-04-19T15:18:28.999Z</time></trkpt><trkpt lat="42.895817992491814" lon="13.893800267835598"><ele>0.0</ele><time>2026-04-19T15:18:29.999Z</time></trkpt><trkpt lat="42.89581226937939" lon="13.894080796928113"><ele>0.3333333333333333</ele><time>2026-04-19T15:18:30.999Z</time></trkpt><trkpt lat="42.8958043615966" lon="13.894348641390636"><ele>0.6666666666666666</ele><time>2026-04-19T15:18:31.999Z</time></trkpt><trkpt lat="42.89579679035825" lon="13.89458674398353"><ele>1.0</ele><time>2026-04-19T15:18:32.999Z</time></trkpt><trkpt lat="42.89579187616383" lon="13.894819621436136"><ele>1.0</ele><time>2026-04-19T15:18:33.999Z</time></trkpt><trkpt lat="42.895783980598345" lon="13.89504486605004"><ele>1.0</ele><time>2026-04-19T15:18:34.999Z</time></trkpt><trkpt lat="42.89577435333437" lon="13.89528597073294"><ele>1.0</ele><time>2026-04-19T15:18:35.999Z</time></trkpt><trkpt lat="42.895758878001985" lon="13.895525075376879"><ele>2.0</ele><time>2026-04-19T15:18:36.999Z</time></trkpt><trkpt lat="42.89573766581372" lon="13.895756834915986"><ele>3.0</ele><time>2026-04-19T15:18:37.999Z</time></trkpt><trkpt lat="42.89570835029092" lon="13.895977606749097"><ele>4.0</ele><time>2026-04-19T15:18:38.999Z</time></trkpt><trkpt lat="42.89567248985806" lon="13.896185155462978"><ele>4.25</ele><time>2026-04-19T15:18:39.999Z</time></trkpt><trkpt lat="42.89563796421303" lon="13.896378842296004"><ele>4.5</ele><time>2026-04-19T15:18:40.999Z</time></trkpt><trkpt lat="42.895610644587464" lon="13.896552898500257"><ele>4.75</ele><time>2026-04-19T15:18:41.999Z</time></trkpt><trkpt lat="42.89557860816927" lon="13.89671620786221"><ele>5.0</ele><time>2026-04-19T15:18:42.999Z</time></trkpt><trkpt lat="42.89553063970339" lon="13.896843489878199"><ele>5.25</ele><time>2026-04-19T15:18:43.999Z</time></trkpt><trkpt lat="42.89546898616195" lon="13.896968688649398"><ele>5.5</ele><time>2026-04-19T15:18:44.999Z</time></trkpt><trkpt lat="42.89536350882472" lon="13.897083935988046"><ele>5.75</ele><time>2026-04-19T15:18:45.999Z</time></trkpt><trkpt lat="42.89526243583603" lon="13.897159811255548"><ele>6.0</ele><time>2026-04-19T15:18:46.999Z</time></trkpt><trkpt lat="42.89516016286406" lon="13.897214207517845"><ele>6.199999999999999</ele><time>2026-04-19T15:18:47.999Z</time></trkpt><trkpt lat="42.8950484693864" lon="13.897252742611665"><ele>6.3999999999999995</ele><time>2026-04-19T15:18:48.999Z</time></trkpt><trkpt lat="42.89493777074782" lon="13.89725692605238"><ele>6.6</ele><time>2026-04-19T15:18:49.999Z</time></trkpt><trkpt lat="42.89484114168545" lon="13.897230427576906"><ele>6.8</ele><time>2026-04-19T15:18:50.999Z</time></trkpt><trkpt lat="42.894763315886195" lon="13.897180008605593"><ele>7.0</ele><time>2026-04-19T15:18:51.999Z</time></trkpt><trkpt lat="42.89470411051787" lon="13.897103463280565"><ele>7.000000000000001</ele><time>2026-04-19T15:18:52.999Z</time></trkpt><trkpt lat="42.89466554281321" lon="13.897016302737988"><ele>7.0</ele><time>2026-04-19T15:18:53.999Z</time></trkpt><trkpt lat="42.894642780058014" lon="13.896916852766866"><ele>7.0</ele><time>2026-04-19T15:18:54.999Z</time></trkpt><trkpt lat="42.894635841565616" lon="13.896803745745293"><ele>7.0</ele><time>2026-04-19T15:18:55.999Z</time></trkpt><trkpt lat="42.894646422412926" lon="13.89670428451201"><ele>7.000000000000001</ele><time>2026-04-19T15:18:56.999Z</time></trkpt><trkpt lat="42.894703707351496" lon="13.896571628294092"><ele>7.0</ele><time>2026-04-19T15:18:58.999Z</time></trkpt><trkpt lat="42.89479810852214" lon="13.896481106751647"><ele>7.0</ele><time>2026-04-19T15:19:00.999Z</time></trkpt><trkpt lat="42.89486353186717" lon="13.896445213264508"><ele>6.999999999999999</ele><time>2026-04-19T15:19:01.999Z</time></trkpt><trkpt lat="42.89495997954192" lon="13.896459312849341"><ele>6.999999999999999</ele><time>2026-04-19T15:19:03.999Z</time></trkpt><trkpt lat="42.895048872441336" lon="13.896469081374514"><ele>7.0</ele><time>2026-04-19T15:19:05.999Z</time></trkpt><trkpt lat="42.89518022670846" lon="13.896466484517433"><ele>7.0</ele><time>2026-04-19T15:19:07.999Z</time></trkpt><trkpt lat="42.895259894601764" lon="13.896464543055824"><ele>6.714285714285714</ele><time>2026-04-19T15:19:08.999Z</time></trkpt><trkpt lat="42.89533334484097" lon="13.89647160703127"><ele>6.428571428571429</ele><time>2026-04-19T15:19:09.999Z</time></trkpt><trkpt lat="42.8954106791573" lon="13.896490358419154"><ele>6.142857142857142</ele><time>2026-04-19T15:19:10.999Z</time></trkpt><trkpt lat="42.895485684030774" lon="13.896515995441499"><ele>5.857142857142858</ele><time>2026-04-19T15:19:11.999Z</time></trkpt><trkpt lat="42.89555694478234" lon="13.896542160917681"><ele>5.571428571428571</ele><time>2026-04-19T15:19:12.999Z</time></trkpt><trkpt lat="42.89562426650348" lon="13.89655671154354"><ele>5.285714285714286</ele><time>2026-04-19T15:19:13.999Z</time></trkpt><trkpt lat="42.895700858765565" lon="13.896572491143154"><ele>5.0</ele><time>2026-04-19T15:19:14.999Z</time></trkpt><trkpt lat="42.89578750590395" lon="13.896593092172076"><ele>5.0</ele><time>2026-04-19T15:19:15.999Z</time></trkpt><trkpt lat="42.895879953590786" lon="13.896613957469544"><ele>5.0</ele><time>2026-04-19T15:19:16.999Z</time></trkpt><trkpt lat="42.89597131696054" lon="13.896639470361785"><ele>5.0</ele><time>2026-04-19T15:19:17.999Z</time></trkpt><trkpt lat="42.896063465518566" lon="13.896666205335546"><ele>5.0</ele><time>2026-04-19T15:19:18.999Z</time></trkpt><trkpt lat="42.896150760765636" lon="13.896690740888934"><ele>5.0</ele><time>2026-04-19T15:19:19.999Z</time></trkpt><trkpt lat="42.89624138369053" lon="13.896715412612801"><ele>5.0</ele><time>2026-04-19T15:19:20.999Z</time></trkpt><trkpt lat="42.89633981788022" lon="13.896741685849053"><ele>5.0</ele><time>2026-04-19T15:19:21.999Z</time></trkpt><trkpt lat="42.89643766666075" lon="13.896771478749843"><ele>5.0</ele><time>2026-04-19T15:19:22.999Z</time></trkpt><trkpt lat="42.89653990101046" lon="13.896797509876702"><ele>5.0</ele><time>2026-04-19T15:19:23.999Z</time></trkpt><trkpt lat="42.896641968663936" lon="13.896821060040553"><ele>5.0</ele><time>2026-04-19T15:19:24.999Z</time></trkpt><trkpt lat="42.896744800326594" lon="13.896843582574746"><ele>5.0</ele><time>2026-04-19T15:19:25.999Z</time></trkpt><trkpt lat="42.896839933263" lon="13.896854921924948"><ele>5.0</ele><time>2026-04-19T15:19:26.999Z</time></trkpt><trkpt lat="42.89693281886037" lon="13.89685165406922"><ele>5.0</ele><time>2026-04-19T15:19:27.999Z</time></trkpt><trkpt lat="42.89703968213207" lon="13.896822537325942"><ele>5.0</ele><time>2026-04-19T15:19:28.999Z</time></trkpt><trkpt lat="42.89713781582357" lon="13.89678659262872"><ele>5.0</ele><time>2026-04-19T15:19:29.999Z</time></trkpt><trkpt lat="42.89723245604055" lon="13.896705184621169"><ele>5.166666666666667</ele><time>2026-04-19T15:19:30.999Z</time></trkpt><trkpt lat="42.89730703980236" lon="13.896684017831882"><ele>5.333333333333334</ele><time>2026-04-19T15:19:31.999Z</time></trkpt><trkpt lat="42.897371065605256" lon="13.896646586853011"><ele>5.5</ele><time>2026-04-19T15:19:32.999Z</time></trkpt><trkpt lat="42.89744954303745" lon="13.896613869690807"><ele>5.666666666666667</ele><time>2026-04-19T15:19:35Z</time></trkpt><trkpt lat="42.89753020064043" lon="13.896614052833135"><ele>5.833333333333333</ele><time>2026-04-19T15:19:38Z</time></trkpt><trkpt lat="42.89761838429712" lon="13.896621942710143"><ele>6.0</ele><time>2026-04-19T15:19:40Z</time></trkpt><trkpt lat="42.89770728857221" lon="13.896610930556434"><ele>6.0</ele><time>2026-04-19T15:19:42Z</time></trkpt><trkpt lat="42.897783733463434" lon="13.896492579581958"><ele>6.0</ele><time>2026-04-19T15:19:44Z</time></trkpt><trkpt lat="42.897764164355145" lon="13.896340054895088"><ele>6.0</ele><time>2026-04-19T15:19:46Z</time></trkpt><trkpt lat="42.897676980155914" lon="13.896234612997903"><ele>6.0</ele><time>2026-04-19T15:19:48Z</time></trkpt><trkpt lat="42.89760574259189" lon="13.89622301279637"><ele>6.0</ele><time>2026-04-19T15:19:49Z</time></trkpt><trkpt lat="42.89753953355071" lon="13.896250852329445"><ele>5.3999999999999995</ele><time>2026-04-19T15:19:50Z</time></trkpt><trkpt lat="42.8974756912955" lon="13.896321282101844"><ele>4.8</ele><time>2026-04-19T15:19:51Z</time></trkpt><trkpt lat="42.89740585654717" lon="13.896431006702707"><ele>4.199999999999999</ele><time>2026-04-19T15:19:52Z</time></trkpt><trkpt lat="42.89731705385431" lon="13.896524908086134"><ele>3.5999999999999996</ele><time>2026-04-19T15:19:53Z</time></trkpt><trkpt lat="42.8972159028153" lon="13.896586607534418"><ele>3.0</ele><time>2026-04-19T15:19:54Z</time></trkpt><trkpt lat="42.89711471119896" lon="13.896605358215135"><ele>3.0</ele><time>2026-04-19T15:19:55Z</time></trkpt><trkpt lat="42.89700755924606" lon="13.896610818563044"><ele>3.0</ele><time>2026-04-19T15:19:56Z</time></trkpt><trkpt lat="42.89685909662341" lon="13.896607821462348"><ele>3.0</ele><time>2026-04-19T15:19:57Z</time></trkpt><trkpt lat="42.89669686850303" lon="13.896426266814471"><ele>4.0</ele><time>2026-04-19T15:19:57.999Z</time></trkpt><trkpt lat="42.89652274755194" lon="13.896277708282044"><ele>5.0</ele><time>2026-04-19T15:19:58.999Z</time></trkpt><trkpt lat="42.89636145432651" lon="13.89612663427514"><ele>6.0</ele><time>2026-04-19T15:19:59.999Z</time></trkpt><trkpt lat="42.89622637515311" lon="13.895981471299418"><ele>5.0</ele><time>2026-04-19T15:20:00.999Z</time></trkpt><trkpt lat="42.89611984400738" lon="13.895808164739334"><ele>4.0</ele><time>2026-04-19T15:20:01.999Z</time></trkpt><trkpt lat="42.89604125526981" lon="13.895594156357047"><ele>3.0</ele><time>2026-04-19T15:20:02.999Z</time></trkpt><trkpt lat="42.89598938328314" lon="13.895339378997441"><ele>2.3333333333333335</ele><time>2026-04-19T15:20:03.999Z</time></trkpt><trkpt lat="42.89596785037154" lon="13.895059711180917"><ele>1.6666666666666665</ele><time>2026-04-19T15:20:04.999Z</time></trkpt><trkpt lat="42.89596340777893" lon="13.894748466828696"><ele>1.0</ele><time>2026-04-19T15:20:05.999Z</time></trkpt><trkpt lat="42.895956298364716" lon="13.894418078480358"><ele>1.0</ele><time>2026-04-19T15:20:06.999Z</time></trkpt><trkpt lat="42.895941506755115" lon="13.894138861091571"><ele>1.0</ele><time>2026-04-19T15:20:07.999Z</time></trkpt><trkpt lat="42.895928649065006" lon="13.893892692417333"><ele>1.0</ele><time>2026-04-19T15:20:08.999Z</time></trkpt><trkpt lat="42.89592124868492" lon="13.893660365948215"><ele>0.6666666666666666</ele><time>2026-04-19T15:20:09.999Z</time></trkpt><trkpt lat="42.895917941448566" lon="13.89343810650183"><ele>0.3333333333333333</ele><time>2026-04-19T15:20:10.999Z</time></trkpt><trkpt lat="42.895920276373396" lon="13.893201712339529"><ele>0.0</ele><time>2026-04-19T15:20:11.999Z</time></trkpt><trkpt lat="42.89592495493234" lon="13.892968939649098"><ele>0.6666666666666666</ele><time>2026-04-19T15:20:12.999Z</time></trkpt><trkpt lat="42.89593294674381" lon="13.892734443063832"><ele>1.3333333333333333</ele><time>2026-04-19T15:20:13.999Z</time></trkpt><trkpt lat="42.89592915600838" lon="13.892503201709157"><ele>2.0</ele><time>2026-04-19T15:20:14.999Z</time></trkpt><trkpt lat="42.89592521233073" lon="13.892246843160141"><ele>2.0</ele><time>2026-04-19T15:20:15.999Z</time></trkpt><trkpt lat="42.89594239969031" lon="13.89197163910728"><ele>2.0</ele><time>2026-04-19T15:20:16.999Z</time></trkpt><trkpt lat="42.895959717279574" lon="13.89168542126188"><ele>2.0</ele><time>2026-04-19T15:20:17.999Z</time></trkpt><trkpt lat="42.895980170971946" lon="13.891389118710807"><ele>2.6666666666666665</ele><time>2026-04-19T15:20:18.999Z</time></trkpt><trkpt lat="42.89599427511437" lon="13.891091928019094"><ele>3.333333333333333</ele><time>2026-04-19T15:20:19.999Z</time></trkpt><trkpt lat="42.896002548863635" lon="13.890800115494912"><ele>4.0</ele><time>2026-04-19T15:20:20.999Z</time></trkpt><trkpt lat="42.89600781000637" lon="13.890532877130722"><ele>4.0</ele><time>2026-04-19T15:20:21.999Z</time></trkpt><trkpt lat="42.89601202059898" lon="13.890283020691058"><ele>4.0</ele><time>2026-04-19T15:20:22.999Z</time></trkpt><trkpt lat="42.896022056683435" lon="13.890030996876373"><ele>4.0</ele><time>2026-04-19T15:20:23.999Z</time></trkpt><trkpt lat="42.8960333729469" lon="13.889778285757314"><ele>3.6666666666666665</ele><time>2026-04-19T15:20:24.999Z</time></trkpt><trkpt lat="42.89604457541424" lon="13.88952553976479"><ele>3.333333333333333</ele><time>2026-04-19T15:20:25.999Z</time></trkpt><trkpt lat="42.89605296718218" lon="13.889274648124623"><ele>3.0</ele><time>2026-04-19T15:20:26.999Z</time></trkpt><trkpt lat="42.89606244214231" lon="13.889039145495275"><ele>3.0</ele><time>2026-04-19T15:20:27.999Z</time></trkpt><trkpt lat="42.89606963138061" lon="13.888789144553082"><ele>3.0</ele><time>2026-04-19T15:20:28.999Z</time></trkpt><trkpt lat="42.89607747465606" lon="13.888538174221706"><ele>3.0</ele><time>2026-04-19T15:20:29.999Z</time></trkpt><trkpt lat="42.89608158730994" lon="13.88829523783142"><ele>3.0</ele><time>2026-04-19T15:20:31Z</time></trkpt><trkpt lat="42.896082900547015" lon="13.88804406619919"><ele>3.0</ele><time>2026-04-19T15:20:32Z</time></trkpt><trkpt lat="42.8960757254557" lon="13.88780150455059"><ele>3.0</ele><time>2026-04-19T15:20:33Z</time></trkpt><trkpt lat="42.89606493037104" lon="13.887551511497923"><ele>3.0</ele><time>2026-04-19T15:20:34Z</time></trkpt><trkpt lat="42.89605472115282" lon="13.88730464650427"><ele>3.0</ele><time>2026-04-19T15:20:35Z</time></trkpt><trkpt lat="42.896042059344126" lon="13.887064400340098"><ele>3.0</ele><time>2026-04-19T15:20:36Z</time></trkpt><trkpt lat="42.89602569352218" lon="13.88682844960147"><ele>3.0</ele><time>2026-04-19T15:20:37Z</time></trkpt><trkpt lat="42.896005781190766" lon="13.886610840639534"><ele>3.0</ele><time>2026-04-19T15:20:38Z</time></trkpt><trkpt lat="42.89597745727972" lon="13.886389845627498"><ele>3.0</ele><time>2026-04-19T15:20:39Z</time></trkpt><trkpt lat="42.89593514301328" lon="13.886161708916656"><ele>3.333333333333333</ele><time>2026-04-19T15:20:40Z</time></trkpt><trkpt lat="42.895884213317025" lon="13.885914080962237"><ele>3.6666666666666665</ele><time>2026-04-19T15:20:41Z</time></trkpt><trkpt lat="42.89584275575787" lon="13.885636389042231"><ele>4.0</ele><time>2026-04-19T15:20:42Z</time></trkpt><trkpt lat="42.895803971998134" lon="13.885312880309414"><ele>5.5</ele><time>2026-04-19T15:20:43Z</time></trkpt><trkpt lat="42.89576870307228" lon="13.884967103190903"><ele>7.0</ele><time>2026-04-19T15:20:44Z</time></trkpt><trkpt lat="42.89573835249899" lon="13.884624208485489"><ele>7.0</ele><time>2026-04-19T15:20:45Z</time></trkpt><trkpt lat="42.89569347637104" lon="13.884273057920522"><ele>7.0</ele><time>2026-04-19T15:20:46Z</time></trkpt><trkpt lat="42.8956586253498" lon="13.883938637459867"><ele>6.5</ele><time>2026-04-19T15:20:47Z</time></trkpt><trkpt lat="42.895619001118106" lon="13.883612538428444"><ele>6.0</ele><time>2026-04-19T15:20:48Z</time></trkpt><trkpt lat="42.89558172005729" lon="13.883313517116306"><ele>5.666666666666667</ele><time>2026-04-19T15:20:49Z</time></trkpt><trkpt lat="42.895551288813124" lon="13.883032182361786"><ele>5.333333333333334</ele><time>2026-04-19T15:20:50Z</time></trkpt><trkpt lat="42.89551958790159" lon="13.882757416954764"><ele>5.0</ele><time>2026-04-19T15:20:51Z</time></trkpt><trkpt lat="42.89549029786792" lon="13.882484326460022"><ele>4.666666666666667</ele><time>2026-04-19T15:20:52Z</time></trkpt><trkpt lat="42.89545878395356" lon="13.882203421744073"><ele>4.333333333333333</ele><time>2026-04-19T15:20:53Z</time></trkpt><trkpt lat="42.895430180059755" lon="13.881912043509715"><ele>4.0</ele><time>2026-04-19T15:20:54Z</time></trkpt><trkpt lat="42.89540501097738" lon="13.881638681803237"><ele>4.0</ele><time>2026-04-19T15:20:55Z</time></trkpt><trkpt lat="42.89538842621253" lon="13.881396125737336"><ele>4.0</ele><time>2026-04-19T15:20:56Z</time></trkpt><trkpt lat="42.89537094152785" lon="13.881166495002253"><ele>4.0</ele><time>2026-04-19T15:20:57Z</time></trkpt><trkpt lat="42.895332307337" lon="13.880948515758519"><ele>4.25</ele><time>2026-04-19T15:20:58Z</time></trkpt><trkpt lat="42.89532565206338" lon="13.880739393223234"><ele>4.5</ele><time>2026-04-19T15:20:59Z</time></trkpt><trkpt lat="42.89531881336236" lon="13.880542539751088"><ele>4.75</ele><time>2026-04-19T15:21:00Z</time></trkpt><trkpt lat="42.89534186978743" lon="13.880356095478199"><ele>5.0</ele><time>2026-04-19T15:21:01Z</time></trkpt><trkpt lat="42.895405237709944" lon="13.880189813073079"><ele>5.0</ele><time>2026-04-19T15:21:02Z</time></trkpt><trkpt lat="42.89549730147083" lon="13.880053334584382"><ele>5.0</ele><time>2026-04-19T15:21:03Z</time></trkpt><trkpt lat="42.895616176449096" lon="13.879948394826435"><ele>5.0</ele><time>2026-04-19T15:21:04Z</time></trkpt><trkpt lat="42.895750463648326" lon="13.879871914558466"><ele>5.0</ele><time>2026-04-19T15:21:05Z</time></trkpt><trkpt lat="42.89589241454271" lon="13.879839055632889"><ele>5.25</ele><time>2026-04-19T15:21:06Z</time></trkpt><trkpt lat="42.896039654407744" lon="13.879846069075196"><ele>5.5</ele><time>2026-04-19T15:21:07Z</time></trkpt><trkpt lat="42.896182517527635" lon="13.879888261616866"><ele>5.75</ele><time>2026-04-19T15:21:08Z</time></trkpt><trkpt lat="42.896316461377815" lon="13.879965423327896"><ele>6.0</ele><time>2026-04-19T15:21:09Z</time></trkpt><trkpt lat="42.896440359283076" lon="13.880059319561092"><ele>6.0</ele><time>2026-04-19T15:21:10Z</time></trkpt><trkpt lat="42.89655097085465" lon="13.880168466598843"><ele>6.0</ele><time>2026-04-19T15:21:11Z</time></trkpt><trkpt lat="42.896646281973794" lon="13.880278851464883"><ele>6.0</ele><time>2026-04-19T15:21:12Z</time></trkpt><trkpt lat="42.89672660383755" lon="13.880383886582122"><ele>6.0</ele><time>2026-04-19T15:21:13Z</time></trkpt><trkpt lat="42.896802227264665" lon="13.880483456018714"><ele>6.0</ele><time>2026-04-19T15:21:14Z</time></trkpt><trkpt lat="42.8969019190434" lon="13.880550404621719"><ele>6.0</ele><time>2026-04-19T15:21:15Z</time></trkpt><trkpt lat="42.89695734355182" lon="13.880619580525002"><ele>6.0</ele><time>2026-04-19T15:21:16Z</time></trkpt><trkpt lat="42.89700850547105" lon="13.880682548714805"><ele>6.0</ele><time>2026-04-19T15:21:17Z</time></trkpt><trkpt lat="42.897056548355856" lon="13.880741110227596"><ele>6.0</ele><time>2026-04-19T15:21:18Z</time></trkpt><trkpt lat="42.89710460799364" lon="13.880799253792205"><ele>6.0</ele><time>2026-04-19T15:21:19Z</time></trkpt><trkpt lat="42.89715484427244" lon="13.880859004150702"><ele>5.999999999999999</ele><time>2026-04-19T15:21:20Z</time></trkpt><trkpt lat="42.89720813481697" lon="13.880919279658082"><ele>6.0</ele><time>2026-04-19T15:21:21Z</time></trkpt><trkpt lat="42.89725751873963" lon="13.880974866247445"><ele>6.0</ele><time>2026-04-19T15:21:21.999Z</time></trkpt><trkpt lat="42.89731184091688" lon="13.88103390389158"><ele>6.0</ele><time>2026-04-19T15:21:22.999Z</time></trkpt><trkpt lat="42.89736472615449" lon="13.881091287099677"><ele>6.0</ele><time>2026-04-19T15:21:23.999Z</time></trkpt><trkpt lat="42.89741560091116" lon="13.881146397903368"><ele>5.999999999999999</ele><time>2026-04-19T15:21:24.999Z</time></trkpt><trkpt lat="42.897470694193" lon="13.881205825940059"><ele>6.0</ele><time>2026-04-19T15:21:25.999Z</time></trkpt><trkpt lat="42.89754597929546" lon="13.88128871958451"><ele>6.0</ele><time>2026-04-19T15:21:27.999Z</time></trkpt><trkpt lat="42.89754840256164" lon="13.881380257984185"><ele>6.0</ele><time>2026-04-19T15:21:28.999Z</time></trkpt><trkpt lat="42.897609247235295" lon="13.881453336308837"><ele>6.0</ele><time>2026-04-19T15:21:30.999Z</time></trkpt><trkpt lat="42.897661298136285" lon="13.881504495594235"><ele>6.0</ele><time>2026-04-19T15:21:33.999Z</time></trkpt><trkpt lat="42.897714042938105" lon="13.881560430966006"><ele>6.0</ele><time>2026-04-19T15:21:35Z</time></trkpt><trkpt lat="42.8977906369176" lon="13.881648714972284"><ele>6.0</ele><time>2026-04-19T15:21:36Z</time></trkpt><trkpt lat="42.89792615045116" lon="13.881713584075923"><ele>6.0</ele><time>2026-04-19T15:21:37Z</time></trkpt><trkpt lat="42.8980319266321" lon="13.881832330855792"><ele>6.0</ele><time>2026-04-19T15:21:38Z</time></trkpt><trkpt lat="42.898061802049696" lon="13.882088781683168"><ele>6.0</ele><time>2026-04-19T15:21:39Z</time></trkpt><trkpt lat="42.89811301763185" lon="13.882290477441764"><ele>6.0</ele><time>2026-04-19T15:21:40Z</time></trkpt><trkpt lat="42.89813833081346" lon="13.882500362962164"><ele>6.0</ele><time>2026-04-19T15:21:41Z</time></trkpt><trkpt lat="42.89814405649036" lon="13.88272343016468"><ele>6.0</ele><time>2026-04-19T15:21:42Z</time></trkpt><trkpt lat="42.898126353463674" lon="13.88295456389281"><ele>6.0</ele><time>2026-04-19T15:21:43Z</time></trkpt><trkpt lat="42.89808447998945" lon="13.883185829253724"><ele>6.0</ele><time>2026-04-19T15:21:44Z</time></trkpt><trkpt lat="42.898011737208165" lon="13.883394516453869"><ele>6.0</ele><time>2026-04-19T15:21:45Z</time></trkpt><trkpt lat="42.8979114112098" lon="13.883579351322542"><ele>6.0</ele><time>2026-04-19T15:21:46Z</time></trkpt><trkpt lat="42.897782775737" lon="13.88374344661391"><ele>6.0</ele><time>2026-04-19T15:21:47Z</time></trkpt><trkpt lat="42.89762753591988" lon="13.883890756617987"><ele>6.0</ele><time>2026-04-19T15:21:48Z</time></trkpt><trkpt lat="42.897443086909185" lon="13.884020170430643"><ele>6.0</ele><time>2026-04-19T15:21:49Z</time></trkpt><trkpt lat="42.89723823751039" lon="13.884140535977311"><ele>6.0</ele><time>2026-04-19T15:21:50Z</time></trkpt><trkpt lat="42.89700469983298" lon="13.884251743993378"><ele>5.5</ele><time>2026-04-19T15:21:51Z</time></trkpt><trkpt lat="42.89674567575678" lon="13.884370492794039"><ele>5.0</ele><time>2026-04-19T15:21:52Z</time></trkpt><trkpt lat="42.89647394353095" lon="13.884507241956973"><ele>5.0</ele><time>2026-04-19T15:21:53Z</time></trkpt><trkpt lat="42.89618291851394" lon="13.884663942117552"><ele>5.0</ele><time>2026-04-19T15:21:54Z</time></trkpt><trkpt lat="42.89589284569315" lon="13.884820178023684"><ele>4.5</ele><time>2026-04-19T15:21:55Z</time></trkpt><trkpt lat="42.895627087339264" lon="13.884961289599683"><ele>4.0</ele><time>2026-04-19T15:21:56Z</time></trkpt><trkpt lat="42.89535399854815" lon="13.88510350159855"><ele>4.0</ele><time>2026-04-19T15:21:57Z</time></trkpt><trkpt lat="42.89508262914363" lon="13.885245205225322"><ele>4.0</ele><time>2026-04-19T15:21:58Z</time></trkpt><trkpt lat="42.89481258769751" lon="13.885395527408718"><ele>4.0</ele><time>2026-04-19T15:21:59Z</time></trkpt><trkpt lat="42.89453856896855" lon="13.885554053248933"><ele>4.0</ele><time>2026-04-19T15:22:00Z</time></trkpt><trkpt lat="42.89426961839206" lon="13.885720281219314"><ele>3.5</ele><time>2026-04-19T15:22:01Z</time></trkpt><trkpt lat="42.894005926756314" lon="13.885897103310802"><ele>3.0</ele><time>2026-04-19T15:22:02Z</time></trkpt><trkpt lat="42.89374675048491" lon="13.886091869448192"><ele>3.0</ele><time>2026-04-19T15:22:03Z</time></trkpt><trkpt lat="42.893490174505615" lon="13.88629789368971"><ele>3.0</ele><time>2026-04-19T15:22:04Z</time></trkpt><trkpt lat="42.893246238854864" lon="13.886513541067497"><ele>2.5</ele><time>2026-04-19T15:22:05Z</time></trkpt><trkpt lat="42.89299714190187" lon="13.886737165847393"><ele>2.0</ele><time>2026-04-19T15:22:06Z</time></trkpt><trkpt lat="42.89275302099947" lon="13.886968925563881"><ele>3.5</ele><time>2026-04-19T15:22:07Z</time></trkpt><trkpt lat="42.89251726154018" lon="13.887214152593907"><ele>5.0</ele><time>2026-04-19T15:22:08Z</time></trkpt><trkpt lat="42.89228957874489" lon="13.88746885347022"><ele>4.0</ele><time>2026-04-19T15:22:09Z</time></trkpt><trkpt lat="42.89206836849732" lon="13.887736118404396"><ele>3.0</ele><time>2026-04-19T15:22:10Z</time></trkpt><trkpt lat="42.8918523704273" lon="13.888012147460234"><ele>3.5</ele><time>2026-04-19T15:22:11Z</time></trkpt><trkpt lat="42.89164498364652" lon="13.888294905336537"><ele>4.0</ele><time>2026-04-19T15:22:12Z</time></trkpt><trkpt lat="42.891451140060354" lon="13.888590718759938"><ele>2.5</ele><time>2026-04-19T15:22:13Z</time></trkpt><trkpt lat="42.89125093331431" lon="13.888897274880843"><ele>1.0</ele><time>2026-04-19T15:22:14Z</time></trkpt><trkpt lat="42.89106154080011" lon="13.889213999554762"><ele>3.0</ele><time>2026-04-19T15:22:15Z</time></trkpt><trkpt lat="42.89088310162446" lon="13.889534951110027"><ele>5.0</ele><time>2026-04-19T15:22:16Z</time></trkpt><trkpt lat="42.89071622398082" lon="13.889859944482144"><ele>5.5</ele><time>2026-04-19T15:22:17Z</time></trkpt><trkpt lat="42.890564880363804" lon="13.890179754225251"><ele>6.0</ele><time>2026-04-19T15:22:18Z</time></trkpt><trkpt lat="42.89041983194449" lon="13.89048833198699"><ele>6.0</ele><time>2026-04-19T15:22:19Z</time></trkpt><trkpt lat="42.89027145860012" lon="13.890804169904682"><ele>6.0</ele><time>2026-04-19T15:22:20Z</time></trkpt><trkpt lat="42.89012171624797" lon="13.891115336598892"><ele>14.0</ele><time>2026-04-19T15:22:21Z</time></trkpt><trkpt lat="42.88998112466027" lon="13.891415229465137"><ele>22.0</ele><time>2026-04-19T15:22:22Z</time></trkpt><trkpt lat="42.88983850501438" lon="13.89170202182376"><ele>25.0</ele><time>2026-04-19T15:22:23Z</time></trkpt><trkpt lat="42.889694565803744" lon="13.891999222309245"><ele>28.0</ele><time>2026-04-19T15:22:24Z</time></trkpt><trkpt lat="42.88953977397925" lon="13.89232970004557"><ele>31.5</ele><time>2026-04-19T15:22:25Z</time></trkpt><trkpt lat="42.88937920151452" lon="13.892673675213109"><ele>35.0</ele><time>2026-04-19T15:22:26Z</time></trkpt><trkpt lat="42.889224633150604" lon="13.893006808765385"><ele>48.5</ele><time>2026-04-19T15:22:27Z</time></trkpt><trkpt lat="42.88909387019919" lon="13.893334437822201"><ele>62.0</ele><time>2026-04-19T15:22:28Z</time></trkpt><trkpt lat="42.888946073151466" lon="13.893662553028411"><ele>62.0</ele><time>2026-04-19T15:22:29Z</time></trkpt><trkpt lat="42.888807828213785" lon="13.89399374423521"><ele>62.0</ele><time>2026-04-19T15:22:30Z</time></trkpt><trkpt lat="42.888660196417256" lon="13.894319023285737"><ele>61.0</ele><time>2026-04-19T15:22:31Z</time></trkpt><trkpt lat="42.88850894666087" lon="13.894670125835919"><ele>60.0</ele><time>2026-04-19T15:22:32Z</time></trkpt><trkpt lat="42.8883273909389" lon="13.895030462688803"><ele>69.0</ele><time>2026-04-19T15:22:33.073Z</time></trkpt><trkpt lat="42.888181178209194" lon="13.895339514413996"><ele>78.0</ele><time>2026-04-19T15:22:34.065Z</time></trkpt><trkpt lat="42.88804104720435" lon="13.89563573404509"><ele>73.5</ele><time>2026-04-19T15:22:35.045Z</time></trkpt><trkpt lat="42.887888155731964" lon="13.895958243872679"><ele>69.0</ele><time>2026-04-19T15:22:36.035Z</time></trkpt><trkpt lat="42.88773185016666" lon="13.896287268583487"><ele>34.0</ele><time>2026-04-19T15:22:37.03Z</time></trkpt><trkpt lat="42.8869109" lon="13.8977051"><ele>23.0</ele><time>2026-04-19T15:22:40.49Z</time></trkpt><trkpt lat="42.88628554787148" lon="13.898562099570041"><ele>23.0</ele><time>2026-04-19T15:22:47Z</time></trkpt><trkpt lat="42.88609512209275" lon="13.898797133332158"><ele>23.0</ele><time>2026-04-19T15:22:48Z</time></trkpt><trkpt lat="42.88588830467612" lon="13.898988947126364"><ele>21.5</ele><time>2026-04-19T15:22:49Z</time></trkpt><trkpt lat="42.88571437446929" lon="13.899222328215965"><ele>20.0</ele><time>2026-04-19T15:22:50Z</time></trkpt><trkpt lat="42.885500641498695" lon="13.899421065817084"><ele>20.0</ele><time>2026-04-19T15:22:51Z</time></trkpt><trkpt lat="42.88527703062879" lon="13.899619996779833"><ele>20.0</ele><time>2026-04-19T15:22:52Z</time></trkpt><trkpt lat="42.88503907082415" lon="13.899799619690521"><ele>23.0</ele><time>2026-04-19T15:22:53Z</time></trkpt><trkpt lat="42.88479986903978" lon="13.899981093312801"><ele>26.0</ele><time>2026-04-19T15:22:54Z</time></trkpt><trkpt lat="42.88456711438617" lon="13.900159253662956"><ele>20.5</ele><time>2026-04-19T15:22:55Z</time></trkpt><trkpt lat="42.88433854704371" lon="13.900344052194066"><ele>15.0</ele><time>2026-04-19T15:22:56Z</time></trkpt><trkpt lat="42.884103980785895" lon="13.900530210497951"><ele>15.0</ele><time>2026-04-19T15:22:57Z</time></trkpt><trkpt lat="42.88388568803742" lon="13.900750275049198"><ele>15.0</ele><time>2026-04-19T15:22:58Z</time></trkpt><trkpt lat="42.88363337522661" lon="13.900923883561871"><ele>12.5</ele><time>2026-04-19T15:22:59Z</time></trkpt><trkpt lat="42.883381001157204" lon="13.901120098770592"><ele>10.0</ele><time>2026-04-19T15:23:00Z</time></trkpt><trkpt lat="42.883123321996905" lon="13.901323113086772"><ele>10.0</ele><time>2026-04-19T15:23:01Z</time></trkpt><trkpt lat="42.88286913819812" lon="13.901514144393998"><ele>10.0</ele><time>2026-04-19T15:23:02Z</time></trkpt><trkpt lat="42.88261484049271" lon="13.90171165562745"><ele>8.5</ele><time>2026-04-19T15:23:03Z</time></trkpt><trkpt lat="42.88236807313259" lon="13.901908040774266"><ele>7.0</ele><time>2026-04-19T15:23:04Z</time></trkpt><trkpt lat="42.88211520081304" lon="13.90209967412853"><ele>7.0</ele><time>2026-04-19T15:23:05Z</time></trkpt><trkpt lat="42.88186664614228" lon="13.902289966741376"><ele>7.0</ele><time>2026-04-19T15:23:06Z</time></trkpt><trkpt lat="42.88161772837941" lon="13.902474452212587"><ele>6.5</ele><time>2026-04-19T15:23:07Z</time></trkpt><trkpt lat="42.8813623329354" lon="13.90265480649796"><ele>6.0</ele><time>2026-04-19T15:23:08Z</time></trkpt><trkpt lat="42.881109696663785" lon="13.902824855796872"><ele>6.0</ele><time>2026-04-19T15:23:09Z</time></trkpt><trkpt lat="42.880847334818014" lon="13.9029826821773"><ele>6.0</ele><time>2026-04-19T15:23:10Z</time></trkpt><trkpt lat="42.88058606834068" lon="13.9031294106148"><ele>6.0</ele><time>2026-04-19T15:23:11Z</time></trkpt><trkpt lat="42.88032281488396" lon="13.903263602818399"><ele>6.0</ele><time>2026-04-19T15:23:12Z</time></trkpt><trkpt lat="42.88005358806334" lon="13.903391434889391"><ele>4.5</ele><time>2026-04-19T15:23:13Z</time></trkpt><trkpt lat="42.87978524851833" lon="13.903509512127492"><ele>3.0</ele><time>2026-04-19T15:23:14Z</time></trkpt><trkpt lat="42.87950986271926" lon="13.903613327358396"><ele>5.0</ele><time>2026-04-19T15:23:15Z</time></trkpt><trkpt lat="42.87923633644688" lon="13.903710278666026"><ele>7.0</ele><time>2026-04-19T15:23:16Z</time></trkpt><trkpt lat="42.8789578013941" lon="13.903800746799616"><ele>7.0</ele><time>2026-04-19T15:23:17Z</time></trkpt><trkpt lat="42.87868060636617" lon="13.903886536627738"><ele>7.0</ele><time>2026-04-19T15:23:18Z</time></trkpt><trkpt lat="42.87841137854397" lon="13.903973684735705"><ele>8.0</ele><time>2026-04-19T15:23:19Z</time></trkpt><trkpt lat="42.87812865552669" lon="13.904057476070022"><ele>9.0</ele><time>2026-04-19T15:23:20Z</time></trkpt><trkpt lat="42.87785070786914" lon="13.904144389382871"><ele>9.5</ele><time>2026-04-19T15:23:21Z</time></trkpt><trkpt lat="42.87757732585831" lon="13.904238691704942"><ele>10.0</ele><time>2026-04-19T15:23:22Z</time></trkpt><trkpt lat="42.87731798167967" lon="13.904332611006126"><ele>8.5</ele><time>2026-04-19T15:23:23Z</time></trkpt><trkpt lat="42.877067717030314" lon="13.904418906378694"><ele>7.0</ele><time>2026-04-19T15:23:24Z</time></trkpt><trkpt lat="42.87682082958916" lon="13.904504582838245"><ele>7.0</ele><time>2026-04-19T15:23:25Z</time></trkpt><trkpt lat="42.876574542774925" lon="13.904590592045373"><ele>7.0</ele><time>2026-04-19T15:23:26Z</time></trkpt><trkpt lat="42.876323216960714" lon="13.904680861440053"><ele>7.0</ele><time>2026-04-19T15:23:27Z</time></trkpt><trkpt lat="42.87607525154255" lon="13.904764243294908"><ele>7.0</ele><time>2026-04-19T15:23:28Z</time></trkpt><trkpt lat="42.8758270111812" lon="13.904847068335922"><ele>8.0</ele><time>2026-04-19T15:23:29Z</time></trkpt><trkpt lat="42.87557580710319" lon="13.904931564160593"><ele>9.0</ele><time>2026-04-19T15:23:30Z</time></trkpt><trkpt lat="42.875325438028874" lon="13.90501414183942"><ele>9.0</ele><time>2026-04-19T15:23:31Z</time></trkpt><trkpt lat="42.87508166865736" lon="13.905095070029992"><ele>9.0</ele><time>2026-04-19T15:23:32Z</time></trkpt><trkpt lat="42.874837891336206" lon="13.905179984133206"><ele>9.0</ele><time>2026-04-19T15:23:33Z</time></trkpt><trkpt lat="42.87459929562487" lon="13.905259867496499"><ele>9.0</ele><time>2026-04-19T15:23:34Z</time></trkpt><trkpt lat="42.87436081740451" lon="13.905343531392633"><ele>8.5</ele><time>2026-04-19T15:23:35Z</time></trkpt><trkpt lat="42.87411758193903" lon="13.905429873238061"><ele>8.0</ele><time>2026-04-19T15:23:36Z</time></trkpt><trkpt lat="42.873860435671695" lon="13.905528313671491"><ele>8.0</ele><time>2026-04-19T15:23:37Z</time></trkpt><trkpt lat="42.87359983586926" lon="13.905623169492012"><ele>8.0</ele><time>2026-04-19T15:23:38Z</time></trkpt><trkpt lat="42.87334029514663" lon="13.90571317047835"><ele>9.0</ele><time>2026-04-19T15:23:39Z</time></trkpt><trkpt lat="42.87308040429484" lon="13.90580344143193"><ele>10.0</ele><time>2026-04-19T15:23:40Z</time></trkpt><trkpt lat="42.87282659151298" lon="13.905889474796219"><ele>8.0</ele><time>2026-04-19T15:23:41Z</time></trkpt><trkpt lat="42.87257390290393" lon="13.905978413136248"><ele>6.0</ele><time>2026-04-19T15:23:42Z</time></trkpt><trkpt lat="42.87232258511493" lon="13.906064306338124"><ele>6.0</ele><time>2026-04-19T15:23:43Z</time></trkpt><trkpt lat="42.87206828536206" lon="13.906147962683042"><ele>6.0</ele><time>2026-04-19T15:23:44Z</time></trkpt><trkpt lat="42.87181463720748" lon="13.906227365906721"><ele>8.5</ele><time>2026-04-19T15:23:45Z</time></trkpt><trkpt lat="42.87155769431603" lon="13.906309336483574"><ele>11.0</ele><time>2026-04-19T15:23:46Z</time></trkpt><trkpt lat="42.87129332926101" lon="13.906394382957526"><ele>11.0</ele><time>2026-04-19T15:23:47Z</time></trkpt><trkpt lat="42.87105464758113" lon="13.906476208879027"><ele>11.0</ele><time>2026-04-19T15:23:48Z</time></trkpt><trkpt lat="42.870820718567714" lon="13.906562567519071"><ele>12.5</ele><time>2026-04-19T15:23:49Z</time></trkpt><trkpt lat="42.87054094165316" lon="13.90665437531048"><ele>14.0</ele><time>2026-04-19T15:23:50Z</time></trkpt><trkpt lat="42.87028566522224" lon="13.906737729965231"><ele>10.0</ele><time>2026-04-19T15:23:51Z</time></trkpt><trkpt lat="42.87002863801643" lon="13.906815273400897"><ele>6.0</ele><time>2026-04-19T15:23:52Z</time></trkpt><trkpt lat="42.86977223590878" lon="13.906887957928245"><ele>6.0</ele><time>2026-04-19T15:23:53Z</time></trkpt><trkpt lat="42.86951474688085" lon="13.906946992091266"><ele>6.0</ele><time>2026-04-19T15:23:54Z</time></trkpt><trkpt lat="42.86925293948482" lon="13.907000594622106"><ele>7.0</ele><time>2026-04-19T15:23:55Z</time></trkpt><trkpt lat="42.868992720623346" lon="13.907041564568194"><ele>8.0</ele><time>2026-04-19T15:23:56Z</time></trkpt><trkpt lat="42.86873048063831" lon="13.907079981245909"><ele>8.0</ele><time>2026-04-19T15:23:57Z</time></trkpt><trkpt lat="42.86847017226997" lon="13.907111153732922"><ele>8.0</ele><time>2026-04-19T15:23:58Z</time></trkpt><trkpt lat="42.8682077651797" lon="13.907137154949295"><ele>9.0</ele><time>2026-04-19T15:23:59Z</time></trkpt><trkpt lat="42.86794698651213" lon="13.907159462421536"><ele>10.0</ele><time>2026-04-19T15:24:00Z</time></trkpt><trkpt lat="42.86768435553416" lon="13.907170599921802"><ele>12.0</ele><time>2026-04-19T15:24:01Z</time></trkpt><trkpt lat="42.86741596177621" lon="13.907174435132168"><ele>14.0</ele><time>2026-04-19T15:24:02Z</time></trkpt><trkpt lat="42.867158483485234" lon="13.907174490892439"><ele>14.0</ele><time>2026-04-19T15:24:03Z</time></trkpt><trkpt lat="42.86689680740882" lon="13.907169895005435"><ele>14.0</ele><time>2026-04-19T15:24:04Z</time></trkpt><trkpt lat="42.866634701023486" lon="13.907168469383855"><ele>14.5</ele><time>2026-04-19T15:24:05Z</time></trkpt><trkpt lat="42.8663706554352" lon="13.90716080416194"><ele>15.0</ele><time>2026-04-19T15:24:06Z</time></trkpt><trkpt lat="42.86610859923975" lon="13.907154456952837"><ele>15.5</ele><time>2026-04-19T15:24:07Z</time></trkpt><trkpt lat="42.86584774402136" lon="13.907147515969172"><ele>16.0</ele><time>2026-04-19T15:24:08Z</time></trkpt><trkpt lat="42.865587494548095" lon="13.907143544254868"><ele>16.0</ele><time>2026-04-19T15:24:09Z</time></trkpt><trkpt lat="42.86532374849468" lon="13.907134893726742"><ele>16.0</ele><time>2026-04-19T15:24:10Z</time></trkpt><trkpt lat="42.86506152496216" lon="13.907128405511457"><ele>16.5</ele><time>2026-04-19T15:24:11Z</time></trkpt><trkpt lat="42.864800669589386" lon="13.907124507162681"><ele>17.0</ele><time>2026-04-19T15:24:12Z</time></trkpt><trkpt lat="42.86453339689387" lon="13.907125190255279"><ele>19.0</ele><time>2026-04-19T15:24:13Z</time></trkpt><trkpt lat="42.86425430975125" lon="13.907123261463322"><ele>21.0</ele><time>2026-04-19T15:24:14Z</time></trkpt><trkpt lat="42.86396335692669" lon="13.907119357676944"><ele>21.0</ele><time>2026-04-19T15:24:15Z</time></trkpt><trkpt lat="42.863672861425044" lon="13.907113857370822"><ele>21.0</ele><time>2026-04-19T15:24:16Z</time></trkpt><trkpt lat="42.863377228445245" lon="13.907108588071726"><ele>21.0</ele><time>2026-04-19T15:24:17Z</time></trkpt><trkpt lat="42.86307870174739" lon="13.90710232209772"><ele>21.0</ele><time>2026-04-19T15:24:18Z</time></trkpt><trkpt lat="42.862790066310666" lon="13.907093226262191"><ele>23.5</ele><time>2026-04-19T15:24:19Z</time></trkpt><trkpt lat="42.862497424008325" lon="13.907085156778944"><ele>26.0</ele><time>2026-04-19T15:24:20Z</time></trkpt><trkpt lat="42.86219860650462" lon="13.907082248622148"><ele>26.0</ele><time>2026-04-19T15:24:21Z</time></trkpt><trkpt lat="42.86189490169549" lon="13.907079800119126"><ele>26.0</ele><time>2026-04-19T15:24:22Z</time></trkpt><trkpt lat="42.86157842202745" lon="13.907084058103136"><ele>29.5</ele><time>2026-04-19T15:24:23Z</time></trkpt><trkpt lat="42.86124758476814" lon="13.90709411357272"><ele>33.0</ele><time>2026-04-19T15:24:24Z</time></trkpt><trkpt lat="42.86091462319029" lon="13.907106088024468"><ele>36.0</ele><time>2026-04-19T15:24:25Z</time></trkpt><trkpt lat="42.860583084207995" lon="13.907121295695102"><ele>39.0</ele><time>2026-04-19T15:24:26Z</time></trkpt><trkpt lat="42.86025610789751" lon="13.907144526872818"><ele>42.0</ele><time>2026-04-19T15:24:27Z</time></trkpt><trkpt lat="42.85993070202658" lon="13.907174740351504"><ele>45.0</ele><time>2026-04-19T15:24:28Z</time></trkpt><trkpt lat="42.85960922606185" lon="13.907209167334655"><ele>45.0</ele><time>2026-04-19T15:24:29Z</time></trkpt><trkpt lat="42.85929350031691" lon="13.907249784287176"><ele>45.0</ele><time>2026-04-19T15:24:30Z</time></trkpt><trkpt lat="42.85898868370585" lon="13.90728974176773"><ele>47.5</ele><time>2026-04-19T15:24:31Z</time></trkpt><trkpt lat="42.85868758616128" lon="13.907333691126613"><ele>50.0</ele><time>2026-04-19T15:24:32Z</time></trkpt><trkpt lat="42.85840449745362" lon="13.907374990809815"><ele>54.0</ele><time>2026-04-19T15:24:33Z</time></trkpt><trkpt lat="42.85813655952701" lon="13.90740565169751"><ele>58.0</ele><time>2026-04-19T15:24:34Z</time></trkpt><trkpt lat="42.85785989144278" lon="13.907438372619426"><ele>60.0</ele><time>2026-04-19T15:24:35Z</time></trkpt><trkpt lat="42.85757815013603" lon="13.907471464099656"><ele>62.0</ele><time>2026-04-19T15:24:36Z</time></trkpt><trkpt lat="42.85729754639738" lon="13.907497173314226"><ele>62.0</ele><time>2026-04-19T15:24:37Z</time></trkpt><trkpt lat="42.85702157839791" lon="13.907510486146364"><ele>62.0</ele><time>2026-04-19T15:24:38Z</time></trkpt><trkpt lat="42.856746991035294" lon="13.907510683003855"><ele>64.5</ele><time>2026-04-19T15:24:39Z</time></trkpt><trkpt lat="42.856472169037495" lon="13.907500657283927"><ele>67.0</ele><time>2026-04-19T15:24:40Z</time></trkpt><trkpt lat="42.85619695798988" lon="13.907478278449858"><ele>67.5</ele><time>2026-04-19T15:24:41Z</time></trkpt><trkpt lat="42.855916743923004" lon="13.907441115343955"><ele>68.0</ele><time>2026-04-19T15:24:42Z</time></trkpt><trkpt lat="42.8556311699427" lon="13.907395509796789"><ele>68.0</ele><time>2026-04-19T15:24:43Z</time></trkpt><trkpt lat="42.85534942102826" lon="13.907334198095427"><ele>68.0</ele><time>2026-04-19T15:24:44Z</time></trkpt><trkpt lat="42.855049497890704" lon="13.907249985324066"><ele>67.5</ele><time>2026-04-19T15:24:45Z</time></trkpt><trkpt lat="42.85473175111561" lon="13.907153309339051"><ele>67.0</ele><time>2026-04-19T15:24:46Z</time></trkpt><trkpt lat="42.854401689398195" lon="13.90703123394356"><ele>71.0</ele><time>2026-04-19T15:24:47Z</time></trkpt><trkpt lat="42.85407369148836" lon="13.906892859587762"><ele>75.0</ele><time>2026-04-19T15:24:48Z</time></trkpt><trkpt lat="42.85375963394493" lon="13.906755359018506"><ele>78.5</ele><time>2026-04-19T15:24:49Z</time></trkpt><trkpt lat="42.853457164144075" lon="13.906614705861804"><ele>82.0</ele><time>2026-04-19T15:24:50Z</time></trkpt><trkpt lat="42.85315084975885" lon="13.906479726747067"><ele>82.0</ele><time>2026-04-19T15:24:51Z</time></trkpt><trkpt lat="42.85284435206037" lon="13.906341073423716"><ele>82.0</ele><time>2026-04-19T15:24:52Z</time></trkpt><trkpt lat="42.85253687554957" lon="13.906205646878846"><ele>79.5</ele><time>2026-04-19T15:24:53Z</time></trkpt><trkpt lat="42.8522244288036" lon="13.90606075742726"><ele>77.0</ele><time>2026-04-19T15:24:54Z</time></trkpt><trkpt lat="42.851917270914086" lon="13.905924415919936"><ele>75.0</ele><time>2026-04-19T15:24:55Z</time></trkpt><trkpt lat="42.85160497493742" lon="13.905791332524513"><ele>73.0</ele><time>2026-04-19T15:24:56Z</time></trkpt><trkpt lat="42.851289469694" lon="13.905658414832219"><ele>73.0</ele><time>2026-04-19T15:24:57Z</time></trkpt><trkpt lat="42.85098132662148" lon="13.905530846660781"><ele>73.0</ele><time>2026-04-19T15:24:58Z</time></trkpt><trkpt lat="42.85066979144612" lon="13.905399284865217"><ele>71.5</ele><time>2026-04-19T15:24:59Z</time></trkpt><trkpt lat="42.850355916817485" lon="13.905263492917788"><ele>70.0</ele><time>2026-04-19T15:25:00Z</time></trkpt><trkpt lat="42.850046607161666" lon="13.90513032754066"><ele>72.5</ele><time>2026-04-19T15:25:01Z</time></trkpt><trkpt lat="42.84973548049745" lon="13.904997434546507"><ele>75.0</ele><time>2026-04-19T15:25:02Z</time></trkpt><trkpt lat="42.84942692713562" lon="13.904860892282844"><ele>74.0</ele><time>2026-04-19T15:25:03Z</time></trkpt><trkpt lat="42.84911275140111" lon="13.904722035169062"><ele>73.0</ele><time>2026-04-19T15:25:04Z</time></trkpt><trkpt lat="42.848804967608686" lon="13.904587112135221"><ele>73.0</ele><time>2026-04-19T15:25:05Z</time></trkpt><trkpt lat="42.848494492450726" lon="13.90445021666769"><ele>73.0</ele><time>2026-04-19T15:25:06Z</time></trkpt><trkpt lat="42.84818143190832" lon="13.904315534960794"><ele>76.0</ele><time>2026-04-19T15:25:07Z</time></trkpt><trkpt lat="42.84787252151771" lon="13.904184012984059"><ele>79.0</ele><time>2026-04-19T15:25:08Z</time></trkpt><trkpt lat="42.8475587010806" lon="13.904052268313828"><ele>79.0</ele><time>2026-04-19T15:25:09Z</time></trkpt><trkpt lat="42.847248279070875" lon="13.903917576137895"><ele>79.0</ele><time>2026-04-19T15:25:10Z</time></trkpt><trkpt lat="42.84693522138789" lon="13.903779245489792"><ele>76.5</ele><time>2026-04-19T15:25:11Z</time></trkpt><trkpt lat="42.84662816325545" lon="13.903645378120483"><ele>74.0</ele><time>2026-04-19T15:25:12Z</time></trkpt><trkpt lat="42.846316785365715" lon="13.903506378431285"><ele>73.5</ele><time>2026-04-19T15:25:13Z</time></trkpt><trkpt lat="42.846007005741555" lon="13.903375103985027"><ele>73.0</ele><time>2026-04-19T15:25:14Z</time></trkpt><trkpt lat="42.84569743772663" lon="13.903250652521969"><ele>69.0</ele><time>2026-04-19T15:25:15Z</time></trkpt><trkpt lat="42.84538436350516" lon="13.903133466988766"><ele>65.0</ele><time>2026-04-19T15:25:16Z</time></trkpt><trkpt lat="42.84506856759149" lon="13.903028554229497"><ele>62.0</ele><time>2026-04-19T15:25:17Z</time></trkpt><trkpt lat="42.84474952749169" lon="13.902947592686296"><ele>59.0</ele><time>2026-04-19T15:25:18Z</time></trkpt><trkpt lat="42.84442737351468" lon="13.902879720370382"><ele>56.5</ele><time>2026-04-19T15:25:19Z</time></trkpt><trkpt lat="42.84410273715282" lon="13.902826957736943"><ele>54.0</ele><time>2026-04-19T15:25:20Z</time></trkpt><trkpt lat="42.843780127177546" lon="13.90278665608631"><ele>52.5</ele><time>2026-04-19T15:25:21Z</time></trkpt><trkpt lat="42.84345356181628" lon="13.902760643020226"><ele>51.0</ele><time>2026-04-19T15:25:22Z</time></trkpt><trkpt lat="42.843129891371944" lon="13.902751184208492"><ele>51.0</ele><time>2026-04-19T15:25:23Z</time></trkpt><trkpt lat="42.84280507727384" lon="13.902756959456546"><ele>51.0</ele><time>2026-04-19T15:25:24Z</time></trkpt><trkpt lat="42.842480317986464" lon="13.902777200390823"><ele>48.5</ele><time>2026-04-19T15:25:25Z</time></trkpt><trkpt lat="42.84215272442257" lon="13.902810088310039"><ele>46.0</ele><time>2026-04-19T15:25:26Z</time></trkpt><trkpt lat="42.84182895202669" lon="13.902847652140405"><ele>43.5</ele><time>2026-04-19T15:25:27Z</time></trkpt><trkpt lat="42.84150618614606" lon="13.902884685916533"><ele>41.0</ele><time>2026-04-19T15:25:28Z</time></trkpt><trkpt lat="42.841176722002224" lon="13.902916988133974"><ele>40.0</ele><time>2026-04-19T15:25:29Z</time></trkpt><trkpt lat="42.84085838073918" lon="13.902954081985442"><ele>39.0</ele><time>2026-04-19T15:25:30Z</time></trkpt><trkpt lat="42.840532884437785" lon="13.902991385583745"><ele>39.0</ele><time>2026-04-19T15:25:31Z</time></trkpt><trkpt lat="42.84020823256529" lon="13.903030367226433"><ele>39.0</ele><time>2026-04-19T15:25:32Z</time></trkpt><trkpt lat="42.83988465263102" lon="13.903065703824788"><ele>38.0</ele><time>2026-04-19T15:25:33Z</time></trkpt><trkpt lat="42.83955832246292" lon="13.903097147336235"><ele>37.0</ele><time>2026-04-19T15:25:34Z</time></trkpt><trkpt lat="42.83923497123703" lon="13.903132158367885"><ele>36.0</ele><time>2026-04-19T15:25:35Z</time></trkpt><trkpt lat="42.83891056829451" lon="13.903169641859838"><ele>35.0</ele><time>2026-04-19T15:25:36Z</time></trkpt><trkpt lat="42.83858893503062" lon="13.903217234103908"><ele>34.0</ele><time>2026-04-19T15:25:37Z</time></trkpt><trkpt lat="42.838267064431214" lon="13.903280682578405"><ele>33.0</ele><time>2026-04-19T15:25:38Z</time></trkpt><trkpt lat="42.83795031864978" lon="13.903365732924058"><ele>33.0</ele><time>2026-04-19T15:25:39Z</time></trkpt><trkpt lat="42.83763118542272" lon="13.903462675583805"><ele>33.0</ele><time>2026-04-19T15:25:40Z</time></trkpt><trkpt lat="42.83731926351167" lon="13.903575487570384"><ele>33.0</ele><time>2026-04-19T15:25:41Z</time></trkpt><trkpt lat="42.83700440459656" lon="13.903698384403198"><ele>33.0</ele><time>2026-04-19T15:25:42Z</time></trkpt><trkpt lat="42.8366980716433" lon="13.903839171558054"><ele>31.5</ele><time>2026-04-19T15:25:43Z</time></trkpt><trkpt lat="42.83639105329401" lon="13.903997911053075"><ele>30.0</ele><time>2026-04-19T15:25:44Z</time></trkpt><trkpt lat="42.836094647208995" lon="13.904171038988286"><ele>29.5</ele><time>2026-04-19T15:25:45Z</time></trkpt><trkpt lat="42.83580089723805" lon="13.904359844609388"><ele>29.0</ele><time>2026-04-19T15:25:46Z</time></trkpt><trkpt lat="42.835510606248484" lon="13.904557874918824"><ele>29.0</ele><time>2026-04-19T15:25:47Z</time></trkpt><trkpt lat="42.835214892908965" lon="13.904757215484894"><ele>29.0</ele><time>2026-04-19T15:25:48.001Z</time></trkpt><trkpt lat="42.83492371544128" lon="13.904953107050602"><ele>25.0</ele><time>2026-04-19T15:25:49Z</time></trkpt><trkpt lat="42.83463433006096" lon="13.905151778051355"><ele>21.0</ele><time>2026-04-19T15:25:50Z</time></trkpt><trkpt lat="42.834344598020536" lon="13.905352391433867"><ele>19.5</ele><time>2026-04-19T15:25:51Z</time></trkpt><trkpt lat="42.83405466856676" lon="13.905559805856731"><ele>18.0</ele><time>2026-04-19T15:25:52Z</time></trkpt><trkpt lat="42.83376649882849" lon="13.905756283265719"><ele>16.5</ele><time>2026-04-19T15:25:53Z</time></trkpt><trkpt lat="42.83347242903085" lon="13.905949584646136"><ele>15.0</ele><time>2026-04-19T15:25:54Z</time></trkpt><trkpt lat="42.83317644577318" lon="13.906137966244772"><ele>14.5</ele><time>2026-04-19T15:25:55Z</time></trkpt><trkpt lat="42.83287934827297" lon="13.906318520377813"><ele>14.0</ele><time>2026-04-19T15:25:56Z</time></trkpt><trkpt lat="42.83258320275267" lon="13.90649181573278"><ele>14.0</ele><time>2026-04-19T15:25:57Z</time></trkpt><trkpt lat="42.83228546968185" lon="13.906663505928467"><ele>14.0</ele><time>2026-04-19T15:25:58Z</time></trkpt><trkpt lat="42.831987904338064" lon="13.90683359665404"><ele>13.5</ele><time>2026-04-19T15:25:59Z</time></trkpt><trkpt lat="42.83168494243012" lon="13.906998676919375"><ele>13.0</ele><time>2026-04-19T15:26:00Z</time></trkpt><trkpt lat="42.83138170044468" lon="13.907156796109449"><ele>13.0</ele><time>2026-04-19T15:26:01Z</time></trkpt><trkpt lat="42.83108726410471" lon="13.907302394264118"><ele>13.0</ele><time>2026-04-19T15:26:02Z</time></trkpt><trkpt lat="42.830773528116374" lon="13.907458821124735"><ele>13.5</ele><time>2026-04-19T15:26:03Z</time></trkpt><trkpt lat="42.83046683792129" lon="13.907609561418761"><ele>14.0</ele><time>2026-04-19T15:26:04Z</time></trkpt><trkpt lat="42.83016051922102" lon="13.907759919940464"><ele>14.0</ele><time>2026-04-19T15:26:05Z</time></trkpt><trkpt lat="42.829857267947546" lon="13.907910941169384"><ele>14.0</ele><time>2026-04-19T15:26:06Z</time></trkpt><trkpt lat="42.829552569016535" lon="13.90806403005331"><ele>15.5</ele><time>2026-04-19T15:26:07Z</time></trkpt><trkpt lat="42.82924984099836" lon="13.908217550836351"><ele>17.0</ele><time>2026-04-19T15:26:08Z</time></trkpt><trkpt lat="42.82894412392724" lon="13.90836803341524"><ele>16.5</ele><time>2026-04-19T15:26:09Z</time></trkpt><trkpt lat="42.82863778033636" lon="13.908516266363279"><ele>16.0</ele><time>2026-04-19T15:26:10Z</time></trkpt><trkpt lat="42.828329975602244" lon="13.908663190753813"><ele>17.0</ele><time>2026-04-19T15:26:11Z</time></trkpt><trkpt lat="42.82802539548392" lon="13.908810182154161"><ele>18.0</ele><time>2026-04-19T15:26:12Z</time></trkpt><trkpt lat="42.82771901257059" lon="13.908960040684274"><ele>18.5</ele><time>2026-04-19T15:26:13Z</time></trkpt><trkpt lat="42.827415632360534" lon="13.909110204007252"><ele>19.0</ele><time>2026-04-19T15:26:14Z</time></trkpt><trkpt lat="42.827110955080286" lon="13.909264223502413"><ele>21.0</ele><time>2026-04-19T15:26:15Z</time></trkpt><trkpt lat="42.82680938406165" lon="13.909416670541065"><ele>23.0</ele><time>2026-04-19T15:26:16Z</time></trkpt><trkpt lat="42.826503571116326" lon="13.909570638378115"><ele>23.0</ele><time>2026-04-19T15:26:17Z</time></trkpt><trkpt lat="42.826197392588504" lon="13.909722383677892"><ele>23.0</ele><time>2026-04-19T15:26:18Z</time></trkpt><trkpt lat="42.82588940732746" lon="13.909878217447199"><ele>24.0</ele><time>2026-04-19T15:26:19Z</time></trkpt><trkpt lat="42.825588493587254" lon="13.910027577695297"><ele>25.0</ele><time>2026-04-19T15:26:20Z</time></trkpt><trkpt lat="42.82528377258974" lon="13.91018164595976"><ele>26.0</ele><time>2026-04-19T15:26:21Z</time></trkpt><trkpt lat="42.824979905314024" lon="13.910342345611582"><ele>27.0</ele><time>2026-04-19T15:26:22Z</time></trkpt><trkpt lat="42.82468070563773" lon="13.910511288227394"><ele>27.0</ele><time>2026-04-19T15:26:23Z</time></trkpt><trkpt lat="42.824390886572886" lon="13.910703695441068"><ele>27.0</ele><time>2026-04-19T15:26:24Z</time></trkpt><trkpt lat="42.824111306811076" lon="13.91091942419006"><ele>27.0</ele><time>2026-04-19T15:26:25Z</time></trkpt><trkpt lat="42.82383665947825" lon="13.911157952361945"><ele>27.0</ele><time>2026-04-19T15:26:26Z</time></trkpt><trkpt lat="42.82357091205996" lon="13.911413276805513"><ele>30.0</ele><time>2026-04-19T15:26:27Z</time></trkpt><trkpt lat="42.82331726972106" lon="13.911684475511372"><ele>33.0</ele><time>2026-04-19T15:26:28Z</time></trkpt><trkpt lat="42.823075118570124" lon="13.911973905709887"><ele>33.0</ele><time>2026-04-19T15:26:29Z</time></trkpt><trkpt lat="42.82284252925902" lon="13.912281031104827"><ele>33.0</ele><time>2026-04-19T15:26:30Z</time></trkpt><trkpt lat="42.8226216744791" lon="13.912604625017398"><ele>35.5</ele><time>2026-04-19T15:26:31Z</time></trkpt><trkpt lat="42.82241124631159" lon="13.912942248004276"><ele>38.0</ele><time>2026-04-19T15:26:32Z</time></trkpt><trkpt lat="42.82221096477004" lon="13.913291782429699"><ele>38.0</ele><time>2026-04-19T15:26:33Z</time></trkpt><trkpt lat="42.822016537851425" lon="13.91364507559779"><ele>38.0</ele><time>2026-04-19T15:26:34Z</time></trkpt><trkpt lat="42.82182429007495" lon="13.91399838649038"><ele>40.5</ele><time>2026-04-19T15:26:35Z</time></trkpt><trkpt lat="42.82163154001926" lon="13.914347364682708"><ele>43.0</ele><time>2026-04-19T15:26:36Z</time></trkpt><trkpt lat="42.821434673692295" lon="13.914701404280233"><ele>43.0</ele><time>2026-04-19T15:26:37Z</time></trkpt><trkpt lat="42.821239800763934" lon="13.915051928654472"><ele>43.0</ele><time>2026-04-19T15:26:38Z</time></trkpt><trkpt lat="42.82104770865757" lon="13.915404163604736"><ele>46.5</ele><time>2026-04-19T15:26:39Z</time></trkpt><trkpt lat="42.82085958926671" lon="13.915753240175432"><ele>50.0</ele><time>2026-04-19T15:26:40Z</time></trkpt><trkpt lat="42.820663930717" lon="13.916107751290106"><ele>50.0</ele><time>2026-04-19T15:26:41Z</time></trkpt><trkpt lat="42.820463176638825" lon="13.916463355452303"><ele>50.0</ele><time>2026-04-19T15:26:42Z</time></trkpt><trkpt lat="42.82024177408531" lon="13.916831127987278"><ele>54.5</ele><time>2026-04-19T15:26:43Z</time></trkpt><trkpt lat="42.820053120103026" lon="13.917165388102715"><ele>59.0</ele><time>2026-04-19T15:26:44Z</time></trkpt><trkpt lat="42.81986708492756" lon="13.917514100896637"><ele>62.0</ele><time>2026-04-19T15:26:45Z</time></trkpt><trkpt lat="42.81967134359416" lon="13.917864928913119"><ele>65.0</ele><time>2026-04-19T15:26:46Z</time></trkpt><trkpt lat="42.81947462130102" lon="13.918212697737676"><ele>69.0</ele><time>2026-04-19T15:26:47Z</time></trkpt><trkpt lat="42.81927703544091" lon="13.918564436696256"><ele>73.0</ele><time>2026-04-19T15:26:48Z</time></trkpt><trkpt lat="42.819081967305806" lon="13.918916800134856"><ele>77.0</ele><time>2026-04-19T15:26:49Z</time></trkpt><trkpt lat="42.818886979276485" lon="13.91926330588089"><ele>81.0</ele><time>2026-04-19T15:26:50Z</time></trkpt><trkpt lat="42.818690476999585" lon="13.919614741127083"><ele>81.0</ele><time>2026-04-19T15:26:51Z</time></trkpt><trkpt lat="42.81849625343411" lon="13.919968800262282"><ele>81.0</ele><time>2026-04-19T15:26:52Z</time></trkpt><trkpt lat="42.818304492368036" lon="13.920320965823404"><ele>83.5</ele><time>2026-04-19T15:26:53Z</time></trkpt><trkpt lat="42.818114425232054" lon="13.920677773688157"><ele>86.0</ele><time>2026-04-19T15:26:54Z</time></trkpt><trkpt lat="42.81792307007603" lon="13.92103283650233"><ele>86.0</ele><time>2026-04-19T15:26:55Z</time></trkpt><trkpt lat="42.81772821210145" lon="13.921386745736795"><ele>86.0</ele><time>2026-04-19T15:26:56Z</time></trkpt><trkpt lat="42.81752832751671" lon="13.92173475381802"><ele>80.0</ele><time>2026-04-19T15:26:57Z</time></trkpt><trkpt lat="42.817329440617534" lon="13.922081459275802"><ele>74.0</ele><time>2026-04-19T15:26:58Z</time></trkpt><trkpt lat="42.817128699356104" lon="13.922426585490243"><ele>74.5</ele><time>2026-04-19T15:26:59Z</time></trkpt><trkpt lat="42.81691869315376" lon="13.922764767320103"><ele>75.0</ele><time>2026-04-19T15:27:00Z</time></trkpt><trkpt lat="42.8166944608883" lon="13.92308540046144"><ele>75.0</ele><time>2026-04-19T15:27:01Z</time></trkpt><trkpt lat="42.8164611443894" lon="13.923385703381683"><ele>75.0</ele><time>2026-04-19T15:27:02Z</time></trkpt><trkpt lat="42.81621432325848" lon="13.923670399078334"><ele>72.5</ele><time>2026-04-19T15:27:03Z</time></trkpt><trkpt lat="42.81595270948851" lon="13.92393731519752"><ele>70.0</ele><time>2026-04-19T15:27:04Z</time></trkpt><trkpt lat="42.81568594188819" lon="13.924186314051685"><ele>69.5</ele><time>2026-04-19T15:27:05Z</time></trkpt><trkpt lat="42.81540807737734" lon="13.924426104785354"><ele>69.0</ele><time>2026-04-19T15:27:06Z</time></trkpt><trkpt lat="42.81512417350499" lon="13.924639717070662"><ele>69.0</ele><time>2026-04-19T15:27:07Z</time></trkpt><trkpt lat="42.814832454777644" lon="13.924828345403343"><ele>69.0</ele><time>2026-04-19T15:27:08Z</time></trkpt><trkpt lat="42.81453279499844" lon="13.92499586437103"><ele>67.5</ele><time>2026-04-19T15:27:09Z</time></trkpt><trkpt lat="42.81422418501499" lon="13.925143219869634"><ele>66.0</ele><time>2026-04-19T15:27:10Z</time></trkpt><trkpt lat="42.81391284330369" lon="13.925272557335107"><ele>66.0</ele><time>2026-04-19T15:27:11Z</time></trkpt><trkpt lat="42.8135972429068" lon="13.925384535304381"><ele>66.0</ele><time>2026-04-19T15:27:12Z</time></trkpt><trkpt lat="42.81327994245723" lon="13.92547343317565"><ele>63.5</ele><time>2026-04-19T15:27:13Z</time></trkpt><trkpt lat="42.812960816856155" lon="13.92554092155969"><ele>61.0</ele><time>2026-04-19T15:27:14Z</time></trkpt><trkpt lat="42.81263558286138" lon="13.925592820578483"><ele>60.0</ele><time>2026-04-19T15:27:15Z</time></trkpt><trkpt lat="42.81231149353667" lon="13.925641148932192"><ele>59.0</ele><time>2026-04-19T15:27:16Z</time></trkpt><trkpt lat="42.81198741139288" lon="13.925687316361827"><ele>61.0</ele><time>2026-04-19T15:27:17Z</time></trkpt><trkpt lat="42.81166358063561" lon="13.925737197825596"><ele>63.0</ele><time>2026-04-19T15:27:18Z</time></trkpt><trkpt lat="42.81133932482411" lon="13.925785959115816"><ele>63.0</ele><time>2026-04-19T15:27:19Z</time></trkpt><trkpt lat="42.81101598006584" lon="13.925834328030357"><ele>63.0</ele><time>2026-04-19T15:27:20Z</time></trkpt><trkpt lat="42.810693308476665" lon="13.925882926828272"><ele>58.0</ele><time>2026-04-19T15:27:21Z</time></trkpt><trkpt lat="42.81036865822086" lon="13.92593556281792"><ele>53.0</ele><time>2026-04-19T15:27:22Z</time></trkpt><trkpt lat="42.810046004422986" lon="13.925986600698113"><ele>53.0</ele><time>2026-04-19T15:27:23Z</time></trkpt><trkpt lat="42.80972417773167" lon="13.926039306064254"><ele>53.0</ele><time>2026-04-19T15:27:24Z</time></trkpt><trkpt lat="42.80940054741574" lon="13.926093180257078"><ele>53.0</ele><time>2026-04-19T15:27:25Z</time></trkpt><trkpt lat="42.80907533889637" lon="13.926150002299101"><ele>53.0</ele><time>2026-04-19T15:27:26Z</time></trkpt><trkpt lat="42.80875512860379" lon="13.926213265558129"><ele>51.5</ele><time>2026-04-19T15:27:27Z</time></trkpt><trkpt lat="42.8084351782306" lon="13.926286462773785"><ele>50.0</ele><time>2026-04-19T15:27:28Z</time></trkpt><trkpt lat="42.808116836186656" lon="13.926380183937601"><ele>50.0</ele><time>2026-04-19T15:27:29Z</time></trkpt><trkpt lat="42.80780032938237" lon="13.926497881966093"><ele>50.0</ele><time>2026-04-19T15:27:30Z</time></trkpt><trkpt lat="42.8074902470482" lon="13.92663054078659"><ele>45.5</ele><time>2026-04-19T15:27:31Z</time></trkpt><trkpt lat="42.80718160482542" lon="13.926770975312651"><ele>41.0</ele><time>2026-04-19T15:27:32Z</time></trkpt><trkpt lat="42.80687864983415" lon="13.926925877371389"><ele>42.5</ele><time>2026-04-19T15:27:33Z</time></trkpt><trkpt lat="42.806577086296436" lon="13.92709658186556"><ele>44.0</ele><time>2026-04-19T15:27:34Z</time></trkpt><trkpt lat="42.806284778911646" lon="13.927278724334263"><ele>43.0</ele><time>2026-04-19T15:27:35Z</time></trkpt><trkpt lat="42.80598752309735" lon="13.927465551986552"><ele>42.0</ele><time>2026-04-19T15:27:36Z</time></trkpt><trkpt lat="42.8056882477329" lon="13.927646243276875"><ele>42.0</ele><time>2026-04-19T15:27:37Z</time></trkpt><trkpt lat="42.805388858022944" lon="13.927813516550746"><ele>42.0</ele><time>2026-04-19T15:27:38Z</time></trkpt><trkpt lat="42.80508292927571" lon="13.9279726812949"><ele>47.5</ele><time>2026-04-19T15:27:39Z</time></trkpt><trkpt lat="42.80477597574622" lon="13.928107424574458"><ele>53.0</ele><time>2026-04-19T15:27:40Z</time></trkpt><trkpt lat="42.80446425503392" lon="13.928218616060123"><ele>55.5</ele><time>2026-04-19T15:27:41Z</time></trkpt><trkpt lat="42.80414418682327" lon="13.928305617590782"><ele>58.0</ele><time>2026-04-19T15:27:42Z</time></trkpt><trkpt lat="42.8038244386302" lon="13.928374472317016"><ele>55.5</ele><time>2026-04-19T15:27:43Z</time></trkpt><trkpt lat="42.803515331032656" lon="13.928427065886158"><ele>53.0</ele><time>2026-04-19T15:27:44Z</time></trkpt><trkpt lat="42.8032147541909" lon="13.928456003105602"><ele>53.0</ele><time>2026-04-19T15:27:45Z</time></trkpt><trkpt lat="42.802891271864596" lon="13.928467689930804"><ele>53.0</ele><time>2026-04-19T15:27:46Z</time></trkpt><trkpt lat="42.80254529161826" lon="13.928474445035295"><ele>54.5</ele><time>2026-04-19T15:27:47Z</time></trkpt><trkpt lat="42.80218545874259" lon="13.92847993000298"><ele>56.0</ele><time>2026-04-19T15:27:48Z</time></trkpt><trkpt lat="42.80181665324283" lon="13.928496916383319"><ele>60.5</ele><time>2026-04-19T15:27:49Z</time></trkpt><trkpt lat="42.801433406556455" lon="13.928512625841142"><ele>65.0</ele><time>2026-04-19T15:27:50Z</time></trkpt><trkpt lat="42.80104718535514" lon="13.928526231887469"><ele>66.5</ele><time>2026-04-19T15:27:51Z</time></trkpt><trkpt lat="42.800655376785016" lon="13.92854546554935"><ele>68.0</ele><time>2026-04-19T15:27:52.001Z</time></trkpt><trkpt lat="42.80027492925976" lon="13.92857732256758"><ele>66.5</ele><time>2026-04-19T15:27:53.001Z</time></trkpt><trkpt lat="42.79989746121643" lon="13.928642123584375"><ele>65.0</ele><time>2026-04-19T15:27:54.001Z</time></trkpt><trkpt lat="42.79952252918757" lon="13.928739396246058"><ele>67.5</ele><time>2026-04-19T15:27:55.001Z</time></trkpt><trkpt lat="42.799151691235785" lon="13.928872312052961"><ele>70.0</ele><time>2026-04-19T15:27:56.001Z</time></trkpt><trkpt lat="42.79878527712593" lon="13.929030634524818"><ele>70.0</ele><time>2026-04-19T15:27:57.001Z</time></trkpt><trkpt lat="42.79846139425371" lon="13.929210368188839"><ele>70.0</ele><time>2026-04-19T15:27:58.001Z</time></trkpt><trkpt lat="42.79814867715027" lon="13.929416132722942"><ele>70.0</ele><time>2026-04-19T15:27:59.001Z</time></trkpt><trkpt lat="42.79781775697328" lon="13.92964990278612"><ele>70.0</ele><time>2026-04-19T15:28:00Z</time></trkpt><trkpt lat="42.797492869247584" lon="13.929913856605364"><ele>72.0</ele><time>2026-04-19T15:28:01Z</time></trkpt><trkpt lat="42.797170940601625" lon="13.93020740591916"><ele>74.0</ele><time>2026-04-19T15:28:02Z</time></trkpt><trkpt lat="42.79686743828008" lon="13.930527999421352"><ele>74.5</ele><time>2026-04-19T15:28:03Z</time></trkpt><trkpt lat="42.796581118184385" lon="13.930875734827723"><ele>75.0</ele><time>2026-04-19T15:28:04Z</time></trkpt><trkpt lat="42.79629815531008" lon="13.93124953344168"><ele>75.0</ele><time>2026-04-19T15:28:05Z</time></trkpt><trkpt lat="42.79602113973911" lon="13.93163274261234"><ele>75.0</ele><time>2026-04-19T15:28:06Z</time></trkpt><trkpt lat="42.795761958203684" lon="13.932005963515195"><ele>77.5</ele><time>2026-04-19T15:28:07Z</time></trkpt><trkpt lat="42.795515819466914" lon="13.932356956807078"><ele>80.0</ele><time>2026-04-19T15:28:08Z</time></trkpt><trkpt lat="42.795275738623374" lon="13.9326643986241"><ele>80.5</ele><time>2026-04-19T15:28:09Z</time></trkpt><trkpt lat="42.79501496666254" lon="13.932945877056635"><ele>81.0</ele><time>2026-04-19T15:28:10Z</time></trkpt><trkpt lat="42.79472903130761" lon="13.933196757548243"><ele>80.0</ele><time>2026-04-19T15:28:11Z</time></trkpt><trkpt lat="42.79441220409734" lon="13.933424827910013"><ele>79.0</ele><time>2026-04-19T15:28:12Z</time></trkpt><trkpt lat="42.79407404004038" lon="13.93362091180267"><ele>79.0</ele><time>2026-04-19T15:28:13Z</time></trkpt><trkpt lat="42.793725666963134" lon="13.933784651866006"><ele>79.0</ele><time>2026-04-19T15:28:14Z</time></trkpt><trkpt lat="42.79337055199958" lon="13.933910431351503"><ele>78.0</ele><time>2026-04-19T15:28:15Z</time></trkpt><trkpt lat="42.79301132389744" lon="13.934005160743183"><ele>77.0</ele><time>2026-04-19T15:28:16Z</time></trkpt><trkpt lat="42.79266217840706" lon="13.934055966965998"><ele>75.5</ele><time>2026-04-19T15:28:17Z</time></trkpt><trkpt lat="42.792296248760984" lon="13.934073651940965"><ele>74.0</ele><time>2026-04-19T15:28:18Z</time></trkpt><trkpt lat="42.79191116733607" lon="13.934062392614482"><ele>71.5</ele><time>2026-04-19T15:28:19Z</time></trkpt><trkpt lat="42.79151669506097" lon="13.934034267984003"><ele>69.0</ele><time>2026-04-19T15:28:20Z</time></trkpt><trkpt lat="42.79111762407683" lon="13.93401175153156"><ele>68.0</ele><time>2026-04-19T15:28:21Z</time></trkpt><trkpt lat="42.79072912235656" lon="13.934013432654254"><ele>67.0</ele><time>2026-04-19T15:28:22Z</time></trkpt><trkpt lat="42.79034171974558" lon="13.934049459260141"><ele>64.5</ele><time>2026-04-19T15:28:23Z</time></trkpt><trkpt lat="42.78994651420899" lon="13.934127516305288"><ele>62.0</ele><time>2026-04-19T15:28:24Z</time></trkpt><trkpt lat="42.78954709816503" lon="13.934250345724948"><ele>59.5</ele><time>2026-04-19T15:28:25Z</time></trkpt><trkpt lat="42.78914030859806" lon="13.934410680478498"><ele>57.0</ele><time>2026-04-19T15:28:26Z</time></trkpt><trkpt lat="42.788734139281516" lon="13.934604187863988"><ele>59.0</ele><time>2026-04-19T15:28:27Z</time></trkpt><trkpt lat="42.78832129367306" lon="13.934819484967305"><ele>61.0</ele><time>2026-04-19T15:28:28Z</time></trkpt><trkpt lat="42.787936886172155" lon="13.935014618570575"><ele>65.0</ele><time>2026-04-19T15:28:29Z</time></trkpt><trkpt lat="42.78757206331573" lon="13.935196374516547"><ele>69.0</ele><time>2026-04-19T15:28:30Z</time></trkpt><trkpt lat="42.787226423472546" lon="13.935345146193907"><ele>69.0</ele><time>2026-04-19T15:28:31Z</time></trkpt><trkpt lat="42.786878080867204" lon="13.935454782536233"><ele>69.0</ele><time>2026-04-19T15:28:32Z</time></trkpt><trkpt lat="42.78651512389549" lon="13.935532382925674"><ele>69.5</ele><time>2026-04-19T15:28:33Z</time></trkpt><trkpt lat="42.786168110878755" lon="13.935575979827897"><ele>70.0</ele><time>2026-04-19T15:28:34Z</time></trkpt><trkpt lat="42.78582374634054" lon="13.935584782977397"><ele>70.5</ele><time>2026-04-19T15:28:35Z</time></trkpt><trkpt lat="42.78547201282351" lon="13.935560358478147"><ele>71.0</ele><time>2026-04-19T15:28:36Z</time></trkpt><trkpt lat="42.785120597392776" lon="13.935509577672713"><ele>68.5</ele><time>2026-04-19T15:28:37Z</time></trkpt><trkpt lat="42.784769460722735" lon="13.935432907940676"><ele>66.0</ele><time>2026-04-19T15:28:38Z</time></trkpt><trkpt lat="42.78440738380193" lon="13.93532269361858"><ele>59.0</ele><time>2026-04-19T15:28:39Z</time></trkpt><trkpt lat="42.78403812709979" lon="13.93518052489813"><ele>52.0</ele><time>2026-04-19T15:28:40Z</time></trkpt><trkpt lat="42.783664176803384" lon="13.935023060242674"><ele>42.0</ele><time>2026-04-19T15:28:41Z</time></trkpt><trkpt lat="42.783284125316484" lon="13.934863003481581"><ele>32.0</ele><time>2026-04-19T15:28:42Z</time></trkpt><trkpt lat="42.78289637832817" lon="13.934705756316212"><ele>29.0</ele><time>2026-04-19T15:28:43Z</time></trkpt><trkpt lat="42.78250634099068" lon="13.934539630564426"><ele>26.0</ele><time>2026-04-19T15:28:44Z</time></trkpt><trkpt lat="42.78211809667676" lon="13.934383570502634"><ele>20.5</ele><time>2026-04-19T15:28:45Z</time></trkpt><trkpt lat="42.781724879406646" lon="13.934228478252017"><ele>15.0</ele><time>2026-04-19T15:28:46Z</time></trkpt><trkpt lat="42.781338411530484" lon="13.93407200574247"><ele>12.5</ele><time>2026-04-19T15:28:47Z</time></trkpt><trkpt lat="42.78096022509855" lon="13.933921474391274"><ele>10.0</ele><time>2026-04-19T15:28:48Z</time></trkpt><trkpt lat="42.780585296321455" lon="13.933769479742534"><ele>10.0</ele><time>2026-04-19T15:28:49Z</time></trkpt><trkpt lat="42.78021265224333" lon="13.933616873550363"><ele>10.0</ele><time>2026-04-19T15:28:50Z</time></trkpt><trkpt lat="42.77983979083907" lon="13.93346635542751"><ele>9.0</ele><time>2026-04-19T15:28:51Z</time></trkpt><trkpt lat="42.7794655283826" lon="13.933316038649133"><ele>8.0</ele><time>2026-04-19T15:28:52Z</time></trkpt><trkpt lat="42.77910856986113" lon="13.933176338371899"><ele>8.0</ele><time>2026-04-19T15:28:53Z</time></trkpt><trkpt lat="42.778752738180486" lon="13.9330320771082"><ele>8.0</ele><time>2026-04-19T15:28:54Z</time></trkpt><trkpt lat="42.7784254473008" lon="13.932899356833195"><ele>9.5</ele><time>2026-04-19T15:28:55Z</time></trkpt><trkpt lat="42.77808411206235" lon="13.93276248433163"><ele>11.0</ele><time>2026-04-19T15:28:56Z</time></trkpt><trkpt lat="42.77776272104751" lon="13.932628701433208"><ele>17.0</ele><time>2026-04-19T15:28:57Z</time></trkpt><trkpt lat="42.7774420856596" lon="13.932494644568202"><ele>23.0</ele><time>2026-04-19T15:28:58Z</time></trkpt><trkpt lat="42.77711841180957" lon="13.93236138002505"><ele>26.0</ele><time>2026-04-19T15:28:59Z</time></trkpt><trkpt lat="42.77678396193743" lon="13.932224182296292"><ele>29.0</ele><time>2026-04-19T15:29:00Z</time></trkpt><trkpt lat="42.776453954021285" lon="13.932087063534475"><ele>29.0</ele><time>2026-04-19T15:29:01Z</time></trkpt><trkpt lat="42.77611644991405" lon="13.931947747444523"><ele>29.0</ele><time>2026-04-19T15:29:02Z</time></trkpt><trkpt lat="42.77578070270934" lon="13.931811629048244"><ele>34.0</ele><time>2026-04-19T15:29:03Z</time></trkpt><trkpt lat="42.77544770317684" lon="13.931673429204926"><ele>39.0</ele><time>2026-04-19T15:29:04Z</time></trkpt><trkpt lat="42.775096361259756" lon="13.931537016841432"><ele>43.5</ele><time>2026-04-19T15:29:05Z</time></trkpt><trkpt lat="42.77473656863083" lon="13.931396794292123"><ele>48.0</ele><time>2026-04-19T15:29:06Z</time></trkpt><trkpt lat="42.77436796015921" lon="13.931244293622363"><ele>52.0</ele><time>2026-04-19T15:29:07Z</time></trkpt><trkpt lat="42.77399545662976" lon="13.93109346007866"><ele>56.0</ele><time>2026-04-19T15:29:08Z</time></trkpt><trkpt lat="42.77361735191382" lon="13.930939410343436"><ele>67.5</ele><time>2026-04-19T15:29:09Z</time></trkpt><trkpt lat="42.773232532429084" lon="13.930785581980233"><ele>79.0</ele><time>2026-04-19T15:29:10Z</time></trkpt><trkpt lat="42.77283958094375" lon="13.930622911893234"><ele>89.0</ele><time>2026-04-19T15:29:11Z</time></trkpt><trkpt lat="42.77244162882431" lon="13.93046015660545"><ele>99.0</ele><time>2026-04-19T15:29:12Z</time></trkpt><trkpt lat="42.77206235593227" lon="13.930307709219267"><ele>106.0</ele><time>2026-04-19T15:29:13Z</time></trkpt><trkpt lat="42.77169463322692" lon="13.93017796788668"><ele>113.0</ele><time>2026-04-19T15:29:14Z</time></trkpt><trkpt lat="42.77130605318051" lon="13.930065519536145"><ele>119.0</ele><time>2026-04-19T15:29:15Z</time></trkpt><trkpt lat="42.77090445615193" lon="13.929995835884958"><ele>125.0</ele><time>2026-04-19T15:29:16Z</time></trkpt><trkpt lat="42.77048967983823" lon="13.929960098281061"><ele>123.5</ele><time>2026-04-19T15:29:17Z</time></trkpt><trkpt lat="42.7700827082475" lon="13.929963867449564"><ele>122.0</ele><time>2026-04-19T15:29:18Z</time></trkpt><trkpt lat="42.76971051928696" lon="13.929995951215215"><ele>122.0</ele><time>2026-04-19T15:29:19Z</time></trkpt><trkpt lat="42.76934218379995" lon="13.930063409362063"><ele>122.0</ele><time>2026-04-19T15:29:20Z</time></trkpt><trkpt lat="42.768972445191245" lon="13.930155040724753"><ele>122.0</ele><time>2026-04-19T15:29:21Z</time></trkpt><trkpt lat="42.76859726256263" lon="13.930282837163746"><ele>122.0</ele><time>2026-04-19T15:29:22Z</time></trkpt><trkpt lat="42.76821368503166" lon="13.930443005591211"><ele>119.5</ele><time>2026-04-19T15:29:23Z</time></trkpt><trkpt lat="42.76783112928331" lon="13.930638138516093"><ele>117.0</ele><time>2026-04-19T15:29:24Z</time></trkpt><trkpt lat="42.76745856330854" lon="13.930861364924288"><ele>114.5</ele><time>2026-04-19T15:29:25Z</time></trkpt><trkpt lat="42.76712386070177" lon="13.93108395742413"><ele>112.0</ele><time>2026-04-19T15:29:26Z</time></trkpt><trkpt lat="42.766816851763174" lon="13.931286370076911"><ele>109.5</ele><time>2026-04-19T15:29:27Z</time></trkpt><trkpt lat="42.76652243724343" lon="13.931477887864549"><ele>107.0</ele><time>2026-04-19T15:29:28Z</time></trkpt><trkpt lat="42.76623826211411" lon="13.931656459259829"><ele>105.5</ele><time>2026-04-19T15:29:29Z</time></trkpt><trkpt lat="42.7659648282512" lon="13.931823079900962"><ele>104.0</ele><time>2026-04-19T15:29:30Z</time></trkpt><trkpt lat="42.765692337337875" lon="13.931984043004412"><ele>104.0</ele><time>2026-04-19T15:29:31Z</time></trkpt><trkpt lat="42.765433306267695" lon="13.932137330178653"><ele>104.0</ele><time>2026-04-19T15:29:32Z</time></trkpt><trkpt lat="42.76518529692165" lon="13.932272055654845"><ele>107.5</ele><time>2026-04-19T15:29:33Z</time></trkpt><trkpt lat="42.76493977112599" lon="13.932391505079476"><ele>111.0</ele><time>2026-04-19T15:29:34Z</time></trkpt><trkpt lat="42.76468695342918" lon="13.932501026891455"><ele>110.5</ele><time>2026-04-19T15:29:34.999Z</time></trkpt><trkpt lat="42.764431537234344" lon="13.932610893290127"><ele>110.0</ele><time>2026-04-19T15:29:35.999Z</time></trkpt><trkpt lat="42.76417206914116" lon="13.932720004339776"><ele>110.0</ele><time>2026-04-19T15:29:36.999Z</time></trkpt><trkpt lat="42.76390605479535" lon="13.932822282864803"><ele>110.0</ele><time>2026-04-19T15:29:37.999Z</time></trkpt><trkpt lat="42.76363453565888" lon="13.932918292544285"><ele>114.0</ele><time>2026-04-19T15:29:38.999Z</time></trkpt><trkpt lat="42.76336533713323" lon="13.93300257960766"><ele>118.0</ele><time>2026-04-19T15:29:39.999Z</time></trkpt><trkpt lat="42.76309625197353" lon="13.933079760598455"><ele>118.0</ele><time>2026-04-19T15:29:40.999Z</time></trkpt><trkpt lat="42.762827374816126" lon="13.933153470357478"><ele>118.0</ele><time>2026-04-19T15:29:41.999Z</time></trkpt><trkpt lat="42.762555536769646" lon="13.933217383196945"><ele>121.0</ele><time>2026-04-19T15:29:42.999Z</time></trkpt><trkpt lat="42.76228152780455" lon="13.93327073037709"><ele>124.0</ele><time>2026-04-19T15:29:43.999Z</time></trkpt><trkpt lat="42.762010417777745" lon="13.933318854006632"><ele>124.5</ele><time>2026-04-19T15:29:44.999Z</time></trkpt><trkpt lat="42.761737902083716" lon="13.933366900520834"><ele>125.0</ele><time>2026-04-19T15:29:45.999Z</time></trkpt><trkpt lat="42.76143563966011" lon="13.933407518915388"><ele>125.0</ele><time>2026-04-19T15:29:46.999Z</time></trkpt><trkpt lat="42.761106724125646" lon="13.933439499721834"><ele>125.0</ele><time>2026-04-19T15:29:47.999Z</time></trkpt><trkpt lat="42.760764827227625" lon="13.933457218778093"><ele>121.0</ele><time>2026-04-19T15:29:48.999Z</time></trkpt><trkpt lat="42.76040146477514" lon="13.933465830783167"><ele>117.0</ele><time>2026-04-19T15:29:49.999Z</time></trkpt><trkpt lat="42.760027138414586" lon="13.933479058148814"><ele>112.0</ele><time>2026-04-19T15:29:50.999Z</time></trkpt><trkpt lat="42.759645393476625" lon="13.933495057746143"><ele>107.0</ele><time>2026-04-19T15:29:51.999Z</time></trkpt><trkpt lat="42.75925992649565" lon="13.933513764977352"><ele>102.0</ele><time>2026-04-19T15:29:52.999Z</time></trkpt><trkpt lat="42.758866533978605" lon="13.93353684956155"><ele>97.0</ele><time>2026-04-19T15:29:53.999Z</time></trkpt><trkpt lat="42.758490213823144" lon="13.933559572314191"><ele>93.0</ele><time>2026-04-19T15:29:54.999Z</time></trkpt><trkpt lat="42.75812070502055" lon="13.933581110120862"><ele>89.0</ele><time>2026-04-19T15:29:55.999Z</time></trkpt><trkpt lat="42.757732484650845" lon="13.933609478923008"><ele>86.0</ele><time>2026-04-19T15:29:56.999Z</time></trkpt><trkpt lat="42.75732780670313" lon="13.933637222193044"><ele>83.0</ele><time>2026-04-19T15:29:58Z</time></trkpt><trkpt lat="42.75691713701202" lon="13.933664079262178"><ele>84.5</ele><time>2026-04-19T15:29:59.001Z</time></trkpt><trkpt lat="42.75651582650751" lon="13.933685547833537"><ele>86.0</ele><time>2026-04-19T15:30:00Z</time></trkpt><trkpt lat="42.756128492674826" lon="13.933706557705033"><ele>86.5</ele><time>2026-04-19T15:30:01Z</time></trkpt><trkpt lat="42.75574191084135" lon="13.933723543614757"><ele>87.0</ele><time>2026-04-19T15:30:02Z</time></trkpt><trkpt lat="42.75533223884166" lon="13.933748203923642"><ele>87.5</ele><time>2026-04-19T15:30:03Z</time></trkpt><trkpt lat="42.75490587346691" lon="13.933773778206508"><ele>88.0</ele><time>2026-04-19T15:30:04Z</time></trkpt><trkpt lat="42.75446943177071" lon="13.933799952147705"><ele>87.0</ele><time>2026-04-19T15:30:05Z</time></trkpt><trkpt lat="42.754029163788495" lon="13.933820794790803"><ele>86.0</ele><time>2026-04-19T15:30:06Z</time></trkpt><trkpt lat="42.753591540329765" lon="13.933839864258752"><ele>85.0</ele><time>2026-04-19T15:30:07Z</time></trkpt><trkpt lat="42.75314792013228" lon="13.933862132154339"><ele>84.0</ele><time>2026-04-19T15:30:08Z</time></trkpt><trkpt lat="42.75270560181499" lon="13.933883099962959"><ele>80.0</ele><time>2026-04-19T15:30:09Z</time></trkpt><trkpt lat="42.752253540549866" lon="13.933903858001143"><ele>83.0</ele><time>2026-04-19T15:30:10Z</time></trkpt><trkpt lat="42.75179929534394" lon="13.933926857241484"><ele>83.0</ele><time>2026-04-19T15:30:11Z</time></trkpt><trkpt lat="42.751336938439145" lon="13.933956972342084"><ele>84.0</ele><time>2026-04-19T15:30:12Z</time></trkpt><trkpt lat="42.75087797235944" lon="13.933992474264638"><ele>84.0</ele><time>2026-04-19T15:30:13Z</time></trkpt><trkpt lat="42.75041316534272" lon="13.934037713290644"><ele>83.0</ele><time>2026-04-19T15:30:14Z</time></trkpt><trkpt lat="42.74994732923304" lon="13.934087723365524"><ele>83.0</ele><time>2026-04-19T15:30:15Z</time></trkpt><trkpt lat="42.74947979153463" lon="13.934144452799437"><ele>82.0</ele><time>2026-04-19T15:30:16Z</time></trkpt><trkpt lat="42.74902188522223" lon="13.93420481334487"><ele>77.5</ele><time>2026-04-19T15:30:17Z</time></trkpt><trkpt lat="42.74859587373959" lon="13.93426703693342"><ele>73.0</ele><time>2026-04-19T15:30:18Z</time></trkpt><trkpt lat="42.7482033054902" lon="13.934327441125241"><ele>73.0</ele><time>2026-04-19T15:30:19Z</time></trkpt><trkpt lat="42.74782863339361" lon="13.934384354015812"><ele>73.0</ele><time>2026-04-19T15:30:20Z</time></trkpt><trkpt lat="42.74745764409165" lon="13.934440057564368"><ele>71.5</ele><time>2026-04-19T15:30:21Z</time></trkpt><trkpt lat="42.74708424970864" lon="13.93448993224851"><ele>70.0</ele><time>2026-04-19T15:30:22Z</time></trkpt><trkpt lat="42.74670832020405" lon="13.934546355491193"><ele>70.0</ele><time>2026-04-19T15:30:23Z</time></trkpt><trkpt lat="42.74633772746101" lon="13.934601847315607"><ele>70.0</ele><time>2026-04-19T15:30:24Z</time></trkpt><trkpt lat="42.74596468955285" lon="13.93465770053508"><ele>69.0</ele><time>2026-04-19T15:30:25Z</time></trkpt><trkpt lat="42.745594982808456" lon="13.934713012990441"><ele>68.0</ele><time>2026-04-19T15:30:26Z</time></trkpt><trkpt lat="42.74523966390816" lon="13.934767590504466"><ele>68.0</ele><time>2026-04-19T15:30:27Z</time></trkpt><trkpt lat="42.744897014418605" lon="13.934821927578769"><ele>68.0</ele><time>2026-04-19T15:30:28Z</time></trkpt><trkpt lat="42.744554942752636" lon="13.93487445541272"><ele>68.0</ele><time>2026-04-19T15:30:29Z</time></trkpt><trkpt lat="42.7442111578192" lon="13.934925702413484"><ele>68.0</ele><time>2026-04-19T15:30:30Z</time></trkpt><trkpt lat="42.74383639038729" lon="13.934968396915787"><ele>69.0</ele><time>2026-04-19T15:30:31Z</time></trkpt><trkpt lat="42.74343941870021" lon="13.934994996452193"><ele>70.0</ele><time>2026-04-19T15:30:32Z</time></trkpt><trkpt lat="42.74304311502172" lon="13.934994716121334"><ele>71.5</ele><time>2026-04-19T15:30:33Z</time></trkpt><trkpt lat="42.742641227380034" lon="13.934967571872956"><ele>73.0</ele><time>2026-04-19T15:30:34Z</time></trkpt><trkpt lat="42.74223520560725" lon="13.934915042891586"><ele>70.0</ele><time>2026-04-19T15:30:35Z</time></trkpt><trkpt lat="42.74182708233309" lon="13.93484105652621"><ele>67.0</ele><time>2026-04-19T15:30:36Z</time></trkpt><trkpt lat="42.74140883826443" lon="13.934742273697287"><ele>67.5</ele><time>2026-04-19T15:30:37Z</time></trkpt><trkpt lat="42.740984316822754" lon="13.93461526941979"><ele>68.0</ele><time>2026-04-19T15:30:38Z</time></trkpt><trkpt lat="42.74055460727119" lon="13.934454751815146"><ele>68.0</ele><time>2026-04-19T15:30:39Z</time></trkpt><trkpt lat="42.74013466764987" lon="13.934258465139719"><ele>68.0</ele><time>2026-04-19T15:30:40Z</time></trkpt><trkpt lat="42.73971300660653" lon="13.934036303882444"><ele>67.0</ele><time>2026-04-19T15:30:41Z</time></trkpt><trkpt lat="42.73930074190704" lon="13.93378375535051"><ele>67.0</ele><time>2026-04-19T15:30:42Z</time></trkpt><trkpt lat="42.73889435513987" lon="13.933504379841287"><ele>63.0</ele><time>2026-04-19T15:30:43Z</time></trkpt><trkpt lat="42.73850440609317" lon="13.933223494908216"><ele>59.0</ele><time>2026-04-19T15:30:44Z</time></trkpt><trkpt lat="42.73813199541421" lon="13.932960939218807"><ele>59.0</ele><time>2026-04-19T15:30:45Z</time></trkpt><trkpt lat="42.73774594703712" lon="13.932705961947823"><ele>59.0</ele><time>2026-04-19T15:30:46Z</time></trkpt><trkpt lat="42.73735439655086" lon="13.93244687483241"><ele>57.0</ele><time>2026-04-19T15:30:47Z</time></trkpt><trkpt lat="42.736968965676475" lon="13.932186730114974"><ele>55.0</ele><time>2026-04-19T15:30:48Z</time></trkpt><trkpt lat="42.73659120490278" lon="13.931932603731486"><ele>55.5</ele><time>2026-04-19T15:30:49Z</time></trkpt><trkpt lat="42.73622429955111" lon="13.931686288134088"><ele>56.0</ele><time>2026-04-19T15:30:50Z</time></trkpt><trkpt lat="42.735853308170675" lon="13.931435338406628"><ele>55.0</ele><time>2026-04-19T15:30:51Z</time></trkpt><trkpt lat="42.73548321473819" lon="13.931184972364276"><ele>54.0</ele><time>2026-04-19T15:30:52Z</time></trkpt><trkpt lat="42.73510637761384" lon="13.930929212653462"><ele>55.5</ele><time>2026-04-19T15:30:53Z</time></trkpt><trkpt lat="42.73472528690452" lon="13.930668271496105"><ele>57.0</ele><time>2026-04-19T15:30:54Z</time></trkpt><trkpt lat="42.73434132243663" lon="13.930409020728927"><ele>57.5</ele><time>2026-04-19T15:30:55Z</time></trkpt><trkpt lat="42.73395441570567" lon="13.930153950100092"><ele>58.0</ele><time>2026-04-19T15:30:56Z</time></trkpt><trkpt lat="42.73357315655414" lon="13.929898574571174"><ele>57.5</ele><time>2026-04-19T15:30:57Z</time></trkpt><trkpt lat="42.73319200698223" lon="13.929639262506148"><ele>57.0</ele><time>2026-04-19T15:30:58Z</time></trkpt><trkpt lat="42.732798622686275" lon="13.929362763435806"><ele>56.5</ele><time>2026-04-19T15:30:59Z</time></trkpt><trkpt lat="42.732404275807845" lon="13.9290877084525"><ele>56.0</ele><time>2026-04-19T15:31:00Z</time></trkpt><trkpt lat="42.73200895511856" lon="13.928825977243397"><ele>50.0</ele><time>2026-04-19T15:31:01Z</time></trkpt><trkpt lat="42.73159834485218" lon="13.92854903459864"><ele>51.0</ele><time>2026-04-19T15:31:02Z</time></trkpt><trkpt lat="42.73119298261129" lon="13.928274899962245"><ele>52.0</ele><time>2026-04-19T15:31:03Z</time></trkpt><trkpt lat="42.7307876225261" lon="13.927996617427864"><ele>52.0</ele><time>2026-04-19T15:31:04Z</time></trkpt><trkpt lat="42.730380120748514" lon="13.927716177461129"><ele>53.0</ele><time>2026-04-19T15:31:05Z</time></trkpt><trkpt lat="42.729972177869165" lon="13.927433347344833"><ele>53.0</ele><time>2026-04-19T15:31:06Z</time></trkpt><trkpt lat="42.72956335118346" lon="13.927148468639837"><ele>54.0</ele><time>2026-04-19T15:31:07Z</time></trkpt><trkpt lat="42.72915924046391" lon="13.926854750208987"><ele>55.0</ele><time>2026-04-19T15:31:08Z</time></trkpt><trkpt lat="42.728769135655256" lon="13.926546993031444"><ele>55.0</ele><time>2026-04-19T15:31:09Z</time></trkpt><trkpt lat="42.72839495366987" lon="13.926231420092815"><ele>55.0</ele><time>2026-04-19T15:31:10Z</time></trkpt><trkpt lat="42.728041968635836" lon="13.925911676272113"><ele>56.5</ele><time>2026-04-19T15:31:11Z</time></trkpt><trkpt lat="42.72768345720082" lon="13.925572370242568"><ele>58.0</ele><time>2026-04-19T15:31:12Z</time></trkpt><trkpt lat="42.72732394060455" lon="13.925217076245648"><ele>61.0</ele><time>2026-04-19T15:31:13Z</time></trkpt><trkpt lat="42.72696647424381" lon="13.924845615493675"><ele>58.0</ele><time>2026-04-19T15:31:14Z</time></trkpt><trkpt lat="42.72661343214254" lon="13.92446006563846"><ele>58.5</ele><time>2026-04-19T15:31:15Z</time></trkpt><trkpt lat="42.72626819618711" lon="13.92406832429261"><ele>59.0</ele><time>2026-04-19T15:31:16Z</time></trkpt><trkpt lat="42.725948242348885" lon="13.92368409987601"><ele>59.5</ele><time>2026-04-19T15:31:17Z</time></trkpt><trkpt lat="42.72564363109011" lon="13.923304445315852"><ele>60.0</ele><time>2026-04-19T15:31:18Z</time></trkpt><trkpt lat="42.72534466069455" lon="13.922940367034515"><ele>60.0</ele><time>2026-04-19T15:31:19Z</time></trkpt><trkpt lat="42.72504827667414" lon="13.922591656348182"><ele>60.0</ele><time>2026-04-19T15:31:20Z</time></trkpt><trkpt lat="42.72475455538176" lon="13.922254747695115"><ele>60.0</ele><time>2026-04-19T15:31:21Z</time></trkpt><trkpt lat="42.72446538225852" lon="13.92192368465231"><ele>60.0</ele><time>2026-04-19T15:31:22Z</time></trkpt><trkpt lat="42.724193678694085" lon="13.921611679009347"><ele>61.0</ele><time>2026-04-19T15:31:23Z</time></trkpt><trkpt lat="42.723938423180805" lon="13.921313189119122"><ele>62.0</ele><time>2026-04-19T15:31:24Z</time></trkpt><trkpt lat="42.7236962684757" lon="13.921026362000577"><ele>62.5</ele><time>2026-04-19T15:31:24.999Z</time></trkpt><trkpt lat="42.723464808107714" lon="13.92075189660934"><ele>63.0</ele><time>2026-04-19T15:31:25.999Z</time></trkpt><trkpt lat="42.7232372816082" lon="13.920476646346051"><ele>63.0</ele><time>2026-04-19T15:31:26.999Z</time></trkpt><trkpt lat="42.72301646919336" lon="13.920214446464694"><ele>63.0</ele><time>2026-04-19T15:31:27.999Z</time></trkpt><trkpt lat="42.72280295205569" lon="13.919963522340547"><ele>62.0</ele><time>2026-04-19T15:31:28.999Z</time></trkpt><trkpt lat="42.722592825946464" lon="13.919720312578177"><ele>61.0</ele><time>2026-04-19T15:31:29.999Z</time></trkpt><trkpt lat="42.72237681016932" lon="13.919472944999082"><ele>61.5</ele><time>2026-04-19T15:31:30.999Z</time></trkpt><trkpt lat="42.722150171779546" lon="13.919220335931024"><ele>62.0</ele><time>2026-04-19T15:31:31.999Z</time></trkpt><trkpt lat="42.721919626882354" lon="13.918957702847479"><ele>63.0</ele><time>2026-04-19T15:31:32.999Z</time></trkpt><trkpt lat="42.721697435607076" lon="13.918697395072714"><ele>64.0</ele><time>2026-04-19T15:31:33.999Z</time></trkpt><trkpt lat="42.72145969306402" lon="13.918417283028585"><ele>63.5</ele><time>2026-04-19T15:31:34.999Z</time></trkpt><trkpt lat="42.72120434328775" lon="13.918111899606295"><ele>63.0</ele><time>2026-04-19T15:31:35.999Z</time></trkpt><trkpt lat="42.72094109415027" lon="13.917791690701222"><ele>64.0</ele><time>2026-04-19T15:31:36.999Z</time></trkpt><trkpt lat="42.72066483489494" lon="13.917466805177272"><ele>65.0</ele><time>2026-04-19T15:31:37.999Z</time></trkpt><trkpt lat="42.72038819122361" lon="13.917143430247997"><ele>64.0</ele><time>2026-04-19T15:31:38.999Z</time></trkpt><trkpt lat="42.72011236531955" lon="13.916831216259485"><ele>63.0</ele><time>2026-04-19T15:31:39.999Z</time></trkpt><trkpt lat="42.719827861063536" lon="13.916502283184638"><ele>63.0</ele><time>2026-04-19T15:31:40.999Z</time></trkpt><trkpt lat="42.719533634254645" lon="13.916150502966108"><ele>63.0</ele><time>2026-04-19T15:31:41.999Z</time></trkpt><trkpt lat="42.719229849784334" lon="13.91578601281298"><ele>63.0</ele><time>2026-04-19T15:31:42.999Z</time></trkpt><trkpt lat="42.71891780155641" lon="13.915418168746465"><ele>63.0</ele><time>2026-04-19T15:31:43.999Z</time></trkpt><trkpt lat="42.71859970562412" lon="13.915060434030948"><ele>64.0</ele><time>2026-04-19T15:31:44.999Z</time></trkpt><trkpt lat="42.71826615091549" lon="13.914729995576877"><ele>65.0</ele><time>2026-04-19T15:31:45.999Z</time></trkpt><trkpt lat="42.71790501192354" lon="13.914421635830713"><ele>65.5</ele><time>2026-04-19T15:31:46.999Z</time></trkpt><trkpt lat="42.71753064130477" lon="13.914145508178906"><ele>66.0</ele><time>2026-04-19T15:31:47.999Z</time></trkpt><trkpt lat="42.71713272259258" lon="13.913893282081146"><ele>66.0</ele><time>2026-04-19T15:31:48.999Z</time></trkpt><trkpt lat="42.71673111747939" lon="13.913676857414188"><ele>66.0</ele><time>2026-04-19T15:31:49.999Z</time></trkpt><trkpt lat="42.71632531691137" lon="13.913491068430364"><ele>65.5</ele><time>2026-04-19T15:31:50.999Z</time></trkpt><trkpt lat="42.71590737836391" lon="13.913341231420134"><ele>65.0</ele><time>2026-04-19T15:31:51.999Z</time></trkpt><trkpt lat="42.715471145941116" lon="13.913217757455419"><ele>64.5</ele><time>2026-04-19T15:31:52.999Z</time></trkpt><trkpt lat="42.71503174904515" lon="13.913135942857478"><ele>64.0</ele><time>2026-04-19T15:31:53.999Z</time></trkpt><trkpt lat="42.71458081009539" lon="13.91308995193011"><ele>61.0</ele><time>2026-04-19T15:31:54.999Z</time></trkpt><trkpt lat="42.714125715759735" lon="13.913078046218548"><ele>61.0</ele><time>2026-04-19T15:31:55.999Z</time></trkpt><trkpt lat="42.71367217345422" lon="13.913103012483317"><ele>57.0</ele><time>2026-04-19T15:31:56.999Z</time></trkpt><trkpt lat="42.71321793526711" lon="13.913166961809914"><ele>57.0</ele><time>2026-04-19T15:31:57.999Z</time></trkpt><trkpt lat="42.71276918745895" lon="13.913274019555965"><ele>52.5</ele><time>2026-04-19T15:31:58.999Z</time></trkpt><trkpt lat="42.71233881278607" lon="13.91340832610016"><ele>48.0</ele><time>2026-04-19T15:31:59.999Z</time></trkpt><trkpt lat="42.71190688104415" lon="13.91355599270612"><ele>47.0</ele><time>2026-04-19T15:32:00.999Z</time></trkpt><trkpt lat="42.71146967719345" lon="13.913703748704103"><ele>46.5</ele><time>2026-04-19T15:32:01.999Z</time></trkpt><trkpt lat="42.71103619085929" lon="13.913846612814837"><ele>46.0</ele><time>2026-04-19T15:32:02.999Z</time></trkpt><trkpt lat="42.71059759348679" lon="13.913991966491109"><ele>48.0</ele><time>2026-04-19T15:32:04Z</time></trkpt><trkpt lat="42.7101530690755" lon="13.914134562520372"><ele>47.0</ele><time>2026-04-19T15:32:05Z</time></trkpt><trkpt lat="42.70970429527437" lon="13.914275274019356"><ele>45.0</ele><time>2026-04-19T15:32:06Z</time></trkpt><trkpt lat="42.709258921344556" lon="13.914415535303629"><ele>45.0</ele><time>2026-04-19T15:32:07Z</time></trkpt><trkpt lat="42.70880271989494" lon="13.914559492144523"><ele>47.0</ele><time>2026-04-19T15:32:08Z</time></trkpt><trkpt lat="42.7083519192424" lon="13.914701137167214"><ele>47.0</ele><time>2026-04-19T15:32:09Z</time></trkpt><trkpt lat="42.70789692607202" lon="13.914843894377086"><ele>46.0</ele><time>2026-04-19T15:32:10Z</time></trkpt><trkpt lat="42.70743711170661" lon="13.91498430645484"><ele>43.0</ele><time>2026-04-19T15:32:11Z</time></trkpt><trkpt lat="42.706980055780505" lon="13.91512714427731"><ele>45.0</ele><time>2026-04-19T15:32:12Z</time></trkpt><trkpt lat="42.70652443978462" lon="13.915269796319686"><ele>45.0</ele><time>2026-04-19T15:32:13Z</time></trkpt><trkpt lat="42.70606722517498" lon="13.915412089815975"><ele>45.0</ele><time>2026-04-19T15:32:14Z</time></trkpt><trkpt lat="42.70560827411017" lon="13.915554533760032"><ele>43.0</ele><time>2026-04-19T15:32:15Z</time></trkpt><trkpt lat="42.705151252873385" lon="13.915696656779264"><ele>43.0</ele><time>2026-04-19T15:32:16Z</time></trkpt><trkpt lat="42.704697269513005" lon="13.915840093324814"><ele>43.0</ele><time>2026-04-19T15:32:17Z</time></trkpt><trkpt lat="42.70423947913656" lon="13.915983581558255"><ele>43.0</ele><time>2026-04-19T15:32:18Z</time></trkpt><trkpt lat="42.703790286435286" lon="13.916127191996612"><ele>43.0</ele><time>2026-04-19T15:32:19Z</time></trkpt><trkpt lat="42.70334059450714" lon="13.91626648150895"><ele>43.0</ele><time>2026-04-19T15:32:20Z</time></trkpt><trkpt lat="42.70289196314763" lon="13.916407617699113"><ele>43.0</ele><time>2026-04-19T15:32:21Z</time></trkpt><trkpt lat="42.70244468735566" lon="13.916543507559737"><ele>43.0</ele><time>2026-04-19T15:32:22Z</time></trkpt><trkpt lat="42.70202453937772" lon="13.916673573931277"><ele>43.0</ele><time>2026-04-19T15:32:23Z</time></trkpt><trkpt lat="42.70161461148197" lon="13.916804279494563"><ele>42.0</ele><time>2026-04-19T15:32:24Z</time></trkpt><trkpt lat="42.70120413036393" lon="13.916936598337633"><ele>41.0</ele><time>2026-04-19T15:32:25Z</time></trkpt><trkpt lat="42.70080419200294" lon="13.917062840016932"><ele>43.0</ele><time>2026-04-19T15:32:26Z</time></trkpt><trkpt lat="42.70041223944772" lon="13.91719939690689"><ele>45.0</ele><time>2026-04-19T15:32:27Z</time></trkpt><trkpt lat="42.700031191072185" lon="13.91737034620107"><ele>44.5</ele><time>2026-04-19T15:32:28Z</time></trkpt><trkpt lat="42.699649353366866" lon="13.917586572564208"><ele>44.0</ele><time>2026-04-19T15:32:29Z</time></trkpt><trkpt lat="42.69926865906452" lon="13.917848670992786"><ele>46.5</ele><time>2026-04-19T15:32:30Z</time></trkpt><trkpt lat="42.69889851500654" lon="13.918141751134536"><ele>49.0</ele><time>2026-04-19T15:32:31Z</time></trkpt><trkpt lat="42.69854556754903" lon="13.91846398921433"><ele>54.0</ele><time>2026-04-19T15:32:32Z</time></trkpt><trkpt lat="42.69820783281073" lon="13.918821867501286"><ele>59.0</ele><time>2026-04-19T15:32:33Z</time></trkpt><trkpt lat="42.69788572462437" lon="13.919211019760038"><ele>60.0</ele><time>2026-04-19T15:32:34Z</time></trkpt><trkpt lat="42.69758151839795" lon="13.91962733710042"><ele>61.0</ele><time>2026-04-19T15:32:35Z</time></trkpt><trkpt lat="42.69729636630075" lon="13.92008159891776"><ele>62.0</ele><time>2026-04-19T15:32:36Z</time></trkpt><trkpt lat="42.69702581281285" lon="13.920551614908268"><ele>63.0</ele><time>2026-04-19T15:32:37Z</time></trkpt><trkpt lat="42.69675694595486" lon="13.92102890198595"><ele>63.5</ele><time>2026-04-19T15:32:38Z</time></trkpt><trkpt lat="42.69649066842132" lon="13.921494957739101"><ele>64.0</ele><time>2026-04-19T15:32:39Z</time></trkpt><trkpt lat="42.69622321240812" lon="13.921961826524633"><ele>65.0</ele><time>2026-04-19T15:32:40Z</time></trkpt><trkpt lat="42.69595948509297" lon="13.922413047112164"><ele>66.0</ele><time>2026-04-19T15:32:41Z</time></trkpt><trkpt lat="42.695693549226206" lon="13.92286071499406"><ele>66.0</ele><time>2026-04-19T15:32:42Z</time></trkpt><trkpt lat="42.69542357608498" lon="13.923299341950539"><ele>66.0</ele><time>2026-04-19T15:32:43Z</time></trkpt><trkpt lat="42.695146157898726" lon="13.923732748759319"><ele>68.0</ele><time>2026-04-19T15:32:44Z</time></trkpt><trkpt lat="42.694861945566984" lon="13.924160656578037"><ele>70.0</ele><time>2026-04-19T15:32:45Z</time></trkpt><trkpt lat="42.69457573599441" lon="13.924576586151606"><ele>72.0</ele><time>2026-04-19T15:32:46Z</time></trkpt><trkpt lat="42.69429210378455" lon="13.924981338988331"><ele>74.0</ele><time>2026-04-19T15:32:47Z</time></trkpt><trkpt lat="42.69401686114497" lon="13.925373439643513"><ele>74.0</ele><time>2026-04-19T15:32:48Z</time></trkpt><trkpt lat="42.69375479435535" lon="13.925749000805672"><ele>74.0</ele><time>2026-04-19T15:32:49Z</time></trkpt><trkpt lat="42.693497508386265" lon="13.926121368234655"><ele>76.0</ele><time>2026-04-19T15:32:50Z</time></trkpt><trkpt lat="42.693244428813166" lon="13.926486999048253"><ele>78.0</ele><time>2026-04-19T15:32:51Z</time></trkpt><trkpt lat="42.693001408200736" lon="13.926842466832083"><ele>81.0</ele><time>2026-04-19T15:32:52Z</time></trkpt><trkpt lat="42.692766993359754" lon="13.927190309541588"><ele>84.0</ele><time>2026-04-19T15:32:53Z</time></trkpt><trkpt lat="42.692546734370154" lon="13.927539663956871"><ele>83.5</ele><time>2026-04-19T15:32:54Z</time></trkpt><trkpt lat="42.69234499473422" lon="13.927889485322831"><ele>83.0</ele><time>2026-04-19T15:32:55Z</time></trkpt><trkpt lat="42.692157124147904" lon="13.92824850546637"><ele>84.0</ele><time>2026-04-19T15:32:56Z</time></trkpt><trkpt lat="42.69197911280204" lon="13.928608950327156"><ele>85.0</ele><time>2026-04-19T15:32:57Z</time></trkpt><trkpt lat="42.69180856027773" lon="13.928968083662381"><ele>88.0</ele><time>2026-04-19T15:32:58Z</time></trkpt><trkpt lat="42.691638225273856" lon="13.929344435997391"><ele>91.0</ele><time>2026-04-19T15:32:59Z</time></trkpt><trkpt lat="42.691481109569395" lon="13.929725678358253"><ele>92.5</ele><time>2026-04-19T15:33:00Z</time></trkpt><trkpt lat="42.691330672811006" lon="13.930116687166059"><ele>94.0</ele><time>2026-04-19T15:33:01Z</time></trkpt><trkpt lat="42.69119110756442" lon="13.930509430178498"><ele>98.5</ele><time>2026-04-19T15:33:02Z</time></trkpt><trkpt lat="42.691057393926755" lon="13.930898109416596"><ele>103.0</ele><time>2026-04-19T15:33:03Z</time></trkpt><trkpt lat="42.690924641809595" lon="13.931290546902206"><ele>103.0</ele><time>2026-04-19T15:33:04Z</time></trkpt><trkpt lat="42.69079086576315" lon="13.931680030606167"><ele>103.0</ele><time>2026-04-19T15:33:05Z</time></trkpt><trkpt lat="42.69065590132946" lon="13.932067417227533"><ele>103.0</ele><time>2026-04-19T15:33:06Z</time></trkpt><trkpt lat="42.690522436868896" lon="13.932450109503012"><ele>103.0</ele><time>2026-04-19T15:33:07Z</time></trkpt><trkpt lat="42.690388100196316" lon="13.932837595314375"><ele>104.0</ele><time>2026-04-19T15:33:08Z</time></trkpt><trkpt lat="42.690250801463314" lon="13.933219966419724"><ele>105.0</ele><time>2026-04-19T15:33:09Z</time></trkpt><trkpt lat="42.69010835518719" lon="13.933599663840628"><ele>110.0</ele><time>2026-04-19T15:33:09.999Z</time></trkpt><trkpt lat="42.689944445809076" lon="13.933970068832833"><ele>115.0</ele><time>2026-04-19T15:33:10.999Z</time></trkpt><trkpt lat="42.689763895127214" lon="13.934334452770537"><ele>119.5</ele><time>2026-04-19T15:33:11.999Z</time></trkpt><trkpt lat="42.68957545621273" lon="13.934701569996555"><ele>124.0</ele><time>2026-04-19T15:33:12.999Z</time></trkpt><trkpt lat="42.68938613873038" lon="13.93507356301338"><ele>132.5</ele><time>2026-04-19T15:33:13.999Z</time></trkpt><trkpt lat="42.68919449045578" lon="13.935455468924115"><ele>141.0</ele><time>2026-04-19T15:33:14.999Z</time></trkpt><trkpt lat="42.68898131805298" lon="13.935804144146584"><ele>143.5</ele><time>2026-04-19T15:33:15.999Z</time></trkpt><trkpt lat="42.6887562287124" lon="13.93612391452357"><ele>146.0</ele><time>2026-04-19T15:33:16.999Z</time></trkpt><trkpt lat="42.68852511194923" lon="13.936418821944217"><ele>151.0</ele><time>2026-04-19T15:33:17.999Z</time></trkpt><trkpt lat="42.68827194750778" lon="13.936726949222836"><ele>156.0</ele><time>2026-04-19T15:33:19.071Z</time></trkpt><trkpt lat="42.686564136557486" lon="13.938213914499364"><ele>136.0</ele><time>2026-04-19T15:33:22.484Z</time></trkpt><trkpt lat="42.68583709776477" lon="13.938696845160784"><ele>134.0</ele><time>2026-04-19T15:33:23.484Z</time></trkpt><trkpt lat="42.68507464001747" lon="13.93906772426161"><ele>122.0</ele><time>2026-04-19T15:33:24.484Z</time></trkpt><trkpt lat="42.684293346586735" lon="13.939360118243794"><ele>122.0</ele><time>2026-04-19T15:33:25.485Z</time></trkpt><trkpt lat="42.683494703456304" lon="13.939554129281554"><ele>122.0</ele><time>2026-04-19T15:33:26.486Z</time></trkpt><trkpt lat="42.6829452" lon="13.9396197"><ele>117.0</ele><time>2026-04-19T15:33:27.483Z</time></trkpt><trkpt lat="42.68218294602024" lon="13.939647967901896"><ele>114.5</ele><time>2026-04-19T15:33:36.999Z</time></trkpt><trkpt lat="42.68181542563602" lon="13.939635238756043"><ele>112.0</ele><time>2026-04-19T15:33:37.999Z</time></trkpt><trkpt lat="42.68132910386217" lon="13.939556445918292"><ele>110.0</ele><time>2026-04-19T15:33:38.999Z</time></trkpt><trkpt lat="42.680915961532556" lon="13.939510327262349"><ele>108.0</ele><time>2026-04-19T15:33:39.999Z</time></trkpt><trkpt lat="42.680489490855926" lon="13.939418727038909"><ele>104.5</ele><time>2026-04-19T15:33:40.999Z</time></trkpt><trkpt lat="42.680053457960746" lon="13.93933725652964"><ele>101.0</ele><time>2026-04-19T15:33:41.999Z</time></trkpt><trkpt lat="42.679606107399174" lon="13.939234465878682"><ele>104.5</ele><time>2026-04-19T15:33:42.999Z</time></trkpt><trkpt lat="42.679177435792354" lon="13.939146773557797"><ele>108.0</ele><time>2026-04-19T15:33:43.999Z</time></trkpt><trkpt lat="42.678745671762194" lon="13.939055272610714"><ele>105.0</ele><time>2026-04-19T15:33:44.999Z</time></trkpt><trkpt lat="42.6783156972322" lon="13.938962963694436"><ele>102.0</ele><time>2026-04-19T15:33:45.999Z</time></trkpt><trkpt lat="42.67788274058175" lon="13.93886678925125"><ele>100.5</ele><time>2026-04-19T15:33:46.999Z</time></trkpt><trkpt lat="42.67743809055831" lon="13.938782180483944"><ele>99.0</ele><time>2026-04-19T15:33:47.999Z</time></trkpt><trkpt lat="42.676996298317626" lon="13.938697058539061"><ele>98.0</ele><time>2026-04-19T15:33:48.999Z</time></trkpt><trkpt lat="42.67656642458061" lon="13.938608862235705"><ele>97.0</ele><time>2026-04-19T15:33:49.999Z</time></trkpt><trkpt lat="42.67614270808515" lon="13.938523084434584"><ele>96.5</ele><time>2026-04-19T15:33:50.999Z</time></trkpt><trkpt lat="42.675725755251435" lon="13.93845310471858"><ele>96.0</ele><time>2026-04-19T15:33:51.999Z</time></trkpt><trkpt lat="42.67533210006922" lon="13.9384358518195"><ele>95.0</ele><time>2026-04-19T15:33:52.999Z</time></trkpt><trkpt lat="42.67490856156554" lon="13.938462378749241"><ele>94.0</ele><time>2026-04-19T15:33:53.999Z</time></trkpt><trkpt lat="42.67448587099975" lon="13.93852495787319"><ele>94.0</ele><time>2026-04-19T15:33:54.999Z</time></trkpt><trkpt lat="42.67405819932025" lon="13.938622961123762"><ele>94.0</ele><time>2026-04-19T15:33:55.999Z</time></trkpt><trkpt lat="42.67364673220201" lon="13.938761428084511"><ele>94.5</ele><time>2026-04-19T15:33:56.999Z</time></trkpt><trkpt lat="42.67323956345489" lon="13.93892686697072"><ele>95.0</ele><time>2026-04-19T15:33:57.999Z</time></trkpt><trkpt lat="42.67285012957333" lon="13.939096797253182"><ele>94.5</ele><time>2026-04-19T15:33:58.999Z</time></trkpt><trkpt lat="42.672478505037994" lon="13.939334192694162"><ele>94.0</ele><time>2026-04-19T15:33:59.999Z</time></trkpt><trkpt lat="42.672118533679786" lon="13.939605369335146"><ele>94.5</ele><time>2026-04-19T15:34:00.999Z</time></trkpt><trkpt lat="42.67177731112961" lon="13.939887405491598"><ele>95.0</ele><time>2026-04-19T15:34:01.999Z</time></trkpt><trkpt lat="42.67144875050757" lon="13.94016295967918"><ele>94.5</ele><time>2026-04-19T15:34:02.999Z</time></trkpt><trkpt lat="42.67111158491405" lon="13.940438522532299"><ele>94.0</ele><time>2026-04-19T15:34:03.999Z</time></trkpt><trkpt lat="42.67077632290517" lon="13.9407036427282"><ele>94.0</ele><time>2026-04-19T15:34:04.999Z</time></trkpt><trkpt lat="42.67044310296171" lon="13.94095293626279"><ele>94.0</ele><time>2026-04-19T15:34:05.999Z</time></trkpt><trkpt lat="42.67010731141086" lon="13.941209036021435"><ele>94.0</ele><time>2026-04-19T15:34:06.999Z</time></trkpt><trkpt lat="42.66975140945266" lon="13.941477019319688"><ele>94.0</ele><time>2026-04-19T15:34:07.999Z</time></trkpt><trkpt lat="42.669389086422605" lon="13.94175243235921"><ele>94.5</ele><time>2026-04-19T15:34:08.999Z</time></trkpt><trkpt lat="42.66901722881672" lon="13.942027910540892"><ele>95.0</ele><time>2026-04-19T15:34:10Z</time></trkpt><trkpt lat="42.66864169151956" lon="13.942316114957363"><ele>94.0</ele><time>2026-04-19T15:34:11Z</time></trkpt><trkpt lat="42.668262845538756" lon="13.942598955796791"><ele>93.0</ele><time>2026-04-19T15:34:12Z</time></trkpt><trkpt lat="42.66788892597727" lon="13.94288338287743"><ele>93.0</ele><time>2026-04-19T15:34:13Z</time></trkpt><trkpt lat="42.66751052628934" lon="13.943174469287941"><ele>93.0</ele><time>2026-04-19T15:34:14Z</time></trkpt><trkpt lat="42.667136279173235" lon="13.943458837904211"><ele>89.5</ele><time>2026-04-19T15:34:15Z</time></trkpt><trkpt lat="42.66675872890982" lon="13.943746679448049"><ele>86.0</ele><time>2026-04-19T15:34:16Z</time></trkpt><trkpt lat="42.66639110019871" lon="13.944022950195777"><ele>84.0</ele><time>2026-04-19T15:34:17Z</time></trkpt><trkpt lat="42.66602958949927" lon="13.944297341064754"><ele>82.0</ele><time>2026-04-19T15:34:18Z</time></trkpt><trkpt lat="42.66568524152076" lon="13.944557180494503"><ele>82.0</ele><time>2026-04-19T15:34:19Z</time></trkpt><trkpt lat="42.665358010202" lon="13.944808062130276"><ele>82.0</ele><time>2026-04-19T15:34:20Z</time></trkpt><trkpt lat="42.66504136574267" lon="13.945047568100842"><ele>80.5</ele><time>2026-04-19T15:34:21Z</time></trkpt><trkpt lat="42.664740328156455" lon="13.94527634774764"><ele>79.0</ele><time>2026-04-19T15:34:22Z</time></trkpt><trkpt lat="42.664463762279745" lon="13.945496024428664"><ele>77.5</ele><time>2026-04-19T15:34:23Z</time></trkpt><trkpt lat="42.66417302993404" lon="13.945719493012783"><ele>76.0</ele><time>2026-04-19T15:34:24Z</time></trkpt><trkpt lat="42.663888139446065" lon="13.945937739332251"><ele>78.0</ele><time>2026-04-19T15:34:25Z</time></trkpt><trkpt lat="42.66360580972847" lon="13.946151774386564"><ele>80.0</ele><time>2026-04-19T15:34:26Z</time></trkpt><trkpt lat="42.66331829169028" lon="13.946360326491131"><ele>80.0</ele><time>2026-04-19T15:34:27Z</time></trkpt><trkpt lat="42.663030274378336" lon="13.946557285792473"><ele>80.0</ele><time>2026-04-19T15:34:28Z</time></trkpt><trkpt lat="42.66276311396392" lon="13.946785655399486"><ele>78.5</ele><time>2026-04-19T15:34:29Z</time></trkpt><trkpt lat="42.66249080241524" lon="13.947032132438974"><ele>77.0</ele><time>2026-04-19T15:34:30Z</time></trkpt><trkpt lat="42.66221011698411" lon="13.947251006832081"><ele>76.0</ele><time>2026-04-19T15:34:31Z</time></trkpt><trkpt lat="42.66192202128475" lon="13.947519125610265"><ele>75.0</ele><time>2026-04-19T15:34:32Z</time></trkpt><trkpt lat="42.66163415157115" lon="13.947818198074252"><ele>75.0</ele><time>2026-04-19T15:34:33Z</time></trkpt><trkpt lat="42.66134415342871" lon="13.948142257200725"><ele>75.0</ele><time>2026-04-19T15:34:34Z</time></trkpt><trkpt lat="42.661052526322536" lon="13.94850202978939"><ele>75.0</ele><time>2026-04-19T15:34:35Z</time></trkpt><trkpt lat="42.6607686813183" lon="13.948891970827052"><ele>75.0</ele><time>2026-04-19T15:34:36Z</time></trkpt><trkpt lat="42.66049771748284" lon="13.949308134153743"><ele>74.5</ele><time>2026-04-19T15:34:37Z</time></trkpt><trkpt lat="42.66023509293825" lon="13.949751242271123"><ele>74.0</ele><time>2026-04-19T15:34:38Z</time></trkpt><trkpt lat="42.65999196465983" lon="13.950189696566309"><ele>75.5</ele><time>2026-04-19T15:34:39Z</time></trkpt><trkpt lat="42.659764526236074" lon="13.950636695509303"><ele>77.0</ele><time>2026-04-19T15:34:40Z</time></trkpt><trkpt lat="42.65954004835227" lon="13.951121686495854"><ele>73.0</ele><time>2026-04-19T15:34:41Z</time></trkpt><trkpt lat="42.65932856294675" lon="13.95162376385814"><ele>69.0</ele><time>2026-04-19T15:34:42Z</time></trkpt><trkpt lat="42.659122835370795" lon="13.952143241299217"><ele>70.5</ele><time>2026-04-19T15:34:43Z</time></trkpt><trkpt lat="42.65891136035123" lon="13.95267400658329"><ele>72.0</ele><time>2026-04-19T15:34:44Z</time></trkpt><trkpt lat="42.65869684692281" lon="13.953205779028616"><ele>69.0</ele><time>2026-04-19T15:34:45Z</time></trkpt><trkpt lat="42.65847595676145" lon="13.95373615460331"><ele>66.0</ele><time>2026-04-19T15:34:46Z</time></trkpt><trkpt lat="42.65825698516792" lon="13.954274127484329"><ele>66.0</ele><time>2026-04-19T15:34:47Z</time></trkpt><trkpt lat="42.658042539010275" lon="13.954813727588393"><ele>66.5</ele><time>2026-04-19T15:34:48Z</time></trkpt><trkpt lat="42.657835940203874" lon="13.955343407249336"><ele>67.0</ele><time>2026-04-19T15:34:49Z</time></trkpt><trkpt lat="42.65763980697833" lon="13.95588003422435"><ele>67.0</ele><time>2026-04-19T15:34:50Z</time></trkpt><trkpt lat="42.65746578080005" lon="13.956417249237573"><ele>67.0</ele><time>2026-04-19T15:34:51Z</time></trkpt><trkpt lat="42.657313912649435" lon="13.956980311316284"><ele>68.5</ele><time>2026-04-19T15:34:52Z</time></trkpt><trkpt lat="42.657181223604894" lon="13.95754627435481"><ele>70.0</ele><time>2026-04-19T15:34:53Z</time></trkpt><trkpt lat="42.65706629377325" lon="13.958112351931222"><ele>72.5</ele><time>2026-04-19T15:34:54Z</time></trkpt><trkpt lat="42.6569553431067" lon="13.95867223002708"><ele>75.0</ele><time>2026-04-19T15:34:55Z</time></trkpt><trkpt lat="42.65683458305506" lon="13.959229423066583"><ele>70.0</ele><time>2026-04-19T15:34:56Z</time></trkpt><trkpt lat="42.65669356070864" lon="13.959781189416898"><ele>65.0</ele><time>2026-04-19T15:34:56.999Z</time></trkpt><trkpt lat="42.656527076341845" lon="13.960325952006738"><ele>65.0</ele><time>2026-04-19T15:34:57.999Z</time></trkpt><trkpt lat="42.656343596613205" lon="13.960855662777231"><ele>65.0</ele><time>2026-04-19T15:34:58.999Z</time></trkpt><trkpt lat="42.65614585522045" lon="13.961361579694936"><ele>64.0</ele><time>2026-04-19T15:34:59.999Z</time></trkpt><trkpt lat="42.65594036097775" lon="13.961831738307206"><ele>63.0</ele><time>2026-04-19T15:35:00.999Z</time></trkpt><trkpt lat="42.65574417449536" lon="13.962273625117568"><ele>68.5</ele><time>2026-04-19T15:35:01.999Z</time></trkpt><trkpt lat="42.65555587617889" lon="13.962688069270284"><ele>74.0</ele><time>2026-04-19T15:35:02.999Z</time></trkpt><trkpt lat="42.65537731104546" lon="13.963093299013915"><ele>67.0</ele><time>2026-04-19T15:35:03.999Z</time></trkpt><trkpt lat="42.65519751165361" lon="13.963508851013875"><ele>60.0</ele><time>2026-04-19T15:35:04.999Z</time></trkpt><trkpt lat="42.655015639603555" lon="13.963922047276549"><ele>59.0</ele><time>2026-04-19T15:35:05.999Z</time></trkpt><trkpt lat="42.65483402602249" lon="13.96433020571691"><ele>58.0</ele><time>2026-04-19T15:35:06.999Z</time></trkpt><trkpt lat="42.654651257018614" lon="13.964734213539016"><ele>56.5</ele><time>2026-04-19T15:35:07.999Z</time></trkpt><trkpt lat="42.654467288366384" lon="13.965138440007308"><ele>55.0</ele><time>2026-04-19T15:35:08.999Z</time></trkpt><trkpt lat="42.65429073827312" lon="13.965523135283664"><ele>60.5</ele><time>2026-04-19T15:35:09.999Z</time></trkpt><trkpt lat="42.65410753676969" lon="13.96588695163415"><ele>66.0</ele><time>2026-04-19T15:35:10.999Z</time></trkpt><trkpt lat="42.6539124075695" lon="13.96623219156722"><ele>66.0</ele><time>2026-04-19T15:35:11.999Z</time></trkpt><trkpt lat="42.65369361729425" lon="13.966576080313551"><ele>66.0</ele><time>2026-04-19T15:35:12.999Z</time></trkpt><trkpt lat="42.65345206128983" lon="13.966918282291607"><ele>64.0</ele><time>2026-04-19T15:35:13.999Z</time></trkpt><trkpt lat="42.653191791896454" lon="13.967241770093795"><ele>62.0</ele><time>2026-04-19T15:35:14.999Z</time></trkpt><trkpt lat="42.652910330964374" lon="13.967544558994897"><ele>63.0</ele><time>2026-04-19T15:35:15.999Z</time></trkpt><trkpt lat="42.65262952854106" lon="13.967839156622308"><ele>64.0</ele><time>2026-04-19T15:35:16.999Z</time></trkpt><trkpt lat="42.652343849435134" lon="13.968119938041552"><ele>64.0</ele><time>2026-04-19T15:35:17.999Z</time></trkpt><trkpt lat="42.652058557069424" lon="13.968399335041022"><ele>64.0</ele><time>2026-04-19T15:35:18.999Z</time></trkpt><trkpt lat="42.65176729417" lon="13.968686276995287"><ele>64.0</ele><time>2026-04-19T15:35:19.999Z</time></trkpt><trkpt lat="42.651480595864435" lon="13.968982041954517"><ele>64.0</ele><time>2026-04-19T15:35:20.999Z</time></trkpt><trkpt lat="42.65120157803435" lon="13.969268143226131"><ele>64.0</ele><time>2026-04-19T15:35:21.999Z</time></trkpt><trkpt lat="42.65092338307006" lon="13.96954688931318"><ele>64.0</ele><time>2026-04-19T15:35:22.999Z</time></trkpt><trkpt lat="42.65064979227593" lon="13.969825599740792"><ele>67.0</ele><time>2026-04-19T15:35:23.999Z</time></trkpt><trkpt lat="42.65037743507302" lon="13.970109428210746"><ele>70.0</ele><time>2026-04-19T15:35:24.999Z</time></trkpt><trkpt lat="42.65010463596688" lon="13.970398795502595"><ele>62.5</ele><time>2026-04-19T15:35:25.999Z</time></trkpt><trkpt lat="42.64982234817029" lon="13.970690705341797"><ele>55.0</ele><time>2026-04-19T15:35:26.999Z</time></trkpt><trkpt lat="42.64952870316022" lon="13.970989807189204"><ele>52.0</ele><time>2026-04-19T15:35:27.999Z</time></trkpt><trkpt lat="42.64921352779413" lon="13.971306693826579"><ele>49.0</ele><time>2026-04-19T15:35:28.999Z</time></trkpt><trkpt lat="42.64889683877882" lon="13.971625011469273"><ele>48.0</ele><time>2026-04-19T15:35:29.999Z</time></trkpt><trkpt lat="42.648595388634085" lon="13.971928590928982"><ele>47.0</ele><time>2026-04-19T15:35:30.999Z</time></trkpt><trkpt lat="42.64829027105318" lon="13.972242192723211"><ele>46.0</ele><time>2026-04-19T15:35:31.999Z</time></trkpt><trkpt lat="42.64798307723525" lon="13.972557697254459"><ele>45.0</ele><time>2026-04-19T15:35:32.999Z</time></trkpt><trkpt lat="42.6476887591714" lon="13.972867168419892"><ele>44.5</ele><time>2026-04-19T15:35:33.999Z</time></trkpt><trkpt lat="42.64739930125914" lon="13.97317654021761"><ele>44.0</ele><time>2026-04-19T15:35:34.999Z</time></trkpt><trkpt lat="42.64711157965013" lon="13.973486542313715"><ele>43.0</ele><time>2026-04-19T15:35:35.999Z</time></trkpt><trkpt lat="42.646826197086845" lon="13.973799648849173"><ele>42.0</ele><time>2026-04-19T15:35:36.999Z</time></trkpt><trkpt lat="42.64653727643254" lon="13.974124238346894"><ele>41.5</ele><time>2026-04-19T15:35:37.999Z</time></trkpt><trkpt lat="42.64624914064564" lon="13.97445160543757"><ele>41.0</ele><time>2026-04-19T15:35:38.999Z</time></trkpt><trkpt lat="42.64596904567392" lon="13.974770687188657"><ele>39.0</ele><time>2026-04-19T15:35:39.999Z</time></trkpt><trkpt lat="42.64569343176546" lon="13.97508851053698"><ele>37.0</ele><time>2026-04-19T15:35:40.999Z</time></trkpt><trkpt lat="42.64543243621697" lon="13.975395359072094"><ele>37.0</ele><time>2026-04-19T15:35:41.999Z</time></trkpt><trkpt lat="42.64517361033286" lon="13.975704183788814"><ele>37.0</ele><time>2026-04-19T15:35:42.999Z</time></trkpt><trkpt lat="42.644918322290124" lon="13.976013518720197"><ele>36.5</ele><time>2026-04-19T15:35:43.999Z</time></trkpt><trkpt lat="42.6446649322526" lon="13.976322739839967"><ele>36.0</ele><time>2026-04-19T15:35:44.999Z</time></trkpt><trkpt lat="42.644407551965045" lon="13.97663884379569"><ele>33.0</ele><time>2026-04-19T15:35:45.999Z</time></trkpt><trkpt lat="42.64414903486909" lon="13.976959478324527"><ele>30.0</ele><time>2026-04-19T15:35:46.999Z</time></trkpt><trkpt lat="42.64388801421387" lon="13.977278776078178"><ele>29.5</ele><time>2026-04-19T15:35:47.999Z</time></trkpt><trkpt lat="42.64363835349287" lon="13.977581329907597"><ele>29.0</ele><time>2026-04-19T15:35:48.999Z</time></trkpt><trkpt lat="42.64340018014708" lon="13.977871351548169"><ele>29.0</ele><time>2026-04-19T15:35:49.999Z</time></trkpt><trkpt lat="42.64317714155566" lon="13.978147391971621"><ele>29.0</ele><time>2026-04-19T15:35:50.999Z</time></trkpt><trkpt lat="42.64295386959567" lon="13.978424911267465"><ele>27.0</ele><time>2026-04-19T15:35:51.999Z</time></trkpt><trkpt lat="42.64273645468059" lon="13.9786990172174"><ele>25.0</ele><time>2026-04-19T15:35:52.999Z</time></trkpt><trkpt lat="42.642520716465484" lon="13.978971886629017"><ele>24.5</ele><time>2026-04-19T15:35:53.999Z</time></trkpt><trkpt lat="42.64230581956652" lon="13.979235541981573"><ele>24.0</ele><time>2026-04-19T15:35:54.999Z</time></trkpt><trkpt lat="42.642092619650505" lon="13.979498355137062"><ele>24.0</ele><time>2026-04-19T15:35:55.999Z</time></trkpt><trkpt lat="42.64189272543627" lon="13.9797485177775"><ele>24.0</ele><time>2026-04-19T15:35:56.999Z</time></trkpt><trkpt lat="42.641693704130844" lon="13.979996620796657"><ele>23.0</ele><time>2026-04-19T15:35:57.999Z</time></trkpt><trkpt lat="42.64150349252025" lon="13.980232325711265"><ele>22.0</ele><time>2026-04-19T15:35:58.999Z</time></trkpt><trkpt lat="42.641317301857114" lon="13.980459504623687"><ele>22.5</ele><time>2026-04-19T15:35:59.999Z</time></trkpt><trkpt lat="42.641131938357915" lon="13.980684661226878"><ele>23.0</ele><time>2026-04-19T15:36:00.999Z</time></trkpt><trkpt lat="42.64094832516457" lon="13.980906090334559"><ele>22.0</ele><time>2026-04-19T15:36:01.999Z</time></trkpt><trkpt lat="42.64075926876447" lon="13.981140503036876"><ele>21.0</ele><time>2026-04-19T15:36:02.999Z</time></trkpt><trkpt lat="42.640563714239605" lon="13.981380504669453"><ele>21.0</ele><time>2026-04-19T15:36:03.999Z</time></trkpt><trkpt lat="42.64036413250169" lon="13.98163324684256"><ele>21.0</ele><time>2026-04-19T15:36:04.999Z</time></trkpt><trkpt lat="42.64016495988612" lon="13.981884956548392"><ele>20.5</ele><time>2026-04-19T15:36:05.999Z</time></trkpt><trkpt lat="42.63996368996769" lon="13.982135834470192"><ele>20.0</ele><time>2026-04-19T15:36:06.999Z</time></trkpt><trkpt lat="42.63976219803841" lon="13.98238190506825"><ele>19.5</ele><time>2026-04-19T15:36:07.999Z</time></trkpt><trkpt lat="42.63956224670528" lon="13.98263196906454"><ele>19.0</ele><time>2026-04-19T15:36:08.999Z</time></trkpt><trkpt lat="42.63937196242927" lon="13.982873855971034"><ele>19.0</ele><time>2026-04-19T15:36:09.999Z</time></trkpt><trkpt lat="42.63918419239128" lon="13.98310583567108"><ele>19.0</ele><time>2026-04-19T15:36:10.999Z</time></trkpt><trkpt lat="42.63899641719105" lon="13.983334406971014"><ele>19.0</ele><time>2026-04-19T15:36:12Z</time></trkpt><trkpt lat="42.63880860406696" lon="13.983560405063631"><ele>19.0</ele><time>2026-04-19T15:36:13Z</time></trkpt><trkpt lat="42.63861788916288" lon="13.983792132600696"><ele>19.0</ele><time>2026-04-19T15:36:14Z</time></trkpt><trkpt lat="42.63842664653878" lon="13.984026398278035"><ele>19.0</ele><time>2026-04-19T15:36:15Z</time></trkpt><trkpt lat="42.63823498842571" lon="13.984264115335947"><ele>18.0</ele><time>2026-04-19T15:36:16.001Z</time></trkpt><trkpt lat="42.6380511626802" lon="13.984494984872617"><ele>17.0</ele><time>2026-04-19T15:36:17.001Z</time></trkpt><trkpt lat="42.6378662800875" lon="13.984721124517462"><ele>18.0</ele><time>2026-04-19T15:36:18.001Z</time></trkpt><trkpt lat="42.63768590865784" lon="13.9849475395442"><ele>19.0</ele><time>2026-04-19T15:36:19.001Z</time></trkpt><trkpt lat="42.63751114949016" lon="13.985169715894775"><ele>19.5</ele><time>2026-04-19T15:36:20.001Z</time></trkpt><trkpt lat="42.63733015641538" lon="13.985399069093212"><ele>20.0</ele><time>2026-04-19T15:36:21.001Z</time></trkpt><trkpt lat="42.63715004848665" lon="13.985622628780462"><ele>18.5</ele><time>2026-04-19T15:36:22.001Z</time></trkpt><trkpt lat="42.63695936165818" lon="13.985861392937325"><ele>17.0</ele><time>2026-04-19T15:36:23.001Z</time></trkpt><trkpt lat="42.6367615851231" lon="13.986107469543814"><ele>17.0</ele><time>2026-04-19T15:36:24.001Z</time></trkpt><trkpt lat="42.63654755582102" lon="13.986371684441645"><ele>17.0</ele><time>2026-04-19T15:36:25.001Z</time></trkpt><trkpt lat="42.636315994070394" lon="13.986654158752476"><ele>18.0</ele><time>2026-04-19T15:36:26.001Z</time></trkpt><trkpt lat="42.63608273103097" lon="13.986939126768394"><ele>19.0</ele><time>2026-04-19T15:36:27.001Z</time></trkpt><trkpt lat="42.63584074419041" lon="13.987250328206985"><ele>18.5</ele><time>2026-04-19T15:36:28.001Z</time></trkpt><trkpt lat="42.63560070058189" lon="13.987555834559673"><ele>18.0</ele><time>2026-04-19T15:36:29.001Z</time></trkpt><trkpt lat="42.63534573086775" lon="13.987871850027428"><ele>19.0</ele><time>2026-04-19T15:36:30.001Z</time></trkpt><trkpt lat="42.635084701118174" lon="13.988184718074896"><ele>20.0</ele><time>2026-04-19T15:36:31.001Z</time></trkpt><trkpt lat="42.63483787353226" lon="13.988489976180922"><ele>20.0</ele><time>2026-04-19T15:36:32.001Z</time></trkpt><trkpt lat="42.63458993988797" lon="13.988795430793807"><ele>20.0</ele><time>2026-04-19T15:36:33.001Z</time></trkpt><trkpt lat="42.63434526148108" lon="13.98909574599824"><ele>21.0</ele><time>2026-04-19T15:36:34.001Z</time></trkpt><trkpt lat="42.634103441312796" lon="13.98939577141731"><ele>22.0</ele><time>2026-04-19T15:36:35.001Z</time></trkpt><trkpt lat="42.63387001786949" lon="13.989688366748172"><ele>22.0</ele><time>2026-04-19T15:36:36.001Z</time></trkpt><trkpt lat="42.63364020399149" lon="13.989974079683629"><ele>22.0</ele><time>2026-04-19T15:36:37.001Z</time></trkpt><trkpt lat="42.63340385526235" lon="13.990260496641307"><ele>21.5</ele><time>2026-04-19T15:36:38.001Z</time></trkpt><trkpt lat="42.6331670468365" lon="13.990550410661978"><ele>21.0</ele><time>2026-04-19T15:36:39.001Z</time></trkpt><trkpt lat="42.63292653025146" lon="13.990837742723382"><ele>22.0</ele><time>2026-04-19T15:36:40.001Z</time></trkpt><trkpt lat="42.63268230185186" lon="13.99112446559931"><ele>23.0</ele><time>2026-04-19T15:36:41.001Z</time></trkpt><trkpt lat="42.632443074400484" lon="13.991412895926779"><ele>22.5</ele><time>2026-04-19T15:36:42.001Z</time></trkpt><trkpt lat="42.632194549542795" lon="13.991716836344324"><ele>22.0</ele><time>2026-04-19T15:36:43.001Z</time></trkpt><trkpt lat="42.63192907268934" lon="13.992034159681024"><ele>22.0</ele><time>2026-04-19T15:36:44.001Z</time></trkpt><trkpt lat="42.631649860195196" lon="13.992371866110842"><ele>22.0</ele><time>2026-04-19T15:36:45.001Z</time></trkpt><trkpt lat="42.63136340377687" lon="13.992729473739386"><ele>22.5</ele><time>2026-04-19T15:36:46.001Z</time></trkpt><trkpt lat="42.63107630422666" lon="13.99311505065872"><ele>23.0</ele><time>2026-04-19T15:36:47.001Z</time></trkpt><trkpt lat="42.630785806569456" lon="13.993510549864007"><ele>21.5</ele><time>2026-04-19T15:36:48.001Z</time></trkpt><trkpt lat="42.630484107798154" lon="13.993911306976957"><ele>20.0</ele><time>2026-04-19T15:36:49.001Z</time></trkpt><trkpt lat="42.63016917170779" lon="13.994301279315026"><ele>20.0</ele><time>2026-04-19T15:36:50.001Z</time></trkpt><trkpt lat="42.629860627530775" lon="13.99467067678367"><ele>20.0</ele><time>2026-04-19T15:36:51.001Z</time></trkpt><trkpt lat="42.62956292321208" lon="13.995029484436996"><ele>20.5</ele><time>2026-04-19T15:36:52.001Z</time></trkpt><trkpt lat="42.62926739080541" lon="13.995393941341552"><ele>21.0</ele><time>2026-04-19T15:36:53.001Z</time></trkpt><trkpt lat="42.628976557809644" lon="13.995756312979891"><ele>21.0</ele><time>2026-04-19T15:36:54.001Z</time></trkpt><trkpt lat="42.62869129316069" lon="13.996108802256842"><ele>21.0</ele><time>2026-04-19T15:36:55.001Z</time></trkpt><trkpt lat="42.62841172185968" lon="13.996453593440897"><ele>20.5</ele><time>2026-04-19T15:36:56Z</time></trkpt><trkpt lat="42.62813715709354" lon="13.996791438828097"><ele>20.0</ele><time>2026-04-19T15:36:57Z</time></trkpt><trkpt lat="42.62786463602105" lon="13.997123543863072"><ele>21.0</ele><time>2026-04-19T15:36:58Z</time></trkpt><trkpt lat="42.62759446728075" lon="13.997442039546332"><ele>22.0</ele><time>2026-04-19T15:36:59Z</time></trkpt><trkpt lat="42.62732538825603" lon="13.997746302197845"><ele>22.0</ele><time>2026-04-19T15:37:00Z</time></trkpt><trkpt lat="42.62706811734663" lon="13.998025337946371"><ele>22.0</ele><time>2026-04-19T15:37:01Z</time></trkpt><trkpt lat="42.626818131016236" lon="13.998302070363955"><ele>23.0</ele><time>2026-04-19T15:37:02Z</time></trkpt><trkpt lat="42.62657623635411" lon="13.998580928936613"><ele>24.0</ele><time>2026-04-19T15:37:03Z</time></trkpt><trkpt lat="42.62633958676742" lon="13.998866554738557"><ele>29.0</ele><time>2026-04-19T15:37:04Z</time></trkpt><trkpt lat="42.62610659639727" lon="13.999150230646139"><ele>34.0</ele><time>2026-04-19T15:37:05Z</time></trkpt><trkpt lat="42.625883163486314" lon="13.999437792161158"><ele>34.0</ele><time>2026-04-19T15:37:06Z</time></trkpt><trkpt lat="42.62565821157863" lon="13.999711778572074"><ele>34.0</ele><time>2026-04-19T15:37:07Z</time></trkpt><trkpt lat="42.62541830293986" lon="13.999984473658145"><ele>43.0</ele><time>2026-04-19T15:37:08Z</time></trkpt><trkpt lat="42.62516090301259" lon="14.000266956371107"><ele>52.0</ele><time>2026-04-19T15:37:09Z</time></trkpt><trkpt lat="42.6249024956918" lon="14.00055395620311"><ele>50.0</ele><time>2026-04-19T15:37:10Z</time></trkpt><trkpt lat="42.62464569658385" lon="14.000841058509808"><ele>48.0</ele><time>2026-04-19T15:37:11Z</time></trkpt><trkpt lat="42.624388076906286" lon="14.001129371428767"><ele>58.5</ele><time>2026-04-19T15:37:12Z</time></trkpt><trkpt lat="42.624121715165394" lon="14.001465539068542"><ele>69.0</ele><time>2026-04-19T15:37:13.071Z</time></trkpt><trkpt lat="42.62385635843344" lon="14.001793296547534"><ele>79.5</ele><time>2026-04-19T15:37:14.072Z</time></trkpt><trkpt lat="42.62357494165607" lon="14.002140986307323"><ele>90.0</ele><time>2026-04-19T15:37:15.07Z</time></trkpt><trkpt lat="42.6232838542238" lon="14.0025022165123"><ele>92.0</ele><time>2026-04-19T15:37:16.073Z</time></trkpt><trkpt lat="42.62301720996753" lon="14.002833113509261"><ele>94.0</ele><time>2026-04-19T15:37:17.066Z</time></trkpt><trkpt lat="42.622792956993365" lon="14.003111403563388"><ele>94.5</ele><time>2026-04-19T15:37:18.033Z</time></trkpt><trkpt lat="42.622544236634425" lon="14.003419463883574"><ele>95.0</ele><time>2026-04-19T15:37:19.031Z</time></trkpt><trkpt lat="42.62109060101802" lon="14.005341226905257"><ele>86.0</ele><time>2026-04-19T15:37:22.484Z</time></trkpt><trkpt lat="42.62050148991713" lon="14.006091706622634"><ele>67.0</ele><time>2026-04-19T15:37:23.482Z</time></trkpt><trkpt lat="42.61995823384513" lon="14.006904787470601"><ele>43.0</ele><time>2026-04-19T15:37:24.482Z</time></trkpt><trkpt lat="42.61921256029343" lon="14.008348091896499"><ele>43.0</ele><time>2026-04-19T15:37:34Z</time></trkpt><trkpt lat="42.61904178182991" lon="14.008723131705175"><ele>43.0</ele><time>2026-04-19T15:37:35Z</time></trkpt><trkpt lat="42.61902416274407" lon="14.008919509660199"><ele>42.5</ele><time>2026-04-19T15:37:36Z</time></trkpt><trkpt lat="42.618829360547274" lon="14.009431788000843"><ele>42.0</ele><time>2026-04-19T15:37:37Z</time></trkpt><trkpt lat="42.618622880047496" lon="14.009865608007937"><ele>48.5</ele><time>2026-04-19T15:37:38Z</time></trkpt><trkpt lat="42.618499805166785" lon="14.010264656313867"><ele>55.0</ele><time>2026-04-19T15:37:39Z</time></trkpt><trkpt lat="42.61838523230824" lon="14.010656060993576"><ele>55.0</ele><time>2026-04-19T15:37:40Z</time></trkpt><trkpt lat="42.61827887334439" lon="14.011052616993506"><ele>55.0</ele><time>2026-04-19T15:37:41Z</time></trkpt><trkpt lat="42.61818867484897" lon="14.011463206471882"><ele>51.5</ele><time>2026-04-19T15:37:42Z</time></trkpt><trkpt lat="42.618109511458954" lon="14.011881898973037"><ele>48.0</ele><time>2026-04-19T15:37:43Z</time></trkpt><trkpt lat="42.61803159055772" lon="14.01233256136869"><ele>47.0</ele><time>2026-04-19T15:37:44Z</time></trkpt><trkpt lat="42.61793875631689" lon="14.01281012740092"><ele>46.0</ele><time>2026-04-19T15:37:45Z</time></trkpt><trkpt lat="42.617835746836214" lon="14.01330347058698"><ele>47.0</ele><time>2026-04-19T15:37:46Z</time></trkpt><trkpt lat="42.617727878987914" lon="14.013795877211416"><ele>48.0</ele><time>2026-04-19T15:37:47Z</time></trkpt><trkpt lat="42.61762478217068" lon="14.014279155375691"><ele>48.0</ele><time>2026-04-19T15:37:48Z</time></trkpt><trkpt lat="42.61752217885344" lon="14.01476228022862"><ele>48.0</ele><time>2026-04-19T15:37:49Z</time></trkpt><trkpt lat="42.61742129209921" lon="14.015247388516725"><ele>46.0</ele><time>2026-04-19T15:37:50Z</time></trkpt><trkpt lat="42.61731989619719" lon="14.015741411111224"><ele>44.0</ele><time>2026-04-19T15:37:51Z</time></trkpt><trkpt lat="42.61721638709041" lon="14.016254144417267"><ele>41.5</ele><time>2026-04-19T15:37:52Z</time></trkpt><trkpt lat="42.617111929871456" lon="14.01679262191231"><ele>39.0</ele><time>2026-04-19T15:37:53Z</time></trkpt><trkpt lat="42.61700452647163" lon="14.017336612239962"><ele>37.5</ele><time>2026-04-19T15:37:54Z</time></trkpt><trkpt lat="42.616899765097976" lon="14.01785849770954"><ele>36.0</ele><time>2026-04-19T15:37:55Z</time></trkpt><trkpt lat="42.61679861383134" lon="14.018345898040389"><ele>36.0</ele><time>2026-04-19T15:37:56Z</time></trkpt><trkpt lat="42.616699947323866" lon="14.018821892665361"><ele>36.0</ele><time>2026-04-19T15:37:57Z</time></trkpt><trkpt lat="42.616599530073294" lon="14.019298597871748"><ele>38.5</ele><time>2026-04-19T15:37:58Z</time></trkpt><trkpt lat="42.616498567806836" lon="14.019778826164426"><ele>41.0</ele><time>2026-04-19T15:37:59Z</time></trkpt><trkpt lat="42.61639593179953" lon="14.02025604059313"><ele>42.0</ele><time>2026-04-19T15:38:00Z</time></trkpt><trkpt lat="42.6162983267633" lon="14.020719783368198"><ele>43.0</ele><time>2026-04-19T15:38:01Z</time></trkpt><trkpt lat="42.616206686494195" lon="14.02117174310234"><ele>41.0</ele><time>2026-04-19T15:38:02Z</time></trkpt><trkpt lat="42.61612019300113" lon="14.021604983498948"><ele>39.0</ele><time>2026-04-19T15:38:03Z</time></trkpt><trkpt lat="42.61603958202982" lon="14.022019006998203"><ele>39.0</ele><time>2026-04-19T15:38:04Z</time></trkpt><trkpt lat="42.615957764007405" lon="14.022409653789698"><ele>39.0</ele><time>2026-04-19T15:38:05Z</time></trkpt><trkpt lat="42.61587643520148" lon="14.022784321174775"><ele>39.5</ele><time>2026-04-19T15:38:06Z</time></trkpt><trkpt lat="42.61579474335906" lon="14.023150903683986"><ele>40.0</ele><time>2026-04-19T15:38:07Z</time></trkpt><trkpt lat="42.6157137323092" lon="14.023524393578121"><ele>41.0</ele><time>2026-04-19T15:38:08Z</time></trkpt><trkpt lat="42.6156358708654" lon="14.023915486702027"><ele>42.0</ele><time>2026-04-19T15:38:09Z</time></trkpt><trkpt lat="42.61555391857573" lon="14.024321134546604"><ele>45.5</ele><time>2026-04-19T15:38:10Z</time></trkpt><trkpt lat="42.61546890365264" lon="14.024728294446064"><ele>49.0</ele><time>2026-04-19T15:38:11Z</time></trkpt><trkpt lat="42.61537935042383" lon="14.025141829700615"><ele>43.5</ele><time>2026-04-19T15:38:12Z</time></trkpt><trkpt lat="42.61529028811746" lon="14.025557823587395"><ele>38.0</ele><time>2026-04-19T15:38:13Z</time></trkpt><trkpt lat="42.615193426862966" lon="14.025990154784813"><ele>38.0</ele><time>2026-04-19T15:38:14Z</time></trkpt><trkpt lat="42.61508489784924" lon="14.026456344903401"><ele>38.0</ele><time>2026-04-19T15:38:15Z</time></trkpt><trkpt lat="42.61498237154573" lon="14.026938307275795"><ele>37.5</ele><time>2026-04-19T15:38:16Z</time></trkpt><trkpt lat="42.614882998717704" lon="14.02743792913085"><ele>37.0</ele><time>2026-04-19T15:38:17Z</time></trkpt><trkpt lat="42.61477836452516" lon="14.027945542022021"><ele>41.5</ele><time>2026-04-19T15:38:18Z</time></trkpt><trkpt lat="42.614673160055915" lon="14.028427692023355"><ele>46.0</ele><time>2026-04-19T15:38:19Z</time></trkpt><trkpt lat="42.61456725723215" lon="14.028875354103826"><ele>40.0</ele><time>2026-04-19T15:38:20Z</time></trkpt><trkpt lat="42.61445390279998" lon="14.029305800609134"><ele>34.0</ele><time>2026-04-19T15:38:21.001Z</time></trkpt><trkpt lat="42.61433579491299" lon="14.029730431952926"><ele>35.0</ele><time>2026-04-19T15:38:22.001Z</time></trkpt><trkpt lat="42.61421116430963" lon="14.030140177863602"><ele>36.0</ele><time>2026-04-19T15:38:23.001Z</time></trkpt><trkpt lat="42.6140833059883" lon="14.03054095801272"><ele>37.5</ele><time>2026-04-19T15:38:24.001Z</time></trkpt><trkpt lat="42.61395564698641" lon="14.030921154412765"><ele>39.0</ele><time>2026-04-19T15:38:25.001Z</time></trkpt><trkpt lat="42.61382590578499" lon="14.031297884444882"><ele>42.5</ele><time>2026-04-19T15:38:26.001Z</time></trkpt><trkpt lat="42.61368500814917" lon="14.031685115597373"><ele>46.0</ele><time>2026-04-19T15:38:27.001Z</time></trkpt><trkpt lat="42.613535111021086" lon="14.032070174538182"><ele>38.5</ele><time>2026-04-19T15:38:28.001Z</time></trkpt><trkpt lat="42.61338424989362" lon="14.03244642864435"><ele>31.0</ele><time>2026-04-19T15:38:29.001Z</time></trkpt><trkpt lat="42.61323012209444" lon="14.032806063850549"><ele>31.0</ele><time>2026-04-19T15:38:30.001Z</time></trkpt><trkpt lat="42.613068405546414" lon="14.03316692528605"><ele>31.0</ele><time>2026-04-19T15:38:31.001Z</time></trkpt><trkpt lat="42.61290362618616" lon="14.033522421104639"><ele>28.0</ele><time>2026-04-19T15:38:32.001Z</time></trkpt><trkpt lat="42.61273716703605" lon="14.03387283727669"><ele>25.0</ele><time>2026-04-19T15:38:33.001Z</time></trkpt><trkpt lat="42.612567035472985" lon="14.03421867555886"><ele>25.0</ele><time>2026-04-19T15:38:34.001Z</time></trkpt><trkpt lat="42.61239418552777" lon="14.03456792619997"><ele>25.0</ele><time>2026-04-19T15:38:35.001Z</time></trkpt><trkpt lat="42.61221588591522" lon="14.034911707802133"><ele>25.5</ele><time>2026-04-19T15:38:36.001Z</time></trkpt><trkpt lat="42.612033268602985" lon="14.035250383511086"><ele>26.0</ele><time>2026-04-19T15:38:37.001Z</time></trkpt><trkpt lat="42.611843315185816" lon="14.035585977617002"><ele>25.0</ele><time>2026-04-19T15:38:38.001Z</time></trkpt><trkpt lat="42.611647903705844" lon="14.0359186321674"><ele>24.0</ele><time>2026-04-19T15:38:39.001Z</time></trkpt><trkpt lat="42.61145113916031" lon="14.036250310318575"><ele>24.0</ele><time>2026-04-19T15:38:40.001Z</time></trkpt><trkpt lat="42.61125419559036" lon="14.036570134944288"><ele>24.0</ele><time>2026-04-19T15:38:41.001Z</time></trkpt><trkpt lat="42.61104845441813" lon="14.03689076646967"><ele>24.0</ele><time>2026-04-19T15:38:42.001Z</time></trkpt><trkpt lat="42.610843157219676" lon="14.037206397433179"><ele>24.0</ele><time>2026-04-19T15:38:43.001Z</time></trkpt><trkpt lat="42.61063564736712" lon="14.037528576940536"><ele>23.0</ele><time>2026-04-19T15:38:44.001Z</time></trkpt><trkpt lat="42.61042796279085" lon="14.037859090886888"><ele>22.0</ele><time>2026-04-19T15:38:45.001Z</time></trkpt><trkpt lat="42.61021900675032" lon="14.038193498026157"><ele>21.5</ele><time>2026-04-19T15:38:46.001Z</time></trkpt><trkpt lat="42.610010545846805" lon="14.038525594035232"><ele>21.0</ele><time>2026-04-19T15:38:47.001Z</time></trkpt><trkpt lat="42.609802829171784" lon="14.038854094635981"><ele>21.0</ele><time>2026-04-19T15:38:48.001Z</time></trkpt><trkpt lat="42.60959479862601" lon="14.039176906450587"><ele>21.0</ele><time>2026-04-19T15:38:49Z</time></trkpt><trkpt lat="42.60937922815175" lon="14.039505958275598"><ele>21.5</ele><time>2026-04-19T15:38:50Z</time></trkpt><trkpt lat="42.60917713016912" lon="14.039824884845265"><ele>22.0</ele><time>2026-04-19T15:38:51Z</time></trkpt><trkpt lat="42.60897178891594" lon="14.040153488414678"><ele>22.0</ele><time>2026-04-19T15:38:52Z</time></trkpt><trkpt lat="42.608770991382904" lon="14.040492278694204"><ele>22.0</ele><time>2026-04-19T15:38:53Z</time></trkpt><trkpt lat="42.60858082872505" lon="14.040838344780713"><ele>23.5</ele><time>2026-04-19T15:38:54Z</time></trkpt><trkpt lat="42.60840337935726" lon="14.041196766575274"><ele>25.0</ele><time>2026-04-19T15:38:55Z</time></trkpt><trkpt lat="42.60823953817712" lon="14.041564526880801"><ele>25.5</ele><time>2026-04-19T15:38:56Z</time></trkpt><trkpt lat="42.608086175341626" lon="14.041939988217347"><ele>26.0</ele><time>2026-04-19T15:38:57Z</time></trkpt><trkpt lat="42.60793576658198" lon="14.042327643923123"><ele>29.5</ele><time>2026-04-19T15:38:58Z</time></trkpt><trkpt lat="42.60780201859018" lon="14.042738447562723"><ele>33.0</ele><time>2026-04-19T15:38:59Z</time></trkpt><trkpt lat="42.60768254502718" lon="14.043158354045039"><ele>31.5</ele><time>2026-04-19T15:39:00Z</time></trkpt><trkpt lat="42.60757723314722" lon="14.04357901839187"><ele>30.0</ele><time>2026-04-19T15:39:01Z</time></trkpt><trkpt lat="42.60747642098801" lon="14.044005702964443"><ele>30.0</ele><time>2026-04-19T15:39:02Z</time></trkpt><trkpt lat="42.60737244585991" lon="14.044442540751488"><ele>30.0</ele><time>2026-04-19T15:39:03Z</time></trkpt><trkpt lat="42.607263875195535" lon="14.044885386420557"><ele>30.0</ele><time>2026-04-19T15:39:04Z</time></trkpt><trkpt lat="42.60715419017093" lon="14.045316329717656"><ele>30.0</ele><time>2026-04-19T15:39:05Z</time></trkpt><trkpt lat="42.607040554436395" lon="14.045751900670526"><ele>35.0</ele><time>2026-04-19T15:39:06Z</time></trkpt><trkpt lat="42.6069275259584" lon="14.046197748231254"><ele>40.0</ele><time>2026-04-19T15:39:07Z</time></trkpt><trkpt lat="42.60681930946205" lon="14.046615168940404"><ele>40.0</ele><time>2026-04-19T15:39:08Z</time></trkpt><trkpt lat="42.60671490823636" lon="14.047010846559267"><ele>40.0</ele><time>2026-04-19T15:39:09Z</time></trkpt><trkpt lat="42.60661512998854" lon="14.047384600438123"><ele>39.0</ele><time>2026-04-19T15:39:10Z</time></trkpt><trkpt lat="42.60652313387882" lon="14.047731341656139"><ele>38.0</ele><time>2026-04-19T15:39:11Z</time></trkpt><trkpt lat="42.6064409850688" lon="14.048042702956723"><ele>38.0</ele><time>2026-04-19T15:39:12Z</time></trkpt><trkpt lat="42.606362901345236" lon="14.048333539616698"><ele>38.0</ele><time>2026-04-19T15:39:13Z</time></trkpt><trkpt lat="42.60629377311786" lon="14.048600050259672"><ele>38.0</ele><time>2026-04-19T15:39:14Z</time></trkpt><trkpt lat="42.60623289276771" lon="14.048846405770867"><ele>38.0</ele><time>2026-04-19T15:39:15Z</time></trkpt><trkpt lat="42.60617526905342" lon="14.04908157260623"><ele>38.0</ele><time>2026-04-19T15:39:16Z</time></trkpt><trkpt lat="42.606119816716145" lon="14.049284704209276"><ele>38.0</ele><time>2026-04-19T15:39:17Z</time></trkpt><trkpt lat="42.60605359590153" lon="14.049469038495099"><ele>38.666666666666664</ele><time>2026-04-19T15:39:18Z</time></trkpt><trkpt lat="42.6059915517463" lon="14.049653415400659"><ele>39.333333333333336</ele><time>2026-04-19T15:39:19Z</time></trkpt><trkpt lat="42.60593521362487" lon="14.049848164864395"><ele>40.0</ele><time>2026-04-19T15:39:20Z</time></trkpt><trkpt lat="42.605882243898556" lon="14.050049983885113"><ele>40.0</ele><time>2026-04-19T15:39:21Z</time></trkpt><trkpt lat="42.60583255240256" lon="14.050249322925719"><ele>40.0</ele><time>2026-04-19T15:39:22Z</time></trkpt><trkpt lat="42.60578211011384" lon="14.050461611891594"><ele>40.0</ele><time>2026-04-19T15:39:23Z</time></trkpt><trkpt lat="42.605732158079746" lon="14.050676184888815"><ele>40.0</ele><time>2026-04-19T15:39:24Z</time></trkpt><trkpt lat="42.60568156003858" lon="14.050885568833719"><ele>40.0</ele><time>2026-04-19T15:39:25Z</time></trkpt><trkpt lat="42.605625041381195" lon="14.051105039550256"><ele>40.0</ele><time>2026-04-19T15:39:26Z</time></trkpt><trkpt lat="42.60556998497167" lon="14.051325707817032"><ele>40.0</ele><time>2026-04-19T15:39:27Z</time></trkpt><trkpt lat="42.60551717086905" lon="14.051540127919283"><ele>40.0</ele><time>2026-04-19T15:39:28Z</time></trkpt><trkpt lat="42.60545881476223" lon="14.051757920975191"><ele>40.0</ele><time>2026-04-19T15:39:29Z</time></trkpt><trkpt lat="42.605399846685316" lon="14.051981033411002"><ele>40.0</ele><time>2026-04-19T15:39:30Z</time></trkpt><trkpt lat="42.605343965328416" lon="14.052197358462537"><ele>40.0</ele><time>2026-04-19T15:39:31Z</time></trkpt><trkpt lat="42.605285630106" lon="14.052413414601467"><ele>40.0</ele><time>2026-04-19T15:39:32Z</time></trkpt><trkpt lat="42.60522831963358" lon="14.052631044704114"><ele>45.0</ele><time>2026-04-19T15:39:33Z</time></trkpt><trkpt lat="42.60517749993015" lon="14.052837464812956"><ele>50.0</ele><time>2026-04-19T15:39:34Z</time></trkpt><trkpt lat="42.60512570606796" lon="14.053052220236795"><ele>55.0</ele><time>2026-04-19T15:39:35Z</time></trkpt><trkpt lat="42.60506529203515" lon="14.053255417781084"><ele>54.0</ele><time>2026-04-19T15:39:36Z</time></trkpt><trkpt lat="42.60501852116425" lon="14.053460569129856"><ele>53.0</ele><time>2026-04-19T15:39:37Z</time></trkpt><trkpt lat="42.604971931391084" lon="14.05364760902443"><ele>52.0</ele><time>2026-04-19T15:39:38Z</time></trkpt><trkpt lat="42.60492391009328" lon="14.053834966637874"><ele>51.0</ele><time>2026-04-19T15:39:39Z</time></trkpt><trkpt lat="42.6048791856132" lon="14.054024011830009"><ele>52.0</ele><time>2026-04-19T15:39:40Z</time></trkpt><trkpt lat="42.60482613759753" lon="14.054212034388064"><ele>53.0</ele><time>2026-04-19T15:39:41Z</time></trkpt><trkpt lat="42.60477093071787" lon="14.054415552611845"><ele>54.0</ele><time>2026-04-19T15:39:42Z</time></trkpt><trkpt lat="42.60471867740268" lon="14.054634633425554"><ele>54.0</ele><time>2026-04-19T15:39:43Z</time></trkpt><trkpt lat="42.60466140089565" lon="14.05485937627994"><ele>54.0</ele><time>2026-04-19T15:39:44Z</time></trkpt><trkpt lat="42.60460402157489" lon="14.055084206616977"><ele>54.0</ele><time>2026-04-19T15:39:45Z</time></trkpt><trkpt lat="42.60454862685611" lon="14.055304184341706"><ele>56.0</ele><time>2026-04-19T15:39:46Z</time></trkpt><trkpt lat="42.60449196539546" lon="14.055531897310125"><ele>58.0</ele><time>2026-04-19T15:39:47Z</time></trkpt><trkpt lat="42.6044325548648" lon="14.055759242434785"><ele>60.0</ele><time>2026-04-19T15:39:48Z</time></trkpt><trkpt lat="42.604372487090515" lon="14.055987765256138"><ele>60.0</ele><time>2026-04-19T15:39:49Z</time></trkpt><trkpt lat="42.604315955065324" lon="14.056213665184961"><ele>60.0</ele><time>2026-04-19T15:39:50Z</time></trkpt><trkpt lat="42.60425529788628" lon="14.056437135800335"><ele>60.0</ele><time>2026-04-19T15:39:51Z</time></trkpt><trkpt lat="42.60419233976772" lon="14.056652928154339"><ele>58.33333333333333</ele><time>2026-04-19T15:39:52Z</time></trkpt><trkpt lat="42.60412352999772" lon="14.056870064101915"><ele>56.666666666666664</ele><time>2026-04-19T15:39:53Z</time></trkpt><trkpt lat="42.604051859154275" lon="14.057083007673812"><ele>55.0</ele><time>2026-04-19T15:39:54Z</time></trkpt><trkpt lat="42.603978494029924" lon="14.057292780434631"><ele>54.0</ele><time>2026-04-19T15:39:55Z</time></trkpt><trkpt lat="42.60390043005626" lon="14.057501304168248"><ele>53.0</ele><time>2026-04-19T15:39:56Z</time></trkpt><trkpt lat="42.603819135565836" lon="14.057705572527437"><ele>52.0</ele><time>2026-04-19T15:39:57Z</time></trkpt><trkpt lat="42.60373666684205" lon="14.057907260936073"><ele>56.666666666666664</ele><time>2026-04-19T15:39:58Z</time></trkpt><trkpt lat="42.60365627408218" lon="14.058098131712034"><ele>61.33333333333333</ele><time>2026-04-19T15:39:59Z</time></trkpt><trkpt lat="42.6035754245342" lon="14.058285902431852"><ele>66.0</ele><time>2026-04-19T15:40:00Z</time></trkpt><trkpt lat="42.603489852654235" lon="14.058467128429097"><ele>66.0</ele><time>2026-04-19T15:40:01Z</time></trkpt><trkpt lat="42.60340263099601" lon="14.058650411844116"><ele>66.0</ele><time>2026-04-19T15:40:02Z</time></trkpt><trkpt lat="42.60331752332546" lon="14.058826649135028"><ele>66.0</ele><time>2026-04-19T15:40:03Z</time></trkpt><trkpt lat="42.603230601191036" lon="14.058997229095256"><ele>64.66666666666667</ele><time>2026-04-19T15:40:04Z</time></trkpt><trkpt lat="42.603139757970936" lon="14.059166179631069"><ele>63.333333333333336</ele><time>2026-04-19T15:40:05Z</time></trkpt><trkpt lat="42.60304631374053" lon="14.059336000905251"><ele>62.0</ele><time>2026-04-19T15:40:06Z</time></trkpt><trkpt lat="42.60295392395254" lon="14.059499361157297"><ele>62.0</ele><time>2026-04-19T15:40:07Z</time></trkpt><trkpt lat="42.602863116123515" lon="14.05966009902081"><ele>62.0</ele><time>2026-04-19T15:40:08Z</time></trkpt><trkpt lat="42.60277689481036" lon="14.059798798775105"><ele>62.0</ele><time>2026-04-19T15:40:09Z</time></trkpt><trkpt lat="42.602697165908864" lon="14.059924910021113"><ele>62.0</ele><time>2026-04-19T15:40:10Z</time></trkpt><trkpt lat="42.60262078223905" lon="14.06004092685722"><ele>63.400000000000006</ele><time>2026-04-19T15:40:11Z</time></trkpt><trkpt lat="42.60254779982848" lon="14.060150394203655"><ele>64.80000000000001</ele><time>2026-04-19T15:40:12Z</time></trkpt><trkpt lat="42.6024797540262" lon="14.060249603514448"><ele>66.2</ele><time>2026-04-19T15:40:13Z</time></trkpt><trkpt lat="42.6024082963664" lon="14.060350995244663"><ele>67.60000000000001</ele><time>2026-04-19T15:40:14Z</time></trkpt><trkpt lat="42.6023316557735" lon="14.060457529876752"><ele>69.0</ele><time>2026-04-19T15:40:15Z</time></trkpt><trkpt lat="42.60225007484313" lon="14.06056839184005"><ele>69.0</ele><time>2026-04-19T15:40:16Z</time></trkpt><trkpt lat="42.60216777825913" lon="14.060685069850946"><ele>69.0</ele><time>2026-04-19T15:40:17Z</time></trkpt><trkpt lat="42.60208152821338" lon="14.060800843384799"><ele>69.0</ele><time>2026-04-19T15:40:17.999Z</time></trkpt><trkpt lat="42.601992815122934" lon="14.060911331042032"><ele>69.0</ele><time>2026-04-19T15:40:18.999Z</time></trkpt><trkpt lat="42.601910922525406" lon="14.061010190273153"><ele>70.33333333333333</ele><time>2026-04-19T15:40:19.999Z</time></trkpt><trkpt lat="42.60186129085994" lon="14.06108790538205"><ele>71.66666666666667</ele><time>2026-04-19T15:40:20.999Z</time></trkpt><trkpt lat="42.601794629147065" lon="14.06121258971189"><ele>73.0</ele><time>2026-04-19T15:40:22.999Z</time></trkpt><trkpt lat="42.60170675757999" lon="14.061307217330603"><ele>74.33333333333334</ele><time>2026-04-19T15:40:24.999Z</time></trkpt><trkpt lat="42.601637061481405" lon="14.061341461197806"><ele>75.66666666666667</ele><time>2026-04-19T15:40:28.001Z</time></trkpt><trkpt lat="42.60157031800704" lon="14.061383098813636"><ele>77.0</ele><time>2026-04-19T15:40:30.001Z</time></trkpt><trkpt lat="42.601506443012774" lon="14.06142997689775"><ele>77.0</ele><time>2026-04-19T15:40:32.001Z</time></trkpt><trkpt lat="42.601442500168446" lon="14.061487079249005"><ele>77.0</ele><time>2026-04-19T15:40:34.001Z</time></trkpt><trkpt lat="42.59976213981875" lon="14.06300238558517"><ele>106.0</ele><time>2026-04-19T15:40:46.481Z</time></trkpt><trkpt lat="42.59887161962163" lon="14.06357543529586"><ele>89.0</ele><time>2026-04-19T15:40:47.477Z</time></trkpt><trkpt lat="42.597973740244235" lon="14.064152497000771"><ele>73.0</ele><time>2026-04-19T15:40:48.481Z</time></trkpt><trkpt lat="42.59677970721221" lon="14.064874366575557"><ele>72.33333333333333</ele><time>2026-04-19T15:41:21Z</time></trkpt><trkpt lat="42.59659614758841" lon="14.064994447712658"><ele>71.66666666666667</ele><time>2026-04-19T15:41:22Z</time></trkpt><trkpt lat="42.596405712014565" lon="14.065134279655641"><ele>71.0</ele><time>2026-04-19T15:41:23Z</time></trkpt><trkpt lat="42.596229084340116" lon="14.065246323173124"><ele>65.66666666666667</ele><time>2026-04-19T15:41:24Z</time></trkpt><trkpt lat="42.59606142244876" lon="14.06536092244405"><ele>60.33333333333333</ele><time>2026-04-19T15:41:25Z</time></trkpt><trkpt lat="42.595881148925585" lon="14.065475794572373"><ele>55.0</ele><time>2026-04-19T15:41:26Z</time></trkpt><trkpt lat="42.59571293559877" lon="14.065604907794041"><ele>55.0</ele><time>2026-04-19T15:41:27Z</time></trkpt><trkpt lat="42.59553891084914" lon="14.065718104705265"><ele>55.0</ele><time>2026-04-19T15:41:28Z</time></trkpt><trkpt lat="42.595353902287606" lon="14.065836817488652"><ele>55.0</ele><time>2026-04-19T15:41:29Z</time></trkpt><trkpt lat="42.59516308622053" lon="14.065958579896941"><ele>49.666666666666664</ele><time>2026-04-19T15:41:30Z</time></trkpt><trkpt lat="42.594971676220545" lon="14.066077649485075"><ele>44.33333333333333</ele><time>2026-04-19T15:41:31Z</time></trkpt><trkpt lat="42.59477845501507" lon="14.066202311839092"><ele>39.0</ele><time>2026-04-19T15:41:32Z</time></trkpt><trkpt lat="42.59458481625323" lon="14.066326086964402"><ele>35.666666666666664</ele><time>2026-04-19T15:41:33Z</time></trkpt><trkpt lat="42.59439160603427" lon="14.066447385661906"><ele>32.33333333333333</ele><time>2026-04-19T15:41:34Z</time></trkpt><trkpt lat="42.594207526144" lon="14.06656636510302"><ele>29.0</ele><time>2026-04-19T15:41:35Z</time></trkpt><trkpt lat="42.594035440313846" lon="14.066679255483583"><ele>28.666666666666664</ele><time>2026-04-19T15:41:36Z</time></trkpt><trkpt lat="42.59386454665921" lon="14.066790747443386"><ele>28.333333333333336</ele><time>2026-04-19T15:41:37Z</time></trkpt><trkpt lat="42.593674505294366" lon="14.066913478244421"><ele>28.0</ele><time>2026-04-19T15:41:38Z</time></trkpt><trkpt lat="42.59346302382826" lon="14.067048662067286"><ele>26.333333333333336</ele><time>2026-04-19T15:41:39Z</time></trkpt><trkpt lat="42.593249100724805" lon="14.06718550812853"><ele>24.666666666666668</ele><time>2026-04-19T15:41:40Z</time></trkpt><trkpt lat="42.59306354423873" lon="14.06730630070015"><ele>23.0</ele><time>2026-04-19T15:41:41Z</time></trkpt><trkpt lat="42.59290919015995" lon="14.067402464807735"><ele>26.0</ele><time>2026-04-19T15:41:42Z</time></trkpt><trkpt lat="42.592766574152" lon="14.06749357501418"><ele>29.0</ele><time>2026-04-19T15:41:43Z</time></trkpt><trkpt lat="42.59264232196808" lon="14.067569993575146"><ele>32.0</ele><time>2026-04-19T15:41:44Z</time></trkpt><trkpt lat="42.592516239618824" lon="14.06764260531986"><ele>35.0</ele><time>2026-04-19T15:41:45Z</time></trkpt><trkpt lat="42.59238250264172" lon="14.06771293971442"><ele>35.0</ele><time>2026-04-19T15:41:46Z</time></trkpt><trkpt lat="42.59224753311946" lon="14.067794191629982"><ele>35.0</ele><time>2026-04-19T15:41:47Z</time></trkpt><trkpt lat="42.59210813365579" lon="14.067885110429323"><ele>35.0</ele><time>2026-04-19T15:41:48Z</time></trkpt><trkpt lat="42.59196537547268" lon="14.06798074217752"><ele>36.75</ele><time>2026-04-19T15:41:49Z</time></trkpt><trkpt lat="42.59183968874996" lon="14.068060164280107"><ele>38.5</ele><time>2026-04-19T15:41:50Z</time></trkpt><trkpt lat="42.59173634316228" lon="14.068126986560452"><ele>40.25</ele><time>2026-04-19T15:41:51Z</time></trkpt><trkpt lat="42.59162868096228" lon="14.068199562902853"><ele>42.0</ele><time>2026-04-19T15:41:52Z</time></trkpt><trkpt lat="42.59151068599399" lon="14.068284744968306"><ele>46.0</ele><time>2026-04-19T15:41:53Z</time></trkpt><trkpt lat="42.591382541580714" lon="14.068384580187512"><ele>50.0</ele><time>2026-04-19T15:41:54Z</time></trkpt><trkpt lat="42.59122541647375" lon="14.068497486719913"><ele>54.0</ele><time>2026-04-19T15:41:55Z</time></trkpt><trkpt lat="42.59103025998095" lon="14.068618761454697"><ele>55.0</ele><time>2026-04-19T15:41:56Z</time></trkpt><trkpt lat="42.59080788421306" lon="14.068757923282194"><ele>56.0</ele><time>2026-04-19T15:41:57Z</time></trkpt><trkpt lat="42.59057397902833" lon="14.068907383194533"><ele>56.0</ele><time>2026-04-19T15:41:58Z</time></trkpt><trkpt lat="42.59037542032722" lon="14.069034242677942"><ele>56.0</ele><time>2026-04-19T15:41:59Z</time></trkpt><trkpt lat="42.59019689783519" lon="14.069145646625396"><ele>56.0</ele><time>2026-04-19T15:42:00Z</time></trkpt><trkpt lat="42.59002851355885" lon="14.069252967544095"><ele>64.66666666666667</ele><time>2026-04-19T15:42:01Z</time></trkpt><trkpt lat="42.58984511949396" lon="14.069371602631453"><ele>73.33333333333333</ele><time>2026-04-19T15:42:02Z</time></trkpt><trkpt lat="42.58964218982156" lon="14.069502377728424"><ele>82.0</ele><time>2026-04-19T15:42:03Z</time></trkpt><trkpt lat="42.58944594513282" lon="14.069624073038584"><ele>85.0</ele><time>2026-04-19T15:42:04Z</time></trkpt><trkpt lat="42.589249228587576" lon="14.069751777216894"><ele>88.0</ele><time>2026-04-19T15:42:05Z</time></trkpt><trkpt lat="42.589051013526046" lon="14.0698870043111"><ele>91.0</ele><time>2026-04-19T15:42:06Z</time></trkpt><trkpt lat="42.58886461499392" lon="14.070009370360406"><ele>93.33333333333333</ele><time>2026-04-19T15:42:07Z</time></trkpt><trkpt lat="42.58868515703785" lon="14.070125979925868"><ele>95.66666666666666</ele><time>2026-04-19T15:42:08Z</time></trkpt><trkpt lat="42.58850840189127" lon="14.0702435240025"><ele>98.0</ele><time>2026-04-19T15:42:09Z</time></trkpt><trkpt lat="42.588327292983365" lon="14.070364757236828"><ele>104.33333333333333</ele><time>2026-04-19T15:42:09.999Z</time></trkpt><trkpt lat="42.58814183729706" lon="14.070479837286868"><ele>110.66666666666666</ele><time>2026-04-19T15:42:10.999Z</time></trkpt><trkpt lat="42.58796077880061" lon="14.070594971407969"><ele>117.0</ele><time>2026-04-19T15:42:11.999Z</time></trkpt><trkpt lat="42.58777870402976" lon="14.070707477133322"><ele>125.33333333333334</ele><time>2026-04-19T15:42:12.999Z</time></trkpt><trkpt lat="42.58763345006396" lon="14.070842804932404"><ele>133.66666666666669</ele><time>2026-04-19T15:42:13.999Z</time></trkpt><trkpt lat="42.587444829081456" lon="14.070972024595019"><ele>142.0</ele><time>2026-04-19T15:42:15.074Z</time></trkpt><trkpt lat="42.58727067365607" lon="14.071088196563494"><ele>142.0</ele><time>2026-04-19T15:42:16.069Z</time></trkpt><trkpt lat="42.58709148423946" lon="14.071209920208757"><ele>142.0</ele><time>2026-04-19T15:42:17.07Z</time></trkpt><trkpt lat="42.586926095442365" lon="14.071330837616594"><ele>142.0</ele><time>2026-04-19T15:42:18.066Z</time></trkpt><trkpt lat="42.58675254348387" lon="14.071455649221267"><ele>143.0</ele><time>2026-04-19T15:42:19.041Z</time></trkpt><trkpt lat="42.586584375260266" lon="14.071577439644125"><ele>144.0</ele><time>2026-04-19T15:42:20.038Z</time></trkpt><trkpt lat="42.58471897053034" lon="14.072653775638674"><ele>152.0</ele><time>2026-04-19T15:42:23.478Z</time></trkpt><trkpt lat="42.58380433757241" lon="14.073174025449067"><ele>146.0</ele><time>2026-04-19T15:42:24.48Z</time></trkpt><trkpt lat="42.58287837444664" lon="14.07364268105347"><ele>166.0</ele><time>2026-04-19T15:42:25.478Z</time></trkpt><trkpt lat="42.58194090223057" lon="14.074068898811891"><ele>158.0</ele><time>2026-04-19T15:42:26.477Z</time></trkpt><trkpt lat="42.58098943261749" lon="14.074447970641549"><ele>148.0</ele><time>2026-04-19T15:42:27.479Z</time></trkpt><trkpt lat="42.58003068308675" lon="14.074777859981452"><ele>144.0</ele><time>2026-04-19T15:42:28.478Z</time></trkpt><trkpt lat="42.57906056088462" lon="14.075061267254071"><ele>124.0</ele><time>2026-04-19T15:42:29.48Z</time></trkpt><trkpt lat="42.577902690612376" lon="14.07543682601083"><ele>120.5</ele><time>2026-04-19T15:43:23.999Z</time></trkpt><trkpt lat="42.57776852929824" lon="14.075397886623481"><ele>117.0</ele><time>2026-04-19T15:43:24.999Z</time></trkpt><trkpt lat="42.57763838644041" lon="14.075401270044654"><ele>113.5</ele><time>2026-04-19T15:43:25.999Z</time></trkpt><trkpt lat="42.57747549554191" lon="14.075473787343265"><ele>110.0</ele><time>2026-04-19T15:43:26.999Z</time></trkpt><trkpt lat="42.57731226915265" lon="14.07554790513312"><ele>110.0</ele><time>2026-04-19T15:43:27.999Z</time></trkpt><trkpt lat="42.57716444316223" lon="14.075596889625215"><ele>110.0</ele><time>2026-04-19T15:43:28.999Z</time></trkpt><trkpt lat="42.57701349495849" lon="14.075638721959983"><ele>110.0</ele><time>2026-04-19T15:43:29.999Z</time></trkpt><trkpt lat="42.5768541893623" lon="14.075679966681518"><ele>110.66666666666666</ele><time>2026-04-19T15:43:30.999Z</time></trkpt><trkpt lat="42.57670075271875" lon="14.075715622281004"><ele>111.33333333333334</ele><time>2026-04-19T15:43:31.999Z</time></trkpt><trkpt lat="42.576533227718365" lon="14.07576088494911"><ele>112.0</ele><time>2026-04-19T15:43:33Z</time></trkpt><trkpt lat="42.57635251395478" lon="14.07580361343257"><ele>103.66666666666667</ele><time>2026-04-19T15:43:34Z</time></trkpt><trkpt lat="42.57615881644653" lon="14.075851467971322"><ele>95.33333333333334</ele><time>2026-04-19T15:43:35Z</time></trkpt><trkpt lat="42.575963417155215" lon="14.075900487956604"><ele>87.0</ele><time>2026-04-19T15:43:36Z</time></trkpt><trkpt lat="42.57574473019563" lon="14.075955419758477"><ele>87.0</ele><time>2026-04-19T15:43:37Z</time></trkpt><trkpt lat="42.57549879831225" lon="14.076017511075241"><ele>87.0</ele><time>2026-04-19T15:43:38Z</time></trkpt><trkpt lat="42.575241334024255" lon="14.07607755772258"><ele>75.5</ele><time>2026-04-19T15:43:39Z</time></trkpt><trkpt lat="42.574975340974376" lon="14.076143328632496"><ele>64.0</ele><time>2026-04-19T15:43:40Z</time></trkpt><trkpt lat="42.574712662935866" lon="14.076207097657523"><ele>51.0</ele><time>2026-04-19T15:43:41Z</time></trkpt><trkpt lat="42.57446181360184" lon="14.076269092759137"><ele>38.0</ele><time>2026-04-19T15:43:42Z</time></trkpt><trkpt lat="42.57422104538787" lon="14.07632894880655"><ele>38.0</ele><time>2026-04-19T15:43:43Z</time></trkpt><trkpt lat="42.57396665142452" lon="14.076391864693013"><ele>38.0</ele><time>2026-04-19T15:43:44Z</time></trkpt><trkpt lat="42.57372329650915" lon="14.076450297967359"><ele>35.666666666666664</ele><time>2026-04-19T15:43:45Z</time></trkpt><trkpt lat="42.573508344831914" lon="14.076502936613949"><ele>33.333333333333336</ele><time>2026-04-19T15:43:46Z</time></trkpt><trkpt lat="42.57331603072963" lon="14.07654882730746"><ele>31.0</ele><time>2026-04-19T15:43:47Z</time></trkpt><trkpt lat="42.57310782790022" lon="14.076600879675627"><ele>32.5</ele><time>2026-04-19T15:43:48Z</time></trkpt><trkpt lat="42.57287694829464" lon="14.076660527024469"><ele>34.0</ele><time>2026-04-19T15:43:49Z</time></trkpt><trkpt lat="42.5726262705722" lon="14.076722347125427"><ele>42.0</ele><time>2026-04-19T15:43:50Z</time></trkpt><trkpt lat="42.572358418160675" lon="14.076783570369212"><ele>50.0</ele><time>2026-04-19T15:43:51Z</time></trkpt><trkpt lat="42.57208650636626" lon="14.076847770608092"><ele>62.0</ele><time>2026-04-19T15:43:52Z</time></trkpt><trkpt lat="42.57183087350834" lon="14.076912226618058"><ele>74.0</ele><time>2026-04-19T15:43:53Z</time></trkpt><trkpt lat="42.57159829244356" lon="14.076972122417203"><ele>74.0</ele><time>2026-04-19T15:43:54Z</time></trkpt><trkpt lat="42.57139209388723" lon="14.077022576308861"><ele>74.0</ele><time>2026-04-19T15:43:55Z</time></trkpt><trkpt lat="42.57119466810004" lon="14.077070532642333"><ele>74.0</ele><time>2026-04-19T15:43:56Z</time></trkpt><trkpt lat="42.57100141722808" lon="14.077118764164494"><ele>81.66666666666667</ele><time>2026-04-19T15:43:57Z</time></trkpt><trkpt lat="42.57080808190492" lon="14.077166428159783"><ele>89.33333333333334</ele><time>2026-04-19T15:43:58Z</time></trkpt><trkpt lat="42.57063153918605" lon="14.077208221588553"><ele>97.0</ele><time>2026-04-19T15:43:59Z</time></trkpt><trkpt lat="42.57046369967811" lon="14.077248609545354"><ele>104.0</ele><time>2026-04-19T15:44:00Z</time></trkpt><trkpt lat="42.57029258328118" lon="14.077289962032914"><ele>111.0</ele><time>2026-04-19T15:44:01Z</time></trkpt><trkpt lat="42.570119284611316" lon="14.077332152139395"><ele>118.0</ele><time>2026-04-19T15:44:02Z</time></trkpt><trkpt lat="42.56994814810005" lon="14.07737569485368"><ele>118.0</ele><time>2026-04-19T15:44:03Z</time></trkpt><trkpt lat="42.56975588012157" lon="14.077425481248396"><ele>118.0</ele><time>2026-04-19T15:44:04Z</time></trkpt><trkpt lat="42.56953111211133" lon="14.077484505140509"><ele>118.0</ele><time>2026-04-19T15:44:05Z</time></trkpt><trkpt lat="42.569284852597406" lon="14.07754245765725"><ele>127.0</ele><time>2026-04-19T15:44:06Z</time></trkpt><trkpt lat="42.56902766748494" lon="14.077593058554815"><ele>136.0</ele><time>2026-04-19T15:44:07Z</time></trkpt><trkpt lat="42.56877046744357" lon="14.07765098758966"><ele>139.5</ele><time>2026-04-19T15:44:08Z</time></trkpt><trkpt lat="42.56851646097715" lon="14.077716876830305"><ele>143.0</ele><time>2026-04-19T15:44:09Z</time></trkpt><trkpt lat="42.56826569591702" lon="14.077785433496063"><ele>143.0</ele><time>2026-04-19T15:44:10Z</time></trkpt><trkpt lat="42.56802165463985" lon="14.077855872701056"><ele>143.0</ele><time>2026-04-19T15:44:11Z</time></trkpt><trkpt lat="42.5677834549404" lon="14.07793387457229"><ele>143.5</ele><time>2026-04-19T15:44:12Z</time></trkpt><trkpt lat="42.56755738206175" lon="14.078018728088608"><ele>144.0</ele><time>2026-04-19T15:44:13Z</time></trkpt><trkpt lat="42.56734030339233" lon="14.078110453187355"><ele>144.0</ele><time>2026-04-19T15:44:14Z</time></trkpt><trkpt lat="42.567128255885045" lon="14.078206920038316"><ele>144.0</ele><time>2026-04-19T15:44:15Z</time></trkpt><trkpt lat="42.56692329728663" lon="14.078309467778988"><ele>144.0</ele><time>2026-04-19T15:44:16Z</time></trkpt><trkpt lat="42.566726089203875" lon="14.078414752389088"><ele>144.66666666666666</ele><time>2026-04-19T15:44:17Z</time></trkpt><trkpt lat="42.56653950689281" lon="14.078519784365293"><ele>145.33333333333331</ele><time>2026-04-19T15:44:18Z</time></trkpt><trkpt lat="42.566367625593934" lon="14.078624032086498"><ele>146.0</ele><time>2026-04-19T15:44:19Z</time></trkpt><trkpt lat="42.56620258946339" lon="14.078727793597318"><ele>150.0</ele><time>2026-04-19T15:44:20Z</time></trkpt><trkpt lat="42.56603715846716" lon="14.078836351213823"><ele>154.0</ele><time>2026-04-19T15:44:21Z</time></trkpt><trkpt lat="42.5658747433436" lon="14.078947338134265"><ele>158.0</ele><time>2026-04-19T15:44:22Z</time></trkpt><trkpt lat="42.56571020655348" lon="14.079066867917911"><ele>157.0</ele><time>2026-04-19T15:44:23Z</time></trkpt><trkpt lat="42.56555423570607" lon="14.079186337148938"><ele>156.0</ele><time>2026-04-19T15:44:24Z</time></trkpt><trkpt lat="42.56539591917253" lon="14.079314475823876"><ele>155.0</ele><time>2026-04-19T15:44:25Z</time></trkpt><trkpt lat="42.56524018843203" lon="14.07944607534442"><ele>155.0</ele><time>2026-04-19T15:44:26Z</time></trkpt><trkpt lat="42.565080470547244" lon="14.079591311788556"><ele>155.0</ele><time>2026-04-19T15:44:27Z</time></trkpt><trkpt lat="42.56492072388885" lon="14.079742469837296"><ele>155.0</ele><time>2026-04-19T15:44:28Z</time></trkpt><trkpt lat="42.564763862041985" lon="14.079901428605416"><ele>153.33333333333331</ele><time>2026-04-19T15:44:29Z</time></trkpt><trkpt lat="42.564602218871194" lon="14.080065158020119"><ele>151.66666666666666</ele><time>2026-04-19T15:44:30Z</time></trkpt><trkpt lat="42.56444579006379" lon="14.08023547547422"><ele>150.0</ele><time>2026-04-19T15:44:31Z</time></trkpt><trkpt lat="42.56429222329452" lon="14.080401313833026"><ele>154.0</ele><time>2026-04-19T15:44:32Z</time></trkpt><trkpt lat="42.56414514448507" lon="14.080569219146433"><ele>158.0</ele><time>2026-04-19T15:44:33Z</time></trkpt><trkpt lat="42.56400650828418" lon="14.080730382658412"><ele>162.0</ele><time>2026-04-19T15:44:34Z</time></trkpt><trkpt lat="42.56388520133785" lon="14.080883179392226"><ele>162.0</ele><time>2026-04-19T15:44:35Z</time></trkpt><trkpt lat="42.563764540352466" lon="14.081030561655984"><ele>162.0</ele><time>2026-04-19T15:44:36Z</time></trkpt><trkpt lat="42.56364481106613" lon="14.081176494468805"><ele>162.0</ele><time>2026-04-19T15:44:37Z</time></trkpt><trkpt lat="42.563518201002765" lon="14.081325449302268"><ele>169.33333333333334</ele><time>2026-04-19T15:44:38Z</time></trkpt><trkpt lat="42.563392490058746" lon="14.081472989637243"><ele>176.66666666666669</ele><time>2026-04-19T15:44:39Z</time></trkpt><trkpt lat="42.5632603320432" lon="14.081624624737046"><ele>184.0</ele><time>2026-04-19T15:44:40Z</time></trkpt><trkpt lat="42.56313448481039" lon="14.081769347006736"><ele>188.33333333333334</ele><time>2026-04-19T15:44:41Z</time></trkpt><trkpt lat="42.563001028427465" lon="14.081922280297567"><ele>192.66666666666669</ele><time>2026-04-19T15:44:42.066Z</time></trkpt><trkpt lat="42.56287747286094" lon="14.082066027469205"><ele>197.0</ele><time>2026-04-19T15:44:43.063Z</time></trkpt><trkpt lat="42.56275476991043" lon="14.082208461954208"><ele>197.0</ele><time>2026-04-19T15:44:44.055Z</time></trkpt><trkpt lat="42.5630854" lon="14.081833"><ele>197.0</ele><time>2026-04-19T15:44:47.475Z</time></trkpt><trkpt lat="42.56062303258568" lon="14.084603838979097"><ele>184.33333333333334</ele><time>2026-04-19T15:45:02Z</time></trkpt><trkpt lat="42.56051085445619" lon="14.084733865462255"><ele>171.66666666666669</ele><time>2026-04-19T15:45:03Z</time></trkpt><trkpt lat="42.560394543397386" lon="14.084906941002618"><ele>159.0</ele><time>2026-04-19T15:45:04Z</time></trkpt><trkpt lat="42.56027228819631" lon="14.085054034293549"><ele>157.33333333333334</ele><time>2026-04-19T15:45:05Z</time></trkpt><trkpt lat="42.560152638745414" lon="14.085181844478855"><ele>155.66666666666669</ele><time>2026-04-19T15:45:06Z</time></trkpt><trkpt lat="42.56002680813376" lon="14.085341483786243"><ele>154.0</ele><time>2026-04-19T15:45:07Z</time></trkpt><trkpt lat="42.55990149837544" lon="14.085484663752213"><ele>154.0</ele><time>2026-04-19T15:45:08Z</time></trkpt><trkpt lat="42.559765619201954" lon="14.08565588770126"><ele>154.0</ele><time>2026-04-19T15:45:08.999Z</time></trkpt><trkpt lat="42.559623630390035" lon="14.085825888054167"><ele>154.0</ele><time>2026-04-19T15:45:09.999Z</time></trkpt><trkpt lat="42.559460656502615" lon="14.086021841828023"><ele>158.0</ele><time>2026-04-19T15:45:10.999Z</time></trkpt><trkpt lat="42.55929388707628" lon="14.086248975642004"><ele>162.0</ele><time>2026-04-19T15:45:11.999Z</time></trkpt><trkpt lat="42.559100719512074" lon="14.086497567412536"><ele>158.0</ele><time>2026-04-19T15:45:12.999Z</time></trkpt><trkpt lat="42.558914023490566" lon="14.086718140888614"><ele>154.0</ele><time>2026-04-19T15:45:13.999Z</time></trkpt><trkpt lat="42.558721623083564" lon="14.086935769897753"><ele>159.5</ele><time>2026-04-19T15:45:14.999Z</time></trkpt><trkpt lat="42.558523516722126" lon="14.087158569903117"><ele>165.0</ele><time>2026-04-19T15:45:15.999Z</time></trkpt><trkpt lat="42.55832453421679" lon="14.087386128898766"><ele>161.5</ele><time>2026-04-19T15:45:16.999Z</time></trkpt><trkpt lat="42.558127347977795" lon="14.087613698023548"><ele>158.0</ele><time>2026-04-19T15:45:17.999Z</time></trkpt><trkpt lat="42.55793158172917" lon="14.087841683068202"><ele>169.0</ele><time>2026-04-19T15:45:18.999Z</time></trkpt><trkpt lat="42.557734449993966" lon="14.08807215604186"><ele>180.0</ele><time>2026-04-19T15:45:19.999Z</time></trkpt><trkpt lat="42.5575335524032" lon="14.088304409192137"><ele>180.0</ele><time>2026-04-19T15:45:20.999Z</time></trkpt><trkpt lat="42.55732509106576" lon="14.08853944052995"><ele>180.0</ele><time>2026-04-19T15:45:21.999Z</time></trkpt><trkpt lat="42.55711644003588" lon="14.08877334020436"><ele>197.5</ele><time>2026-04-19T15:45:22.999Z</time></trkpt><trkpt lat="42.556909444158215" lon="14.089005998560639"><ele>215.0</ele><time>2026-04-19T15:45:23.999Z</time></trkpt><trkpt lat="42.55669963378273" lon="14.089240063376756"><ele>215.0</ele><time>2026-04-19T15:45:24.999Z</time></trkpt><trkpt lat="42.55647057614828" lon="14.089491745151138"><ele>215.0</ele><time>2026-04-19T15:45:26.068Z</time></trkpt><trkpt lat="42.55625410923815" lon="14.089728075909994"><ele>221.5</ele><time>2026-04-19T15:45:27.062Z</time></trkpt><trkpt lat="42.556034117054956" lon="14.089968853491984"><ele>228.0</ele><time>2026-04-19T15:45:28.062Z</time></trkpt><trkpt lat="42.55581331699607" lon="14.090210512068618"><ele>205.0</ele><time>2026-04-19T15:45:29.06Z</time></trkpt><trkpt lat="42.55360709378737" lon="14.09266127056282"><ele>205.0</ele><time>2026-04-19T15:45:42.04Z</time></trkpt><trkpt lat="42.55354087950419" lon="14.092734261767868"><ele>205.0</ele><time>2026-04-19T15:45:42.619Z</time></trkpt><trkpt lat="42.55327589967051" lon="14.093027918928899"><ele>205.0</ele><time>2026-04-19T15:45:45.024Z</time></trkpt><trkpt lat="42.550834098055894" lon="14.096000204943337"><ele>178.5</ele><time>2026-04-19T15:45:48.999Z</time></trkpt><trkpt lat="42.550586525126235" lon="14.096303459667574"><ele>152.0</ele><time>2026-04-19T15:45:49.999Z</time></trkpt><trkpt lat="42.55030032887347" lon="14.096793822547504"><ele>152.0</ele><time>2026-04-19T15:45:50.999Z</time></trkpt><trkpt lat="42.55006331114445" lon="14.097158484105409"><ele>152.0</ele><time>2026-04-19T15:45:51.999Z</time></trkpt><trkpt lat="42.54985341347014" lon="14.097498648252046"><ele>150.5</ele><time>2026-04-19T15:45:52.999Z</time></trkpt><trkpt lat="42.549652019204984" lon="14.097859562483777"><ele>149.0</ele><time>2026-04-19T15:45:53.999Z</time></trkpt><trkpt lat="42.54944998665854" lon="14.098255278382828"><ele>149.0</ele><time>2026-04-19T15:45:55Z</time></trkpt><trkpt lat="42.54926734250599" lon="14.098659416298597"><ele>149.0</ele><time>2026-04-19T15:45:56Z</time></trkpt><trkpt lat="42.549093665683046" lon="14.099060937865609"><ele>144.0</ele><time>2026-04-19T15:45:57Z</time></trkpt><trkpt lat="42.5489241980393" lon="14.099481028041831"><ele>139.0</ele><time>2026-04-19T15:45:58Z</time></trkpt><trkpt lat="42.548762609530925" lon="14.099908825505912"><ele>140.0</ele><time>2026-04-19T15:45:59Z</time></trkpt><trkpt lat="42.54860675744052" lon="14.10033109338587"><ele>141.0</ele><time>2026-04-19T15:46:00Z</time></trkpt><trkpt lat="42.548463640879675" lon="14.1007338095892"><ele>135.5</ele><time>2026-04-19T15:46:01Z</time></trkpt><trkpt lat="42.54830152895012" lon="14.101164234966028"><ele>130.0</ele><time>2026-04-19T15:46:02Z</time></trkpt><trkpt lat="42.54814556876231" lon="14.101584857187104"><ele>129.0</ele><time>2026-04-19T15:46:03Z</time></trkpt><trkpt lat="42.54799510691374" lon="14.101997722569875"><ele>128.0</ele><time>2026-04-19T15:46:04Z</time></trkpt><trkpt lat="42.54784082912933" lon="14.102416948635298"><ele>128.0</ele><time>2026-04-19T15:46:05Z</time></trkpt><trkpt lat="42.54768151886257" lon="14.102828391877999"><ele>128.0</ele><time>2026-04-19T15:46:06Z</time></trkpt><trkpt lat="42.547517172434716" lon="14.103248384937041"><ele>124.5</ele><time>2026-04-19T15:46:07Z</time></trkpt><trkpt lat="42.54734578661809" lon="14.103690211374557"><ele>121.0</ele><time>2026-04-19T15:46:08Z</time></trkpt><trkpt lat="42.54717093181672" lon="14.104146345748708"><ele>118.5</ele><time>2026-04-19T15:46:09Z</time></trkpt><trkpt lat="42.54699267838997" lon="14.104610367657463"><ele>116.0</ele><time>2026-04-19T15:46:10Z</time></trkpt><trkpt lat="42.546815669527405" lon="14.105083336716906"><ele>114.5</ele><time>2026-04-19T15:46:11Z</time></trkpt><trkpt lat="42.54663932836117" lon="14.105556065361954"><ele>113.0</ele><time>2026-04-19T15:46:12Z</time></trkpt><trkpt lat="42.546457150729054" lon="14.106008117681354"><ele>108.5</ele><time>2026-04-19T15:46:13Z</time></trkpt><trkpt lat="42.54626700766532" lon="14.106438781097362"><ele>104.0</ele><time>2026-04-19T15:46:14Z</time></trkpt><trkpt lat="42.546061201971774" lon="14.106841425528927"><ele>103.0</ele><time>2026-04-19T15:46:15Z</time></trkpt><trkpt lat="42.54583395677944" lon="14.107228809725498"><ele>102.0</ele><time>2026-04-19T15:46:16Z</time></trkpt><trkpt lat="42.54558318405042" lon="14.107609964211562"><ele>102.0</ele><time>2026-04-19T15:46:17Z</time></trkpt><trkpt lat="42.545315770049235" lon="14.107980053395117"><ele>102.0</ele><time>2026-04-19T15:46:18Z</time></trkpt><trkpt lat="42.54502477970555" lon="14.10833939470386"><ele>101.5</ele><time>2026-04-19T15:46:19Z</time></trkpt><trkpt lat="42.544707494979946" lon="14.10868793620033"><ele>101.0</ele><time>2026-04-19T15:46:20Z</time></trkpt><trkpt lat="42.544369677293396" lon="14.109010844916357"><ele>97.5</ele><time>2026-04-19T15:46:21Z</time></trkpt><trkpt lat="42.54401958084104" lon="14.109301460646867"><ele>94.0</ele><time>2026-04-19T15:46:22Z</time></trkpt><trkpt lat="42.54367143187321" lon="14.1095529029327"><ele>94.0</ele><time>2026-04-19T15:46:23Z</time></trkpt><trkpt lat="42.54332389291851" lon="14.109766380323377"><ele>94.0</ele><time>2026-04-19T15:46:24Z</time></trkpt><trkpt lat="42.542962186905825" lon="14.109960485112586"><ele>89.5</ele><time>2026-04-19T15:46:25Z</time></trkpt><trkpt lat="42.542585345139365" lon="14.110126763568086"><ele>85.0</ele><time>2026-04-19T15:46:26Z</time></trkpt><trkpt lat="42.542198581787225" lon="14.110264542851679"><ele>84.5</ele><time>2026-04-19T15:46:27Z</time></trkpt><trkpt lat="42.541812234285956" lon="14.110371999622387"><ele>84.0</ele><time>2026-04-19T15:46:28Z</time></trkpt><trkpt lat="42.541424290974504" lon="14.110455972768635"><ele>81.5</ele><time>2026-04-19T15:46:29Z</time></trkpt><trkpt lat="42.54104410549468" lon="14.110515489987492"><ele>79.0</ele><time>2026-04-19T15:46:30Z</time></trkpt><trkpt lat="42.54068579180136" lon="14.11055480326632"><ele>77.5</ele><time>2026-04-19T15:46:31Z</time></trkpt><trkpt lat="42.54033308539904" lon="14.110588689253298"><ele>76.0</ele><time>2026-04-19T15:46:32Z</time></trkpt><trkpt lat="42.53998209678452" lon="14.11062431876062"><ele>76.0</ele><time>2026-04-19T15:46:33Z</time></trkpt><trkpt lat="42.53962943738439" lon="14.11066320017212"><ele>76.0</ele><time>2026-04-19T15:46:34Z</time></trkpt><trkpt lat="42.539280677165536" lon="14.110704493787567"><ele>70.5</ele><time>2026-04-19T15:46:35Z</time></trkpt><trkpt lat="42.53893572119602" lon="14.110746572117668"><ele>65.0</ele><time>2026-04-19T15:46:36Z</time></trkpt><trkpt lat="42.538593656273356" lon="14.110789159702092"><ele>62.0</ele><time>2026-04-19T15:46:37Z</time></trkpt><trkpt lat="42.53825284762614" lon="14.11083210184302"><ele>59.0</ele><time>2026-04-19T15:46:38Z</time></trkpt><trkpt lat="42.537907612110764" lon="14.110877781717251"><ele>57.5</ele><time>2026-04-19T15:46:39Z</time></trkpt><trkpt lat="42.53757452888147" lon="14.110923134027155"><ele>56.0</ele><time>2026-04-19T15:46:40Z</time></trkpt><trkpt lat="42.53724129051977" lon="14.110986552495394"><ele>56.5</ele><time>2026-04-19T15:46:41Z</time></trkpt><trkpt lat="42.53690049767681" lon="14.11108573693457"><ele>57.0</ele><time>2026-04-19T15:46:42Z</time></trkpt><trkpt lat="42.536565296381" lon="14.111216973270112"><ele>57.0</ele><time>2026-04-19T15:46:43Z</time></trkpt><trkpt lat="42.536227111680084" lon="14.11139403013606"><ele>57.0</ele><time>2026-04-19T15:46:44Z</time></trkpt><trkpt lat="42.53589141562521" lon="14.111612397076925"><ele>55.0</ele><time>2026-04-19T15:46:45Z</time></trkpt><trkpt lat="42.535574920000286" lon="14.111869686372177"><ele>53.0</ele><time>2026-04-19T15:46:46Z</time></trkpt><trkpt lat="42.53528445049215" lon="14.112148230466758"><ele>50.5</ele><time>2026-04-19T15:46:47Z</time></trkpt><trkpt lat="42.53502274206395" lon="14.112440090740108"><ele>48.0</ele><time>2026-04-19T15:46:48Z</time></trkpt><trkpt lat="42.534788533412666" lon="14.112748806881408"><ele>48.0</ele><time>2026-04-19T15:46:49Z</time></trkpt><trkpt lat="42.5345736743552" lon="14.113083870087513"><ele>48.0</ele><time>2026-04-19T15:46:50Z</time></trkpt><trkpt lat="42.53437358804969" lon="14.113439134598286"><ele>44.5</ele><time>2026-04-19T15:46:51Z</time></trkpt><trkpt lat="42.534189248841386" lon="14.113818004511389"><ele>41.0</ele><time>2026-04-19T15:46:52Z</time></trkpt><trkpt lat="42.53402641596335" lon="14.114205378192523"><ele>39.5</ele><time>2026-04-19T15:46:53Z</time></trkpt><trkpt lat="42.533891089268366" lon="14.114598874261151"><ele>38.0</ele><time>2026-04-19T15:46:54Z</time></trkpt><trkpt lat="42.533767862923646" lon="14.115009467512976"><ele>37.0</ele><time>2026-04-19T15:46:55Z</time></trkpt><trkpt lat="42.53364345611211" lon="14.115450774610654"><ele>36.0</ele><time>2026-04-19T15:46:56Z</time></trkpt><trkpt lat="42.53352238148956" lon="14.115872407925165"><ele>35.5</ele><time>2026-04-19T15:46:57Z</time></trkpt><trkpt lat="42.53340442207351" lon="14.11627763888446"><ele>35.0</ele><time>2026-04-19T15:46:58Z</time></trkpt><trkpt lat="42.53328274425468" lon="14.116678022568177"><ele>34.5</ele><time>2026-04-19T15:46:59Z</time></trkpt><trkpt lat="42.533155844436166" lon="14.117099159441072"><ele>34.0</ele><time>2026-04-19T15:47:00Z</time></trkpt><trkpt lat="42.53303360873259" lon="14.117511464653699"><ele>32.0</ele><time>2026-04-19T15:47:01Z</time></trkpt><trkpt lat="42.53291548858113" lon="14.117917916631734"><ele>30.0</ele><time>2026-04-19T15:47:02Z</time></trkpt><trkpt lat="42.53279697561348" lon="14.118324728925916"><ele>26.0</ele><time>2026-04-19T15:47:03Z</time></trkpt><trkpt lat="42.53268042641219" lon="14.118732039109123"><ele>22.0</ele><time>2026-04-19T15:47:04Z</time></trkpt><trkpt lat="42.53256519664904" lon="14.119122515041292"><ele>22.0</ele><time>2026-04-19T15:47:05Z</time></trkpt><trkpt lat="42.53244993645132" lon="14.11951293590548"><ele>22.0</ele><time>2026-04-19T15:47:06Z</time></trkpt><trkpt lat="42.53233059244631" lon="14.119914407891153"><ele>21.5</ele><time>2026-04-19T15:47:07Z</time></trkpt><trkpt lat="42.53221364526153" lon="14.120309485811564"><ele>21.0</ele><time>2026-04-19T15:47:08Z</time></trkpt><trkpt lat="42.53209689312014" lon="14.120706050773213"><ele>18.5</ele><time>2026-04-19T15:47:09Z</time></trkpt><trkpt lat="42.531978134563786" lon="14.121101475463933"><ele>16.0</ele><time>2026-04-19T15:47:10Z</time></trkpt><trkpt lat="42.531861693232585" lon="14.121491261430455"><ele>17.5</ele><time>2026-04-19T15:47:11Z</time></trkpt><trkpt lat="42.53174735834859" lon="14.121878437788292"><ele>19.0</ele><time>2026-04-19T15:47:12Z</time></trkpt><trkpt lat="42.53162943219654" lon="14.122270254583922"><ele>20.5</ele><time>2026-04-19T15:47:13Z</time></trkpt><trkpt lat="42.53151243882038" lon="14.122662657231045"><ele>22.0</ele><time>2026-04-19T15:47:14Z</time></trkpt><trkpt lat="42.531394012011525" lon="14.12305701248408"><ele>22.0</ele><time>2026-04-19T15:47:15Z</time></trkpt><trkpt lat="42.531275173768925" lon="14.123454338760405"><ele>22.0</ele><time>2026-04-19T15:47:16Z</time></trkpt><trkpt lat="42.53115784532135" lon="14.123847242034364"><ele>22.0</ele><time>2026-04-19T15:47:17Z</time></trkpt><trkpt lat="42.531045849102966" lon="14.124223504724238"><ele>22.0</ele><time>2026-04-19T15:47:18Z</time></trkpt><trkpt lat="42.53093593106334" lon="14.124599062122556"><ele>23.0</ele><time>2026-04-19T15:47:19Z</time></trkpt><trkpt lat="42.53082198280237" lon="14.1249734893214"><ele>24.0</ele><time>2026-04-19T15:47:20Z</time></trkpt><trkpt lat="42.53071336978907" lon="14.125348027148268"><ele>24.0</ele><time>2026-04-19T15:47:21Z</time></trkpt><trkpt lat="42.530604186867535" lon="14.125721571098744"><ele>24.0</ele><time>2026-04-19T15:47:22Z</time></trkpt><trkpt lat="42.53049528387806" lon="14.126096710225301"><ele>20.5</ele><time>2026-04-19T15:47:23Z</time></trkpt><trkpt lat="42.53038764097292" lon="14.12647105283139"><ele>17.0</ele><time>2026-04-19T15:47:24Z</time></trkpt><trkpt lat="42.53028341813525" lon="14.126840847968305"><ele>15.5</ele><time>2026-04-19T15:47:25Z</time></trkpt><trkpt lat="42.530180828915704" lon="14.127208712961432"><ele>14.0</ele><time>2026-04-19T15:47:26Z</time></trkpt><trkpt lat="42.53006838729322" lon="14.127582187208152"><ele>14.0</ele><time>2026-04-19T15:47:27Z</time></trkpt><trkpt lat="42.52994716542129" lon="14.12798346245683"><ele>14.0</ele><time>2026-04-19T15:47:28Z</time></trkpt><trkpt lat="42.52982029953109" lon="14.128396933651517"><ele>15.0</ele><time>2026-04-19T15:47:29Z</time></trkpt><trkpt lat="42.529695982256364" lon="14.128803955895359"><ele>16.0</ele><time>2026-04-19T15:47:30Z</time></trkpt><trkpt lat="42.529568462113396" lon="14.129206653126719"><ele>14.0</ele><time>2026-04-19T15:47:31Z</time></trkpt><trkpt lat="42.52942410069638" lon="14.129627791680283"><ele>12.0</ele><time>2026-04-19T15:47:32Z</time></trkpt><trkpt lat="42.529246039301796" lon="14.1300506247177"><ele>12.0</ele><time>2026-04-19T15:47:32.999Z</time></trkpt><trkpt lat="42.529037111561586" lon="14.13045279125946"><ele>12.0</ele><time>2026-04-19T15:47:33.999Z</time></trkpt><trkpt lat="42.52880862731568" lon="14.130804561801526"><ele>12.0</ele><time>2026-04-19T15:47:34.999Z</time></trkpt><trkpt lat="42.528548628646575" lon="14.131133819928152"><ele>12.0</ele><time>2026-04-19T15:47:35.999Z</time></trkpt><trkpt lat="42.5282611691792" lon="14.131444369571113"><ele>12.0</ele><time>2026-04-19T15:47:36.999Z</time></trkpt><trkpt lat="42.52797725305923" lon="14.13169989344837"><ele>12.0</ele><time>2026-04-19T15:47:37.999Z</time></trkpt><trkpt lat="42.527688357060526" lon="14.13192627639416"><ele>10.0</ele><time>2026-04-19T15:47:38.999Z</time></trkpt><trkpt lat="42.52740058171424" lon="14.132134686123322"><ele>8.0</ele><time>2026-04-19T15:47:39.999Z</time></trkpt><trkpt lat="42.52710021283305" lon="14.132313231538872"><ele>8.0</ele><time>2026-04-19T15:47:40.999Z</time></trkpt><trkpt lat="42.52679415119123" lon="14.132458347496199"><ele>8.0</ele><time>2026-04-19T15:47:41.999Z</time></trkpt><trkpt lat="42.526480411599316" lon="14.132574743844176"><ele>6.5</ele><time>2026-04-19T15:47:42.999Z</time></trkpt><trkpt lat="42.526165436438276" lon="14.13266346960026"><ele>5.0</ele><time>2026-04-19T15:47:43.999Z</time></trkpt><trkpt lat="42.525851954938474" lon="14.132737408160407"><ele>5.0</ele><time>2026-04-19T15:47:44.999Z</time></trkpt><trkpt lat="42.525552701522315" lon="14.132808442773563"><ele>5.0</ele><time>2026-04-19T15:47:45.999Z</time></trkpt><trkpt lat="42.52527011553126" lon="14.132874802150198"><ele>6.0</ele><time>2026-04-19T15:47:46.999Z</time></trkpt><trkpt lat="42.52500498895169" lon="14.132939611126016"><ele>7.0</ele><time>2026-04-19T15:47:47.999Z</time></trkpt><trkpt lat="42.524760815054634" lon="14.133002648459112"><ele>8.5</ele><time>2026-04-19T15:47:48.999Z</time></trkpt><trkpt lat="42.52451637310473" lon="14.133067899719686"><ele>10.0</ele><time>2026-04-19T15:47:49.999Z</time></trkpt><trkpt lat="42.524270065392514" lon="14.133137005074142"><ele>10.0</ele><time>2026-04-19T15:47:50.999Z</time></trkpt><trkpt lat="42.52401747384764" lon="14.13320504116894"><ele>10.0</ele><time>2026-04-19T15:47:51.999Z</time></trkpt><trkpt lat="42.523773158317056" lon="14.133268742721063"><ele>9.0</ele><time>2026-04-19T15:47:52.999Z</time></trkpt><trkpt lat="42.5235425136195" lon="14.133333361555819"><ele>8.0</ele><time>2026-04-19T15:47:53.999Z</time></trkpt><trkpt lat="42.5233301005903" lon="14.133392480574683"><ele>8.0</ele><time>2026-04-19T15:47:54.999Z</time></trkpt><trkpt lat="42.523110844441426" lon="14.133449309522849"><ele>8.0</ele><time>2026-04-19T15:47:55.999Z</time></trkpt><trkpt lat="42.52288870368935" lon="14.133504521721607"><ele>8.0</ele><time>2026-04-19T15:47:56.999Z</time></trkpt><trkpt lat="42.5226701066447" lon="14.133563210229113"><ele>8.666666666666666</ele><time>2026-04-19T15:47:57.999Z</time></trkpt><trkpt lat="42.522451082829825" lon="14.133619891311769"><ele>9.333333333333334</ele><time>2026-04-19T15:47:58.999Z</time></trkpt><trkpt lat="42.522237048366875" lon="14.133676258599104"><ele>10.0</ele><time>2026-04-19T15:48:00Z</time></trkpt><trkpt lat="42.52202756182717" lon="14.133728396085727"><ele>10.333333333333334</ele><time>2026-04-19T15:48:01Z</time></trkpt><trkpt lat="42.521832614605444" lon="14.133782049568216"><ele>10.666666666666666</ele><time>2026-04-19T15:48:02Z</time></trkpt><trkpt lat="42.52164791529539" lon="14.13382792113735"><ele>11.0</ele><time>2026-04-19T15:48:03Z</time></trkpt><trkpt lat="42.52147018843205" lon="14.133870657349933"><ele>11.0</ele><time>2026-04-19T15:48:04Z</time></trkpt><trkpt lat="42.52130646173039" lon="14.13390754741279"><ele>11.0</ele><time>2026-04-19T15:48:05Z</time></trkpt><trkpt lat="42.52114408499103" lon="14.13392928758465"><ele>11.0</ele><time>2026-04-19T15:48:06Z</time></trkpt><trkpt lat="42.52100400930668" lon="14.133941141973892"><ele>10.600000000000001</ele><time>2026-04-19T15:48:07Z</time></trkpt><trkpt lat="42.5208909279609" lon="14.133926477107117"><ele>10.200000000000001</ele><time>2026-04-19T15:48:08Z</time></trkpt><trkpt lat="42.520796346486904" lon="14.133863858851495"><ele>9.8</ele><time>2026-04-19T15:48:09Z</time></trkpt><trkpt lat="42.52072801400151" lon="14.133758947701583"><ele>9.4</ele><time>2026-04-19T15:48:10Z</time></trkpt><trkpt lat="42.5206848140854" lon="14.133619218107908"><ele>9.0</ele><time>2026-04-19T15:48:11Z</time></trkpt><trkpt lat="42.520672122440935" lon="14.13346712747867"><ele>9.0</ele><time>2026-04-19T15:48:12Z</time></trkpt><trkpt lat="42.52071492937936" lon="14.133324746346922"><ele>9.0</ele><time>2026-04-19T15:48:13Z</time></trkpt><trkpt lat="42.52074808820678" lon="14.13318483688978"><ele>9.0</ele><time>2026-04-19T15:48:14Z</time></trkpt><trkpt lat="42.52081294137857" lon="14.133063120008417"><ele>9.0</ele><time>2026-04-19T15:48:15Z</time></trkpt><trkpt lat="42.52093699844139" lon="14.133011841601066"><ele>10.0</ele><time>2026-04-19T15:48:16Z</time></trkpt><trkpt lat="42.521054930211236" lon="14.132990805548195"><ele>11.0</ele><time>2026-04-19T15:48:17Z</time></trkpt><trkpt lat="42.52117399414012" lon="14.133009885298872"><ele>12.0</ele><time>2026-04-19T15:48:18Z</time></trkpt><trkpt lat="42.5212860028117" lon="14.133059596643934"><ele>13.0</ele><time>2026-04-19T15:48:19Z</time></trkpt><trkpt lat="42.52137925122683" lon="14.13315073303151"><ele>12.600000000000001</ele><time>2026-04-19T15:48:20Z</time></trkpt><trkpt lat="42.521449135549" lon="14.133262402215284"><ele>12.200000000000001</ele><time>2026-04-19T15:48:21Z</time></trkpt><trkpt lat="42.521495737517725" lon="14.133370868332817"><ele>11.8</ele><time>2026-04-19T15:48:22Z</time></trkpt><trkpt lat="42.52152450340537" lon="14.13347919689306"><ele>11.4</ele><time>2026-04-19T15:48:23Z</time></trkpt><trkpt lat="42.52154691024934" lon="14.133595082108378"><ele>11.0</ele><time>2026-04-19T15:48:24Z</time></trkpt><trkpt lat="42.521560492357104" lon="14.133717595552367"><ele>11.0</ele><time>2026-04-19T15:48:25Z</time></trkpt><trkpt lat="42.52157438432927" lon="14.133841923633243"><ele>11.0</ele><time>2026-04-19T15:48:26Z</time></trkpt><trkpt lat="42.521591969366845" lon="14.133992120715394"><ele>11.0</ele><time>2026-04-19T15:48:27Z</time></trkpt><trkpt lat="42.52160546467198" lon="14.134121410545616"><ele>11.0</ele><time>2026-04-19T15:48:28Z</time></trkpt><trkpt lat="42.52161669593727" lon="14.134239013732572"><ele>11.0</ele><time>2026-04-19T15:48:29Z</time></trkpt><trkpt lat="42.52162788769412" lon="14.134349175283548"><ele>10.333333333333332</ele><time>2026-04-19T15:48:30Z</time></trkpt><trkpt lat="42.521640408609024" lon="14.13445499560581"><ele>9.666666666666666</ele><time>2026-04-19T15:48:31Z</time></trkpt><trkpt lat="42.521651760713866" lon="14.134562784510145"><ele>9.0</ele><time>2026-04-19T15:48:32Z</time></trkpt><trkpt lat="42.521653490707976" lon="14.134664696072633"><ele>8.333333333333334</ele><time>2026-04-19T15:48:33Z</time></trkpt><trkpt lat="42.521650858411554" lon="14.134762949065673"><ele>7.666666666666667</ele><time>2026-04-19T15:48:34Z</time></trkpt><trkpt lat="42.52164597699052" lon="14.134863983489662"><ele>7.0</ele><time>2026-04-19T15:48:35Z</time></trkpt><trkpt lat="42.521641039872286" lon="14.134961632687146"><ele>6.666666666666667</ele><time>2026-04-19T15:48:36Z</time></trkpt><trkpt lat="42.521636440049974" lon="14.135063589207432"><ele>6.333333333333334</ele><time>2026-04-19T15:48:37Z</time></trkpt><trkpt lat="42.52162665486739" lon="14.135188287621425"><ele>6.0</ele><time>2026-04-19T15:48:38Z</time></trkpt><trkpt lat="42.52160669917437" lon="14.135322946180692"><ele>5.666666666666667</ele><time>2026-04-19T15:48:39Z</time></trkpt><trkpt lat="42.521578351184885" lon="14.135439928069959"><ele>5.333333333333334</ele><time>2026-04-19T15:48:40Z</time></trkpt><trkpt lat="42.521559335465994" lon="14.135549762469704"><ele>5.0</ele><time>2026-04-19T15:48:41Z</time></trkpt><trkpt lat="42.52153978294728" lon="14.135667279476431"><ele>5.4</ele><time>2026-04-19T15:48:42Z</time></trkpt><trkpt lat="42.52151534109929" lon="14.135802665352843"><ele>5.8</ele><time>2026-04-19T15:48:43Z</time></trkpt><trkpt lat="42.521486541744835" lon="14.135943376976998"><ele>6.199999999999999</ele><time>2026-04-19T15:48:44Z</time></trkpt><trkpt lat="42.52145826810937" lon="14.136070191299769"><ele>6.6</ele><time>2026-04-19T15:48:45Z</time></trkpt><trkpt lat="42.52145519537031" lon="14.136195096486329"><ele>7.0</ele><time>2026-04-19T15:48:46Z</time></trkpt><trkpt lat="42.521422824078904" lon="14.136308845396181"><ele>7.000000000000001</ele><time>2026-04-19T15:48:47Z</time></trkpt><trkpt lat="42.52140796998998" lon="14.136422984464005"><ele>7.0</ele><time>2026-04-19T15:48:48Z</time></trkpt><trkpt lat="42.5214063583715" lon="14.136533829776246"><ele>7.0</ele><time>2026-04-19T15:48:49Z</time></trkpt><trkpt lat="42.5213887654756" lon="14.1366417376681"><ele>7.0</ele><time>2026-04-19T15:48:50Z</time></trkpt><trkpt lat="42.521373184782064" lon="14.136741918389037"><ele>7.000000000000001</ele><time>2026-04-19T15:48:51Z</time></trkpt><trkpt lat="42.52135945459355" lon="14.136830234445389"><ele>7.0</ele><time>2026-04-19T15:48:52Z</time></trkpt><trkpt lat="42.52134469936117" lon="14.13692514392372"><ele>6.8</ele><time>2026-04-19T15:48:53Z</time></trkpt><trkpt lat="42.52132830644601" lon="14.137034355017049"><ele>6.6</ele><time>2026-04-19T15:48:54Z</time></trkpt><trkpt lat="42.52130937736538" lon="14.13715653031199"><ele>6.3999999999999995</ele><time>2026-04-19T15:48:55Z</time></trkpt><trkpt lat="42.521279922478676" lon="14.137301352326313"><ele>6.199999999999999</ele><time>2026-04-19T15:48:56Z</time></trkpt><trkpt lat="42.521237949567585" lon="14.137435599950102"><ele>6.0</ele><time>2026-04-19T15:48:57Z</time></trkpt><trkpt lat="42.52119611075618" lon="14.137539200686186"><ele>5.6</ele><time>2026-04-19T15:48:58Z</time></trkpt><trkpt lat="42.52102218972679" lon="14.13751051772919"><ele>5.199999999999999</ele><time>2026-04-19T15:48:59Z</time></trkpt><trkpt lat="42.52096091921215" lon="14.137536399329957"><ele>4.800000000000001</ele><time>2026-04-19T15:49:00Z</time></trkpt><trkpt lat="42.520877400538936" lon="14.137527264551135"><ele>4.4</ele><time>2026-04-19T15:49:02Z</time></trkpt><trkpt lat="42.52076921611919" lon="14.137484315845027"><ele>4.0</ele><time>2026-04-19T15:49:11Z</time></trkpt><trkpt lat="42.52069752892299" lon="14.137503243110517"><ele>4.2</ele><time>2026-04-19T15:49:12Z</time></trkpt><trkpt lat="42.52061521144073" lon="14.13733975741685"><ele>4.4</ele><time>2026-04-19T15:49:13Z</time></trkpt><trkpt lat="42.52053349380374" lon="14.137251248851197"><ele>4.6</ele><time>2026-04-19T15:49:14Z</time></trkpt><trkpt lat="42.52046451898764" lon="14.137164277055264"><ele>4.8</ele><time>2026-04-19T15:49:15Z</time></trkpt><trkpt lat="42.52040128698816" lon="14.137087744664147"><ele>5.0</ele><time>2026-04-19T15:49:16Z</time></trkpt><trkpt lat="42.52033578805163" lon="14.137018293563871"><ele>5.333333333333334</ele><time>2026-04-19T15:49:17Z</time></trkpt><trkpt lat="42.52027736975901" lon="14.13695591243443"><ele>5.666666666666667</ele><time>2026-04-19T15:49:18Z</time></trkpt><trkpt lat="42.52019108624958" lon="14.13686170679186"><ele>6.0</ele><time>2026-04-19T15:49:20Z</time></trkpt><trkpt lat="42.52012424198561" lon="14.13678529763039"><ele>6.333333333333334</ele><time>2026-04-19T15:49:22Z</time></trkpt><trkpt lat="42.520051874578336" lon="14.136688277519767"><ele>6.666666666666667</ele><time>2026-04-19T15:49:25Z</time></trkpt><trkpt lat="42.52001006699586" lon="14.13661093802019"><ele>7.0</ele><time>2026-04-19T15:49:27Z</time></trkpt><trkpt lat="42.519992770972195" lon="14.136471089253574"><ele>7.199999999999999</ele><time>2026-04-19T15:49:32Z</time></trkpt><trkpt lat="42.51994677419326" lon="14.136304408175805"><ele>7.3999999999999995</ele><time>2026-04-19T15:49:34Z</time></trkpt><trkpt lat="42.51988952941055" lon="14.13618677698546"><ele>7.6000000000000005</ele><time>2026-04-19T15:49:35.999Z</time></trkpt><trkpt lat="42.519777418996014" lon="14.136217541416269"><ele>7.800000000000001</ele><time>2026-04-19T15:49:36.999Z</time></trkpt><trkpt lat="42.519703058527696" lon="14.136211269716377"><ele>8.0</ele><time>2026-04-19T15:49:37.999Z</time></trkpt><trkpt lat="42.519615499240714" lon="14.136198642485585"><ele>7.75</ele><time>2026-04-19T15:49:38.999Z</time></trkpt><trkpt lat="42.51953730577397" lon="14.13614292300325"><ele>7.5</ele><time>2026-04-19T15:49:39.999Z</time></trkpt><trkpt lat="42.519448343116295" lon="14.136044682602517"><ele>7.25</ele><time>2026-04-19T15:49:40.999Z</time></trkpt><trkpt lat="42.51934918525342" lon="14.135926466867046"><ele>7.0</ele><time>2026-04-19T15:49:41.999Z</time></trkpt><trkpt lat="42.51926991208779" lon="14.13577917509566"><ele>6.333333333333334</ele><time>2026-04-19T15:49:42.999Z</time></trkpt><trkpt lat="42.51917731842115" lon="14.135632044109688"><ele>5.666666666666667</ele><time>2026-04-19T15:49:43.999Z</time></trkpt><trkpt lat="42.51907562409127" lon="14.135458645445313"><ele>5.0</ele><time>2026-04-19T15:49:44.999Z</time></trkpt><trkpt lat="42.51895978896265" lon="14.135281551125376"><ele>5.0</ele><time>2026-04-19T15:49:45.999Z</time></trkpt><trkpt lat="42.518870282511195" lon="14.135115159247553"><ele>5.0</ele><time>2026-04-19T15:49:46.999Z</time></trkpt><trkpt lat="42.518785625650374" lon="14.134973379386782"><ele>5.0</ele><time>2026-04-19T15:49:47.999Z</time></trkpt><trkpt lat="42.518703536284136" lon="14.134840056143423"><ele>5.0</ele><time>2026-04-19T15:49:48.999Z</time></trkpt><trkpt lat="42.518624969634935" lon="14.134704664420132"><ele>5.5</ele><time>2026-04-19T15:49:49.999Z</time></trkpt><trkpt lat="42.5185398466598" lon="14.134557910682597"><ele>6.0</ele><time>2026-04-19T15:49:50.999Z</time></trkpt><trkpt lat="42.518454193558874" lon="14.134408097683325"><ele>6.5</ele><time>2026-04-19T15:49:51.999Z</time></trkpt><trkpt lat="42.518374139398546" lon="14.134270621206044"><ele>7.0</ele><time>2026-04-19T15:49:52.999Z</time></trkpt><trkpt lat="42.51830101649488" lon="14.134151891981697"><ele>7.3999999999999995</ele><time>2026-04-19T15:49:53.999Z</time></trkpt><trkpt lat="42.5182355189982" lon="14.13404267824323"><ele>7.799999999999999</ele><time>2026-04-19T15:49:54.999Z</time></trkpt><trkpt lat="42.51817416427831" lon="14.133940830365868"><ele>8.2</ele><time>2026-04-19T15:49:55.999Z</time></trkpt><trkpt lat="42.518120196623634" lon="14.133851351257466"><ele>8.6</ele><time>2026-04-19T15:49:56.999Z</time></trkpt><trkpt lat="42.51806719517854" lon="14.133731309615486"><ele>9.0</ele><time>2026-04-19T15:49:58.999Z</time></trkpt><trkpt lat="42.51802691917879" lon="14.133629682193371"><ele>9.0</ele><time>2026-04-19T15:50:00.999Z</time></trkpt><trkpt lat="42.517974897936995" lon="14.133566474400638"><ele>9.0</ele><time>2026-04-19T15:50:03.999Z</time></trkpt><trkpt lat="42.5178218986449" lon="14.133670673312633"><ele>9.0</ele><time>2026-04-19T15:50:09Z</time></trkpt><trkpt lat="42.517562277058616" lon="14.134018361935174"><ele>9.2</ele><time>2026-04-19T15:50:11Z</time></trkpt><trkpt lat="42.51746027342535" lon="14.134150393445076"><ele>9.4</ele><time>2026-04-19T15:50:12Z</time></trkpt><trkpt lat="42.51737263753244" lon="14.13426401270329"><ele>9.6</ele><time>2026-04-19T15:50:13Z</time></trkpt><trkpt lat="42.51731788305284" lon="14.134337361059528"><ele>9.8</ele><time>2026-04-19T15:50:14Z</time></trkpt><trkpt lat="42.51726891893329" lon="14.134400215376216"><ele>10.0</ele><time>2026-04-19T15:50:15Z</time></trkpt><trkpt lat="42.517202521360524" lon="14.134481393688985"><ele>10.0</ele><time>2026-04-19T15:50:16Z</time></trkpt><trkpt lat="42.51713836216766" lon="14.13455733549196"><ele>10.0</ele><time>2026-04-19T15:50:17Z</time></trkpt><trkpt lat="42.51707333285231" lon="14.134637827830794"><ele>10.0</ele><time>2026-04-19T15:50:18Z</time></trkpt><trkpt lat="42.51700981457709" lon="14.134713293965179"><ele>10.0</ele><time>2026-04-19T15:50:19Z</time></trkpt><trkpt lat="42.51695257256291" lon="14.134788696223893"><ele>10.0</ele><time>2026-04-19T15:50:20Z</time></trkpt><trkpt lat="42.51689044837052" lon="14.134867889182944"><ele>10.0</ele><time>2026-04-19T15:50:21Z</time></trkpt><trkpt lat="42.51683325367983" lon="14.134936329966324"><ele>9.5</ele><time>2026-04-19T15:50:22Z</time></trkpt><trkpt lat="42.51677768901734" lon="14.13500906271053"><ele>9.0</ele><time>2026-04-19T15:50:23Z</time></trkpt><trkpt lat="42.516719119784526" lon="14.135083961483948"><ele>8.5</ele><time>2026-04-19T15:50:24Z</time></trkpt><trkpt lat="42.51666170177087" lon="14.135158725686187"><ele>8.0</ele><time>2026-04-19T15:50:25Z</time></trkpt><trkpt lat="42.5165978047702" lon="14.135239934315303"><ele>7.500000000000001</ele><time>2026-04-19T15:50:26Z</time></trkpt><trkpt lat="42.51653849070914" lon="14.135314806651644"><ele>7.0</ele><time>2026-04-19T15:50:27Z</time></trkpt><trkpt lat="42.51647819195112" lon="14.135395596751113"><ele>7.0</ele><time>2026-04-19T15:50:28Z</time></trkpt><trkpt lat="42.51642308494263" lon="14.135483655579943"><ele>6.999999999999999</ele><time>2026-04-19T15:50:29Z</time></trkpt><trkpt lat="42.51635951726102" lon="14.13556615634189"><ele>6.999999999999999</ele><time>2026-04-19T15:50:30Z</time></trkpt><trkpt lat="42.51629337237301" lon="14.135650034315905"><ele>7.0</ele><time>2026-04-19T15:50:31Z</time></trkpt><trkpt lat="42.516204785095184" lon="14.135760818027936"><ele>7.0</ele><time>2026-04-19T15:50:32Z</time></trkpt><trkpt lat="42.51610745082978" lon="14.135885789633246"><ele>6.0</ele><time>2026-04-19T15:50:33Z</time></trkpt><trkpt lat="42.51600132420374" lon="14.136041587186229"><ele>5.0</ele><time>2026-04-19T15:50:34Z</time></trkpt><trkpt lat="42.51589902982353" lon="14.136140266636312"><ele>4.0</ele><time>2026-04-19T15:50:35Z</time></trkpt><trkpt lat="42.51578450161676" lon="14.136212012011214"><ele>3.0</ele><time>2026-04-19T15:50:36Z</time></trkpt><trkpt lat="42.515682757378535" lon="14.136284323892376"><ele>3.0</ele><time>2026-04-19T15:50:37Z</time></trkpt><trkpt lat="42.51560539389162" lon="14.13640615290336"><ele>3.0</ele><time>2026-04-19T15:50:38Z</time></trkpt><trkpt lat="42.51558896887842" lon="14.136593597356143"><ele>3.0</ele><time>2026-04-19T15:50:39Z</time></trkpt><trkpt lat="42.5154243699569" lon="14.136663938450143"><ele>3.0</ele><time>2026-04-19T15:50:40Z</time></trkpt><trkpt lat="42.51527342429335" lon="14.136746586469416"><ele>2.0</ele><time>2026-04-19T15:50:41Z</time></trkpt><trkpt lat="42.51507436932427" lon="14.136856220200405"><ele>1.0</ele><time>2026-04-19T15:50:42Z</time></trkpt><trkpt lat="42.514843113005476" lon="14.137005530402169"><ele>1.0</ele><time>2026-04-19T15:50:43Z</time></trkpt><trkpt lat="42.51459123453321" lon="14.1371285363953"><ele>1.0</ele><time>2026-04-19T15:50:44Z</time></trkpt><trkpt lat="42.51437802715441" lon="14.137229996324669"><ele>1.75</ele><time>2026-04-19T15:50:45Z</time></trkpt><trkpt lat="42.514221078660846" lon="14.13732579068239"><ele>2.5</ele><time>2026-04-19T15:50:46Z</time></trkpt><trkpt lat="42.514096436904076" lon="14.137394116551892"><ele>3.25</ele><time>2026-04-19T15:50:47Z</time></trkpt><trkpt lat="42.513984204720124" lon="14.137424956524761"><ele>4.0</ele><time>2026-04-19T15:50:48Z</time></trkpt><trkpt lat="42.51388679938855" lon="14.137380992026994"><ele>4.0</ele><time>2026-04-19T15:50:49Z</time></trkpt><trkpt lat="42.51380195612861" lon="14.137382916386217"><ele>4.0</ele><time>2026-04-19T15:50:50Z</time></trkpt><trkpt lat="42.513723887815054" lon="14.137331016155496"><ele>4.0</ele><time>2026-04-19T15:50:51Z</time></trkpt><trkpt lat="42.51367971903209" lon="14.13722198357866"><ele>4.0</ele><time>2026-04-19T15:50:52Z</time></trkpt><trkpt lat="42.513618525636865" lon="14.13707888609223"><ele>4.0</ele><time>2026-04-19T15:50:53Z</time></trkpt><trkpt lat="42.513549047344966" lon="14.136883064041815"><ele>4.0</ele><time>2026-04-19T15:50:54Z</time></trkpt><trkpt lat="42.51347707234908" lon="14.136630899450736"><ele>4.0</ele><time>2026-04-19T15:50:55Z</time></trkpt><trkpt lat="42.513401029093004" lon="14.136351695443368"><ele>4.0</ele><time>2026-04-19T15:50:56Z</time></trkpt><trkpt lat="42.513349616653244" lon="14.136068619130135"><ele>3.6666666666666665</ele><time>2026-04-19T15:50:57Z</time></trkpt><trkpt lat="42.51327668707623" lon="14.135802678922419"><ele>3.333333333333333</ele><time>2026-04-19T15:50:58Z</time></trkpt><trkpt lat="42.5131853181385" lon="14.135582348218227"><ele>3.0</ele><time>2026-04-19T15:50:59Z</time></trkpt><trkpt lat="42.51306357536716" lon="14.135386855468562"><ele>3.0</ele><time>2026-04-19T15:51:00Z</time></trkpt><trkpt lat="42.512926424913225" lon="14.135212807818274"><ele>3.0</ele><time>2026-04-19T15:51:01Z</time></trkpt><trkpt lat="42.51277374773576" lon="14.135054539957613"><ele>3.0</ele><time>2026-04-19T15:51:02Z</time></trkpt><trkpt lat="42.51258792831824" lon="14.134908743581567"><ele>2.0</ele><time>2026-04-19T15:51:03Z</time></trkpt><trkpt lat="42.51238224499747" lon="14.134780756257065"><ele>1.0</ele><time>2026-04-19T15:51:04Z</time></trkpt><trkpt lat="42.51216394357608" lon="14.134658841498048"><ele>2.3333333333333335</ele><time>2026-04-19T15:51:05Z</time></trkpt><trkpt lat="42.51195855904504" lon="14.13452653197494"><ele>3.666666666666667</ele><time>2026-04-19T15:51:06Z</time></trkpt><trkpt lat="42.511800270073024" lon="14.134366137331957"><ele>5.0</ele><time>2026-04-19T15:51:07Z</time></trkpt><trkpt lat="42.511685213482814" lon="14.134215119228937"><ele>5.0</ele><time>2026-04-19T15:51:08Z</time></trkpt><trkpt lat="42.511599122272855" lon="14.134052719597118"><ele>5.0</ele><time>2026-04-19T15:51:09Z</time></trkpt><trkpt lat="42.511527781884254" lon="14.133890333337032"><ele>5.0</ele><time>2026-04-19T15:51:10Z</time></trkpt><trkpt lat="42.51144210755805" lon="14.13374875026903"><ele>5.0</ele><time>2026-04-19T15:51:11Z</time></trkpt><trkpt lat="42.511357292017635" lon="14.13358604654045"><ele>5.0</ele><time>2026-04-19T15:51:12Z</time></trkpt><trkpt lat="42.51124363159209" lon="14.133386564851682"><ele>5.0</ele><time>2026-04-19T15:51:13Z</time></trkpt><trkpt lat="42.511107386180534" lon="14.13315884813444"><ele>5.0</ele><time>2026-04-19T15:51:14Z</time></trkpt><trkpt lat="42.510959065924695" lon="14.13290922484262"><ele>5.5</ele><time>2026-04-19T15:51:15Z</time></trkpt><trkpt lat="42.510809460008325" lon="14.132640666807713"><ele>6.0</ele><time>2026-04-19T15:51:16Z</time></trkpt><trkpt lat="42.51067397257836" lon="14.132377737808117"><ele>6.0</ele><time>2026-04-19T15:51:17Z</time></trkpt><trkpt lat="42.51054671951131" lon="14.13212341540606"><ele>6.0</ele><time>2026-04-19T15:51:18Z</time></trkpt><trkpt lat="42.51041977002783" lon="14.131880734799525"><ele>6.0</ele><time>2026-04-19T15:51:19Z</time></trkpt><trkpt lat="42.51030033276328" lon="14.131658861007283"><ele>5.666666666666667</ele><time>2026-04-19T15:51:20Z</time></trkpt><trkpt lat="42.51018958903929" lon="14.131453285616365"><ele>5.333333333333334</ele><time>2026-04-19T15:51:21Z</time></trkpt><trkpt lat="42.51007266217738" lon="14.131257283575106"><ele>5.0</ele><time>2026-04-19T15:51:22Z</time></trkpt><trkpt lat="42.50994639000452" lon="14.131059315145405"><ele>5.0</ele><time>2026-04-19T15:51:23Z</time></trkpt><trkpt lat="42.509822831247455" lon="14.13087369227259"><ele>5.0</ele><time>2026-04-19T15:51:24Z</time></trkpt><trkpt lat="42.50970586905396" lon="14.13070569647164"><ele>5.0</ele><time>2026-04-19T15:51:25Z</time></trkpt><trkpt lat="42.50959938590287" lon="14.13056168633858"><ele>5.5</ele><time>2026-04-19T15:51:26Z</time></trkpt><trkpt lat="42.50951677538491" lon="14.130411867567972"><ele>6.0</ele><time>2026-04-19T15:51:27Z</time></trkpt><trkpt lat="42.50943823145043" lon="14.130295823924229"><ele>6.5</ele><time>2026-04-19T15:51:28Z</time></trkpt><trkpt lat="42.509357805604324" lon="14.130176999974502"><ele>7.0</ele><time>2026-04-19T15:51:29Z</time></trkpt><trkpt lat="42.509276927496096" lon="14.130057254437425"><ele>7.0</ele><time>2026-04-19T15:51:30Z</time></trkpt><trkpt lat="42.50920335786747" lon="14.129947873853789"><ele>6.999999999999999</ele><time>2026-04-19T15:51:31Z</time></trkpt><trkpt lat="42.50915170494393" lon="14.129870726427118"><ele>6.999999999999999</ele><time>2026-04-19T15:51:32Z</time></trkpt><trkpt lat="42.50908452035882" lon="14.129765583583938"><ele>7.0</ele><time>2026-04-19T15:51:34Z</time></trkpt><trkpt lat="42.509066212448616" lon="14.129612981341388"><ele>7.0</ele><time>2026-04-19T15:51:36Z</time></trkpt><trkpt lat="42.509049159271484" lon="14.129490109764095"><ele>6.833333333333334</ele><time>2026-04-19T15:51:37Z</time></trkpt><trkpt lat="42.50901390410649" lon="14.129381354863773"><ele>6.666666666666667</ele><time>2026-04-19T15:51:38Z</time></trkpt><trkpt lat="42.50897309744572" lon="14.129312753514531"><ele>6.5</ele><time>2026-04-19T15:51:39Z</time></trkpt><trkpt lat="42.50886871530001" lon="14.12934243322822"><ele>6.333333333333334</ele><time>2026-04-19T15:51:40Z</time></trkpt><trkpt lat="42.50878924036445" lon="14.129391237784462"><ele>6.166666666666667</ele><time>2026-04-19T15:51:41Z</time></trkpt><trkpt lat="42.50871167187424" lon="14.129453973616325"><ele>6.0</ele><time>2026-04-19T15:51:42Z</time></trkpt><trkpt lat="42.508706602023814" lon="14.12966981407599"><ele>6.0</ele><time>2026-04-19T15:51:43Z</time></trkpt><trkpt lat="42.5085778796879" lon="14.129814913157293"><ele>6.0</ele><time>2026-04-19T15:51:44Z</time></trkpt><trkpt lat="42.50845343676206" lon="14.129908445434802"><ele>6.0</ele><time>2026-04-19T15:51:45Z</time></trkpt><trkpt lat="42.50834658767469" lon="14.130000440194571"><ele>6.0</ele><time>2026-04-19T15:51:45.999Z</time></trkpt><trkpt lat="42.508231934266306" lon="14.130123590997117"><ele>8.0</ele><time>2026-04-19T15:51:46.999Z</time></trkpt><trkpt lat="42.5080685826196" lon="14.130251709524714"><ele>10.0</ele><time>2026-04-19T15:51:47.999Z</time></trkpt><trkpt lat="42.50788075621501" lon="14.130403155934946"><ele>12.0</ele><time>2026-04-19T15:51:48.999Z</time></trkpt><trkpt lat="42.507701579417784" lon="14.130529091469496"><ele>12.0</ele><time>2026-04-19T15:51:49.999Z</time></trkpt><trkpt lat="42.50749269485864" lon="14.130616298236685"><ele>12.0</ele><time>2026-04-19T15:51:50.999Z</time></trkpt><trkpt lat="42.50726830729761" lon="14.130672979520464"><ele>12.0</ele><time>2026-04-19T15:51:51.999Z</time></trkpt><trkpt lat="42.50705560041118" lon="14.130727170535218"><ele>11.0</ele><time>2026-04-19T15:51:52.999Z</time></trkpt><trkpt lat="42.506880133305806" lon="14.13079418486115"><ele>10.0</ele><time>2026-04-19T15:51:53.999Z</time></trkpt><trkpt lat="42.50671733058876" lon="14.130873540195168"><ele>9.0</ele><time>2026-04-19T15:51:54.999Z</time></trkpt><trkpt lat="42.50657276496387" lon="14.130955343985667"><ele>9.0</ele><time>2026-04-19T15:51:55.999Z</time></trkpt><trkpt lat="42.5064567305006" lon="14.13102868002109"><ele>9.0</ele><time>2026-04-19T15:51:56.999Z</time></trkpt><trkpt lat="42.50635696990643" lon="14.131089811790146"><ele>9.0</ele><time>2026-04-19T15:51:57.999Z</time></trkpt><trkpt lat="42.50625834026563" lon="14.131163237442532"><ele>9.0</ele><time>2026-04-19T15:51:58.999Z</time></trkpt><trkpt lat="42.506141335165154" lon="14.131271613162777"><ele>9.0</ele><time>2026-04-19T15:51:59.999Z</time></trkpt><trkpt lat="42.50598603246278" lon="14.131393139129173"><ele>9.0</ele><time>2026-04-19T15:52:00.999Z</time></trkpt><trkpt lat="42.505842469967845" lon="14.131526448885255"><ele>9.0</ele><time>2026-04-19T15:52:01.999Z</time></trkpt><trkpt lat="42.50572909009308" lon="14.131644201634986"><ele>9.0</ele><time>2026-04-19T15:52:02.999Z</time></trkpt><trkpt lat="42.50560689008426" lon="14.131734678502719"><ele>9.0</ele><time>2026-04-19T15:52:03.999Z</time></trkpt><trkpt lat="42.50550841551384" lon="14.131853506452295"><ele>9.0</ele><time>2026-04-19T15:52:04.999Z</time></trkpt><trkpt lat="42.50538626780595" lon="14.131965460257685"><ele>9.0</ele><time>2026-04-19T15:52:05.999Z</time></trkpt><trkpt lat="42.505247093501154" lon="14.132092036814182"><ele>9.0</ele><time>2026-04-19T15:52:06.999Z</time></trkpt><trkpt lat="42.505099241919375" lon="14.132223845315607"><ele>9.0</ele><time>2026-04-19T15:52:07.999Z</time></trkpt><trkpt lat="42.504924771236745" lon="14.132379492983345"><ele>9.0</ele><time>2026-04-19T15:52:08.999Z</time></trkpt><trkpt lat="42.504759412386036" lon="14.13253912733438"><ele>9.0</ele><time>2026-04-19T15:52:09.999Z</time></trkpt><trkpt lat="42.50459843083138" lon="14.132676965861206"><ele>9.0</ele><time>2026-04-19T15:52:10.999Z</time></trkpt><trkpt lat="42.50446199028271" lon="14.132802414184198"><ele>9.0</ele><time>2026-04-19T15:52:12Z</time></trkpt><trkpt lat="42.504328209402686" lon="14.132929434171954"><ele>9.666666666666666</ele><time>2026-04-19T15:52:13Z</time></trkpt><trkpt lat="42.504184378734166" lon="14.133071112337213"><ele>10.333333333333332</ele><time>2026-04-19T15:52:14Z</time></trkpt><trkpt lat="42.5040546024018" lon="14.133192569798856"><ele>11.0</ele><time>2026-04-19T15:52:15Z</time></trkpt><trkpt lat="42.503931637834704" lon="14.133298733487328"><ele>11.0</ele><time>2026-04-19T15:52:16Z</time></trkpt><trkpt lat="42.50381851530991" lon="14.133398261246922"><ele>11.0</ele><time>2026-04-19T15:52:17Z</time></trkpt><trkpt lat="42.50372228367403" lon="14.133481523644093"><ele>11.0</ele><time>2026-04-19T15:52:18Z</time></trkpt><trkpt lat="42.50362807688372" lon="14.133579913100741"><ele>11.0</ele><time>2026-04-19T15:52:19Z</time></trkpt><trkpt lat="42.503549985417315" lon="14.133674608195589"><ele>11.5</ele><time>2026-04-19T15:52:20Z</time></trkpt><trkpt lat="42.5034811079396" lon="14.133774126781288"><ele>12.0</ele><time>2026-04-19T15:52:21Z</time></trkpt><trkpt lat="42.503434864800724" lon="14.133910980680366"><ele>12.5</ele><time>2026-04-19T15:52:22Z</time></trkpt><trkpt lat="42.50339906904351" lon="14.134103194024089"><ele>13.0</ele><time>2026-04-19T15:52:23Z</time></trkpt><trkpt lat="42.50333768117739" lon="14.134292467772475"><ele>13.0</ele><time>2026-04-19T15:52:24Z</time></trkpt><trkpt lat="42.50329807035844" lon="14.134446853726283"><ele>13.0</ele><time>2026-04-19T15:52:25Z</time></trkpt><trkpt lat="42.50326188917871" lon="14.13457397311313"><ele>13.0</ele><time>2026-04-19T15:52:26Z</time></trkpt><trkpt lat="42.50322988939276" lon="14.13466450307995"><ele>13.0</ele><time>2026-04-19T15:52:27Z</time></trkpt><trkpt lat="42.503173272308935" lon="14.134791273174958"><ele>13.0</ele><time>2026-04-19T15:52:29Z</time></trkpt><trkpt lat="42.50313683576704" lon="14.134895768139533"><ele>12.8</ele><time>2026-04-19T15:52:33Z</time></trkpt><trkpt lat="42.50310842875612" lon="14.134987550315742"><ele>12.600000000000001</ele><time>2026-04-19T15:52:35Z</time></trkpt><trkpt lat="42.503085149846434" lon="14.135106503644481"><ele>12.399999999999999</ele><time>2026-04-19T15:52:37Z</time></trkpt><trkpt lat="42.50303324757639" lon="14.135224688731203"><ele>12.2</ele><time>2026-04-19T15:52:40Z</time></trkpt><trkpt lat="42.50288719868035" lon="14.135171282738645"><ele>12.0</ele><time>2026-04-19T15:52:42Z</time></trkpt><trkpt lat="42.50282027822625" lon="14.13505031684479"><ele>12.5</ele><time>2026-04-19T15:52:44Z</time></trkpt><trkpt lat="42.502706728071665" lon="14.134949450883049"><ele>13.0</ele><time>2026-04-19T15:52:46Z</time></trkpt><trkpt lat="42.502633243090834" lon="14.134865851313798"><ele>13.5</ele><time>2026-04-19T15:52:47Z</time></trkpt><trkpt lat="42.50253737717295" lon="14.134752569982181"><ele>14.0</ele><time>2026-04-19T15:52:48Z</time></trkpt><trkpt lat="42.50246056500537" lon="14.134663005563159"><ele>14.000000000000002</ele><time>2026-04-19T15:52:49Z</time></trkpt><trkpt lat="42.50240617412799" lon="14.134605271255529"><ele>14.0</ele><time>2026-04-19T15:52:50Z</time></trkpt><trkpt lat="42.50230154005145" lon="14.134500971450196"><ele>14.0</ele><time>2026-04-19T15:52:52Z</time></trkpt><trkpt lat="42.502228941974245" lon="14.134448015165278"><ele>14.0</ele><time>2026-04-19T15:52:53Z</time></trkpt><trkpt lat="42.502157783918186" lon="14.134438968065147"><ele>14.000000000000002</ele><time>2026-04-19T15:52:54Z</time></trkpt><trkpt lat="42.50210365788362" lon="14.134487314925174"><ele>14.0</ele><time>2026-04-19T15:52:55Z</time></trkpt><trkpt lat="42.502068774320776" lon="14.134578342515193"><ele>14.2</ele><time>2026-04-19T15:52:56Z</time></trkpt><trkpt lat="42.502051853951514" lon="14.134711202023757"><ele>14.399999999999999</ele><time>2026-04-19T15:52:57Z</time></trkpt><trkpt lat="42.502046488216735" lon="14.13485597641743"><ele>14.6</ele><time>2026-04-19T15:52:58Z</time></trkpt><trkpt lat="42.50204009629157" lon="14.135016081869024"><ele>14.8</ele><time>2026-04-19T15:52:59Z</time></trkpt><trkpt lat="42.50198225834145" lon="14.13514999060146"><ele>15.0</ele><time>2026-04-19T15:53:00Z</time></trkpt><trkpt lat="42.50193508379882" lon="14.135329231572658"><ele>15.0</ele><time>2026-04-19T15:53:01Z</time></trkpt><trkpt lat="42.501889893310434" lon="14.135500934074111"><ele>15.0</ele><time>2026-04-19T15:53:02Z</time></trkpt><trkpt lat="42.50184795849363" lon="14.135660266765651"><ele>15.0</ele><time>2026-04-19T15:53:03Z</time></trkpt><trkpt lat="42.50180454957428" lon="14.135824674583878"><ele>15.0</ele><time>2026-04-19T15:53:04Z</time></trkpt><trkpt lat="42.501761419389425" lon="14.13598807127116"><ele>14.75</ele><time>2026-04-19T15:53:05Z</time></trkpt><trkpt lat="42.50172118582369" lon="14.136143517638827"><ele>14.5</ele><time>2026-04-19T15:53:06Z</time></trkpt><trkpt lat="42.501683214157005" lon="14.136289525236975"><ele>14.25</ele><time>2026-04-19T15:53:07Z</time></trkpt><trkpt lat="42.50164381230229" lon="14.13644154512091"><ele>14.0</ele><time>2026-04-19T15:53:08Z</time></trkpt><trkpt lat="42.501593956788774" lon="14.136633897261945"><ele>14.0</ele><time>2026-04-19T15:53:09Z</time></trkpt><trkpt lat="42.50154008613623" lon="14.13684174155589"><ele>14.0</ele><time>2026-04-19T15:53:10Z</time></trkpt><trkpt lat="42.50150590193302" lon="14.13704407999988"><ele>14.0</ele><time>2026-04-19T15:53:11Z</time></trkpt><trkpt lat="42.5014625645347" lon="14.137196027447906"><ele>14.0</ele><time>2026-04-19T15:53:12Z</time></trkpt><trkpt lat="42.50142849328655" lon="14.137337635857424"><ele>14.399999999999999</ele><time>2026-04-19T15:53:13Z</time></trkpt><trkpt lat="42.50137982681252" lon="14.137461239520832"><ele>14.799999999999999</ele><time>2026-04-19T15:53:14Z</time></trkpt><trkpt lat="42.50135328578827" lon="14.137563143893233"><ele>15.200000000000001</ele><time>2026-04-19T15:53:15Z</time></trkpt><trkpt lat="42.50131209127842" lon="14.137721310589084"><ele>15.600000000000001</ele><time>2026-04-19T15:53:17Z</time></trkpt><trkpt lat="42.50127520048931" lon="14.137860434079478"><ele>16.0</ele><time>2026-04-19T15:53:19Z</time></trkpt><trkpt lat="42.501253548888464" lon="14.137941285028093"><ele>16.666666666666664</ele><time>2026-04-19T15:53:22Z</time></trkpt><trkpt lat="42.50123540722478" lon="14.138046641670664"><ele>17.333333333333332</ele><time>2026-04-19T15:53:25Z</time></trkpt><trkpt lat="42.50118892264821" lon="14.13818889091614"><ele>18.0</ele><time>2026-04-19T15:53:28Z</time></trkpt><trkpt lat="42.501155634792845" lon="14.138262783290378"><ele>18.666666666666668</ele><time>2026-04-19T15:53:29Z</time></trkpt><trkpt lat="42.501120843220335" lon="14.138354991308027"><ele>19.333333333333336</ele><time>2026-04-19T15:53:30Z</time></trkpt><trkpt lat="42.501067039650266" lon="14.138478539263705"><ele>20.0</ele><time>2026-04-19T15:53:31Z</time></trkpt><trkpt lat="42.50100641650442" lon="14.138665841482029"><ele>20.333333333333336</ele><time>2026-04-19T15:53:32Z</time></trkpt><trkpt lat="42.50092928783938" lon="14.13885606114247"><ele>20.666666666666668</ele><time>2026-04-19T15:53:33Z</time></trkpt><trkpt lat="42.50084569502445" lon="14.139053584854146"><ele>21.0</ele><time>2026-04-19T15:53:34Z</time></trkpt><trkpt lat="42.50074864669152" lon="14.139261386701092"><ele>22.666666666666664</ele><time>2026-04-19T15:53:35Z</time></trkpt><trkpt lat="42.500640435423485" lon="14.139459712460697"><ele>24.333333333333332</ele><time>2026-04-19T15:53:36Z</time></trkpt><trkpt lat="42.500525464854164" lon="14.139654144401115"><ele>26.0</ele><time>2026-04-19T15:53:37Z</time></trkpt><trkpt lat="42.50042024571666" lon="14.13981673053942"><ele>29.25</ele><time>2026-04-19T15:53:38Z</time></trkpt><trkpt lat="42.50032742227179" lon="14.13996134733338"><ele>32.5</ele><time>2026-04-19T15:53:39Z</time></trkpt><trkpt lat="42.50023879439105" lon="14.140093149928262"><ele>35.75</ele><time>2026-04-19T15:53:40Z</time></trkpt><trkpt lat="42.50015024816595" lon="14.140257620862872"><ele>39.0</ele><time>2026-04-19T15:53:41Z</time></trkpt><trkpt lat="42.50005332695025" lon="14.140395593956843"><ele>39.0</ele><time>2026-04-19T15:53:42Z</time></trkpt><trkpt lat="42.49996727096503" lon="14.140529052049002"><ele>39.0</ele><time>2026-04-19T15:53:43Z</time></trkpt><trkpt lat="42.49986572971051" lon="14.140663246585317"><ele>39.0</ele><time>2026-04-19T15:53:44Z</time></trkpt><trkpt lat="42.499763794312436" lon="14.140810591525918"><ele>39.0</ele><time>2026-04-19T15:53:45Z</time></trkpt><trkpt lat="42.499641494609314" lon="14.140920855410613"><ele>42.25</ele><time>2026-04-19T15:53:46Z</time></trkpt><trkpt lat="42.49952369080382" lon="14.141036957147401"><ele>45.5</ele><time>2026-04-19T15:53:47Z</time></trkpt><trkpt lat="42.49941504945469" lon="14.14114449576111"><ele>48.75</ele><time>2026-04-19T15:53:47.999Z</time></trkpt><trkpt lat="42.49933088006367" lon="14.141244841088865"><ele>52.0</ele><time>2026-04-19T15:53:48.999Z</time></trkpt><trkpt lat="42.49925509921092" lon="14.141351139843318"><ele>52.0</ele><time>2026-04-19T15:53:49.999Z</time></trkpt><trkpt lat="42.499170173988446" lon="14.141465968013039"><ele>52.0</ele><time>2026-04-19T15:53:50.999Z</time></trkpt><trkpt lat="42.499077419638205" lon="14.141623141645487"><ele>52.0</ele><time>2026-04-19T15:53:51.999Z</time></trkpt><trkpt lat="42.49895985481465" lon="14.141792786239774"><ele>52.0</ele><time>2026-04-19T15:53:52.999Z</time></trkpt><trkpt lat="42.49886642783401" lon="14.141988648745489"><ele>49.75</ele><time>2026-04-19T15:53:53.999Z</time></trkpt><trkpt lat="42.49878953205246" lon="14.142171590520762"><ele>47.5</ele><time>2026-04-19T15:53:54.999Z</time></trkpt><trkpt lat="42.498732189086844" lon="14.142346943565823"><ele>45.25</ele><time>2026-04-19T15:53:55.999Z</time></trkpt><trkpt lat="42.498716754718174" lon="14.14253636659224"><ele>43.0</ele><time>2026-04-19T15:53:56.999Z</time></trkpt><trkpt lat="42.498719628710276" lon="14.1427215755759"><ele>42.25</ele><time>2026-04-19T15:53:57.999Z</time></trkpt><trkpt lat="42.49874787957132" lon="14.142909037980443"><ele>41.5</ele><time>2026-04-19T15:53:58.999Z</time></trkpt><trkpt lat="42.498794984947935" lon="14.143092131111702"><ele>40.75</ele><time>2026-04-19T15:53:59.999Z</time></trkpt><trkpt lat="42.49885065185119" lon="14.143272241730758"><ele>40.0</ele><time>2026-04-19T15:54:00.999Z</time></trkpt><trkpt lat="42.4988981284429" lon="14.143460350220348"><ele>40.0</ele><time>2026-04-19T15:54:01.999Z</time></trkpt><trkpt lat="42.49893340064084" lon="14.14366206277512"><ele>40.0</ele><time>2026-04-19T15:54:02.999Z</time></trkpt><trkpt lat="42.498920129034275" lon="14.143856853494466"><ele>40.0</ele><time>2026-04-19T15:54:03.999Z</time></trkpt><trkpt lat="42.49890168331984" lon="14.14402940446385"><ele>40.0</ele><time>2026-04-19T15:54:04.999Z</time></trkpt><trkpt lat="42.49887331911578" lon="14.144203864120291"><ele>41.333333333333336</ele><time>2026-04-19T15:54:05.999Z</time></trkpt><trkpt lat="42.498825610708224" lon="14.144411908111314"><ele>42.666666666666664</ele><time>2026-04-19T15:54:06.999Z</time></trkpt><trkpt lat="42.49876310951829" lon="14.144662637094571"><ele>44.0</ele><time>2026-04-19T15:54:07.999Z</time></trkpt><trkpt lat="42.49869434797905" lon="14.144938479946623"><ele>46.0</ele><time>2026-04-19T15:54:08.999Z</time></trkpt><trkpt lat="42.498634597797555" lon="14.145177923931088"><ele>48.0</ele><time>2026-04-19T15:54:09.999Z</time></trkpt><trkpt lat="42.49858597216483" lon="14.145437399572057"><ele>50.0</ele><time>2026-04-19T15:54:10.999Z</time></trkpt><trkpt lat="42.498526921521936" lon="14.145666822897082"><ele>54.333333333333336</ele><time>2026-04-19T15:54:11.999Z</time></trkpt><trkpt lat="42.49847037418031" lon="14.145884889597125"><ele>58.66666666666667</ele><time>2026-04-19T15:54:12.999Z</time></trkpt><trkpt lat="42.49841744595755" lon="14.146091670811368"><ele>63.0</ele><time>2026-04-19T15:54:13.999Z</time></trkpt><trkpt lat="42.498370311613726" lon="14.146284449981563"><ele>63.0</ele><time>2026-04-19T15:54:14.999Z</time></trkpt><trkpt lat="42.49832739150737" lon="14.146457024973618"><ele>63.0</ele><time>2026-04-19T15:54:15.999Z</time></trkpt><trkpt lat="42.49828281856251" lon="14.146633079804312"><ele>63.0</ele><time>2026-04-19T15:54:16.999Z</time></trkpt><trkpt lat="42.498242558702465" lon="14.146800272245246"><ele>63.0</ele><time>2026-04-19T15:54:18Z</time></trkpt><trkpt lat="42.49819658464631" lon="14.146962432571993"><ele>64.25</ele><time>2026-04-19T15:54:19Z</time></trkpt><trkpt lat="42.498153444045286" lon="14.147130684435243"><ele>65.5</ele><time>2026-04-19T15:54:20Z</time></trkpt><trkpt lat="42.49811029023719" lon="14.147303449520063"><ele>66.75</ele><time>2026-04-19T15:54:21Z</time></trkpt><trkpt lat="42.49808555663981" lon="14.147423507089728"><ele>68.0</ele><time>2026-04-19T15:54:22Z</time></trkpt><trkpt lat="42.49800996735865" lon="14.147558851386533"><ele>68.5</ele><time>2026-04-19T15:54:23Z</time></trkpt><trkpt lat="42.49796613575773" lon="14.147710511171297"><ele>69.0</ele><time>2026-04-19T15:54:24Z</time></trkpt><trkpt lat="42.49792248043544" lon="14.14785868745173"><ele>69.5</ele><time>2026-04-19T15:54:25Z</time></trkpt><trkpt lat="42.4978825927718" lon="14.14800846319577"><ele>70.0</ele><time>2026-04-19T15:54:26Z</time></trkpt><trkpt lat="42.497847658341726" lon="14.148181071798145"><ele>70.5</ele><time>2026-04-19T15:54:27Z</time></trkpt><trkpt lat="42.497806151914595" lon="14.148334110821315"><ele>71.0</ele><time>2026-04-19T15:54:28Z</time></trkpt><trkpt lat="42.49776226606068" lon="14.148483722854875"><ele>71.5</ele><time>2026-04-19T15:54:29.051Z</time></trkpt><trkpt lat="42.497720342411384" lon="14.148629810722463"><ele>72.0</ele><time>2026-04-19T15:54:30.039Z</time></trkpt><trkpt lat="42.497677224750845" lon="14.148782235970959"><ele>72.0</ele><time>2026-04-19T15:54:31.032Z</time></trkpt><trkpt lat="42.49763602832179" lon="14.148937965057181"><ele>72.0</ele><time>2026-04-19T15:54:32.032Z</time></trkpt><trkpt lat="42.49759770692419" lon="14.149091394474281"><ele>72.0</ele><time>2026-04-19T15:54:33.028Z</time></trkpt><trkpt lat="42.49755725255575" lon="14.14924155297593"><ele>72.0</ele><time>2026-04-19T15:54:34.026Z</time></trkpt><trkpt lat="42.4969248494683" lon="14.151841340986003"><ele>118.0</ele><time>2026-04-19T15:54:37.473Z</time></trkpt><trkpt lat="42.496661949664016" lon="14.15261179425149"><ele>130.0</ele><time>2026-04-19T15:54:38.469Z</time></trkpt><trkpt lat="42.4964029" lon="14.1533173"><ele>52.0</ele><time>2026-04-19T15:54:39.469Z</time></trkpt><trkpt lat="42.48807683989414" lon="14.163748828755278"><ele>48.33333333333333</ele><time>2026-04-19T15:56:08.999Z</time></trkpt><trkpt lat="42.487925257269374" lon="14.163841145183843"><ele>44.666666666666664</ele><time>2026-04-19T15:56:09.999Z</time></trkpt><trkpt lat="42.487778516788374" lon="14.163941707155834"><ele>41.0</ele><time>2026-04-19T15:56:10.999Z</time></trkpt><trkpt lat="42.487610735965575" lon="14.164035509479957"><ele>40.666666666666664</ele><time>2026-04-19T15:56:11.999Z</time></trkpt><trkpt lat="42.487433700279475" lon="14.164130216003953"><ele>40.333333333333336</ele><time>2026-04-19T15:56:12.999Z</time></trkpt><trkpt lat="42.48725557432705" lon="14.164205146223939"><ele>40.0</ele><time>2026-04-19T15:56:13.999Z</time></trkpt><trkpt lat="42.487084765569556" lon="14.164309430411416"><ele>44.0</ele><time>2026-04-19T15:56:14.999Z</time></trkpt><trkpt lat="42.4869167832723" lon="14.164394051476753"><ele>48.0</ele><time>2026-04-19T15:56:15.999Z</time></trkpt><trkpt lat="42.48674805061385" lon="14.164478871818925"><ele>52.0</ele><time>2026-04-19T15:56:16.999Z</time></trkpt><trkpt lat="42.486578612125044" lon="14.16456414794247"><ele>52.0</ele><time>2026-04-19T15:56:17.999Z</time></trkpt><trkpt lat="42.486403566239495" lon="14.164663277135514"><ele>52.0</ele><time>2026-04-19T15:56:18.999Z</time></trkpt><trkpt lat="42.486226835869154" lon="14.164758457869414"><ele>52.0</ele><time>2026-04-19T15:56:19.999Z</time></trkpt><trkpt lat="42.48605029737535" lon="14.164855039472997"><ele>55.33333333333333</ele><time>2026-04-19T15:56:20.999Z</time></trkpt><trkpt lat="42.485870955748034" lon="14.164944400638685"><ele>58.66666666666667</ele><time>2026-04-19T15:56:21.999Z</time></trkpt><trkpt lat="42.48568971177312" lon="14.165030079284703"><ele>62.0</ele><time>2026-04-19T15:56:22.999Z</time></trkpt><trkpt lat="42.48551284790302" lon="14.1651087982361"><ele>66.33333333333334</ele><time>2026-04-19T15:56:24Z</time></trkpt><trkpt lat="42.4853339833811" lon="14.165186985667257"><ele>70.66666666666667</ele><time>2026-04-19T15:56:25Z</time></trkpt><trkpt lat="42.48516034036179" lon="14.165270720122164"><ele>75.0</ele><time>2026-04-19T15:56:26Z</time></trkpt><trkpt lat="42.48497883353579" lon="14.165353211471865"><ele>75.0</ele><time>2026-04-19T15:56:27Z</time></trkpt><trkpt lat="42.48479901322824" lon="14.165433302778869"><ele>75.0</ele><time>2026-04-19T15:56:28Z</time></trkpt><trkpt lat="42.48461876658756" lon="14.165517766796091"><ele>75.0</ele><time>2026-04-19T15:56:29Z</time></trkpt><trkpt lat="42.484435718462926" lon="14.165604501914085"><ele>76.33333333333333</ele><time>2026-04-19T15:56:30Z</time></trkpt><trkpt lat="42.48424677517141" lon="14.165691743293987"><ele>77.66666666666666</ele><time>2026-04-19T15:56:31Z</time></trkpt><trkpt lat="42.48406429005411" lon="14.165757812240546"><ele>79.0</ele><time>2026-04-19T15:56:32Z</time></trkpt><trkpt lat="42.48388131507704" lon="14.165859429325074"><ele>82.33333333333333</ele><time>2026-04-19T15:56:33Z</time></trkpt><trkpt lat="42.483697881951464" lon="14.165962191842803"><ele>85.66666666666667</ele><time>2026-04-19T15:56:34Z</time></trkpt><trkpt lat="42.48351353091045" lon="14.166070894997583"><ele>89.0</ele><time>2026-04-19T15:56:35Z</time></trkpt><trkpt lat="42.483323257955995" lon="14.166181243320905"><ele>89.0</ele><time>2026-04-19T15:56:36Z</time></trkpt><trkpt lat="42.4831337088629" lon="14.166291709944758"><ele>89.0</ele><time>2026-04-19T15:56:37Z</time></trkpt><trkpt lat="42.48295438613397" lon="14.166405191848309"><ele>89.0</ele><time>2026-04-19T15:56:38Z</time></trkpt><trkpt lat="42.482764821785935" lon="14.166474307443426"><ele>93.0</ele><time>2026-04-19T15:56:39Z</time></trkpt><trkpt lat="42.48255769818874" lon="14.166555249354497"><ele>97.0</ele><time>2026-04-19T15:56:40.06Z</time></trkpt><trkpt lat="42.482341155343306" lon="14.166630203251279"><ele>101.0</ele><time>2026-04-19T15:56:41.06Z</time></trkpt><trkpt lat="42.4821125507449" lon="14.166709332193804"><ele>104.5</ele><time>2026-04-19T15:56:42.058Z</time></trkpt><trkpt lat="42.48190648152018" lon="14.166762153243658"><ele>108.0</ele><time>2026-04-19T15:56:43.054Z</time></trkpt><trkpt lat="42.479874169352755" lon="14.166914968031701"><ele>127.0</ele><time>2026-04-19T15:56:46.469Z</time></trkpt><trkpt lat="42.47924245521087" lon="14.166926525045048"><ele>116.0</ele><time>2026-04-19T15:56:47.471Z</time></trkpt><trkpt lat="42.47861234791095" lon="14.166935429764546"><ele>116.0</ele><time>2026-04-19T15:56:48.471Z</time></trkpt><trkpt lat="42.47798219184068" lon="14.166943919733361"><ele>112.0</ele><time>2026-04-19T15:56:49.471Z</time></trkpt><trkpt lat="42.47735291448543" lon="14.166955769944945"><ele>128.0</ele><time>2026-04-19T15:56:50.47Z</time></trkpt><trkpt lat="42.476723614996956" lon="14.166966429227676"><ele>133.0</ele><time>2026-04-19T15:56:51.469Z</time></trkpt><trkpt lat="42.47609190869149" lon="14.166972609022142"><ele>133.0</ele><time>2026-04-19T15:56:52.471Z</time></trkpt><trkpt lat="42.47546173711826" lon="14.166977189546495"><ele>119.0</ele><time>2026-04-19T15:56:53.471Z</time></trkpt><trkpt lat="42.47483160259944" lon="14.166980695527021"><ele>107.0</ele><time>2026-04-19T15:56:54.471Z</time></trkpt><trkpt lat="42.47420288196546" lon="14.166987232598839"><ele>96.0</ele><time>2026-04-19T15:56:55.469Z</time></trkpt><trkpt lat="42.47357169013958" lon="14.166993754825635"><ele>96.0</ele><time>2026-04-19T15:56:56.471Z</time></trkpt><trkpt lat="42.472941445059746" lon="14.166991414484238"><ele>85.0</ele><time>2026-04-19T15:56:57.471Z</time></trkpt><trkpt lat="42.472312695606924" lon="14.16696414254547"><ele>75.0</ele><time>2026-04-19T15:56:58.469Z</time></trkpt><trkpt lat="42.4714705647687" lon="14.166859686714734"><ele>73.0</ele><time>2026-04-19T15:57:23Z</time></trkpt><trkpt lat="42.471243513277415" lon="14.166822666157762"><ele>71.0</ele><time>2026-04-19T15:57:24Z</time></trkpt><trkpt lat="42.47103042608369" lon="14.166778194095704"><ele>69.0</ele><time>2026-04-19T15:57:25Z</time></trkpt><trkpt lat="42.47080839296632" lon="14.166730087526233"><ele>69.0</ele><time>2026-04-19T15:57:26Z</time></trkpt><trkpt lat="42.47058243018778" lon="14.166696076627295"><ele>69.0</ele><time>2026-04-19T15:57:27Z</time></trkpt><trkpt lat="42.47035771013157" lon="14.166630100340038"><ele>65.0</ele><time>2026-04-19T15:57:28Z</time></trkpt><trkpt lat="42.47012112760471" lon="14.166594838585702"><ele>61.0</ele><time>2026-04-19T15:57:29Z</time></trkpt><trkpt lat="42.46988038978474" lon="14.166547082019225"><ele>59.0</ele><time>2026-04-19T15:57:30Z</time></trkpt><trkpt lat="42.469641744433744" lon="14.1665134529022"><ele>57.0</ele><time>2026-04-19T15:57:31Z</time></trkpt><trkpt lat="42.469398723931896" lon="14.166482177710884"><ele>57.0</ele><time>2026-04-19T15:57:32Z</time></trkpt><trkpt lat="42.46914985309434" lon="14.166458009924147"><ele>57.0</ele><time>2026-04-19T15:57:33Z</time></trkpt><trkpt lat="42.468894050216505" lon="14.166445325861195"><ele>53.0</ele><time>2026-04-19T15:57:34Z</time></trkpt><trkpt lat="42.468620325555456" lon="14.16644635842612"><ele>49.0</ele><time>2026-04-19T15:57:35Z</time></trkpt><trkpt lat="42.46834253157799" lon="14.166464639480463"><ele>49.0</ele><time>2026-04-19T15:57:36Z</time></trkpt><trkpt lat="42.46807204811293" lon="14.166505512195926"><ele>49.0</ele><time>2026-04-19T15:57:37Z</time></trkpt><trkpt lat="42.4677896769486" lon="14.166570394641912"><ele>49.5</ele><time>2026-04-19T15:57:38Z</time></trkpt><trkpt lat="42.46751021073334" lon="14.166667868187055"><ele>50.0</ele><time>2026-04-19T15:57:39Z</time></trkpt><trkpt lat="42.467223343872234" lon="14.166798388486384"><ele>45.0</ele><time>2026-04-19T15:57:40Z</time></trkpt><trkpt lat="42.466953545864484" lon="14.166952348275098"><ele>40.0</ele><time>2026-04-19T15:57:41Z</time></trkpt><trkpt lat="42.46670323744163" lon="14.167115435788569"><ele>40.0</ele><time>2026-04-19T15:57:42Z</time></trkpt><trkpt lat="42.46647500460625" lon="14.16727530663461"><ele>40.0</ele><time>2026-04-19T15:57:43Z</time></trkpt><trkpt lat="42.4662550027526" lon="14.167435422521818"><ele>38.5</ele><time>2026-04-19T15:57:44Z</time></trkpt><trkpt lat="42.46604913831702" lon="14.167589541576728"><ele>37.0</ele><time>2026-04-19T15:57:45Z</time></trkpt><trkpt lat="42.465858460777994" lon="14.167754788312454"><ele>37.0</ele><time>2026-04-19T15:57:45.999Z</time></trkpt><trkpt lat="42.46568749666712" lon="14.167931723976952"><ele>37.0</ele><time>2026-04-19T15:57:46.999Z</time></trkpt><trkpt lat="42.465535264161154" lon="14.168119296576219"><ele>37.0</ele><time>2026-04-19T15:57:47.999Z</time></trkpt><trkpt lat="42.46539722406765" lon="14.168322919443593"><ele>36.66666666666667</ele><time>2026-04-19T15:57:48.999Z</time></trkpt><trkpt lat="42.46526655747436" lon="14.168550437798206"><ele>36.333333333333336</ele><time>2026-04-19T15:57:49.999Z</time></trkpt><trkpt lat="42.46515305346765" lon="14.168789389967673"><ele>36.0</ele><time>2026-04-19T15:57:50.999Z</time></trkpt><trkpt lat="42.465059470075815" lon="14.169023489394146"><ele>36.0</ele><time>2026-04-19T15:57:51.999Z</time></trkpt><trkpt lat="42.464971249627986" lon="14.169240084784382"><ele>36.0</ele><time>2026-04-19T15:57:52.999Z</time></trkpt><trkpt lat="42.464888489760206" lon="14.16942295576558"><ele>36.0</ele><time>2026-04-19T15:57:53.999Z</time></trkpt><trkpt lat="42.46481549411164" lon="14.169564502782233"><ele>36.0</ele><time>2026-04-19T15:57:54.999Z</time></trkpt><trkpt lat="42.46476065258738" lon="14.169666701852394"><ele>36.0</ele><time>2026-04-19T15:57:55.999Z</time></trkpt><trkpt lat="42.46473591305303" lon="14.169773084357695"><ele>36.0</ele><time>2026-04-19T15:57:57.999Z</time></trkpt><trkpt lat="42.46475397672163" lon="14.169979743869181"><ele>36.0</ele><time>2026-04-19T15:58:02.999Z</time></trkpt><trkpt lat="42.46482067378132" lon="14.170107246200512"><ele>36.0</ele><time>2026-04-19T15:58:03.999Z</time></trkpt><trkpt lat="42.46490203995865" lon="14.170272360384008"><ele>35.5</ele><time>2026-04-19T15:58:04.999Z</time></trkpt><trkpt lat="42.46499113592529" lon="14.17043706782817"><ele>35.0</ele><time>2026-04-19T15:58:05.999Z</time></trkpt><trkpt lat="42.465076243692124" lon="14.170592074998563"><ele>34.5</ele><time>2026-04-19T15:58:06.999Z</time></trkpt><trkpt lat="42.465165481594276" lon="14.170735446082022"><ele>34.0</ele><time>2026-04-19T15:58:07.999Z</time></trkpt><trkpt lat="42.46522971886674" lon="14.170901829552609"><ele>33.6</ele><time>2026-04-19T15:58:08.999Z</time></trkpt><trkpt lat="42.46529692669845" lon="14.17104034644479"><ele>33.2</ele><time>2026-04-19T15:58:09.999Z</time></trkpt><trkpt lat="42.465348990054444" lon="14.171163179071964"><ele>32.800000000000004</ele><time>2026-04-19T15:58:10.999Z</time></trkpt><trkpt lat="42.46538254565765" lon="14.171274795220222"><ele>32.4</ele><time>2026-04-19T15:58:11.999Z</time></trkpt><trkpt lat="42.465422673286184" lon="14.171380430603387"><ele>32.0</ele><time>2026-04-19T15:58:12.999Z</time></trkpt><trkpt lat="42.465424108831904" lon="14.17151366502916"><ele>32.4</ele><time>2026-04-19T15:58:13.999Z</time></trkpt><trkpt lat="42.46541137370446" lon="14.171657747323753"><ele>32.800000000000004</ele><time>2026-04-19T15:58:14.999Z</time></trkpt><trkpt lat="42.46538207659222" lon="14.171783299346298"><ele>33.2</ele><time>2026-04-19T15:58:15.999Z</time></trkpt><trkpt lat="42.46534199072889" lon="14.171892782660159"><ele>33.6</ele><time>2026-04-19T15:58:16.999Z</time></trkpt><trkpt lat="42.465286808717146" lon="14.172003781562633"><ele>34.0</ele><time>2026-04-19T15:58:17.999Z</time></trkpt><trkpt lat="42.46520683407299" lon="14.172121526760431"><ele>34.0</ele><time>2026-04-19T15:58:18.999Z</time></trkpt><trkpt lat="42.46508684786492" lon="14.172233523736061"><ele>34.0</ele><time>2026-04-19T15:58:19.999Z</time></trkpt><trkpt lat="42.46496660041617" lon="14.172398305931047"><ele>34.0</ele><time>2026-04-19T15:58:20.999Z</time></trkpt><trkpt lat="42.464834252739244" lon="14.172546779300022"><ele>34.2</ele><time>2026-04-19T15:58:21.999Z</time></trkpt><trkpt lat="42.46472438517629" lon="14.172664858832972"><ele>34.4</ele><time>2026-04-19T15:58:22.999Z</time></trkpt><trkpt lat="42.464651359334695" lon="14.172714525566745"><ele>34.6</ele><time>2026-04-19T15:58:23.999Z</time></trkpt><trkpt lat="42.46457649353312" lon="14.172722994703056"><ele>34.8</ele><time>2026-04-19T15:58:25.999Z</time></trkpt><trkpt lat="42.464596441002755" lon="14.172805532630196"><ele>35.0</ele><time>2026-04-19T15:58:32Z</time></trkpt><trkpt lat="42.46472557256162" lon="14.17276535981337"><ele>35.0</ele><time>2026-04-19T15:58:34Z</time></trkpt><trkpt lat="42.46477952302847" lon="14.172684867416217"><ele>35.0</ele><time>2026-04-19T15:58:35Z</time></trkpt><trkpt lat="42.46484088484459" lon="14.172597134012511"><ele>35.0</ele><time>2026-04-19T15:58:36Z</time></trkpt><trkpt lat="42.46492094444742" lon="14.172497097793942"><ele>35.0</ele><time>2026-04-19T15:58:37Z</time></trkpt><trkpt lat="42.465011669047584" lon="14.172392850446133"><ele>35.0</ele><time>2026-04-19T15:58:38Z</time></trkpt><trkpt lat="42.465102698112005" lon="14.172282756009137"><ele>34.8</ele><time>2026-04-19T15:58:39Z</time></trkpt><trkpt lat="42.46517861696125" lon="14.172178865586826"><ele>34.6</ele><time>2026-04-19T15:58:40Z</time></trkpt><trkpt lat="42.4652428977289" lon="14.17211183714245"><ele>34.4</ele><time>2026-04-19T15:58:41Z</time></trkpt><trkpt lat="42.46537878389098" lon="14.172161604563483"><ele>34.2</ele><time>2026-04-19T15:58:43Z</time></trkpt><trkpt lat="42.46547360508458" lon="14.172247628319756"><ele>34.0</ele><time>2026-04-19T15:58:44Z</time></trkpt><trkpt lat="42.46556859386273" lon="14.172353439119167"><ele>35.66666666666667</ele><time>2026-04-19T15:58:45Z</time></trkpt><trkpt lat="42.46565173778182" lon="14.172524264199321"><ele>37.333333333333336</ele><time>2026-04-19T15:58:46Z</time></trkpt><trkpt lat="42.46572366873456" lon="14.172736715943664"><ele>39.0</ele><time>2026-04-19T15:58:47Z</time></trkpt><trkpt lat="42.465810606131235" lon="14.172969567801582"><ele>42.0</ele><time>2026-04-19T15:58:48Z</time></trkpt><trkpt lat="42.46590383981667" lon="14.173194402937204"><ele>45.0</ele><time>2026-04-19T15:58:49Z</time></trkpt><trkpt lat="42.46601993158175" lon="14.173426485297442"><ele>48.0</ele><time>2026-04-19T15:58:50Z</time></trkpt><trkpt lat="42.46615535052709" lon="14.173680487234934"><ele>47.666666666666664</ele><time>2026-04-19T15:58:51Z</time></trkpt><trkpt lat="42.46629281184649" lon="14.173938192306974"><ele>47.33333333333333</ele><time>2026-04-19T15:58:52Z</time></trkpt><trkpt lat="42.466409036112964" lon="14.174162099670982"><ele>47.0</ele><time>2026-04-19T15:58:53Z</time></trkpt><trkpt lat="42.46650856444032" lon="14.174341939913232"><ele>52.0</ele><time>2026-04-19T15:58:54Z</time></trkpt><trkpt lat="42.46660517190951" lon="14.17450300305831"><ele>57.0</ele><time>2026-04-19T15:58:55Z</time></trkpt><trkpt lat="42.46668865723544" lon="14.174679373024777"><ele>62.0</ele><time>2026-04-19T15:58:56Z</time></trkpt><trkpt lat="42.466758619956416" lon="14.174853845359126"><ele>64.5</ele><time>2026-04-19T15:58:57Z</time></trkpt><trkpt lat="42.46680752298764" lon="14.175031107060292"><ele>67.0</ele><time>2026-04-19T15:58:58Z</time></trkpt><trkpt lat="42.466843505286015" lon="14.175171221557985"><ele>69.5</ele><time>2026-04-19T15:58:59Z</time></trkpt><trkpt lat="42.46688878587033" lon="14.175327641585293"><ele>72.0</ele><time>2026-04-19T15:59:00Z</time></trkpt><trkpt lat="42.46695263540728" lon="14.175513215294925"><ele>71.0</ele><time>2026-04-19T15:59:01Z</time></trkpt><trkpt lat="42.46701118401777" lon="14.175734898032584"><ele>70.0</ele><time>2026-04-19T15:59:02Z</time></trkpt><trkpt lat="42.46709326772164" lon="14.175977189289444"><ele>69.0</ele><time>2026-04-19T15:59:03Z</time></trkpt><trkpt lat="42.467186357856995" lon="14.176233039895564"><ele>72.33333333333333</ele><time>2026-04-19T15:59:04Z</time></trkpt><trkpt lat="42.46730309006344" lon="14.176485943810194"><ele>75.66666666666666</ele><time>2026-04-19T15:59:05Z</time></trkpt><trkpt lat="42.46737918207462" lon="14.176749678202647"><ele>79.0</ele><time>2026-04-19T15:59:06Z</time></trkpt><trkpt lat="42.467456413896244" lon="14.176970944331817"><ele>79.0</ele><time>2026-04-19T15:59:07Z</time></trkpt><trkpt lat="42.46753592117774" lon="14.177159575855184"><ele>79.0</ele><time>2026-04-19T15:59:08Z</time></trkpt><trkpt lat="42.467589822091234" lon="14.177325659431911"><ele>79.0</ele><time>2026-04-19T15:59:09Z</time></trkpt><trkpt lat="42.46763705254848" lon="14.17744601727735"><ele>79.0</ele><time>2026-04-19T15:59:10Z</time></trkpt><trkpt lat="42.467681938667795" lon="14.177546553607488"><ele>78.75</ele><time>2026-04-19T15:59:11Z</time></trkpt><trkpt lat="42.467737347041734" lon="14.17761111162785"><ele>78.5</ele><time>2026-04-19T15:59:12Z</time></trkpt><trkpt lat="42.46780830884737" lon="14.17764835236504"><ele>78.25</ele><time>2026-04-19T15:59:14Z</time></trkpt><trkpt lat="42.46774411610947" lon="14.177939286971714"><ele>78.0</ele><time>2026-04-19T15:59:25Z</time></trkpt><trkpt lat="42.467694756337785" lon="14.178066255558548"><ele>77.0</ele><time>2026-04-19T15:59:26Z</time></trkpt><trkpt lat="42.46763912962073" lon="14.17820368722462"><ele>76.0</ele><time>2026-04-19T15:59:27Z</time></trkpt><trkpt lat="42.46758301670219" lon="14.1783409457909"><ele>75.0</ele><time>2026-04-19T15:59:28Z</time></trkpt><trkpt lat="42.46753166206433" lon="14.178471543704873"><ele>74.0</ele><time>2026-04-19T15:59:29Z</time></trkpt><trkpt lat="42.46748755479654" lon="14.178587691339223"><ele>73.0</ele><time>2026-04-19T15:59:30Z</time></trkpt><trkpt lat="42.46744504724046" lon="14.178699535113212"><ele>73.0</ele><time>2026-04-19T15:59:31Z</time></trkpt><trkpt lat="42.46740483879319" lon="14.178808206596175"><ele>73.0</ele><time>2026-04-19T15:59:32Z</time></trkpt><trkpt lat="42.46736928048578" lon="14.178912649778104"><ele>73.0</ele><time>2026-04-19T15:59:33Z</time></trkpt><trkpt lat="42.467338906805665" lon="14.17901181770214"><ele>73.0</ele><time>2026-04-19T15:59:34Z</time></trkpt><trkpt lat="42.467310821577094" lon="14.179104884031172"><ele>73.0</ele><time>2026-04-19T15:59:35Z</time></trkpt><trkpt lat="42.467271483850546" lon="14.179197522085866"><ele>73.0</ele><time>2026-04-19T15:59:37Z</time></trkpt><trkpt lat="42.46739086150579" lon="14.179190867372995"><ele>73.0</ele><time>2026-04-19T16:03:32Z</time></trkpt><trkpt lat="42.46739953016487" lon="14.179086381565726"><ele>73.0</ele><time>2026-04-19T16:03:36Z</time></trkpt><trkpt lat="42.46743175687251" lon="14.178983231583977"><ele>73.0</ele><time>2026-04-19T16:03:40Z</time></trkpt><trkpt lat="42.46744827258859" lon="14.178874257396316"><ele>73.0</ele><time>2026-04-19T16:03:44.067Z</time></trkpt><trkpt lat="42.467404425427546" lon="14.179121358074639"><ele>73.0</ele><time>2026-04-19T16:03:56.063Z</time></trkpt><trkpt lat="42.46745438461656" lon="14.17906130516278"><ele>66.0</ele><time>2026-04-19T16:05:59.016Z</time></trkpt><trkpt lat="42.467404425427546" lon="14.179121358074639"><ele>66.0</ele><time>2026-04-19T16:06:15.009Z</time></trkpt><trkpt lat="42.46743115963492" lon="14.179244929689027"><ele>66.0</ele><time>2026-04-19T16:06:22.017Z</time></trkpt><trkpt lat="42.4673700539111" lon="14.17926900162031"><ele>66.0</ele><time>2026-04-19T16:06:56Z</time></trkpt></trkseg></trk></gpx>